<?xml version='1.0' encoding='UTF-8'?><gpx version="1.1" creator="JPX - https://github.com/jenetics/jpx" xmlns="http://www.topografix.com/GPX/1/1"><trk><trkseg><trkpt lat="42.565540467964595" lon="12.124087234054004"><ele>421.0</ele><time>2026-04-19T08:32:02.996Z</time></trkpt><trkpt lat="42.565633555088745" lon="12.124172010472511"><ele>421.0</ele><time>2026-04-19T08:32:04.996Z</time></trkpt><trkpt lat="42.565684092705126" lon="12.124230347800365"><ele>421.0</ele><time>2026-04-19T08:32:05.996Z</time></trkpt><trkpt lat="42.56574920722132" lon="12.124293822102818"><ele>421.0</ele><time>2026-04-19T08:32:06.996Z</time></trkpt><trkpt lat="42.56581482719823" lon="12.124374919310297"><ele>421.0</ele><time>2026-04-19T08:32:07.996Z</time></trkpt><trkpt lat="42.56588521203216" lon="12.124475667307458"><ele>421.0</ele><time>2026-04-19T08:32:08.996Z</time></trkpt><trkpt lat="42.56596861480208" lon="12.124595431454892"><ele>421.0</ele><time>2026-04-19T08:32:09.996Z</time></trkpt><trkpt lat="42.566023367564036" lon="12.124747146708655"><ele>421.0</ele><time>2026-04-19T08:32:10.996Z</time></trkpt><trkpt lat="42.56608420441509" lon="12.124900097483486"><ele>421.0</ele><time>2026-04-19T08:32:11.996Z</time></trkpt><trkpt lat="42.56614665351772" lon="12.125069543622049"><ele>422.6666666666667</ele><time>2026-04-19T08:32:12.996Z</time></trkpt><trkpt lat="42.56620417632764" lon="12.125265069132624"><ele>424.33333333333337</ele><time>2026-04-19T08:32:13.996Z</time></trkpt><trkpt lat="42.56626504217184" lon="12.125464442684143"><ele>426.0</ele><time>2026-04-19T08:32:14.996Z</time></trkpt><trkpt lat="42.566333849221074" lon="12.125656778222456"><ele>423.66666666666663</ele><time>2026-04-19T08:32:15.996Z</time></trkpt><trkpt lat="42.56639685758832" lon="12.12587810958186"><ele>421.3333333333333</ele><time>2026-04-19T08:32:16.996Z</time></trkpt><trkpt lat="42.56646747011531" lon="12.126093768358858"><ele>419.0</ele><time>2026-04-19T08:32:17.996Z</time></trkpt><trkpt lat="42.56653802552488" lon="12.126316294108957"><ele>419.0</ele><time>2026-04-19T08:32:18.996Z</time></trkpt><trkpt lat="42.56660460998305" lon="12.126547323028555"><ele>419.0</ele><time>2026-04-19T08:32:19.996Z</time></trkpt><trkpt lat="42.56667673990533" lon="12.126781514124067"><ele>419.0</ele><time>2026-04-19T08:32:20.996Z</time></trkpt><trkpt lat="42.566746367372374" lon="12.127008338557603"><ele>416.0</ele><time>2026-04-19T08:32:21.996Z</time></trkpt><trkpt lat="42.566817679554596" lon="12.127230729401873"><ele>413.0</ele><time>2026-04-19T08:32:22.996Z</time></trkpt><trkpt lat="42.566882147263456" lon="12.127460222739703"><ele>410.0</ele><time>2026-04-19T08:32:23.996Z</time></trkpt><trkpt lat="42.56695011604731" lon="12.127682571497362"><ele>411.3333333333333</ele><time>2026-04-19T08:32:24.996Z</time></trkpt><trkpt lat="42.567008370749186" lon="12.127897885261687"><ele>412.66666666666663</ele><time>2026-04-19T08:32:25.996Z</time></trkpt><trkpt lat="42.56707022725591" lon="12.128105099760745"><ele>414.0</ele><time>2026-04-19T08:32:26.996Z</time></trkpt><trkpt lat="42.567136986739605" lon="12.128304024111035"><ele>414.0</ele><time>2026-04-19T08:32:27.996Z</time></trkpt><trkpt lat="42.5672126073805" lon="12.128485699568913"><ele>414.0</ele><time>2026-04-19T08:32:28.996Z</time></trkpt><trkpt lat="42.56731005381305" lon="12.128641961765922"><ele>414.0</ele><time>2026-04-19T08:32:29.996Z</time></trkpt><trkpt lat="42.567428241134905" lon="12.128772009901638"><ele>414.0</ele><time>2026-04-19T08:32:30.996Z</time></trkpt><trkpt lat="42.56756113242044" lon="12.128896124461455"><ele>414.0</ele><time>2026-04-19T08:32:31.996Z</time></trkpt><trkpt lat="42.567701173963655" lon="12.129007988472024"><ele>414.0</ele><time>2026-04-19T08:32:32.996Z</time></trkpt><trkpt lat="42.56783020514372" lon="12.129124809766033"><ele>416.33333333333337</ele><time>2026-04-19T08:32:33.996Z</time></trkpt><trkpt lat="42.56794738228541" lon="12.129254178155685"><ele>418.6666666666667</ele><time>2026-04-19T08:32:34.996Z</time></trkpt><trkpt lat="42.56804917770844" lon="12.129407945530943"><ele>421.0</ele><time>2026-04-19T08:32:36.014Z</time></trkpt><trkpt lat="42.568137425832674" lon="12.129584569943411"><ele>421.0</ele><time>2026-04-19T08:32:37.014Z</time></trkpt><trkpt lat="42.56820052663231" lon="12.12977905070681"><ele>421.0</ele><time>2026-04-19T08:32:38.014Z</time></trkpt><trkpt lat="42.56826148048451" lon="12.129962340408245"><ele>421.0</ele><time>2026-04-19T08:32:39.014Z</time></trkpt><trkpt lat="42.56831455162642" lon="12.130137623493203"><ele>421.0</ele><time>2026-04-19T08:32:40.014Z</time></trkpt><trkpt lat="42.568362712845186" lon="12.130292057268514"><ele>417.8</ele><time>2026-04-19T08:32:41.014Z</time></trkpt><trkpt lat="42.56840613485837" lon="12.130427238779474"><ele>414.6</ele><time>2026-04-19T08:32:42.014Z</time></trkpt><trkpt lat="42.56844256035822" lon="12.130536381955407"><ele>411.4</ele><time>2026-04-19T08:32:43.014Z</time></trkpt><trkpt lat="42.568486370461194" lon="12.130648568343839"><ele>408.2</ele><time>2026-04-19T08:32:45.014Z</time></trkpt><trkpt lat="42.568531380252615" lon="12.130800259275365"><ele>405.0</ele><time>2026-04-19T08:32:52.014Z</time></trkpt><trkpt lat="42.568582591203274" lon="12.13089310874733"><ele>402.6666666666667</ele><time>2026-04-19T08:32:53.014Z</time></trkpt><trkpt lat="42.568640326475254" lon="12.130998559068804"><ele>400.33333333333337</ele><time>2026-04-19T08:32:54.014Z</time></trkpt><trkpt lat="42.568723125441785" lon="12.131056164811454"><ele>398.0</ele><time>2026-04-19T08:32:55.014Z</time></trkpt><trkpt lat="42.56879669507378" lon="12.131109272607537"><ele>395.6666666666667</ele><time>2026-04-19T08:32:56.014Z</time></trkpt><trkpt lat="42.56886716601432" lon="12.131163989789147"><ele>393.33333333333337</ele><time>2026-04-19T08:32:57.014Z</time></trkpt><trkpt lat="42.56894305598934" lon="12.13122648081594"><ele>391.0</ele><time>2026-04-19T08:32:58.014Z</time></trkpt><trkpt lat="42.56903173041753" lon="12.131292345589374"><ele>390.8</ele><time>2026-04-19T08:32:59.014Z</time></trkpt><trkpt lat="42.569125019974855" lon="12.131364189304726"><ele>390.6</ele><time>2026-04-19T08:33:00.014Z</time></trkpt><trkpt lat="42.569215065759174" lon="12.131432978525579"><ele>390.4</ele><time>2026-04-19T08:33:01.014Z</time></trkpt><trkpt lat="42.56930274296909" lon="12.131502858203095"><ele>390.2</ele><time>2026-04-19T08:33:02.014Z</time></trkpt><trkpt lat="42.56938923392836" lon="12.131574107152055"><ele>390.0</ele><time>2026-04-19T08:33:03.014Z</time></trkpt><trkpt lat="42.569476148382584" lon="12.131664924921969"><ele>396.5</ele><time>2026-04-19T08:33:04.014Z</time></trkpt><trkpt lat="42.569574094399776" lon="12.131755718429368"><ele>403.0</ele><time>2026-04-19T08:33:05.014Z</time></trkpt><trkpt lat="42.56968225534126" lon="12.13185475416083"><ele>409.5</ele><time>2026-04-19T08:33:06.014Z</time></trkpt><trkpt lat="42.56979597309324" lon="12.13196666809191"><ele>416.0</ele><time>2026-04-19T08:33:07.014Z</time></trkpt><trkpt lat="42.56990969076449" lon="12.132097937417047"><ele>416.0</ele><time>2026-04-19T08:33:08.014Z</time></trkpt><trkpt lat="42.57002742291378" lon="12.132241152322667"><ele>416.0</ele><time>2026-04-19T08:33:09.014Z</time></trkpt><trkpt lat="42.57014420598305" lon="12.132395773649439"><ele>416.0</ele><time>2026-04-19T08:33:10.014Z</time></trkpt><trkpt lat="42.570261989119444" lon="12.132554414972615"><ele>418.0</ele><time>2026-04-19T08:33:11.014Z</time></trkpt><trkpt lat="42.570383431251955" lon="12.13271433112343"><ele>420.0</ele><time>2026-04-19T08:33:12.014Z</time></trkpt><trkpt lat="42.57049672870222" lon="12.132874026690189"><ele>422.0</ele><time>2026-04-19T08:33:13.014Z</time></trkpt><trkpt lat="42.57060798611707" lon="12.133031715367382"><ele>422.0</ele><time>2026-04-19T08:33:14.014Z</time></trkpt><trkpt lat="42.570722662001835" lon="12.133182212898232"><ele>422.0</ele><time>2026-04-19T08:33:15.014Z</time></trkpt><trkpt lat="42.57083974565147" lon="12.13332489427299"><ele>422.0</ele><time>2026-04-19T08:33:16.014Z</time></trkpt><trkpt lat="42.57095984158009" lon="12.13345165576816"><ele>421.5</ele><time>2026-04-19T08:33:17.014Z</time></trkpt><trkpt lat="42.571082609590036" lon="12.13357367726846"><ele>421.0</ele><time>2026-04-19T08:33:18.014Z</time></trkpt><trkpt lat="42.57120375164285" lon="12.133689466530845"><ele>420.5</ele><time>2026-04-19T08:33:19.014Z</time></trkpt><trkpt lat="42.57132743363149" lon="12.133795133778358"><ele>420.0</ele><time>2026-04-19T08:33:20.014Z</time></trkpt><trkpt lat="42.57145005480187" lon="12.13390731163689"><ele>420.0</ele><time>2026-04-19T08:33:21.014Z</time></trkpt><trkpt lat="42.57157735966201" lon="12.134020875061896"><ele>420.0</ele><time>2026-04-19T08:33:22.016Z</time></trkpt><trkpt lat="42.5717001090026" lon="12.134137536401452"><ele>420.0</ele><time>2026-04-19T08:33:23.016Z</time></trkpt><trkpt lat="42.57181690739896" lon="12.13427714180623"><ele>418.66666666666663</ele><time>2026-04-19T08:33:24.016Z</time></trkpt><trkpt lat="42.57192674541609" lon="12.13442669127635"><ele>417.3333333333333</ele><time>2026-04-19T08:33:25.016Z</time></trkpt><trkpt lat="42.57202108971044" lon="12.134582525044797"><ele>416.0</ele><time>2026-04-19T08:33:26.016Z</time></trkpt><trkpt lat="42.57210231858823" lon="12.134752491458299"><ele>410.0</ele><time>2026-04-19T08:33:27.016Z</time></trkpt><trkpt lat="42.57217656967946" lon="12.134930821288707"><ele>404.0</ele><time>2026-04-19T08:33:28.016Z</time></trkpt><trkpt lat="42.57224156224002" lon="12.135112003325895"><ele>398.0</ele><time>2026-04-19T08:33:29.016Z</time></trkpt><trkpt lat="42.572298477879606" lon="12.13529250738565"><ele>392.0</ele><time>2026-04-19T08:33:30.016Z</time></trkpt><trkpt lat="42.572341862498845" lon="12.135446433168458"><ele>392.0</ele><time>2026-04-19T08:33:31.016Z</time></trkpt><trkpt lat="42.57238621335689" lon="12.135589771489816"><ele>392.0</ele><time>2026-04-19T08:33:32.016Z</time></trkpt><trkpt lat="42.572439147046424" lon="12.135717559977836"><ele>392.0</ele><time>2026-04-19T08:33:33.016Z</time></trkpt><trkpt lat="42.572508737420826" lon="12.135830535568914"><ele>392.0</ele><time>2026-04-19T08:33:34.016Z</time></trkpt><trkpt lat="42.57259066495633" lon="12.135913640281784"><ele>392.0</ele><time>2026-04-19T08:33:35.016Z</time></trkpt><trkpt lat="42.57268599360724" lon="12.135960594261437"><ele>387.0</ele><time>2026-04-19T08:33:36.016Z</time></trkpt><trkpt lat="42.57280376387492" lon="12.135975364795948"><ele>382.0</ele><time>2026-04-19T08:33:37.016Z</time></trkpt><trkpt lat="42.572949113940325" lon="12.13596669072941"><ele>377.0</ele><time>2026-04-19T08:33:38.016Z</time></trkpt><trkpt lat="42.57312739897909" lon="12.135923916862104"><ele>372.0</ele><time>2026-04-19T08:33:39.016Z</time></trkpt><trkpt lat="42.573340224485726" lon="12.135869358295562"><ele>372.0</ele><time>2026-04-19T08:33:40.016Z</time></trkpt><trkpt lat="42.573550527261176" lon="12.135818296369544"><ele>372.0</ele><time>2026-04-19T08:33:41.016Z</time></trkpt><trkpt lat="42.57373388906941" lon="12.13577569223814"><ele>372.0</ele><time>2026-04-19T08:33:42.016Z</time></trkpt><trkpt lat="42.57388435318345" lon="12.135750103390661"><ele>372.25</ele><time>2026-04-19T08:33:43.016Z</time></trkpt><trkpt lat="42.574016655175335" lon="12.135736080483676"><ele>372.5</ele><time>2026-04-19T08:33:44.016Z</time></trkpt><trkpt lat="42.57415385953112" lon="12.135815174025101"><ele>372.75</ele><time>2026-04-19T08:33:45.016Z</time></trkpt><trkpt lat="42.574265193766806" lon="12.13592520959132"><ele>373.0</ele><time>2026-04-19T08:33:46.016Z</time></trkpt><trkpt lat="42.574333846270186" lon="12.13606236433525"><ele>373.0</ele><time>2026-04-19T08:33:47.016Z</time></trkpt><trkpt lat="42.57437413403496" lon="12.136217764369745"><ele>373.0</ele><time>2026-04-19T08:33:48.016Z</time></trkpt><trkpt lat="42.574381167937446" lon="12.13637954929583"><ele>373.0</ele><time>2026-04-19T08:33:49.016Z</time></trkpt><trkpt lat="42.57436468052924" lon="12.13653285497558"><ele>373.0</ele><time>2026-04-19T08:33:50.016Z</time></trkpt><trkpt lat="42.57432834109605" lon="12.136682481001799"><ele>370.5</ele><time>2026-04-19T08:33:51.016Z</time></trkpt><trkpt lat="42.57426446805884" lon="12.136812767286257"><ele>368.0</ele><time>2026-04-19T08:33:52.016Z</time></trkpt><trkpt lat="42.57418206328115" lon="12.136930631430282"><ele>365.5</ele><time>2026-04-19T08:33:53.016Z</time></trkpt><trkpt lat="42.57408090377657" lon="12.13704687904754"><ele>363.0</ele><time>2026-04-19T08:33:54.016Z</time></trkpt><trkpt lat="42.57396479459161" lon="12.13717998289551"><ele>363.0</ele><time>2026-04-19T08:33:55.016Z</time></trkpt><trkpt lat="42.573831613740836" lon="12.137330066580347"><ele>363.0</ele><time>2026-04-19T08:33:56.016Z</time></trkpt><trkpt lat="42.573706722293984" lon="12.137478413052284"><ele>363.0</ele><time>2026-04-19T08:33:57.016Z</time></trkpt><trkpt lat="42.57359477871301" lon="12.137612413751366"><ele>363.75</ele><time>2026-04-19T08:33:58.016Z</time></trkpt><trkpt lat="42.5735005309188" lon="12.137759083991439"><ele>364.5</ele><time>2026-04-19T08:33:59.016Z</time></trkpt><trkpt lat="42.57342314795746" lon="12.137924367834643"><ele>365.25</ele><time>2026-04-19T08:34:00.016Z</time></trkpt><trkpt lat="42.5733647650061" lon="12.138103460056305"><ele>366.0</ele><time>2026-04-19T08:34:01.016Z</time></trkpt><trkpt lat="42.57331270816841" lon="12.138309161319523"><ele>366.0</ele><time>2026-04-19T08:34:02.016Z</time></trkpt><trkpt lat="42.57325139532112" lon="12.138510384684123"><ele>366.0</ele><time>2026-04-19T08:34:03.016Z</time></trkpt><trkpt lat="42.5731877284666" lon="12.13871958516548"><ele>366.0</ele><time>2026-04-19T08:34:04.016Z</time></trkpt><trkpt lat="42.57312945676945" lon="12.138918887008844"><ele>367.25</ele><time>2026-04-19T08:34:05.016Z</time></trkpt><trkpt lat="42.57307332839359" lon="12.139104582633543"><ele>368.5</ele><time>2026-04-19T08:34:06.016Z</time></trkpt><trkpt lat="42.57303600982047" lon="12.139280340256208"><ele>369.75</ele><time>2026-04-19T08:34:07.016Z</time></trkpt><trkpt lat="42.573030206556496" lon="12.139459307903644"><ele>371.0</ele><time>2026-04-19T08:34:08.016Z</time></trkpt><trkpt lat="42.573061193428416" lon="12.139629731445346"><ele>371.0</ele><time>2026-04-19T08:34:09.016Z</time></trkpt><trkpt lat="42.573118255742024" lon="12.139782568113052"><ele>371.0</ele><time>2026-04-19T08:34:10.016Z</time></trkpt><trkpt lat="42.573202668653245" lon="12.13990652375255"><ele>371.0</ele><time>2026-04-19T08:34:11.016Z</time></trkpt><trkpt lat="42.57330537592276" lon="12.140009910273362"><ele>371.0</ele><time>2026-04-19T08:34:12.016Z</time></trkpt><trkpt lat="42.573414252123534" lon="12.14011213950541"><ele>373.0</ele><time>2026-04-19T08:34:13.016Z</time></trkpt><trkpt lat="42.57352411348373" lon="12.140235014484993"><ele>375.0</ele><time>2026-04-19T08:34:14.016Z</time></trkpt><trkpt lat="42.57362122259863" lon="12.14038333234299"><ele>377.0</ele><time>2026-04-19T08:34:15.016Z</time></trkpt><trkpt lat="42.57368978106128" lon="12.140564864271333"><ele>379.0</ele><time>2026-04-19T08:34:16.016Z</time></trkpt><trkpt lat="42.5737191536553" lon="12.140749220427267"><ele>379.0</ele><time>2026-04-19T08:34:17.016Z</time></trkpt><trkpt lat="42.57373280133548" lon="12.1409439415538"><ele>379.0</ele><time>2026-04-19T08:34:18.016Z</time></trkpt><trkpt lat="42.57371474645512" lon="12.141142565090705"><ele>379.0</ele><time>2026-04-19T08:34:19.016Z</time></trkpt><trkpt lat="42.5736904216645" lon="12.14135587256847"><ele>369.0</ele><time>2026-04-19T08:34:20.016Z</time></trkpt><trkpt lat="42.57367627323597" lon="12.14158199501158"><ele>359.0</ele><time>2026-04-19T08:34:21.016Z</time></trkpt><trkpt lat="42.57366081861195" lon="12.141803799919376"><ele>349.0</ele><time>2026-04-19T08:34:22.016Z</time></trkpt><trkpt lat="42.5736483425513" lon="12.142009403460044"><ele>349.0</ele><time>2026-04-19T08:34:23.016Z</time></trkpt><trkpt lat="42.57364665659704" lon="12.142214021745614"><ele>349.0</ele><time>2026-04-19T08:34:24.016Z</time></trkpt><trkpt lat="42.57364516453773" lon="12.142421570348507"><ele>349.0</ele><time>2026-04-19T08:34:25.016Z</time></trkpt><trkpt lat="42.57368773919146" lon="12.142599326731318"><ele>349.0</ele><time>2026-04-19T08:34:26.016Z</time></trkpt><trkpt lat="42.57378469241117" lon="12.14273405356009"><ele>354.5</ele><time>2026-04-19T08:34:27.016Z</time></trkpt><trkpt lat="42.57389264502841" lon="12.142837688500235"><ele>360.0</ele><time>2026-04-19T08:34:28.016Z</time></trkpt><trkpt lat="42.57402526800772" lon="12.142890901861827"><ele>365.5</ele><time>2026-04-19T08:34:29.016Z</time></trkpt><trkpt lat="42.57416182363396" lon="12.142921014785868"><ele>371.0</ele><time>2026-04-19T08:34:30.016Z</time></trkpt><trkpt lat="42.5743167948872" lon="12.142945306167865"><ele>371.0</ele><time>2026-04-19T08:34:31.016Z</time></trkpt><trkpt lat="42.574479761925524" lon="12.142950009401963"><ele>371.0</ele><time>2026-04-19T08:34:32.016Z</time></trkpt><trkpt lat="42.57466036453115" lon="12.142938912557467"><ele>371.0</ele><time>2026-04-19T08:34:33.016Z</time></trkpt><trkpt lat="42.57484388569994" lon="12.142946874677376"><ele>372.33333333333337</ele><time>2026-04-19T08:34:34.016Z</time></trkpt><trkpt lat="42.57502846475426" lon="12.142963055220712"><ele>373.6666666666667</ele><time>2026-04-19T08:34:35.016Z</time></trkpt><trkpt lat="42.57521083213811" lon="12.142985472309297"><ele>375.0</ele><time>2026-04-19T08:34:36.016Z</time></trkpt><trkpt lat="42.57538533195422" lon="12.143024564389181"><ele>372.0</ele><time>2026-04-19T08:34:37.016Z</time></trkpt><trkpt lat="42.575542559106545" lon="12.143088522715962"><ele>369.0</ele><time>2026-04-19T08:34:38.016Z</time></trkpt><trkpt lat="42.57568433685603" lon="12.143171854599505"><ele>366.0</ele><time>2026-04-19T08:34:39.016Z</time></trkpt><trkpt lat="42.57579844398832" lon="12.14328616058975"><ele>364.75</ele><time>2026-04-19T08:34:40.016Z</time></trkpt><trkpt lat="42.575876912170415" lon="12.143429734296623"><ele>363.5</ele><time>2026-04-19T08:34:41.016Z</time></trkpt><trkpt lat="42.57589906234047" lon="12.143583908313733"><ele>362.25</ele><time>2026-04-19T08:34:42.016Z</time></trkpt><trkpt lat="42.57590170391385" lon="12.143735293932076"><ele>361.0</ele><time>2026-04-19T08:34:43.016Z</time></trkpt><trkpt lat="42.57589700140435" lon="12.143896473068304"><ele>362.5</ele><time>2026-04-19T08:34:44.016Z</time></trkpt><trkpt lat="42.575846655013" lon="12.144063771568005"><ele>364.0</ele><time>2026-04-19T08:34:45.016Z</time></trkpt><trkpt lat="42.57577040180835" lon="12.144220593341178"><ele>365.5</ele><time>2026-04-19T08:34:46.016Z</time></trkpt><trkpt lat="42.575677172987646" lon="12.14438562396468"><ele>367.0</ele><time>2026-04-19T08:34:47.016Z</time></trkpt><trkpt lat="42.575573230569354" lon="12.144563296440703"><ele>367.0</ele><time>2026-04-19T08:34:48.016Z</time></trkpt><trkpt lat="42.575465695379165" lon="12.144753888088937"><ele>367.0</ele><time>2026-04-19T08:34:49.016Z</time></trkpt><trkpt lat="42.57537493297171" lon="12.144961973150636"><ele>367.0</ele><time>2026-04-19T08:34:50.016Z</time></trkpt><trkpt lat="42.575299288057295" lon="12.145158890787577"><ele>366.75</ele><time>2026-04-19T08:34:51.016Z</time></trkpt><trkpt lat="42.57524799138947" lon="12.145345124036792"><ele>366.5</ele><time>2026-04-19T08:34:52.016Z</time></trkpt><trkpt lat="42.575179705064855" lon="12.145511485850058"><ele>366.25</ele><time>2026-04-19T08:34:53.016Z</time></trkpt><trkpt lat="42.57516114229907" lon="12.145687019429928"><ele>366.0</ele><time>2026-04-19T08:34:54.016Z</time></trkpt><trkpt lat="42.57528570347495" lon="12.145891191109179"><ele>365.3333333333333</ele><time>2026-04-19T08:34:55.016Z</time></trkpt><trkpt lat="42.57533120407234" lon="12.146086487676433"><ele>364.66666666666663</ele><time>2026-04-19T08:34:56.016Z</time></trkpt><trkpt lat="42.57536813503412" lon="12.146293771498705"><ele>364.0</ele><time>2026-04-19T08:34:57.016Z</time></trkpt><trkpt lat="42.57539540319283" lon="12.146506290207082"><ele>367.75</ele><time>2026-04-19T08:34:58.016Z</time></trkpt><trkpt lat="42.5754066340566" lon="12.1467245876683"><ele>371.5</ele><time>2026-04-19T08:34:59.016Z</time></trkpt><trkpt lat="42.57540586535942" lon="12.146910396700427"><ele>375.25</ele><time>2026-04-19T08:35:00.016Z</time></trkpt><trkpt lat="42.57540787738741" lon="12.147079365557214"><ele>379.0</ele><time>2026-04-19T08:35:01.016Z</time></trkpt><trkpt lat="42.575420851950014" lon="12.147235300520563"><ele>379.75</ele><time>2026-04-19T08:35:02.016Z</time></trkpt><trkpt lat="42.5754465975319" lon="12.14738966287767"><ele>380.5</ele><time>2026-04-19T08:35:03.016Z</time></trkpt><trkpt lat="42.57549101019592" lon="12.147543438937547"><ele>381.25</ele><time>2026-04-19T08:35:04.016Z</time></trkpt><trkpt lat="42.5755529032375" lon="12.147691815971017"><ele>382.0</ele><time>2026-04-19T08:35:05.016Z</time></trkpt><trkpt lat="42.57564404653215" lon="12.14783827255528"><ele>382.0</ele><time>2026-04-19T08:35:06.016Z</time></trkpt><trkpt lat="42.5757545689051" lon="12.147993290709417"><ele>382.0</ele><time>2026-04-19T08:35:07.016Z</time></trkpt><trkpt lat="42.57587594272768" lon="12.148167081501265"><ele>382.0</ele><time>2026-04-19T08:35:08.016Z</time></trkpt><trkpt lat="42.576010049453615" lon="12.148340558405566"><ele>381.3333333333333</ele><time>2026-04-19T08:35:09.016Z</time></trkpt><trkpt lat="42.576147556509376" lon="12.148510880795989"><ele>380.6666666666667</ele><time>2026-04-19T08:35:10.015Z</time></trkpt><trkpt lat="42.576295675908824" lon="12.148666818840663"><ele>380.0</ele><time>2026-04-19T08:35:11.015Z</time></trkpt><trkpt lat="42.57644218066905" lon="12.148815060273954"><ele>380.0</ele><time>2026-04-19T08:35:12.015Z</time></trkpt><trkpt lat="42.57658356390137" lon="12.148949313750961"><ele>380.0</ele><time>2026-04-19T08:35:13.015Z</time></trkpt><trkpt lat="42.57671794349535" lon="12.149087356139237"><ele>380.0</ele><time>2026-04-19T08:35:14.015Z</time></trkpt><trkpt lat="42.57684178597441" lon="12.149245586587293"><ele>377.0</ele><time>2026-04-19T08:35:15.015Z</time></trkpt><trkpt lat="42.576946879765195" lon="12.14942684705555"><ele>374.0</ele><time>2026-04-19T08:35:16.015Z</time></trkpt><trkpt lat="42.577024581702055" lon="12.149623432613812"><ele>371.0</ele><time>2026-04-19T08:35:17.015Z</time></trkpt><trkpt lat="42.57708399511914" lon="12.149820792806171"><ele>370.33333333333337</ele><time>2026-04-19T08:35:18.015Z</time></trkpt><trkpt lat="42.5771232880303" lon="12.15003021116724"><ele>369.6666666666667</ele><time>2026-04-19T08:35:19.015Z</time></trkpt><trkpt lat="42.5771323120479" lon="12.150237598686575"><ele>369.0</ele><time>2026-04-19T08:35:20.015Z</time></trkpt><trkpt lat="42.57710817205729" lon="12.150444645661993"><ele>369.0</ele><time>2026-04-19T08:35:21.015Z</time></trkpt><trkpt lat="42.57705816257648" lon="12.15063708812665"><ele>369.0</ele><time>2026-04-19T08:35:22.015Z</time></trkpt><trkpt lat="42.57707095630824" lon="12.150851859725732"><ele>369.0</ele><time>2026-04-19T08:35:23.015Z</time></trkpt><trkpt lat="42.57709611329062" lon="12.15106254776738"><ele>368.0</ele><time>2026-04-19T08:35:24.015Z</time></trkpt><trkpt lat="42.57715261639962" lon="12.151267974330366"><ele>367.0</ele><time>2026-04-19T08:35:25.015Z</time></trkpt><trkpt lat="42.57721977526052" lon="12.151473036448806"><ele>366.0</ele><time>2026-04-19T08:35:26.015Z</time></trkpt><trkpt lat="42.57728054715438" lon="12.151677049335039"><ele>366.0</ele><time>2026-04-19T08:35:27.015Z</time></trkpt><trkpt lat="42.57733954345021" lon="12.15188575435169"><ele>366.0</ele><time>2026-04-19T08:35:28.018Z</time></trkpt><trkpt lat="42.57739687165641" lon="12.152092752683822"><ele>366.0</ele><time>2026-04-19T08:35:29.018Z</time></trkpt><trkpt lat="42.57745158682048" lon="12.152308378290272"><ele>366.3333333333333</ele><time>2026-04-19T08:35:30.018Z</time></trkpt><trkpt lat="42.57750456230206" lon="12.152521229162067"><ele>366.66666666666663</ele><time>2026-04-19T08:35:31.017Z</time></trkpt><trkpt lat="42.57756132309703" lon="12.152725899700261"><ele>367.0</ele><time>2026-04-19T08:35:32.017Z</time></trkpt><trkpt lat="42.577603967715454" lon="12.15293119463196"><ele>367.0</ele><time>2026-04-19T08:35:33.017Z</time></trkpt><trkpt lat="42.577631019468036" lon="12.15313145956295"><ele>367.0</ele><time>2026-04-19T08:35:34.018Z</time></trkpt><trkpt lat="42.57762997646471" lon="12.15332541317718"><ele>367.0</ele><time>2026-04-19T08:35:35.018Z</time></trkpt><trkpt lat="42.577595679937545" lon="12.153507896277905"><ele>367.0</ele><time>2026-04-19T08:35:36.018Z</time></trkpt><trkpt lat="42.57753609611404" lon="12.153683924387288"><ele>367.3333333333333</ele><time>2026-04-19T08:35:37.018Z</time></trkpt><trkpt lat="42.57745306166757" lon="12.153856074783999"><ele>367.6666666666667</ele><time>2026-04-19T08:35:38.017Z</time></trkpt><trkpt lat="42.57735307442262" lon="12.154025898551835"><ele>368.0</ele><time>2026-04-19T08:35:39.017Z</time></trkpt><trkpt lat="42.57724142792692" lon="12.154195547033474"><ele>368.0</ele><time>2026-04-19T08:35:40.017Z</time></trkpt><trkpt lat="42.57713392006972" lon="12.15435152535635"><ele>368.0</ele><time>2026-04-19T08:35:41.018Z</time></trkpt><trkpt lat="42.5770291588283" lon="12.154492167849385"><ele>368.0</ele><time>2026-04-19T08:35:42.018Z</time></trkpt><trkpt lat="42.57691386610256" lon="12.15462238579755"><ele>367.33333333333337</ele><time>2026-04-19T08:35:43.018Z</time></trkpt><trkpt lat="42.57677968336448" lon="12.15472457086696"><ele>366.6666666666667</ele><time>2026-04-19T08:35:44.018Z</time></trkpt><trkpt lat="42.57663053589609" lon="12.154796816102266"><ele>366.0</ele><time>2026-04-19T08:35:45.018Z</time></trkpt><trkpt lat="42.57646932223492" lon="12.154871490526446"><ele>366.0</ele><time>2026-04-19T08:35:46.018Z</time></trkpt><trkpt lat="42.57630054194167" lon="12.154951258657366"><ele>366.0</ele><time>2026-04-19T08:35:47.018Z</time></trkpt><trkpt lat="42.57614179228563" lon="12.15502825660454"><ele>366.0</ele><time>2026-04-19T08:35:48.018Z</time></trkpt><trkpt lat="42.575973545697394" lon="12.155124922180708"><ele>365.6666666666667</ele><time>2026-04-19T08:35:49.018Z</time></trkpt><trkpt lat="42.5758134399047" lon="12.155210727811207"><ele>365.33333333333337</ele><time>2026-04-19T08:35:50.018Z</time></trkpt><trkpt lat="42.57565626050005" lon="12.155296646980567"><ele>365.0</ele><time>2026-04-19T08:35:51.018Z</time></trkpt><trkpt lat="42.575502568589705" lon="12.15538349300693"><ele>361.6666666666667</ele><time>2026-04-19T08:35:52.018Z</time></trkpt><trkpt lat="42.57535092334452" lon="12.155465841147164"><ele>358.3333333333333</ele><time>2026-04-19T08:35:53.018Z</time></trkpt><trkpt lat="42.5751993554694" lon="12.155552080186308"><ele>355.0</ele><time>2026-04-19T08:35:54.018Z</time></trkpt><trkpt lat="42.57505059429134" lon="12.15563462245797"><ele>357.3333333333333</ele><time>2026-04-19T08:35:55.018Z</time></trkpt><trkpt lat="42.57490310861503" lon="12.15571514520788"><ele>359.6666666666667</ele><time>2026-04-19T08:35:56.018Z</time></trkpt><trkpt lat="42.57475908789079" lon="12.155806005665125"><ele>362.0</ele><time>2026-04-19T08:35:57.018Z</time></trkpt><trkpt lat="42.57461899342828" lon="12.155907830744162"><ele>359.75</ele><time>2026-04-19T08:35:58.018Z</time></trkpt><trkpt lat="42.574483940927045" lon="12.156019020107706"><ele>357.5</ele><time>2026-04-19T08:35:59.018Z</time></trkpt><trkpt lat="42.57436425131352" lon="12.156137998648942"><ele>355.25</ele><time>2026-04-19T08:36:00.018Z</time></trkpt><trkpt lat="42.57426699452442" lon="12.156241546186298"><ele>353.0</ele><time>2026-04-19T08:36:01.018Z</time></trkpt><trkpt lat="42.57419726004187" lon="12.156318914043844"><ele>353.0</ele><time>2026-04-19T08:36:02.018Z</time></trkpt><trkpt lat="42.57413576385648" lon="12.156395454509736"><ele>353.0</ele><time>2026-04-19T08:36:03.018Z</time></trkpt><trkpt lat="42.574080375791844" lon="12.156481159433378"><ele>353.0</ele><time>2026-04-19T08:36:04.018Z</time></trkpt><trkpt lat="42.574042273115175" lon="12.156570209595266"><ele>353.0</ele><time>2026-04-19T08:36:05.018Z</time></trkpt><trkpt lat="42.57403490929685" lon="12.15666788175393"><ele>353.0</ele><time>2026-04-19T08:36:06.018Z</time></trkpt><trkpt lat="42.57403038336566" lon="12.15677345718502"><ele>353.0</ele><time>2026-04-19T08:36:07.018Z</time></trkpt><trkpt lat="42.574120185888226" lon="12.15687411033118"><ele>352.0</ele><time>2026-04-19T08:36:08.018Z</time></trkpt><trkpt lat="42.574204993962816" lon="12.156956520608956"><ele>351.0</ele><time>2026-04-19T08:36:09.018Z</time></trkpt><trkpt lat="42.57431044920747" lon="12.157050656467518"><ele>350.0</ele><time>2026-04-19T08:36:10.018Z</time></trkpt><trkpt lat="42.57441400257253" lon="12.15718270597212"><ele>349.0</ele><time>2026-04-19T08:36:11.018Z</time></trkpt><trkpt lat="42.57449716280348" lon="12.157358047381503"><ele>351.0</ele><time>2026-04-19T08:36:12.018Z</time></trkpt><trkpt lat="42.57454218647156" lon="12.157578822931624"><ele>353.0</ele><time>2026-04-19T08:36:13.018Z</time></trkpt><trkpt lat="42.57461305126647" lon="12.157791299467114"><ele>355.0</ele><time>2026-04-19T08:36:14.018Z</time></trkpt><trkpt lat="42.5746536309234" lon="12.15800865752359"><ele>354.0</ele><time>2026-04-19T08:36:15.018Z</time></trkpt><trkpt lat="42.57468767307121" lon="12.158234595010546"><ele>353.0</ele><time>2026-04-19T08:36:16.018Z</time></trkpt><trkpt lat="42.574719157621786" lon="12.158468113511615"><ele>352.0</ele><time>2026-04-19T08:36:17.018Z</time></trkpt><trkpt lat="42.57473646161141" lon="12.158692829969045"><ele>352.0</ele><time>2026-04-19T08:36:18.018Z</time></trkpt><trkpt lat="42.57475943428486" lon="12.158900526730836"><ele>352.0</ele><time>2026-04-19T08:36:19.018Z</time></trkpt><trkpt lat="42.57477564141583" lon="12.159100389971107"><ele>352.0</ele><time>2026-04-19T08:36:20.018Z</time></trkpt><trkpt lat="42.574803217598635" lon="12.159301024564341"><ele>352.0</ele><time>2026-04-19T08:36:21.018Z</time></trkpt><trkpt lat="42.57484232309248" lon="12.159495071464887"><ele>352.0</ele><time>2026-04-19T08:36:22.018Z</time></trkpt><trkpt lat="42.57489248438366" lon="12.159669627903298"><ele>352.0</ele><time>2026-04-19T08:36:23.018Z</time></trkpt><trkpt lat="42.57495052354823" lon="12.159825969263538"><ele>352.0</ele><time>2026-04-19T08:36:24.018Z</time></trkpt><trkpt lat="42.57503723926783" lon="12.159959872907828"><ele>351.0</ele><time>2026-04-19T08:36:25.018Z</time></trkpt><trkpt lat="42.575134803278196" lon="12.160078919819847"><ele>350.0</ele><time>2026-04-19T08:36:26.018Z</time></trkpt><trkpt lat="42.57523989497584" lon="12.16019773057362"><ele>349.0</ele><time>2026-04-19T08:36:27.018Z</time></trkpt><trkpt lat="42.57533369058451" lon="12.160331918634643"><ele>348.0</ele><time>2026-04-19T08:36:28.018Z</time></trkpt><trkpt lat="42.57541022733847" lon="12.160478018266856"><ele>348.0</ele><time>2026-04-19T08:36:29.018Z</time></trkpt><trkpt lat="42.57549290444036" lon="12.16062179556487"><ele>348.0</ele><time>2026-04-19T08:36:30.018Z</time></trkpt><trkpt lat="42.57559175989883" lon="12.16073363372686"><ele>348.0</ele><time>2026-04-19T08:36:31.018Z</time></trkpt><trkpt lat="42.57571145902261" lon="12.160838312140044"><ele>348.0</ele><time>2026-04-19T08:36:32.018Z</time></trkpt><trkpt lat="42.57584463005902" lon="12.160925902592037"><ele>345.25</ele><time>2026-04-19T08:36:33.018Z</time></trkpt><trkpt lat="42.57598197351488" lon="12.160999463171517"><ele>342.5</ele><time>2026-04-19T08:36:34.018Z</time></trkpt><trkpt lat="42.57610973680936" lon="12.161059535436655"><ele>339.75</ele><time>2026-04-19T08:36:35.018Z</time></trkpt><trkpt lat="42.576226220450806" lon="12.16111535851032"><ele>337.0</ele><time>2026-04-19T08:36:36.018Z</time></trkpt><trkpt lat="42.57633370639911" lon="12.161188560140518"><ele>336.5</ele><time>2026-04-19T08:36:37.018Z</time></trkpt><trkpt lat="42.57643724016918" lon="12.16129949465215"><ele>336.0</ele><time>2026-04-19T08:36:38.018Z</time></trkpt><trkpt lat="42.57652648270801" lon="12.161437544248296"><ele>335.5</ele><time>2026-04-19T08:36:39.018Z</time></trkpt><trkpt lat="42.57660168883391" lon="12.161585536753124"><ele>335.0</ele><time>2026-04-19T08:36:40.018Z</time></trkpt><trkpt lat="42.57666474706192" lon="12.161713407687367"><ele>333.1666666666667</ele><time>2026-04-19T08:36:41.018Z</time></trkpt><trkpt lat="42.5767268364124" lon="12.161814506938919"><ele>331.33333333333337</ele><time>2026-04-19T08:36:42.018Z</time></trkpt><trkpt lat="42.57676909387129" lon="12.161892112244788"><ele>329.5</ele><time>2026-04-19T08:36:43.018Z</time></trkpt><trkpt lat="42.57680196265218" lon="12.161982833171042"><ele>327.6666666666667</ele><time>2026-04-19T08:36:44.018Z</time></trkpt><trkpt lat="42.57680948806376" lon="12.162076277423663"><ele>325.8333333333333</ele><time>2026-04-19T08:36:45.018Z</time></trkpt><trkpt lat="42.57678295950519" lon="12.162162976545495"><ele>324.0</ele><time>2026-04-19T08:36:46.018Z</time></trkpt><trkpt lat="42.57672496054223" lon="12.162238391289877"><ele>324.0</ele><time>2026-04-19T08:36:47.018Z</time></trkpt><trkpt lat="42.57662669152677" lon="12.16230437699098"><ele>324.0</ele><time>2026-04-19T08:36:48.018Z</time></trkpt><trkpt lat="42.57653245650431" lon="12.162378382591257"><ele>324.0</ele><time>2026-04-19T08:36:49.018Z</time></trkpt><trkpt lat="42.57643447683264" lon="12.16246635474693"><ele>324.0</ele><time>2026-04-19T08:36:50.018Z</time></trkpt><trkpt lat="42.57636077759676" lon="12.162623556247352"><ele>321.3333333333333</ele><time>2026-04-19T08:36:51.018Z</time></trkpt><trkpt lat="42.57633280983524" lon="12.162824273088539"><ele>318.66666666666663</ele><time>2026-04-19T08:36:52.018Z</time></trkpt><trkpt lat="42.57631217192143" lon="12.16302946876754"><ele>316.0</ele><time>2026-04-19T08:36:53.018Z</time></trkpt><trkpt lat="42.576294136540774" lon="12.163242782031926"><ele>315.0</ele><time>2026-04-19T08:36:54.018Z</time></trkpt><trkpt lat="42.57624863649654" lon="12.163456855064625"><ele>314.0</ele><time>2026-04-19T08:36:55.018Z</time></trkpt><trkpt lat="42.576191764527834" lon="12.163661581910826"><ele>313.0</ele><time>2026-04-19T08:36:56.018Z</time></trkpt><trkpt lat="42.576134225479706" lon="12.163882822152834"><ele>311.66666666666663</ele><time>2026-04-19T08:36:57.018Z</time></trkpt><trkpt lat="42.57606775838688" lon="12.164099088253886"><ele>310.3333333333333</ele><time>2026-04-19T08:36:58.018Z</time></trkpt><trkpt lat="42.57598684613629" lon="12.164299098696702"><ele>309.0</ele><time>2026-04-19T08:36:59.018Z</time></trkpt><trkpt lat="42.57588981098029" lon="12.164479224042942"><ele>309.0</ele><time>2026-04-19T08:37:00.018Z</time></trkpt><trkpt lat="42.57579437651282" lon="12.16466005013201"><ele>309.0</ele><time>2026-04-19T08:37:01.018Z</time></trkpt><trkpt lat="42.57569802580428" lon="12.164841730949364"><ele>309.0</ele><time>2026-04-19T08:37:02.018Z</time></trkpt><trkpt lat="42.57559982091184" lon="12.165023796017108"><ele>311.0</ele><time>2026-04-19T08:37:03.018Z</time></trkpt><trkpt lat="42.57550725361193" lon="12.165213886181757"><ele>313.0</ele><time>2026-04-19T08:37:04.018Z</time></trkpt><trkpt lat="42.57541913254823" lon="12.165415269166472"><ele>315.0</ele><time>2026-04-19T08:37:05.018Z</time></trkpt><trkpt lat="42.57533822206165" lon="12.165627600376444"><ele>313.6666666666667</ele><time>2026-04-19T08:37:06.018Z</time></trkpt><trkpt lat="42.57525420592041" lon="12.165836535337638"><ele>312.33333333333337</ele><time>2026-04-19T08:37:07.018Z</time></trkpt><trkpt lat="42.57516080320103" lon="12.166019271512528"><ele>311.0</ele><time>2026-04-19T08:37:08.018Z</time></trkpt><trkpt lat="42.57504815529586" lon="12.166164897080217"><ele>311.0</ele><time>2026-04-19T08:37:09.018Z</time></trkpt><trkpt lat="42.57491942603444" lon="12.166281252974965"><ele>311.0</ele><time>2026-04-19T08:37:10.018Z</time></trkpt><trkpt lat="42.57477619938846" lon="12.16636788718351"><ele>311.0</ele><time>2026-04-19T08:37:11.018Z</time></trkpt><trkpt lat="42.574627049691095" lon="12.166442040550146"><ele>314.6666666666667</ele><time>2026-04-19T08:37:12.018Z</time></trkpt><trkpt lat="42.57448022735576" lon="12.166530101535287"><ele>318.3333333333333</ele><time>2026-04-19T08:37:13.018Z</time></trkpt><trkpt lat="42.574325813538394" lon="12.166628243478268"><ele>322.0</ele><time>2026-04-19T08:37:14.018Z</time></trkpt><trkpt lat="42.5741703729129" lon="12.166720208334805"><ele>322.0</ele><time>2026-04-19T08:37:15.018Z</time></trkpt><trkpt lat="42.57400696558798" lon="12.166808456869193"><ele>322.0</ele><time>2026-04-19T08:37:16.018Z</time></trkpt><trkpt lat="42.57384136078753" lon="12.166899241083492"><ele>322.0</ele><time>2026-04-19T08:37:17.018Z</time></trkpt><trkpt lat="42.57367741035931" lon="12.166983013812505"><ele>321.66666666666663</ele><time>2026-04-19T08:37:18.018Z</time></trkpt><trkpt lat="42.57351486273358" lon="12.167055016120607"><ele>321.3333333333333</ele><time>2026-04-19T08:37:19.018Z</time></trkpt><trkpt lat="42.57335690323092" lon="12.167120538813077"><ele>321.0</ele><time>2026-04-19T08:37:20.018Z</time></trkpt><trkpt lat="42.573206269346976" lon="12.167183481524054"><ele>321.0</ele><time>2026-04-19T08:37:21.018Z</time></trkpt><trkpt lat="42.57305872844348" lon="12.167255610855808"><ele>321.0</ele><time>2026-04-19T08:37:22.018Z</time></trkpt><trkpt lat="42.5729195101141" lon="12.167347931644768"><ele>321.0</ele><time>2026-04-19T08:37:23.018Z</time></trkpt><trkpt lat="42.5727843352882" lon="12.167448725972108"><ele>323.5</ele><time>2026-04-19T08:37:24.018Z</time></trkpt><trkpt lat="42.5726613935633" lon="12.167552222526947"><ele>326.0</ele><time>2026-04-19T08:37:25.018Z</time></trkpt><trkpt lat="42.57255299171079" lon="12.167659057200222"><ele>328.5</ele><time>2026-04-19T08:37:26.018Z</time></trkpt><trkpt lat="42.572453511665074" lon="12.16776541413715"><ele>331.0</ele><time>2026-04-19T08:37:27.018Z</time></trkpt><trkpt lat="42.57236657239424" lon="12.167879808926056"><ele>331.0</ele><time>2026-04-19T08:37:28.018Z</time></trkpt><trkpt lat="42.57229042376416" lon="12.168024305082792"><ele>331.0</ele><time>2026-04-19T08:37:29.018Z</time></trkpt><trkpt lat="42.57224198938718" lon="12.168177272760724"><ele>331.0</ele><time>2026-04-19T08:37:30.018Z</time></trkpt><trkpt lat="42.57221707294359" lon="12.16835841680073"><ele>331.0</ele><time>2026-04-19T08:37:31.018Z</time></trkpt><trkpt lat="42.572211022744156" lon="12.16855546767192"><ele>331.0</ele><time>2026-04-19T08:37:32.018Z</time></trkpt><trkpt lat="42.57221147859429" lon="12.168759068220462"><ele>331.0</ele><time>2026-04-19T08:37:33.018Z</time></trkpt><trkpt lat="42.572208610777466" lon="12.168973195668933"><ele>331.0</ele><time>2026-04-19T08:37:34.019Z</time></trkpt><trkpt lat="42.572200907634965" lon="12.169188457345646"><ele>331.0</ele><time>2026-04-19T08:37:35.019Z</time></trkpt><trkpt lat="42.57219103847028" lon="12.169400761783974"><ele>331.0</ele><time>2026-04-19T08:37:36.019Z</time></trkpt><trkpt lat="42.572182685084904" lon="12.169602544449608"><ele>331.0</ele><time>2026-04-19T08:37:37.019Z</time></trkpt><trkpt lat="42.57217549016079" lon="12.169799535615747"><ele>331.25</ele><time>2026-04-19T08:37:38.019Z</time></trkpt><trkpt lat="42.572174717573795" lon="12.169997165038636"><ele>331.5</ele><time>2026-04-19T08:37:39.019Z</time></trkpt><trkpt lat="42.57218575992802" lon="12.170187461294464"><ele>331.75</ele><time>2026-04-19T08:37:40.019Z</time></trkpt><trkpt lat="42.57221489694276" lon="12.170366628874868"><ele>332.0</ele><time>2026-04-19T08:37:41.019Z</time></trkpt><trkpt lat="42.572263531656176" lon="12.170541489087215"><ele>331.33333333333337</ele><time>2026-04-19T08:37:42.019Z</time></trkpt><trkpt lat="42.572338490548255" lon="12.170709214882798"><ele>330.6666666666667</ele><time>2026-04-19T08:37:43.019Z</time></trkpt><trkpt lat="42.572438514620366" lon="12.17086765364935"><ele>330.0</ele><time>2026-04-19T08:37:44.019Z</time></trkpt><trkpt lat="42.572560053079904" lon="12.171008311898857"><ele>330.0</ele><time>2026-04-19T08:37:45.019Z</time></trkpt><trkpt lat="42.57269605380107" lon="12.171134886098265"><ele>330.0</ele><time>2026-04-19T08:37:46.02Z</time></trkpt><trkpt lat="42.57283321602612" lon="12.17126942669303"><ele>330.0</ele><time>2026-04-19T08:37:47.019Z</time></trkpt><trkpt lat="42.57297832386666" lon="12.171400636210583"><ele>328.6666666666667</ele><time>2026-04-19T08:37:48.019Z</time></trkpt><trkpt lat="42.57313341874254" lon="12.171526782037448"><ele>327.33333333333337</ele><time>2026-04-19T08:37:49.019Z</time></trkpt><trkpt lat="42.573295962986386" lon="12.171647774510992"><ele>326.0</ele><time>2026-04-19T08:37:50.019Z</time></trkpt><trkpt lat="42.57345697165756" lon="12.171758599663386"><ele>326.0</ele><time>2026-04-19T08:37:51.019Z</time></trkpt><trkpt lat="42.57361434949721" lon="12.171864021496434"><ele>326.0</ele><time>2026-04-19T08:37:52.019Z</time></trkpt><trkpt lat="42.57377787678067" lon="12.171965979536381"><ele>326.0</ele><time>2026-04-19T08:37:53.019Z</time></trkpt><trkpt lat="42.57395065795512" lon="12.172063313179184"><ele>322.0</ele><time>2026-04-19T08:37:54.019Z</time></trkpt><trkpt lat="42.57411608814083" lon="12.172138623095869"><ele>318.0</ele><time>2026-04-19T08:37:55.019Z</time></trkpt><trkpt lat="42.57428140436242" lon="12.172192958375655"><ele>314.0</ele><time>2026-04-19T08:37:56.019Z</time></trkpt><trkpt lat="42.57444553453412" lon="12.172230382511456"><ele>312.0</ele><time>2026-04-19T08:37:57.019Z</time></trkpt><trkpt lat="42.57461043148515" lon="12.172253457276044"><ele>310.0</ele><time>2026-04-19T08:37:58.019Z</time></trkpt><trkpt lat="42.57477760897951" lon="12.172246917005445"><ele>308.0</ele><time>2026-04-19T08:37:59.019Z</time></trkpt><trkpt lat="42.57493660151505" lon="12.172204176690652"><ele>308.0</ele><time>2026-04-19T08:38:00.019Z</time></trkpt><trkpt lat="42.57508641088779" lon="12.172115348649115"><ele>308.0</ele><time>2026-04-19T08:38:01.019Z</time></trkpt><trkpt lat="42.57522383604023" lon="12.17199561712365"><ele>308.0</ele><time>2026-04-19T08:38:02.019Z</time></trkpt><trkpt lat="42.57536021822882" lon="12.171861294278012"><ele>308.0</ele><time>2026-04-19T08:38:03.019Z</time></trkpt><trkpt lat="42.57550222308853" lon="12.171729610071013"><ele>308.0</ele><time>2026-04-19T08:38:04.019Z</time></trkpt><trkpt lat="42.575661549264105" lon="12.171629639408883"><ele>308.0</ele><time>2026-04-19T08:38:05.019Z</time></trkpt><trkpt lat="42.57583148928757" lon="12.171555713158574"><ele>304.0</ele><time>2026-04-19T08:38:06.019Z</time></trkpt><trkpt lat="42.576010990702784" lon="12.171502141635257"><ele>300.0</ele><time>2026-04-19T08:38:07.019Z</time></trkpt><trkpt lat="42.576190528505485" lon="12.17148753715122"><ele>296.0</ele><time>2026-04-19T08:38:08.019Z</time></trkpt><trkpt lat="42.57636360696124" lon="12.171507339644352"><ele>299.33333333333337</ele><time>2026-04-19T08:38:09.019Z</time></trkpt><trkpt lat="42.57653125558404" lon="12.171560950877284"><ele>302.6666666666667</ele><time>2026-04-19T08:38:10.019Z</time></trkpt><trkpt lat="42.57669004575667" lon="12.17164812581082"><ele>306.0</ele><time>2026-04-19T08:38:11.019Z</time></trkpt><trkpt lat="42.57683973106784" lon="12.171749347575023"><ele>306.0</ele><time>2026-04-19T08:38:12.019Z</time></trkpt><trkpt lat="42.57698416372504" lon="12.171861400431341"><ele>306.0</ele><time>2026-04-19T08:38:13.019Z</time></trkpt><trkpt lat="42.577132425421205" lon="12.17197499120999"><ele>306.0</ele><time>2026-04-19T08:38:14.019Z</time></trkpt><trkpt lat="42.577294892892745" lon="12.17210041693766"><ele>306.0</ele><time>2026-04-19T08:38:15.019Z</time></trkpt><trkpt lat="42.57745885006102" lon="12.17224821020906"><ele>306.0</ele><time>2026-04-19T08:38:16.019Z</time></trkpt><trkpt lat="42.57763043952106" lon="12.172360593719963"><ele>306.0</ele><time>2026-04-19T08:38:17.019Z</time></trkpt><trkpt lat="42.577774206537896" lon="12.172476164634643"><ele>307.0</ele><time>2026-04-19T08:38:18.019Z</time></trkpt><trkpt lat="42.57792487446775" lon="12.172585576995528"><ele>308.0</ele><time>2026-04-19T08:38:19.019Z</time></trkpt><trkpt lat="42.57807167250934" lon="12.17268922938345"><ele>309.0</ele><time>2026-04-19T08:38:20.019Z</time></trkpt><trkpt lat="42.578218019608414" lon="12.172788840438134"><ele>309.0</ele><time>2026-04-19T08:38:21.019Z</time></trkpt><trkpt lat="42.57837058409452" lon="12.172868922523199"><ele>309.0</ele><time>2026-04-19T08:38:22.019Z</time></trkpt><trkpt lat="42.57852180173159" lon="12.172917401402023"><ele>309.0</ele><time>2026-04-19T08:38:23.019Z</time></trkpt><trkpt lat="42.578689843232006" lon="12.172952862575016"><ele>308.3333333333333</ele><time>2026-04-19T08:38:24.019Z</time></trkpt><trkpt lat="42.57886618833952" lon="12.172982981428575"><ele>307.66666666666663</ele><time>2026-04-19T08:38:25.019Z</time></trkpt><trkpt lat="42.5790443608324" lon="12.173022980967412"><ele>307.0</ele><time>2026-04-19T08:38:26.019Z</time></trkpt><trkpt lat="42.579210608842345" lon="12.17306087521101"><ele>307.0</ele><time>2026-04-19T08:38:27.019Z</time></trkpt><trkpt lat="42.57937597257993" lon="12.173089575657977"><ele>307.0</ele><time>2026-04-19T08:38:28.019Z</time></trkpt><trkpt lat="42.57954125115812" lon="12.173113135328265"><ele>307.0</ele><time>2026-04-19T08:38:29.019Z</time></trkpt><trkpt lat="42.579704980778224" lon="12.173147240111701"><ele>306.66666666666663</ele><time>2026-04-19T08:38:30.019Z</time></trkpt><trkpt lat="42.57985692147672" lon="12.173185845561822"><ele>306.3333333333333</ele><time>2026-04-19T08:38:31.019Z</time></trkpt><trkpt lat="42.58000226759681" lon="12.17322361006937"><ele>306.0</ele><time>2026-04-19T08:38:32.019Z</time></trkpt><trkpt lat="42.580147945957016" lon="12.17326097340634"><ele>309.3333333333333</ele><time>2026-04-19T08:38:33.019Z</time></trkpt><trkpt lat="42.58029616716999" lon="12.173309336241198"><ele>312.66666666666663</ele><time>2026-04-19T08:38:34.019Z</time></trkpt><trkpt lat="42.580446453697945" lon="12.17336254662672"><ele>316.0</ele><time>2026-04-19T08:38:35.019Z</time></trkpt><trkpt lat="42.58059893200726" lon="12.173412387508819"><ele>316.0</ele><time>2026-04-19T08:38:36.019Z</time></trkpt><trkpt lat="42.5807596633517" lon="12.173455365238372"><ele>316.0</ele><time>2026-04-19T08:38:37.019Z</time></trkpt><trkpt lat="42.58092870224836" lon="12.173485982361507"><ele>316.0</ele><time>2026-04-19T08:38:38.019Z</time></trkpt><trkpt lat="42.58110336917608" lon="12.173496274392475"><ele>316.3333333333333</ele><time>2026-04-19T08:38:39.019Z</time></trkpt><trkpt lat="42.5812751421688" lon="12.173497236501685"><ele>316.6666666666667</ele><time>2026-04-19T08:38:40.019Z</time></trkpt><trkpt lat="42.58145059866291" lon="12.173501829519129"><ele>317.0</ele><time>2026-04-19T08:38:41.019Z</time></trkpt><trkpt lat="42.58162238681888" lon="12.173513868363855"><ele>317.0</ele><time>2026-04-19T08:38:42.019Z</time></trkpt><trkpt lat="42.58179137501929" lon="12.173543060535085"><ele>317.0</ele><time>2026-04-19T08:38:43.019Z</time></trkpt><trkpt lat="42.58194727789399" lon="12.173591180403081"><ele>317.0</ele><time>2026-04-19T08:38:44.019Z</time></trkpt><trkpt lat="42.58210050574652" lon="12.173654396829303"><ele>318.33333333333337</ele><time>2026-04-19T08:38:45.019Z</time></trkpt><trkpt lat="42.582249292146365" lon="12.173734472082927"><ele>319.6666666666667</ele><time>2026-04-19T08:38:46.019Z</time></trkpt><trkpt lat="42.58239188579547" lon="12.173833903405487"><ele>321.0</ele><time>2026-04-19T08:38:47.019Z</time></trkpt><trkpt lat="42.58253281679182" lon="12.173954305284479"><ele>320.3333333333333</ele><time>2026-04-19T08:38:48.019Z</time></trkpt><trkpt lat="42.58265952896809" lon="12.174099372250884"><ele>319.66666666666663</ele><time>2026-04-19T08:38:49.019Z</time></trkpt><trkpt lat="42.58276895951185" lon="12.174265498472913"><ele>319.0</ele><time>2026-04-19T08:38:50.019Z</time></trkpt><trkpt lat="42.58287656268986" lon="12.17443363346244"><ele>321.0</ele><time>2026-04-19T08:38:51.019Z</time></trkpt><trkpt lat="42.58299397941531" lon="12.174585340038579"><ele>323.0</ele><time>2026-04-19T08:38:52.019Z</time></trkpt><trkpt lat="42.58310638237444" lon="12.174719283278197"><ele>325.0</ele><time>2026-04-19T08:38:53.019Z</time></trkpt><trkpt lat="42.58322797845937" lon="12.174847975638693"><ele>324.0</ele><time>2026-04-19T08:38:54.019Z</time></trkpt><trkpt lat="42.58335280247879" lon="12.174979053106416"><ele>323.0</ele><time>2026-04-19T08:38:55.019Z</time></trkpt><trkpt lat="42.58347077742807" lon="12.175116034845386"><ele>322.0</ele><time>2026-04-19T08:38:56.019Z</time></trkpt><trkpt lat="42.583580067096236" lon="12.175270586567999"><ele>322.0</ele><time>2026-04-19T08:38:57.019Z</time></trkpt><trkpt lat="42.58367536866807" lon="12.175443775709104"><ele>322.0</ele><time>2026-04-19T08:38:58.019Z</time></trkpt><trkpt lat="42.583766365124916" lon="12.175623797084672"><ele>322.0</ele><time>2026-04-19T08:38:59.019Z</time></trkpt><trkpt lat="42.58385306482929" lon="12.175816424838091"><ele>324.3333333333333</ele><time>2026-04-19T08:39:00.019Z</time></trkpt><trkpt lat="42.58394121052574" lon="12.1760051186282"><ele>326.6666666666667</ele><time>2026-04-19T08:39:01.019Z</time></trkpt><trkpt lat="42.5840097086445" lon="12.176198258353287"><ele>329.0</ele><time>2026-04-19T08:39:02.019Z</time></trkpt><trkpt lat="42.58408701518925" lon="12.176360379370967"><ele>329.0</ele><time>2026-04-19T08:39:03.019Z</time></trkpt><trkpt lat="42.58415300299283" lon="12.176494662177786"><ele>329.0</ele><time>2026-04-19T08:39:04.019Z</time></trkpt><trkpt lat="42.58420682429519" lon="12.176631241348755"><ele>329.0</ele><time>2026-04-19T08:39:05.019Z</time></trkpt><trkpt lat="42.584266852075196" lon="12.176737809014831"><ele>329.0</ele><time>2026-04-19T08:39:06.019Z</time></trkpt><trkpt lat="42.584329463280426" lon="12.176843069556128"><ele>329.0</ele><time>2026-04-19T08:39:07.019Z</time></trkpt><trkpt lat="42.58420934162481" lon="12.177093117422483"><ele>329.0</ele><time>2026-04-19T08:39:08.019Z</time></trkpt><trkpt lat="42.58418365826728" lon="12.177273232797916"><ele>329.0</ele><time>2026-04-19T08:39:09.019Z</time></trkpt><trkpt lat="42.5841575620495" lon="12.177461314171026"><ele>329.0</ele><time>2026-04-19T08:39:10.019Z</time></trkpt><trkpt lat="42.58412897253733" lon="12.17766736547852"><ele>329.0</ele><time>2026-04-19T08:39:11.019Z</time></trkpt><trkpt lat="42.584099013814985" lon="12.177883068104347"><ele>329.0</ele><time>2026-04-19T08:39:12.019Z</time></trkpt><trkpt lat="42.58406776095914" lon="12.178107925802665"><ele>329.0</ele><time>2026-04-19T08:39:13.019Z</time></trkpt><trkpt lat="42.58403537300872" lon="12.178340950476331"><ele>329.0</ele><time>2026-04-19T08:39:14.019Z</time></trkpt><trkpt lat="42.58400189566208" lon="12.178581812768966"><ele>328.0</ele><time>2026-04-19T08:39:15.019Z</time></trkpt><trkpt lat="42.583969101185005" lon="12.178817762079492"><ele>327.0</ele><time>2026-04-19T08:39:16.019Z</time></trkpt><trkpt lat="42.583936847155535" lon="12.17904693707801"><ele>326.0</ele><time>2026-04-19T08:39:17.019Z</time></trkpt><trkpt lat="42.58390408700667" lon="12.179273800930245"><ele>325.33333333333337</ele><time>2026-04-19T08:39:18.019Z</time></trkpt><trkpt lat="42.58387161885233" lon="12.179498642839304"><ele>324.6666666666667</ele><time>2026-04-19T08:39:19.019Z</time></trkpt><trkpt lat="42.5838404726861" lon="12.179717209396957"><ele>324.0</ele><time>2026-04-19T08:39:20.019Z</time></trkpt><trkpt lat="42.583813577865705" lon="12.17993640291335"><ele>323.0</ele><time>2026-04-19T08:39:21.019Z</time></trkpt><trkpt lat="42.58381437552165" lon="12.180156729687562"><ele>322.0</ele><time>2026-04-19T08:39:22.019Z</time></trkpt><trkpt lat="42.58380231354498" lon="12.180369437709293"><ele>321.0</ele><time>2026-04-19T08:39:23.019Z</time></trkpt><trkpt lat="42.58379233659897" lon="12.180582450832116"><ele>319.6666666666667</ele><time>2026-04-19T08:39:24.019Z</time></trkpt><trkpt lat="42.583784647789514" lon="12.180798512167847"><ele>318.33333333333337</ele><time>2026-04-19T08:39:25.019Z</time></trkpt><trkpt lat="42.583778054120145" lon="12.181014547798474"><ele>317.0</ele><time>2026-04-19T08:39:26.019Z</time></trkpt><trkpt lat="42.58376802917103" lon="12.18123397008841"><ele>317.0</ele><time>2026-04-19T08:39:27.019Z</time></trkpt><trkpt lat="42.58374758275529" lon="12.181461611865545"><ele>317.0</ele><time>2026-04-19T08:39:28.019Z</time></trkpt><trkpt lat="42.58372091563677" lon="12.181691654955012"><ele>317.0</ele><time>2026-04-19T08:39:29.019Z</time></trkpt><trkpt lat="42.58367850683662" lon="12.181930384275338"><ele>317.0</ele><time>2026-04-19T08:39:30.019Z</time></trkpt><trkpt lat="42.58362264536863" lon="12.182174140704108"><ele>317.0</ele><time>2026-04-19T08:39:31.019Z</time></trkpt><trkpt lat="42.58355792085601" lon="12.182418530048711"><ele>317.0</ele><time>2026-04-19T08:39:32.019Z</time></trkpt><trkpt lat="42.583477755365614" lon="12.182665400662442"><ele>313.6666666666667</ele><time>2026-04-19T08:39:33.019Z</time></trkpt><trkpt lat="42.58338957274603" lon="12.182907701308965"><ele>310.3333333333333</ele><time>2026-04-19T08:39:34.019Z</time></trkpt><trkpt lat="42.583299219189314" lon="12.183137643953215"><ele>307.0</ele><time>2026-04-19T08:39:35.019Z</time></trkpt><trkpt lat="42.58321193017713" lon="12.183360567997957"><ele>304.66666666666663</ele><time>2026-04-19T08:39:36.019Z</time></trkpt><trkpt lat="42.58312432460781" lon="12.18357607951652"><ele>302.3333333333333</ele><time>2026-04-19T08:39:37.019Z</time></trkpt><trkpt lat="42.58304576609595" lon="12.183789958838346"><ele>300.0</ele><time>2026-04-19T08:39:38.019Z</time></trkpt><trkpt lat="42.58296960301718" lon="12.18400744699919"><ele>299.3333333333333</ele><time>2026-04-19T08:39:39.019Z</time></trkpt><trkpt lat="42.58290413459098" lon="12.184230044676674"><ele>298.66666666666663</ele><time>2026-04-19T08:39:40.021Z</time></trkpt><trkpt lat="42.58284560464853" lon="12.184452728644215"><ele>298.0</ele><time>2026-04-19T08:39:41.021Z</time></trkpt><trkpt lat="42.582792338509556" lon="12.184676497226684"><ele>296.66666666666663</ele><time>2026-04-19T08:39:42.021Z</time></trkpt><trkpt lat="42.582738303028634" lon="12.184905205785652"><ele>295.3333333333333</ele><time>2026-04-19T08:39:43.021Z</time></trkpt><trkpt lat="42.58268629981742" lon="12.185129280961979"><ele>294.0</ele><time>2026-04-19T08:39:44.021Z</time></trkpt><trkpt lat="42.58263950737566" lon="12.185359386664324"><ele>294.0</ele><time>2026-04-19T08:39:45.021Z</time></trkpt><trkpt lat="42.582599560500256" lon="12.185583859214589"><ele>294.0</ele><time>2026-04-19T08:39:46.021Z</time></trkpt><trkpt lat="42.58257619606691" lon="12.185814289485913"><ele>294.0</ele><time>2026-04-19T08:39:47.021Z</time></trkpt><trkpt lat="42.58257040910398" lon="12.18604536337922"><ele>292.0</ele><time>2026-04-19T08:39:48.021Z</time></trkpt><trkpt lat="42.582576350646875" lon="12.186274043130478"><ele>290.0</ele><time>2026-04-19T08:39:49.02Z</time></trkpt><trkpt lat="42.58258222571549" lon="12.186499358539036"><ele>288.0</ele><time>2026-04-19T08:39:50.021Z</time></trkpt><trkpt lat="42.58258684651737" lon="12.186731200258105"><ele>286.3333333333333</ele><time>2026-04-19T08:39:51.021Z</time></trkpt><trkpt lat="42.58258588485017" lon="12.186969615339258"><ele>284.66666666666663</ele><time>2026-04-19T08:39:52.021Z</time></trkpt><trkpt lat="42.582565242602534" lon="12.187201970515655"><ele>283.0</ele><time>2026-04-19T08:39:53.021Z</time></trkpt><trkpt lat="42.58253492134472" lon="12.187433926206012"><ele>280.66666666666663</ele><time>2026-04-19T08:39:54.021Z</time></trkpt><trkpt lat="42.582507830862454" lon="12.187652276291935"><ele>278.3333333333333</ele><time>2026-04-19T08:39:55.021Z</time></trkpt><trkpt lat="42.58247072300201" lon="12.187874509867957"><ele>276.0</ele><time>2026-04-19T08:39:56.021Z</time></trkpt><trkpt lat="42.582441157294056" lon="12.18810784988965"><ele>273.3333333333333</ele><time>2026-04-19T08:39:57.021Z</time></trkpt><trkpt lat="42.58239242640346" lon="12.188353560406076"><ele>270.66666666666663</ele><time>2026-04-19T08:39:58.021Z</time></trkpt><trkpt lat="42.58236762186213" lon="12.188611363693626"><ele>268.0</ele><time>2026-04-19T08:39:59.021Z</time></trkpt><trkpt lat="42.582337530470134" lon="12.188859408985236"><ele>266.0</ele><time>2026-04-19T08:40:00.021Z</time></trkpt><trkpt lat="42.58230037508284" lon="12.18909423555786"><ele>264.0</ele><time>2026-04-19T08:40:01.021Z</time></trkpt><trkpt lat="42.58227292444519" lon="12.18933564807452"><ele>262.0</ele><time>2026-04-19T08:40:02.021Z</time></trkpt><trkpt lat="42.5822461728884" lon="12.189575451682225"><ele>262.0</ele><time>2026-04-19T08:40:03.021Z</time></trkpt><trkpt lat="42.58221776292035" lon="12.189812339207025"><ele>262.0</ele><time>2026-04-19T08:40:04.021Z</time></trkpt><trkpt lat="42.582189440958665" lon="12.190046868963705"><ele>262.0</ele><time>2026-04-19T08:40:05.021Z</time></trkpt><trkpt lat="42.58216067089966" lon="12.190267543579889"><ele>260.25</ele><time>2026-04-19T08:40:06.021Z</time></trkpt><trkpt lat="42.58213359406759" lon="12.190468323507995"><ele>258.5</ele><time>2026-04-19T08:40:07.021Z</time></trkpt><trkpt lat="42.58210078824788" lon="12.190657435498629"><ele>256.75</ele><time>2026-04-19T08:40:08.021Z</time></trkpt><trkpt lat="42.582069398824984" lon="12.190843005909851"><ele>255.0</ele><time>2026-04-19T08:40:09.021Z</time></trkpt><trkpt lat="42.582045482788565" lon="12.191025366396863"><ele>254.5</ele><time>2026-04-19T08:40:10.021Z</time></trkpt><trkpt lat="42.58202103621523" lon="12.191202248784279"><ele>254.0</ele><time>2026-04-19T08:40:11.021Z</time></trkpt><trkpt lat="42.58199295947384" lon="12.191364679345016"><ele>253.5</ele><time>2026-04-19T08:40:12.021Z</time></trkpt><trkpt lat="42.581952809194895" lon="12.191520853767615"><ele>253.0</ele><time>2026-04-19T08:40:13.021Z</time></trkpt><trkpt lat="42.58189859403979" lon="12.191671096186177"><ele>252.0</ele><time>2026-04-19T08:40:14.021Z</time></trkpt><trkpt lat="42.58181989138514" lon="12.191809529132504"><ele>251.0</ele><time>2026-04-19T08:40:15.021Z</time></trkpt><trkpt lat="42.58171727270911" lon="12.191937198578266"><ele>250.0</ele><time>2026-04-19T08:40:16.021Z</time></trkpt><trkpt lat="42.58159564539172" lon="12.192053150221966"><ele>249.0</ele><time>2026-04-19T08:40:17.021Z</time></trkpt><trkpt lat="42.58146821494557" lon="12.19215229519221"><ele>249.0</ele><time>2026-04-19T08:40:18.021Z</time></trkpt><trkpt lat="42.58133670181311" lon="12.192248009651411"><ele>249.0</ele><time>2026-04-19T08:40:19.021Z</time></trkpt><trkpt lat="42.581197172294154" lon="12.192335747857399"><ele>249.0</ele><time>2026-04-19T08:40:20.021Z</time></trkpt><trkpt lat="42.58106083137702" lon="12.192431972810459"><ele>246.5</ele><time>2026-04-19T08:40:21.021Z</time></trkpt><trkpt lat="42.580930256502754" lon="12.192552704256164"><ele>244.0</ele><time>2026-04-19T08:40:22.021Z</time></trkpt><trkpt lat="42.58081440835562" lon="12.192679348704155"><ele>241.5</ele><time>2026-04-19T08:40:23.021Z</time></trkpt><trkpt lat="42.58072358484424" lon="12.192797061624882"><ele>239.0</ele><time>2026-04-19T08:40:24.021Z</time></trkpt><trkpt lat="42.58063846643399" lon="12.192916657047494"><ele>239.0</ele><time>2026-04-19T08:40:25.021Z</time></trkpt><trkpt lat="42.580553200801454" lon="12.193028020898174"><ele>239.0</ele><time>2026-04-19T08:40:26.021Z</time></trkpt><trkpt lat="42.580466665372036" lon="12.193136331291099"><ele>239.0</ele><time>2026-04-19T08:40:27.021Z</time></trkpt><trkpt lat="42.5803845396911" lon="12.193238934759751"><ele>239.0</ele><time>2026-04-19T08:40:28.021Z</time></trkpt><trkpt lat="42.580307691448944" lon="12.193336157855635"><ele>237.0</ele><time>2026-04-19T08:40:29.021Z</time></trkpt><trkpt lat="42.580227652697076" lon="12.193434601375484"><ele>234.99999999999997</ele><time>2026-04-19T08:40:30.021Z</time></trkpt><trkpt lat="42.58014448420004" lon="12.193525849542162"><ele>232.99999999999997</ele><time>2026-04-19T08:40:31.02Z</time></trkpt><trkpt lat="42.58006016600073" lon="12.19361035054393"><ele>231.0</ele><time>2026-04-19T08:40:32.02Z</time></trkpt><trkpt lat="42.579980968182916" lon="12.193705765436187"><ele>229.0</ele><time>2026-04-19T08:40:33.02Z</time></trkpt><trkpt lat="42.57989587616635" lon="12.19380007032067"><ele>229.0</ele><time>2026-04-19T08:40:34.02Z</time></trkpt><trkpt lat="42.57980919200923" lon="12.193896111028499"><ele>229.0</ele><time>2026-04-19T08:40:35.02Z</time></trkpt><trkpt lat="42.57971859227577" lon="12.193999428492521"><ele>229.0</ele><time>2026-04-19T08:40:36.02Z</time></trkpt><trkpt lat="42.57962496925025" lon="12.194113806790709"><ele>229.0</ele><time>2026-04-19T08:40:37.02Z</time></trkpt><trkpt lat="42.579529527695136" lon="12.194233652946352"><ele>227.0</ele><time>2026-04-19T08:40:38.02Z</time></trkpt><trkpt lat="42.5794327021799" lon="12.194349812928177"><ele>225.0</ele><time>2026-04-19T08:40:39.02Z</time></trkpt><trkpt lat="42.57933772832823" lon="12.194467583086409"><ele>223.0</ele><time>2026-04-19T08:40:40.02Z</time></trkpt><trkpt lat="42.57923817670179" lon="12.19458249190004"><ele>221.0</ele><time>2026-04-19T08:40:41.02Z</time></trkpt><trkpt lat="42.57914144487389" lon="12.194696416505948"><ele>221.0</ele><time>2026-04-19T08:40:42.02Z</time></trkpt><trkpt lat="42.57904252448727" lon="12.194814661055904"><ele>221.0</ele><time>2026-04-19T08:40:43.02Z</time></trkpt><trkpt lat="42.578947280203735" lon="12.194927655017008"><ele>221.0</ele><time>2026-04-19T08:40:44.02Z</time></trkpt><trkpt lat="42.57884943468975" lon="12.195042385949897"><ele>221.0</ele><time>2026-04-19T08:40:45.02Z</time></trkpt><trkpt lat="42.57874372485149" lon="12.19516844028026"><ele>219.75</ele><time>2026-04-19T08:40:46.02Z</time></trkpt><trkpt lat="42.578639487449486" lon="12.195295316161504"><ele>218.5</ele><time>2026-04-19T08:40:47.02Z</time></trkpt><trkpt lat="42.578535879973096" lon="12.195420688770954"><ele>217.25</ele><time>2026-04-19T08:40:48.02Z</time></trkpt><trkpt lat="42.57843447131425" lon="12.195547144893455"><ele>216.0</ele><time>2026-04-19T08:40:49.02Z</time></trkpt><trkpt lat="42.57833251406526" lon="12.195672473068168"><ele>216.0</ele><time>2026-04-19T08:40:50.02Z</time></trkpt><trkpt lat="42.578232394136265" lon="12.195801031917485"><ele>216.0</ele><time>2026-04-19T08:40:51.02Z</time></trkpt><trkpt lat="42.57812578043027" lon="12.195923120991225"><ele>216.0</ele><time>2026-04-19T08:40:52.02Z</time></trkpt><trkpt lat="42.57802073178765" lon="12.196050049358337"><ele>216.0</ele><time>2026-04-19T08:40:53.02Z</time></trkpt><trkpt lat="42.57791718889603" lon="12.196171567927994"><ele>214.25</ele><time>2026-04-19T08:40:54.02Z</time></trkpt><trkpt lat="42.57781162063321" lon="12.196301098477468"><ele>212.5</ele><time>2026-04-19T08:40:55.02Z</time></trkpt><trkpt lat="42.57770901044858" lon="12.196423667288391"><ele>210.75</ele><time>2026-04-19T08:40:56.02Z</time></trkpt><trkpt lat="42.57760576867" lon="12.19654891801975"><ele>209.0</ele><time>2026-04-19T08:40:57.02Z</time></trkpt><trkpt lat="42.57749999612911" lon="12.196674230060548"><ele>209.0</ele><time>2026-04-19T08:40:58.02Z</time></trkpt><trkpt lat="42.577394713315485" lon="12.196797407489564"><ele>209.0</ele><time>2026-04-19T08:40:59.02Z</time></trkpt><trkpt lat="42.5772938379182" lon="12.196923794412955"><ele>209.0</ele><time>2026-04-19T08:41:00.02Z</time></trkpt><trkpt lat="42.57719063764632" lon="12.19705182397576"><ele>209.0</ele><time>2026-04-19T08:41:01.02Z</time></trkpt><trkpt lat="42.577088495014934" lon="12.197178640315794"><ele>208.0</ele><time>2026-04-19T08:41:02.02Z</time></trkpt><trkpt lat="42.576987042557285" lon="12.197305883123922"><ele>207.0</ele><time>2026-04-19T08:41:03.02Z</time></trkpt><trkpt lat="42.576878937056854" lon="12.197449763327652"><ele>206.0</ele><time>2026-04-19T08:41:04.02Z</time></trkpt><trkpt lat="42.57675966951399" lon="12.197599308034327"><ele>206.0</ele><time>2026-04-19T08:41:05.02Z</time></trkpt><trkpt lat="42.57664350120672" lon="12.19775053672977"><ele>206.0</ele><time>2026-04-19T08:41:06.02Z</time></trkpt><trkpt lat="42.57653645707769" lon="12.197893029377155"><ele>206.0</ele><time>2026-04-19T08:41:07.02Z</time></trkpt><trkpt lat="42.576429899909144" lon="12.198031510053514"><ele>205.5</ele><time>2026-04-19T08:41:08.02Z</time></trkpt><trkpt lat="42.57632922853783" lon="12.198178347549751"><ele>205.0</ele><time>2026-04-19T08:41:09.02Z</time></trkpt><trkpt lat="42.57625581468569" lon="12.198339365504024"><ele>204.5</ele><time>2026-04-19T08:41:10.02Z</time></trkpt><trkpt lat="42.57619646521331" lon="12.198500538106826"><ele>204.0</ele><time>2026-04-19T08:41:11.02Z</time></trkpt><trkpt lat="42.57617144459391" lon="12.198680911684622"><ele>204.0</ele><time>2026-04-19T08:41:12.02Z</time></trkpt><trkpt lat="42.5761663640106" lon="12.198866396300186"><ele>204.0</ele><time>2026-04-19T08:41:13.02Z</time></trkpt><trkpt lat="42.57616508899066" lon="12.199045164426"><ele>204.0</ele><time>2026-04-19T08:41:14.02Z</time></trkpt><trkpt lat="42.57617609250003" lon="12.199229159095568"><ele>204.0</ele><time>2026-04-19T08:41:15.02Z</time></trkpt><trkpt lat="42.57620549100323" lon="12.199421341943014"><ele>203.0</ele><time>2026-04-19T08:41:16.02Z</time></trkpt><trkpt lat="42.576256724775114" lon="12.199615595356178"><ele>202.0</ele><time>2026-04-19T08:41:17.02Z</time></trkpt><trkpt lat="42.5762987325542" lon="12.199823705511264"><ele>201.0</ele><time>2026-04-19T08:41:18.02Z</time></trkpt><trkpt lat="42.576358037612245" lon="12.200022367919999"><ele>199.66666666666669</ele><time>2026-04-19T08:41:19.02Z</time></trkpt><trkpt lat="42.576409070201514" lon="12.200220042039291"><ele>198.33333333333334</ele><time>2026-04-19T08:41:20.02Z</time></trkpt><trkpt lat="42.576462606402835" lon="12.200416120750976"><ele>197.0</ele><time>2026-04-19T08:41:21.02Z</time></trkpt><trkpt lat="42.57651672550453" lon="12.200608172576288"><ele>196.25</ele><time>2026-04-19T08:41:22.02Z</time></trkpt><trkpt lat="42.576572897292806" lon="12.20079614357744"><ele>195.5</ele><time>2026-04-19T08:41:23.02Z</time></trkpt><trkpt lat="42.576629834657645" lon="12.200983325250125"><ele>194.75</ele><time>2026-04-19T08:41:24.02Z</time></trkpt><trkpt lat="42.576683249434694" lon="12.201169230679316"><ele>194.0</ele><time>2026-04-19T08:41:25.02Z</time></trkpt><trkpt lat="42.576733009023535" lon="12.201358425309165"><ele>193.0</ele><time>2026-04-19T08:41:26.02Z</time></trkpt><trkpt lat="42.576786130291794" lon="12.201546662985587"><ele>192.0</ele><time>2026-04-19T08:41:27.02Z</time></trkpt><trkpt lat="42.5768415281312" lon="12.201731627818106"><ele>191.0</ele><time>2026-04-19T08:41:28.02Z</time></trkpt><trkpt lat="42.5768966251624" lon="12.201915010846625"><ele>190.0</ele><time>2026-04-19T08:41:29.02Z</time></trkpt><trkpt lat="42.576951953261364" lon="12.202097182890464"><ele>190.0</ele><time>2026-04-19T08:41:30.02Z</time></trkpt><trkpt lat="42.5770004357802" lon="12.202272987182956"><ele>190.0</ele><time>2026-04-19T08:41:31.02Z</time></trkpt><trkpt lat="42.57705183557125" lon="12.202440983390742"><ele>190.0</ele><time>2026-04-19T08:41:32.02Z</time></trkpt><trkpt lat="42.57710294075754" lon="12.202608300351267"><ele>190.0</ele><time>2026-04-19T08:41:33.02Z</time></trkpt><trkpt lat="42.57715545229687" lon="12.202782131714558"><ele>190.25</ele><time>2026-04-19T08:41:34.02Z</time></trkpt><trkpt lat="42.57720720940189" lon="12.202956803923131"><ele>190.5</ele><time>2026-04-19T08:41:35.02Z</time></trkpt><trkpt lat="42.5772556810135" lon="12.203129629587997"><ele>190.75</ele><time>2026-04-19T08:41:36.02Z</time></trkpt><trkpt lat="42.577315881580034" lon="12.203299652949896"><ele>191.0</ele><time>2026-04-19T08:41:37.02Z</time></trkpt><trkpt lat="42.577366348170564" lon="12.203470120127589"><ele>190.5</ele><time>2026-04-19T08:41:38.02Z</time></trkpt><trkpt lat="42.57741155660095" lon="12.203642644783818"><ele>190.0</ele><time>2026-04-19T08:41:39.02Z</time></trkpt><trkpt lat="42.57745349027919" lon="12.203810352122055"><ele>189.5</ele><time>2026-04-19T08:41:40.02Z</time></trkpt><trkpt lat="42.577489443900696" lon="12.203984474445368"><ele>189.0</ele><time>2026-04-19T08:41:41.02Z</time></trkpt><trkpt lat="42.577508913664055" lon="12.204162735508639"><ele>187.25</ele><time>2026-04-19T08:41:42.02Z</time></trkpt><trkpt lat="42.577514765096964" lon="12.204341872654398"><ele>185.5</ele><time>2026-04-19T08:41:43.02Z</time></trkpt><trkpt lat="42.577498947585845" lon="12.204516108595993"><ele>183.75</ele><time>2026-04-19T08:41:44.02Z</time></trkpt><trkpt lat="42.577468563478554" lon="12.20468551608397"><ele>182.0</ele><time>2026-04-19T08:41:45.02Z</time></trkpt><trkpt lat="42.57743671502346" lon="12.20485368020381"><ele>181.75</ele><time>2026-04-19T08:41:46.023Z</time></trkpt><trkpt lat="42.57739568952531" lon="12.205014681172248"><ele>181.5</ele><time>2026-04-19T08:41:47.023Z</time></trkpt><trkpt lat="42.57731695602909" lon="12.205153018058647"><ele>181.25</ele><time>2026-04-19T08:41:48.023Z</time></trkpt><trkpt lat="42.5772556036108" lon="12.205312016866225"><ele>181.0</ele><time>2026-04-19T08:41:49.023Z</time></trkpt><trkpt lat="42.57717596424113" lon="12.205467574473658"><ele>181.0</ele><time>2026-04-19T08:41:50.022Z</time></trkpt><trkpt lat="42.5770944093015" lon="12.205633720041545"><ele>181.0</ele><time>2026-04-19T08:41:51.022Z</time></trkpt><trkpt lat="42.5770098408485" lon="12.205804467359167"><ele>181.0</ele><time>2026-04-19T08:41:52.023Z</time></trkpt><trkpt lat="42.57692517047752" lon="12.2059819284817"><ele>179.66666666666669</ele><time>2026-04-19T08:41:53.022Z</time></trkpt><trkpt lat="42.57684073830197" lon="12.206159660759667"><ele>178.33333333333334</ele><time>2026-04-19T08:41:54.022Z</time></trkpt><trkpt lat="42.57676616203427" lon="12.206350848812354"><ele>177.0</ele><time>2026-04-19T08:41:55.023Z</time></trkpt><trkpt lat="42.576716669617426" lon="12.206550449702892"><ele>179.66666666666666</ele><time>2026-04-19T08:41:56.022Z</time></trkpt><trkpt lat="42.57668528321206" lon="12.206761930998491"><ele>182.33333333333331</ele><time>2026-04-19T08:41:57.022Z</time></trkpt><trkpt lat="42.57667975222967" lon="12.206977882351651"><ele>185.0</ele><time>2026-04-19T08:41:58.023Z</time></trkpt><trkpt lat="42.57668279922497" lon="12.207203503963793"><ele>186.0</ele><time>2026-04-19T08:41:59.023Z</time></trkpt><trkpt lat="42.576678053311966" lon="12.207419033362635"><ele>187.0</ele><time>2026-04-19T08:42:00.023Z</time></trkpt><trkpt lat="42.57667154536098" lon="12.207621113051268"><ele>188.0</ele><time>2026-04-19T08:42:01.023Z</time></trkpt><trkpt lat="42.57666202549123" lon="12.207830150308057"><ele>188.0</ele><time>2026-04-19T08:42:02.023Z</time></trkpt><trkpt lat="42.57667179266684" lon="12.208039860047249"><ele>188.0</ele><time>2026-04-19T08:42:03.023Z</time></trkpt><trkpt lat="42.57669623353203" lon="12.208249230671822"><ele>188.0</ele><time>2026-04-19T08:42:04.023Z</time></trkpt><trkpt lat="42.576728249341365" lon="12.208464132371299"><ele>187.33333333333331</ele><time>2026-04-19T08:42:05.023Z</time></trkpt><trkpt lat="42.57674709180487" lon="12.20868877029447"><ele>186.66666666666666</ele><time>2026-04-19T08:42:06.023Z</time></trkpt><trkpt lat="42.57677986824826" lon="12.208908812864582"><ele>186.0</ele><time>2026-04-19T08:42:07.023Z</time></trkpt><trkpt lat="42.57681080264595" lon="12.209136887948302"><ele>186.0</ele><time>2026-04-19T08:42:08.023Z</time></trkpt><trkpt lat="42.576842074964034" lon="12.209370808699106"><ele>186.0</ele><time>2026-04-19T08:42:09.023Z</time></trkpt><trkpt lat="42.57687716103444" lon="12.209608743987355"><ele>186.0</ele><time>2026-04-19T08:42:10.023Z</time></trkpt><trkpt lat="42.57691194609419" lon="12.209844147680684"><ele>186.0</ele><time>2026-04-19T08:42:11.023Z</time></trkpt><trkpt lat="42.57694434996816" lon="12.21007458652626"><ele>186.0</ele><time>2026-04-19T08:42:12.023Z</time></trkpt><trkpt lat="42.576975204748" lon="12.210293338067158"><ele>186.0</ele><time>2026-04-19T08:42:13.023Z</time></trkpt><trkpt lat="42.576993895902454" lon="12.210517417764171"><ele>185.0</ele><time>2026-04-19T08:42:14.023Z</time></trkpt><trkpt lat="42.57700906515894" lon="12.210734258188074"><ele>184.0</ele><time>2026-04-19T08:42:15.023Z</time></trkpt><trkpt lat="42.57701770189251" lon="12.210939774585853"><ele>183.0</ele><time>2026-04-19T08:42:16.023Z</time></trkpt><trkpt lat="42.57702240115855" lon="12.211133724327624"><ele>183.0</ele><time>2026-04-19T08:42:17.022Z</time></trkpt><trkpt lat="42.57701794109676" lon="12.211303433347338"><ele>183.0</ele><time>2026-04-19T08:42:18.022Z</time></trkpt><trkpt lat="42.576992854542034" lon="12.211460105101422"><ele>183.0</ele><time>2026-04-19T08:42:19.022Z</time></trkpt><trkpt lat="42.57696464257725" lon="12.211581285124671"><ele>183.0</ele><time>2026-04-19T08:42:20.022Z</time></trkpt><trkpt lat="42.576958898049085" lon="12.211680936832925"><ele>183.0</ele><time>2026-04-19T08:42:22.022Z</time></trkpt><trkpt lat="42.57689507618943" lon="12.211758441997933"><ele>182.60000000000002</ele><time>2026-04-19T08:42:25.022Z</time></trkpt><trkpt lat="42.57696702233492" lon="12.211879927362789"><ele>182.20000000000002</ele><time>2026-04-19T08:42:26.022Z</time></trkpt><trkpt lat="42.576987826922036" lon="12.211992344684498"><ele>181.8</ele><time>2026-04-19T08:42:27.022Z</time></trkpt><trkpt lat="42.576992850971536" lon="12.212137160979022"><ele>181.4</ele><time>2026-04-19T08:42:28.022Z</time></trkpt><trkpt lat="42.57700651436456" lon="12.212306694246301"><ele>181.0</ele><time>2026-04-19T08:42:29.022Z</time></trkpt><trkpt lat="42.57702830327691" lon="12.212505193660434"><ele>179.33333333333334</ele><time>2026-04-19T08:42:30.022Z</time></trkpt><trkpt lat="42.57704498814332" lon="12.212722023801215"><ele>177.66666666666666</ele><time>2026-04-19T08:42:31.022Z</time></trkpt><trkpt lat="42.57706139791126" lon="12.212947581099373"><ele>176.0</ele><time>2026-04-19T08:42:32.022Z</time></trkpt><trkpt lat="42.577080384272605" lon="12.21318087011207"><ele>175.0</ele><time>2026-04-19T08:42:33.022Z</time></trkpt><trkpt lat="42.577097951543" lon="12.213410866173586"><ele>174.0</ele><time>2026-04-19T08:42:34.022Z</time></trkpt><trkpt lat="42.57711826717884" lon="12.213638864911355"><ele>173.0</ele><time>2026-04-19T08:42:35.022Z</time></trkpt><trkpt lat="42.577137179597585" lon="12.213866487573123"><ele>172.66666666666666</ele><time>2026-04-19T08:42:36.022Z</time></trkpt><trkpt lat="42.57715775369086" lon="12.2140986733919"><ele>172.33333333333334</ele><time>2026-04-19T08:42:37.022Z</time></trkpt><trkpt lat="42.577178097917624" lon="12.214329235071201"><ele>172.0</ele><time>2026-04-19T08:42:38.022Z</time></trkpt><trkpt lat="42.577205191485795" lon="12.2145512000616"><ele>172.0</ele><time>2026-04-19T08:42:39.022Z</time></trkpt><trkpt lat="42.57724072417363" lon="12.21476320534828"><ele>172.0</ele><time>2026-04-19T08:42:40.022Z</time></trkpt><trkpt lat="42.577283054400745" lon="12.214963858973807"><ele>172.0</ele><time>2026-04-19T08:42:41.022Z</time></trkpt><trkpt lat="42.5773357657906" lon="12.215161901097723"><ele>172.0</ele><time>2026-04-19T08:42:42.022Z</time></trkpt><trkpt lat="42.577390230994745" lon="12.215348830593577"><ele>172.0</ele><time>2026-04-19T08:42:43.022Z</time></trkpt><trkpt lat="42.57746085807567" lon="12.21552841333117"><ele>172.0</ele><time>2026-04-19T08:42:44.022Z</time></trkpt><trkpt lat="42.57752881301457" lon="12.215716694212164"><ele>172.0</ele><time>2026-04-19T08:42:45.022Z</time></trkpt><trkpt lat="42.57761779616378" lon="12.215907744788923"><ele>172.0</ele><time>2026-04-19T08:42:46.022Z</time></trkpt><trkpt lat="42.577711107414736" lon="12.21609701006756"><ele>172.0</ele><time>2026-04-19T08:42:47.022Z</time></trkpt><trkpt lat="42.577821892976324" lon="12.216273081829344"><ele>170.0</ele><time>2026-04-19T08:42:48.022Z</time></trkpt><trkpt lat="42.577910428357846" lon="12.216457003199086"><ele>168.0</ele><time>2026-04-19T08:42:49.022Z</time></trkpt><trkpt lat="42.5779999194586" lon="12.21664354749656"><ele>166.0</ele><time>2026-04-19T08:42:50.022Z</time></trkpt><trkpt lat="42.5780909582485" lon="12.216825437094315"><ele>166.0</ele><time>2026-04-19T08:42:51.022Z</time></trkpt><trkpt lat="42.57817622951687" lon="12.217010344955797"><ele>166.0</ele><time>2026-04-19T08:42:52.022Z</time></trkpt><trkpt lat="42.57827082873357" lon="12.217194904407075"><ele>166.0</ele><time>2026-04-19T08:42:53.022Z</time></trkpt><trkpt lat="42.578360013554" lon="12.217382240289846"><ele>166.0</ele><time>2026-04-19T08:42:54.022Z</time></trkpt><trkpt lat="42.57845335250538" lon="12.21756287640518"><ele>166.0</ele><time>2026-04-19T08:42:55.022Z</time></trkpt><trkpt lat="42.57854231023627" lon="12.217739560223396"><ele>166.0</ele><time>2026-04-19T08:42:56.022Z</time></trkpt><trkpt lat="42.57862786437387" lon="12.21790917975515"><ele>165.0</ele><time>2026-04-19T08:42:57.022Z</time></trkpt><trkpt lat="42.578715728962685" lon="12.21808393150586"><ele>164.0</ele><time>2026-04-19T08:42:58.022Z</time></trkpt><trkpt lat="42.57880756701564" lon="12.218261594386982"><ele>163.0</ele><time>2026-04-19T08:42:59.022Z</time></trkpt><trkpt lat="42.578894444291144" lon="12.218445084312306"><ele>163.0</ele><time>2026-04-19T08:43:00.022Z</time></trkpt><trkpt lat="42.578976522751866" lon="12.218630693037213"><ele>163.0</ele><time>2026-04-19T08:43:01.022Z</time></trkpt><trkpt lat="42.57905936898242" lon="12.21882434375396"><ele>163.0</ele><time>2026-04-19T08:43:02.022Z</time></trkpt><trkpt lat="42.57914161575027" lon="12.219021945529777"><ele>162.0</ele><time>2026-04-19T08:43:03.022Z</time></trkpt><trkpt lat="42.57921284642234" lon="12.219225071433238"><ele>161.0</ele><time>2026-04-19T08:43:04.022Z</time></trkpt><trkpt lat="42.579273508045176" lon="12.219425244159494"><ele>160.0</ele><time>2026-04-19T08:43:05.022Z</time></trkpt><trkpt lat="42.579330132973844" lon="12.21961977959069"><ele>160.0</ele><time>2026-04-19T08:43:06.022Z</time></trkpt><trkpt lat="42.57938357283426" lon="12.21980121375446"><ele>160.0</ele><time>2026-04-19T08:43:07.022Z</time></trkpt><trkpt lat="42.579432664266676" lon="12.219970746477705"><ele>160.0</ele><time>2026-04-19T08:43:08.022Z</time></trkpt><trkpt lat="42.5794856704972" lon="12.220123671618554"><ele>160.0</ele><time>2026-04-19T08:43:09.022Z</time></trkpt><trkpt lat="42.57954862978928" lon="12.220266360269514"><ele>160.0</ele><time>2026-04-19T08:43:10.022Z</time></trkpt><trkpt lat="42.579627571048384" lon="12.220401363750973"><ele>160.0</ele><time>2026-04-19T08:43:11.022Z</time></trkpt><trkpt lat="42.57972292849347" lon="12.220529167917995"><ele>160.0</ele><time>2026-04-19T08:43:12.022Z</time></trkpt><trkpt lat="42.57982538966185" lon="12.220656318623305"><ele>160.0</ele><time>2026-04-19T08:43:13.022Z</time></trkpt><trkpt lat="42.5799328455036" lon="12.220779995095327"><ele>157.75</ele><time>2026-04-19T08:43:14.022Z</time></trkpt><trkpt lat="42.580034049672726" lon="12.220913745390815"><ele>155.5</ele><time>2026-04-19T08:43:15.022Z</time></trkpt><trkpt lat="42.58012173433227" lon="12.22105427916975"><ele>153.25</ele><time>2026-04-19T08:43:16.022Z</time></trkpt><trkpt lat="42.58019725532816" lon="12.221205698147882"><ele>151.0</ele><time>2026-04-19T08:43:17.022Z</time></trkpt><trkpt lat="42.58025501744193" lon="12.221365676289102"><ele>148.5</ele><time>2026-04-19T08:43:18.022Z</time></trkpt><trkpt lat="42.58027695361081" lon="12.221538618716613"><ele>146.0</ele><time>2026-04-19T08:43:19.022Z</time></trkpt><trkpt lat="42.580289503405574" lon="12.221722287940954"><ele>143.5</ele><time>2026-04-19T08:43:20.022Z</time></trkpt><trkpt lat="42.58029700495522" lon="12.221928200590357"><ele>141.0</ele><time>2026-04-19T08:43:21.022Z</time></trkpt><trkpt lat="42.580299956017114" lon="12.222130220237418"><ele>140.0</ele><time>2026-04-19T08:43:22.022Z</time></trkpt><trkpt lat="42.58028697405683" lon="12.222337593334338"><ele>139.0</ele><time>2026-04-19T08:43:23.022Z</time></trkpt><trkpt lat="42.58026930962421" lon="12.222535345663747"><ele>138.0</ele><time>2026-04-19T08:43:24.022Z</time></trkpt><trkpt lat="42.58025439212223" lon="12.222728316893955"><ele>137.0</ele><time>2026-04-19T08:43:25.022Z</time></trkpt><trkpt lat="42.58024464366299" lon="12.222933691293008"><ele>137.0</ele><time>2026-04-19T08:43:26.022Z</time></trkpt><trkpt lat="42.58023206557292" lon="12.223135323775262"><ele>137.0</ele><time>2026-04-19T08:43:27.022Z</time></trkpt><trkpt lat="42.58022579340742" lon="12.223339547578115"><ele>137.0</ele><time>2026-04-19T08:43:28.022Z</time></trkpt><trkpt lat="42.58021711399891" lon="12.223549893686927"><ele>136.66666666666666</ele><time>2026-04-19T08:43:29.022Z</time></trkpt><trkpt lat="42.580214812108046" lon="12.22377059786552"><ele>136.33333333333334</ele><time>2026-04-19T08:43:30.022Z</time></trkpt><trkpt lat="42.5802076395784" lon="12.223977226576253"><ele>136.0</ele><time>2026-04-19T08:43:31.022Z</time></trkpt><trkpt lat="42.58020832260836" lon="12.22418938141231"><ele>134.0</ele><time>2026-04-19T08:43:32.022Z</time></trkpt><trkpt lat="42.580219587030484" lon="12.224408915798305"><ele>132.0</ele><time>2026-04-19T08:43:33.022Z</time></trkpt><trkpt lat="42.580231951246645" lon="12.22462928658487"><ele>130.0</ele><time>2026-04-19T08:43:34.022Z</time></trkpt><trkpt lat="42.58024472354072" lon="12.224849117492608"><ele>128.33333333333334</ele><time>2026-04-19T08:43:35.022Z</time></trkpt><trkpt lat="42.58025762193325" lon="12.225064822161391"><ele>126.66666666666666</ele><time>2026-04-19T08:43:36.022Z</time></trkpt><trkpt lat="42.58027995503339" lon="12.225269706495247"><ele>125.0</ele><time>2026-04-19T08:43:37.022Z</time></trkpt><trkpt lat="42.580327847917395" lon="12.225468415160437"><ele>128.33333333333331</ele><time>2026-04-19T08:43:38.022Z</time></trkpt><trkpt lat="42.5803909573256" lon="12.225658964420115"><ele>131.66666666666666</ele><time>2026-04-19T08:43:39.022Z</time></trkpt><trkpt lat="42.58046312511906" lon="12.22584246605679"><ele>135.0</ele><time>2026-04-19T08:43:40.022Z</time></trkpt><trkpt lat="42.580538053605885" lon="12.226021302882142"><ele>135.0</ele><time>2026-04-19T08:43:41.022Z</time></trkpt><trkpt lat="42.58062995546865" lon="12.226182055592133"><ele>135.0</ele><time>2026-04-19T08:43:42.022Z</time></trkpt><trkpt lat="42.58074011382693" lon="12.226317681401744"><ele>135.0</ele><time>2026-04-19T08:43:43.022Z</time></trkpt><trkpt lat="42.58086274016195" lon="12.226427572155952"><ele>135.0</ele><time>2026-04-19T08:43:44.022Z</time></trkpt><trkpt lat="42.580992275097024" lon="12.2265204152618"><ele>130.0</ele><time>2026-04-19T08:43:45.022Z</time></trkpt><trkpt lat="42.58112806580268" lon="12.226615629988208"><ele>125.0</ele><time>2026-04-19T08:43:46.022Z</time></trkpt><trkpt lat="42.58125907430327" lon="12.226728092253634"><ele>120.0</ele><time>2026-04-19T08:43:47.022Z</time></trkpt><trkpt lat="42.58140139483969" lon="12.226811777363412"><ele>120.0</ele><time>2026-04-19T08:43:48.022Z</time></trkpt><trkpt lat="42.58153630650321" lon="12.226912552473637"><ele>120.0</ele><time>2026-04-19T08:43:49.022Z</time></trkpt><trkpt lat="42.581667628416724" lon="12.22702297244125"><ele>120.0</ele><time>2026-04-19T08:43:50.022Z</time></trkpt><trkpt lat="42.58179490836996" lon="12.227146252575098"><ele>120.0</ele><time>2026-04-19T08:43:51.022Z</time></trkpt><trkpt lat="42.58191306939214" lon="12.227276988407764"><ele>120.0</ele><time>2026-04-19T08:43:52.025Z</time></trkpt><trkpt lat="42.582019762614806" lon="12.227421597323993"><ele>120.0</ele><time>2026-04-19T08:43:53.024Z</time></trkpt><trkpt lat="42.582113084263355" lon="12.227579099355532"><ele>116.0</ele><time>2026-04-19T08:43:54.024Z</time></trkpt><trkpt lat="42.58219278059516" lon="12.227752550876597"><ele>112.0</ele><time>2026-04-19T08:43:55.024Z</time></trkpt><trkpt lat="42.58225618288108" lon="12.227939295642814"><ele>108.0</ele><time>2026-04-19T08:43:56.025Z</time></trkpt><trkpt lat="42.58230871129401" lon="12.228134749656022"><ele>106.75</ele><time>2026-04-19T08:43:57.025Z</time></trkpt><trkpt lat="42.582347860146896" lon="12.228332558945988"><ele>105.5</ele><time>2026-04-19T08:43:58.025Z</time></trkpt><trkpt lat="42.582380401017225" lon="12.228530513729284"><ele>104.25</ele><time>2026-04-19T08:43:59.025Z</time></trkpt><trkpt lat="42.58240402815294" lon="12.228726000871925"><ele>103.0</ele><time>2026-04-19T08:44:00.025Z</time></trkpt><trkpt lat="42.582419812835795" lon="12.228916762630064"><ele>102.25</ele><time>2026-04-19T08:44:01.025Z</time></trkpt><trkpt lat="42.58242781545382" lon="12.229107507382778"><ele>101.5</ele><time>2026-04-19T08:44:02.025Z</time></trkpt><trkpt lat="42.58242599172985" lon="12.229291747648004"><ele>100.75</ele><time>2026-04-19T08:44:03.025Z</time></trkpt><trkpt lat="42.58240924718147" lon="12.22947186309293"><ele>100.0</ele><time>2026-04-19T08:44:04.025Z</time></trkpt><trkpt lat="42.582387219411764" lon="12.229659717206536"><ele>99.25</ele><time>2026-04-19T08:44:05.025Z</time></trkpt><trkpt lat="42.58236158272713" lon="12.22985359048699"><ele>98.5</ele><time>2026-04-19T08:44:06.025Z</time></trkpt><trkpt lat="42.58233929637365" lon="12.23005428239346"><ele>97.75</ele><time>2026-04-19T08:44:07.025Z</time></trkpt><trkpt lat="42.5823203155048" lon="12.230257161528995"><ele>97.0</ele><time>2026-04-19T08:44:08.025Z</time></trkpt><trkpt lat="42.58230365032376" lon="12.230467737658822"><ele>96.66666666666667</ele><time>2026-04-19T08:44:09.025Z</time></trkpt><trkpt lat="42.582285165774564" lon="12.2306790941965"><ele>96.33333333333334</ele><time>2026-04-19T08:44:10.025Z</time></trkpt><trkpt lat="42.582263259143176" lon="12.230895870970555"><ele>96.0</ele><time>2026-04-19T08:44:11.025Z</time></trkpt><trkpt lat="42.582237053093095" lon="12.231117581555676"><ele>96.0</ele><time>2026-04-19T08:44:12.025Z</time></trkpt><trkpt lat="42.58220967488497" lon="12.23134505870893"><ele>96.0</ele><time>2026-04-19T08:44:13.025Z</time></trkpt><trkpt lat="42.58218905470257" lon="12.231574570546227"><ele>96.0</ele><time>2026-04-19T08:44:14.025Z</time></trkpt><trkpt lat="42.58217055032276" lon="12.231804451042409"><ele>95.0</ele><time>2026-04-19T08:44:15.025Z</time></trkpt><trkpt lat="42.5821505240554" lon="12.232032846077134"><ele>94.0</ele><time>2026-04-19T08:44:16.025Z</time></trkpt><trkpt lat="42.58213659222971" lon="12.23226891096142"><ele>93.0</ele><time>2026-04-19T08:44:17.025Z</time></trkpt><trkpt lat="42.58212118951042" lon="12.232494862385025"><ele>92.33333333333333</ele><time>2026-04-19T08:44:18.025Z</time></trkpt><trkpt lat="42.582103577727985" lon="12.232712412553457"><ele>91.66666666666666</ele><time>2026-04-19T08:44:19.025Z</time></trkpt><trkpt lat="42.58208695154373" lon="12.232924200792784"><ele>91.0</ele><time>2026-04-19T08:44:20.025Z</time></trkpt><trkpt lat="42.582066938424354" lon="12.233127441444253"><ele>91.0</ele><time>2026-04-19T08:44:21.025Z</time></trkpt><trkpt lat="42.58204746905983" lon="12.233327534678807"><ele>91.0</ele><time>2026-04-19T08:44:22.025Z</time></trkpt><trkpt lat="42.58203110884749" lon="12.233514503994696"><ele>91.0</ele><time>2026-04-19T08:44:23.025Z</time></trkpt><trkpt lat="42.58200364262763" lon="12.233672780177683"><ele>91.0</ele><time>2026-04-19T08:44:24.025Z</time></trkpt><trkpt lat="42.58199476590741" lon="12.23380764843117"><ele>91.0</ele><time>2026-04-19T08:44:25.025Z</time></trkpt><trkpt lat="42.58198051078649" lon="12.23392092837303"><ele>91.0</ele><time>2026-04-19T08:44:26.025Z</time></trkpt><trkpt lat="42.581966545731305" lon="12.23401397985969"><ele>91.0</ele><time>2026-04-19T08:44:27.025Z</time></trkpt><trkpt lat="42.58197088531927" lon="12.234108446397432"><ele>91.0</ele><time>2026-04-19T08:44:29.025Z</time></trkpt><trkpt lat="42.58207556473381" lon="12.234231008317249"><ele>91.0</ele><time>2026-04-19T08:44:34.025Z</time></trkpt><trkpt lat="42.58213878818234" lon="12.234219717108264"><ele>91.0</ele><time>2026-04-19T08:44:35.025Z</time></trkpt><trkpt lat="42.58222497717535" lon="12.234220669912895"><ele>90.25</ele><time>2026-04-19T08:44:36.025Z</time></trkpt><trkpt lat="42.58232340374411" lon="12.234215790558894"><ele>89.5</ele><time>2026-04-19T08:44:37.025Z</time></trkpt><trkpt lat="42.582430417575544" lon="12.23421446241395"><ele>88.75</ele><time>2026-04-19T08:44:38.025Z</time></trkpt><trkpt lat="42.58255227009312" lon="12.23421448091728"><ele>88.0</ele><time>2026-04-19T08:44:39.025Z</time></trkpt><trkpt lat="42.58268529280874" lon="12.234214968047526"><ele>88.0</ele><time>2026-04-19T08:44:40.025Z</time></trkpt><trkpt lat="42.58282781598615" lon="12.234212416232433"><ele>88.0</ele><time>2026-04-19T08:44:41.025Z</time></trkpt><trkpt lat="42.582977795243075" lon="12.234207671550534"><ele>88.0</ele><time>2026-04-19T08:44:42.025Z</time></trkpt><trkpt lat="42.58312925464714" lon="12.234196687386778"><ele>88.0</ele><time>2026-04-19T08:44:43.025Z</time></trkpt><trkpt lat="42.58327321756986" lon="12.234178460966634"><ele>88.0</ele><time>2026-04-19T08:44:44.025Z</time></trkpt><trkpt lat="42.583410572467116" lon="12.234152429934536"><ele>88.0</ele><time>2026-04-19T08:44:45.025Z</time></trkpt><trkpt lat="42.583543825375095" lon="12.234140653601967"><ele>88.0</ele><time>2026-04-19T08:44:46.025Z</time></trkpt><trkpt lat="42.58366888083555" lon="12.234096988407613"><ele>88.0</ele><time>2026-04-19T08:44:47.025Z</time></trkpt><trkpt lat="42.583782434733166" lon="12.234065617349442"><ele>87.80000000000001</ele><time>2026-04-19T08:44:48.025Z</time></trkpt><trkpt lat="42.583892816289186" lon="12.234054920256337"><ele>87.6</ele><time>2026-04-19T08:44:49.025Z</time></trkpt><trkpt lat="42.58399348752657" lon="12.234074208450842"><ele>87.4</ele><time>2026-04-19T08:44:50.025Z</time></trkpt><trkpt lat="42.58410162081672" lon="12.23410126379608"><ele>87.19999999999999</ele><time>2026-04-19T08:44:51.025Z</time></trkpt><trkpt lat="42.584200774456825" lon="12.23417771945054"><ele>87.0</ele><time>2026-04-19T08:44:52.025Z</time></trkpt><trkpt lat="42.58428092381447" lon="12.234298768919473"><ele>87.0</ele><time>2026-04-19T08:44:53.025Z</time></trkpt><trkpt lat="42.584354675039265" lon="12.234423472948551"><ele>87.0</ele><time>2026-04-19T08:44:54.025Z</time></trkpt><trkpt lat="42.58435742705364" lon="12.234615297359634"><ele>87.0</ele><time>2026-04-19T08:44:55.025Z</time></trkpt><trkpt lat="42.584364540727805" lon="12.234787536067802"><ele>87.0</ele><time>2026-04-19T08:44:56.025Z</time></trkpt><trkpt lat="42.58435229596757" lon="12.234977565456614"><ele>86.33333333333333</ele><time>2026-04-19T08:44:57.025Z</time></trkpt><trkpt lat="42.584336794907514" lon="12.235182832589462"><ele>85.66666666666666</ele><time>2026-04-19T08:44:58.025Z</time></trkpt><trkpt lat="42.584332204838056" lon="12.235403917591375"><ele>85.0</ele><time>2026-04-19T08:44:59.025Z</time></trkpt><trkpt lat="42.5843170643282" lon="12.235635970486555"><ele>84.0</ele><time>2026-04-19T08:45:00.024Z</time></trkpt><trkpt lat="42.58430137136929" lon="12.235877707884597"><ele>83.0</ele><time>2026-04-19T08:45:01.024Z</time></trkpt><trkpt lat="42.58428781465195" lon="12.23612827642236"><ele>82.0</ele><time>2026-04-19T08:45:02.024Z</time></trkpt><trkpt lat="42.584274755609464" lon="12.236386655217766"><ele>81.0</ele><time>2026-04-19T08:45:03.024Z</time></trkpt><trkpt lat="42.58425909338834" lon="12.23664889713498"><ele>80.0</ele><time>2026-04-19T08:45:04.024Z</time></trkpt><trkpt lat="42.58424523839822" lon="12.236922639231446"><ele>79.0</ele><time>2026-04-19T08:45:05.024Z</time></trkpt><trkpt lat="42.58423627450736" lon="12.237196588290692"><ele>77.66666666666666</ele><time>2026-04-19T08:45:06.024Z</time></trkpt><trkpt lat="42.584229501417965" lon="12.237456217977183"><ele>76.33333333333333</ele><time>2026-04-19T08:45:07.024Z</time></trkpt><trkpt lat="42.58421901675432" lon="12.237706862902112"><ele>75.0</ele><time>2026-04-19T08:45:08.024Z</time></trkpt><trkpt lat="42.58420957686356" lon="12.237960077430085"><ele>74.66666666666667</ele><time>2026-04-19T08:45:09.024Z</time></trkpt><trkpt lat="42.584200869983434" lon="12.238202910189463"><ele>74.33333333333334</ele><time>2026-04-19T08:45:10.024Z</time></trkpt><trkpt lat="42.58419415572425" lon="12.238448153881759"><ele>74.0</ele><time>2026-04-19T08:45:11.024Z</time></trkpt><trkpt lat="42.584185691587656" lon="12.238695590730543"><ele>74.0</ele><time>2026-04-19T08:45:12.024Z</time></trkpt><trkpt lat="42.584172000273405" lon="12.238948071942948"><ele>74.0</ele><time>2026-04-19T08:45:13.024Z</time></trkpt><trkpt lat="42.584159046425825" lon="12.23920217847769"><ele>74.0</ele><time>2026-04-19T08:45:14.024Z</time></trkpt><trkpt lat="42.58414724772098" lon="12.239464449329967"><ele>74.0</ele><time>2026-04-19T08:45:15.024Z</time></trkpt><trkpt lat="42.584132659212784" lon="12.239729975680733"><ele>74.0</ele><time>2026-04-19T08:45:16.024Z</time></trkpt><trkpt lat="42.5841182743107" lon="12.239998884676778"><ele>74.0</ele><time>2026-04-19T08:45:17.024Z</time></trkpt><trkpt lat="42.584103213619684" lon="12.240270403822244"><ele>74.0</ele><time>2026-04-19T08:45:18.024Z</time></trkpt><trkpt lat="42.58409105759174" lon="12.240536183236191"><ele>74.0</ele><time>2026-04-19T08:45:19.024Z</time></trkpt><trkpt lat="42.58408047826626" lon="12.240805483107753"><ele>74.0</ele><time>2026-04-19T08:45:20.024Z</time></trkpt><trkpt lat="42.58406780330354" lon="12.24107600130649"><ele>74.0</ele><time>2026-04-19T08:45:21.024Z</time></trkpt><trkpt lat="42.584052699924854" lon="12.241350018268447"><ele>74.0</ele><time>2026-04-19T08:45:22.024Z</time></trkpt><trkpt lat="42.584037788882675" lon="12.241622264509333"><ele>74.0</ele><time>2026-04-19T08:45:23.024Z</time></trkpt><trkpt lat="42.58402149446357" lon="12.241893087727494"><ele>73.33333333333334</ele><time>2026-04-19T08:45:24.024Z</time></trkpt><trkpt lat="42.58401319963658" lon="12.242166385778562"><ele>72.66666666666667</ele><time>2026-04-19T08:45:25.024Z</time></trkpt><trkpt lat="42.58399952608519" lon="12.24243952455472"><ele>72.0</ele><time>2026-04-19T08:45:26.024Z</time></trkpt><trkpt lat="42.583981966109654" lon="12.242715897491289"><ele>71.66666666666667</ele><time>2026-04-19T08:45:27.024Z</time></trkpt><trkpt lat="42.583969218854804" lon="12.242997239146774"><ele>71.33333333333334</ele><time>2026-04-19T08:45:28.024Z</time></trkpt><trkpt lat="42.58395767913749" lon="12.243281108222073"><ele>71.0</ele><time>2026-04-19T08:45:29.024Z</time></trkpt><trkpt lat="42.58394580362795" lon="12.243564191862971"><ele>71.0</ele><time>2026-04-19T08:45:30.024Z</time></trkpt><trkpt lat="42.583934042504104" lon="12.243849290786518"><ele>71.0</ele><time>2026-04-19T08:45:31.024Z</time></trkpt><trkpt lat="42.583926447226425" lon="12.244130860705729"><ele>71.0</ele><time>2026-04-19T08:45:32.024Z</time></trkpt><trkpt lat="42.58391698740364" lon="12.244413417717565"><ele>71.0</ele><time>2026-04-19T08:45:33.024Z</time></trkpt><trkpt lat="42.58390944991378" lon="12.24469431633186"><ele>71.0</ele><time>2026-04-19T08:45:34.024Z</time></trkpt><trkpt lat="42.58390044237531" lon="12.244978418810932"><ele>71.0</ele><time>2026-04-19T08:45:35.024Z</time></trkpt><trkpt lat="42.58388372592573" lon="12.245260243228161"><ele>71.0</ele><time>2026-04-19T08:45:36.024Z</time></trkpt><trkpt lat="42.583871980704" lon="12.245538028856867"><ele>71.0</ele><time>2026-04-19T08:45:37.024Z</time></trkpt><trkpt lat="42.583864177655364" lon="12.245818088953557"><ele>71.0</ele><time>2026-04-19T08:45:38.024Z</time></trkpt><trkpt lat="42.58385784636557" lon="12.246096075025685"><ele>71.33333333333334</ele><time>2026-04-19T08:45:39.024Z</time></trkpt><trkpt lat="42.58385842254092" lon="12.246374124713931"><ele>71.66666666666667</ele><time>2026-04-19T08:45:40.024Z</time></trkpt><trkpt lat="42.58385980747802" lon="12.246651034577846"><ele>72.0</ele><time>2026-04-19T08:45:41.024Z</time></trkpt><trkpt lat="42.58386665936373" lon="12.246926807013072"><ele>72.0</ele><time>2026-04-19T08:45:42.024Z</time></trkpt><trkpt lat="42.583876630845246" lon="12.247202368229699"><ele>72.0</ele><time>2026-04-19T08:45:43.024Z</time></trkpt><trkpt lat="42.58388995408461" lon="12.247476695748574"><ele>72.0</ele><time>2026-04-19T08:45:44.024Z</time></trkpt><trkpt lat="42.583902751379604" lon="12.247747199242928"><ele>71.66666666666667</ele><time>2026-04-19T08:45:45.024Z</time></trkpt><trkpt lat="42.583916665283674" lon="12.24800651242218"><ele>71.33333333333334</ele><time>2026-04-19T08:45:46.024Z</time></trkpt><trkpt lat="42.58393197544987" lon="12.24826188303217"><ele>71.0</ele><time>2026-04-19T08:45:47.024Z</time></trkpt><trkpt lat="42.58394587300467" lon="12.248512771455882"><ele>70.66666666666667</ele><time>2026-04-19T08:45:48.024Z</time></trkpt><trkpt lat="42.583959275332376" lon="12.248762140849568"><ele>70.33333333333333</ele><time>2026-04-19T08:45:49.024Z</time></trkpt><trkpt lat="42.58397230513519" lon="12.249011803470369"><ele>70.0</ele><time>2026-04-19T08:45:50.024Z</time></trkpt><trkpt lat="42.58398713045485" lon="12.249264219940336"><ele>70.0</ele><time>2026-04-19T08:45:51.024Z</time></trkpt><trkpt lat="42.5839978388852" lon="12.249518246555098"><ele>70.0</ele><time>2026-04-19T08:45:52.024Z</time></trkpt><trkpt lat="42.58400866619847" lon="12.249777234589256"><ele>70.0</ele><time>2026-04-19T08:45:53.024Z</time></trkpt><trkpt lat="42.584020262452235" lon="12.250039540317912"><ele>69.66666666666666</ele><time>2026-04-19T08:45:54.024Z</time></trkpt><trkpt lat="42.58403320782466" lon="12.250298414453594"><ele>69.33333333333333</ele><time>2026-04-19T08:45:55.024Z</time></trkpt><trkpt lat="42.58404771380906" lon="12.250558467447078"><ele>69.0</ele><time>2026-04-19T08:45:56.024Z</time></trkpt><trkpt lat="42.58406719093276" lon="12.250810150296225"><ele>68.66666666666667</ele><time>2026-04-19T08:45:57.024Z</time></trkpt><trkpt lat="42.58407926621744" lon="12.251061833127421"><ele>68.33333333333334</ele><time>2026-04-19T08:45:58.026Z</time></trkpt><trkpt lat="42.584092610379486" lon="12.251315644575016"><ele>68.0</ele><time>2026-04-19T08:45:59.027Z</time></trkpt><trkpt lat="42.584104975284724" lon="12.251569344285903"><ele>68.0</ele><time>2026-04-19T08:46:00.027Z</time></trkpt><trkpt lat="42.584116911968025" lon="12.251820953198472"><ele>68.0</ele><time>2026-04-19T08:46:01.027Z</time></trkpt><trkpt lat="42.58412861455021" lon="12.252071330599525"><ele>68.0</ele><time>2026-04-19T08:46:02.027Z</time></trkpt><trkpt lat="42.5841389043228" lon="12.252324126523261"><ele>68.33333333333334</ele><time>2026-04-19T08:46:03.027Z</time></trkpt><trkpt lat="42.584148455700294" lon="12.252572487506576"><ele>68.66666666666667</ele><time>2026-04-19T08:46:04.026Z</time></trkpt><trkpt lat="42.58415820224387" lon="12.252819034930011"><ele>69.0</ele><time>2026-04-19T08:46:05.026Z</time></trkpt><trkpt lat="42.58417056003703" lon="12.253063936900814"><ele>69.33333333333333</ele><time>2026-04-19T08:46:06.026Z</time></trkpt><trkpt lat="42.584186351461305" lon="12.25330665233693"><ele>69.66666666666666</ele><time>2026-04-19T08:46:07.026Z</time></trkpt><trkpt lat="42.58420728316566" lon="12.253553042472191"><ele>70.0</ele><time>2026-04-19T08:46:08.027Z</time></trkpt><trkpt lat="42.58423911619618" lon="12.25379468127299"><ele>70.0</ele><time>2026-04-19T08:46:09.027Z</time></trkpt><trkpt lat="42.58428233945113" lon="12.254033869244003"><ele>70.0</ele><time>2026-04-19T08:46:10.027Z</time></trkpt><trkpt lat="42.58433378833032" lon="12.254273332663189"><ele>70.0</ele><time>2026-04-19T08:46:11.027Z</time></trkpt><trkpt lat="42.58439032660055" lon="12.254512922853037"><ele>70.0</ele><time>2026-04-19T08:46:12.027Z</time></trkpt><trkpt lat="42.58445139667024" lon="12.254755932063185"><ele>70.0</ele><time>2026-04-19T08:46:13.027Z</time></trkpt><trkpt lat="42.584512696022905" lon="12.254998297088544"><ele>70.0</ele><time>2026-04-19T08:46:14.027Z</time></trkpt><trkpt lat="42.584573361965894" lon="12.25524122226599"><ele>70.0</ele><time>2026-04-19T08:46:15.027Z</time></trkpt><trkpt lat="42.58463414424581" lon="12.255487895562663"><ele>70.0</ele><time>2026-04-19T08:46:16.027Z</time></trkpt><trkpt lat="42.584695464194084" lon="12.255736998216122"><ele>70.0</ele><time>2026-04-19T08:46:17.027Z</time></trkpt><trkpt lat="42.58475783224052" lon="12.25598493673619"><ele>70.0</ele><time>2026-04-19T08:46:18.027Z</time></trkpt><trkpt lat="42.584820691082115" lon="12.25623360478347"><ele>70.0</ele><time>2026-04-19T08:46:19.027Z</time></trkpt><trkpt lat="42.58488333169657" lon="12.256481484863466"><ele>70.0</ele><time>2026-04-19T08:46:20.027Z</time></trkpt><trkpt lat="42.584945624166444" lon="12.256733503068082"><ele>70.66666666666666</ele><time>2026-04-19T08:46:21.027Z</time></trkpt><trkpt lat="42.585006057355216" lon="12.256987820086147"><ele>71.33333333333333</ele><time>2026-04-19T08:46:22.027Z</time></trkpt><trkpt lat="42.58506832439688" lon="12.257238913876183"><ele>72.0</ele><time>2026-04-19T08:46:23.027Z</time></trkpt><trkpt lat="42.585129148521915" lon="12.257492871853858"><ele>73.33333333333333</ele><time>2026-04-19T08:46:24.027Z</time></trkpt><trkpt lat="42.58519193438173" lon="12.257745618973825"><ele>74.66666666666666</ele><time>2026-04-19T08:46:25.027Z</time></trkpt><trkpt lat="42.58525598839174" lon="12.257995952606745"><ele>76.0</ele><time>2026-04-19T08:46:26.027Z</time></trkpt><trkpt lat="42.585320898992094" lon="12.258245935499085"><ele>77.66666666666666</ele><time>2026-04-19T08:46:27.027Z</time></trkpt><trkpt lat="42.58538514583243" lon="12.258498211204397"><ele>79.33333333333333</ele><time>2026-04-19T08:46:28.027Z</time></trkpt><trkpt lat="42.5854478394998" lon="12.258748227402412"><ele>81.0</ele><time>2026-04-19T08:46:29.027Z</time></trkpt><trkpt lat="42.58550960886839" lon="12.258996526925376"><ele>81.66666666666667</ele><time>2026-04-19T08:46:30.027Z</time></trkpt><trkpt lat="42.5855736323515" lon="12.259244350723026"><ele>82.33333333333334</ele><time>2026-04-19T08:46:31.027Z</time></trkpt><trkpt lat="42.58563405349108" lon="12.25949238507097"><ele>83.0</ele><time>2026-04-19T08:46:32.027Z</time></trkpt><trkpt lat="42.58569695056728" lon="12.25973412917152"><ele>82.66666666666667</ele><time>2026-04-19T08:46:33.027Z</time></trkpt><trkpt lat="42.58575310492449" lon="12.259963108156876"><ele>82.33333333333333</ele><time>2026-04-19T08:46:34.027Z</time></trkpt><trkpt lat="42.585811553454064" lon="12.260184250673428"><ele>82.0</ele><time>2026-04-19T08:46:35.027Z</time></trkpt><trkpt lat="42.585870387056794" lon="12.260398212100599"><ele>82.0</ele><time>2026-04-19T08:46:36.027Z</time></trkpt><trkpt lat="42.58594398830617" lon="12.260589582954587"><ele>82.0</ele><time>2026-04-19T08:46:37.027Z</time></trkpt><trkpt lat="42.586039317336116" lon="12.260742483154914"><ele>82.0</ele><time>2026-04-19T08:46:38.027Z</time></trkpt><trkpt lat="42.586150565912014" lon="12.260855838918566"><ele>82.0</ele><time>2026-04-19T08:46:39.027Z</time></trkpt><trkpt lat="42.58626256082163" lon="12.260936201171761"><ele>82.75</ele><time>2026-04-19T08:46:40.027Z</time></trkpt><trkpt lat="42.586383580417156" lon="12.26099661819318"><ele>83.5</ele><time>2026-04-19T08:46:41.027Z</time></trkpt><trkpt lat="42.586509637407566" lon="12.261031191370364"><ele>84.25</ele><time>2026-04-19T08:46:42.027Z</time></trkpt><trkpt lat="42.58664010119703" lon="12.26104721849226"><ele>85.0</ele><time>2026-04-19T08:46:43.027Z</time></trkpt><trkpt lat="42.5867636629745" lon="12.261051580867894"><ele>85.0</ele><time>2026-04-19T08:46:44.027Z</time></trkpt><trkpt lat="42.586881608062455" lon="12.2610526489595"><ele>85.0</ele><time>2026-04-19T08:46:45.027Z</time></trkpt><trkpt lat="42.58700050085396" lon="12.2610543457475"><ele>85.0</ele><time>2026-04-19T08:46:46.027Z</time></trkpt><trkpt lat="42.58712091555927" lon="12.261063587334215"><ele>85.0</ele><time>2026-04-19T08:46:47.027Z</time></trkpt><trkpt lat="42.58724081759628" lon="12.261070595146037"><ele>85.75</ele><time>2026-04-19T08:46:48.027Z</time></trkpt><trkpt lat="42.58736364984034" lon="12.26107477291237"><ele>86.5</ele><time>2026-04-19T08:46:49.027Z</time></trkpt><trkpt lat="42.58748992836887" lon="12.261079390557457"><ele>87.25</ele><time>2026-04-19T08:46:50.027Z</time></trkpt><trkpt lat="42.58761751428208" lon="12.261083802442284"><ele>88.0</ele><time>2026-04-19T08:46:51.027Z</time></trkpt><trkpt lat="42.587742568564806" lon="12.261091225282364"><ele>88.25</ele><time>2026-04-19T08:46:52.027Z</time></trkpt><trkpt lat="42.58786773372377" lon="12.261100464857403"><ele>88.5</ele><time>2026-04-19T08:46:53.027Z</time></trkpt><trkpt lat="42.587995457584505" lon="12.261113072795194"><ele>88.75</ele><time>2026-04-19T08:46:54.027Z</time></trkpt><trkpt lat="42.58812174314364" lon="12.26112160718477"><ele>89.0</ele><time>2026-04-19T08:46:55.027Z</time></trkpt><trkpt lat="42.588241087896776" lon="12.261128617577036"><ele>89.0</ele><time>2026-04-19T08:46:56.027Z</time></trkpt><trkpt lat="42.58836101393427" lon="12.261134316052775"><ele>89.0</ele><time>2026-04-19T08:46:57.027Z</time></trkpt><trkpt lat="42.5884760670799" lon="12.261143734591487"><ele>89.0</ele><time>2026-04-19T08:46:58.027Z</time></trkpt><trkpt lat="42.588586352617284" lon="12.261154475319632"><ele>89.0</ele><time>2026-04-19T08:46:59.027Z</time></trkpt><trkpt lat="42.588690983713455" lon="12.261164031990882"><ele>89.2</ele><time>2026-04-19T08:47:00.027Z</time></trkpt><trkpt lat="42.588788467132794" lon="12.261181003465373"><ele>89.4</ele><time>2026-04-19T08:47:01.027Z</time></trkpt><trkpt lat="42.58888083492643" lon="12.261208639462668"><ele>89.6</ele><time>2026-04-19T08:47:02.027Z</time></trkpt><trkpt lat="42.58896163391392" lon="12.26125840639726"><ele>89.8</ele><time>2026-04-19T08:47:03.027Z</time></trkpt><trkpt lat="42.589032802320176" lon="12.261339799338034"><ele>90.0</ele><time>2026-04-19T08:47:04.027Z</time></trkpt><trkpt lat="42.58909320274157" lon="12.26144390962587"><ele>90.0</ele><time>2026-04-19T08:47:05.027Z</time></trkpt><trkpt lat="42.58913643518563" lon="12.261573175090666"><ele>90.0</ele><time>2026-04-19T08:47:06.027Z</time></trkpt><trkpt lat="42.5891628330041" lon="12.261717071308807"><ele>90.0</ele><time>2026-04-19T08:47:07.027Z</time></trkpt><trkpt lat="42.589167481565845" lon="12.261874644468422"><ele>90.0</ele><time>2026-04-19T08:47:08.027Z</time></trkpt><trkpt lat="42.58915486438657" lon="12.262041752500574"><ele>90.0</ele><time>2026-04-19T08:47:09.027Z</time></trkpt><trkpt lat="42.58914671246176" lon="12.262216705489848"><ele>90.0</ele><time>2026-04-19T08:47:10.027Z</time></trkpt><trkpt lat="42.58914522718456" lon="12.262383429496605"><ele>90.0</ele><time>2026-04-19T08:47:11.027Z</time></trkpt><trkpt lat="42.5891421004361" lon="12.262540334713414"><ele>90.0</ele><time>2026-04-19T08:47:12.027Z</time></trkpt><trkpt lat="42.589139270223896" lon="12.262695416387707"><ele>90.0</ele><time>2026-04-19T08:47:13.027Z</time></trkpt><trkpt lat="42.58913697241695" lon="12.262837097774947"><ele>90.0</ele><time>2026-04-19T08:47:14.027Z</time></trkpt><trkpt lat="42.5891358581626" lon="12.262974226628483"><ele>90.0</ele><time>2026-04-19T08:47:15.027Z</time></trkpt><trkpt lat="42.58913344333447" lon="12.263105668815536"><ele>90.0</ele><time>2026-04-19T08:47:16.027Z</time></trkpt><trkpt lat="42.58913104406401" lon="12.263232869005696"><ele>90.0</ele><time>2026-04-19T08:47:17.027Z</time></trkpt><trkpt lat="42.589131108997215" lon="12.263355952600355"><ele>90.0</ele><time>2026-04-19T08:47:18.027Z</time></trkpt><trkpt lat="42.589130347830746" lon="12.263471085761198"><ele>90.0</ele><time>2026-04-19T08:47:19.027Z</time></trkpt><trkpt lat="42.58912932398922" lon="12.263584809387087"><ele>90.0</ele><time>2026-04-19T08:47:20.027Z</time></trkpt><trkpt lat="42.58912682137934" lon="12.263698354146896"><ele>90.0</ele><time>2026-04-19T08:47:21.027Z</time></trkpt><trkpt lat="42.589125432778836" lon="12.263809171793632"><ele>90.0</ele><time>2026-04-19T08:47:22.027Z</time></trkpt><trkpt lat="42.589122587082386" lon="12.263925657560268"><ele>90.0</ele><time>2026-04-19T08:47:23.027Z</time></trkpt><trkpt lat="42.5891218080519" lon="12.264047367181178"><ele>90.0</ele><time>2026-04-19T08:47:24.027Z</time></trkpt><trkpt lat="42.58911988067442" lon="12.264171816703362"><ele>90.0</ele><time>2026-04-19T08:47:25.027Z</time></trkpt><trkpt lat="42.58911904321378" lon="12.264306996412811"><ele>90.0</ele><time>2026-04-19T08:47:26.027Z</time></trkpt><trkpt lat="42.589119118990936" lon="12.264454956649287"><ele>90.0</ele><time>2026-04-19T08:47:27.027Z</time></trkpt><trkpt lat="42.58911923439635" lon="12.264622183558402"><ele>90.0</ele><time>2026-04-19T08:47:28.027Z</time></trkpt><trkpt lat="42.58911861905437" lon="12.26479714893169"><ele>90.0</ele><time>2026-04-19T08:47:29.027Z</time></trkpt><trkpt lat="42.589116707822306" lon="12.264986650984492"><ele>90.0</ele><time>2026-04-19T08:47:30.027Z</time></trkpt><trkpt lat="42.58911334314099" lon="12.265190138065257"><ele>90.0</ele><time>2026-04-19T08:47:31.027Z</time></trkpt><trkpt lat="42.58911351916805" lon="12.26540470478618"><ele>90.0</ele><time>2026-04-19T08:47:32.027Z</time></trkpt><trkpt lat="42.589112041104464" lon="12.265628667423325"><ele>89.66666666666667</ele><time>2026-04-19T08:47:33.027Z</time></trkpt><trkpt lat="42.58910687462336" lon="12.265866532565642"><ele>89.33333333333334</ele><time>2026-04-19T08:47:34.027Z</time></trkpt><trkpt lat="42.58910330861357" lon="12.26612604034818"><ele>89.0</ele><time>2026-04-19T08:47:35.027Z</time></trkpt><trkpt lat="42.589102756749185" lon="12.266396326358837"><ele>89.0</ele><time>2026-04-19T08:47:36.027Z</time></trkpt><trkpt lat="42.58909928493349" lon="12.266703033225767"><ele>89.0</ele><time>2026-04-19T08:47:37.027Z</time></trkpt><trkpt lat="42.58909449723927" lon="12.267015398568738"><ele>90.33333333333334</ele><time>2026-04-19T08:47:38.027Z</time></trkpt><trkpt lat="42.589091864624386" lon="12.267319896854902"><ele>91.66666666666667</ele><time>2026-04-19T08:47:39.027Z</time></trkpt><trkpt lat="42.58909132905091" lon="12.267622291927152"><ele>93.0</ele><time>2026-04-19T08:47:40.027Z</time></trkpt><trkpt lat="42.589086636982636" lon="12.267918261418021"><ele>93.33333333333333</ele><time>2026-04-19T08:47:41.027Z</time></trkpt><trkpt lat="42.589078340556476" lon="12.268213012419684"><ele>93.66666666666666</ele><time>2026-04-19T08:47:42.027Z</time></trkpt><trkpt lat="42.58906939244143" lon="12.268508294019387"><ele>94.0</ele><time>2026-04-19T08:47:43.027Z</time></trkpt><trkpt lat="42.58905859401147" lon="12.26880378493688"><ele>94.66666666666666</ele><time>2026-04-19T08:47:44.027Z</time></trkpt><trkpt lat="42.58905170540406" lon="12.26908906586987"><ele>95.33333333333333</ele><time>2026-04-19T08:47:45.027Z</time></trkpt><trkpt lat="42.589041863231" lon="12.269374802447992"><ele>96.0</ele><time>2026-04-19T08:47:46.027Z</time></trkpt><trkpt lat="42.58903588134227" lon="12.269659969656177"><ele>95.66666666666667</ele><time>2026-04-19T08:47:47.027Z</time></trkpt><trkpt lat="42.58902895613751" lon="12.269947374227645"><ele>95.33333333333334</ele><time>2026-04-19T08:47:48.027Z</time></trkpt><trkpt lat="42.58902222610843" lon="12.27023621808643"><ele>95.0</ele><time>2026-04-19T08:47:49.027Z</time></trkpt><trkpt lat="42.589015795902995" lon="12.270521350590633"><ele>95.33333333333334</ele><time>2026-04-19T08:47:50.027Z</time></trkpt><trkpt lat="42.58900971354826" lon="12.270792123574367"><ele>95.66666666666667</ele><time>2026-04-19T08:47:51.027Z</time></trkpt><trkpt lat="42.589005598945164" lon="12.271047367573287"><ele>96.0</ele><time>2026-04-19T08:47:52.026Z</time></trkpt><trkpt lat="42.58900243828379" lon="12.27129509153024"><ele>97.0</ele><time>2026-04-19T08:47:53.026Z</time></trkpt><trkpt lat="42.58899438105768" lon="12.271541068283275"><ele>98.0</ele><time>2026-04-19T08:47:54.026Z</time></trkpt><trkpt lat="42.588986246786575" lon="12.271784607801454"><ele>99.0</ele><time>2026-04-19T08:47:55.026Z</time></trkpt><trkpt lat="42.588981975807414" lon="12.272026405044583"><ele>99.0</ele><time>2026-04-19T08:47:56.026Z</time></trkpt><trkpt lat="42.58897994765998" lon="12.27226019801311"><ele>99.0</ele><time>2026-04-19T08:47:57.026Z</time></trkpt><trkpt lat="42.588978621570654" lon="12.272488089804202"><ele>99.0</ele><time>2026-04-19T08:47:58.026Z</time></trkpt><trkpt lat="42.5889760294897" lon="12.272709104191197"><ele>99.33333333333334</ele><time>2026-04-19T08:47:59.026Z</time></trkpt><trkpt lat="42.5889576067953" lon="12.272927113745503"><ele>99.66666666666667</ele><time>2026-04-19T08:48:00.026Z</time></trkpt><trkpt lat="42.588954416576314" lon="12.27314499271594"><ele>100.0</ele><time>2026-04-19T08:48:01.026Z</time></trkpt><trkpt lat="42.58896682765323" lon="12.273365445752326"><ele>100.0</ele><time>2026-04-19T08:48:02.026Z</time></trkpt><trkpt lat="42.588962627766705" lon="12.273582761597341"><ele>100.0</ele><time>2026-04-19T08:48:03.026Z</time></trkpt><trkpt lat="42.58895358561629" lon="12.273799416201426"><ele>100.0</ele><time>2026-04-19T08:48:04.028Z</time></trkpt><trkpt lat="42.58895254487621" lon="12.274014498883128"><ele>100.0</ele><time>2026-04-19T08:48:05.029Z</time></trkpt><trkpt lat="42.588949528014595" lon="12.2742266102668"><ele>100.0</ele><time>2026-04-19T08:48:06.029Z</time></trkpt><trkpt lat="42.588946010716626" lon="12.27443663919949"><ele>100.0</ele><time>2026-04-19T08:48:07.029Z</time></trkpt><trkpt lat="42.588943938741394" lon="12.274636302606568"><ele>101.5</ele><time>2026-04-19T08:48:08.029Z</time></trkpt><trkpt lat="42.588940216577036" lon="12.27483447265433"><ele>103.0</ele><time>2026-04-19T08:48:09.029Z</time></trkpt><trkpt lat="42.588935227978546" lon="12.27503540046697"><ele>104.5</ele><time>2026-04-19T08:48:10.029Z</time></trkpt><trkpt lat="42.588934558439824" lon="12.27523318379828"><ele>106.0</ele><time>2026-04-19T08:48:11.029Z</time></trkpt><trkpt lat="42.588932182389044" lon="12.27542887923584"><ele>107.0</ele><time>2026-04-19T08:48:12.029Z</time></trkpt><trkpt lat="42.58893028727495" lon="12.275629052788805"><ele>108.0</ele><time>2026-04-19T08:48:13.028Z</time></trkpt><trkpt lat="42.588929878068555" lon="12.275826732465365"><ele>109.0</ele><time>2026-04-19T08:48:14.029Z</time></trkpt><trkpt lat="42.58892229817589" lon="12.276018028412551"><ele>110.0</ele><time>2026-04-19T08:48:15.029Z</time></trkpt><trkpt lat="42.588915493160336" lon="12.276209529577818"><ele>110.0</ele><time>2026-04-19T08:48:16.028Z</time></trkpt><trkpt lat="42.588913299543606" lon="12.276403203955526"><ele>110.0</ele><time>2026-04-19T08:48:17.028Z</time></trkpt><trkpt lat="42.58891293594053" lon="12.276601548457649"><ele>110.0</ele><time>2026-04-19T08:48:18.028Z</time></trkpt><trkpt lat="42.58891157189729" lon="12.276801224548343"><ele>110.0</ele><time>2026-04-19T08:48:19.028Z</time></trkpt><trkpt lat="42.588907478783796" lon="12.276993851628703"><ele>110.0</ele><time>2026-04-19T08:48:20.028Z</time></trkpt><trkpt lat="42.58890606613549" lon="12.277186209964913"><ele>110.0</ele><time>2026-04-19T08:48:21.028Z</time></trkpt><trkpt lat="42.588911824071324" lon="12.277383765225629"><ele>110.0</ele><time>2026-04-19T08:48:22.028Z</time></trkpt><trkpt lat="42.58893363230251" lon="12.277582646726653"><ele>110.0</ele><time>2026-04-19T08:48:23.028Z</time></trkpt><trkpt lat="42.588971655588495" lon="12.27777932781336"><ele>110.0</ele><time>2026-04-19T08:48:24.028Z</time></trkpt><trkpt lat="42.58902448454632" lon="12.27796916850902"><ele>110.0</ele><time>2026-04-19T08:48:25.028Z</time></trkpt><trkpt lat="42.58909282375657" lon="12.27815254663605"><ele>110.0</ele><time>2026-04-19T08:48:26.028Z</time></trkpt><trkpt lat="42.58919014373047" lon="12.278324380579372"><ele>108.66666666666666</ele><time>2026-04-19T08:48:27.028Z</time></trkpt><trkpt lat="42.58929409924987" lon="12.278486732354825"><ele>107.33333333333334</ele><time>2026-04-19T08:48:28.028Z</time></trkpt><trkpt lat="42.58937505948322" lon="12.27866016549327"><ele>106.0</ele><time>2026-04-19T08:48:29.028Z</time></trkpt><trkpt lat="42.58946799326186" lon="12.278819314867674"><ele>107.0</ele><time>2026-04-19T08:48:30.028Z</time></trkpt><trkpt lat="42.58956912054745" lon="12.278970170739818"><ele>108.0</ele><time>2026-04-19T08:48:31.028Z</time></trkpt><trkpt lat="42.58966428218263" lon="12.279137358226178"><ele>109.0</ele><time>2026-04-19T08:48:32.028Z</time></trkpt><trkpt lat="42.58976577073028" lon="12.279304204083214"><ele>109.0</ele><time>2026-04-19T08:48:33.028Z</time></trkpt><trkpt lat="42.58985398058057" lon="12.279496201736679"><ele>109.0</ele><time>2026-04-19T08:48:34.028Z</time></trkpt><trkpt lat="42.589965844475245" lon="12.279698866366806"><ele>109.0</ele><time>2026-04-19T08:48:35.028Z</time></trkpt><trkpt lat="42.59008035667195" lon="12.279929507613867"><ele>109.0</ele><time>2026-04-19T08:48:36.028Z</time></trkpt><trkpt lat="42.59017593528066" lon="12.280168306928154"><ele>109.0</ele><time>2026-04-19T08:48:37.028Z</time></trkpt><trkpt lat="42.59026533034743" lon="12.280387551565115"><ele>109.0</ele><time>2026-04-19T08:48:38.028Z</time></trkpt><trkpt lat="42.59036024810129" lon="12.280585623811227"><ele>108.25</ele><time>2026-04-19T08:48:39.028Z</time></trkpt><trkpt lat="42.59045684498042" lon="12.280757944734889"><ele>107.5</ele><time>2026-04-19T08:48:40.028Z</time></trkpt><trkpt lat="42.59056050966388" lon="12.280906948352147"><ele>106.75</ele><time>2026-04-19T08:48:41.028Z</time></trkpt><trkpt lat="42.59065407411819" lon="12.281033683071493"><ele>106.0</ele><time>2026-04-19T08:48:42.028Z</time></trkpt><trkpt lat="42.59073106626447" lon="12.281143739652467"><ele>106.0</ele><time>2026-04-19T08:48:43.028Z</time></trkpt><trkpt lat="42.590801761645835" lon="12.28125154735147"><ele>106.0</ele><time>2026-04-19T08:48:44.028Z</time></trkpt><trkpt lat="42.59085766017484" lon="12.28137105098882"><ele>106.0</ele><time>2026-04-19T08:48:45.028Z</time></trkpt><trkpt lat="42.59089255646988" lon="12.281502430044307"><ele>106.0</ele><time>2026-04-19T08:48:46.028Z</time></trkpt><trkpt lat="42.590892229212834" lon="12.281639529444107"><ele>106.0</ele><time>2026-04-19T08:48:47.028Z</time></trkpt><trkpt lat="42.590870708018066" lon="12.281776708314904"><ele>107.4</ele><time>2026-04-19T08:48:48.028Z</time></trkpt><trkpt lat="42.59082572908136" lon="12.281903219861228"><ele>108.8</ele><time>2026-04-19T08:48:49.028Z</time></trkpt><trkpt lat="42.59076357482476" lon="12.282014203568243"><ele>110.20000000000002</ele><time>2026-04-19T08:48:50.028Z</time></trkpt><trkpt lat="42.59069386943771" lon="12.282108467653861"><ele>111.60000000000001</ele><time>2026-04-19T08:48:51.028Z</time></trkpt><trkpt lat="42.59061495887203" lon="12.282187250565812"><ele>113.0</ele><time>2026-04-19T08:48:52.028Z</time></trkpt><trkpt lat="42.590523382815036" lon="12.282236770399294"><ele>113.0</ele><time>2026-04-19T08:48:53.028Z</time></trkpt><trkpt lat="42.590425669280656" lon="12.282262027376698"><ele>113.00000000000001</ele><time>2026-04-19T08:48:54.028Z</time></trkpt><trkpt lat="42.590330989813694" lon="12.282311972818931"><ele>113.00000000000001</ele><time>2026-04-19T08:48:55.028Z</time></trkpt><trkpt lat="42.59023759370577" lon="12.282383315014654"><ele>113.0</ele><time>2026-04-19T08:48:56.028Z</time></trkpt><trkpt lat="42.59015867055331" lon="12.282492235525886"><ele>113.0</ele><time>2026-04-19T08:48:57.028Z</time></trkpt><trkpt lat="42.59010216286481" lon="12.2826064516211"><ele>113.66666666666666</ele><time>2026-04-19T08:48:58.028Z</time></trkpt><trkpt lat="42.590064666558916" lon="12.282720229043136"><ele>114.33333333333333</ele><time>2026-04-19T08:48:59.028Z</time></trkpt><trkpt lat="42.590039364111206" lon="12.282815812064028"><ele>115.0</ele><time>2026-04-19T08:49:00.028Z</time></trkpt><trkpt lat="42.590048786892616" lon="12.282974234265847"><ele>115.66666666666666</ele><time>2026-04-19T08:49:02.028Z</time></trkpt><trkpt lat="42.59008786658222" lon="12.283042262609595"><ele>116.33333333333333</ele><time>2026-04-19T08:49:03.028Z</time></trkpt><trkpt lat="42.59015279835769" lon="12.283073955967575"><ele>117.0</ele><time>2026-04-19T08:49:04.028Z</time></trkpt><trkpt lat="42.59022873966208" lon="12.283061242322264"><ele>117.0</ele><time>2026-04-19T08:49:05.028Z</time></trkpt><trkpt lat="42.590289069851146" lon="12.28301044999676"><ele>117.0</ele><time>2026-04-19T08:49:06.028Z</time></trkpt><trkpt lat="42.59036302686533" lon="12.282962013415549"><ele>117.0</ele><time>2026-04-19T08:49:07.028Z</time></trkpt><trkpt lat="42.590444576417404" lon="12.282891370977516"><ele>117.0</ele><time>2026-04-19T08:49:08.028Z</time></trkpt><trkpt lat="42.590521527983014" lon="12.282828265050162"><ele>117.0</ele><time>2026-04-19T08:49:09.028Z</time></trkpt><trkpt lat="42.590620413114415" lon="12.282825882472686"><ele>117.0</ele><time>2026-04-19T08:49:10.028Z</time></trkpt><trkpt lat="42.59072131035972" lon="12.282865150112887"><ele>118.8</ele><time>2026-04-19T08:49:11.028Z</time></trkpt><trkpt lat="42.590826038896886" lon="12.282923747167153"><ele>120.6</ele><time>2026-04-19T08:49:12.028Z</time></trkpt><trkpt lat="42.590917073312404" lon="12.282991941291646"><ele>122.39999999999999</ele><time>2026-04-19T08:49:13.028Z</time></trkpt><trkpt lat="42.59101182227009" lon="12.28307400456032"><ele>124.19999999999999</ele><time>2026-04-19T08:49:14.028Z</time></trkpt><trkpt lat="42.59110249815697" lon="12.283164085557605"><ele>126.0</ele><time>2026-04-19T08:49:15.028Z</time></trkpt><trkpt lat="42.59118220561321" lon="12.28326801875664"><ele>128.5</ele><time>2026-04-19T08:49:16.028Z</time></trkpt><trkpt lat="42.591245565589155" lon="12.283388333689182"><ele>131.0</ele><time>2026-04-19T08:49:17.028Z</time></trkpt><trkpt lat="42.59130729798983" lon="12.28351380220021"><ele>133.5</ele><time>2026-04-19T08:49:18.028Z</time></trkpt><trkpt lat="42.59137490560778" lon="12.283635839302931"><ele>136.0</ele><time>2026-04-19T08:49:19.028Z</time></trkpt><trkpt lat="42.59146639145933" lon="12.28375125720934"><ele>136.0</ele><time>2026-04-19T08:49:20.028Z</time></trkpt><trkpt lat="42.591590094593876" lon="12.283857895597935"><ele>136.0</ele><time>2026-04-19T08:49:21.028Z</time></trkpt><trkpt lat="42.591745171658104" lon="12.283959308627367"><ele>136.0</ele><time>2026-04-19T08:49:22.028Z</time></trkpt><trkpt lat="42.591921140379945" lon="12.284077846980203"><ele>138.33333333333334</ele><time>2026-04-19T08:49:23.028Z</time></trkpt><trkpt lat="42.59210823080464" lon="12.284225991904323"><ele>140.66666666666666</ele><time>2026-04-19T08:49:24.028Z</time></trkpt><trkpt lat="42.59228585553037" lon="12.284369172784457"><ele>143.0</ele><time>2026-04-19T08:49:25.028Z</time></trkpt><trkpt lat="42.592445224911565" lon="12.284491787205443"><ele>143.0</ele><time>2026-04-19T08:49:26.028Z</time></trkpt><trkpt lat="42.59258309990601" lon="12.284597168177845"><ele>143.0</ele><time>2026-04-19T08:49:27.028Z</time></trkpt><trkpt lat="42.59268387477957" lon="12.284683909709969"><ele>143.0</ele><time>2026-04-19T08:49:28.028Z</time></trkpt><trkpt lat="42.5927330702246" lon="12.284776835793691"><ele>143.0</ele><time>2026-04-19T08:49:29.028Z</time></trkpt><trkpt lat="42.592738863054926" lon="12.284888280222324"><ele>143.0</ele><time>2026-04-19T08:49:30.028Z</time></trkpt><trkpt lat="42.592698876599535" lon="12.284976513845084"><ele>145.4</ele><time>2026-04-19T08:49:31.028Z</time></trkpt><trkpt lat="42.59262343387369" lon="12.285035638303464"><ele>147.8</ele><time>2026-04-19T08:49:32.028Z</time></trkpt><trkpt lat="42.59253235963851" lon="12.285038150072246"><ele>150.2</ele><time>2026-04-19T08:49:33.028Z</time></trkpt><trkpt lat="42.59244245477725" lon="12.285004423661157"><ele>152.6</ele><time>2026-04-19T08:49:34.028Z</time></trkpt><trkpt lat="42.5923490480681" lon="12.284961577406909"><ele>155.0</ele><time>2026-04-19T08:49:35.028Z</time></trkpt><trkpt lat="42.59225746796235" lon="12.284963912994868"><ele>155.0</ele><time>2026-04-19T08:49:36.028Z</time></trkpt><trkpt lat="42.592173868104666" lon="12.285018000990341"><ele>155.0</ele><time>2026-04-19T08:49:37.028Z</time></trkpt><trkpt lat="42.592114007151245" lon="12.285112900587336"><ele>155.0</ele><time>2026-04-19T08:49:38.028Z</time></trkpt><trkpt lat="42.59209742044725" lon="12.285235461146227"><ele>155.0</ele><time>2026-04-19T08:49:39.028Z</time></trkpt><trkpt lat="42.592120207080285" lon="12.285352059040163"><ele>155.0</ele><time>2026-04-19T08:49:40.028Z</time></trkpt><trkpt lat="42.59218187213817" lon="12.28544638268716"><ele>155.0</ele><time>2026-04-19T08:49:41.028Z</time></trkpt><trkpt lat="42.592276740131574" lon="12.285511192729146"><ele>155.0</ele><time>2026-04-19T08:49:42.028Z</time></trkpt><trkpt lat="42.59239615981143" lon="12.28555493675381"><ele>155.0</ele><time>2026-04-19T08:49:43.028Z</time></trkpt><trkpt lat="42.59254152289028" lon="12.285608620538659"><ele>155.0</ele><time>2026-04-19T08:49:44.028Z</time></trkpt><trkpt lat="42.59269845786398" lon="12.285686016923382"><ele>158.66666666666666</ele><time>2026-04-19T08:49:45.028Z</time></trkpt><trkpt lat="42.59286433430933" lon="12.28575405602733"><ele>162.33333333333334</ele><time>2026-04-19T08:49:46.028Z</time></trkpt><trkpt lat="42.59301987949896" lon="12.2857987886632"><ele>166.0</ele><time>2026-04-19T08:49:47.028Z</time></trkpt><trkpt lat="42.59315741330838" lon="12.285828230194571"><ele>166.0</ele><time>2026-04-19T08:49:48.028Z</time></trkpt><trkpt lat="42.59326434793966" lon="12.285856829421059"><ele>166.0</ele><time>2026-04-19T08:49:49.028Z</time></trkpt><trkpt lat="42.5933350769113" lon="12.28591328527625"><ele>166.0</ele><time>2026-04-19T08:49:50.028Z</time></trkpt><trkpt lat="42.593369869667804" lon="12.285995884381833"><ele>166.0</ele><time>2026-04-19T08:49:51.028Z</time></trkpt><trkpt lat="42.59336211845511" lon="12.286081636405438"><ele>166.0</ele><time>2026-04-19T08:49:52.028Z</time></trkpt><trkpt lat="42.59332549503366" lon="12.286160134571995"><ele>166.0</ele><time>2026-04-19T08:49:53.028Z</time></trkpt><trkpt lat="42.593263397928204" lon="12.28619900683938"><ele>166.0</ele><time>2026-04-19T08:49:54.028Z</time></trkpt><trkpt lat="42.59317959049948" lon="12.28616733336109"><ele>166.0</ele><time>2026-04-19T08:49:55.028Z</time></trkpt><trkpt lat="42.593066942818055" lon="12.286178062621232"><ele>166.0</ele><time>2026-04-19T08:49:56.028Z</time></trkpt><trkpt lat="42.592938993799855" lon="12.2861591904873"><ele>166.0</ele><time>2026-04-19T08:49:57.028Z</time></trkpt><trkpt lat="42.59280330874689" lon="12.286145552931403"><ele>167.0</ele><time>2026-04-19T08:49:58.028Z</time></trkpt><trkpt lat="42.5926731725689" lon="12.286134332009336"><ele>168.0</ele><time>2026-04-19T08:49:59.028Z</time></trkpt><trkpt lat="42.592550982831895" lon="12.286123420663802"><ele>169.0</ele><time>2026-04-19T08:50:00.028Z</time></trkpt><trkpt lat="42.59243837447429" lon="12.286106663899064"><ele>170.0</ele><time>2026-04-19T08:50:01.028Z</time></trkpt><trkpt lat="42.59232788657184" lon="12.286143713791793"><ele>170.0</ele><time>2026-04-19T08:50:02.028Z</time></trkpt><trkpt lat="42.59223663869988" lon="12.286214431941472"><ele>170.0</ele><time>2026-04-19T08:50:03.028Z</time></trkpt><trkpt lat="42.59217675148596" lon="12.286313619755669"><ele>170.0</ele><time>2026-04-19T08:50:04.028Z</time></trkpt><trkpt lat="42.592157916985364" lon="12.286439448846648"><ele>170.0</ele><time>2026-04-19T08:50:05.028Z</time></trkpt><trkpt lat="42.592175508387676" lon="12.28658537337791"><ele>170.0</ele><time>2026-04-19T08:50:06.028Z</time></trkpt><trkpt lat="42.59222352018883" lon="12.286736771109553"><ele>175.33333333333331</ele><time>2026-04-19T08:50:07.028Z</time></trkpt><trkpt lat="42.592278732547776" lon="12.28691707231159"><ele>180.66666666666666</ele><time>2026-04-19T08:50:08.028Z</time></trkpt><trkpt lat="42.592334456125315" lon="12.287107617607665"><ele>186.0</ele><time>2026-04-19T08:50:09.028Z</time></trkpt><trkpt lat="42.59239285008082" lon="12.287318570494016"><ele>188.33333333333331</ele><time>2026-04-19T08:50:10.03Z</time></trkpt><trkpt lat="42.59244444726893" lon="12.287536190876102"><ele>190.66666666666666</ele><time>2026-04-19T08:50:11.031Z</time></trkpt><trkpt lat="42.59249040832188" lon="12.287765946517627"><ele>193.0</ele><time>2026-04-19T08:50:12.031Z</time></trkpt><trkpt lat="42.59251001962698" lon="12.288003530277713"><ele>194.33333333333331</ele><time>2026-04-19T08:50:13.03Z</time></trkpt><trkpt lat="42.59254001659538" lon="12.288236283933147"><ele>195.66666666666669</ele><time>2026-04-19T08:50:14.03Z</time></trkpt><trkpt lat="42.592574656290864" lon="12.28846487808412"><ele>197.0</ele><time>2026-04-19T08:50:15.03Z</time></trkpt><trkpt lat="42.59262369189255" lon="12.28868202506714"><ele>197.0</ele><time>2026-04-19T08:50:16.03Z</time></trkpt><trkpt lat="42.59266926801116" lon="12.288892865395535"><ele>197.0</ele><time>2026-04-19T08:50:17.031Z</time></trkpt><trkpt lat="42.59271260851589" lon="12.28910025612835"><ele>197.0</ele><time>2026-04-19T08:50:18.031Z</time></trkpt><trkpt lat="42.592745586001904" lon="12.28929923488884"><ele>199.25</ele><time>2026-04-19T08:50:19.03Z</time></trkpt><trkpt lat="42.59276933742585" lon="12.289488569016125"><ele>201.5</ele><time>2026-04-19T08:50:20.031Z</time></trkpt><trkpt lat="42.59278552419441" lon="12.28967122156549"><ele>203.75</ele><time>2026-04-19T08:50:21.031Z</time></trkpt><trkpt lat="42.59280029281031" lon="12.289848188783132"><ele>206.0</ele><time>2026-04-19T08:50:22.03Z</time></trkpt><trkpt lat="42.59280780375171" lon="12.290019777536934"><ele>208.0</ele><time>2026-04-19T08:50:23.031Z</time></trkpt><trkpt lat="42.592807972960514" lon="12.290185575959267"><ele>210.0</ele><time>2026-04-19T08:50:24.031Z</time></trkpt><trkpt lat="42.59280570042223" lon="12.290352146515042"><ele>212.0</ele><time>2026-04-19T08:50:25.031Z</time></trkpt><trkpt lat="42.59279572241204" lon="12.290516647359738"><ele>214.0</ele><time>2026-04-19T08:50:26.031Z</time></trkpt><trkpt lat="42.59277847070597" lon="12.290689980209665"><ele>215.5</ele><time>2026-04-19T08:50:27.031Z</time></trkpt><trkpt lat="42.592763144880465" lon="12.290871209737228"><ele>217.0</ele><time>2026-04-19T08:50:28.031Z</time></trkpt><trkpt lat="42.592755267272594" lon="12.291048175574355"><ele>218.5</ele><time>2026-04-19T08:50:29.031Z</time></trkpt><trkpt lat="42.59274933073971" lon="12.291230403455542"><ele>220.0</ele><time>2026-04-19T08:50:30.031Z</time></trkpt><trkpt lat="42.59274036234577" lon="12.291413308796105"><ele>221.75</ele><time>2026-04-19T08:50:31.031Z</time></trkpt><trkpt lat="42.59272897478143" lon="12.291602384772645"><ele>223.5</ele><time>2026-04-19T08:50:32.031Z</time></trkpt><trkpt lat="42.592717824764165" lon="12.291792476432619"><ele>225.25</ele><time>2026-04-19T08:50:33.031Z</time></trkpt><trkpt lat="42.59270106267041" lon="12.29198190231831"><ele>227.0</ele><time>2026-04-19T08:50:34.031Z</time></trkpt><trkpt lat="42.592678206569715" lon="12.292174201364405"><ele>228.25</ele><time>2026-04-19T08:50:35.031Z</time></trkpt><trkpt lat="42.5926528800567" lon="12.292369636889752"><ele>229.5</ele><time>2026-04-19T08:50:36.031Z</time></trkpt><trkpt lat="42.592630349917776" lon="12.292567748304796"><ele>230.75</ele><time>2026-04-19T08:50:37.03Z</time></trkpt><trkpt lat="42.5925972088745" lon="12.292757041748496"><ele>232.0</ele><time>2026-04-19T08:50:38.029Z</time></trkpt><trkpt lat="42.59255534130787" lon="12.292942600403988"><ele>233.25</ele><time>2026-04-19T08:50:39.029Z</time></trkpt><trkpt lat="42.592512799661755" lon="12.293127093496475"><ele>234.5</ele><time>2026-04-19T08:50:40.028Z</time></trkpt><trkpt lat="42.59246884217585" lon="12.293314623535881"><ele>235.75</ele><time>2026-04-19T08:50:41.027Z</time></trkpt><trkpt lat="42.592423829875386" lon="12.293499715137104"><ele>237.0</ele><time>2026-04-19T08:50:42.027Z</time></trkpt><trkpt lat="42.59237347700915" lon="12.293681969295806"><ele>237.0</ele><time>2026-04-19T08:50:43.026Z</time></trkpt><trkpt lat="42.592321007909824" lon="12.293864387080088"><ele>237.0</ele><time>2026-04-19T08:50:44.026Z</time></trkpt><trkpt lat="42.59227133599318" lon="12.294036869898145"><ele>237.0</ele><time>2026-04-19T08:50:45.025Z</time></trkpt><trkpt lat="42.59222581054557" lon="12.29419294867276"><ele>237.0</ele><time>2026-04-19T08:50:46.025Z</time></trkpt><trkpt lat="42.59218272845002" lon="12.294339987157523"><ele>236.5</ele><time>2026-04-19T08:50:47.024Z</time></trkpt><trkpt lat="42.59213675032301" lon="12.294495805203228"><ele>236.0</ele><time>2026-04-19T08:50:48.024Z</time></trkpt><trkpt lat="42.592092323404216" lon="12.294659495215193"><ele>235.5</ele><time>2026-04-19T08:50:49.024Z</time></trkpt><trkpt lat="42.592038370125486" lon="12.294827120743713"><ele>235.0</ele><time>2026-04-19T08:50:50.023Z</time></trkpt><trkpt lat="42.59196478372572" lon="12.29498302821105"><ele>235.0</ele><time>2026-04-19T08:50:51.023Z</time></trkpt><trkpt lat="42.59184937924156" lon="12.295089268518739"><ele>235.0</ele><time>2026-04-19T08:50:52.023Z</time></trkpt><trkpt lat="42.59174142136476" lon="12.295197735786006"><ele>235.0</ele><time>2026-04-19T08:50:53.022Z</time></trkpt><trkpt lat="42.59162716125482" lon="12.295298769670572"><ele>235.0</ele><time>2026-04-19T08:50:54.022Z</time></trkpt><trkpt lat="42.5915112459818" lon="12.29540601547347"><ele>235.0</ele><time>2026-04-19T08:50:55.022Z</time></trkpt><trkpt lat="42.591397558276725" lon="12.295507021903843"><ele>235.0</ele><time>2026-04-19T08:50:56.022Z</time></trkpt><trkpt lat="42.59127692087478" lon="12.295598858435529"><ele>235.0</ele><time>2026-04-19T08:50:57.021Z</time></trkpt><trkpt lat="42.59115009177083" lon="12.295676736204683"><ele>235.0</ele><time>2026-04-19T08:50:58.021Z</time></trkpt><trkpt lat="42.59102051930389" lon="12.295743141810668"><ele>235.75</ele><time>2026-04-19T08:50:59.021Z</time></trkpt><trkpt lat="42.59088881608331" lon="12.295811499414546"><ele>236.5</ele><time>2026-04-19T08:51:00.021Z</time></trkpt><trkpt lat="42.59075654562806" lon="12.295877600854348"><ele>237.25</ele><time>2026-04-19T08:51:01.021Z</time></trkpt><trkpt lat="42.59062534738965" lon="12.295942354169675"><ele>238.0</ele><time>2026-04-19T08:51:02.02Z</time></trkpt><trkpt lat="42.59049668300357" lon="12.296003068434214"><ele>238.0</ele><time>2026-04-19T08:51:03.02Z</time></trkpt><trkpt lat="42.59037155645159" lon="12.296062230654579"><ele>238.0</ele><time>2026-04-19T08:51:04.02Z</time></trkpt><trkpt lat="42.59024830157181" lon="12.296107468947655"><ele>238.0</ele><time>2026-04-19T08:51:05.02Z</time></trkpt><trkpt lat="42.59012794841304" lon="12.296140240756236"><ele>238.0</ele><time>2026-04-19T08:51:06.02Z</time></trkpt><trkpt lat="42.59000960556548" lon="12.296181902131785"><ele>236.75</ele><time>2026-04-19T08:51:07.02Z</time></trkpt><trkpt lat="42.58989113299492" lon="12.296227778552018"><ele>235.5</ele><time>2026-04-19T08:51:08.02Z</time></trkpt><trkpt lat="42.5897757105946" lon="12.296280288710417"><ele>234.25</ele><time>2026-04-19T08:51:09.02Z</time></trkpt><trkpt lat="42.58966658979385" lon="12.296328914226672"><ele>233.0</ele><time>2026-04-19T08:51:10.019Z</time></trkpt><trkpt lat="42.58956258736407" lon="12.296372110588955"><ele>233.4</ele><time>2026-04-19T08:51:11.019Z</time></trkpt><trkpt lat="42.58946362207825" lon="12.29640488545968"><ele>233.8</ele><time>2026-04-19T08:51:12.019Z</time></trkpt><trkpt lat="42.58936307763473" lon="12.296435668067916"><ele>234.2</ele><time>2026-04-19T08:51:13.019Z</time></trkpt><trkpt lat="42.589266414790536" lon="12.296469337899547"><ele>234.6</ele><time>2026-04-19T08:51:14.019Z</time></trkpt><trkpt lat="42.58917567963225" lon="12.296508135337627"><ele>235.0</ele><time>2026-04-19T08:51:15.019Z</time></trkpt><trkpt lat="42.5890937729667" lon="12.296538634110167"><ele>237.16666666666666</ele><time>2026-04-19T08:51:16.019Z</time></trkpt><trkpt lat="42.58901034809493" lon="12.296561347026698"><ele>239.33333333333331</ele><time>2026-04-19T08:51:17.019Z</time></trkpt><trkpt lat="42.58892825279509" lon="12.29656843159357"><ele>241.5</ele><time>2026-04-19T08:51:18.019Z</time></trkpt><trkpt lat="42.58884728925385" lon="12.296552754801889"><ele>243.66666666666669</ele><time>2026-04-19T08:51:19.019Z</time></trkpt><trkpt lat="42.58877614096714" lon="12.296525304232796"><ele>245.83333333333334</ele><time>2026-04-19T08:51:20.019Z</time></trkpt><trkpt lat="42.58870966976601" lon="12.296492989321722"><ele>248.0</ele><time>2026-04-19T08:51:21.019Z</time></trkpt><trkpt lat="42.58859517171085" lon="12.296415448359243"><ele>248.0</ele><time>2026-04-19T08:51:23.019Z</time></trkpt><trkpt lat="42.58849972330701" lon="12.296300209959194"><ele>248.0</ele><time>2026-04-19T08:51:25.018Z</time></trkpt><trkpt lat="42.58843627868131" lon="12.29617821348295"><ele>248.0</ele><time>2026-04-19T08:51:27.018Z</time></trkpt><trkpt lat="42.58835890553864" lon="12.296048506859256"><ele>248.0</ele><time>2026-04-19T08:51:29.018Z</time></trkpt><trkpt lat="42.58830219115739" lon="12.295915804017904"><ele>248.0</ele><time>2026-04-19T08:51:31.018Z</time></trkpt><trkpt lat="42.58825525292627" lon="12.295814293648169"><ele>248.0</ele><time>2026-04-19T08:51:33.018Z</time></trkpt><trkpt lat="42.588153713429776" lon="12.295854547035528"><ele>248.0</ele><time>2026-04-19T08:51:35.018Z</time></trkpt><trkpt lat="42.58809966321899" lon="12.29596094192149"><ele>248.0</ele><time>2026-04-19T08:51:37.018Z</time></trkpt><trkpt lat="42.58810158867938" lon="12.296074541225035"><ele>248.0</ele><time>2026-04-19T08:51:39.018Z</time></trkpt><trkpt lat="42.58815889653684" lon="12.29615653563994"><ele>248.0</ele><time>2026-04-19T08:51:41.018Z</time></trkpt><trkpt lat="42.5882289381567" lon="12.296233416058131"><ele>248.0</ele><time>2026-04-19T08:51:43.018Z</time></trkpt><trkpt lat="42.58832087089514" lon="12.296355673031853"><ele>248.0</ele><time>2026-04-19T08:51:45.018Z</time></trkpt><trkpt lat="42.588385993368206" lon="12.296413223356119"><ele>248.0</ele><time>2026-04-19T08:51:46.018Z</time></trkpt><trkpt lat="42.588444871612374" lon="12.296494685366708"><ele>248.0</ele><time>2026-04-19T08:51:47.018Z</time></trkpt><trkpt lat="42.58850531459967" lon="12.296579947431058"><ele>248.83333333333334</ele><time>2026-04-19T08:51:48.018Z</time></trkpt><trkpt lat="42.58855808363403" lon="12.29667483829351"><ele>249.66666666666669</ele><time>2026-04-19T08:51:49.018Z</time></trkpt><trkpt lat="42.58861081312759" lon="12.296765645277386"><ele>250.5</ele><time>2026-04-19T08:51:50.018Z</time></trkpt><trkpt lat="42.58864998311958" lon="12.296865426459501"><ele>251.33333333333331</ele><time>2026-04-19T08:51:51.018Z</time></trkpt><trkpt lat="42.588716684703265" lon="12.296931627391976"><ele>252.16666666666666</ele><time>2026-04-19T08:51:52.018Z</time></trkpt><trkpt lat="42.588815495921935" lon="12.296935642692533"><ele>253.0</ele><time>2026-04-19T08:51:53.018Z</time></trkpt><trkpt lat="42.58890662805018" lon="12.296937176809221"><ele>253.4</ele><time>2026-04-19T08:51:54.018Z</time></trkpt><trkpt lat="42.58901330636538" lon="12.2969386323821"><ele>253.8</ele><time>2026-04-19T08:51:55.018Z</time></trkpt><trkpt lat="42.58912295882347" lon="12.296942921214757"><ele>254.2</ele><time>2026-04-19T08:51:56.018Z</time></trkpt><trkpt lat="42.589234780142256" lon="12.296949022507038"><ele>254.6</ele><time>2026-04-19T08:51:57.018Z</time></trkpt><trkpt lat="42.589352245587534" lon="12.296958387797085"><ele>255.0</ele><time>2026-04-19T08:51:58.018Z</time></trkpt><trkpt lat="42.589442164592434" lon="12.296989263456208"><ele>255.2</ele><time>2026-04-19T08:51:59.018Z</time></trkpt><trkpt lat="42.58953786165827" lon="12.297000559689213"><ele>255.4</ele><time>2026-04-19T08:52:00.018Z</time></trkpt><trkpt lat="42.58963922700227" lon="12.297016537229885"><ele>255.60000000000002</ele><time>2026-04-19T08:52:01.018Z</time></trkpt><trkpt lat="42.58972952879211" lon="12.297031312061069"><ele>255.8</ele><time>2026-04-19T08:52:02.018Z</time></trkpt><trkpt lat="42.589793224829336" lon="12.297044292497212"><ele>256.0</ele><time>2026-04-19T08:52:03.018Z</time></trkpt><trkpt lat="42.589895630649686" lon="12.297070688131022"><ele>256.0</ele><time>2026-04-19T08:52:05.018Z</time></trkpt><trkpt lat="42.59001300557878" lon="12.297090892048798"><ele>256.0</ele><time>2026-04-19T08:52:07.018Z</time></trkpt><trkpt lat="42.59008384808896" lon="12.297096610297999"><ele>256.0</ele><time>2026-04-19T08:52:08.018Z</time></trkpt><trkpt lat="42.59016369479187" lon="12.297114333185005"><ele>256.0</ele><time>2026-04-19T08:52:09.018Z</time></trkpt><trkpt lat="42.59025421555906" lon="12.29713048358507"><ele>256.0</ele><time>2026-04-19T08:52:10.018Z</time></trkpt><trkpt lat="42.59035171201192" lon="12.297150353314867"><ele>255.75</ele><time>2026-04-19T08:52:11.018Z</time></trkpt><trkpt lat="42.590458576808786" lon="12.297198478134819"><ele>255.5</ele><time>2026-04-19T08:52:12.018Z</time></trkpt><trkpt lat="42.59056916231624" lon="12.297274240898028"><ele>255.25</ele><time>2026-04-19T08:52:13.017Z</time></trkpt><trkpt lat="42.59067961696998" lon="12.297387675672777"><ele>255.0</ele><time>2026-04-19T08:52:14.017Z</time></trkpt><trkpt lat="42.590784805502516" lon="12.297510034086068"><ele>259.0</ele><time>2026-04-19T08:52:15.017Z</time></trkpt><trkpt lat="42.590882243675864" lon="12.297641347487822"><ele>263.0</ele><time>2026-04-19T08:52:16.02Z</time></trkpt><trkpt lat="42.59096526203924" lon="12.29775782218266"><ele>267.0</ele><time>2026-04-19T08:52:17.02Z</time></trkpt><trkpt lat="42.59102262140308" lon="12.29788018635182"><ele>271.0</ele><time>2026-04-19T08:52:18.019Z</time></trkpt><trkpt lat="42.591050883167284" lon="12.298001007614138"><ele>271.0</ele><time>2026-04-19T08:52:19.02Z</time></trkpt><trkpt lat="42.59103780673937" lon="12.298106872324478"><ele>271.0</ele><time>2026-04-19T08:52:20.019Z</time></trkpt><trkpt lat="42.590991599586424" lon="12.298185035791372"><ele>271.0</ele><time>2026-04-19T08:52:21.019Z</time></trkpt><trkpt lat="42.590913334198994" lon="12.298220630352592"><ele>271.0</ele><time>2026-04-19T08:52:22.02Z</time></trkpt><trkpt lat="42.5908317561036" lon="12.298211374934237"><ele>271.0</ele><time>2026-04-19T08:52:23.019Z</time></trkpt><trkpt lat="42.59075718082753" lon="12.298142757591116"><ele>271.0</ele><time>2026-04-19T08:52:24.019Z</time></trkpt><trkpt lat="42.590690970519404" lon="12.298046174592672"><ele>271.0</ele><time>2026-04-19T08:52:25.02Z</time></trkpt><trkpt lat="42.59061548891601" lon="12.297952109795839"><ele>271.0</ele><time>2026-04-19T08:52:26.019Z</time></trkpt><trkpt lat="42.590527809524126" lon="12.297881395983868"><ele>271.0</ele><time>2026-04-19T08:52:27.019Z</time></trkpt><trkpt lat="42.59042762723638" lon="12.29783983284957"><ele>271.0</ele><time>2026-04-19T08:52:28.02Z</time></trkpt><trkpt lat="42.59032005320889" lon="12.29784283359207"><ele>271.0</ele><time>2026-04-19T08:52:29.02Z</time></trkpt><trkpt lat="42.590202893584426" lon="12.297888452971899"><ele>272.0</ele><time>2026-04-19T08:52:30.02Z</time></trkpt><trkpt lat="42.590081427171924" lon="12.297946137472854"><ele>273.0</ele><time>2026-04-19T08:52:31.02Z</time></trkpt><trkpt lat="42.58996504836303" lon="12.297999980712394"><ele>274.0</ele><time>2026-04-19T08:52:32.02Z</time></trkpt><trkpt lat="42.58985118658893" lon="12.298056227245986"><ele>275.0</ele><time>2026-04-19T08:52:33.02Z</time></trkpt><trkpt lat="42.58974892086115" lon="12.298124899384556"><ele>276.25</ele><time>2026-04-19T08:52:34.02Z</time></trkpt><trkpt lat="42.589651192035504" lon="12.298205377567115"><ele>277.5</ele><time>2026-04-19T08:52:35.02Z</time></trkpt><trkpt lat="42.58955938325738" lon="12.298316456966308"><ele>278.75</ele><time>2026-04-19T08:52:36.02Z</time></trkpt><trkpt lat="42.58947540535125" lon="12.29845385305147"><ele>280.0</ele><time>2026-04-19T08:52:37.019Z</time></trkpt><trkpt lat="42.589383486137166" lon="12.298599650696083"><ele>280.0</ele><time>2026-04-19T08:52:38.019Z</time></trkpt><trkpt lat="42.58928823625208" lon="12.298748372498855"><ele>280.0</ele><time>2026-04-19T08:52:39.019Z</time></trkpt><trkpt lat="42.5892007363088" lon="12.29888886920721"><ele>280.0</ele><time>2026-04-19T08:52:40.019Z</time></trkpt><trkpt lat="42.589120532504936" lon="12.299028089888715"><ele>280.0</ele><time>2026-04-19T08:52:41.019Z</time></trkpt><trkpt lat="42.589046455478986" lon="12.299167565055223"><ele>283.5</ele><time>2026-04-19T08:52:42.019Z</time></trkpt><trkpt lat="42.58897624010423" lon="12.299309310740954"><ele>287.0</ele><time>2026-04-19T08:52:43.019Z</time></trkpt><trkpt lat="42.588918379958606" lon="12.299472864020968"><ele>290.5</ele><time>2026-04-19T08:52:44.019Z</time></trkpt><trkpt lat="42.58886709908942" lon="12.299648548675634"><ele>294.0</ele><time>2026-04-19T08:52:45.019Z</time></trkpt><trkpt lat="42.5888279000121" lon="12.299831957217114"><ele>296.5</ele><time>2026-04-19T08:52:46.019Z</time></trkpt><trkpt lat="42.58879070935091" lon="12.300024350388341"><ele>299.0</ele><time>2026-04-19T08:52:47.019Z</time></trkpt><trkpt lat="42.58875770244614" lon="12.300220747524914"><ele>301.5</ele><time>2026-04-19T08:52:48.019Z</time></trkpt><trkpt lat="42.58872546722574" lon="12.300422406001028"><ele>304.0</ele><time>2026-04-19T08:52:49.019Z</time></trkpt><trkpt lat="42.58868787314888" lon="12.300625687378677"><ele>301.0</ele><time>2026-04-19T08:52:50.019Z</time></trkpt><trkpt lat="42.588650291631645" lon="12.30083835999987"><ele>298.0</ele><time>2026-04-19T08:52:51.019Z</time></trkpt><trkpt lat="42.588611961233326" lon="12.301050386627407"><ele>295.0</ele><time>2026-04-19T08:52:52.019Z</time></trkpt><trkpt lat="42.5885818306083" lon="12.30125181348628"><ele>296.0</ele><time>2026-04-19T08:52:53.019Z</time></trkpt><trkpt lat="42.588563667154354" lon="12.301444911274794"><ele>297.0</ele><time>2026-04-19T08:52:54.019Z</time></trkpt><trkpt lat="42.58856176932366" lon="12.301640268039082"><ele>298.0</ele><time>2026-04-19T08:52:55.019Z</time></trkpt><trkpt lat="42.58859108396852" lon="12.30182005515354"><ele>299.0</ele><time>2026-04-19T08:52:56.019Z</time></trkpt><trkpt lat="42.5886508949052" lon="12.30198885371734"><ele>303.0</ele><time>2026-04-19T08:52:57.019Z</time></trkpt><trkpt lat="42.58872848080274" lon="12.302151061107049"><ele>307.0</ele><time>2026-04-19T08:52:58.019Z</time></trkpt><trkpt lat="42.5888140768426" lon="12.302309002619097"><ele>311.0</ele><time>2026-04-19T08:52:59.019Z</time></trkpt><trkpt lat="42.588901039330736" lon="12.302461911941098"><ele>315.0</ele><time>2026-04-19T08:53:00.019Z</time></trkpt><trkpt lat="42.58898642821233" lon="12.302618510916211"><ele>315.0</ele><time>2026-04-19T08:53:01.019Z</time></trkpt><trkpt lat="42.58908541397218" lon="12.30277149530502"><ele>315.0</ele><time>2026-04-19T08:53:02.019Z</time></trkpt><trkpt lat="42.58918910569007" lon="12.302927634126704"><ele>315.0</ele><time>2026-04-19T08:53:03.019Z</time></trkpt><trkpt lat="42.58930360238767" lon="12.30307716723443"><ele>314.3333333333333</ele><time>2026-04-19T08:53:04.019Z</time></trkpt><trkpt lat="42.58942777196273" lon="12.303208969730631"><ele>313.66666666666663</ele><time>2026-04-19T08:53:05.019Z</time></trkpt><trkpt lat="42.58955490960616" lon="12.303337014077561"><ele>313.0</ele><time>2026-04-19T08:53:06.019Z</time></trkpt><trkpt lat="42.58966949826443" lon="12.303446269124438"><ele>317.5</ele><time>2026-04-19T08:53:07.019Z</time></trkpt><trkpt lat="42.58978229604911" lon="12.303556847525925"><ele>322.0</ele><time>2026-04-19T08:53:08.019Z</time></trkpt><trkpt lat="42.589877104550126" lon="12.303655882867188"><ele>326.5</ele><time>2026-04-19T08:53:09.019Z</time></trkpt><trkpt lat="42.58995395625839" lon="12.30376751551323"><ele>331.0</ele><time>2026-04-19T08:53:10.019Z</time></trkpt><trkpt lat="42.59001239974082" lon="12.303895273923912"><ele>331.0</ele><time>2026-04-19T08:53:11.019Z</time></trkpt><trkpt lat="42.59006060513012" lon="12.3040373222728"><ele>331.0</ele><time>2026-04-19T08:53:12.019Z</time></trkpt><trkpt lat="42.59009751414575" lon="12.304194866653663"><ele>331.0</ele><time>2026-04-19T08:53:13.019Z</time></trkpt><trkpt lat="42.59012400716579" lon="12.304363537988825"><ele>331.0</ele><time>2026-04-19T08:53:14.019Z</time></trkpt><trkpt lat="42.59014447355091" lon="12.304534950372439"><ele>331.0</ele><time>2026-04-19T08:53:15.019Z</time></trkpt><trkpt lat="42.59015138342391" lon="12.304735673511603"><ele>331.0</ele><time>2026-04-19T08:53:16.019Z</time></trkpt><trkpt lat="42.59018457235324" lon="12.304938826979031"><ele>331.0</ele><time>2026-04-19T08:53:17.019Z</time></trkpt><trkpt lat="42.59022485979959" lon="12.305152195890784"><ele>330.3333333333333</ele><time>2026-04-19T08:53:18.019Z</time></trkpt><trkpt lat="42.590271747444106" lon="12.305379169977119"><ele>329.6666666666667</ele><time>2026-04-19T08:53:19.019Z</time></trkpt><trkpt lat="42.590329810362036" lon="12.305610158456632"><ele>329.0</ele><time>2026-04-19T08:53:20.019Z</time></trkpt><trkpt lat="42.59039196452673" lon="12.305828556812932"><ele>337.6666666666667</ele><time>2026-04-19T08:53:21.019Z</time></trkpt><trkpt lat="42.5904420211535" lon="12.306053691673583"><ele>346.3333333333333</ele><time>2026-04-19T08:53:22.019Z</time></trkpt><trkpt lat="42.590480273033656" lon="12.306282431950102"><ele>355.0</ele><time>2026-04-19T08:53:23.019Z</time></trkpt><trkpt lat="42.59049629932053" lon="12.306525751135784"><ele>355.0</ele><time>2026-04-19T08:53:24.019Z</time></trkpt><trkpt lat="42.59050036758386" lon="12.306774000524687"><ele>355.0</ele><time>2026-04-19T08:53:25.019Z</time></trkpt><trkpt lat="42.59050105357448" lon="12.30702656953768"><ele>355.0</ele><time>2026-04-19T08:53:26.019Z</time></trkpt><trkpt lat="42.590502905530556" lon="12.307276937682344"><ele>356.3333333333333</ele><time>2026-04-19T08:53:27.019Z</time></trkpt><trkpt lat="42.590504548378135" lon="12.30752612871511"><ele>357.6666666666667</ele><time>2026-04-19T08:53:28.019Z</time></trkpt><trkpt lat="42.59050502139715" lon="12.307755342998215"><ele>359.0</ele><time>2026-04-19T08:53:29.019Z</time></trkpt><trkpt lat="42.59050930515703" lon="12.307929675187895"><ele>359.0</ele><time>2026-04-19T08:53:30.019Z</time></trkpt><trkpt lat="42.59050472924645" lon="12.308035536266264"><ele>359.0</ele><time>2026-04-19T08:53:31.019Z</time></trkpt><trkpt lat="42.59050243244926" lon="12.3081259789695"><ele>359.0</ele><time>2026-04-19T08:53:33.019Z</time></trkpt><trkpt lat="42.59051331883842" lon="12.308226743676785"><ele>359.0</ele><time>2026-04-19T08:53:36.019Z</time></trkpt><trkpt lat="42.5905324688875" lon="12.3083303431753"><ele>359.0</ele><time>2026-04-19T08:53:38.019Z</time></trkpt><trkpt lat="42.5905080233172" lon="12.308217876159016"><ele>359.0</ele><time>2026-04-19T08:54:00.019Z</time></trkpt><trkpt lat="42.59050405241884" lon="12.308098245268011"><ele>359.25</ele><time>2026-04-19T08:54:02.019Z</time></trkpt><trkpt lat="42.59033478723523" lon="12.3082020726007"><ele>359.5</ele><time>2026-04-19T08:54:12.019Z</time></trkpt><trkpt lat="42.5903350112924" lon="12.308313265611357"><ele>359.75</ele><time>2026-04-19T08:54:14.019Z</time></trkpt><trkpt lat="42.590366921552274" lon="12.308453095834075"><ele>360.0</ele><time>2026-04-19T08:54:16.019Z</time></trkpt><trkpt lat="42.590400000200596" lon="12.308597211504145"><ele>360.0</ele><time>2026-04-19T08:54:18.019Z</time></trkpt><trkpt lat="42.59039225173992" lon="12.308691556045293"><ele>360.0</ele><time>2026-04-19T08:54:19.019Z</time></trkpt><trkpt lat="42.59041542619512" lon="12.308780665048163"><ele>360.0</ele><time>2026-04-19T08:54:20.019Z</time></trkpt><trkpt lat="42.59043220136019" lon="12.308942909458056"><ele>360.0</ele><time>2026-04-19T08:54:22.021Z</time></trkpt><trkpt lat="42.59041461303363" lon="12.309079317814135"><ele>360.0</ele><time>2026-04-19T08:54:24.021Z</time></trkpt><trkpt lat="42.5903274647928" lon="12.309134862295336"><ele>358.0</ele><time>2026-04-19T08:54:26.02Z</time></trkpt><trkpt lat="42.59025770037091" lon="12.30912766615894"><ele>356.0</ele><time>2026-04-19T08:54:27.02Z</time></trkpt><trkpt lat="42.59018006714948" lon="12.30910652412847"><ele>354.0</ele><time>2026-04-19T08:54:28.021Z</time></trkpt><trkpt lat="42.59010669545834" lon="12.30907889803444"><ele>352.0</ele><time>2026-04-19T08:54:29.02Z</time></trkpt><trkpt lat="42.59002712735065" lon="12.30903452859947"><ele>350.0</ele><time>2026-04-19T08:54:30.02Z</time></trkpt><trkpt lat="42.589943999644206" lon="12.308991571198222"><ele>348.0</ele><time>2026-04-19T08:54:31.021Z</time></trkpt><trkpt lat="42.58985602094381" lon="12.308960171776713"><ele>348.0</ele><time>2026-04-19T08:54:32.021Z</time></trkpt><trkpt lat="42.589767240435506" lon="12.308934624967813"><ele>348.0</ele><time>2026-04-19T08:54:33.021Z</time></trkpt><trkpt lat="42.58967200240089" lon="12.308925550082353"><ele>348.0</ele><time>2026-04-19T08:54:34.02Z</time></trkpt><trkpt lat="42.589564316745616" lon="12.30893128802798"><ele>348.0</ele><time>2026-04-19T08:54:35.02Z</time></trkpt><trkpt lat="42.5894594149458" lon="12.308942599087686"><ele>348.0</ele><time>2026-04-19T08:54:36.02Z</time></trkpt><trkpt lat="42.589351086350995" lon="12.308966985057793"><ele>347.2</ele><time>2026-04-19T08:54:37.02Z</time></trkpt><trkpt lat="42.58924670082641" lon="12.308992850267419"><ele>346.4</ele><time>2026-04-19T08:54:38.02Z</time></trkpt><trkpt lat="42.58913757745157" lon="12.309013931777564"><ele>345.59999999999997</ele><time>2026-04-19T08:54:39.02Z</time></trkpt><trkpt lat="42.58902848071087" lon="12.309040376629396"><ele>344.79999999999995</ele><time>2026-04-19T08:54:40.02Z</time></trkpt><trkpt lat="42.58892041947645" lon="12.309066352731255"><ele>344.0</ele><time>2026-04-19T08:54:41.02Z</time></trkpt><trkpt lat="42.58880972941746" lon="12.309091236822319"><ele>344.0</ele><time>2026-04-19T08:54:42.02Z</time></trkpt><trkpt lat="42.5887094015733" lon="12.30909226901202"><ele>344.0</ele><time>2026-04-19T08:54:43.02Z</time></trkpt><trkpt lat="42.588606535940436" lon="12.309127581534879"><ele>344.0</ele><time>2026-04-19T08:54:44.02Z</time></trkpt><trkpt lat="42.588511517663235" lon="12.30917439633048"><ele>344.0</ele><time>2026-04-19T08:54:45.02Z</time></trkpt><trkpt lat="42.58841744914991" lon="12.309240608802968"><ele>344.0</ele><time>2026-04-19T08:54:46.02Z</time></trkpt><trkpt lat="42.58832753334379" lon="12.309323143805583"><ele>343.2</ele><time>2026-04-19T08:54:47.02Z</time></trkpt><trkpt lat="42.588238928014654" lon="12.30940845436754"><ele>342.4</ele><time>2026-04-19T08:54:48.02Z</time></trkpt><trkpt lat="42.588150907845055" lon="12.309499406371955"><ele>341.6</ele><time>2026-04-19T08:54:49.02Z</time></trkpt><trkpt lat="42.58806440283239" lon="12.309587949743221"><ele>340.8</ele><time>2026-04-19T08:54:50.02Z</time></trkpt><trkpt lat="42.58798203784203" lon="12.309676864657272"><ele>340.0</ele><time>2026-04-19T08:54:51.02Z</time></trkpt><trkpt lat="42.58791296596901" lon="12.309750256089792"><ele>340.6</ele><time>2026-04-19T08:54:52.02Z</time></trkpt><trkpt lat="42.587863580295206" lon="12.309807739953508"><ele>341.2</ele><time>2026-04-19T08:54:53.02Z</time></trkpt><trkpt lat="42.58779343645017" lon="12.309910419605119"><ele>341.79999999999995</ele><time>2026-04-19T08:54:55.02Z</time></trkpt><trkpt lat="42.587732636614334" lon="12.30998279597793"><ele>342.4</ele><time>2026-04-19T08:54:59.02Z</time></trkpt><trkpt lat="42.58781412885049" lon="12.310117158201157"><ele>343.0</ele><time>2026-04-19T08:55:01.02Z</time></trkpt><trkpt lat="42.58787690084772" lon="12.310187031159067"><ele>343.8333333333333</ele><time>2026-04-19T08:55:03.02Z</time></trkpt><trkpt lat="42.587941893507725" lon="12.310256507426631"><ele>344.66666666666663</ele><time>2026-04-19T08:55:05.02Z</time></trkpt><trkpt lat="42.58800543580941" lon="12.310341813720662"><ele>345.5</ele><time>2026-04-19T08:55:24.02Z</time></trkpt><trkpt lat="42.588070946625855" lon="12.31037037195782"><ele>346.3333333333333</ele><time>2026-04-19T08:55:25.02Z</time></trkpt><trkpt lat="42.58811774545868" lon="12.310450505882576"><ele>347.1666666666667</ele><time>2026-04-19T08:55:26.02Z</time></trkpt><trkpt lat="42.58819898605188" lon="12.310512460966214"><ele>348.0</ele><time>2026-04-19T08:55:27.02Z</time></trkpt><trkpt lat="42.58827610715026" lon="12.31060805518027"><ele>349.2</ele><time>2026-04-19T08:55:28.02Z</time></trkpt><trkpt lat="42.588358928006535" lon="12.31069827828852"><ele>350.4</ele><time>2026-04-19T08:55:29.02Z</time></trkpt><trkpt lat="42.58844457781411" lon="12.310783951928466"><ele>351.59999999999997</ele><time>2026-04-19T08:55:30.02Z</time></trkpt><trkpt lat="42.58853536471929" lon="12.310863506799118"><ele>352.79999999999995</ele><time>2026-04-19T08:55:31.02Z</time></trkpt><trkpt lat="42.588634912337014" lon="12.31094593897816"><ele>354.0</ele><time>2026-04-19T08:55:32.02Z</time></trkpt><trkpt lat="42.58871571385326" lon="12.311033318403657"><ele>356.2</ele><time>2026-04-19T08:55:33.02Z</time></trkpt><trkpt lat="42.5887751569227" lon="12.311134013151827"><ele>358.4</ele><time>2026-04-19T08:55:34.02Z</time></trkpt><trkpt lat="42.588847015945866" lon="12.311225746663077"><ele>360.6</ele><time>2026-04-19T08:55:35.02Z</time></trkpt><trkpt lat="42.58893827921407" lon="12.311293487910898"><ele>362.8</ele><time>2026-04-19T08:55:36.02Z</time></trkpt><trkpt lat="42.58902128847292" lon="12.311386079498334"><ele>365.0</ele><time>2026-04-19T08:55:37.02Z</time></trkpt><trkpt lat="42.58910700088646" lon="12.311474847307919"><ele>367.0</ele><time>2026-04-19T08:55:38.02Z</time></trkpt><trkpt lat="42.58918958305158" lon="12.311538258958398"><ele>369.0</ele><time>2026-04-19T08:55:39.02Z</time></trkpt><trkpt lat="42.58926220906306" lon="12.311604245617708"><ele>371.0</ele><time>2026-04-19T08:55:41.02Z</time></trkpt><trkpt lat="42.589213914260014" lon="12.311730175185794"><ele>373.0</ele><time>2026-04-19T08:55:53.02Z</time></trkpt><trkpt lat="42.58916124052757" lon="12.311796195326435"><ele>375.0</ele><time>2026-04-19T08:55:54.02Z</time></trkpt><trkpt lat="42.58910128235385" lon="12.311891943214023"><ele>375.0</ele><time>2026-04-19T08:55:55.02Z</time></trkpt><trkpt lat="42.589025580553844" lon="12.31199283320248"><ele>375.0</ele><time>2026-04-19T08:55:56.02Z</time></trkpt><trkpt lat="42.588932344997936" lon="12.31212449723044"><ele>375.0</ele><time>2026-04-19T08:55:57.02Z</time></trkpt><trkpt lat="42.58882512548521" lon="12.312282989865832"><ele>375.0</ele><time>2026-04-19T08:55:58.02Z</time></trkpt><trkpt lat="42.58872834794543" lon="12.312460382340419"><ele>372.3333333333333</ele><time>2026-04-19T08:55:59.02Z</time></trkpt><trkpt lat="42.58864320547199" lon="12.312646861897836"><ele>369.66666666666663</ele><time>2026-04-19T08:56:00.02Z</time></trkpt><trkpt lat="42.588566770250075" lon="12.312848032435516"><ele>367.0</ele><time>2026-04-19T08:56:01.02Z</time></trkpt><trkpt lat="42.58849087794015" lon="12.313065270134707"><ele>369.0</ele><time>2026-04-19T08:56:02.02Z</time></trkpt><trkpt lat="42.588416635162986" lon="12.313283765351223"><ele>371.0</ele><time>2026-04-19T08:56:03.02Z</time></trkpt><trkpt lat="42.5883479013156" lon="12.313506787185396"><ele>373.0</ele><time>2026-04-19T08:56:04.02Z</time></trkpt><trkpt lat="42.5882752657571" lon="12.313730046519044"><ele>376.3333333333333</ele><time>2026-04-19T08:56:05.02Z</time></trkpt><trkpt lat="42.58817721141256" lon="12.313923664689737"><ele>379.6666666666667</ele><time>2026-04-19T08:56:06.02Z</time></trkpt><trkpt lat="42.58805714745388" lon="12.314116403276135"><ele>383.0</ele><time>2026-04-19T08:56:07.02Z</time></trkpt><trkpt lat="42.58792378615858" lon="12.314294927083315"><ele>382.6666666666667</ele><time>2026-04-19T08:56:08.02Z</time></trkpt><trkpt lat="42.587780861398265" lon="12.314459807944456"><ele>382.3333333333333</ele><time>2026-04-19T08:56:09.02Z</time></trkpt><trkpt lat="42.58762865293107" lon="12.314612529181002"><ele>382.0</ele><time>2026-04-19T08:56:10.02Z</time></trkpt><trkpt lat="42.5874781015423" lon="12.31476280867699"><ele>382.0</ele><time>2026-04-19T08:56:11.02Z</time></trkpt><trkpt lat="42.587330190321225" lon="12.314912371237702"><ele>382.0</ele><time>2026-04-19T08:56:12.02Z</time></trkpt><trkpt lat="42.58718067939233" lon="12.315063155681045"><ele>382.0</ele><time>2026-04-19T08:56:13.02Z</time></trkpt><trkpt lat="42.587030480095656" lon="12.315212214248769"><ele>382.66666666666663</ele><time>2026-04-19T08:56:14.02Z</time></trkpt><trkpt lat="42.586876173069804" lon="12.315357336356135"><ele>383.3333333333333</ele><time>2026-04-19T08:56:15.02Z</time></trkpt><trkpt lat="42.58672811971947" lon="12.315478454418768"><ele>384.0</ele><time>2026-04-19T08:56:16.02Z</time></trkpt><trkpt lat="42.58657449834327" lon="12.315584585718206"><ele>384.0</ele><time>2026-04-19T08:56:17.02Z</time></trkpt><trkpt lat="42.586404421342635" lon="12.315647802267796"><ele>384.0</ele><time>2026-04-19T08:56:18.02Z</time></trkpt><trkpt lat="42.586233989796305" lon="12.31572486692196"><ele>384.0</ele><time>2026-04-19T08:56:19.02Z</time></trkpt><trkpt lat="42.58606545168028" lon="12.315796918273028"><ele>379.3333333333333</ele><time>2026-04-19T08:56:20.02Z</time></trkpt><trkpt lat="42.585886278044995" lon="12.315871554596015"><ele>374.66666666666663</ele><time>2026-04-19T08:56:21.019Z</time></trkpt><trkpt lat="42.585704206014675" lon="12.315946687491149"><ele>370.0</ele><time>2026-04-19T08:56:22.019Z</time></trkpt><trkpt lat="42.58552604419653" lon="12.31602020679432"><ele>370.0</ele><time>2026-04-19T08:56:23.019Z</time></trkpt><trkpt lat="42.5853557132488" lon="12.316087740652119"><ele>370.0</ele><time>2026-04-19T08:56:24.019Z</time></trkpt><trkpt lat="42.58518985056832" lon="12.316150679189624"><ele>370.0</ele><time>2026-04-19T08:56:25.019Z</time></trkpt><trkpt lat="42.585029823120806" lon="12.316220823793477"><ele>371.3333333333333</ele><time>2026-04-19T08:56:26.019Z</time></trkpt><trkpt lat="42.58487975147362" lon="12.316319002997027"><ele>372.6666666666667</ele><time>2026-04-19T08:56:27.019Z</time></trkpt><trkpt lat="42.58475786780466" lon="12.316457802142763"><ele>374.0</ele><time>2026-04-19T08:56:28.022Z</time></trkpt><trkpt lat="42.58468193830795" lon="12.316640201792403"><ele>374.0</ele><time>2026-04-19T08:56:29.021Z</time></trkpt><trkpt lat="42.58462211095717" lon="12.3168189395839"><ele>374.0</ele><time>2026-04-19T08:56:30.021Z</time></trkpt><trkpt lat="42.584580868313566" lon="12.317014891018987"><ele>374.0</ele><time>2026-04-19T08:56:31.022Z</time></trkpt><trkpt lat="42.58452169528657" lon="12.317203353926871"><ele>374.0</ele><time>2026-04-19T08:56:32.022Z</time></trkpt><trkpt lat="42.58449871531442" lon="12.317410943903845"><ele>376.33333333333337</ele><time>2026-04-19T08:56:33.022Z</time></trkpt><trkpt lat="42.584515454063876" lon="12.31762301173229"><ele>378.6666666666667</ele><time>2026-04-19T08:56:34.022Z</time></trkpt><trkpt lat="42.584580240535765" lon="12.317811825336339"><ele>381.0</ele><time>2026-04-19T08:56:35.022Z</time></trkpt><trkpt lat="42.58465116737784" lon="12.317981937401255"><ele>378.25</ele><time>2026-04-19T08:56:36.022Z</time></trkpt><trkpt lat="42.58474645570251" lon="12.318138550755538"><ele>375.5</ele><time>2026-04-19T08:56:37.022Z</time></trkpt><trkpt lat="42.58485643520376" lon="12.318281338967468"><ele>372.75</ele><time>2026-04-19T08:56:38.022Z</time></trkpt><trkpt lat="42.584960313453344" lon="12.318424074826563"><ele>370.0</ele><time>2026-04-19T08:56:39.022Z</time></trkpt><trkpt lat="42.58505597240312" lon="12.31857933507447"><ele>370.0</ele><time>2026-04-19T08:56:40.022Z</time></trkpt><trkpt lat="42.58515744415937" lon="12.31873832884762"><ele>370.0</ele><time>2026-04-19T08:56:41.022Z</time></trkpt><trkpt lat="42.58526041374594" lon="12.3188910643869"><ele>370.0</ele><time>2026-04-19T08:56:42.022Z</time></trkpt><trkpt lat="42.5853673549263" lon="12.319055693977647"><ele>373.3333333333333</ele><time>2026-04-19T08:56:43.022Z</time></trkpt><trkpt lat="42.585480177112075" lon="12.31921946767956"><ele>376.6666666666667</ele><time>2026-04-19T08:56:44.022Z</time></trkpt><trkpt lat="42.58559142788495" lon="12.31938355543018"><ele>380.0</ele><time>2026-04-19T08:56:45.022Z</time></trkpt><trkpt lat="42.58569903070446" lon="12.319540354824126"><ele>380.0</ele><time>2026-04-19T08:56:46.022Z</time></trkpt><trkpt lat="42.58580607306583" lon="12.319689334241204"><ele>380.0</ele><time>2026-04-19T08:56:47.022Z</time></trkpt><trkpt lat="42.585916518538376" lon="12.319818258718668"><ele>380.0</ele><time>2026-04-19T08:56:48.022Z</time></trkpt><trkpt lat="42.58603732717945" lon="12.31990962317037"><ele>380.0</ele><time>2026-04-19T08:56:49.022Z</time></trkpt><trkpt lat="42.58616890795764" lon="12.319950242913126"><ele>376.25</ele><time>2026-04-19T08:56:50.022Z</time></trkpt><trkpt lat="42.586303927008785" lon="12.319952238684667"><ele>372.5</ele><time>2026-04-19T08:56:51.022Z</time></trkpt><trkpt lat="42.58644784268057" lon="12.319929843212037"><ele>368.75</ele><time>2026-04-19T08:56:52.022Z</time></trkpt><trkpt lat="42.58658824758767" lon="12.319892016916578"><ele>365.0</ele><time>2026-04-19T08:56:53.022Z</time></trkpt><trkpt lat="42.58673456646228" lon="12.319859400697254"><ele>365.0</ele><time>2026-04-19T08:56:54.022Z</time></trkpt><trkpt lat="42.58688492990106" lon="12.319825094991641"><ele>365.0</ele><time>2026-04-19T08:56:55.022Z</time></trkpt><trkpt lat="42.587030577216694" lon="12.319777894100485"><ele>365.0</ele><time>2026-04-19T08:56:56.022Z</time></trkpt><trkpt lat="42.58717092715644" lon="12.319724839573917"><ele>365.0</ele><time>2026-04-19T08:56:57.022Z</time></trkpt><trkpt lat="42.587314842765636" lon="12.319662646521179"><ele>372.0</ele><time>2026-04-19T08:56:58.022Z</time></trkpt><trkpt lat="42.58746257441018" lon="12.319597954258771"><ele>379.0</ele><time>2026-04-19T08:56:59.022Z</time></trkpt><trkpt lat="42.587606140473255" lon="12.319533667366068"><ele>386.0</ele><time>2026-04-19T08:57:00.022Z</time></trkpt><trkpt lat="42.587751726316355" lon="12.319459732785345"><ele>381.3333333333333</ele><time>2026-04-19T08:57:01.022Z</time></trkpt><trkpt lat="42.58789443611304" lon="12.319354581156228"><ele>376.66666666666663</ele><time>2026-04-19T08:57:02.022Z</time></trkpt><trkpt lat="42.588022626708685" lon="12.319248616378145"><ele>372.0</ele><time>2026-04-19T08:57:03.022Z</time></trkpt><trkpt lat="42.5881523406303" lon="12.319154156979419"><ele>372.0</ele><time>2026-04-19T08:57:04.022Z</time></trkpt><trkpt lat="42.588297314641274" lon="12.319078523159146"><ele>372.0</ele><time>2026-04-19T08:57:05.022Z</time></trkpt><trkpt lat="42.58844184979342" lon="12.319031041168197"><ele>372.0</ele><time>2026-04-19T08:57:06.022Z</time></trkpt><trkpt lat="42.58857918442558" lon="12.31899446441419"><ele>372.0</ele><time>2026-04-19T08:57:07.022Z</time></trkpt><trkpt lat="42.58871047341372" lon="12.31896848661911"><ele>371.25</ele><time>2026-04-19T08:57:08.022Z</time></trkpt><trkpt lat="42.58883632909351" lon="12.318960327929478"><ele>370.5</ele><time>2026-04-19T08:57:09.022Z</time></trkpt><trkpt lat="42.58895299250113" lon="12.318986046151524"><ele>369.75</ele><time>2026-04-19T08:57:10.022Z</time></trkpt><trkpt lat="42.58905564057248" lon="12.319040403242665"><ele>369.0</ele><time>2026-04-19T08:57:11.022Z</time></trkpt><trkpt lat="42.58913602009258" lon="12.319152223911237"><ele>369.0</ele><time>2026-04-19T08:57:12.022Z</time></trkpt><trkpt lat="42.58918721550149" lon="12.319284067319447"><ele>369.0</ele><time>2026-04-19T08:57:13.022Z</time></trkpt><trkpt lat="42.58919520378262" lon="12.319434516672747"><ele>369.0</ele><time>2026-04-19T08:57:14.022Z</time></trkpt><trkpt lat="42.58916571576611" lon="12.319589185564014"><ele>369.0</ele><time>2026-04-19T08:57:15.022Z</time></trkpt><trkpt lat="42.58913403664139" lon="12.319749247095096"><ele>368.75</ele><time>2026-04-19T08:57:16.022Z</time></trkpt><trkpt lat="42.58909679872065" lon="12.31991302353104"><ele>368.5</ele><time>2026-04-19T08:57:17.022Z</time></trkpt><trkpt lat="42.58901965480105" lon="12.32007794268749"><ele>368.25</ele><time>2026-04-19T08:57:18.022Z</time></trkpt><trkpt lat="42.588918746998644" lon="12.320247352744719"><ele>368.0</ele><time>2026-04-19T08:57:19.022Z</time></trkpt><trkpt lat="42.58880220087545" lon="12.320438864335548"><ele>367.0</ele><time>2026-04-19T08:57:20.022Z</time></trkpt><trkpt lat="42.58866220386911" lon="12.320655746504467"><ele>366.0</ele><time>2026-04-19T08:57:21.022Z</time></trkpt><trkpt lat="42.588505910879725" lon="12.320907439119237"><ele>366.0</ele><time>2026-04-19T08:57:22.022Z</time></trkpt><trkpt lat="42.588324824323784" lon="12.321156956982596"><ele>366.0</ele><time>2026-04-19T08:57:23.022Z</time></trkpt><trkpt lat="42.58814847952259" lon="12.321422392769199"><ele>364.5</ele><time>2026-04-19T08:57:24.022Z</time></trkpt><trkpt lat="42.587986478099" lon="12.321688639615383"><ele>363.0</ele><time>2026-04-19T08:57:25.022Z</time></trkpt><trkpt lat="42.587827953257545" lon="12.321917341700596"><ele>363.0</ele><time>2026-04-19T08:57:26.022Z</time></trkpt><trkpt lat="42.58768224365252" lon="12.322139614729467"><ele>363.0</ele><time>2026-04-19T08:57:27.022Z</time></trkpt><trkpt lat="42.58754604344644" lon="12.322347451497913"><ele>363.0</ele><time>2026-04-19T08:57:28.022Z</time></trkpt><trkpt lat="42.587410809006315" lon="12.322543844452133"><ele>364.0</ele><time>2026-04-19T08:57:29.022Z</time></trkpt><trkpt lat="42.587268384086144" lon="12.322731164264127"><ele>365.0</ele><time>2026-04-19T08:57:30.022Z</time></trkpt><trkpt lat="42.58711824704061" lon="12.32290529878044"><ele>366.0</ele><time>2026-04-19T08:57:31.022Z</time></trkpt><trkpt lat="42.58696219040644" lon="12.323062289283405"><ele>368.6666666666667</ele><time>2026-04-19T08:57:32.021Z</time></trkpt><trkpt lat="42.586804771597464" lon="12.323211732819189"><ele>371.33333333333337</ele><time>2026-04-19T08:57:33.021Z</time></trkpt><trkpt lat="42.58664858467484" lon="12.32335862288222"><ele>374.0</ele><time>2026-04-19T08:57:34.021Z</time></trkpt><trkpt lat="42.58648969489812" lon="12.323504177391541"><ele>374.0</ele><time>2026-04-19T08:57:35.021Z</time></trkpt><trkpt lat="42.58633864584975" lon="12.323663459589204"><ele>374.0</ele><time>2026-04-19T08:57:36.021Z</time></trkpt><trkpt lat="42.58618696136715" lon="12.323808415359709"><ele>374.0</ele><time>2026-04-19T08:57:37.021Z</time></trkpt><trkpt lat="42.586064268932724" lon="12.32400265178594"><ele>374.0</ele><time>2026-04-19T08:57:38.021Z</time></trkpt><trkpt lat="42.58596607564045" lon="12.32421829167007"><ele>374.0</ele><time>2026-04-19T08:57:39.021Z</time></trkpt><trkpt lat="42.585886568370924" lon="12.324442230294236"><ele>374.0</ele><time>2026-04-19T08:57:40.021Z</time></trkpt><trkpt lat="42.585818243556474" lon="12.324668947543723"><ele>375.6666666666667</ele><time>2026-04-19T08:57:41.021Z</time></trkpt><trkpt lat="42.58575922688708" lon="12.324894958828503"><ele>377.3333333333333</ele><time>2026-04-19T08:57:42.021Z</time></trkpt><trkpt lat="42.585702949859424" lon="12.325122688467536"><ele>379.0</ele><time>2026-04-19T08:57:43.021Z</time></trkpt><trkpt lat="42.58564581495318" lon="12.325349039732203"><ele>381.3333333333333</ele><time>2026-04-19T08:57:44.021Z</time></trkpt><trkpt lat="42.585581398243754" lon="12.32557036301061"><ele>383.66666666666663</ele><time>2026-04-19T08:57:45.021Z</time></trkpt><trkpt lat="42.585500820890765" lon="12.325785656439287"><ele>386.0</ele><time>2026-04-19T08:57:46.021Z</time></trkpt><trkpt lat="42.58541287773569" lon="12.32599586405124"><ele>384.0</ele><time>2026-04-19T08:57:47.021Z</time></trkpt><trkpt lat="42.58530675221677" lon="12.326196678523957"><ele>382.0</ele><time>2026-04-19T08:57:48.021Z</time></trkpt><trkpt lat="42.58519857480082" lon="12.326399371410213"><ele>380.0</ele><time>2026-04-19T08:57:49.021Z</time></trkpt><trkpt lat="42.58509106497505" lon="12.326601087001354"><ele>380.0</ele><time>2026-04-19T08:57:50.021Z</time></trkpt><trkpt lat="42.58498424788518" lon="12.326798518386555"><ele>380.0</ele><time>2026-04-19T08:57:51.021Z</time></trkpt><trkpt lat="42.58487305245632" lon="12.326989784516554"><ele>380.0</ele><time>2026-04-19T08:57:52.021Z</time></trkpt><trkpt lat="42.5847495503352" lon="12.327164251329755"><ele>379.0</ele><time>2026-04-19T08:57:53.021Z</time></trkpt><trkpt lat="42.58461757388633" lon="12.3273339457439"><ele>378.0</ele><time>2026-04-19T08:57:54.021Z</time></trkpt><trkpt lat="42.584471399243775" lon="12.327484874671255"><ele>377.0</ele><time>2026-04-19T08:57:55.021Z</time></trkpt><trkpt lat="42.58430952336724" lon="12.327616221271237"><ele>377.0</ele><time>2026-04-19T08:57:56.021Z</time></trkpt><trkpt lat="42.5841367510187" lon="12.32772646004307"><ele>377.0</ele><time>2026-04-19T08:57:57.021Z</time></trkpt><trkpt lat="42.583953427238015" lon="12.327821617288082"><ele>377.0</ele><time>2026-04-19T08:57:58.021Z</time></trkpt><trkpt lat="42.58376312835535" lon="12.327896445690778"><ele>376.0</ele><time>2026-04-19T08:57:59.021Z</time></trkpt><trkpt lat="42.58358277366209" lon="12.32795845968411"><ele>375.0</ele><time>2026-04-19T08:58:00.021Z</time></trkpt><trkpt lat="42.583402469913004" lon="12.32801274842239"><ele>374.0</ele><time>2026-04-19T08:58:01.021Z</time></trkpt><trkpt lat="42.58321683498029" lon="12.328044452344587"><ele>374.0</ele><time>2026-04-19T08:58:02.021Z</time></trkpt><trkpt lat="42.583029712982" lon="12.328055512451895"><ele>374.0</ele><time>2026-04-19T08:58:03.021Z</time></trkpt><trkpt lat="42.582842675054515" lon="12.328042166392528"><ele>374.0</ele><time>2026-04-19T08:58:04.021Z</time></trkpt><trkpt lat="42.58266709071262" lon="12.328010424122324"><ele>376.33333333333337</ele><time>2026-04-19T08:58:05.021Z</time></trkpt><trkpt lat="42.5825031982108" lon="12.327958642750989"><ele>378.6666666666667</ele><time>2026-04-19T08:58:06.021Z</time></trkpt><trkpt lat="42.58234162414044" lon="12.327939897997945"><ele>381.0</ele><time>2026-04-19T08:58:07.021Z</time></trkpt><trkpt lat="42.58219222520319" lon="12.327979844951743"><ele>381.0</ele><time>2026-04-19T08:58:08.021Z</time></trkpt><trkpt lat="42.58206396097158" lon="12.32804620002334"><ele>381.0</ele><time>2026-04-19T08:58:09.021Z</time></trkpt><trkpt lat="42.58194454718038" lon="12.32815998427328"><ele>381.0</ele><time>2026-04-19T08:58:10.021Z</time></trkpt><trkpt lat="42.581840199097904" lon="12.328301808873956"><ele>381.0</ele><time>2026-04-19T08:58:11.021Z</time></trkpt><trkpt lat="42.58175307128807" lon="12.32846965996591"><ele>381.3333333333333</ele><time>2026-04-19T08:58:12.021Z</time></trkpt><trkpt lat="42.58167008856117" lon="12.328657602469615"><ele>381.66666666666663</ele><time>2026-04-19T08:58:13.021Z</time></trkpt><trkpt lat="42.58159422748814" lon="12.32886163185977"><ele>382.0</ele><time>2026-04-19T08:58:14.021Z</time></trkpt><trkpt lat="42.5815231061175" lon="12.329077568151327"><ele>383.66666666666663</ele><time>2026-04-19T08:58:15.021Z</time></trkpt><trkpt lat="42.581446226052066" lon="12.329290970162083"><ele>385.3333333333333</ele><time>2026-04-19T08:58:16.021Z</time></trkpt><trkpt lat="42.581373383142534" lon="12.329505290218451"><ele>387.0</ele><time>2026-04-19T08:58:17.021Z</time></trkpt><trkpt lat="42.58130112578748" lon="12.329723543026088"><ele>390.0</ele><time>2026-04-19T08:58:18.021Z</time></trkpt><trkpt lat="42.581230928560906" lon="12.32993810942353"><ele>393.0</ele><time>2026-04-19T08:58:19.021Z</time></trkpt><trkpt lat="42.58116273128755" lon="12.330155242442771"><ele>396.0</ele><time>2026-04-19T08:58:20.021Z</time></trkpt><trkpt lat="42.581092901268114" lon="12.330364484065516"><ele>391.6666666666667</ele><time>2026-04-19T08:58:21.021Z</time></trkpt><trkpt lat="42.581015035419746" lon="12.330581052844174"><ele>387.33333333333337</ele><time>2026-04-19T08:58:22.021Z</time></trkpt><trkpt lat="42.580932366730146" lon="12.330789534051751"><ele>383.0</ele><time>2026-04-19T08:58:23.021Z</time></trkpt><trkpt lat="42.580835265860486" lon="12.330991927797584"><ele>383.0</ele><time>2026-04-19T08:58:24.021Z</time></trkpt><trkpt lat="42.58073150368797" lon="12.331182645771737"><ele>383.0</ele><time>2026-04-19T08:58:25.021Z</time></trkpt><trkpt lat="42.580621393739975" lon="12.331344944950128"><ele>383.0</ele><time>2026-04-19T08:58:26.021Z</time></trkpt><trkpt lat="42.58051657339649" lon="12.331481282783384"><ele>382.75</ele><time>2026-04-19T08:58:27.021Z</time></trkpt><trkpt lat="42.58042432214574" lon="12.331621888001926"><ele>382.5</ele><time>2026-04-19T08:58:28.021Z</time></trkpt><trkpt lat="42.580321887005425" lon="12.331752909226559"><ele>382.25</ele><time>2026-04-19T08:58:29.021Z</time></trkpt><trkpt lat="42.58022525112755" lon="12.33189229804258"><ele>382.0</ele><time>2026-04-19T08:58:30.021Z</time></trkpt><trkpt lat="42.580144203659486" lon="12.332036575397318"><ele>382.0</ele><time>2026-04-19T08:58:31.021Z</time></trkpt><trkpt lat="42.58004962152886" lon="12.332156208803172"><ele>382.0</ele><time>2026-04-19T08:58:32.021Z</time></trkpt><trkpt lat="42.5799533035059" lon="12.332278441886414"><ele>382.0</ele><time>2026-04-19T08:58:33.021Z</time></trkpt><trkpt lat="42.57986531631859" lon="12.332398072529202"><ele>382.0</ele><time>2026-04-19T08:58:34.023Z</time></trkpt><trkpt lat="42.57977855975201" lon="12.332513090177136"><ele>381.5</ele><time>2026-04-19T08:58:35.023Z</time></trkpt><trkpt lat="42.57969672423344" lon="12.33262214375469"><ele>381.0</ele><time>2026-04-19T08:58:36.023Z</time></trkpt><trkpt lat="42.57961434234856" lon="12.332726844738978"><ele>380.5</ele><time>2026-04-19T08:58:37.022Z</time></trkpt><trkpt lat="42.579522277046244" lon="12.332834172944665"><ele>380.0</ele><time>2026-04-19T08:58:38.023Z</time></trkpt><trkpt lat="42.57942193737301" lon="12.332936638783918"><ele>380.0</ele><time>2026-04-19T08:58:39.023Z</time></trkpt><trkpt lat="42.579308762582905" lon="12.333025168083797"><ele>380.0</ele><time>2026-04-19T08:58:40.023Z</time></trkpt><trkpt lat="42.57918306421292" lon="12.333082056253405"><ele>380.0</ele><time>2026-04-19T08:58:41.023Z</time></trkpt><trkpt lat="42.57905286153739" lon="12.333080254949154"><ele>380.0</ele><time>2026-04-19T08:58:42.023Z</time></trkpt><trkpt lat="42.57892474708121" lon="12.333105247145829"><ele>381.25</ele><time>2026-04-19T08:58:43.023Z</time></trkpt><trkpt lat="42.578792915722445" lon="12.333098915928247"><ele>382.5</ele><time>2026-04-19T08:58:44.024Z</time></trkpt><trkpt lat="42.578664915479834" lon="12.333098764222374"><ele>383.75</ele><time>2026-04-19T08:58:45.023Z</time></trkpt><trkpt lat="42.57853803851467" lon="12.333101232649113"><ele>385.0</ele><time>2026-04-19T08:58:46.023Z</time></trkpt><trkpt lat="42.5784124326076" lon="12.33310224760811"><ele>385.0</ele><time>2026-04-19T08:58:47.023Z</time></trkpt><trkpt lat="42.5782857050328" lon="12.333107717708925"><ele>385.0</ele><time>2026-04-19T08:58:48.023Z</time></trkpt><trkpt lat="42.57815956571657" lon="12.333110924459588"><ele>385.0</ele><time>2026-04-19T08:58:49.023Z</time></trkpt><trkpt lat="42.57803375017106" lon="12.333117059168842"><ele>385.0</ele><time>2026-04-19T08:58:50.023Z</time></trkpt><trkpt lat="42.57790967252218" lon="12.33309683015347"><ele>385.25</ele><time>2026-04-19T08:58:51.023Z</time></trkpt><trkpt lat="42.577784511764044" lon="12.333098434123452"><ele>385.5</ele><time>2026-04-19T08:58:52.023Z</time></trkpt><trkpt lat="42.577655512396504" lon="12.33310145341666"><ele>385.75</ele><time>2026-04-19T08:58:53.023Z</time></trkpt><trkpt lat="42.57752803035394" lon="12.333103577334777"><ele>386.0</ele><time>2026-04-19T08:58:54.023Z</time></trkpt><trkpt lat="42.577401913642284" lon="12.333105752454879"><ele>386.0</ele><time>2026-04-19T08:58:55.023Z</time></trkpt><trkpt lat="42.57727566822886" lon="12.33310800696276"><ele>386.0</ele><time>2026-04-19T08:58:56.023Z</time></trkpt><trkpt lat="42.57715002576904" lon="12.333110296768595"><ele>386.0</ele><time>2026-04-19T08:58:57.023Z</time></trkpt><trkpt lat="42.5770278105066" lon="12.333112524116517"><ele>386.0</ele><time>2026-04-19T08:58:58.023Z</time></trkpt><trkpt lat="42.57690282115853" lon="12.333114502766064"><ele>385.75</ele><time>2026-04-19T08:58:59.023Z</time></trkpt><trkpt lat="42.5767789110191" lon="12.333138531568443"><ele>385.5</ele><time>2026-04-19T08:59:00.023Z</time></trkpt><trkpt lat="42.57665863602658" lon="12.333132522817566"><ele>385.25</ele><time>2026-04-19T08:59:01.023Z</time></trkpt><trkpt lat="42.57653576321956" lon="12.333138656208448"><ele>385.0</ele><time>2026-04-19T08:59:02.023Z</time></trkpt><trkpt lat="42.57641491746392" lon="12.333145752002599"><ele>385.0</ele><time>2026-04-19T08:59:03.023Z</time></trkpt><trkpt lat="42.576297934915125" lon="12.333156969360708"><ele>385.0</ele><time>2026-04-19T08:59:04.023Z</time></trkpt><trkpt lat="42.57617773835252" lon="12.333183798897322"><ele>385.0</ele><time>2026-04-19T08:59:05.023Z</time></trkpt><trkpt lat="42.57606459189684" lon="12.33319994208367"><ele>385.0</ele><time>2026-04-19T08:59:06.023Z</time></trkpt><trkpt lat="42.575952303034704" lon="12.333259996171073"><ele>384.5</ele><time>2026-04-19T08:59:07.023Z</time></trkpt><trkpt lat="42.575855104713504" lon="12.333352297009272"><ele>384.0</ele><time>2026-04-19T08:59:08.023Z</time></trkpt><trkpt lat="42.57577404985373" lon="12.333469101902665"><ele>383.5</ele><time>2026-04-19T08:59:09.023Z</time></trkpt><trkpt lat="42.57571133986357" lon="12.33360197060764"><ele>383.0</ele><time>2026-04-19T08:59:10.023Z</time></trkpt><trkpt lat="42.57565900014215" lon="12.333750887098422"><ele>383.25</ele><time>2026-04-19T08:59:11.023Z</time></trkpt><trkpt lat="42.57561861690794" lon="12.33390971941382"><ele>383.5</ele><time>2026-04-19T08:59:12.023Z</time></trkpt><trkpt lat="42.575573429776156" lon="12.334075663396762"><ele>383.75</ele><time>2026-04-19T08:59:13.023Z</time></trkpt><trkpt lat="42.57553182860224" lon="12.33424439566637"><ele>384.0</ele><time>2026-04-19T08:59:14.023Z</time></trkpt><trkpt lat="42.5754864164226" lon="12.334416452207806"><ele>384.0</ele><time>2026-04-19T08:59:15.023Z</time></trkpt><trkpt lat="42.57544002158463" lon="12.33459404519283"><ele>384.0</ele><time>2026-04-19T08:59:16.023Z</time></trkpt><trkpt lat="42.57539138227562" lon="12.334773839260375"><ele>384.0</ele><time>2026-04-19T08:59:17.023Z</time></trkpt><trkpt lat="42.57534854400673" lon="12.334955176230567"><ele>384.0</ele><time>2026-04-19T08:59:18.023Z</time></trkpt><trkpt lat="42.57530384672466" lon="12.335130654330065"><ele>382.5</ele><time>2026-04-19T08:59:19.023Z</time></trkpt><trkpt lat="42.57524772301754" lon="12.335313344418973"><ele>381.0</ele><time>2026-04-19T08:59:20.023Z</time></trkpt><trkpt lat="42.57518682217619" lon="12.335476538191896"><ele>379.5</ele><time>2026-04-19T08:59:21.023Z</time></trkpt><trkpt lat="42.57511897961688" lon="12.33564276344142"><ele>378.0</ele><time>2026-04-19T08:59:22.023Z</time></trkpt><trkpt lat="42.575040587424226" lon="12.335803652097653"><ele>378.0</ele><time>2026-04-19T08:59:23.023Z</time></trkpt><trkpt lat="42.57495280837353" lon="12.335950151395396"><ele>378.0</ele><time>2026-04-19T08:59:24.023Z</time></trkpt><trkpt lat="42.574856863159766" lon="12.336093176390497"><ele>378.0</ele><time>2026-04-19T08:59:25.023Z</time></trkpt><trkpt lat="42.57475694034206" lon="12.336233505614869"><ele>378.0</ele><time>2026-04-19T08:59:26.023Z</time></trkpt><trkpt lat="42.574654159361785" lon="12.336374345053231"><ele>376.6666666666667</ele><time>2026-04-19T08:59:27.023Z</time></trkpt><trkpt lat="42.574555706686596" lon="12.336527278408425"><ele>375.33333333333337</ele><time>2026-04-19T08:59:28.023Z</time></trkpt><trkpt lat="42.57445640798028" lon="12.336686662634051"><ele>374.0</ele><time>2026-04-19T08:59:29.023Z</time></trkpt><trkpt lat="42.574366874672535" lon="12.336867042759112"><ele>374.0</ele><time>2026-04-19T08:59:30.023Z</time></trkpt><trkpt lat="42.57426381722605" lon="12.3370784723529"><ele>374.0</ele><time>2026-04-19T08:59:31.023Z</time></trkpt><trkpt lat="42.57414567533442" lon="12.337293748849358"><ele>374.0</ele><time>2026-04-19T08:59:32.023Z</time></trkpt><trkpt lat="42.57402141535931" lon="12.337526378485844"><ele>375.6666666666667</ele><time>2026-04-19T08:59:33.023Z</time></trkpt><trkpt lat="42.573907358209944" lon="12.33774377605737"><ele>377.3333333333333</ele><time>2026-04-19T08:59:34.023Z</time></trkpt><trkpt lat="42.57380643192534" lon="12.33793734661174"><ele>379.0</ele><time>2026-04-19T08:59:35.023Z</time></trkpt><trkpt lat="42.5737179772958" lon="12.338126455306226"><ele>377.3333333333333</ele><time>2026-04-19T08:59:36.023Z</time></trkpt><trkpt lat="42.57364152997873" lon="12.33831853106707"><ele>375.6666666666667</ele><time>2026-04-19T08:59:37.023Z</time></trkpt><trkpt lat="42.57358860350798" lon="12.338527003705165"><ele>374.0</ele><time>2026-04-19T08:59:38.023Z</time></trkpt><trkpt lat="42.57356237112406" lon="12.338753609623483"><ele>374.6666666666667</ele><time>2026-04-19T08:59:39.023Z</time></trkpt><trkpt lat="42.573547608274794" lon="12.338980301165643"><ele>375.3333333333333</ele><time>2026-04-19T08:59:40.023Z</time></trkpt><trkpt lat="42.57353633462703" lon="12.339195081203473"><ele>376.0</ele><time>2026-04-19T08:59:41.023Z</time></trkpt><trkpt lat="42.573503664205504" lon="12.33940327072209"><ele>376.0</ele><time>2026-04-19T08:59:42.023Z</time></trkpt><trkpt lat="42.573492657378175" lon="12.339602513899036"><ele>376.0</ele><time>2026-04-19T08:59:43.023Z</time></trkpt><trkpt lat="42.57346391957771" lon="12.339785618079816"><ele>376.0</ele><time>2026-04-19T08:59:44.023Z</time></trkpt><trkpt lat="42.573406152461175" lon="12.339943097876748"><ele>376.0</ele><time>2026-04-19T08:59:45.023Z</time></trkpt><trkpt lat="42.57332448403431" lon="12.340075262685795"><ele>377.0</ele><time>2026-04-19T08:59:46.023Z</time></trkpt><trkpt lat="42.573214825607145" lon="12.340176805804703"><ele>378.0</ele><time>2026-04-19T08:59:47.023Z</time></trkpt><trkpt lat="42.57308448607525" lon="12.34024543187619"><ele>379.0</ele><time>2026-04-19T08:59:48.023Z</time></trkpt><trkpt lat="42.57294041397339" lon="12.340310368892432"><ele>380.0</ele><time>2026-04-19T08:59:49.023Z</time></trkpt><trkpt lat="42.57279467479498" lon="12.340379804000957"><ele>380.33333333333337</ele><time>2026-04-19T08:59:50.023Z</time></trkpt><trkpt lat="42.57265034958514" lon="12.340460257879302"><ele>380.6666666666667</ele><time>2026-04-19T08:59:51.023Z</time></trkpt><trkpt lat="42.57250578511809" lon="12.34055689087943"><ele>381.0</ele><time>2026-04-19T08:59:52.023Z</time></trkpt><trkpt lat="42.572368836197" lon="12.340682317226781"><ele>381.0</ele><time>2026-04-19T08:59:53.023Z</time></trkpt><trkpt lat="42.572238460297356" lon="12.340835323570406"><ele>381.0</ele><time>2026-04-19T08:59:54.023Z</time></trkpt><trkpt lat="42.57210103809269" lon="12.340989195731314"><ele>381.0</ele><time>2026-04-19T08:59:55.023Z</time></trkpt><trkpt lat="42.571960544024" lon="12.341147226496092"><ele>379.6666666666667</ele><time>2026-04-19T08:59:56.023Z</time></trkpt><trkpt lat="42.571824599963364" lon="12.341308235756527"><ele>378.33333333333337</ele><time>2026-04-19T08:59:57.023Z</time></trkpt><trkpt lat="42.57168468719681" lon="12.341463814278406"><ele>377.0</ele><time>2026-04-19T08:59:58.023Z</time></trkpt><trkpt lat="42.571536401510386" lon="12.341606319313764"><ele>377.0</ele><time>2026-04-19T08:59:59.023Z</time></trkpt><trkpt lat="42.571386623980416" lon="12.341730233641035"><ele>377.0</ele><time>2026-04-19T09:00:00.023Z</time></trkpt><trkpt lat="42.571234913262195" lon="12.34184928034927"><ele>377.0</ele><time>2026-04-19T09:00:01.023Z</time></trkpt><trkpt lat="42.57108713884915" lon="12.341965180211258"><ele>374.6666666666667</ele><time>2026-04-19T09:00:02.023Z</time></trkpt><trkpt lat="42.570947389161205" lon="12.342087384082765"><ele>372.3333333333333</ele><time>2026-04-19T09:00:03.023Z</time></trkpt><trkpt lat="42.57082426429174" lon="12.342238031117816"><ele>370.0</ele><time>2026-04-19T09:00:04.023Z</time></trkpt><trkpt lat="42.57072149182576" lon="12.342415162912763"><ele>370.0</ele><time>2026-04-19T09:00:05.023Z</time></trkpt><trkpt lat="42.570634164040946" lon="12.3426153624018"><ele>370.0</ele><time>2026-04-19T09:00:06.023Z</time></trkpt><trkpt lat="42.57054126223705" lon="12.342822244703003"><ele>370.0</ele><time>2026-04-19T09:00:07.023Z</time></trkpt><trkpt lat="42.570431771906414" lon="12.343034621030974"><ele>367.0</ele><time>2026-04-19T09:00:08.023Z</time></trkpt><trkpt lat="42.57032435356347" lon="12.343253351041602"><ele>364.0</ele><time>2026-04-19T09:00:09.023Z</time></trkpt><trkpt lat="42.570216658259994" lon="12.343478387743884"><ele>361.0</ele><time>2026-04-19T09:00:10.023Z</time></trkpt><trkpt lat="42.57011231805173" lon="12.343692967334798"><ele>362.3333333333333</ele><time>2026-04-19T09:00:11.023Z</time></trkpt><trkpt lat="42.570013764180516" lon="12.343899516863395"><ele>363.6666666666667</ele><time>2026-04-19T09:00:12.023Z</time></trkpt><trkpt lat="42.569916361669414" lon="12.34409712974018"><ele>365.0</ele><time>2026-04-19T09:00:13.023Z</time></trkpt><trkpt lat="42.56982363453352" lon="12.344295044230169"><ele>365.0</ele><time>2026-04-19T09:00:14.023Z</time></trkpt><trkpt lat="42.569720451880904" lon="12.344503101182637"><ele>365.0</ele><time>2026-04-19T09:00:15.023Z</time></trkpt><trkpt lat="42.569616013618415" lon="12.344703241453637"><ele>365.0</ele><time>2026-04-19T09:00:16.023Z</time></trkpt><trkpt lat="42.56950218914063" lon="12.344896782614493"><ele>362.6666666666667</ele><time>2026-04-19T09:00:17.023Z</time></trkpt><trkpt lat="42.56937440205453" lon="12.345072544628453"><ele>360.3333333333333</ele><time>2026-04-19T09:00:18.023Z</time></trkpt><trkpt lat="42.569238872592756" lon="12.345231088596144"><ele>358.0</ele><time>2026-04-19T09:00:19.023Z</time></trkpt><trkpt lat="42.569094565132104" lon="12.345386294715343"><ele>358.0</ele><time>2026-04-19T09:00:20.023Z</time></trkpt><trkpt lat="42.568946022919675" lon="12.34553841787175"><ele>358.0</ele><time>2026-04-19T09:00:21.023Z</time></trkpt><trkpt lat="42.568802031457025" lon="12.345699238495294"><ele>358.0</ele><time>2026-04-19T09:00:22.023Z</time></trkpt><trkpt lat="42.56866103102807" lon="12.34585928754585"><ele>358.3333333333333</ele><time>2026-04-19T09:00:23.023Z</time></trkpt><trkpt lat="42.568520579852716" lon="12.3460167640524"><ele>358.6666666666667</ele><time>2026-04-19T09:00:24.023Z</time></trkpt><trkpt lat="42.5683886473951" lon="12.346166338513534"><ele>359.0</ele><time>2026-04-19T09:00:25.022Z</time></trkpt><trkpt lat="42.56825737167413" lon="12.346307037751117"><ele>360.6666666666667</ele><time>2026-04-19T09:00:26.022Z</time></trkpt><trkpt lat="42.56812163509493" lon="12.346428848884516"><ele>362.3333333333333</ele><time>2026-04-19T09:00:27.022Z</time></trkpt><trkpt lat="42.567969871434045" lon="12.346537414431403"><ele>364.0</ele><time>2026-04-19T09:00:28.022Z</time></trkpt><trkpt lat="42.56781722981675" lon="12.34661526813041"><ele>364.0</ele><time>2026-04-19T09:00:29.022Z</time></trkpt><trkpt lat="42.567655345662175" lon="12.34668499282938"><ele>364.0</ele><time>2026-04-19T09:00:30.022Z</time></trkpt><trkpt lat="42.56748839883647" lon="12.346742684022507"><ele>364.0</ele><time>2026-04-19T09:00:31.022Z</time></trkpt><trkpt lat="42.56732517203654" lon="12.346805488544845"><ele>364.0</ele><time>2026-04-19T09:00:32.022Z</time></trkpt><trkpt lat="42.567165111467396" lon="12.346864252102185"><ele>364.0</ele><time>2026-04-19T09:00:33.022Z</time></trkpt><trkpt lat="42.56700752922755" lon="12.346924882490086"><ele>364.0</ele><time>2026-04-19T09:00:34.022Z</time></trkpt><trkpt lat="42.5668489155953" lon="12.346983382176562"><ele>366.3333333333333</ele><time>2026-04-19T09:00:35.022Z</time></trkpt><trkpt lat="42.566694962303615" lon="12.347039760773443"><ele>368.6666666666667</ele><time>2026-04-19T09:00:36.022Z</time></trkpt><trkpt lat="42.5665399452508" lon="12.347107666906686"><ele>371.0</ele><time>2026-04-19T09:00:37.022Z</time></trkpt><trkpt lat="42.56638248900163" lon="12.347196614080202"><ele>372.0</ele><time>2026-04-19T09:00:38.022Z</time></trkpt><trkpt lat="42.56622542495754" lon="12.347292274774485"><ele>373.0</ele><time>2026-04-19T09:00:39.022Z</time></trkpt><trkpt lat="42.5660725142078" lon="12.34739406958141"><ele>374.0</ele><time>2026-04-19T09:00:40.024Z</time></trkpt><trkpt lat="42.56591649534311" lon="12.347504655485414"><ele>374.0</ele><time>2026-04-19T09:00:41.025Z</time></trkpt><trkpt lat="42.56575671193512" lon="12.347610070753102"><ele>374.0</ele><time>2026-04-19T09:00:42.025Z</time></trkpt><trkpt lat="42.56559962837336" lon="12.347719759248873"><ele>374.0</ele><time>2026-04-19T09:00:43.024Z</time></trkpt><trkpt lat="42.565438670046355" lon="12.347831927906352"><ele>374.6666666666667</ele><time>2026-04-19T09:00:44.024Z</time></trkpt><trkpt lat="42.565282063948686" lon="12.347944541154199"><ele>375.3333333333333</ele><time>2026-04-19T09:00:45.024Z</time></trkpt><trkpt lat="42.56512373627413" lon="12.348055915845418"><ele>376.0</ele><time>2026-04-19T09:00:46.024Z</time></trkpt><trkpt lat="42.56497287922424" lon="12.348168523819384"><ele>376.0</ele><time>2026-04-19T09:00:47.024Z</time></trkpt><trkpt lat="42.56482496895078" lon="12.348266553607376"><ele>376.0</ele><time>2026-04-19T09:00:48.024Z</time></trkpt><trkpt lat="42.564679514620714" lon="12.348363296136823"><ele>376.0</ele><time>2026-04-19T09:00:49.024Z</time></trkpt><trkpt lat="42.56453981001991" lon="12.348462898044563"><ele>375.0</ele><time>2026-04-19T09:00:50.025Z</time></trkpt><trkpt lat="42.564408377749125" lon="12.348577694206547"><ele>374.0</ele><time>2026-04-19T09:00:51.024Z</time></trkpt><trkpt lat="42.56428755123089" lon="12.348716877348501"><ele>373.0</ele><time>2026-04-19T09:00:52.025Z</time></trkpt><trkpt lat="42.56417333011023" lon="12.34887109053537"><ele>375.3333333333333</ele><time>2026-04-19T09:00:53.025Z</time></trkpt><trkpt lat="42.56406387665245" lon="12.349037570581224"><ele>377.6666666666667</ele><time>2026-04-19T09:00:54.025Z</time></trkpt><trkpt lat="42.563955919998776" lon="12.349205352169852"><ele>380.0</ele><time>2026-04-19T09:00:55.025Z</time></trkpt><trkpt lat="42.56384393161292" lon="12.34936263734566"><ele>380.0</ele><time>2026-04-19T09:00:56.025Z</time></trkpt><trkpt lat="42.563727200290685" lon="12.349507425506498"><ele>380.0</ele><time>2026-04-19T09:00:57.025Z</time></trkpt><trkpt lat="42.563592308159755" lon="12.349631520259761"><ele>380.0</ele><time>2026-04-19T09:00:58.025Z</time></trkpt><trkpt lat="42.563441355236456" lon="12.349732246583708"><ele>382.0</ele><time>2026-04-19T09:00:59.025Z</time></trkpt><trkpt lat="42.56329313549595" lon="12.349822452686599"><ele>384.0</ele><time>2026-04-19T09:01:00.025Z</time></trkpt><trkpt lat="42.56314899321046" lon="12.349918604139804"><ele>386.0</ele><time>2026-04-19T09:01:01.025Z</time></trkpt><trkpt lat="42.56300290121317" lon="12.350012227257917"><ele>384.3333333333333</ele><time>2026-04-19T09:01:02.025Z</time></trkpt><trkpt lat="42.56285954000299" lon="12.350120727485445"><ele>382.66666666666663</ele><time>2026-04-19T09:01:03.025Z</time></trkpt><trkpt lat="42.56272340970774" lon="12.350247485292492"><ele>381.0</ele><time>2026-04-19T09:01:04.025Z</time></trkpt><trkpt lat="42.56257288860871" lon="12.35036868803733"><ele>381.0</ele><time>2026-04-19T09:01:05.025Z</time></trkpt><trkpt lat="42.56243960474903" lon="12.350533617888704"><ele>381.0</ele><time>2026-04-19T09:01:06.025Z</time></trkpt><trkpt lat="42.56231879518104" lon="12.350712251884293"><ele>381.0</ele><time>2026-04-19T09:01:07.025Z</time></trkpt><trkpt lat="42.562196833406674" lon="12.3508974365984"><ele>380.6666666666667</ele><time>2026-04-19T09:01:08.025Z</time></trkpt><trkpt lat="42.56208317395374" lon="12.351089362674434"><ele>380.33333333333337</ele><time>2026-04-19T09:01:09.025Z</time></trkpt><trkpt lat="42.56197891813022" lon="12.3512799483728"><ele>380.0</ele><time>2026-04-19T09:01:10.025Z</time></trkpt><trkpt lat="42.56187603610055" lon="12.351458001204975"><ele>383.33333333333337</ele><time>2026-04-19T09:01:11.025Z</time></trkpt><trkpt lat="42.56177710757284" lon="12.351632819420857"><ele>386.6666666666667</ele><time>2026-04-19T09:01:12.025Z</time></trkpt><trkpt lat="42.56168107712707" lon="12.351800300136118"><ele>390.0</ele><time>2026-04-19T09:01:13.025Z</time></trkpt><trkpt lat="42.561589890074316" lon="12.351957302196078"><ele>390.0</ele><time>2026-04-19T09:01:14.025Z</time></trkpt><trkpt lat="42.56150404930808" lon="12.352108807411682"><ele>390.0</ele><time>2026-04-19T09:01:15.025Z</time></trkpt><trkpt lat="42.561420946335254" lon="12.352246169783026"><ele>390.0</ele><time>2026-04-19T09:01:16.024Z</time></trkpt><trkpt lat="42.561343932967645" lon="12.352382260202578"><ele>390.0</ele><time>2026-04-19T09:01:17.024Z</time></trkpt><trkpt lat="42.561271669991086" lon="12.352514666267512"><ele>389.25</ele><time>2026-04-19T09:01:18.024Z</time></trkpt><trkpt lat="42.56119062800724" lon="12.352647388775168"><ele>388.5</ele><time>2026-04-19T09:01:19.024Z</time></trkpt><trkpt lat="42.561096270345594" lon="12.352790510592248"><ele>387.75</ele><time>2026-04-19T09:01:20.024Z</time></trkpt><trkpt lat="42.56099865370663" lon="12.352962367608807"><ele>387.0</ele><time>2026-04-19T09:01:21.024Z</time></trkpt><trkpt lat="42.56088979094756" lon="12.353152391595994"><ele>391.0</ele><time>2026-04-19T09:01:22.024Z</time></trkpt><trkpt lat="42.560767804666945" lon="12.35335640787895"><ele>395.0</ele><time>2026-04-19T09:01:23.024Z</time></trkpt><trkpt lat="42.560635990866245" lon="12.353573939868083"><ele>399.0</ele><time>2026-04-19T09:01:24.024Z</time></trkpt><trkpt lat="42.5605065190024" lon="12.353782321391726"><ele>399.0</ele><time>2026-04-19T09:01:25.024Z</time></trkpt><trkpt lat="42.56039220545361" lon="12.353968294427226"><ele>399.0</ele><time>2026-04-19T09:01:26.024Z</time></trkpt><trkpt lat="42.560277480382545" lon="12.354148367376254"><ele>399.0</ele><time>2026-04-19T09:01:27.024Z</time></trkpt><trkpt lat="42.56016673345351" lon="12.354329085640108"><ele>399.0</ele><time>2026-04-19T09:01:28.024Z</time></trkpt><trkpt lat="42.560061207952344" lon="12.354512280593276"><ele>399.0</ele><time>2026-04-19T09:01:29.024Z</time></trkpt><trkpt lat="42.55996567313205" lon="12.354698502077834"><ele>399.0</ele><time>2026-04-19T09:01:30.024Z</time></trkpt><trkpt lat="42.55988574855631" lon="12.35490330093981"><ele>403.0</ele><time>2026-04-19T09:01:31.024Z</time></trkpt><trkpt lat="42.55982878833729" lon="12.35514208819891"><ele>407.0</ele><time>2026-04-19T09:01:32.024Z</time></trkpt><trkpt lat="42.55975036341837" lon="12.355373653946172"><ele>411.0</ele><time>2026-04-19T09:01:33.024Z</time></trkpt><trkpt lat="42.55968599769225" lon="12.35560723877709"><ele>413.66666666666663</ele><time>2026-04-19T09:01:34.024Z</time></trkpt><trkpt lat="42.55962098738466" lon="12.355842402656688"><ele>416.3333333333333</ele><time>2026-04-19T09:01:35.024Z</time></trkpt><trkpt lat="42.55956616090072" lon="12.356084460143439"><ele>419.0</ele><time>2026-04-19T09:01:36.024Z</time></trkpt><trkpt lat="42.55950098138864" lon="12.35633153063021"><ele>414.66666666666663</ele><time>2026-04-19T09:01:37.024Z</time></trkpt><trkpt lat="42.55942117685983" lon="12.356565183543662"><ele>410.33333333333337</ele><time>2026-04-19T09:01:38.024Z</time></trkpt><trkpt lat="42.559367124291285" lon="12.356816137819036"><ele>406.0</ele><time>2026-04-19T09:01:39.024Z</time></trkpt><trkpt lat="42.55929975665713" lon="12.357043619974698"><ele>408.0</ele><time>2026-04-19T09:01:40.024Z</time></trkpt><trkpt lat="42.559236348989785" lon="12.35725608592689"><ele>410.0</ele><time>2026-04-19T09:01:41.024Z</time></trkpt><trkpt lat="42.55917772979057" lon="12.357461859108014"><ele>412.0</ele><time>2026-04-19T09:01:42.024Z</time></trkpt><trkpt lat="42.55912002312642" lon="12.35766711206189"><ele>412.0</ele><time>2026-04-19T09:01:43.024Z</time></trkpt><trkpt lat="42.55906413005908" lon="12.357871302223433"><ele>412.0</ele><time>2026-04-19T09:01:44.024Z</time></trkpt><trkpt lat="42.55901147886082" lon="12.35807635021995"><ele>412.0</ele><time>2026-04-19T09:01:45.024Z</time></trkpt><trkpt lat="42.558948726367504" lon="12.358270151219818"><ele>413.75</ele><time>2026-04-19T09:01:46.024Z</time></trkpt><trkpt lat="42.55892016471516" lon="12.358469653750525"><ele>415.5</ele><time>2026-04-19T09:01:47.024Z</time></trkpt><trkpt lat="42.558896693144916" lon="12.358667676413837"><ele>417.25</ele><time>2026-04-19T09:01:48.024Z</time></trkpt><trkpt lat="42.55888025949997" lon="12.35886807993658"><ele>419.0</ele><time>2026-04-19T09:01:49.024Z</time></trkpt><trkpt lat="42.55886451509503" lon="12.359072435954701"><ele>420.0</ele><time>2026-04-19T09:01:50.024Z</time></trkpt><trkpt lat="42.558847800902484" lon="12.359277991507405"><ele>421.0</ele><time>2026-04-19T09:01:51.024Z</time></trkpt><trkpt lat="42.55882630550786" lon="12.359483561148645"><ele>422.0</ele><time>2026-04-19T09:01:52.024Z</time></trkpt><trkpt lat="42.55879849890905" lon="12.359690450557384"><ele>421.3333333333333</ele><time>2026-04-19T09:01:53.024Z</time></trkpt><trkpt lat="42.558773404085905" lon="12.359896496052084"><ele>420.66666666666663</ele><time>2026-04-19T09:01:54.024Z</time></trkpt><trkpt lat="42.55875738701445" lon="12.360101076786293"><ele>420.0</ele><time>2026-04-19T09:01:55.024Z</time></trkpt><trkpt lat="42.558743080793974" lon="12.360297270515032"><ele>420.0</ele><time>2026-04-19T09:01:56.024Z</time></trkpt><trkpt lat="42.55874953564851" lon="12.360483730788632"><ele>420.0</ele><time>2026-04-19T09:01:57.024Z</time></trkpt><trkpt lat="42.55876602322864" lon="12.360675418764151"><ele>420.0</ele><time>2026-04-19T09:01:58.024Z</time></trkpt><trkpt lat="42.558812558065135" lon="12.36087555619799"><ele>420.0</ele><time>2026-04-19T09:01:59.024Z</time></trkpt><trkpt lat="42.5588730081677" lon="12.36107490572666"><ele>417.66666666666663</ele><time>2026-04-19T09:02:00.024Z</time></trkpt><trkpt lat="42.558936788912625" lon="12.361294285839008"><ele>415.3333333333333</ele><time>2026-04-19T09:02:01.024Z</time></trkpt><trkpt lat="42.5589991081257" lon="12.36152676605609"><ele>413.0</ele><time>2026-04-19T09:02:02.024Z</time></trkpt><trkpt lat="42.55907015669384" lon="12.361758830137685"><ele>410.3333333333333</ele><time>2026-04-19T09:02:03.024Z</time></trkpt><trkpt lat="42.55914381493185" lon="12.36198441531932"><ele>407.66666666666663</ele><time>2026-04-19T09:02:04.024Z</time></trkpt><trkpt lat="42.5592138369829" lon="12.362208674382938"><ele>405.0</ele><time>2026-04-19T09:02:05.024Z</time></trkpt><trkpt lat="42.55927546376683" lon="12.362427863083708"><ele>402.66666666666663</ele><time>2026-04-19T09:02:06.024Z</time></trkpt><trkpt lat="42.559344880022785" lon="12.362643626994148"><ele>400.3333333333333</ele><time>2026-04-19T09:02:07.024Z</time></trkpt><trkpt lat="42.559402883528556" lon="12.362870276397919"><ele>398.0</ele><time>2026-04-19T09:02:08.024Z</time></trkpt><trkpt lat="42.55946830899728" lon="12.36308870307329"><ele>397.3333333333333</ele><time>2026-04-19T09:02:09.024Z</time></trkpt><trkpt lat="42.55953419515898" lon="12.363307792282892"><ele>396.66666666666663</ele><time>2026-04-19T09:02:10.024Z</time></trkpt><trkpt lat="42.5596143920271" lon="12.3635219361879"><ele>396.0</ele><time>2026-04-19T09:02:11.024Z</time></trkpt><trkpt lat="42.55965292079017" lon="12.363759118088696"><ele>395.0</ele><time>2026-04-19T09:02:12.024Z</time></trkpt><trkpt lat="42.55968975020976" lon="12.363991837186168"><ele>394.0</ele><time>2026-04-19T09:02:13.024Z</time></trkpt><trkpt lat="42.55972577786918" lon="12.36422424973414"><ele>393.0</ele><time>2026-04-19T09:02:14.024Z</time></trkpt><trkpt lat="42.55972631050116" lon="12.3644636423058"><ele>392.0</ele><time>2026-04-19T09:02:15.024Z</time></trkpt><trkpt lat="42.559762632881245" lon="12.36470211345381"><ele>391.0</ele><time>2026-04-19T09:02:16.024Z</time></trkpt><trkpt lat="42.55982502942948" lon="12.364935018338516"><ele>390.0</ele><time>2026-04-19T09:02:17.024Z</time></trkpt><trkpt lat="42.559911720264566" lon="12.36515520614251"><ele>390.0</ele><time>2026-04-19T09:02:18.024Z</time></trkpt><trkpt lat="42.5600100475539" lon="12.36536182486227"><ele>390.0</ele><time>2026-04-19T09:02:19.024Z</time></trkpt><trkpt lat="42.56011477568537" lon="12.365570647521183"><ele>390.0</ele><time>2026-04-19T09:02:20.024Z</time></trkpt><trkpt lat="42.560215071338185" lon="12.365779362098678"><ele>389.33333333333337</ele><time>2026-04-19T09:02:21.024Z</time></trkpt><trkpt lat="42.560298740920665" lon="12.365992078203961"><ele>388.6666666666667</ele><time>2026-04-19T09:02:22.024Z</time></trkpt><trkpt lat="42.56039614888176" lon="12.366188614735194"><ele>388.0</ele><time>2026-04-19T09:02:23.024Z</time></trkpt><trkpt lat="42.56049223319127" lon="12.366386360092067"><ele>385.6666666666667</ele><time>2026-04-19T09:02:24.024Z</time></trkpt><trkpt lat="42.56059517874875" lon="12.366574730831736"><ele>383.33333333333337</ele><time>2026-04-19T09:02:25.024Z</time></trkpt><trkpt lat="42.56067602758872" lon="12.366773981038786"><ele>381.0</ele><time>2026-04-19T09:02:26.024Z</time></trkpt><trkpt lat="42.5607322158511" lon="12.366982144116234"><ele>380.6666666666667</ele><time>2026-04-19T09:02:27.024Z</time></trkpt><trkpt lat="42.56076234715992" lon="12.367202780017656"><ele>380.33333333333337</ele><time>2026-04-19T09:02:28.024Z</time></trkpt><trkpt lat="42.560779492222636" lon="12.367428334256255"><ele>380.0</ele><time>2026-04-19T09:02:29.024Z</time></trkpt><trkpt lat="42.56078875689227" lon="12.3676547021488"><ele>380.0</ele><time>2026-04-19T09:02:30.024Z</time></trkpt><trkpt lat="42.56078808799734" lon="12.367881594728143"><ele>380.0</ele><time>2026-04-19T09:02:31.024Z</time></trkpt><trkpt lat="42.56078599871521" lon="12.36809466569047"><ele>380.0</ele><time>2026-04-19T09:02:32.024Z</time></trkpt><trkpt lat="42.56076702244234" lon="12.368289971048199"><ele>381.25</ele><time>2026-04-19T09:02:33.024Z</time></trkpt><trkpt lat="42.56072723799259" lon="12.368469582887297"><ele>382.5</ele><time>2026-04-19T09:02:34.024Z</time></trkpt><trkpt lat="42.56065732658451" lon="12.368624218687913"><ele>383.75</ele><time>2026-04-19T09:02:35.024Z</time></trkpt><trkpt lat="42.56054943523973" lon="12.368752105614021"><ele>385.0</ele><time>2026-04-19T09:02:36.024Z</time></trkpt><trkpt lat="42.56041845341461" lon="12.368848568374236"><ele>384.6666666666667</ele><time>2026-04-19T09:02:37.024Z</time></trkpt><trkpt lat="42.560274674263304" lon="12.368926001598698"><ele>384.33333333333337</ele><time>2026-04-19T09:02:38.024Z</time></trkpt><trkpt lat="42.56012242649267" lon="12.369011418524872"><ele>384.0</ele><time>2026-04-19T09:02:39.024Z</time></trkpt><trkpt lat="42.559975854820486" lon="12.369099566379647"><ele>384.0</ele><time>2026-04-19T09:02:40.024Z</time></trkpt><trkpt lat="42.5598326569434" lon="12.36918904481351"><ele>384.0</ele><time>2026-04-19T09:02:41.024Z</time></trkpt><trkpt lat="42.55969904794321" lon="12.369288157951184"><ele>384.0</ele><time>2026-04-19T09:02:42.024Z</time></trkpt><trkpt lat="42.559575010266535" lon="12.369403085411307"><ele>384.0</ele><time>2026-04-19T09:02:43.024Z</time></trkpt><trkpt lat="42.5594640924131" lon="12.369546689903087"><ele>384.0</ele><time>2026-04-19T09:02:44.024Z</time></trkpt><trkpt lat="42.55936163968488" lon="12.369707640822254"><ele>384.0</ele><time>2026-04-19T09:02:45.024Z</time></trkpt><trkpt lat="42.559269457731986" lon="12.369885446489128"><ele>384.0</ele><time>2026-04-19T09:02:46.026Z</time></trkpt><trkpt lat="42.559186005653146" lon="12.370072624105054"><ele>384.0</ele><time>2026-04-19T09:02:47.026Z</time></trkpt><trkpt lat="42.55908911360285" lon="12.370262184856294"><ele>384.0</ele><time>2026-04-19T09:02:48.026Z</time></trkpt><trkpt lat="42.55898810825069" lon="12.370461523669322"><ele>387.0</ele><time>2026-04-19T09:02:49.026Z</time></trkpt><trkpt lat="42.55889516883023" lon="12.370665269369772"><ele>390.0</ele><time>2026-04-19T09:02:50.025Z</time></trkpt><trkpt lat="42.55880353336832" lon="12.370854831755464"><ele>393.0</ele><time>2026-04-19T09:02:51.025Z</time></trkpt><trkpt lat="42.558715652184105" lon="12.37104647007544"><ele>390.66666666666663</ele><time>2026-04-19T09:02:52.026Z</time></trkpt><trkpt lat="42.5586297949813" lon="12.37123493741374"><ele>388.3333333333333</ele><time>2026-04-19T09:02:53.025Z</time></trkpt><trkpt lat="42.558549362895135" lon="12.371410238910094"><ele>386.0</ele><time>2026-04-19T09:02:54.025Z</time></trkpt><trkpt lat="42.55848275980592" lon="12.37157149357494"><ele>386.0</ele><time>2026-04-19T09:02:55.026Z</time></trkpt><trkpt lat="42.55842367341601" lon="12.37171838532533"><ele>386.0</ele><time>2026-04-19T09:02:56.026Z</time></trkpt><trkpt lat="42.55842329393475" lon="12.37187916709175"><ele>386.0</ele><time>2026-04-19T09:02:57.026Z</time></trkpt><trkpt lat="42.55842350892289" lon="12.37204322700926"><ele>386.0</ele><time>2026-04-19T09:02:58.026Z</time></trkpt><trkpt lat="42.55848264675574" lon="12.37220518476718"><ele>386.25</ele><time>2026-04-19T09:02:59.025Z</time></trkpt><trkpt lat="42.55854599147864" lon="12.372378001120302"><ele>386.5</ele><time>2026-04-19T09:03:00.025Z</time></trkpt><trkpt lat="42.558586493225526" lon="12.372567858437483"><ele>386.75</ele><time>2026-04-19T09:03:01.025Z</time></trkpt><trkpt lat="42.55865145057804" lon="12.372754009311452"><ele>387.0</ele><time>2026-04-19T09:03:02.025Z</time></trkpt><trkpt lat="42.55871954836012" lon="12.372943849561805"><ele>389.33333333333337</ele><time>2026-04-19T09:03:03.025Z</time></trkpt><trkpt lat="42.55878576501216" lon="12.373140564902346"><ele>391.6666666666667</ele><time>2026-04-19T09:03:04.025Z</time></trkpt><trkpt lat="42.558855037074856" lon="12.373338361068212"><ele>394.0</ele><time>2026-04-19T09:03:05.025Z</time></trkpt><trkpt lat="42.55892595000532" lon="12.373541372521638"><ele>394.0</ele><time>2026-04-19T09:03:06.025Z</time></trkpt><trkpt lat="42.55899633110348" lon="12.37374867294813"><ele>394.0</ele><time>2026-04-19T09:03:07.025Z</time></trkpt><trkpt lat="42.55906948615803" lon="12.37395570567274"><ele>394.0</ele><time>2026-04-19T09:03:08.025Z</time></trkpt><trkpt lat="42.559142582943664" lon="12.374163839898582"><ele>392.6666666666667</ele><time>2026-04-19T09:03:09.025Z</time></trkpt><trkpt lat="42.55921609325778" lon="12.374370006855996"><ele>391.33333333333337</ele><time>2026-04-19T09:03:10.025Z</time></trkpt><trkpt lat="42.55928928893271" lon="12.374575593890828"><ele>390.0</ele><time>2026-04-19T09:03:11.025Z</time></trkpt><trkpt lat="42.55936164771864" lon="12.374776836449374"><ele>390.0</ele><time>2026-04-19T09:03:12.025Z</time></trkpt><trkpt lat="42.55943186932382" lon="12.374973274626793"><ele>390.0</ele><time>2026-04-19T09:03:13.025Z</time></trkpt><trkpt lat="42.55950479385208" lon="12.375172692814193"><ele>390.0</ele><time>2026-04-19T09:03:14.025Z</time></trkpt><trkpt lat="42.55957540670862" lon="12.375375803412613"><ele>391.33333333333337</ele><time>2026-04-19T09:03:15.025Z</time></trkpt><trkpt lat="42.55964757220129" lon="12.375578495422896"><ele>392.6666666666667</ele><time>2026-04-19T09:03:16.025Z</time></trkpt><trkpt lat="42.5597183330935" lon="12.375780653916134"><ele>394.0</ele><time>2026-04-19T09:03:17.025Z</time></trkpt><trkpt lat="42.55979258461933" lon="12.375979613575566"><ele>394.0</ele><time>2026-04-19T09:03:18.025Z</time></trkpt><trkpt lat="42.55986285756157" lon="12.376187850723916"><ele>394.0</ele><time>2026-04-19T09:03:19.025Z</time></trkpt><trkpt lat="42.55991956262571" lon="12.376402505391999"><ele>394.0</ele><time>2026-04-19T09:03:20.025Z</time></trkpt><trkpt lat="42.55994615448177" lon="12.376629345588611"><ele>393.0</ele><time>2026-04-19T09:03:21.025Z</time></trkpt><trkpt lat="42.55995323707516" lon="12.37686292513941"><ele>392.0</ele><time>2026-04-19T09:03:22.025Z</time></trkpt><trkpt lat="42.559955482453056" lon="12.377102845382186"><ele>391.0</ele><time>2026-04-19T09:03:23.025Z</time></trkpt><trkpt lat="42.55995939416755" lon="12.377344799315432"><ele>390.33333333333337</ele><time>2026-04-19T09:03:24.025Z</time></trkpt><trkpt lat="42.55996655349033" lon="12.377589891721923"><ele>389.66666666666663</ele><time>2026-04-19T09:03:25.025Z</time></trkpt><trkpt lat="42.559974220589595" lon="12.377833116294434"><ele>389.0</ele><time>2026-04-19T09:03:26.025Z</time></trkpt><trkpt lat="42.559962023849344" lon="12.378076170956986"><ele>388.3333333333333</ele><time>2026-04-19T09:03:27.025Z</time></trkpt><trkpt lat="42.55996600630132" lon="12.37832291725813"><ele>387.66666666666663</ele><time>2026-04-19T09:03:28.025Z</time></trkpt><trkpt lat="42.5599700348092" lon="12.378572516940231"><ele>387.0</ele><time>2026-04-19T09:03:29.025Z</time></trkpt><trkpt lat="42.55999106951267" lon="12.378813132686943"><ele>386.0</ele><time>2026-04-19T09:03:30.025Z</time></trkpt><trkpt lat="42.55999640010208" lon="12.379062488382036"><ele>385.0</ele><time>2026-04-19T09:03:31.025Z</time></trkpt><trkpt lat="42.56000147726042" lon="12.379318577269752"><ele>384.0</ele><time>2026-04-19T09:03:32.025Z</time></trkpt><trkpt lat="42.5600029274896" lon="12.379569698800253"><ele>383.6666666666667</ele><time>2026-04-19T09:03:33.025Z</time></trkpt><trkpt lat="42.560005028012746" lon="12.37981089613959"><ele>383.33333333333337</ele><time>2026-04-19T09:03:34.025Z</time></trkpt><trkpt lat="42.5600073334525" lon="12.380041266628744"><ele>383.0</ele><time>2026-04-19T09:03:35.025Z</time></trkpt><trkpt lat="42.56000847972633" lon="12.380266242095747"><ele>383.0</ele><time>2026-04-19T09:03:36.025Z</time></trkpt><trkpt lat="42.56000391296387" lon="12.380493334207095"><ele>383.0</ele><time>2026-04-19T09:03:37.025Z</time></trkpt><trkpt lat="42.5599845622161" lon="12.380708982705478"><ele>383.0</ele><time>2026-04-19T09:03:38.025Z</time></trkpt><trkpt lat="42.559947411691915" lon="12.380912615981"><ele>383.33333333333337</ele><time>2026-04-19T09:03:39.025Z</time></trkpt><trkpt lat="42.55988299932533" lon="12.381118452114919"><ele>383.6666666666667</ele><time>2026-04-19T09:03:40.025Z</time></trkpt><trkpt lat="42.55980085686535" lon="12.381316649924706"><ele>384.0</ele><time>2026-04-19T09:03:41.025Z</time></trkpt><trkpt lat="42.55970627031894" lon="12.38150771385451"><ele>384.0</ele><time>2026-04-19T09:03:42.025Z</time></trkpt><trkpt lat="42.55960312955379" lon="12.381704948149357"><ele>384.0</ele><time>2026-04-19T09:03:43.025Z</time></trkpt><trkpt lat="42.55950102572055" lon="12.38189585672304"><ele>384.0</ele><time>2026-04-19T09:03:44.025Z</time></trkpt><trkpt lat="42.55940515145761" lon="12.382079311171857"><ele>386.0</ele><time>2026-04-19T09:03:45.025Z</time></trkpt><trkpt lat="42.55931698878541" lon="12.3822539145785"><ele>388.0</ele><time>2026-04-19T09:03:46.025Z</time></trkpt><trkpt lat="42.559240194492084" lon="12.382429736989597"><ele>390.0</ele><time>2026-04-19T09:03:47.025Z</time></trkpt><trkpt lat="42.5591884599061" lon="12.382623551180462"><ele>390.0</ele><time>2026-04-19T09:03:48.025Z</time></trkpt><trkpt lat="42.55917583521532" lon="12.382817461709129"><ele>390.0</ele><time>2026-04-19T09:03:49.025Z</time></trkpt><trkpt lat="42.559187198898385" lon="12.383020346892204"><ele>390.0</ele><time>2026-04-19T09:03:50.025Z</time></trkpt><trkpt lat="42.55921531216234" lon="12.383230128571814"><ele>392.33333333333337</ele><time>2026-04-19T09:03:51.025Z</time></trkpt><trkpt lat="42.559240139559506" lon="12.383455349736362"><ele>394.6666666666667</ele><time>2026-04-19T09:03:52.025Z</time></trkpt><trkpt lat="42.55926289928589" lon="12.383673861899378"><ele>397.0</ele><time>2026-04-19T09:03:53.025Z</time></trkpt><trkpt lat="42.559297707993096" lon="12.3839012971356"><ele>398.0</ele><time>2026-04-19T09:03:54.025Z</time></trkpt><trkpt lat="42.55933561043743" lon="12.384133183573926"><ele>399.0</ele><time>2026-04-19T09:03:55.025Z</time></trkpt><trkpt lat="42.559363071544226" lon="12.384359951489625"><ele>400.0</ele><time>2026-04-19T09:03:56.025Z</time></trkpt><trkpt lat="42.55939051103205" lon="12.384587332280756"><ele>399.6666666666667</ele><time>2026-04-19T09:03:57.025Z</time></trkpt><trkpt lat="42.559424359053146" lon="12.38482089237664"><ele>399.33333333333337</ele><time>2026-04-19T09:03:58.025Z</time></trkpt><trkpt lat="42.55946034245225" lon="12.385057281301965"><ele>399.0</ele><time>2026-04-19T09:03:59.025Z</time></trkpt><trkpt lat="42.55948245685131" lon="12.385297416046413"><ele>398.0</ele><time>2026-04-19T09:04:00.025Z</time></trkpt><trkpt lat="42.559514829003824" lon="12.3855389463751"><ele>397.0</ele><time>2026-04-19T09:04:01.025Z</time></trkpt><trkpt lat="42.559544817499194" lon="12.385784923420237"><ele>396.0</ele><time>2026-04-19T09:04:02.025Z</time></trkpt><trkpt lat="42.55957145689023" lon="12.386033994735449"><ele>398.0</ele><time>2026-04-19T09:04:03.025Z</time></trkpt><trkpt lat="42.55960242776191" lon="12.386277608029516"><ele>400.0</ele><time>2026-04-19T09:04:04.025Z</time></trkpt><trkpt lat="42.55963596186699" lon="12.386524778766395"><ele>402.0</ele><time>2026-04-19T09:04:05.025Z</time></trkpt><trkpt lat="42.55966983217872" lon="12.386770596731461"><ele>402.0</ele><time>2026-04-19T09:04:06.025Z</time></trkpt><trkpt lat="42.55969681446908" lon="12.387025988619094"><ele>402.0</ele><time>2026-04-19T09:04:07.025Z</time></trkpt><trkpt lat="42.559725348734084" lon="12.387279385174137"><ele>402.0</ele><time>2026-04-19T09:04:08.025Z</time></trkpt><trkpt lat="42.55975740706933" lon="12.387527672714397"><ele>402.0</ele><time>2026-04-19T09:04:09.025Z</time></trkpt><trkpt lat="42.55978607693426" lon="12.387777850409488"><ele>402.0</ele><time>2026-04-19T09:04:10.025Z</time></trkpt><trkpt lat="42.559812807006786" lon="12.388026480304031"><ele>402.0</ele><time>2026-04-19T09:04:11.025Z</time></trkpt><trkpt lat="42.55983851849961" lon="12.388271554822346"><ele>403.66666666666663</ele><time>2026-04-19T09:04:12.025Z</time></trkpt><trkpt lat="42.55987001903787" lon="12.38851572649479"><ele>405.3333333333333</ele><time>2026-04-19T09:04:13.025Z</time></trkpt><trkpt lat="42.55990273335743" lon="12.388759590044312"><ele>407.0</ele><time>2026-04-19T09:04:14.025Z</time></trkpt><trkpt lat="42.55993545686126" lon="12.388999928115615"><ele>408.0</ele><time>2026-04-19T09:04:15.025Z</time></trkpt><trkpt lat="42.559968150567556" lon="12.389238302457372"><ele>409.0</ele><time>2026-04-19T09:04:16.025Z</time></trkpt><trkpt lat="42.55999806154572" lon="12.389465681580228"><ele>410.0</ele><time>2026-04-19T09:04:17.025Z</time></trkpt><trkpt lat="42.560024873216385" lon="12.389692588541163"><ele>410.3333333333333</ele><time>2026-04-19T09:04:18.025Z</time></trkpt><trkpt lat="42.56005382195761" lon="12.389917015379996"><ele>410.66666666666663</ele><time>2026-04-19T09:04:19.025Z</time></trkpt><trkpt lat="42.56009062937984" lon="12.3901346113427"><ele>411.0</ele><time>2026-04-19T09:04:20.025Z</time></trkpt><trkpt lat="42.56014814856566" lon="12.390337575296536"><ele>410.66666666666663</ele><time>2026-04-19T09:04:21.025Z</time></trkpt><trkpt lat="42.560237742199845" lon="12.390526422031893"><ele>410.3333333333333</ele><time>2026-04-19T09:04:22.025Z</time></trkpt><trkpt lat="42.56035472277213" lon="12.39068593800364"><ele>410.0</ele><time>2026-04-19T09:04:23.025Z</time></trkpt><trkpt lat="42.560487269671064" lon="12.390814955776873"><ele>410.0</ele><time>2026-04-19T09:04:24.025Z</time></trkpt><trkpt lat="42.56063793431147" lon="12.390904175793272"><ele>410.0</ele><time>2026-04-19T09:04:25.025Z</time></trkpt><trkpt lat="42.560799643797786" lon="12.390979473001776"><ele>410.0</ele><time>2026-04-19T09:04:26.025Z</time></trkpt><trkpt lat="42.56096355257936" lon="12.39105640004931"><ele>410.0</ele><time>2026-04-19T09:04:27.024Z</time></trkpt><trkpt lat="42.56112481819125" lon="12.391142415751755"><ele>410.0</ele><time>2026-04-19T09:04:28.024Z</time></trkpt><trkpt lat="42.56129077695108" lon="12.391227973088917"><ele>410.0</ele><time>2026-04-19T09:04:29.024Z</time></trkpt><trkpt lat="42.561459815282795" lon="12.39130420448968"><ele>408.0</ele><time>2026-04-19T09:04:30.024Z</time></trkpt><trkpt lat="42.561629406721735" lon="12.391403189230184"><ele>406.0</ele><time>2026-04-19T09:04:31.024Z</time></trkpt><trkpt lat="42.56179955187944" lon="12.391508662237221"><ele>404.0</ele><time>2026-04-19T09:04:32.024Z</time></trkpt><trkpt lat="42.56197171880002" lon="12.391604301266314"><ele>404.0</ele><time>2026-04-19T09:04:33.024Z</time></trkpt><trkpt lat="42.562140662671005" lon="12.391703330203613"><ele>404.0</ele><time>2026-04-19T09:04:34.024Z</time></trkpt><trkpt lat="42.562307207411415" lon="12.391799289332369"><ele>404.0</ele><time>2026-04-19T09:04:35.024Z</time></trkpt><trkpt lat="42.56246952976508" lon="12.39189264863654"><ele>404.0</ele><time>2026-04-19T09:04:36.024Z</time></trkpt><trkpt lat="42.56262889493524" lon="12.39198177082382"><ele>404.0</ele><time>2026-04-19T09:04:37.024Z</time></trkpt><trkpt lat="42.56277885798931" lon="12.392071437083144"><ele>404.0</ele><time>2026-04-19T09:04:38.024Z</time></trkpt><trkpt lat="42.56291303022064" lon="12.3921449360238"><ele>402.25</ele><time>2026-04-19T09:04:39.024Z</time></trkpt><trkpt lat="42.563023369389306" lon="12.392228958232696"><ele>400.5</ele><time>2026-04-19T09:04:40.024Z</time></trkpt><trkpt lat="42.56310915870661" lon="12.392344347165308"><ele>398.75</ele><time>2026-04-19T09:04:41.024Z</time></trkpt><trkpt lat="42.56317046061511" lon="12.392480403354837"><ele>397.0</ele><time>2026-04-19T09:04:42.024Z</time></trkpt><trkpt lat="42.56320746925449" lon="12.392658373418191"><ele>397.0</ele><time>2026-04-19T09:04:43.024Z</time></trkpt><trkpt lat="42.563225649906165" lon="12.392829333427002"><ele>397.0</ele><time>2026-04-19T09:04:44.024Z</time></trkpt><trkpt lat="42.56321590498136" lon="12.3929949016788"><ele>397.0</ele><time>2026-04-19T09:04:45.024Z</time></trkpt><trkpt lat="42.56317041874512" lon="12.393149679363606"><ele>397.0</ele><time>2026-04-19T09:04:46.024Z</time></trkpt><trkpt lat="42.563095820041774" lon="12.393289643089123"><ele>397.33333333333337</ele><time>2026-04-19T09:04:47.024Z</time></trkpt><trkpt lat="42.562988768577945" lon="12.393415151158992"><ele>397.66666666666663</ele><time>2026-04-19T09:04:48.024Z</time></trkpt><trkpt lat="42.56286351281395" lon="12.393525772203116"><ele>398.0</ele><time>2026-04-19T09:04:49.024Z</time></trkpt><trkpt lat="42.56272837822184" lon="12.393639914003142"><ele>397.0</ele><time>2026-04-19T09:04:50.024Z</time></trkpt><trkpt lat="42.562579156878364" lon="12.393739530043932"><ele>396.0</ele><time>2026-04-19T09:04:51.024Z</time></trkpt><trkpt lat="42.56242467548851" lon="12.393830628720556"><ele>395.0</ele><time>2026-04-19T09:04:52.026Z</time></trkpt><trkpt lat="42.56225239384641" lon="12.393901205616539"><ele>395.0</ele><time>2026-04-19T09:04:53.026Z</time></trkpt><trkpt lat="42.56207970753757" lon="12.393989406929771"><ele>395.0</ele><time>2026-04-19T09:04:54.026Z</time></trkpt><trkpt lat="42.56189823881794" lon="12.394076551793452"><ele>395.0</ele><time>2026-04-19T09:04:55.027Z</time></trkpt><trkpt lat="42.561721132863696" lon="12.394169930314002"><ele>390.66666666666663</ele><time>2026-04-19T09:04:56.027Z</time></trkpt><trkpt lat="42.561541890801536" lon="12.39426436628583"><ele>386.3333333333333</ele><time>2026-04-19T09:04:57.027Z</time></trkpt><trkpt lat="42.561361694789355" lon="12.39435674305817"><ele>382.0</ele><time>2026-04-19T09:04:58.026Z</time></trkpt><trkpt lat="42.561180513112944" lon="12.394443808867605"><ele>382.0</ele><time>2026-04-19T09:04:59.026Z</time></trkpt><trkpt lat="42.56100131945949" lon="12.394536789849742"><ele>382.0</ele><time>2026-04-19T09:05:00.026Z</time></trkpt><trkpt lat="42.560822373753126" lon="12.394633043570114"><ele>382.0</ele><time>2026-04-19T09:05:01.026Z</time></trkpt><trkpt lat="42.560646419156186" lon="12.394728823062147"><ele>382.0</ele><time>2026-04-19T09:05:02.027Z</time></trkpt><trkpt lat="42.56047993983152" lon="12.394827683757079"><ele>382.0</ele><time>2026-04-19T09:05:03.027Z</time></trkpt><trkpt lat="42.560318925677045" lon="12.394953786056059"><ele>382.0</ele><time>2026-04-19T09:05:04.027Z</time></trkpt><trkpt lat="42.560162970611735" lon="12.395104711652603"><ele>381.0</ele><time>2026-04-19T09:05:05.027Z</time></trkpt><trkpt lat="42.56002161647145" lon="12.395259963103245"><ele>380.0</ele><time>2026-04-19T09:05:06.027Z</time></trkpt><trkpt lat="42.55988450353598" lon="12.39540664094046"><ele>379.0</ele><time>2026-04-19T09:05:07.027Z</time></trkpt><trkpt lat="42.559745343835814" lon="12.395545001395142"><ele>379.0</ele><time>2026-04-19T09:05:08.027Z</time></trkpt><trkpt lat="42.55960917324315" lon="12.395687653384703"><ele>379.0</ele><time>2026-04-19T09:05:09.027Z</time></trkpt><trkpt lat="42.55947709891003" lon="12.395830891936303"><ele>379.0</ele><time>2026-04-19T09:05:10.027Z</time></trkpt><trkpt lat="42.559345392169895" lon="12.395969655883446"><ele>377.66666666666663</ele><time>2026-04-19T09:05:11.027Z</time></trkpt><trkpt lat="42.55921790120563" lon="12.396107635568175"><ele>376.3333333333333</ele><time>2026-04-19T09:05:12.027Z</time></trkpt><trkpt lat="42.559092366535296" lon="12.396243504010336"><ele>375.0</ele><time>2026-04-19T09:05:13.027Z</time></trkpt><trkpt lat="42.558968399776504" lon="12.396379595588623"><ele>375.0</ele><time>2026-04-19T09:05:14.027Z</time></trkpt><trkpt lat="42.5588456099593" lon="12.396500317434818"><ele>375.0</ele><time>2026-04-19T09:05:15.027Z</time></trkpt><trkpt lat="42.55873317853643" lon="12.39660406583717"><ele>375.0</ele><time>2026-04-19T09:05:16.027Z</time></trkpt><trkpt lat="42.55862816300006" lon="12.396671394902848"><ele>375.0</ele><time>2026-04-19T09:05:17.027Z</time></trkpt><trkpt lat="42.55852236818307" lon="12.396707333046976"><ele>373.25</ele><time>2026-04-19T09:05:18.027Z</time></trkpt><trkpt lat="42.55841014444709" lon="12.396691705063272"><ele>371.5</ele><time>2026-04-19T09:05:19.027Z</time></trkpt><trkpt lat="42.5583106134151" lon="12.396626298347197"><ele>369.75</ele><time>2026-04-19T09:05:20.027Z</time></trkpt><trkpt lat="42.55822003071558" lon="12.396531825591623"><ele>368.0</ele><time>2026-04-19T09:05:21.027Z</time></trkpt><trkpt lat="42.55812122660618" lon="12.39643409224889"><ele>364.5</ele><time>2026-04-19T09:05:22.027Z</time></trkpt><trkpt lat="42.55801703707677" lon="12.396332875161947"><ele>361.0</ele><time>2026-04-19T09:05:23.027Z</time></trkpt><trkpt lat="42.55790138512972" lon="12.396236512783998"><ele>357.5</ele><time>2026-04-19T09:05:24.027Z</time></trkpt><trkpt lat="42.55777698576257" lon="12.396153659387195"><ele>354.0</ele><time>2026-04-19T09:05:25.027Z</time></trkpt><trkpt lat="42.55764055007895" lon="12.396086775895618"><ele>353.5</ele><time>2026-04-19T09:05:26.027Z</time></trkpt><trkpt lat="42.557498284310384" lon="12.396032132234776"><ele>353.0</ele><time>2026-04-19T09:05:27.027Z</time></trkpt><trkpt lat="42.557361033584" lon="12.396020148157087"><ele>352.5</ele><time>2026-04-19T09:05:28.027Z</time></trkpt><trkpt lat="42.55722392759286" lon="12.396047509458198"><ele>352.0</ele><time>2026-04-19T09:05:29.027Z</time></trkpt><trkpt lat="42.557089271016686" lon="12.396125947906361"><ele>348.5</ele><time>2026-04-19T09:05:30.027Z</time></trkpt><trkpt lat="42.5569669983059" lon="12.39624779278468"><ele>345.0</ele><time>2026-04-19T09:05:31.027Z</time></trkpt><trkpt lat="42.556880903283016" lon="12.396396857033904"><ele>341.5</ele><time>2026-04-19T09:05:32.027Z</time></trkpt><trkpt lat="42.55683962069322" lon="12.396573153140984"><ele>338.0</ele><time>2026-04-19T09:05:33.027Z</time></trkpt><trkpt lat="42.55682820869643" lon="12.396747766939678"><ele>338.0</ele><time>2026-04-19T09:05:34.027Z</time></trkpt><trkpt lat="42.55681908700846" lon="12.396917360396852"><ele>338.0</ele><time>2026-04-19T09:05:35.027Z</time></trkpt><trkpt lat="42.55677253139242" lon="12.397075925648414"><ele>338.0</ele><time>2026-04-19T09:05:36.027Z</time></trkpt><trkpt lat="42.556687084890655" lon="12.397209619517502"><ele>338.0</ele><time>2026-04-19T09:05:37.027Z</time></trkpt><trkpt lat="42.55657086712659" lon="12.39731633111772"><ele>342.5</ele><time>2026-04-19T09:05:38.027Z</time></trkpt><trkpt lat="42.55643694331653" lon="12.397396032171164"><ele>347.0</ele><time>2026-04-19T09:05:39.027Z</time></trkpt><trkpt lat="42.55630398512726" lon="12.39747323238451"><ele>351.5</ele><time>2026-04-19T09:05:40.027Z</time></trkpt><trkpt lat="42.55618510520461" lon="12.397564862515509"><ele>356.0</ele><time>2026-04-19T09:05:41.027Z</time></trkpt><trkpt lat="42.55608726014346" lon="12.397668454201977"><ele>349.75</ele><time>2026-04-19T09:05:42.027Z</time></trkpt><trkpt lat="42.55601263535617" lon="12.397799968433032"><ele>343.5</ele><time>2026-04-19T09:05:43.027Z</time></trkpt><trkpt lat="42.555978417441615" lon="12.397972373770774"><ele>337.25</ele><time>2026-04-19T09:05:44.027Z</time></trkpt><trkpt lat="42.55597361096752" lon="12.398153064013833"><ele>331.0</ele><time>2026-04-19T09:05:45.027Z</time></trkpt><trkpt lat="42.55596866294614" lon="12.398344811310576"><ele>331.0</ele><time>2026-04-19T09:05:46.027Z</time></trkpt><trkpt lat="42.555928831036525" lon="12.398541044130278"><ele>331.0</ele><time>2026-04-19T09:05:47.027Z</time></trkpt><trkpt lat="42.555859506274864" lon="12.39873108575195"><ele>331.0</ele><time>2026-04-19T09:05:48.027Z</time></trkpt><trkpt lat="42.55576136034067" lon="12.398908081161947"><ele>340.0</ele><time>2026-04-19T09:05:49.026Z</time></trkpt><trkpt lat="42.555641618992205" lon="12.399083201563814"><ele>349.0</ele><time>2026-04-19T09:05:50.026Z</time></trkpt><trkpt lat="42.555525346673996" lon="12.399266659884939"><ele>358.0</ele><time>2026-04-19T09:05:51.026Z</time></trkpt><trkpt lat="42.55541090306524" lon="12.399457772690806"><ele>351.0</ele><time>2026-04-19T09:05:52.026Z</time></trkpt><trkpt lat="42.55529174583768" lon="12.399636071570406"><ele>344.0</ele><time>2026-04-19T09:05:53.026Z</time></trkpt><trkpt lat="42.555161208046016" lon="12.39979259881546"><ele>337.0</ele><time>2026-04-19T09:05:54.026Z</time></trkpt><trkpt lat="42.5550147890878" lon="12.39991513327861"><ele>337.0</ele><time>2026-04-19T09:05:55.026Z</time></trkpt><trkpt lat="42.554870719458506" lon="12.400025683200614"><ele>337.0</ele><time>2026-04-19T09:05:56.026Z</time></trkpt><trkpt lat="42.554754705010964" lon="12.400150656741532"><ele>337.0</ele><time>2026-04-19T09:05:57.026Z</time></trkpt><trkpt lat="42.554664600158496" lon="12.400269137853854"><ele>337.0</ele><time>2026-04-19T09:05:58.026Z</time></trkpt><trkpt lat="42.55461631450007" lon="12.400414588062025"><ele>338.5</ele><time>2026-04-19T09:05:59.026Z</time></trkpt><trkpt lat="42.55461675166763" lon="12.400576900881763"><ele>340.0</ele><time>2026-04-19T09:06:00.026Z</time></trkpt><trkpt lat="42.55464622987286" lon="12.400741887570454"><ele>341.5</ele><time>2026-04-19T09:06:01.026Z</time></trkpt><trkpt lat="42.55469455474099" lon="12.400924545232709"><ele>343.0</ele><time>2026-04-19T09:06:02.026Z</time></trkpt><trkpt lat="42.554757758358306" lon="12.401118003330568"><ele>343.0</ele><time>2026-04-19T09:06:03.026Z</time></trkpt><trkpt lat="42.554818904718246" lon="12.40132306830448"><ele>343.0</ele><time>2026-04-19T09:06:04.026Z</time></trkpt><trkpt lat="42.554872078007236" lon="12.40153217537945"><ele>343.0</ele><time>2026-04-19T09:06:05.026Z</time></trkpt><trkpt lat="42.55491990980518" lon="12.401733039394829"><ele>338.3333333333333</ele><time>2026-04-19T09:06:06.026Z</time></trkpt><trkpt lat="42.55496534887051" lon="12.401945690772399"><ele>333.6666666666667</ele><time>2026-04-19T09:06:07.026Z</time></trkpt><trkpt lat="42.55499447516242" lon="12.402174794335119"><ele>329.0</ele><time>2026-04-19T09:06:08.026Z</time></trkpt><trkpt lat="42.55500375198831" lon="12.402412598194257"><ele>327.0</ele><time>2026-04-19T09:06:09.026Z</time></trkpt><trkpt lat="42.55501076104189" lon="12.40265697731988"><ele>325.0</ele><time>2026-04-19T09:06:10.026Z</time></trkpt><trkpt lat="42.5550095436929" lon="12.402907592036113"><ele>323.0</ele><time>2026-04-19T09:06:11.026Z</time></trkpt><trkpt lat="42.55500438234669" lon="12.403160468730194"><ele>322.6666666666667</ele><time>2026-04-19T09:06:12.026Z</time></trkpt><trkpt lat="42.554999150595485" lon="12.403415214082843"><ele>322.3333333333333</ele><time>2026-04-19T09:06:13.026Z</time></trkpt><trkpt lat="42.55499843525302" lon="12.403661758855609"><ele>322.0</ele><time>2026-04-19T09:06:14.026Z</time></trkpt><trkpt lat="42.55499942245743" lon="12.40390457257555"><ele>321.0</ele><time>2026-04-19T09:06:15.026Z</time></trkpt><trkpt lat="42.554996116357835" lon="12.404137901743491"><ele>320.0</ele><time>2026-04-19T09:06:16.026Z</time></trkpt><trkpt lat="42.55499904312298" lon="12.404345183065793"><ele>319.0</ele><time>2026-04-19T09:06:17.026Z</time></trkpt><trkpt lat="42.55501747318691" lon="12.404540541936255"><ele>316.25</ele><time>2026-04-19T09:06:18.026Z</time></trkpt><trkpt lat="42.5550621230014" lon="12.404728633781973"><ele>313.5</ele><time>2026-04-19T09:06:19.026Z</time></trkpt><trkpt lat="42.55512125132319" lon="12.404901826765677"><ele>310.75</ele><time>2026-04-19T09:06:20.026Z</time></trkpt><trkpt lat="42.5552040982369" lon="12.405052255574363"><ele>308.0</ele><time>2026-04-19T09:06:21.026Z</time></trkpt><trkpt lat="42.55530148740175" lon="12.405164101071335"><ele>311.0</ele><time>2026-04-19T09:06:22.026Z</time></trkpt><trkpt lat="42.555416184338185" lon="12.405232355582287"><ele>314.0</ele><time>2026-04-19T09:06:23.026Z</time></trkpt><trkpt lat="42.55553720024947" lon="12.405247748774581"><ele>317.0</ele><time>2026-04-19T09:06:24.026Z</time></trkpt><trkpt lat="42.55567379103857" lon="12.40523243350962"><ele>320.0</ele><time>2026-04-19T09:06:25.026Z</time></trkpt><trkpt lat="42.55581464275932" lon="12.405214116653022"><ele>320.0</ele><time>2026-04-19T09:06:26.026Z</time></trkpt><trkpt lat="42.55596267480609" lon="12.405196812188661"><ele>320.0</ele><time>2026-04-19T09:06:27.026Z</time></trkpt><trkpt lat="42.55610764121946" lon="12.405177766067006"><ele>320.0</ele><time>2026-04-19T09:06:28.026Z</time></trkpt><trkpt lat="42.5562491417708" lon="12.405183907497316"><ele>320.0</ele><time>2026-04-19T09:06:29.026Z</time></trkpt><trkpt lat="42.55639206258207" lon="12.405231599258594"><ele>320.6666666666667</ele><time>2026-04-19T09:06:30.026Z</time></trkpt><trkpt lat="42.556533927343445" lon="12.40531242280536"><ele>321.3333333333333</ele><time>2026-04-19T09:06:31.026Z</time></trkpt><trkpt lat="42.55667517660247" lon="12.405410854200644"><ele>322.0</ele><time>2026-04-19T09:06:32.026Z</time></trkpt><trkpt lat="42.5568141899319" lon="12.405503352940647"><ele>318.3333333333333</ele><time>2026-04-19T09:06:33.026Z</time></trkpt><trkpt lat="42.55695211152217" lon="12.40560441091005"><ele>314.6666666666667</ele><time>2026-04-19T09:06:34.026Z</time></trkpt><trkpt lat="42.557097074429805" lon="12.405701194946078"><ele>311.0</ele><time>2026-04-19T09:06:35.026Z</time></trkpt><trkpt lat="42.557245341264135" lon="12.405794996221463"><ele>311.0</ele><time>2026-04-19T09:06:36.026Z</time></trkpt><trkpt lat="42.55739247488948" lon="12.405882806997827"><ele>311.0</ele><time>2026-04-19T09:06:37.026Z</time></trkpt><trkpt lat="42.55754215513729" lon="12.405984647394044"><ele>311.0</ele><time>2026-04-19T09:06:38.026Z</time></trkpt><trkpt lat="42.55769394236407" lon="12.406076350341394"><ele>311.0</ele><time>2026-04-19T09:06:39.026Z</time></trkpt><trkpt lat="42.55784885003496" lon="12.406167077346334"><ele>311.0</ele><time>2026-04-19T09:06:40.026Z</time></trkpt><trkpt lat="42.55800070259154" lon="12.406265352800768"><ele>311.0</ele><time>2026-04-19T09:06:41.026Z</time></trkpt><trkpt lat="42.55815278475877" lon="12.406365602539317"><ele>306.6666666666667</ele><time>2026-04-19T09:06:42.026Z</time></trkpt><trkpt lat="42.55830754507983" lon="12.406463522577724"><ele>302.3333333333333</ele><time>2026-04-19T09:06:43.026Z</time></trkpt><trkpt lat="42.5584689207182" lon="12.406554170414534"><ele>298.0</ele><time>2026-04-19T09:06:44.026Z</time></trkpt><trkpt lat="42.558628330817434" lon="12.406648987528262"><ele>304.66666666666663</ele><time>2026-04-19T09:06:45.026Z</time></trkpt><trkpt lat="42.55878366390411" lon="12.406742262230898"><ele>311.3333333333333</ele><time>2026-04-19T09:06:46.026Z</time></trkpt><trkpt lat="42.55893710201585" lon="12.406830406307753"><ele>318.0</ele><time>2026-04-19T09:06:47.026Z</time></trkpt><trkpt lat="42.55909032095226" lon="12.406919694920859"><ele>318.0</ele><time>2026-04-19T09:06:48.026Z</time></trkpt><trkpt lat="42.55923442714101" lon="12.407030849713907"><ele>318.0</ele><time>2026-04-19T09:06:49.026Z</time></trkpt><trkpt lat="42.559369234728955" lon="12.407161841837114"><ele>318.0</ele><time>2026-04-19T09:06:50.026Z</time></trkpt><trkpt lat="42.55949618243715" lon="12.407300018627016"><ele>317.3333333333333</ele><time>2026-04-19T09:06:51.026Z</time></trkpt><trkpt lat="42.55960871600969" lon="12.407465637694656"><ele>316.66666666666663</ele><time>2026-04-19T09:06:52.026Z</time></trkpt><trkpt lat="42.559737020529944" lon="12.407622600755921"><ele>316.0</ele><time>2026-04-19T09:06:53.026Z</time></trkpt><trkpt lat="42.55986585018077" lon="12.407778158553175"><ele>316.0</ele><time>2026-04-19T09:06:54.026Z</time></trkpt><trkpt lat="42.55999796575323" lon="12.40793956525887"><ele>316.0</ele><time>2026-04-19T09:06:55.026Z</time></trkpt><trkpt lat="42.56012404522849" lon="12.408097124104893"><ele>316.0</ele><time>2026-04-19T09:06:56.026Z</time></trkpt><trkpt lat="42.56024954140268" lon="12.408252754281396"><ele>321.0</ele><time>2026-04-19T09:06:57.028Z</time></trkpt><trkpt lat="42.56037958558685" lon="12.408411828733694"><ele>326.0</ele><time>2026-04-19T09:06:58.028Z</time></trkpt><trkpt lat="42.56050231240174" lon="12.408563935228939"><ele>331.0</ele><time>2026-04-19T09:06:59.028Z</time></trkpt><trkpt lat="42.56061805037796" lon="12.408716261827827"><ele>319.66666666666663</ele><time>2026-04-19T09:07:00.028Z</time></trkpt><trkpt lat="42.560723617435876" lon="12.408868122638172"><ele>308.3333333333333</ele><time>2026-04-19T09:07:01.027Z</time></trkpt><trkpt lat="42.56080019354539" lon="12.409045139666274"><ele>297.0</ele><time>2026-04-19T09:07:02.027Z</time></trkpt><trkpt lat="42.56085663959769" lon="12.40924641824042"><ele>297.0</ele><time>2026-04-19T09:07:03.028Z</time></trkpt><trkpt lat="42.56090962612399" lon="12.409481434372525"><ele>297.0</ele><time>2026-04-19T09:07:04.027Z</time></trkpt><trkpt lat="42.560963296906024" lon="12.409722791097549"><ele>297.0</ele><time>2026-04-19T09:07:05.027Z</time></trkpt><trkpt lat="42.561016340559746" lon="12.409956112510171"><ele>289.6666666666667</ele><time>2026-04-19T09:07:06.028Z</time></trkpt><trkpt lat="42.56106980610998" lon="12.4101977564126"><ele>282.33333333333337</ele><time>2026-04-19T09:07:07.028Z</time></trkpt><trkpt lat="42.561125269192225" lon="12.410432654885177"><ele>275.0</ele><time>2026-04-19T09:07:08.028Z</time></trkpt><trkpt lat="42.56118311576157" lon="12.410659453691412"><ele>284.6666666666667</ele><time>2026-04-19T09:07:09.028Z</time></trkpt><trkpt lat="42.56125229630009" lon="12.410890947902649"><ele>294.3333333333333</ele><time>2026-04-19T09:07:10.028Z</time></trkpt><trkpt lat="42.56134127603888" lon="12.411118322562775"><ele>304.0</ele><time>2026-04-19T09:07:11.028Z</time></trkpt><trkpt lat="42.56143938349306" lon="12.41131989034954"><ele>296.75</ele><time>2026-04-19T09:07:12.028Z</time></trkpt><trkpt lat="42.561539440560466" lon="12.41146156694582"><ele>289.5</ele><time>2026-04-19T09:07:13.028Z</time></trkpt><trkpt lat="42.56158890354953" lon="12.411609038415033"><ele>282.25</ele><time>2026-04-19T09:07:14.028Z</time></trkpt><trkpt lat="42.56163287426138" lon="12.411734454310396"><ele>275.0</ele><time>2026-04-19T09:07:15.028Z</time></trkpt><trkpt lat="42.561638585139065" lon="12.411854753975302"><ele>275.0</ele><time>2026-04-19T09:07:16.028Z</time></trkpt><trkpt lat="42.56161270973487" lon="12.41197025403412"><ele>275.0</ele><time>2026-04-19T09:07:17.028Z</time></trkpt><trkpt lat="42.56155072428993" lon="12.412045772201607"><ele>275.0</ele><time>2026-04-19T09:07:18.028Z</time></trkpt><trkpt lat="42.561503901797295" lon="12.41213088392691"><ele>275.0</ele><time>2026-04-19T09:07:19.028Z</time></trkpt><trkpt lat="42.56144753567153" lon="12.412211754733084"><ele>275.0</ele><time>2026-04-19T09:07:20.028Z</time></trkpt><trkpt lat="42.56137914942626" lon="12.412259659691564"><ele>275.0</ele><time>2026-04-19T09:07:21.028Z</time></trkpt><trkpt lat="42.56131054998271" lon="12.412339705857997"><ele>276.2</ele><time>2026-04-19T09:07:22.028Z</time></trkpt><trkpt lat="42.56121633961535" lon="12.412377950605235"><ele>277.4</ele><time>2026-04-19T09:07:23.028Z</time></trkpt><trkpt lat="42.56112607191465" lon="12.412417581478866"><ele>278.6</ele><time>2026-04-19T09:07:24.028Z</time></trkpt><trkpt lat="42.56103643175242" lon="12.412441328450813"><ele>279.8</ele><time>2026-04-19T09:07:25.028Z</time></trkpt><trkpt lat="42.56094428586122" lon="12.412430447824022"><ele>281.0</ele><time>2026-04-19T09:07:26.028Z</time></trkpt><trkpt lat="42.560852082998" lon="12.412383612812553"><ele>281.0</ele><time>2026-04-19T09:07:27.028Z</time></trkpt><trkpt lat="42.560757339620785" lon="12.41231906145177"><ele>281.0</ele><time>2026-04-19T09:07:28.028Z</time></trkpt><trkpt lat="42.5606668976486" lon="12.412237979810762"><ele>281.0</ele><time>2026-04-19T09:07:29.028Z</time></trkpt><trkpt lat="42.560601801370844" lon="12.41212071881017"><ele>281.0</ele><time>2026-04-19T09:07:30.027Z</time></trkpt><trkpt lat="42.560512181077534" lon="12.412027026690504"><ele>281.0</ele><time>2026-04-19T09:07:31.027Z</time></trkpt><trkpt lat="42.56042619391643" lon="12.411923256041245"><ele>289.75</ele><time>2026-04-19T09:07:32.027Z</time></trkpt><trkpt lat="42.56035002940586" lon="12.411807049116002"><ele>298.5</ele><time>2026-04-19T09:07:33.027Z</time></trkpt><trkpt lat="42.56028534173199" lon="12.41168715982958"><ele>307.25</ele><time>2026-04-19T09:07:34.027Z</time></trkpt><trkpt lat="42.56023242460408" lon="12.411540927788375"><ele>316.0</ele><time>2026-04-19T09:07:35.027Z</time></trkpt><trkpt lat="42.560175286360355" lon="12.411374293083217"><ele>308.0</ele><time>2026-04-19T09:07:36.027Z</time></trkpt><trkpt lat="42.560115564696034" lon="12.411202982862719"><ele>300.0</ele><time>2026-04-19T09:07:37.027Z</time></trkpt><trkpt lat="42.56005231270396" lon="12.411032254278128"><ele>292.0</ele><time>2026-04-19T09:07:38.027Z</time></trkpt><trkpt lat="42.55998266606285" lon="12.41086763563548"><ele>284.0</ele><time>2026-04-19T09:07:39.027Z</time></trkpt><trkpt lat="42.559906171942636" lon="12.410690000347579"><ele>284.0</ele><time>2026-04-19T09:07:40.027Z</time></trkpt><trkpt lat="42.55982786462167" lon="12.410505814590447"><ele>284.0</ele><time>2026-04-19T09:07:41.027Z</time></trkpt><trkpt lat="42.55974424032002" lon="12.410342511991376"><ele>284.0</ele><time>2026-04-19T09:07:42.027Z</time></trkpt><trkpt lat="42.55965575428698" lon="12.41018424885694"><ele>284.0</ele><time>2026-04-19T09:07:43.027Z</time></trkpt><trkpt lat="42.55955182946463" lon="12.410033230089638"><ele>290.33333333333337</ele><time>2026-04-19T09:07:44.027Z</time></trkpt><trkpt lat="42.55942573838553" lon="12.409891052212508"><ele>296.6666666666667</ele><time>2026-04-19T09:07:45.027Z</time></trkpt><trkpt lat="42.5592773857413" lon="12.409789432355645"><ele>303.0</ele><time>2026-04-19T09:07:46.027Z</time></trkpt><trkpt lat="42.559114631863835" lon="12.409699489368125"><ele>298.0</ele><time>2026-04-19T09:07:47.027Z</time></trkpt><trkpt lat="42.55895272559746" lon="12.409597022747516"><ele>293.0</ele><time>2026-04-19T09:07:48.027Z</time></trkpt><trkpt lat="42.5588022386533" lon="12.409493332568125"><ele>288.0</ele><time>2026-04-19T09:07:49.027Z</time></trkpt><trkpt lat="42.55865131343666" lon="12.409396240976239"><ele>288.0</ele><time>2026-04-19T09:07:50.027Z</time></trkpt><trkpt lat="42.55849724838887" lon="12.409311186575351"><ele>288.0</ele><time>2026-04-19T09:07:51.027Z</time></trkpt><trkpt lat="42.5583352777684" lon="12.409249008878186"><ele>288.0</ele><time>2026-04-19T09:07:52.027Z</time></trkpt><trkpt lat="42.55817162267228" lon="12.409213015816167"><ele>288.0</ele><time>2026-04-19T09:07:53.027Z</time></trkpt><trkpt lat="42.5580185708926" lon="12.409163357166197"><ele>288.0</ele><time>2026-04-19T09:07:54.027Z</time></trkpt><trkpt lat="42.55786098067233" lon="12.40914144993268"><ele>288.0</ele><time>2026-04-19T09:07:55.027Z</time></trkpt><trkpt lat="42.55770499674341" lon="12.409099545705372"><ele>290.6666666666667</ele><time>2026-04-19T09:07:56.027Z</time></trkpt><trkpt lat="42.55754723778638" lon="12.40906947700699"><ele>293.33333333333337</ele><time>2026-04-19T09:07:57.027Z</time></trkpt><trkpt lat="42.55739707163537" lon="12.409044370306285"><ele>296.0</ele><time>2026-04-19T09:07:58.027Z</time></trkpt><trkpt lat="42.55725382176003" lon="12.409024273844812"><ele>296.0</ele><time>2026-04-19T09:07:59.027Z</time></trkpt><trkpt lat="42.55711477246032" lon="12.409041667865907"><ele>296.0</ele><time>2026-04-19T09:08:00.027Z</time></trkpt><trkpt lat="42.5569861977242" lon="12.40909679138815"><ele>296.0</ele><time>2026-04-19T09:08:01.027Z</time></trkpt><trkpt lat="42.556881659063265" lon="12.409193504481724"><ele>296.0</ele><time>2026-04-19T09:08:02.027Z</time></trkpt><trkpt lat="42.556806764254844" lon="12.409334012594874"><ele>296.25</ele><time>2026-04-19T09:08:03.027Z</time></trkpt><trkpt lat="42.55676657719744" lon="12.409502445747089"><ele>296.5</ele><time>2026-04-19T09:08:04.027Z</time></trkpt><trkpt lat="42.556739282713046" lon="12.409686664913103"><ele>296.75</ele><time>2026-04-19T09:08:05.027Z</time></trkpt><trkpt lat="42.55672679162875" lon="12.409890413780262"><ele>297.0</ele><time>2026-04-19T09:08:06.027Z</time></trkpt><trkpt lat="42.55671754148207" lon="12.410100444050096"><ele>297.0</ele><time>2026-04-19T09:08:07.027Z</time></trkpt><trkpt lat="42.55670979452673" lon="12.410306573757298"><ele>297.0</ele><time>2026-04-19T09:08:08.027Z</time></trkpt><trkpt lat="42.556711029589934" lon="12.410520191440932"><ele>297.0</ele><time>2026-04-19T09:08:09.027Z</time></trkpt><trkpt lat="42.55672825678067" lon="12.410730225326967"><ele>297.5</ele><time>2026-04-19T09:08:10.027Z</time></trkpt><trkpt lat="42.55675327021599" lon="12.41092961225698"><ele>298.0</ele><time>2026-04-19T09:08:11.027Z</time></trkpt><trkpt lat="42.556769486640356" lon="12.411113930923875"><ele>298.5</ele><time>2026-04-19T09:08:12.027Z</time></trkpt><trkpt lat="42.556766502305194" lon="12.411287531260786"><ele>299.0</ele><time>2026-04-19T09:08:13.027Z</time></trkpt><trkpt lat="42.556724854685044" lon="12.411433538933508"><ele>302.75</ele><time>2026-04-19T09:08:14.027Z</time></trkpt><trkpt lat="42.55664027426449" lon="12.411572351138295"><ele>306.5</ele><time>2026-04-19T09:08:15.027Z</time></trkpt><trkpt lat="42.55653087566644" lon="12.411689544832718"><ele>310.25</ele><time>2026-04-19T09:08:16.027Z</time></trkpt><trkpt lat="42.55640751050021" lon="12.411814940168346"><ele>314.0</ele><time>2026-04-19T09:08:17.027Z</time></trkpt><trkpt lat="42.556289686856175" lon="12.411947327993776"><ele>315.0</ele><time>2026-04-19T09:08:18.027Z</time></trkpt><trkpt lat="42.55616616933175" lon="12.41208169079614"><ele>316.0</ele><time>2026-04-19T09:08:19.027Z</time></trkpt><trkpt lat="42.5560434151902" lon="12.412219378616015"><ele>317.0</ele><time>2026-04-19T09:08:20.027Z</time></trkpt><trkpt lat="42.55592200045027" lon="12.412344165354744"><ele>317.0</ele><time>2026-04-19T09:08:21.027Z</time></trkpt><trkpt lat="42.555801557185944" lon="12.412461248797893"><ele>317.0</ele><time>2026-04-19T09:08:22.027Z</time></trkpt><trkpt lat="42.555676871920824" lon="12.412556567133546"><ele>317.0</ele><time>2026-04-19T09:08:23.027Z</time></trkpt><trkpt lat="42.555526704556215" lon="12.412570945457784"><ele>317.0</ele><time>2026-04-19T09:08:24.027Z</time></trkpt><trkpt lat="42.55536267215141" lon="12.41258476632698"><ele>313.33333333333337</ele><time>2026-04-19T09:08:25.027Z</time></trkpt><trkpt lat="42.555197861103515" lon="12.412545330539096"><ele>309.6666666666667</ele><time>2026-04-19T09:08:26.027Z</time></trkpt><trkpt lat="42.555044204979495" lon="12.412528636836512"><ele>306.0</ele><time>2026-04-19T09:08:27.027Z</time></trkpt><trkpt lat="42.554899066420035" lon="12.412510047791457"><ele>306.0</ele><time>2026-04-19T09:08:28.027Z</time></trkpt><trkpt lat="42.55476269786041" lon="12.41251265575085"><ele>306.0</ele><time>2026-04-19T09:08:29.027Z</time></trkpt><trkpt lat="42.55464407401835" lon="12.412560621093714"><ele>306.0</ele><time>2026-04-19T09:08:30.027Z</time></trkpt><trkpt lat="42.554543926843245" lon="12.412650617197443"><ele>306.0</ele><time>2026-04-19T09:08:31.027Z</time></trkpt><trkpt lat="42.55445802353679" lon="12.412783232779132"><ele>305.25</ele><time>2026-04-19T09:08:32.027Z</time></trkpt><trkpt lat="42.55439693111126" lon="12.412934257122656"><ele>304.5</ele><time>2026-04-19T09:08:33.027Z</time></trkpt><trkpt lat="42.554346922871176" lon="12.41310486490901"><ele>303.75</ele><time>2026-04-19T09:08:34.027Z</time></trkpt><trkpt lat="42.5542895548583" lon="12.413278278405306"><ele>303.0</ele><time>2026-04-19T09:08:35.027Z</time></trkpt><trkpt lat="42.55423448511274" lon="12.41345153999964"><ele>305.75</ele><time>2026-04-19T09:08:36.027Z</time></trkpt><trkpt lat="42.55417604278428" lon="12.413617729428394"><ele>308.5</ele><time>2026-04-19T09:08:37.027Z</time></trkpt><trkpt lat="42.554123580331925" lon="12.413792468716208"><ele>311.25</ele><time>2026-04-19T09:08:38.027Z</time></trkpt><trkpt lat="42.55407037617653" lon="12.413963672456317"><ele>314.0</ele><time>2026-04-19T09:08:39.027Z</time></trkpt><trkpt lat="42.55401831114713" lon="12.41412766584472"><ele>315.0</ele><time>2026-04-19T09:08:40.027Z</time></trkpt><trkpt lat="42.55397330715503" lon="12.414285315864516"><ele>316.0</ele><time>2026-04-19T09:08:41.027Z</time></trkpt><trkpt lat="42.55392838198074" lon="12.414430845540627"><ele>317.0</ele><time>2026-04-19T09:08:42.027Z</time></trkpt><trkpt lat="42.55388244299038" lon="12.414572248644564"><ele>318.0</ele><time>2026-04-19T09:08:43.027Z</time></trkpt><trkpt lat="42.55383592392315" lon="12.414710491647373"><ele>317.25</ele><time>2026-04-19T09:08:44.027Z</time></trkpt><trkpt lat="42.553792657607126" lon="12.414852194019586"><ele>316.5</ele><time>2026-04-19T09:08:45.027Z</time></trkpt><trkpt lat="42.55374853899539" lon="12.414997465968343"><ele>315.75</ele><time>2026-04-19T09:08:46.027Z</time></trkpt><trkpt lat="42.55369957608361" lon="12.415145668693288"><ele>315.0</ele><time>2026-04-19T09:08:47.027Z</time></trkpt><trkpt lat="42.55364946468688" lon="12.41530069378564"><ele>315.0</ele><time>2026-04-19T09:08:48.027Z</time></trkpt><trkpt lat="42.55360044717169" lon="12.415460250507458"><ele>315.0</ele><time>2026-04-19T09:08:49.027Z</time></trkpt><trkpt lat="42.553555382905614" lon="12.415618661989987"><ele>315.0</ele><time>2026-04-19T09:08:50.027Z</time></trkpt><trkpt lat="42.55351104434105" lon="12.415757508424145"><ele>315.0</ele><time>2026-04-19T09:08:51.027Z</time></trkpt><trkpt lat="42.553472596802436" lon="12.415892674210248"><ele>316.5</ele><time>2026-04-19T09:08:52.027Z</time></trkpt><trkpt lat="42.55343985267206" lon="12.41601551975886"><ele>318.0</ele><time>2026-04-19T09:08:53.027Z</time></trkpt><trkpt lat="42.55341454062846" lon="12.416129322465691"><ele>319.5</ele><time>2026-04-19T09:08:54.027Z</time></trkpt><trkpt lat="42.553398936331725" lon="12.41623147526811"><ele>321.0</ele><time>2026-04-19T09:08:55.027Z</time></trkpt><trkpt lat="42.55339733455258" lon="12.416330631380857"><ele>322.5</ele><time>2026-04-19T09:08:56.027Z</time></trkpt><trkpt lat="42.553397815441826" lon="12.416420463317596"><ele>324.0</ele><time>2026-04-19T09:08:57.027Z</time></trkpt><trkpt lat="42.55341254792534" lon="12.41658280541467"><ele>324.8333333333333</ele><time>2026-04-19T09:08:59.027Z</time></trkpt><trkpt lat="42.55342490470618" lon="12.416667820323696"><ele>325.6666666666667</ele><time>2026-04-19T09:09:00.027Z</time></trkpt><trkpt lat="42.55343552342103" lon="12.416758272017088"><ele>326.5</ele><time>2026-04-19T09:09:01.027Z</time></trkpt><trkpt lat="42.55344816230954" lon="12.41684548488051"><ele>327.33333333333337</ele><time>2026-04-19T09:09:02.027Z</time></trkpt><trkpt lat="42.55348901624949" lon="12.417002581244184"><ele>328.1666666666667</ele><time>2026-04-19T09:09:04.029Z</time></trkpt><trkpt lat="42.55351298309573" lon="12.417088921990146"><ele>329.0</ele><time>2026-04-19T09:09:05.029Z</time></trkpt><trkpt lat="42.55353520830836" lon="12.417179100549072"><ele>329.14285714285717</ele><time>2026-04-19T09:09:06.029Z</time></trkpt><trkpt lat="42.55355169715293" lon="12.417271370875698"><ele>329.2857142857143</ele><time>2026-04-19T09:09:07.028Z</time></trkpt><trkpt lat="42.553570637068894" lon="12.417354171916733"><ele>329.42857142857144</ele><time>2026-04-19T09:09:08.028Z</time></trkpt><trkpt lat="42.553590470412374" lon="12.41743756088478"><ele>329.57142857142856</ele><time>2026-04-19T09:09:09.029Z</time></trkpt><trkpt lat="42.55361445602467" lon="12.417524203451078"><ele>329.7142857142857</ele><time>2026-04-19T09:09:10.029Z</time></trkpt><trkpt lat="42.55364032076095" lon="12.417613823684725"><ele>329.8571428571429</ele><time>2026-04-19T09:09:11.029Z</time></trkpt><trkpt lat="42.55367485965744" lon="12.417695445910057"><ele>330.0</ele><time>2026-04-19T09:09:12.029Z</time></trkpt><trkpt lat="42.55371327567127" lon="12.417768291632473"><ele>330.28571428571433</ele><time>2026-04-19T09:09:13.029Z</time></trkpt><trkpt lat="42.553756231422064" lon="12.417839006675171"><ele>330.57142857142856</ele><time>2026-04-19T09:09:14.029Z</time></trkpt><trkpt lat="42.553799777752864" lon="12.417907696138924"><ele>330.8571428571429</ele><time>2026-04-19T09:09:15.029Z</time></trkpt><trkpt lat="42.55383945120536" lon="12.417974191394782"><ele>331.14285714285717</ele><time>2026-04-19T09:09:16.029Z</time></trkpt><trkpt lat="42.553888122348496" lon="12.418037792503256"><ele>331.42857142857144</ele><time>2026-04-19T09:09:17.029Z</time></trkpt><trkpt lat="42.55394309875544" lon="12.418104548701836"><ele>331.7142857142857</ele><time>2026-04-19T09:09:18.029Z</time></trkpt><trkpt lat="42.553979791071136" lon="12.418205482869553"><ele>332.0</ele><time>2026-04-19T09:09:19.029Z</time></trkpt><trkpt lat="42.55402133603255" lon="12.418293804079498"><ele>332.0</ele><time>2026-04-19T09:09:20.029Z</time></trkpt><trkpt lat="42.55406538502417" lon="12.418392637915568"><ele>332.0</ele><time>2026-04-19T09:09:21.029Z</time></trkpt><trkpt lat="42.554108269208776" lon="12.418497592098586"><ele>332.0</ele><time>2026-04-19T09:09:22.029Z</time></trkpt><trkpt lat="42.554141452396756" lon="12.418603482272271"><ele>332.0</ele><time>2026-04-19T09:09:23.029Z</time></trkpt><trkpt lat="42.55416523113403" lon="12.418717180179213"><ele>332.0</ele><time>2026-04-19T09:09:24.029Z</time></trkpt><trkpt lat="42.554185806293674" lon="12.418840003766434"><ele>332.0</ele><time>2026-04-19T09:09:25.029Z</time></trkpt><trkpt lat="42.554203185042866" lon="12.418967290727045"><ele>332.1666666666667</ele><time>2026-04-19T09:09:26.029Z</time></trkpt><trkpt lat="42.55421377588934" lon="12.419090997516786"><ele>332.33333333333337</ele><time>2026-04-19T09:09:27.029Z</time></trkpt><trkpt lat="42.55421956196284" lon="12.419206432561891"><ele>332.5</ele><time>2026-04-19T09:09:28.029Z</time></trkpt><trkpt lat="42.55422155305676" lon="12.419311801145822"><ele>332.6666666666667</ele><time>2026-04-19T09:09:29.029Z</time></trkpt><trkpt lat="42.55422047557943" lon="12.419415885633432"><ele>332.8333333333333</ele><time>2026-04-19T09:09:30.029Z</time></trkpt><trkpt lat="42.554216638043236" lon="12.419511061731711"><ele>333.0</ele><time>2026-04-19T09:09:31.029Z</time></trkpt><trkpt lat="42.55420941908478" lon="12.41960611136889"><ele>333.2</ele><time>2026-04-19T09:09:32.029Z</time></trkpt><trkpt lat="42.55420267295709" lon="12.41969493569331"><ele>333.4</ele><time>2026-04-19T09:09:33.029Z</time></trkpt><trkpt lat="42.55419319581534" lon="12.419780516149483"><ele>333.59999999999997</ele><time>2026-04-19T09:09:34.029Z</time></trkpt><trkpt lat="42.55417454615365" lon="12.419938317714754"><ele>333.79999999999995</ele><time>2026-04-19T09:09:36.029Z</time></trkpt><trkpt lat="42.55415806238363" lon="12.420105361545723"><ele>334.0</ele><time>2026-04-19T09:09:38.029Z</time></trkpt><trkpt lat="42.55412732764185" lon="12.420257557635491"><ele>334.0</ele><time>2026-04-19T09:09:40.029Z</time></trkpt><trkpt lat="42.554099594437325" lon="12.420395159206839"><ele>334.0</ele><time>2026-04-19T09:09:42.029Z</time></trkpt><trkpt lat="42.554061469059455" lon="12.420536407801244"><ele>334.0</ele><time>2026-04-19T09:09:44.028Z</time></trkpt><trkpt lat="42.554024141582126" lon="12.420689106088592"><ele>334.0</ele><time>2026-04-19T09:09:46.028Z</time></trkpt><trkpt lat="42.554014747080345" lon="12.420784583065785"><ele>334.0</ele><time>2026-04-19T09:09:47.028Z</time></trkpt><trkpt lat="42.5539946639492" lon="12.420871154264699"><ele>334.0</ele><time>2026-04-19T09:09:48.028Z</time></trkpt><trkpt lat="42.553969513625844" lon="12.42096497810603"><ele>334.0</ele><time>2026-04-19T09:09:49.028Z</time></trkpt><trkpt lat="42.55394485274536" lon="12.42105859534886"><ele>334.0</ele><time>2026-04-19T09:09:50.028Z</time></trkpt><trkpt lat="42.55392487177038" lon="12.421146539955885"><ele>334.0</ele><time>2026-04-19T09:09:51.028Z</time></trkpt><trkpt lat="42.553906467993194" lon="12.421244914788133"><ele>334.0</ele><time>2026-04-19T09:09:52.028Z</time></trkpt><trkpt lat="42.55388905544966" lon="12.421344888017837"><ele>334.0</ele><time>2026-04-19T09:09:53.028Z</time></trkpt><trkpt lat="42.55387089554391" lon="12.42145431465203"><ele>334.0</ele><time>2026-04-19T09:09:54.028Z</time></trkpt><trkpt lat="42.55383180385831" lon="12.421563513331815"><ele>334.0</ele><time>2026-04-19T09:09:55.028Z</time></trkpt><trkpt lat="42.55381159788978" lon="12.42167625828068"><ele>334.0</ele><time>2026-04-19T09:09:56.028Z</time></trkpt><trkpt lat="42.5537884807002" lon="12.421778468022964"><ele>334.0</ele><time>2026-04-19T09:09:57.028Z</time></trkpt><trkpt lat="42.55376931377853" lon="12.42187664492632"><ele>334.0</ele><time>2026-04-19T09:09:58.028Z</time></trkpt><trkpt lat="42.5537514639297" lon="12.421973690087466"><ele>334.0</ele><time>2026-04-19T09:09:59.028Z</time></trkpt><trkpt lat="42.55373699122207" lon="12.422066281517903"><ele>334.0</ele><time>2026-04-19T09:10:00.028Z</time></trkpt><trkpt lat="42.5537313537945" lon="12.422167226891547"><ele>333.8333333333333</ele><time>2026-04-19T09:10:01.028Z</time></trkpt><trkpt lat="42.55372437055998" lon="12.422268071404115"><ele>333.66666666666663</ele><time>2026-04-19T09:10:02.028Z</time></trkpt><trkpt lat="42.55372728533146" lon="12.422373001973481"><ele>333.5</ele><time>2026-04-19T09:10:03.028Z</time></trkpt><trkpt lat="42.553734010423746" lon="12.422487529126686"><ele>333.3333333333333</ele><time>2026-04-19T09:10:04.028Z</time></trkpt><trkpt lat="42.55375980025866" lon="12.422614730558452"><ele>333.1666666666667</ele><time>2026-04-19T09:10:05.028Z</time></trkpt><trkpt lat="42.55380049967733" lon="12.422751345603993"><ele>333.0</ele><time>2026-04-19T09:10:06.028Z</time></trkpt><trkpt lat="42.55385126283244" lon="12.422897247421263"><ele>335.0</ele><time>2026-04-19T09:10:07.028Z</time></trkpt><trkpt lat="42.55390534694123" lon="12.423054179673281"><ele>337.0</ele><time>2026-04-19T09:10:08.028Z</time></trkpt><trkpt lat="42.553967066241505" lon="12.423213454244118"><ele>339.0</ele><time>2026-04-19T09:10:09.028Z</time></trkpt><trkpt lat="42.55402170056805" lon="12.423378209474564"><ele>341.0</ele><time>2026-04-19T09:10:10.028Z</time></trkpt><trkpt lat="42.554129711519806" lon="12.42349866995342"><ele>341.0</ele><time>2026-04-19T09:10:11.028Z</time></trkpt><trkpt lat="42.554255151872404" lon="12.423595145017757"><ele>341.0</ele><time>2026-04-19T09:10:12.028Z</time></trkpt><trkpt lat="42.55438359098284" lon="12.423679583157801"><ele>341.0</ele><time>2026-04-19T09:10:13.028Z</time></trkpt><trkpt lat="42.55449625514492" lon="12.423789747558331"><ele>341.0</ele><time>2026-04-19T09:10:14.028Z</time></trkpt><trkpt lat="42.55459794402501" lon="12.423893342396639"><ele>341.5</ele><time>2026-04-19T09:10:15.028Z</time></trkpt><trkpt lat="42.55467893826965" lon="12.424020323759278"><ele>342.0</ele><time>2026-04-19T09:10:16.028Z</time></trkpt><trkpt lat="42.55474523312837" lon="12.424179010005059"><ele>342.5</ele><time>2026-04-19T09:10:17.028Z</time></trkpt><trkpt lat="42.55480556801071" lon="12.424348413815432"><ele>343.0</ele><time>2026-04-19T09:10:18.028Z</time></trkpt><trkpt lat="42.55486874808259" lon="12.424524728338104"><ele>345.0</ele><time>2026-04-19T09:10:19.028Z</time></trkpt><trkpt lat="42.55492089991112" lon="12.42470249633392"><ele>347.0</ele><time>2026-04-19T09:10:20.028Z</time></trkpt><trkpt lat="42.55498701861161" lon="12.42487499093455"><ele>349.0</ele><time>2026-04-19T09:10:21.028Z</time></trkpt><trkpt lat="42.5550485864362" lon="12.425051718999612"><ele>351.0</ele><time>2026-04-19T09:10:22.028Z</time></trkpt><trkpt lat="42.555118412346864" lon="12.425226246294857"><ele>351.0</ele><time>2026-04-19T09:10:23.028Z</time></trkpt><trkpt lat="42.555179980119576" lon="12.425410125137086"><ele>351.0</ele><time>2026-04-19T09:10:24.028Z</time></trkpt><trkpt lat="42.555224984083786" lon="12.425607749300779"><ele>351.0</ele><time>2026-04-19T09:10:25.028Z</time></trkpt><trkpt lat="42.555261512727554" lon="12.425817959503913"><ele>352.25</ele><time>2026-04-19T09:10:26.028Z</time></trkpt><trkpt lat="42.555288301968574" lon="12.42602756398809"><ele>353.5</ele><time>2026-04-19T09:10:27.028Z</time></trkpt><trkpt lat="42.555309196057415" lon="12.42622366031445"><ele>354.75</ele><time>2026-04-19T09:10:28.028Z</time></trkpt><trkpt lat="42.55532024910425" lon="12.426412163822148"><ele>356.0</ele><time>2026-04-19T09:10:29.028Z</time></trkpt><trkpt lat="42.55533066460456" lon="12.426597894182766"><ele>356.0</ele><time>2026-04-19T09:10:30.028Z</time></trkpt><trkpt lat="42.55534056790882" lon="12.426776314228485"><ele>356.0</ele><time>2026-04-19T09:10:31.028Z</time></trkpt><trkpt lat="42.55535383667675" lon="12.426945189745064"><ele>356.0</ele><time>2026-04-19T09:10:32.028Z</time></trkpt><trkpt lat="42.555367613902995" lon="12.427108232211982"><ele>356.0</ele><time>2026-04-19T09:10:33.028Z</time></trkpt><trkpt lat="42.555384958641845" lon="12.427262870208327"><ele>354.4</ele><time>2026-04-19T09:10:34.028Z</time></trkpt><trkpt lat="42.55539987436115" lon="12.427413293348808"><ele>352.8</ele><time>2026-04-19T09:10:35.028Z</time></trkpt><trkpt lat="42.55540832198734" lon="12.427555999668098"><ele>351.2</ele><time>2026-04-19T09:10:36.028Z</time></trkpt><trkpt lat="42.55541687803069" lon="12.427697709804326"><ele>349.59999999999997</ele><time>2026-04-19T09:10:37.028Z</time></trkpt><trkpt lat="42.55542377811493" lon="12.427834001861145"><ele>348.0</ele><time>2026-04-19T09:10:38.028Z</time></trkpt><trkpt lat="42.55542605175038" lon="12.427966962133354"><ele>349.0</ele><time>2026-04-19T09:10:39.028Z</time></trkpt><trkpt lat="42.55541828468996" lon="12.428101654511151"><ele>350.0</ele><time>2026-04-19T09:10:40.028Z</time></trkpt><trkpt lat="42.555417728333154" lon="12.428235435816081"><ele>351.0</ele><time>2026-04-19T09:10:41.028Z</time></trkpt><trkpt lat="42.55541082833146" lon="12.42836673404553"><ele>352.0</ele><time>2026-04-19T09:10:42.028Z</time></trkpt><trkpt lat="42.555399950824736" lon="12.428499987309134"><ele>353.0</ele><time>2026-04-19T09:10:43.028Z</time></trkpt><trkpt lat="42.55538578479984" lon="12.42863629068598"><ele>353.79999999999995</ele><time>2026-04-19T09:10:44.028Z</time></trkpt><trkpt lat="42.55537052435358" lon="12.42877180809186"><ele>354.6</ele><time>2026-04-19T09:10:45.028Z</time></trkpt><trkpt lat="42.5553565182431" lon="12.42890762469119"><ele>355.4</ele><time>2026-04-19T09:10:46.028Z</time></trkpt><trkpt lat="42.555323127216084" lon="12.429044344871656"><ele>356.20000000000005</ele><time>2026-04-19T09:10:47.028Z</time></trkpt><trkpt lat="42.555313374609234" lon="12.4291920998336"><ele>357.0</ele><time>2026-04-19T09:10:48.028Z</time></trkpt><trkpt lat="42.55530793262038" lon="12.429339026311187"><ele>357.0</ele><time>2026-04-19T09:10:49.028Z</time></trkpt><trkpt lat="42.55532684540478" lon="12.429489900124427"><ele>357.0</ele><time>2026-04-19T09:10:50.028Z</time></trkpt><trkpt lat="42.55533490827088" lon="12.429643859375563"><ele>357.0</ele><time>2026-04-19T09:10:51.028Z</time></trkpt><trkpt lat="42.55535063489492" lon="12.429801715587034"><ele>357.0</ele><time>2026-04-19T09:10:52.028Z</time></trkpt><trkpt lat="42.55537269833137" lon="12.429961888046394"><ele>356.0</ele><time>2026-04-19T09:10:53.028Z</time></trkpt><trkpt lat="42.555395052738184" lon="12.43012765080359"><ele>355.0</ele><time>2026-04-19T09:10:54.028Z</time></trkpt><trkpt lat="42.55541890826797" lon="12.430296028245264"><ele>354.0</ele><time>2026-04-19T09:10:55.028Z</time></trkpt><trkpt lat="42.55544367237685" lon="12.430464076790653"><ele>353.0</ele><time>2026-04-19T09:10:56.028Z</time></trkpt><trkpt lat="42.555471613779716" lon="12.430629554283303"><ele>353.0</ele><time>2026-04-19T09:10:57.028Z</time></trkpt><trkpt lat="42.5555083517101" lon="12.430794021134805"><ele>353.0</ele><time>2026-04-19T09:10:58.028Z</time></trkpt><trkpt lat="42.555557550148635" lon="12.430949572629636"><ele>353.0</ele><time>2026-04-19T09:10:59.028Z</time></trkpt><trkpt lat="42.555615397953765" lon="12.431091976383476"><ele>353.0</ele><time>2026-04-19T09:11:00.028Z</time></trkpt><trkpt lat="42.55568507467449" lon="12.43122071059575"><ele>353.4</ele><time>2026-04-19T09:11:01.028Z</time></trkpt><trkpt lat="42.55576250406354" lon="12.431335384945719"><ele>353.79999999999995</ele><time>2026-04-19T09:11:02.028Z</time></trkpt><trkpt lat="42.555843292240645" lon="12.43143736443518"><ele>354.2</ele><time>2026-04-19T09:11:03.028Z</time></trkpt><trkpt lat="42.55592494885111" lon="12.431534089021639"><ele>354.6</ele><time>2026-04-19T09:11:04.028Z</time></trkpt><trkpt lat="42.55600160724087" lon="12.431635581740224"><ele>355.0</ele><time>2026-04-19T09:11:05.028Z</time></trkpt><trkpt lat="42.55607839667267" lon="12.431734090050576"><ele>355.0</ele><time>2026-04-19T09:11:06.028Z</time></trkpt><trkpt lat="42.556149519522656" lon="12.431835246129861"><ele>355.0</ele><time>2026-04-19T09:11:07.028Z</time></trkpt><trkpt lat="42.55622177144985" lon="12.431933288093909"><ele>355.0</ele><time>2026-04-19T09:11:08.028Z</time></trkpt><trkpt lat="42.5562923410201" lon="12.432031922445391"><ele>355.0</ele><time>2026-04-19T09:11:09.03Z</time></trkpt><trkpt lat="42.55636857334288" lon="12.43212173687099"><ele>355.0</ele><time>2026-04-19T09:11:10.03Z</time></trkpt><trkpt lat="42.55645262571569" lon="12.432198830835176"><ele>355.2</ele><time>2026-04-19T09:11:11.03Z</time></trkpt><trkpt lat="42.55654500681468" lon="12.432262698327582"><ele>355.4</ele><time>2026-04-19T09:11:12.03Z</time></trkpt><trkpt lat="42.55663772030527" lon="12.432331436633891"><ele>355.6</ele><time>2026-04-19T09:11:13.03Z</time></trkpt><trkpt lat="42.55673339372593" lon="12.4324057882026"><ele>355.8</ele><time>2026-04-19T09:11:14.03Z</time></trkpt><trkpt lat="42.55682293805736" lon="12.432484567308975"><ele>356.0</ele><time>2026-04-19T09:11:15.03Z</time></trkpt><trkpt lat="42.55692035559247" lon="12.432561339213091"><ele>356.0</ele><time>2026-04-19T09:11:16.03Z</time></trkpt><trkpt lat="42.55701334082693" lon="12.432636395732793"><ele>356.0</ele><time>2026-04-19T09:11:17.03Z</time></trkpt><trkpt lat="42.55709885591873" lon="12.432728265278909"><ele>356.0</ele><time>2026-04-19T09:11:18.03Z</time></trkpt><trkpt lat="42.557180935479934" lon="12.432823821241625"><ele>356.0</ele><time>2026-04-19T09:11:19.03Z</time></trkpt><trkpt lat="42.55725243701363" lon="12.432923322778889"><ele>356.0</ele><time>2026-04-19T09:11:20.03Z</time></trkpt><trkpt lat="42.5573170875026" lon="12.43303548057722"><ele>357.0</ele><time>2026-04-19T09:11:21.03Z</time></trkpt><trkpt lat="42.557373491997296" lon="12.433164315777493"><ele>358.0</ele><time>2026-04-19T09:11:22.03Z</time></trkpt><trkpt lat="42.557421822266946" lon="12.433305247564927"><ele>359.0</ele><time>2026-04-19T09:11:23.03Z</time></trkpt><trkpt lat="42.55748041003924" lon="12.433436630550293"><ele>360.0</ele><time>2026-04-19T09:11:24.03Z</time></trkpt><trkpt lat="42.557530646534836" lon="12.43357662053033"><ele>360.0</ele><time>2026-04-19T09:11:25.03Z</time></trkpt><trkpt lat="42.557594014688235" lon="12.433714520484802"><ele>360.0</ele><time>2026-04-19T09:11:26.03Z</time></trkpt><trkpt lat="42.557658769393576" lon="12.433858122612609"><ele>360.0</ele><time>2026-04-19T09:11:27.03Z</time></trkpt><trkpt lat="42.55773213208474" lon="12.433999521849938"><ele>360.0</ele><time>2026-04-19T09:11:28.03Z</time></trkpt><trkpt lat="42.557806797875614" lon="12.434143823623478"><ele>360.5</ele><time>2026-04-19T09:11:29.03Z</time></trkpt><trkpt lat="42.55788272447566" lon="12.434294450753049"><ele>361.0</ele><time>2026-04-19T09:11:30.03Z</time></trkpt><trkpt lat="42.55795381651018" lon="12.43445061825212"><ele>361.5</ele><time>2026-04-19T09:11:31.03Z</time></trkpt><trkpt lat="42.55802289888199" lon="12.434624238979893"><ele>362.0</ele><time>2026-04-19T09:11:32.03Z</time></trkpt><trkpt lat="42.55808808573257" lon="12.434805223526837"><ele>362.0</ele><time>2026-04-19T09:11:33.03Z</time></trkpt><trkpt lat="42.558136088110835" lon="12.43499975701979"><ele>362.0</ele><time>2026-04-19T09:11:34.03Z</time></trkpt><trkpt lat="42.558161726872655" lon="12.43520368485038"><ele>362.0</ele><time>2026-04-19T09:11:35.03Z</time></trkpt><trkpt lat="42.55817389649653" lon="12.435413066562433"><ele>362.0</ele><time>2026-04-19T09:11:36.03Z</time></trkpt><trkpt lat="42.55818940509719" lon="12.435627388223267"><ele>362.0</ele><time>2026-04-19T09:11:37.03Z</time></trkpt><trkpt lat="42.55821165898995" lon="12.435842207588943"><ele>362.0</ele><time>2026-04-19T09:11:38.03Z</time></trkpt><trkpt lat="42.55823819631857" lon="12.436058161688688"><ele>362.0</ele><time>2026-04-19T09:11:39.03Z</time></trkpt><trkpt lat="42.558267720039424" lon="12.43627064888547"><ele>362.0</ele><time>2026-04-19T09:11:40.03Z</time></trkpt><trkpt lat="42.5582944723058" lon="12.436494986437733"><ele>362.0</ele><time>2026-04-19T09:11:41.03Z</time></trkpt><trkpt lat="42.5583201542174" lon="12.436722746003099"><ele>360.0</ele><time>2026-04-19T09:11:42.03Z</time></trkpt><trkpt lat="42.558329857302894" lon="12.43694866211037"><ele>358.0</ele><time>2026-04-19T09:11:43.03Z</time></trkpt><trkpt lat="42.558312634853515" lon="12.437177583910104"><ele>356.0</ele><time>2026-04-19T09:11:44.03Z</time></trkpt><trkpt lat="42.5582737087774" lon="12.437403936782172"><ele>356.0</ele><time>2026-04-19T09:11:45.03Z</time></trkpt><trkpt lat="42.55822869405878" lon="12.437629132310091"><ele>356.0</ele><time>2026-04-19T09:11:46.03Z</time></trkpt><trkpt lat="42.55818635058881" lon="12.437858400567325"><ele>356.0</ele><time>2026-04-19T09:11:47.03Z</time></trkpt><trkpt lat="42.558140391294124" lon="12.438080516935827"><ele>356.33333333333337</ele><time>2026-04-19T09:11:48.03Z</time></trkpt><trkpt lat="42.55809982106541" lon="12.438298217902043"><ele>356.6666666666667</ele><time>2026-04-19T09:11:49.03Z</time></trkpt><trkpt lat="42.55806388399168" lon="12.43851120843208"><ele>357.0</ele><time>2026-04-19T09:11:50.03Z</time></trkpt><trkpt lat="42.55802642838945" lon="12.438715451148331"><ele>358.0</ele><time>2026-04-19T09:11:51.03Z</time></trkpt><trkpt lat="42.55797542565995" lon="12.438908665743394"><ele>359.0</ele><time>2026-04-19T09:11:52.03Z</time></trkpt><trkpt lat="42.55790751539769" lon="12.439086752066418"><ele>360.0</ele><time>2026-04-19T09:11:53.03Z</time></trkpt><trkpt lat="42.55782689670854" lon="12.439249071412958"><ele>361.0</ele><time>2026-04-19T09:11:54.03Z</time></trkpt><trkpt lat="42.55772838565446" lon="12.43937862940913"><ele>359.5</ele><time>2026-04-19T09:11:55.03Z</time></trkpt><trkpt lat="42.55762625592795" lon="12.439496699710892"><ele>358.0</ele><time>2026-04-19T09:11:56.03Z</time></trkpt><trkpt lat="42.557524039033716" lon="12.439622279837852"><ele>356.5</ele><time>2026-04-19T09:11:57.03Z</time></trkpt><trkpt lat="42.55742560447258" lon="12.439747616341046"><ele>355.0</ele><time>2026-04-19T09:11:58.03Z</time></trkpt><trkpt lat="42.55732945314842" lon="12.439874140450998"><ele>355.0</ele><time>2026-04-19T09:11:59.03Z</time></trkpt><trkpt lat="42.557235594671056" lon="12.439997901854413"><ele>355.0</ele><time>2026-04-19T09:12:00.03Z</time></trkpt><trkpt lat="42.55713840200385" lon="12.440121217047027"><ele>355.0</ele><time>2026-04-19T09:12:01.03Z</time></trkpt><trkpt lat="42.55703684539038" lon="12.440237266459095"><ele>355.0</ele><time>2026-04-19T09:12:02.03Z</time></trkpt><trkpt lat="42.55693682479478" lon="12.44035481083997"><ele>354.0</ele><time>2026-04-19T09:12:03.03Z</time></trkpt><trkpt lat="42.55683843077922" lon="12.44046651450872"><ele>353.0</ele><time>2026-04-19T09:12:04.03Z</time></trkpt><trkpt lat="42.55673573738733" lon="12.440568036518112"><ele>352.0</ele><time>2026-04-19T09:12:05.03Z</time></trkpt><trkpt lat="42.556635737387055" lon="12.440663647040312"><ele>351.0</ele><time>2026-04-19T09:12:06.03Z</time></trkpt><trkpt lat="42.55652995069627" lon="12.440756968274595"><ele>351.0</ele><time>2026-04-19T09:12:07.03Z</time></trkpt><trkpt lat="42.55642418972068" lon="12.44084746425103"><ele>351.0</ele><time>2026-04-19T09:12:08.03Z</time></trkpt><trkpt lat="42.55631969337851" lon="12.440933536409016"><ele>351.0</ele><time>2026-04-19T09:12:09.03Z</time></trkpt><trkpt lat="42.55621386946746" lon="12.441022750722407"><ele>351.0</ele><time>2026-04-19T09:12:10.03Z</time></trkpt><trkpt lat="42.55610846608574" lon="12.441106321189865"><ele>350.75</ele><time>2026-04-19T09:12:11.03Z</time></trkpt><trkpt lat="42.55600560866274" lon="12.441190520813878"><ele>350.5</ele><time>2026-04-19T09:12:12.03Z</time></trkpt><trkpt lat="42.55590615572197" lon="12.441272706314265"><ele>350.25</ele><time>2026-04-19T09:12:13.03Z</time></trkpt><trkpt lat="42.55580790203372" lon="12.441354524974518"><ele>350.0</ele><time>2026-04-19T09:12:14.03Z</time></trkpt><trkpt lat="42.5557108070187" lon="12.441434043019798"><ele>350.0</ele><time>2026-04-19T09:12:15.03Z</time></trkpt><trkpt lat="42.555614939822924" lon="12.441508807662823"><ele>350.0</ele><time>2026-04-19T09:12:16.03Z</time></trkpt><trkpt lat="42.55552312558951" lon="12.4415808401361"><ele>350.0</ele><time>2026-04-19T09:12:17.03Z</time></trkpt><trkpt lat="42.5554368379664" lon="12.441657309744667"><ele>350.0</ele><time>2026-04-19T09:12:18.03Z</time></trkpt><trkpt lat="42.55534931450077" lon="12.441732436949552"><ele>350.0</ele><time>2026-04-19T09:12:19.03Z</time></trkpt><trkpt lat="42.55525861996758" lon="12.441803826627035"><ele>350.4</ele><time>2026-04-19T09:12:20.03Z</time></trkpt><trkpt lat="42.555164422700564" lon="12.441876809433316"><ele>350.8</ele><time>2026-04-19T09:12:21.03Z</time></trkpt><trkpt lat="42.555068619121165" lon="12.44195377419891"><ele>351.20000000000005</ele><time>2026-04-19T09:12:22.03Z</time></trkpt><trkpt lat="42.55497223067181" lon="12.442036238950978"><ele>351.6</ele><time>2026-04-19T09:12:23.03Z</time></trkpt><trkpt lat="42.55487736702687" lon="12.442125188493426"><ele>352.0</ele><time>2026-04-19T09:12:24.03Z</time></trkpt><trkpt lat="42.554775099335686" lon="12.442208358767214"><ele>352.0</ele><time>2026-04-19T09:12:25.03Z</time></trkpt><trkpt lat="42.554674588475976" lon="12.44228742595687"><ele>352.0</ele><time>2026-04-19T09:12:26.03Z</time></trkpt><trkpt lat="42.5545489662907" lon="12.44233971023844"><ele>352.0</ele><time>2026-04-19T09:12:27.029Z</time></trkpt><trkpt lat="42.554427469650506" lon="12.442407905451898"><ele>352.0</ele><time>2026-04-19T09:12:28.029Z</time></trkpt><trkpt lat="42.55429168037563" lon="12.442461299625963"><ele>347.0</ele><time>2026-04-19T09:12:29.029Z</time></trkpt><trkpt lat="42.55414043898297" lon="12.442480182728165"><ele>342.0</ele><time>2026-04-19T09:12:30.029Z</time></trkpt><trkpt lat="42.55396295633297" lon="12.442469670102756"><ele>337.0</ele><time>2026-04-19T09:12:31.029Z</time></trkpt><trkpt lat="42.55378957089287" lon="12.442416063179893"><ele>335.0</ele><time>2026-04-19T09:12:32.029Z</time></trkpt><trkpt lat="42.55361955780169" lon="12.442328640964847"><ele>333.0</ele><time>2026-04-19T09:12:33.029Z</time></trkpt><trkpt lat="42.55345557456734" lon="12.442233829068071"><ele>331.0</ele><time>2026-04-19T09:12:34.029Z</time></trkpt><trkpt lat="42.55329477871466" lon="12.442134967724117"><ele>328.0</ele><time>2026-04-19T09:12:35.029Z</time></trkpt><trkpt lat="42.553135386638026" lon="12.442039191182303"><ele>325.0</ele><time>2026-04-19T09:12:36.029Z</time></trkpt><trkpt lat="42.55298147719338" lon="12.441959597155135"><ele>322.0</ele><time>2026-04-19T09:12:37.029Z</time></trkpt><trkpt lat="42.55284110609715" lon="12.441916312636485"><ele>322.0</ele><time>2026-04-19T09:12:38.029Z</time></trkpt><trkpt lat="42.55270715335215" lon="12.44192053933111"><ele>322.0</ele><time>2026-04-19T09:12:39.029Z</time></trkpt><trkpt lat="42.55258169279861" lon="12.441979651009822"><ele>322.0</ele><time>2026-04-19T09:12:40.029Z</time></trkpt><trkpt lat="42.55247979261189" lon="12.442094055248019"><ele>322.0</ele><time>2026-04-19T09:12:41.029Z</time></trkpt><trkpt lat="42.5524030513223" lon="12.442242339425892"><ele>322.0</ele><time>2026-04-19T09:12:42.029Z</time></trkpt><trkpt lat="42.552343742203405" lon="12.442418116418093"><ele>322.0</ele><time>2026-04-19T09:12:43.029Z</time></trkpt><trkpt lat="42.552279781279985" lon="12.4426180432924"><ele>322.0</ele><time>2026-04-19T09:12:44.029Z</time></trkpt><trkpt lat="42.552197779483095" lon="12.442828599389003"><ele>324.0</ele><time>2026-04-19T09:12:45.029Z</time></trkpt><trkpt lat="42.55211280005234" lon="12.443035563395352"><ele>326.0</ele><time>2026-04-19T09:12:46.029Z</time></trkpt><trkpt lat="42.55201719086907" lon="12.443232301741046"><ele>328.0</ele><time>2026-04-19T09:12:47.029Z</time></trkpt><trkpt lat="42.55190799107557" lon="12.443430338518992"><ele>325.66666666666663</ele><time>2026-04-19T09:12:48.029Z</time></trkpt><trkpt lat="42.551796032758205" lon="12.443624344391214"><ele>323.3333333333333</ele><time>2026-04-19T09:12:49.029Z</time></trkpt><trkpt lat="42.551674516319835" lon="12.443798218656609"><ele>321.0</ele><time>2026-04-19T09:12:50.029Z</time></trkpt><trkpt lat="42.55154800422842" lon="12.443960085007587"><ele>321.0</ele><time>2026-04-19T09:12:51.029Z</time></trkpt><trkpt lat="42.55142399873318" lon="12.444110810795884"><ele>321.0</ele><time>2026-04-19T09:12:52.029Z</time></trkpt><trkpt lat="42.55131964242699" lon="12.44425163170547"><ele>321.0</ele><time>2026-04-19T09:12:53.029Z</time></trkpt><trkpt lat="42.55123403858564" lon="12.444392204666297"><ele>321.0</ele><time>2026-04-19T09:12:54.029Z</time></trkpt><trkpt lat="42.55117647123192" lon="12.444540085519577"><ele>322.5</ele><time>2026-04-19T09:12:55.029Z</time></trkpt><trkpt lat="42.55116800775406" lon="12.444699852522382"><ele>324.0</ele><time>2026-04-19T09:12:56.029Z</time></trkpt><trkpt lat="42.55119335734793" lon="12.444878901961507"><ele>325.5</ele><time>2026-04-19T09:12:57.029Z</time></trkpt><trkpt lat="42.55123141844398" lon="12.445068519967975"><ele>327.0</ele><time>2026-04-19T09:12:58.029Z</time></trkpt><trkpt lat="42.55125472461604" lon="12.445284805813637"><ele>323.6666666666667</ele><time>2026-04-19T09:12:59.029Z</time></trkpt><trkpt lat="42.551250772266435" lon="12.445513798457464"><ele>320.33333333333337</ele><time>2026-04-19T09:13:00.029Z</time></trkpt><trkpt lat="42.551242271200984" lon="12.44574370149318"><ele>317.0</ele><time>2026-04-19T09:13:01.029Z</time></trkpt><trkpt lat="42.551233527605625" lon="12.445975797270664"><ele>317.0</ele><time>2026-04-19T09:13:02.029Z</time></trkpt><trkpt lat="42.55123149033956" lon="12.446193973415427"><ele>317.0</ele><time>2026-04-19T09:13:03.029Z</time></trkpt><trkpt lat="42.55124151081984" lon="12.446406844825928"><ele>317.0</ele><time>2026-04-19T09:13:04.029Z</time></trkpt><trkpt lat="42.55124304680631" lon="12.446613436157566"><ele>314.0</ele><time>2026-04-19T09:13:05.029Z</time></trkpt><trkpt lat="42.5512401956064" lon="12.446804695878416"><ele>311.0</ele><time>2026-04-19T09:13:06.029Z</time></trkpt><trkpt lat="42.55122268580951" lon="12.446984906496235"><ele>308.0</ele><time>2026-04-19T09:13:07.029Z</time></trkpt><trkpt lat="42.551178993421395" lon="12.447143243531334"><ele>305.0</ele><time>2026-04-19T09:13:08.029Z</time></trkpt><trkpt lat="42.55109780139781" lon="12.447262237394973"><ele>303.0</ele><time>2026-04-19T09:13:09.029Z</time></trkpt><trkpt lat="42.55099034083446" lon="12.447332297990563"><ele>301.0</ele><time>2026-04-19T09:13:10.029Z</time></trkpt><trkpt lat="42.55086350040557" lon="12.447341119068444"><ele>299.0</ele><time>2026-04-19T09:13:11.029Z</time></trkpt><trkpt lat="42.55072250585714" lon="12.447314899677242"><ele>297.0</ele><time>2026-04-19T09:13:12.029Z</time></trkpt><trkpt lat="42.55057158833153" lon="12.447288094470203"><ele>297.0</ele><time>2026-04-19T09:13:13.029Z</time></trkpt><trkpt lat="42.550415987300475" lon="12.447256769126104"><ele>297.0</ele><time>2026-04-19T09:13:14.029Z</time></trkpt><trkpt lat="42.550252581001544" lon="12.447234839510934"><ele>297.0</ele><time>2026-04-19T09:13:15.031Z</time></trkpt><trkpt lat="42.55008808456156" lon="12.447224426989955"><ele>299.0</ele><time>2026-04-19T09:13:16.031Z</time></trkpt><trkpt lat="42.54993237231604" lon="12.447190194549382"><ele>301.0</ele><time>2026-04-19T09:13:17.031Z</time></trkpt><trkpt lat="42.54976978348482" lon="12.447203774932534"><ele>303.0</ele><time>2026-04-19T09:13:18.031Z</time></trkpt><trkpt lat="42.54961199002331" lon="12.44723757786064"><ele>302.6666666666667</ele><time>2026-04-19T09:13:19.031Z</time></trkpt><trkpt lat="42.549463443053185" lon="12.447289146023968"><ele>302.33333333333337</ele><time>2026-04-19T09:13:20.031Z</time></trkpt><trkpt lat="42.549320305791404" lon="12.447370926689736"><ele>302.0</ele><time>2026-04-19T09:13:21.032Z</time></trkpt><trkpt lat="42.54918527057502" lon="12.447485123349002"><ele>302.0</ele><time>2026-04-19T09:13:22.031Z</time></trkpt><trkpt lat="42.549061235358614" lon="12.447615108085966"><ele>302.0</ele><time>2026-04-19T09:13:23.031Z</time></trkpt><trkpt lat="42.54893914278255" lon="12.447760700279769"><ele>302.0</ele><time>2026-04-19T09:13:24.032Z</time></trkpt><trkpt lat="42.548824833085725" lon="12.447914044395333"><ele>303.0</ele><time>2026-04-19T09:13:25.032Z</time></trkpt><trkpt lat="42.54872088764554" lon="12.448053551717472"><ele>304.0</ele><time>2026-04-19T09:13:26.032Z</time></trkpt><trkpt lat="42.54861853087051" lon="12.448189483316554"><ele>305.0</ele><time>2026-04-19T09:13:27.032Z</time></trkpt><trkpt lat="42.548520264165575" lon="12.448310602973065"><ele>306.0</ele><time>2026-04-19T09:13:28.032Z</time></trkpt><trkpt lat="42.54842432493783" lon="12.44842060293099"><ele>306.0</ele><time>2026-04-19T09:13:29.032Z</time></trkpt><trkpt lat="42.548333471021316" lon="12.448516834825497"><ele>306.0</ele><time>2026-04-19T09:13:30.032Z</time></trkpt><trkpt lat="42.54824425435635" lon="12.448602445665996"><ele>306.0</ele><time>2026-04-19T09:13:31.032Z</time></trkpt><trkpt lat="42.54815309898726" lon="12.448668185793226"><ele>306.0</ele><time>2026-04-19T09:13:32.032Z</time></trkpt><trkpt lat="42.548056548732944" lon="12.448712965261794"><ele>306.0</ele><time>2026-04-19T09:13:33.032Z</time></trkpt><trkpt lat="42.54795801562604" lon="12.448749698753181"><ele>306.75</ele><time>2026-04-19T09:13:34.032Z</time></trkpt><trkpt lat="42.54785106454971" lon="12.448780040892796"><ele>307.5</ele><time>2026-04-19T09:13:35.032Z</time></trkpt><trkpt lat="42.54773999399792" lon="12.448805491918884"><ele>308.25</ele><time>2026-04-19T09:13:36.032Z</time></trkpt><trkpt lat="42.547618981828876" lon="12.448815281230766"><ele>309.0</ele><time>2026-04-19T09:13:37.032Z</time></trkpt><trkpt lat="42.547491919077125" lon="12.448811200650459"><ele>309.0</ele><time>2026-04-19T09:13:38.032Z</time></trkpt><trkpt lat="42.54735759713419" lon="12.448803784757514"><ele>309.0</ele><time>2026-04-19T09:13:39.032Z</time></trkpt><trkpt lat="42.54722886193117" lon="12.448782689088292"><ele>309.0</ele><time>2026-04-19T09:13:40.032Z</time></trkpt><trkpt lat="42.54710577480642" lon="12.448760063674428"><ele>309.0</ele><time>2026-04-19T09:13:41.032Z</time></trkpt><trkpt lat="42.546990327390176" lon="12.448738292177906"><ele>310.0</ele><time>2026-04-19T09:13:42.032Z</time></trkpt><trkpt lat="42.546876537446344" lon="12.44873032837093"><ele>311.0</ele><time>2026-04-19T09:13:43.032Z</time></trkpt><trkpt lat="42.54676432799224" lon="12.448748834005125"><ele>312.0</ele><time>2026-04-19T09:13:44.032Z</time></trkpt><trkpt lat="42.54664653338601" lon="12.448792656627413"><ele>313.0</ele><time>2026-04-19T09:13:45.032Z</time></trkpt><trkpt lat="42.54652746360671" lon="12.448851020568457"><ele>313.5</ele><time>2026-04-19T09:13:46.032Z</time></trkpt><trkpt lat="42.546440152649936" lon="12.448979638846403"><ele>314.0</ele><time>2026-04-19T09:13:47.032Z</time></trkpt><trkpt lat="42.54636156001387" lon="12.449104202446573"><ele>314.5</ele><time>2026-04-19T09:13:48.032Z</time></trkpt><trkpt lat="42.54629459734625" lon="12.449246218350908"><ele>315.0</ele><time>2026-04-19T09:13:49.032Z</time></trkpt><trkpt lat="42.54621117478766" lon="12.449376404542358"><ele>314.25</ele><time>2026-04-19T09:13:50.032Z</time></trkpt><trkpt lat="42.546136405413144" lon="12.449512783581515"><ele>313.5</ele><time>2026-04-19T09:13:51.032Z</time></trkpt><trkpt lat="42.54605908737558" lon="12.449645525744218"><ele>312.75</ele><time>2026-04-19T09:13:52.032Z</time></trkpt><trkpt lat="42.54597459772796" lon="12.449777532155485"><ele>312.0</ele><time>2026-04-19T09:13:53.032Z</time></trkpt><trkpt lat="42.54588867532455" lon="12.449918320653426"><ele>312.0</ele><time>2026-04-19T09:13:54.032Z</time></trkpt><trkpt lat="42.54580737694401" lon="12.450079659372932"><ele>312.0</ele><time>2026-04-19T09:13:55.032Z</time></trkpt><trkpt lat="42.54572474905926" lon="12.450253840864358"><ele>312.0</ele><time>2026-04-19T09:13:56.032Z</time></trkpt><trkpt lat="42.5456477005169" lon="12.450443903478435"><ele>312.3333333333333</ele><time>2026-04-19T09:13:57.032Z</time></trkpt><trkpt lat="42.54558374240958" lon="12.450656106886782"><ele>312.66666666666663</ele><time>2026-04-19T09:13:58.032Z</time></trkpt><trkpt lat="42.545534876409526" lon="12.450899068268994"><ele>313.0</ele><time>2026-04-19T09:13:59.032Z</time></trkpt><trkpt lat="42.54548776816369" lon="12.451158525066015"><ele>314.0</ele><time>2026-04-19T09:14:00.032Z</time></trkpt><trkpt lat="42.54543647100102" lon="12.451415052152205"><ele>315.0</ele><time>2026-04-19T09:14:01.032Z</time></trkpt><trkpt lat="42.545389517684804" lon="12.451656395089211"><ele>316.0</ele><time>2026-04-19T09:14:02.032Z</time></trkpt><trkpt lat="42.545338015012284" lon="12.451888313683313"><ele>316.3333333333333</ele><time>2026-04-19T09:14:03.032Z</time></trkpt><trkpt lat="42.545262750905756" lon="12.452104990123269"><ele>316.6666666666667</ele><time>2026-04-19T09:14:04.031Z</time></trkpt><trkpt lat="42.5451830244614" lon="12.452302957324305"><ele>317.0</ele><time>2026-04-19T09:14:05.031Z</time></trkpt><trkpt lat="42.54510087952855" lon="12.452500040300952"><ele>317.0</ele><time>2026-04-19T09:14:06.031Z</time></trkpt><trkpt lat="42.54499927835088" lon="12.452665917928076"><ele>317.0</ele><time>2026-04-19T09:14:07.031Z</time></trkpt><trkpt lat="42.544886515390125" lon="12.452802401264892"><ele>317.0</ele><time>2026-04-19T09:14:08.031Z</time></trkpt><trkpt lat="42.54476302562914" lon="12.45291802137169"><ele>318.33333333333337</ele><time>2026-04-19T09:14:09.031Z</time></trkpt><trkpt lat="42.54462909844001" lon="12.453015744578487"><ele>319.6666666666667</ele><time>2026-04-19T09:14:10.031Z</time></trkpt><trkpt lat="42.54448492486921" lon="12.45310040329537"><ele>321.0</ele><time>2026-04-19T09:14:11.031Z</time></trkpt><trkpt lat="42.54433567481813" lon="12.45317416330361"><ele>321.0</ele><time>2026-04-19T09:14:12.031Z</time></trkpt><trkpt lat="42.54419748019372" lon="12.453248167634802"><ele>321.0</ele><time>2026-04-19T09:14:13.031Z</time></trkpt><trkpt lat="42.54406558982896" lon="12.453329972901948"><ele>321.0</ele><time>2026-04-19T09:14:14.031Z</time></trkpt><trkpt lat="42.54392819320585" lon="12.453411267035518"><ele>321.0</ele><time>2026-04-19T09:14:15.031Z</time></trkpt><trkpt lat="42.543816833245444" lon="12.45353069191934"><ele>321.0</ele><time>2026-04-19T09:14:16.031Z</time></trkpt><trkpt lat="42.54372888206795" lon="12.453657382387707"><ele>321.0</ele><time>2026-04-19T09:14:17.031Z</time></trkpt><trkpt lat="42.54364922125119" lon="12.453802822895717"><ele>321.0</ele><time>2026-04-19T09:14:18.031Z</time></trkpt><trkpt lat="42.543576449106276" lon="12.45395667192092"><ele>321.0</ele><time>2026-04-19T09:14:19.031Z</time></trkpt><trkpt lat="42.54350747543568" lon="12.454103524916931"><ele>321.75</ele><time>2026-04-19T09:14:20.031Z</time></trkpt><trkpt lat="42.54345096689288" lon="12.45425141188063"><ele>322.5</ele><time>2026-04-19T09:14:21.031Z</time></trkpt><trkpt lat="42.54337676555852" lon="12.45438488863786"><ele>323.25</ele><time>2026-04-19T09:14:22.031Z</time></trkpt><trkpt lat="42.54328521265736" lon="12.45449705937207"><ele>324.0</ele><time>2026-04-19T09:14:23.031Z</time></trkpt><trkpt lat="42.54318959783037" lon="12.454603368282598"><ele>325.25</ele><time>2026-04-19T09:14:24.031Z</time></trkpt><trkpt lat="42.543086838000654" lon="12.454707535107262"><ele>326.5</ele><time>2026-04-19T09:14:25.031Z</time></trkpt><trkpt lat="42.542991995395454" lon="12.45480893154382"><ele>327.75</ele><time>2026-04-19T09:14:26.031Z</time></trkpt><trkpt lat="42.54290222875577" lon="12.45489113548468"><ele>329.0</ele><time>2026-04-19T09:14:27.031Z</time></trkpt><trkpt lat="42.54281212198247" lon="12.454985098747025"><ele>329.0</ele><time>2026-04-19T09:14:28.031Z</time></trkpt><trkpt lat="42.54271595795613" lon="12.455077089778692"><ele>329.0</ele><time>2026-04-19T09:14:29.031Z</time></trkpt><trkpt lat="42.542637575966495" lon="12.455195702389153"><ele>329.0</ele><time>2026-04-19T09:14:30.031Z</time></trkpt><trkpt lat="42.54256940821741" lon="12.455325085089234"><ele>329.0</ele><time>2026-04-19T09:14:31.031Z</time></trkpt><trkpt lat="42.54252450308253" lon="12.455453028677487"><ele>329.5</ele><time>2026-04-19T09:14:32.031Z</time></trkpt><trkpt lat="42.54248846415867" lon="12.455569974266897"><ele>330.0</ele><time>2026-04-19T09:14:33.031Z</time></trkpt><trkpt lat="42.5424649489177" lon="12.455686835853738"><ele>330.5</ele><time>2026-04-19T09:14:34.031Z</time></trkpt><trkpt lat="42.54244668041766" lon="12.455809520177851"><ele>331.0</ele><time>2026-04-19T09:14:35.031Z</time></trkpt><trkpt lat="42.5424308341264" lon="12.45592880813698"><ele>331.5</ele><time>2026-04-19T09:14:36.031Z</time></trkpt><trkpt lat="42.54241742547364" lon="12.456039317369148"><ele>332.0</ele><time>2026-04-19T09:14:37.031Z</time></trkpt><trkpt lat="42.542401746792756" lon="12.45614537388079"><ele>332.0</ele><time>2026-04-19T09:14:38.031Z</time></trkpt><trkpt lat="42.54238826750402" lon="12.45624509995011"><ele>332.0</ele><time>2026-04-19T09:14:39.031Z</time></trkpt><trkpt lat="42.54236697316134" lon="12.456402353687142"><ele>332.0</ele><time>2026-04-19T09:14:41.031Z</time></trkpt><trkpt lat="42.5423473052887" lon="12.45653430549776"><ele>332.0</ele><time>2026-04-19T09:14:43.031Z</time></trkpt><trkpt lat="42.54233838189063" lon="12.456634207116945"><ele>332.0</ele><time>2026-04-19T09:14:45.031Z</time></trkpt><trkpt lat="42.54233257793108" lon="12.456738865546361"><ele>332.0</ele><time>2026-04-19T09:14:51.031Z</time></trkpt><trkpt lat="42.5423509938349" lon="12.456842202241985"><ele>332.1666666666667</ele><time>2026-04-19T09:15:35.032Z</time></trkpt><trkpt lat="42.54234569230213" lon="12.456941355432162"><ele>332.33333333333337</ele><time>2026-04-19T09:15:37.032Z</time></trkpt><trkpt lat="42.54235602317741" lon="12.457028281703053"><ele>332.5</ele><time>2026-04-19T09:15:39.032Z</time></trkpt><trkpt lat="42.542358675279104" lon="12.457117122758062"><ele>332.6666666666667</ele><time>2026-04-19T09:15:42.032Z</time></trkpt><trkpt lat="42.54227403989889" lon="12.45711278262687"><ele>332.8333333333333</ele><time>2026-04-19T09:15:44.032Z</time></trkpt><trkpt lat="42.54220991255061" lon="12.45715470693511"><ele>333.0</ele><time>2026-04-19T09:15:45.032Z</time></trkpt><trkpt lat="42.54208342082498" lon="12.457176958389653"><ele>331.6666666666667</ele><time>2026-04-19T09:15:47.032Z</time></trkpt><trkpt lat="42.5420175788992" lon="12.45718584293103"><ele>330.3333333333333</ele><time>2026-04-19T09:15:48.032Z</time></trkpt><trkpt lat="42.541899431985556" lon="12.457203245799846"><ele>329.0</ele><time>2026-04-19T09:15:50.032Z</time></trkpt><trkpt lat="42.54182118809727" lon="12.457229852430347"><ele>327.66666666666663</ele><time>2026-04-19T09:15:53.032Z</time></trkpt><trkpt lat="42.54173056895557" lon="12.457259163605316"><ele>326.3333333333333</ele><time>2026-04-19T09:15:57.032Z</time></trkpt><trkpt lat="42.541653182956544" lon="12.457270621507579"><ele>325.0</ele><time>2026-04-19T09:16:01.032Z</time></trkpt><trkpt lat="42.54171055378131" lon="12.457309855886642"><ele>325.0</ele><time>2026-04-19T09:26:05.963Z</time></trkpt><trkpt lat="42.54177537009081" lon="12.457291669009539"><ele>325.0</ele><time>2026-04-19T09:26:07.963Z</time></trkpt><trkpt lat="42.541853833543115" lon="12.457276052438942"><ele>325.0</ele><time>2026-04-19T09:26:10.963Z</time></trkpt><trkpt lat="42.54193063990992" lon="12.457238631343564"><ele>325.0</ele><time>2026-04-19T09:26:12.962Z</time></trkpt><trkpt lat="42.54201085164765" lon="12.45722241843207"><ele>325.0</ele><time>2026-04-19T09:26:14.962Z</time></trkpt><trkpt lat="42.542110317621976" lon="12.457217167909082"><ele>325.0</ele><time>2026-04-19T09:26:16.962Z</time></trkpt><trkpt lat="42.542196110161306" lon="12.45718396382165"><ele>325.66666666666663</ele><time>2026-04-19T09:26:18.962Z</time></trkpt><trkpt lat="42.54227837716644" lon="12.45718693363247"><ele>326.3333333333333</ele><time>2026-04-19T09:26:20.962Z</time></trkpt><trkpt lat="42.54234376511923" lon="12.457210584189461"><ele>327.0</ele><time>2026-04-19T09:26:22.962Z</time></trkpt><trkpt lat="42.54243745215297" lon="12.45727850185339"><ele>327.6666666666667</ele><time>2026-04-19T09:29:01.959Z</time></trkpt><trkpt lat="42.54249182174735" lon="12.457342059634591"><ele>328.33333333333337</ele><time>2026-04-19T09:29:02.959Z</time></trkpt><trkpt lat="42.54254647405241" lon="12.457421719312917"><ele>329.0</ele><time>2026-04-19T09:29:03.959Z</time></trkpt><trkpt lat="42.54261758816228" lon="12.457530611694985"><ele>329.0</ele><time>2026-04-19T09:29:04.959Z</time></trkpt><trkpt lat="42.54272157679503" lon="12.457646125606756"><ele>329.0</ele><time>2026-04-19T09:29:05.959Z</time></trkpt><trkpt lat="42.542824341938704" lon="12.457770010885078"><ele>329.0</ele><time>2026-04-19T09:29:06.959Z</time></trkpt><trkpt lat="42.542926221162645" lon="12.45789186409867"><ele>329.0</ele><time>2026-04-19T09:29:07.959Z</time></trkpt><trkpt lat="42.54302007278865" lon="12.458006287321313"><ele>329.75</ele><time>2026-04-19T09:29:08.959Z</time></trkpt><trkpt lat="42.543097055397496" lon="12.45813663248682"><ele>330.5</ele><time>2026-04-19T09:29:09.959Z</time></trkpt><trkpt lat="42.543154707672635" lon="12.45828344470414"><ele>331.25</ele><time>2026-04-19T09:29:10.959Z</time></trkpt><trkpt lat="42.5431697331985" lon="12.458435047820977"><ele>332.0</ele><time>2026-04-19T09:29:11.959Z</time></trkpt><trkpt lat="42.54316258873599" lon="12.458596417611615"><ele>332.0</ele><time>2026-04-19T09:29:12.959Z</time></trkpt><trkpt lat="42.54313900405289" lon="12.458763702657937"><ele>332.0</ele><time>2026-04-19T09:29:13.959Z</time></trkpt><trkpt lat="42.543106294553645" lon="12.458938821472398"><ele>332.0</ele><time>2026-04-19T09:29:14.959Z</time></trkpt><trkpt lat="42.54307744217285" lon="12.45911753804611"><ele>332.0</ele><time>2026-04-19T09:29:15.959Z</time></trkpt><trkpt lat="42.543048777246014" lon="12.459312121511445"><ele>332.33333333333337</ele><time>2026-04-19T09:29:16.959Z</time></trkpt><trkpt lat="42.54301700467256" lon="12.459521250640666"><ele>332.6666666666667</ele><time>2026-04-19T09:29:17.959Z</time></trkpt><trkpt lat="42.542979703744585" lon="12.459729712826883"><ele>333.0</ele><time>2026-04-19T09:29:18.959Z</time></trkpt><trkpt lat="42.54293959786598" lon="12.4599483899712"><ele>336.0</ele><time>2026-04-19T09:29:19.959Z</time></trkpt><trkpt lat="42.54289662954614" lon="12.46016915240798"><ele>339.0</ele><time>2026-04-19T09:29:20.959Z</time></trkpt><trkpt lat="42.54283901418454" lon="12.460381604230669"><ele>342.0</ele><time>2026-04-19T09:29:21.959Z</time></trkpt><trkpt lat="42.542758868581544" lon="12.46058320231916"><ele>334.6666666666667</ele><time>2026-04-19T09:29:22.959Z</time></trkpt><trkpt lat="42.54267095792818" lon="12.460778073679116"><ele>327.33333333333337</ele><time>2026-04-19T09:29:23.958Z</time></trkpt><trkpt lat="42.54257768310139" lon="12.460976253139743"><ele>320.0</ele><time>2026-04-19T09:29:24.958Z</time></trkpt><trkpt lat="42.542486731127745" lon="12.461180504417577"><ele>322.33333333333337</ele><time>2026-04-19T09:29:25.958Z</time></trkpt><trkpt lat="42.542407317041366" lon="12.46139604550402"><ele>324.6666666666667</ele><time>2026-04-19T09:29:26.958Z</time></trkpt><trkpt lat="42.54234851012084" lon="12.46161813749226"><ele>327.0</ele><time>2026-04-19T09:29:27.958Z</time></trkpt><trkpt lat="42.54229531464862" lon="12.46183130200289"><ele>327.0</ele><time>2026-04-19T09:29:28.958Z</time></trkpt><trkpt lat="42.542245507392536" lon="12.462036894966138"><ele>327.0</ele><time>2026-04-19T09:29:29.958Z</time></trkpt><trkpt lat="42.54220223888034" lon="12.462238035562837"><ele>327.0</ele><time>2026-04-19T09:29:30.958Z</time></trkpt><trkpt lat="42.54215930280758" lon="12.46244552131181"><ele>328.6666666666667</ele><time>2026-04-19T09:29:31.958Z</time></trkpt><trkpt lat="42.542122552614785" lon="12.462652828343415"><ele>330.33333333333337</ele><time>2026-04-19T09:29:32.958Z</time></trkpt><trkpt lat="42.54206624224704" lon="12.462873362783702"><ele>332.0</ele><time>2026-04-19T09:29:33.958Z</time></trkpt><trkpt lat="42.54200645393987" lon="12.463095867035388"><ele>324.6666666666667</ele><time>2026-04-19T09:29:34.958Z</time></trkpt><trkpt lat="42.54193839787722" lon="12.46332512950612"><ele>317.3333333333333</ele><time>2026-04-19T09:29:35.958Z</time></trkpt><trkpt lat="42.54187017783689" lon="12.463559443729809"><ele>310.0</ele><time>2026-04-19T09:29:36.958Z</time></trkpt><trkpt lat="42.54179736533147" lon="12.46379525960381"><ele>310.0</ele><time>2026-04-19T09:29:37.958Z</time></trkpt><trkpt lat="42.541724585386234" lon="12.46401416792807"><ele>310.0</ele><time>2026-04-19T09:29:38.958Z</time></trkpt><trkpt lat="42.541636781838044" lon="12.464206479670189"><ele>310.0</ele><time>2026-04-19T09:29:39.958Z</time></trkpt><trkpt lat="42.54156844962736" lon="12.464421807382466"><ele>311.0</ele><time>2026-04-19T09:29:40.958Z</time></trkpt><trkpt lat="42.54150361220707" lon="12.464623996818908"><ele>312.0</ele><time>2026-04-19T09:29:41.958Z</time></trkpt><trkpt lat="42.54142544086438" lon="12.464810131901771"><ele>313.0</ele><time>2026-04-19T09:29:42.958Z</time></trkpt><trkpt lat="42.541336380155926" lon="12.464999165469182"><ele>313.0</ele><time>2026-04-19T09:29:43.958Z</time></trkpt><trkpt lat="42.5412440940278" lon="12.465207701990424"><ele>313.0</ele><time>2026-04-19T09:29:44.958Z</time></trkpt><trkpt lat="42.541165526267655" lon="12.465429232868585"><ele>313.0</ele><time>2026-04-19T09:29:45.958Z</time></trkpt><trkpt lat="42.541094569834115" lon="12.465666518677898"><ele>313.66666666666663</ele><time>2026-04-19T09:29:46.958Z</time></trkpt><trkpt lat="42.54104760643965" lon="12.465919846818492"><ele>314.3333333333333</ele><time>2026-04-19T09:29:47.958Z</time></trkpt><trkpt lat="42.54101286374524" lon="12.466180496220474"><ele>315.0</ele><time>2026-04-19T09:29:48.958Z</time></trkpt><trkpt lat="42.54095955966221" lon="12.46641465527328"><ele>315.0</ele><time>2026-04-19T09:29:49.958Z</time></trkpt><trkpt lat="42.540880913483406" lon="12.466625183360277"><ele>315.0</ele><time>2026-04-19T09:29:50.958Z</time></trkpt><trkpt lat="42.54077296691559" lon="12.466831158482092"><ele>315.0</ele><time>2026-04-19T09:29:51.958Z</time></trkpt><trkpt lat="42.540636674928095" lon="12.467016571291632"><ele>314.6666666666667</ele><time>2026-04-19T09:29:52.958Z</time></trkpt><trkpt lat="42.54049394967607" lon="12.467197993393777"><ele>314.33333333333337</ele><time>2026-04-19T09:29:53.958Z</time></trkpt><trkpt lat="42.540371487984494" lon="12.467382453551798"><ele>314.0</ele><time>2026-04-19T09:29:54.958Z</time></trkpt><trkpt lat="42.540247383891476" lon="12.467555930175406"><ele>314.0</ele><time>2026-04-19T09:29:55.958Z</time></trkpt><trkpt lat="42.54012371538532" lon="12.467727566849696"><ele>314.0</ele><time>2026-04-19T09:29:56.958Z</time></trkpt><trkpt lat="42.53999823118952" lon="12.467903122031318"><ele>314.0</ele><time>2026-04-19T09:29:57.957Z</time></trkpt><trkpt lat="42.539877844960266" lon="12.46807057993073"><ele>318.0</ele><time>2026-04-19T09:29:58.957Z</time></trkpt><trkpt lat="42.53976085640712" lon="12.468233701783578"><ele>322.0</ele><time>2026-04-19T09:29:59.957Z</time></trkpt><trkpt lat="42.539652315169924" lon="12.468396010465366"><ele>326.0</ele><time>2026-04-19T09:30:00.957Z</time></trkpt><trkpt lat="42.53955361543982" lon="12.468569945965836"><ele>322.6666666666667</ele><time>2026-04-19T09:30:01.957Z</time></trkpt><trkpt lat="42.53947554384205" lon="12.468769373650124"><ele>319.3333333333333</ele><time>2026-04-19T09:30:02.96Z</time></trkpt><trkpt lat="42.53941647362212" lon="12.468991350968928"><ele>316.0</ele><time>2026-04-19T09:30:03.96Z</time></trkpt><trkpt lat="42.53938207495896" lon="12.469230806686056"><ele>313.66666666666663</ele><time>2026-04-19T09:30:04.96Z</time></trkpt><trkpt lat="42.53936724040877" lon="12.469480373395443"><ele>311.3333333333333</ele><time>2026-04-19T09:30:05.959Z</time></trkpt><trkpt lat="42.53936689101001" lon="12.469723513466468"><ele>309.0</ele><time>2026-04-19T09:30:06.959Z</time></trkpt><trkpt lat="42.53936498413471" lon="12.469964475320278"><ele>306.6666666666667</ele><time>2026-04-19T09:30:07.959Z</time></trkpt><trkpt lat="42.53935542345068" lon="12.470208465820381"><ele>304.33333333333337</ele><time>2026-04-19T09:30:08.96Z</time></trkpt><trkpt lat="42.53934671449038" lon="12.470429373053317"><ele>302.0</ele><time>2026-04-19T09:30:09.96Z</time></trkpt><trkpt lat="42.5393416223593" lon="12.470644588806914"><ele>300.0</ele><time>2026-04-19T09:30:10.96Z</time></trkpt><trkpt lat="42.53934621952686" lon="12.470851600815628"><ele>298.0</ele><time>2026-04-19T09:30:11.96Z</time></trkpt><trkpt lat="42.5393481935013" lon="12.47106006338255"><ele>296.0</ele><time>2026-04-19T09:30:12.96Z</time></trkpt><trkpt lat="42.53934537262049" lon="12.471267923273286"><ele>296.0</ele><time>2026-04-19T09:30:13.96Z</time></trkpt><trkpt lat="42.539346157298816" lon="12.47147276161892"><ele>296.0</ele><time>2026-04-19T09:30:14.959Z</time></trkpt><trkpt lat="42.53934363094891" lon="12.471674445956635"><ele>296.0</ele><time>2026-04-19T09:30:15.959Z</time></trkpt><trkpt lat="42.53934272427022" lon="12.47187598975796"><ele>296.0</ele><time>2026-04-19T09:30:16.959Z</time></trkpt><trkpt lat="42.5393427161811" lon="12.472085027490406"><ele>296.0</ele><time>2026-04-19T09:30:17.959Z</time></trkpt><trkpt lat="42.539349156098" lon="12.4722867257757"><ele>296.0</ele><time>2026-04-19T09:30:18.959Z</time></trkpt><trkpt lat="42.53935768094397" lon="12.472499792388184"><ele>296.0</ele><time>2026-04-19T09:30:19.959Z</time></trkpt><trkpt lat="42.53936654369647" lon="12.472719262769191"><ele>296.0</ele><time>2026-04-19T09:30:20.959Z</time></trkpt><trkpt lat="42.53937310359257" lon="12.472936314061208"><ele>296.0</ele><time>2026-04-19T09:30:21.959Z</time></trkpt><trkpt lat="42.53937781589847" lon="12.473154109735272"><ele>296.0</ele><time>2026-04-19T09:30:22.959Z</time></trkpt><trkpt lat="42.53938923382482" lon="12.473375651702582"><ele>295.6666666666667</ele><time>2026-04-19T09:30:23.959Z</time></trkpt><trkpt lat="42.53940244942363" lon="12.473611812515433"><ele>295.3333333333333</ele><time>2026-04-19T09:30:24.959Z</time></trkpt><trkpt lat="42.53941099825898" lon="12.47386143425503"><ele>295.0</ele><time>2026-04-19T09:30:25.959Z</time></trkpt><trkpt lat="42.53941845834173" lon="12.474107631542513"><ele>294.66666666666663</ele><time>2026-04-19T09:30:26.959Z</time></trkpt><trkpt lat="42.539435215636026" lon="12.47436185596309"><ele>294.3333333333333</ele><time>2026-04-19T09:30:27.959Z</time></trkpt><trkpt lat="42.53944828452155" lon="12.474618605409052"><ele>294.0</ele><time>2026-04-19T09:30:28.959Z</time></trkpt><trkpt lat="42.53945985011896" lon="12.474874495984178"><ele>294.0</ele><time>2026-04-19T09:30:29.959Z</time></trkpt><trkpt lat="42.53947533032674" lon="12.475124834800837"><ele>294.0</ele><time>2026-04-19T09:30:30.959Z</time></trkpt><trkpt lat="42.539485222614715" lon="12.475374997261625"><ele>294.0</ele><time>2026-04-19T09:30:31.959Z</time></trkpt><trkpt lat="42.53948924129739" lon="12.475625357268223"><ele>295.3333333333333</ele><time>2026-04-19T09:30:32.959Z</time></trkpt><trkpt lat="42.53948977059263" lon="12.47586819257729"><ele>296.66666666666663</ele><time>2026-04-19T09:30:33.959Z</time></trkpt><trkpt lat="42.53946857729492" lon="12.47610483781741"><ele>298.0</ele><time>2026-04-19T09:30:34.959Z</time></trkpt><trkpt lat="42.53943298277018" lon="12.47633603077031"><ele>299.66666666666663</ele><time>2026-04-19T09:30:35.959Z</time></trkpt><trkpt lat="42.539355065915075" lon="12.476556681008981"><ele>301.3333333333333</ele><time>2026-04-19T09:30:36.959Z</time></trkpt><trkpt lat="42.53927999326972" lon="12.47678051893481"><ele>303.0</ele><time>2026-04-19T09:30:37.959Z</time></trkpt><trkpt lat="42.53920736137237" lon="12.476998414739318"><ele>306.6666666666667</ele><time>2026-04-19T09:30:38.959Z</time></trkpt><trkpt lat="42.53915019358307" lon="12.4772211152959"><ele>310.33333333333337</ele><time>2026-04-19T09:30:39.959Z</time></trkpt><trkpt lat="42.53907586691255" lon="12.477430556365226"><ele>314.0</ele><time>2026-04-19T09:30:40.959Z</time></trkpt><trkpt lat="42.53900691335692" lon="12.477639303527782"><ele>314.0</ele><time>2026-04-19T09:30:41.959Z</time></trkpt><trkpt lat="42.538917397979" lon="12.47782900680187"><ele>314.0</ele><time>2026-04-19T09:30:42.959Z</time></trkpt><trkpt lat="42.5388337930058" lon="12.478033566720413"><ele>314.0</ele><time>2026-04-19T09:30:43.959Z</time></trkpt><trkpt lat="42.53873685419646" lon="12.478239729242892"><ele>314.6666666666667</ele><time>2026-04-19T09:30:44.959Z</time></trkpt><trkpt lat="42.5386290691646" lon="12.478430315110064"><ele>315.3333333333333</ele><time>2026-04-19T09:30:45.959Z</time></trkpt><trkpt lat="42.538508144415694" lon="12.478612711429939"><ele>316.0</ele><time>2026-04-19T09:30:46.958Z</time></trkpt><trkpt lat="42.53838909762932" lon="12.478798115457545"><ele>316.0</ele><time>2026-04-19T09:30:47.958Z</time></trkpt><trkpt lat="42.53828821844982" lon="12.478987915781001"><ele>316.0</ele><time>2026-04-19T09:30:48.958Z</time></trkpt><trkpt lat="42.538207768555786" lon="12.479184739906396"><ele>316.0</ele><time>2026-04-19T09:30:49.958Z</time></trkpt><trkpt lat="42.5381423796181" lon="12.47939606353048"><ele>317.3333333333333</ele><time>2026-04-19T09:30:50.958Z</time></trkpt><trkpt lat="42.53809830426698" lon="12.479626604547821"><ele>318.6666666666667</ele><time>2026-04-19T09:30:51.958Z</time></trkpt><trkpt lat="42.53806708129674" lon="12.479872673125133"><ele>320.0</ele><time>2026-04-19T09:30:52.958Z</time></trkpt><trkpt lat="42.53804391734851" lon="12.480110760811758"><ele>320.0</ele><time>2026-04-19T09:30:53.958Z</time></trkpt><trkpt lat="42.538014720676706" lon="12.48034361361244"><ele>320.0</ele><time>2026-04-19T09:30:54.958Z</time></trkpt><trkpt lat="42.53796286567094" lon="12.480583673945295"><ele>320.0</ele><time>2026-04-19T09:30:55.958Z</time></trkpt><trkpt lat="42.537877155099096" lon="12.480801264578973"><ele>318.33333333333337</ele><time>2026-04-19T09:30:56.958Z</time></trkpt><trkpt lat="42.53777233671111" lon="12.481002441263076"><ele>316.6666666666667</ele><time>2026-04-19T09:30:57.958Z</time></trkpt><trkpt lat="42.5376554313489" lon="12.481195134159913"><ele>315.0</ele><time>2026-04-19T09:30:58.958Z</time></trkpt><trkpt lat="42.5375425804363" lon="12.481395770717413"><ele>315.0</ele><time>2026-04-19T09:30:59.958Z</time></trkpt><trkpt lat="42.537432327789304" lon="12.481590178784591"><ele>315.0</ele><time>2026-04-19T09:31:00.958Z</time></trkpt><trkpt lat="42.53733378186696" lon="12.481779850672565"><ele>315.0</ele><time>2026-04-19T09:31:01.958Z</time></trkpt><trkpt lat="42.5372405080208" lon="12.481971937425836"><ele>315.75</ele><time>2026-04-19T09:31:02.958Z</time></trkpt><trkpt lat="42.537173352986414" lon="12.482152199634788"><ele>316.5</ele><time>2026-04-19T09:31:03.958Z</time></trkpt><trkpt lat="42.53712696657995" lon="12.48233795433135"><ele>317.25</ele><time>2026-04-19T09:31:04.958Z</time></trkpt><trkpt lat="42.53710701610403" lon="12.482529444315718"><ele>318.0</ele><time>2026-04-19T09:31:05.958Z</time></trkpt><trkpt lat="42.53712494359023" lon="12.48272080379596"><ele>318.0</ele><time>2026-04-19T09:31:06.958Z</time></trkpt><trkpt lat="42.53717425723722" lon="12.482917439573807"><ele>318.0</ele><time>2026-04-19T09:31:07.958Z</time></trkpt><trkpt lat="42.53723634502679" lon="12.483101203894146"><ele>318.0</ele><time>2026-04-19T09:31:08.958Z</time></trkpt><trkpt lat="42.537302403954875" lon="12.483309571411004"><ele>316.6666666666667</ele><time>2026-04-19T09:31:09.958Z</time></trkpt><trkpt lat="42.53738997178552" lon="12.483526864376154"><ele>315.33333333333337</ele><time>2026-04-19T09:31:10.958Z</time></trkpt><trkpt lat="42.537478979328924" lon="12.483744355620297"><ele>314.0</ele><time>2026-04-19T09:31:11.958Z</time></trkpt><trkpt lat="42.53757106200551" lon="12.483969360613566"><ele>310.6666666666667</ele><time>2026-04-19T09:31:12.958Z</time></trkpt><trkpt lat="42.53766956911834" lon="12.484211932221172"><ele>307.3333333333333</ele><time>2026-04-19T09:31:13.958Z</time></trkpt><trkpt lat="42.5377616739525" lon="12.484443095346817"><ele>304.0</ele><time>2026-04-19T09:31:14.958Z</time></trkpt><trkpt lat="42.53785310650683" lon="12.484672571653778"><ele>306.66666666666663</ele><time>2026-04-19T09:31:15.958Z</time></trkpt><trkpt lat="42.53793173037213" lon="12.484897828110274"><ele>309.3333333333333</ele><time>2026-04-19T09:31:16.958Z</time></trkpt><trkpt lat="42.537996084845744" lon="12.48513251966189"><ele>312.0</ele><time>2026-04-19T09:31:17.958Z</time></trkpt><trkpt lat="42.53804191580456" lon="12.485376236721745"><ele>311.6666666666667</ele><time>2026-04-19T09:31:18.958Z</time></trkpt><trkpt lat="42.538090597165464" lon="12.485619643610653"><ele>311.33333333333337</ele><time>2026-04-19T09:31:19.957Z</time></trkpt><trkpt lat="42.538139940050264" lon="12.485861667664745"><ele>311.0</ele><time>2026-04-19T09:31:20.957Z</time></trkpt><trkpt lat="42.53819355679402" lon="12.486105145355905"><ele>310.33333333333337</ele><time>2026-04-19T09:31:21.957Z</time></trkpt><trkpt lat="42.53825544669074" lon="12.486352908261397"><ele>309.6666666666667</ele><time>2026-04-19T09:31:22.957Z</time></trkpt><trkpt lat="42.53831688273414" lon="12.48659534801193"><ele>309.0</ele><time>2026-04-19T09:31:23.957Z</time></trkpt><trkpt lat="42.53837651577875" lon="12.486839550670977"><ele>309.0</ele><time>2026-04-19T09:31:24.957Z</time></trkpt><trkpt lat="42.538428432346585" lon="12.487073902850707"><ele>309.0</ele><time>2026-04-19T09:31:25.957Z</time></trkpt><trkpt lat="42.538473964293665" lon="12.487297186952304"><ele>309.0</ele><time>2026-04-19T09:31:26.957Z</time></trkpt><trkpt lat="42.53852529346996" lon="12.487515414908625"><ele>308.3333333333333</ele><time>2026-04-19T09:31:27.957Z</time></trkpt><trkpt lat="42.53859994768774" lon="12.487726392381928"><ele>307.66666666666663</ele><time>2026-04-19T09:31:28.957Z</time></trkpt><trkpt lat="42.53870757639423" lon="12.487913488181592"><ele>307.0</ele><time>2026-04-19T09:31:29.957Z</time></trkpt><trkpt lat="42.538815369027745" lon="12.488100304021012"><ele>309.3333333333333</ele><time>2026-04-19T09:31:30.957Z</time></trkpt><trkpt lat="42.53892788523165" lon="12.48826823489251"><ele>311.6666666666667</ele><time>2026-04-19T09:31:31.957Z</time></trkpt><trkpt lat="42.53905217274317" lon="12.488418374925049"><ele>314.0</ele><time>2026-04-19T09:31:32.957Z</time></trkpt><trkpt lat="42.53919548067192" lon="12.488602938466302"><ele>314.0</ele><time>2026-04-19T09:31:33.957Z</time></trkpt><trkpt lat="42.53933608326233" lon="12.488792771304096"><ele>314.0</ele><time>2026-04-19T09:31:34.957Z</time></trkpt><trkpt lat="42.53947022931782" lon="12.48900199543004"><ele>314.0</ele><time>2026-04-19T09:31:35.957Z</time></trkpt><trkpt lat="42.53960363468611" lon="12.489233921175957"><ele>311.6666666666667</ele><time>2026-04-19T09:31:36.957Z</time></trkpt><trkpt lat="42.53972512687571" lon="12.489476504630662"><ele>309.3333333333333</ele><time>2026-04-19T09:31:37.957Z</time></trkpt><trkpt lat="42.53984728040878" lon="12.489742449961458"><ele>307.0</ele><time>2026-04-19T09:31:38.957Z</time></trkpt><trkpt lat="42.539769620859346" lon="12.48953766453612"><ele>304.66666666666663</ele><time>2026-04-19T09:31:39.957Z</time></trkpt><trkpt lat="42.53983309520021" lon="12.489735570476181"><ele>302.3333333333333</ele><time>2026-04-19T09:31:40.957Z</time></trkpt><trkpt lat="42.53990247543051" lon="12.489969973281559"><ele>300.0</ele><time>2026-04-19T09:31:41.957Z</time></trkpt><trkpt lat="42.53997313104781" lon="12.490210486198745"><ele>300.6666666666667</ele><time>2026-04-19T09:31:42.957Z</time></trkpt><trkpt lat="42.54006294063858" lon="12.490456952892991"><ele>301.33333333333337</ele><time>2026-04-19T09:31:43.957Z</time></trkpt><trkpt lat="42.540130508957525" lon="12.490701451665391"><ele>302.0</ele><time>2026-04-19T09:31:44.957Z</time></trkpt><trkpt lat="42.540190249043775" lon="12.490935166292704"><ele>302.0</ele><time>2026-04-19T09:31:45.957Z</time></trkpt><trkpt lat="42.540251850161255" lon="12.49115998767081"><ele>302.0</ele><time>2026-04-19T09:31:46.957Z</time></trkpt><trkpt lat="42.54031481173009" lon="12.491393477145758"><ele>302.0</ele><time>2026-04-19T09:31:47.957Z</time></trkpt><trkpt lat="42.540362886264084" lon="12.491624681393606"><ele>298.33333333333337</ele><time>2026-04-19T09:31:48.957Z</time></trkpt><trkpt lat="42.540412270311556" lon="12.491838589085361"><ele>294.6666666666667</ele><time>2026-04-19T09:31:49.957Z</time></trkpt><trkpt lat="42.54047961225995" lon="12.49205604608554"><ele>291.0</ele><time>2026-04-19T09:31:50.957Z</time></trkpt><trkpt lat="42.540569746172764" lon="12.492254736970581"><ele>291.0</ele><time>2026-04-19T09:31:51.957Z</time></trkpt><trkpt lat="42.540696210232255" lon="12.492414078162177"><ele>291.0</ele><time>2026-04-19T09:31:52.957Z</time></trkpt><trkpt lat="42.540838635705676" lon="12.492523864783672"><ele>291.0</ele><time>2026-04-19T09:31:53.956Z</time></trkpt><trkpt lat="42.54098294874557" lon="12.492586582209269"><ele>291.0</ele><time>2026-04-19T09:31:54.956Z</time></trkpt><trkpt lat="42.54113769740143" lon="12.492617268120448"><ele>291.0</ele><time>2026-04-19T09:31:55.956Z</time></trkpt><trkpt lat="42.54127922225207" lon="12.492669029133804"><ele>291.0</ele><time>2026-04-19T09:31:56.956Z</time></trkpt><trkpt lat="42.54140533587965" lon="12.492737096314222"><ele>291.0</ele><time>2026-04-19T09:31:57.956Z</time></trkpt><trkpt lat="42.54147994924177" lon="12.492892816599271"><ele>286.75</ele><time>2026-04-19T09:31:58.956Z</time></trkpt><trkpt lat="42.54153941382061" lon="12.493060242070557"><ele>282.5</ele><time>2026-04-19T09:31:59.956Z</time></trkpt><trkpt lat="42.54157468865348" lon="12.493243927562473"><ele>278.25</ele><time>2026-04-19T09:32:00.956Z</time></trkpt><trkpt lat="42.54157962030201" lon="12.493436753414606"><ele>274.0</ele><time>2026-04-19T09:32:01.956Z</time></trkpt><trkpt lat="42.54155668724452" lon="12.493635527169511"><ele>272.66666666666663</ele><time>2026-04-19T09:32:02.956Z</time></trkpt><trkpt lat="42.54153154530431" lon="12.493875867791006"><ele>271.3333333333333</ele><time>2026-04-19T09:32:03.956Z</time></trkpt><trkpt lat="42.541530734016874" lon="12.494101543959756"><ele>270.0</ele><time>2026-04-19T09:32:04.956Z</time></trkpt><trkpt lat="42.541521639010654" lon="12.494342662786838"><ele>270.0</ele><time>2026-04-19T09:32:05.956Z</time></trkpt><trkpt lat="42.541511047955325" lon="12.494580897884278"><ele>270.0</ele><time>2026-04-19T09:32:06.956Z</time></trkpt><trkpt lat="42.54152530631202" lon="12.494820551637208"><ele>270.0</ele><time>2026-04-19T09:32:07.956Z</time></trkpt><trkpt lat="42.5415340326815" lon="12.495066082255061"><ele>268.3333333333333</ele><time>2026-04-19T09:32:08.958Z</time></trkpt><trkpt lat="42.54152584483166" lon="12.495301497420598"><ele>266.66666666666663</ele><time>2026-04-19T09:32:09.959Z</time></trkpt><trkpt lat="42.541537222238674" lon="12.49554543615448"><ele>265.0</ele><time>2026-04-19T09:32:10.959Z</time></trkpt><trkpt lat="42.54154822874341" lon="12.495776575226273"><ele>264.66666666666663</ele><time>2026-04-19T09:32:11.958Z</time></trkpt><trkpt lat="42.54159423378624" lon="12.496012513107454"><ele>264.3333333333333</ele><time>2026-04-19T09:32:12.958Z</time></trkpt><trkpt lat="42.541630201812445" lon="12.4962367998149"><ele>264.0</ele><time>2026-04-19T09:32:13.958Z</time></trkpt><trkpt lat="42.54165218475523" lon="12.49646851162667"><ele>262.6666666666667</ele><time>2026-04-19T09:32:14.958Z</time></trkpt><trkpt lat="42.54163836969581" lon="12.496696527022914"><ele>261.33333333333337</ele><time>2026-04-19T09:32:15.958Z</time></trkpt><trkpt lat="42.54161866636147" lon="12.496929062102168"><ele>260.0</ele><time>2026-04-19T09:32:16.958Z</time></trkpt><trkpt lat="42.541601532071" lon="12.497174205712096"><ele>257.6666666666667</ele><time>2026-04-19T09:32:17.958Z</time></trkpt><trkpt lat="42.541592425197656" lon="12.49741636461117"><ele>255.33333333333331</ele><time>2026-04-19T09:32:18.958Z</time></trkpt><trkpt lat="42.54158451901714" lon="12.49765621691917"><ele>253.0</ele><time>2026-04-19T09:32:19.958Z</time></trkpt><trkpt lat="42.541572362204846" lon="12.497893368227158"><ele>249.33333333333331</ele><time>2026-04-19T09:32:20.958Z</time></trkpt><trkpt lat="42.541559457572895" lon="12.49812032314589"><ele>245.66666666666669</ele><time>2026-04-19T09:32:21.958Z</time></trkpt><trkpt lat="42.541535650112046" lon="12.498330176371862"><ele>242.0</ele><time>2026-04-19T09:32:22.958Z</time></trkpt><trkpt lat="42.541477117726146" lon="12.498523334510589"><ele>242.0</ele><time>2026-04-19T09:32:23.958Z</time></trkpt><trkpt lat="42.54139852521275" lon="12.498716489139062"><ele>242.0</ele><time>2026-04-19T09:32:24.958Z</time></trkpt><trkpt lat="42.54130258554953" lon="12.498895285720351"><ele>242.0</ele><time>2026-04-19T09:32:25.958Z</time></trkpt><trkpt lat="42.54119147743688" lon="12.499052808358584"><ele>244.0</ele><time>2026-04-19T09:32:26.958Z</time></trkpt><trkpt lat="42.541058576171466" lon="12.499158238710267"><ele>246.0</ele><time>2026-04-19T09:32:27.958Z</time></trkpt><trkpt lat="42.540912380484485" lon="12.499248261403173"><ele>248.0</ele><time>2026-04-19T09:32:28.958Z</time></trkpt><trkpt lat="42.54075771139744" lon="12.499319680131883"><ele>248.0</ele><time>2026-04-19T09:32:29.958Z</time></trkpt><trkpt lat="42.540604394723744" lon="12.499411152628367"><ele>248.0</ele><time>2026-04-19T09:32:30.958Z</time></trkpt><trkpt lat="42.54046447268489" lon="12.499553402309747"><ele>248.0</ele><time>2026-04-19T09:32:31.958Z</time></trkpt><trkpt lat="42.54031892625751" lon="12.499701309168813"><ele>245.0</ele><time>2026-04-19T09:32:32.958Z</time></trkpt><trkpt lat="42.54017946320085" lon="12.499854485811632"><ele>242.0</ele><time>2026-04-19T09:32:33.958Z</time></trkpt><trkpt lat="42.54004774516797" lon="12.500019011290862"><ele>239.0</ele><time>2026-04-19T09:32:34.958Z</time></trkpt><trkpt lat="42.53990982628805" lon="12.50016918162726"><ele>239.0</ele><time>2026-04-19T09:32:35.958Z</time></trkpt><trkpt lat="42.53977941988498" lon="12.500318466865876"><ele>239.0</ele><time>2026-04-19T09:32:36.958Z</time></trkpt><trkpt lat="42.53962556676084" lon="12.500437901860886"><ele>239.0</ele><time>2026-04-19T09:32:37.958Z</time></trkpt><trkpt lat="42.53949889040853" lon="12.500612230998609"><ele>236.33333333333334</ele><time>2026-04-19T09:32:38.958Z</time></trkpt><trkpt lat="42.539373628107406" lon="12.500798506488701"><ele>233.66666666666669</ele><time>2026-04-19T09:32:39.958Z</time></trkpt><trkpt lat="42.539261828598" lon="12.50099522973216"><ele>231.0</ele><time>2026-04-19T09:32:40.958Z</time></trkpt><trkpt lat="42.53915764581141" lon="12.501207789738313"><ele>227.33333333333331</ele><time>2026-04-19T09:32:41.958Z</time></trkpt><trkpt lat="42.539068633907775" lon="12.501434835925734"><ele>223.66666666666666</ele><time>2026-04-19T09:32:42.958Z</time></trkpt><trkpt lat="42.539007362869135" lon="12.501666983940938"><ele>220.0</ele><time>2026-04-19T09:32:43.958Z</time></trkpt><trkpt lat="42.53894974603876" lon="12.50190959728657"><ele>217.33333333333331</ele><time>2026-04-19T09:32:44.958Z</time></trkpt><trkpt lat="42.5388979331495" lon="12.502152688804903"><ele>214.66666666666669</ele><time>2026-04-19T09:32:45.957Z</time></trkpt><trkpt lat="42.53885162007797" lon="12.502373390876349"><ele>212.0</ele><time>2026-04-19T09:32:46.957Z</time></trkpt><trkpt lat="42.538812719361665" lon="12.502576130245538"><ele>212.0</ele><time>2026-04-19T09:32:47.957Z</time></trkpt><trkpt lat="42.53877495269688" lon="12.502752972101357"><ele>212.0</ele><time>2026-04-19T09:32:48.957Z</time></trkpt><trkpt lat="42.53874498715548" lon="12.502943677905563"><ele>212.0</ele><time>2026-04-19T09:32:49.957Z</time></trkpt><trkpt lat="42.53872378576475" lon="12.503115505921626"><ele>212.0</ele><time>2026-04-19T09:32:50.957Z</time></trkpt><trkpt lat="42.53870007272565" lon="12.503286653609775"><ele>211.39999999999998</ele><time>2026-04-19T09:32:51.957Z</time></trkpt><trkpt lat="42.53867668024233" lon="12.50344952420731"><ele>210.79999999999998</ele><time>2026-04-19T09:32:52.957Z</time></trkpt><trkpt lat="42.538657664543344" lon="12.503593890161598"><ele>210.2</ele><time>2026-04-19T09:32:53.957Z</time></trkpt><trkpt lat="42.538648633850485" lon="12.503729350307669"><ele>209.6</ele><time>2026-04-19T09:32:54.957Z</time></trkpt><trkpt lat="42.53863298029853" lon="12.503866596063647"><ele>209.0</ele><time>2026-04-19T09:32:55.957Z</time></trkpt><trkpt lat="42.53861233361972" lon="12.503995907740025"><ele>207.6</ele><time>2026-04-19T09:32:56.957Z</time></trkpt><trkpt lat="42.53856528014573" lon="12.50412010785668"><ele>206.2</ele><time>2026-04-19T09:32:57.957Z</time></trkpt><trkpt lat="42.538499182662555" lon="12.504224263117916"><ele>204.79999999999998</ele><time>2026-04-19T09:32:58.957Z</time></trkpt><trkpt lat="42.53840283611111" lon="12.504288899484703"><ele>203.39999999999998</ele><time>2026-04-19T09:32:59.957Z</time></trkpt><trkpt lat="42.5382818234655" lon="12.504250344508234"><ele>202.0</ele><time>2026-04-19T09:33:00.957Z</time></trkpt><trkpt lat="42.538191494993754" lon="12.504155473866858"><ele>202.0</ele><time>2026-04-19T09:33:01.957Z</time></trkpt><trkpt lat="42.538135897446885" lon="12.504027498946442"><ele>202.0</ele><time>2026-04-19T09:33:02.957Z</time></trkpt><trkpt lat="42.53810809610415" lon="12.503869056130167"><ele>202.0</ele><time>2026-04-19T09:33:03.957Z</time></trkpt><trkpt lat="42.53807915239927" lon="12.503715860763807"><ele>202.0</ele><time>2026-04-19T09:33:04.957Z</time></trkpt><trkpt lat="42.53804460993254" lon="12.50356822474383"><ele>201.6</ele><time>2026-04-19T09:33:05.957Z</time></trkpt><trkpt lat="42.538003068378124" lon="12.50343125561382"><ele>201.2</ele><time>2026-04-19T09:33:06.957Z</time></trkpt><trkpt lat="42.537937889038915" lon="12.503308913846753"><ele>200.8</ele><time>2026-04-19T09:33:07.957Z</time></trkpt><trkpt lat="42.53785707253838" lon="12.503212599762623"><ele>200.4</ele><time>2026-04-19T09:33:08.957Z</time></trkpt><trkpt lat="42.53776055106898" lon="12.503150862075577"><ele>200.0</ele><time>2026-04-19T09:33:09.957Z</time></trkpt><trkpt lat="42.53764560867293" lon="12.503131366665654"><ele>200.0</ele><time>2026-04-19T09:33:10.957Z</time></trkpt><trkpt lat="42.53752962891666" lon="12.503170787347878"><ele>200.0</ele><time>2026-04-19T09:33:11.957Z</time></trkpt><trkpt lat="42.53741244342593" lon="12.5032407688839"><ele>200.0</ele><time>2026-04-19T09:33:12.957Z</time></trkpt><trkpt lat="42.53730599951072" lon="12.503337725072099"><ele>200.0</ele><time>2026-04-19T09:33:13.957Z</time></trkpt><trkpt lat="42.5371975941623" lon="12.503441835242086"><ele>200.0</ele><time>2026-04-19T09:33:14.957Z</time></trkpt><trkpt lat="42.53709210925068" lon="12.503534132041743"><ele>200.0</ele><time>2026-04-19T09:33:15.957Z</time></trkpt><trkpt lat="42.536988636397346" lon="12.503620019899552"><ele>200.0</ele><time>2026-04-19T09:33:16.957Z</time></trkpt><trkpt lat="42.53688908881198" lon="12.503710519372403"><ele>200.0</ele><time>2026-04-19T09:33:17.957Z</time></trkpt><trkpt lat="42.536785178665134" lon="12.503796339066295"><ele>198.25</ele><time>2026-04-19T09:33:18.956Z</time></trkpt><trkpt lat="42.53668047182467" lon="12.503878144324936"><ele>196.5</ele><time>2026-04-19T09:33:19.956Z</time></trkpt><trkpt lat="42.53657511168021" lon="12.503963355523592"><ele>194.75</ele><time>2026-04-19T09:33:20.956Z</time></trkpt><trkpt lat="42.53647159652809" lon="12.504049688922363"><ele>193.0</ele><time>2026-04-19T09:33:21.956Z</time></trkpt><trkpt lat="42.536370193991175" lon="12.504140916311526"><ele>193.0</ele><time>2026-04-19T09:33:22.956Z</time></trkpt><trkpt lat="42.53626743236437" lon="12.504227871422005"><ele>193.0</ele><time>2026-04-19T09:33:23.956Z</time></trkpt><trkpt lat="42.53616064874696" lon="12.50431201338669"><ele>193.0</ele><time>2026-04-19T09:33:24.956Z</time></trkpt><trkpt lat="42.536054121928245" lon="12.504404704565957"><ele>193.0</ele><time>2026-04-19T09:33:25.956Z</time></trkpt><trkpt lat="42.53594449595731" lon="12.504514615031104"><ele>190.66666666666666</ele><time>2026-04-19T09:33:26.956Z</time></trkpt><trkpt lat="42.53583032829658" lon="12.504642563435215"><ele>188.33333333333331</ele><time>2026-04-19T09:33:27.956Z</time></trkpt><trkpt lat="42.535716439475834" lon="12.504779431110766"><ele>186.0</ele><time>2026-04-19T09:33:28.956Z</time></trkpt><trkpt lat="42.53560199938116" lon="12.504924981434446"><ele>186.0</ele><time>2026-04-19T09:33:29.956Z</time></trkpt><trkpt lat="42.535491862166005" lon="12.505067475572213"><ele>186.0</ele><time>2026-04-19T09:33:30.956Z</time></trkpt><trkpt lat="42.53538179586361" lon="12.50520628702678"><ele>186.0</ele><time>2026-04-19T09:33:31.956Z</time></trkpt><trkpt lat="42.53527223894621" lon="12.505325026939834"><ele>186.0</ele><time>2026-04-19T09:33:32.956Z</time></trkpt><trkpt lat="42.53517038439462" lon="12.505469496372886"><ele>185.25</ele><time>2026-04-19T09:33:33.956Z</time></trkpt><trkpt lat="42.535070508835275" lon="12.505604458492757"><ele>184.5</ele><time>2026-04-19T09:33:34.956Z</time></trkpt><trkpt lat="42.53497986074791" lon="12.505752585299419"><ele>183.75</ele><time>2026-04-19T09:33:35.956Z</time></trkpt><trkpt lat="42.53489583140677" lon="12.505908205091568"><ele>183.0</ele><time>2026-04-19T09:33:36.956Z</time></trkpt><trkpt lat="42.534808649005264" lon="12.506066382089003"><ele>183.0</ele><time>2026-04-19T09:33:37.956Z</time></trkpt><trkpt lat="42.534708888326" lon="12.50620839018852"><ele>183.0</ele><time>2026-04-19T09:33:38.956Z</time></trkpt><trkpt lat="42.53460171723891" lon="12.506336360234664"><ele>183.0</ele><time>2026-04-19T09:33:39.956Z</time></trkpt><trkpt lat="42.53446986536336" lon="12.506424427147063"><ele>183.0</ele><time>2026-04-19T09:33:40.956Z</time></trkpt><trkpt lat="42.53432482618248" lon="12.50647212715221"><ele>181.25</ele><time>2026-04-19T09:33:41.956Z</time></trkpt><trkpt lat="42.534179657528895" lon="12.506450885327645"><ele>179.5</ele><time>2026-04-19T09:33:42.956Z</time></trkpt><trkpt lat="42.53402657553096" lon="12.506443681308536"><ele>177.75</ele><time>2026-04-19T09:33:43.956Z</time></trkpt><trkpt lat="42.533879175265845" lon="12.50645510429943"><ele>176.0</ele><time>2026-04-19T09:33:44.956Z</time></trkpt><trkpt lat="42.53373376822925" lon="12.506471446162214"><ele>176.0</ele><time>2026-04-19T09:33:45.956Z</time></trkpt><trkpt lat="42.53359690629843" lon="12.506542444626016"><ele>176.0</ele><time>2026-04-19T09:33:46.956Z</time></trkpt><trkpt lat="42.533471660581185" lon="12.506654461608184"><ele>176.0</ele><time>2026-04-19T09:33:47.956Z</time></trkpt><trkpt lat="42.53335560731979" lon="12.506782319574226"><ele>176.0</ele><time>2026-04-19T09:33:48.956Z</time></trkpt><trkpt lat="42.53324532793445" lon="12.506923377948251"><ele>176.0</ele><time>2026-04-19T09:33:49.956Z</time></trkpt><trkpt lat="42.53313661217581" lon="12.507061599506983"><ele>176.0</ele><time>2026-04-19T09:33:50.956Z</time></trkpt><trkpt lat="42.53301720766139" lon="12.507138211242102"><ele>176.0</ele><time>2026-04-19T09:33:51.956Z</time></trkpt><trkpt lat="42.53290333818891" lon="12.507205693573948"><ele>176.0</ele><time>2026-04-19T09:33:52.955Z</time></trkpt><trkpt lat="42.53277397045317" lon="12.507169843255266"><ele>175.25</ele><time>2026-04-19T09:33:53.955Z</time></trkpt><trkpt lat="42.5326642823698" lon="12.507099373120557"><ele>174.5</ele><time>2026-04-19T09:33:54.955Z</time></trkpt><trkpt lat="42.53257656137246" lon="12.506993875944433"><ele>173.75</ele><time>2026-04-19T09:33:55.955Z</time></trkpt><trkpt lat="42.532500955269384" lon="12.506871716915386"><ele>173.0</ele><time>2026-04-19T09:33:56.955Z</time></trkpt><trkpt lat="42.532427418206495" lon="12.506738761098774"><ele>173.0</ele><time>2026-04-19T09:33:57.955Z</time></trkpt><trkpt lat="42.532349573464515" lon="12.506623788973371"><ele>173.0</ele><time>2026-04-19T09:33:58.955Z</time></trkpt><trkpt lat="42.532282567566156" lon="12.506550702164585"><ele>173.0</ele><time>2026-04-19T09:33:59.955Z</time></trkpt><trkpt lat="42.532191937329834" lon="12.506575468717006"><ele>173.0</ele><time>2026-04-19T09:34:00.955Z</time></trkpt><trkpt lat="42.53212050023752" lon="12.506647123552872"><ele>173.0</ele><time>2026-04-19T09:34:01.955Z</time></trkpt><trkpt lat="42.53206086009215" lon="12.506615625797824"><ele>173.0</ele><time>2026-04-19T09:34:02.955Z</time></trkpt><trkpt lat="42.53207548294076" lon="12.50691065742441"><ele>173.0</ele><time>2026-04-19T09:34:03.955Z</time></trkpt><trkpt lat="42.53208871586645" lon="12.507068960505045"><ele>173.0</ele><time>2026-04-19T09:34:04.955Z</time></trkpt><trkpt lat="42.532098683223836" lon="12.507227865999289"><ele>173.0</ele><time>2026-04-19T09:34:05.955Z</time></trkpt><trkpt lat="42.53208233655087" lon="12.507400675848492"><ele>173.0</ele><time>2026-04-19T09:34:06.955Z</time></trkpt><trkpt lat="42.53204074463516" lon="12.507574582825097"><ele>170.5</ele><time>2026-04-19T09:34:07.955Z</time></trkpt><trkpt lat="42.531974923945754" lon="12.507760174871239"><ele>168.0</ele><time>2026-04-19T09:34:08.955Z</time></trkpt><trkpt lat="42.531906712992566" lon="12.507931568071418"><ele>165.5</ele><time>2026-04-19T09:34:09.955Z</time></trkpt><trkpt lat="42.5318082849513" lon="12.508068326625247"><ele>163.0</ele><time>2026-04-19T09:34:10.955Z</time></trkpt><trkpt lat="42.531707982987264" lon="12.508152262504323"><ele>163.0</ele><time>2026-04-19T09:34:11.955Z</time></trkpt><trkpt lat="42.53160016078707" lon="12.508184567303065"><ele>163.0</ele><time>2026-04-19T09:34:12.955Z</time></trkpt><trkpt lat="42.53149922559737" lon="12.508159651858868"><ele>163.0</ele><time>2026-04-19T09:34:13.955Z</time></trkpt><trkpt lat="42.53139917124891" lon="12.50810506445948"><ele>163.0</ele><time>2026-04-19T09:34:14.957Z</time></trkpt><trkpt lat="42.53132179484964" lon="12.508013396503749"><ele>163.0</ele><time>2026-04-19T09:34:15.956Z</time></trkpt><trkpt lat="42.53124969450376" lon="12.507906767909942"><ele>163.0</ele><time>2026-04-19T09:34:16.956Z</time></trkpt><trkpt lat="42.53117350073472" lon="12.507813251582272"><ele>163.0</ele><time>2026-04-19T09:34:17.957Z</time></trkpt><trkpt lat="42.531092783968845" lon="12.507750276390583"><ele>163.0</ele><time>2026-04-19T09:34:18.957Z</time></trkpt><trkpt lat="42.53101373766709" lon="12.507727375818007"><ele>163.0</ele><time>2026-04-19T09:34:19.957Z</time></trkpt><trkpt lat="42.530932174280665" lon="12.507757492975477"><ele>163.0</ele><time>2026-04-19T09:34:20.956Z</time></trkpt><trkpt lat="42.53087085079586" lon="12.507793328054612"><ele>163.0</ele><time>2026-04-19T09:34:21.956Z</time></trkpt><trkpt lat="42.530830192001105" lon="12.507884048546856"><ele>162.4</ele><time>2026-04-19T09:34:22.956Z</time></trkpt><trkpt lat="42.53082334894881" lon="12.507987753074051"><ele>161.8</ele><time>2026-04-19T09:34:23.957Z</time></trkpt><trkpt lat="42.53085820413514" lon="12.508107276521153"><ele>161.2</ele><time>2026-04-19T09:34:24.957Z</time></trkpt><trkpt lat="42.53092439593824" lon="12.508207458258514"><ele>160.6</ele><time>2026-04-19T09:34:25.957Z</time></trkpt><trkpt lat="42.53100653957614" lon="12.508295074298012"><ele>160.0</ele><time>2026-04-19T09:34:26.956Z</time></trkpt><trkpt lat="42.53108942964232" lon="12.508416404418755"><ele>160.0</ele><time>2026-04-19T09:34:27.956Z</time></trkpt><trkpt lat="42.53118461093088" lon="12.508537796608488"><ele>160.0</ele><time>2026-04-19T09:34:28.956Z</time></trkpt><trkpt lat="42.53128189513323" lon="12.508679026341513"><ele>160.0</ele><time>2026-04-19T09:34:29.956Z</time></trkpt><trkpt lat="42.53136588176724" lon="12.508825227368465"><ele>160.0</ele><time>2026-04-19T09:34:30.956Z</time></trkpt><trkpt lat="42.531437559940244" lon="12.508963286782025"><ele>157.2</ele><time>2026-04-19T09:34:31.956Z</time></trkpt><trkpt lat="42.531490056043666" lon="12.509093784633823"><ele>154.4</ele><time>2026-04-19T09:34:32.956Z</time></trkpt><trkpt lat="42.53152842338147" lon="12.509206200722408"><ele>151.6</ele><time>2026-04-19T09:34:33.956Z</time></trkpt><trkpt lat="42.531565087178556" lon="12.509321348264164"><ele>148.8</ele><time>2026-04-19T09:34:34.956Z</time></trkpt><trkpt lat="42.53157832078818" lon="12.509439844296061"><ele>146.0</ele><time>2026-04-19T09:34:35.956Z</time></trkpt><trkpt lat="42.53159971728993" lon="12.509575162196796"><ele>145.0</ele><time>2026-04-19T09:34:36.956Z</time></trkpt><trkpt lat="42.53160831638701" lon="12.50970799282266"><ele>144.0</ele><time>2026-04-19T09:34:37.956Z</time></trkpt><trkpt lat="42.53160578113559" lon="12.50985967654417"><ele>143.0</ele><time>2026-04-19T09:34:38.956Z</time></trkpt><trkpt lat="42.53159158701684" lon="12.510010659014013"><ele>142.0</ele><time>2026-04-19T09:34:39.956Z</time></trkpt><trkpt lat="42.53157008883123" lon="12.510160236461859"><ele>141.0</ele><time>2026-04-19T09:34:40.956Z</time></trkpt><trkpt lat="42.531546363843766" lon="12.51031294928436"><ele>139.0</ele><time>2026-04-19T09:34:41.956Z</time></trkpt><trkpt lat="42.53151609493157" lon="12.510465764981278"><ele>137.0</ele><time>2026-04-19T09:34:42.956Z</time></trkpt><trkpt lat="42.5314845727838" lon="12.510615918662909"><ele>135.0</ele><time>2026-04-19T09:34:43.956Z</time></trkpt><trkpt lat="42.531446765912825" lon="12.510762589607415"><ele>133.0</ele><time>2026-04-19T09:34:44.956Z</time></trkpt><trkpt lat="42.531406784793205" lon="12.510907331716343"><ele>133.0</ele><time>2026-04-19T09:34:45.956Z</time></trkpt><trkpt lat="42.53136275031992" lon="12.511050403311168"><ele>133.0</ele><time>2026-04-19T09:34:46.956Z</time></trkpt><trkpt lat="42.531310371753186" lon="12.511191527608904"><ele>133.0</ele><time>2026-04-19T09:34:47.956Z</time></trkpt><trkpt lat="42.531256464983954" lon="12.511327598445504"><ele>133.0</ele><time>2026-04-19T09:34:48.956Z</time></trkpt><trkpt lat="42.53119366090117" lon="12.511454541866215"><ele>132.5</ele><time>2026-04-19T09:34:49.956Z</time></trkpt><trkpt lat="42.531117701756735" lon="12.511571045093305"><ele>132.0</ele><time>2026-04-19T09:34:50.956Z</time></trkpt><trkpt lat="42.53102539856468" lon="12.511663727983963"><ele>131.5</ele><time>2026-04-19T09:34:51.956Z</time></trkpt><trkpt lat="42.53092324866074" lon="12.51173766459512"><ele>131.0</ele><time>2026-04-19T09:34:52.956Z</time></trkpt><trkpt lat="42.53081428074464" lon="12.511766826959713"><ele>131.0</ele><time>2026-04-19T09:34:53.956Z</time></trkpt><trkpt lat="42.530706452027246" lon="12.511722482077548"><ele>131.0</ele><time>2026-04-19T09:34:54.956Z</time></trkpt><trkpt lat="42.530602890949126" lon="12.511679718901194"><ele>131.0</ele><time>2026-04-19T09:34:55.956Z</time></trkpt><trkpt lat="42.530502589114256" lon="12.511616838855817"><ele>131.0</ele><time>2026-04-19T09:34:56.956Z</time></trkpt><trkpt lat="42.530405338921796" lon="12.511550153419039"><ele>131.0</ele><time>2026-04-19T09:34:57.956Z</time></trkpt><trkpt lat="42.53032685911804" lon="12.511441736662118"><ele>130.0</ele><time>2026-04-19T09:34:58.956Z</time></trkpt><trkpt lat="42.53023156672587" lon="12.511396808819748"><ele>129.0</ele><time>2026-04-19T09:34:59.956Z</time></trkpt><trkpt lat="42.530128104258345" lon="12.511381720860705"><ele>128.0</ele><time>2026-04-19T09:35:00.955Z</time></trkpt><trkpt lat="42.53003812646433" lon="12.51142325171012"><ele>127.0</ele><time>2026-04-19T09:35:01.955Z</time></trkpt><trkpt lat="42.52995981132125" lon="12.51151108522821"><ele>126.0</ele><time>2026-04-19T09:35:02.955Z</time></trkpt><trkpt lat="42.52990120881196" lon="12.511616881716845"><ele>126.0</ele><time>2026-04-19T09:35:03.955Z</time></trkpt><trkpt lat="42.52985644191747" lon="12.511728041904457"><ele>126.0</ele><time>2026-04-19T09:35:04.955Z</time></trkpt><trkpt lat="42.52981162883202" lon="12.511839955708075"><ele>126.0</ele><time>2026-04-19T09:35:05.955Z</time></trkpt><trkpt lat="42.52975432097824" lon="12.511947474136162"><ele>126.0</ele><time>2026-04-19T09:35:06.955Z</time></trkpt><trkpt lat="42.529685309243426" lon="12.512040558831334"><ele>126.0</ele><time>2026-04-19T09:35:07.955Z</time></trkpt><trkpt lat="42.52959937113753" lon="12.512123606157237"><ele>122.5</ele><time>2026-04-19T09:35:08.955Z</time></trkpt><trkpt lat="42.52949727686307" lon="12.512183984860215"><ele>119.0</ele><time>2026-04-19T09:35:09.955Z</time></trkpt><trkpt lat="42.52937736995764" lon="12.512223651664295"><ele>115.5</ele><time>2026-04-19T09:35:10.955Z</time></trkpt><trkpt lat="42.5292561251157" lon="12.512259636818454"><ele>112.0</ele><time>2026-04-19T09:35:11.955Z</time></trkpt><trkpt lat="42.52914407372904" lon="12.512305650497378"><ele>112.0</ele><time>2026-04-19T09:35:12.955Z</time></trkpt><trkpt lat="42.529025792541475" lon="12.512347489252555"><ele>112.0</ele><time>2026-04-19T09:35:13.955Z</time></trkpt><trkpt lat="42.52891635448911" lon="12.512389056831875"><ele>112.0</ele><time>2026-04-19T09:35:14.955Z</time></trkpt><trkpt lat="42.52880699982163" lon="12.512444217045427"><ele>112.0</ele><time>2026-04-19T09:35:15.955Z</time></trkpt><trkpt lat="42.52870485805112" lon="12.51250803062192"><ele>113.6</ele><time>2026-04-19T09:35:16.955Z</time></trkpt><trkpt lat="42.52860306088096" lon="12.512569803999979"><ele>115.19999999999999</ele><time>2026-04-19T09:35:17.955Z</time></trkpt><trkpt lat="42.52851343853992" lon="12.512631244222227"><ele>116.8</ele><time>2026-04-19T09:35:18.955Z</time></trkpt><trkpt lat="42.52843519836513" lon="12.51269040786892"><ele>118.4</ele><time>2026-04-19T09:35:19.955Z</time></trkpt><trkpt lat="42.52836053126092" lon="12.512754169630478"><ele>120.0</ele><time>2026-04-19T09:35:21.955Z</time></trkpt><trkpt lat="42.528304021712955" lon="12.512840754511922"><ele>117.83333333333333</ele><time>2026-04-19T09:35:24.955Z</time></trkpt><trkpt lat="42.52825284379115" lon="12.512925307966391"><ele>115.66666666666666</ele><time>2026-04-19T09:35:26.955Z</time></trkpt><trkpt lat="42.52819131843747" lon="12.512981416870861"><ele>113.5</ele><time>2026-04-19T09:35:27.955Z</time></trkpt><trkpt lat="42.528122429269985" lon="12.513054564372602"><ele>111.33333333333333</ele><time>2026-04-19T09:35:28.955Z</time></trkpt><trkpt lat="42.52804964505684" lon="12.513136028033065"><ele>109.16666666666666</ele><time>2026-04-19T09:35:29.955Z</time></trkpt><trkpt lat="42.52795752949299" lon="12.513220071677368"><ele>107.0</ele><time>2026-04-19T09:35:30.955Z</time></trkpt><trkpt lat="42.52788111527093" lon="12.513334986794458"><ele>113.75</ele><time>2026-04-19T09:35:31.955Z</time></trkpt><trkpt lat="42.52781831661982" lon="12.513462288961144"><ele>120.5</ele><time>2026-04-19T09:35:32.955Z</time></trkpt><trkpt lat="42.52772030023873" lon="12.513563449240516"><ele>127.25</ele><time>2026-04-19T09:35:33.955Z</time></trkpt><trkpt lat="42.52761378926694" lon="12.513663970241511"><ele>134.0</ele><time>2026-04-19T09:35:34.954Z</time></trkpt><trkpt lat="42.527493413222174" lon="12.513738111095249"><ele>134.75</ele><time>2026-04-19T09:35:35.954Z</time></trkpt><trkpt lat="42.52737068426826" lon="12.51379527275206"><ele>135.5</ele><time>2026-04-19T09:35:36.954Z</time></trkpt><trkpt lat="42.527245803908784" lon="12.51380353218885"><ele>136.25</ele><time>2026-04-19T09:35:37.954Z</time></trkpt><trkpt lat="42.52713429875766" lon="12.513788867248376"><ele>137.0</ele><time>2026-04-19T09:35:38.954Z</time></trkpt><trkpt lat="42.52703441164536" lon="12.513737332905277"><ele>137.0</ele><time>2026-04-19T09:35:39.954Z</time></trkpt><trkpt lat="42.526933885012795" lon="12.513678967925857"><ele>137.0</ele><time>2026-04-19T09:35:40.954Z</time></trkpt><trkpt lat="42.52682234219017" lon="12.513617107944828"><ele>137.0</ele><time>2026-04-19T09:35:41.954Z</time></trkpt><trkpt lat="42.526722013251714" lon="12.51351345089359"><ele>137.0</ele><time>2026-04-19T09:35:42.954Z</time></trkpt><trkpt lat="42.526607454322956" lon="12.513438057334689"><ele>137.0</ele><time>2026-04-19T09:35:43.954Z</time></trkpt><trkpt lat="42.526493486790024" lon="12.513362707900303"><ele>137.0</ele><time>2026-04-19T09:35:44.954Z</time></trkpt><trkpt lat="42.52637324512233" lon="12.513283274918866"><ele>137.0</ele><time>2026-04-19T09:35:45.954Z</time></trkpt><trkpt lat="42.526252399370875" lon="12.513208791238714"><ele>137.0</ele><time>2026-04-19T09:35:46.954Z</time></trkpt><trkpt lat="42.526133960028126" lon="12.513133048727935"><ele>130.0</ele><time>2026-04-19T09:35:47.954Z</time></trkpt><trkpt lat="42.526051093520174" lon="12.513087547415147"><ele>122.99999999999999</ele><time>2026-04-19T09:35:48.954Z</time></trkpt><trkpt lat="42.525972081269956" lon="12.51306753567867"><ele>116.0</ele><time>2026-04-19T09:35:49.954Z</time></trkpt><trkpt lat="42.525857338649644" lon="12.51305822230334"><ele>109.0</ele><time>2026-04-19T09:35:50.954Z</time></trkpt><trkpt lat="42.52573358279317" lon="12.513033334231785"><ele>102.0</ele><time>2026-04-19T09:35:51.954Z</time></trkpt><trkpt lat="42.52560392697996" lon="12.51300989867079"><ele>102.0</ele><time>2026-04-19T09:35:52.954Z</time></trkpt><trkpt lat="42.5254695695488" lon="12.512984914893268"><ele>102.0</ele><time>2026-04-19T09:35:53.954Z</time></trkpt><trkpt lat="42.52533066132619" lon="12.512963400354026"><ele>102.0</ele><time>2026-04-19T09:35:54.954Z</time></trkpt><trkpt lat="42.52519331760684" lon="12.51294214276161"><ele>102.0</ele><time>2026-04-19T09:35:55.954Z</time></trkpt><trkpt lat="42.525064550185824" lon="12.512921882089557"><ele>101.0</ele><time>2026-04-19T09:35:56.954Z</time></trkpt><trkpt lat="42.52494782357903" lon="12.512903624305512"><ele>100.0</ele><time>2026-04-19T09:35:57.954Z</time></trkpt><trkpt lat="42.524841796823345" lon="12.512885035304851"><ele>99.0</ele><time>2026-04-19T09:35:58.954Z</time></trkpt><trkpt lat="42.5247417339829" lon="12.512870419665086"><ele>98.0</ele><time>2026-04-19T09:35:59.954Z</time></trkpt><trkpt lat="42.52466304577226" lon="12.512856545600734"><ele>97.0</ele><time>2026-04-19T09:36:00.954Z</time></trkpt><trkpt lat="42.52458727410923" lon="12.512845482680879"><ele>100.8</ele><time>2026-04-19T09:36:01.954Z</time></trkpt><trkpt lat="42.524482823792376" lon="12.512830141630959"><ele>104.6</ele><time>2026-04-19T09:36:03.954Z</time></trkpt><trkpt lat="42.52439924016252" lon="12.512814201753141"><ele>108.39999999999999</ele><time>2026-04-19T09:36:05.954Z</time></trkpt><trkpt lat="42.5243352701753" lon="12.512793854002258"><ele>112.19999999999999</ele><time>2026-04-19T09:36:07.953Z</time></trkpt><trkpt lat="42.52433264599304" lon="12.513032891946255"><ele>116.0</ele><time>2026-04-19T09:36:09.953Z</time></trkpt><trkpt lat="42.52438393222348" lon="12.513133611407993"><ele>111.75</ele><time>2026-04-19T09:36:10.953Z</time></trkpt><trkpt lat="42.524433518465585" lon="12.513259861215468"><ele>107.5</ele><time>2026-04-19T09:36:11.953Z</time></trkpt><trkpt lat="42.52448391696504" lon="12.513395024482842"><ele>103.25</ele><time>2026-04-19T09:36:12.953Z</time></trkpt><trkpt lat="42.52453171324346" lon="12.513540504204094"><ele>99.0</ele><time>2026-04-19T09:36:13.953Z</time></trkpt><trkpt lat="42.52457751825728" lon="12.513689176671107"><ele>99.5</ele><time>2026-04-19T09:36:14.953Z</time></trkpt><trkpt lat="42.5246147312332" lon="12.51385144073722"><ele>100.0</ele><time>2026-04-19T09:36:15.953Z</time></trkpt><trkpt lat="42.52463546455951" lon="12.514010531683226"><ele>100.5</ele><time>2026-04-19T09:36:16.953Z</time></trkpt><trkpt lat="42.524640230094455" lon="12.514168564488635"><ele>101.0</ele><time>2026-04-19T09:36:17.953Z</time></trkpt><trkpt lat="42.524640170622" lon="12.51431624219285"><ele>101.0</ele><time>2026-04-19T09:36:18.953Z</time></trkpt><trkpt lat="42.524637659878834" lon="12.514463778115758"><ele>101.0</ele><time>2026-04-19T09:36:19.953Z</time></trkpt><trkpt lat="42.524623217505884" lon="12.514611969440663"><ele>101.0</ele><time>2026-04-19T09:36:20.955Z</time></trkpt><trkpt lat="42.524595748129414" lon="12.514760142756172"><ele>101.0</ele><time>2026-04-19T09:36:21.955Z</time></trkpt><trkpt lat="42.52457074981655" lon="12.514915054916731"><ele>101.0</ele><time>2026-04-19T09:36:22.955Z</time></trkpt><trkpt lat="42.524545644477755" lon="12.515066214406733"><ele>106.4</ele><time>2026-04-19T09:36:23.955Z</time></trkpt><trkpt lat="42.52452296978427" lon="12.515213820734605"><ele>111.8</ele><time>2026-04-19T09:36:24.955Z</time></trkpt><trkpt lat="42.524499217934974" lon="12.515360911714266"><ele>117.20000000000002</ele><time>2026-04-19T09:36:25.955Z</time></trkpt><trkpt lat="42.52446930701527" lon="12.515502528658182"><ele>122.60000000000001</ele><time>2026-04-19T09:36:26.955Z</time></trkpt><trkpt lat="42.52443965466008" lon="12.515637191335152"><ele>128.0</ele><time>2026-04-19T09:36:27.955Z</time></trkpt><trkpt lat="42.52440635256312" lon="12.515762762823158"><ele>127.99999999999999</ele><time>2026-04-19T09:36:28.955Z</time></trkpt><trkpt lat="42.524370174977264" lon="12.51587857430021"><ele>128.0</ele><time>2026-04-19T09:36:29.955Z</time></trkpt><trkpt lat="42.52433513406919" lon="12.51599013853129"><ele>128.0</ele><time>2026-04-19T09:36:30.955Z</time></trkpt><trkpt lat="42.524294953209974" lon="12.516095471792195"><ele>128.0</ele><time>2026-04-19T09:36:31.954Z</time></trkpt><trkpt lat="42.52424317412067" lon="12.516196671005646"><ele>127.99999999999999</ele><time>2026-04-19T09:36:32.955Z</time></trkpt><trkpt lat="42.524186736430686" lon="12.516288867550756"><ele>128.0</ele><time>2026-04-19T09:36:33.955Z</time></trkpt><trkpt lat="42.52411892221304" lon="12.516373678977677"><ele>127.80000000000001</ele><time>2026-04-19T09:36:34.955Z</time></trkpt><trkpt lat="42.524048245238816" lon="12.51645687227089"><ele>127.60000000000001</ele><time>2026-04-19T09:36:35.955Z</time></trkpt><trkpt lat="42.52397084544515" lon="12.516528399762542"><ele>127.39999999999999</ele><time>2026-04-19T09:36:36.955Z</time></trkpt><trkpt lat="42.523883777739115" lon="12.516602712932206"><ele>127.19999999999999</ele><time>2026-04-19T09:36:37.955Z</time></trkpt><trkpt lat="42.52379362233521" lon="12.516669610485527"><ele>127.0</ele><time>2026-04-19T09:36:38.955Z</time></trkpt><trkpt lat="42.52371294403762" lon="12.516740183301067"><ele>127.0</ele><time>2026-04-19T09:36:39.955Z</time></trkpt><trkpt lat="42.52362314684104" lon="12.516813087600084"><ele>126.99999999999999</ele><time>2026-04-19T09:36:40.955Z</time></trkpt><trkpt lat="42.52353383179309" lon="12.516887201370166"><ele>126.99999999999999</ele><time>2026-04-19T09:36:41.955Z</time></trkpt><trkpt lat="42.52344096630025" lon="12.516960303786487"><ele>127.0</ele><time>2026-04-19T09:36:42.955Z</time></trkpt><trkpt lat="42.52334488953005" lon="12.517040107061854"><ele>127.0</ele><time>2026-04-19T09:36:43.955Z</time></trkpt><trkpt lat="42.523255870451216" lon="12.517114417032248"><ele>127.0</ele><time>2026-04-19T09:36:44.955Z</time></trkpt><trkpt lat="42.52316178604951" lon="12.517187433596524"><ele>126.99999999999999</ele><time>2026-04-19T09:36:45.955Z</time></trkpt><trkpt lat="42.523067199608995" lon="12.517260283063981"><ele>126.99999999999999</ele><time>2026-04-19T09:36:46.955Z</time></trkpt><trkpt lat="42.52297246625607" lon="12.517330391526"><ele>127.0</ele><time>2026-04-19T09:36:47.955Z</time></trkpt><trkpt lat="42.52287902538581" lon="12.517402046194624"><ele>127.0</ele><time>2026-04-19T09:36:48.955Z</time></trkpt><trkpt lat="42.522786070954346" lon="12.51747178120514"><ele>127.0</ele><time>2026-04-19T09:36:49.954Z</time></trkpt><trkpt lat="42.522692285698504" lon="12.5175393198796"><ele>126.99999999999999</ele><time>2026-04-19T09:36:50.954Z</time></trkpt><trkpt lat="42.52260797832868" lon="12.517606163424338"><ele>126.99999999999999</ele><time>2026-04-19T09:36:51.954Z</time></trkpt><trkpt lat="42.52252518330215" lon="12.517674165470762"><ele>127.0</ele><time>2026-04-19T09:36:52.954Z</time></trkpt><trkpt lat="42.52243962889342" lon="12.517741576260917"><ele>127.0</ele><time>2026-04-19T09:36:53.954Z</time></trkpt><trkpt lat="42.52235290324264" lon="12.517813142499516"><ele>127.0</ele><time>2026-04-19T09:36:54.954Z</time></trkpt><trkpt lat="42.52226983126696" lon="12.517897076318993"><ele>126.99999999999999</ele><time>2026-04-19T09:36:55.954Z</time></trkpt><trkpt lat="42.52218443557502" lon="12.51799177944292"><ele>126.99999999999999</ele><time>2026-04-19T09:36:56.954Z</time></trkpt><trkpt lat="42.52210179418974" lon="12.518099934170912"><ele>127.0</ele><time>2026-04-19T09:36:57.954Z</time></trkpt><trkpt lat="42.522021433096924" lon="12.51820949330258"><ele>127.0</ele><time>2026-04-19T09:36:58.954Z</time></trkpt><trkpt lat="42.521941177064164" lon="12.518326957426098"><ele>127.0</ele><time>2026-04-19T09:36:59.954Z</time></trkpt><trkpt lat="42.521859595233714" lon="12.518450808237066"><ele>127.0</ele><time>2026-04-19T09:37:00.954Z</time></trkpt><trkpt lat="42.5217770511853" lon="12.518574093849544"><ele>127.0</ele><time>2026-04-19T09:37:01.954Z</time></trkpt><trkpt lat="42.52169613828066" lon="12.518696782286167"><ele>127.0</ele><time>2026-04-19T09:37:02.954Z</time></trkpt><trkpt lat="42.52161482510598" lon="12.518818834240745"><ele>125.25</ele><time>2026-04-19T09:37:03.954Z</time></trkpt><trkpt lat="42.52153438551488" lon="12.518940305739914"><ele>123.5</ele><time>2026-04-19T09:37:04.954Z</time></trkpt><trkpt lat="42.52144990192305" lon="12.519058199305372"><ele>121.75</ele><time>2026-04-19T09:37:05.954Z</time></trkpt><trkpt lat="42.521357132004304" lon="12.51916938327062"><ele>120.0</ele><time>2026-04-19T09:37:06.954Z</time></trkpt><trkpt lat="42.52126390568125" lon="12.519276699978725"><ele>123.0</ele><time>2026-04-19T09:37:07.954Z</time></trkpt><trkpt lat="42.52117163842729" lon="12.519384321944361"><ele>126.0</ele><time>2026-04-19T09:37:08.954Z</time></trkpt><trkpt lat="42.52107026697174" lon="12.51947263740265"><ele>129.0</ele><time>2026-04-19T09:37:09.954Z</time></trkpt><trkpt lat="42.52099303693522" lon="12.519601714678565"><ele>132.0</ele><time>2026-04-19T09:37:10.954Z</time></trkpt><trkpt lat="42.520928041674225" lon="12.519729619653113"><ele>132.0</ele><time>2026-04-19T09:37:11.954Z</time></trkpt><trkpt lat="42.520868806284426" lon="12.519866679734546"><ele>132.0</ele><time>2026-04-19T09:37:12.954Z</time></trkpt><trkpt lat="42.52081898550038" lon="12.520001881202996"><ele>132.0</ele><time>2026-04-19T09:37:13.954Z</time></trkpt><trkpt lat="42.520769619826964" lon="12.520136193719674"><ele>132.0</ele><time>2026-04-19T09:37:14.954Z</time></trkpt><trkpt lat="42.520720866476935" lon="12.520269740185247"><ele>132.0</ele><time>2026-04-19T09:37:15.954Z</time></trkpt><trkpt lat="42.52067218466893" lon="12.520401687820193"><ele>130.6</ele><time>2026-04-19T09:37:16.954Z</time></trkpt><trkpt lat="42.520610081315745" lon="12.520529688394497"><ele>129.2</ele><time>2026-04-19T09:37:17.954Z</time></trkpt><trkpt lat="42.52054175471282" lon="12.52064751420529"><ele>127.8</ele><time>2026-04-19T09:37:18.954Z</time></trkpt><trkpt lat="42.520479748818474" lon="12.520737000526939"><ele>126.4</ele><time>2026-04-19T09:37:19.954Z</time></trkpt><trkpt lat="42.520400358268134" lon="12.520817513367616"><ele>125.0</ele><time>2026-04-19T09:37:20.954Z</time></trkpt><trkpt lat="42.520312853262894" lon="12.520896140577834"><ele>127.8</ele><time>2026-04-19T09:37:21.954Z</time></trkpt><trkpt lat="42.520219413784375" lon="12.520965757240223"><ele>130.6</ele><time>2026-04-19T09:37:22.953Z</time></trkpt><trkpt lat="42.52011833228812" lon="12.521030256442168"><ele>133.4</ele><time>2026-04-19T09:37:23.953Z</time></trkpt><trkpt lat="42.52001990471476" lon="12.521080330113083"><ele>136.2</ele><time>2026-04-19T09:37:24.953Z</time></trkpt><trkpt lat="42.51992140208187" lon="12.521123977909872"><ele>139.0</ele><time>2026-04-19T09:37:25.953Z</time></trkpt><trkpt lat="42.519828249366796" lon="12.521174273866182"><ele>139.0</ele><time>2026-04-19T09:37:26.953Z</time></trkpt><trkpt lat="42.51974414857288" lon="12.521214121996847"><ele>139.0</ele><time>2026-04-19T09:37:27.953Z</time></trkpt><trkpt lat="42.51965919090276" lon="12.521243718408341"><ele>139.0</ele><time>2026-04-19T09:37:28.953Z</time></trkpt><trkpt lat="42.51957959186836" lon="12.52127386479406"><ele>139.0</ele><time>2026-04-19T09:37:29.953Z</time></trkpt><trkpt lat="42.51952332294844" lon="12.521325660269614"><ele>139.0</ele><time>2026-04-19T09:37:30.953Z</time></trkpt><trkpt lat="42.51947028652696" lon="12.521487626884362"><ele>139.33333333333334</ele><time>2026-04-19T09:37:32.953Z</time></trkpt><trkpt lat="42.519484932398385" lon="12.521582953268863"><ele>139.66666666666669</ele><time>2026-04-19T09:37:33.953Z</time></trkpt><trkpt lat="42.51953232246406" lon="12.521663967180546"><ele>140.0</ele><time>2026-04-19T09:37:34.953Z</time></trkpt><trkpt lat="42.51960546124684" lon="12.521736294424914"><ele>140.33333333333334</ele><time>2026-04-19T09:37:35.953Z</time></trkpt><trkpt lat="42.519702510373435" lon="12.521730781442095"><ele>140.66666666666666</ele><time>2026-04-19T09:37:36.953Z</time></trkpt><trkpt lat="42.51979150821667" lon="12.521729700680314"><ele>141.0</ele><time>2026-04-19T09:37:37.953Z</time></trkpt><trkpt lat="42.51988563387331" lon="12.521765116233299"><ele>141.0</ele><time>2026-04-19T09:37:38.953Z</time></trkpt><trkpt lat="42.51998453590872" lon="12.521761764534808"><ele>141.0</ele><time>2026-04-19T09:37:39.953Z</time></trkpt><trkpt lat="42.520084319824676" lon="12.52175832363575"><ele>141.0</ele><time>2026-04-19T09:37:40.953Z</time></trkpt><trkpt lat="42.52018703801771" lon="12.521754349232092"><ele>141.0</ele><time>2026-04-19T09:37:41.953Z</time></trkpt><trkpt lat="42.52029347622139" lon="12.521758113918667"><ele>141.0</ele><time>2026-04-19T09:37:42.953Z</time></trkpt><trkpt lat="42.520391725387924" lon="12.521781962594654"><ele>139.5</ele><time>2026-04-19T09:37:43.953Z</time></trkpt><trkpt lat="42.52047694492753" lon="12.521828207286282"><ele>138.0</ele><time>2026-04-19T09:37:44.953Z</time></trkpt><trkpt lat="42.52054565937725" lon="12.521896409748587"><ele>136.5</ele><time>2026-04-19T09:37:45.953Z</time></trkpt><trkpt lat="42.52059022810638" lon="12.521996120504229"><ele>135.0</ele><time>2026-04-19T09:37:46.953Z</time></trkpt><trkpt lat="42.520607779907465" lon="12.522103915931051"><ele>133.5</ele><time>2026-04-19T09:37:47.953Z</time></trkpt><trkpt lat="42.52060481669066" lon="12.522224087641499"><ele>132.0</ele><time>2026-04-19T09:37:48.953Z</time></trkpt><trkpt lat="42.52058905701962" lon="12.52235514665393"><ele>132.0</ele><time>2026-04-19T09:37:49.953Z</time></trkpt><trkpt lat="42.520555873922504" lon="12.522492460730827"><ele>132.0</ele><time>2026-04-19T09:37:50.953Z</time></trkpt><trkpt lat="42.52051491158581" lon="12.522630081322207"><ele>132.0</ele><time>2026-04-19T09:37:51.953Z</time></trkpt><trkpt lat="42.52046467736539" lon="12.522763626093848"><ele>132.0</ele><time>2026-04-19T09:37:52.953Z</time></trkpt><trkpt lat="42.52042098109117" lon="12.522897077930171"><ele>132.0</ele><time>2026-04-19T09:37:53.953Z</time></trkpt><trkpt lat="42.520374780390966" lon="12.52303210479677"><ele>135.79999999999998</ele><time>2026-04-19T09:37:54.953Z</time></trkpt><trkpt lat="42.52032807514988" lon="12.523165673755848"><ele>139.6</ele><time>2026-04-19T09:37:55.953Z</time></trkpt><trkpt lat="42.520259394315616" lon="12.52327808963781"><ele>143.39999999999998</ele><time>2026-04-19T09:37:56.952Z</time></trkpt><trkpt lat="42.52021248619496" lon="12.523399536192326"><ele>147.2</ele><time>2026-04-19T09:37:57.952Z</time></trkpt><trkpt lat="42.52016460070977" lon="12.523528481243495"><ele>151.0</ele><time>2026-04-19T09:37:58.952Z</time></trkpt><trkpt lat="42.520115535604475" lon="12.523668805944974"><ele>150.0</ele><time>2026-04-19T09:37:59.952Z</time></trkpt><trkpt lat="42.52006296085281" lon="12.523809731979988"><ele>149.0</ele><time>2026-04-19T09:38:00.952Z</time></trkpt><trkpt lat="42.52000651719601" lon="12.523955037634853"><ele>148.0</ele><time>2026-04-19T09:38:01.952Z</time></trkpt><trkpt lat="42.519951982945834" lon="12.524099601953438"><ele>147.0</ele><time>2026-04-19T09:38:02.952Z</time></trkpt><trkpt lat="42.51990123806331" lon="12.52424271646174"><ele>147.0</ele><time>2026-04-19T09:38:03.952Z</time></trkpt><trkpt lat="42.519846033918526" lon="12.52438021964137"><ele>147.0</ele><time>2026-04-19T09:38:04.952Z</time></trkpt><trkpt lat="42.51978994443289" lon="12.524508421709033"><ele>147.0</ele><time>2026-04-19T09:38:05.952Z</time></trkpt><trkpt lat="42.51972361148124" lon="12.524619118365962"><ele>147.0</ele><time>2026-04-19T09:38:06.952Z</time></trkpt><trkpt lat="42.51964976907369" lon="12.524711223142697"><ele>147.0</ele><time>2026-04-19T09:38:07.952Z</time></trkpt><trkpt lat="42.519568705251885" lon="12.52479426524426"><ele>147.66666666666666</ele><time>2026-04-19T09:38:08.952Z</time></trkpt><trkpt lat="42.519484280310955" lon="12.524866556698116"><ele>148.33333333333334</ele><time>2026-04-19T09:38:09.952Z</time></trkpt><trkpt lat="42.51940631135638" lon="12.524934407645436"><ele>149.0</ele><time>2026-04-19T09:38:10.952Z</time></trkpt><trkpt lat="42.51933305615392" lon="12.525005178252782"><ele>149.66666666666669</ele><time>2026-04-19T09:38:11.952Z</time></trkpt><trkpt lat="42.519262312195984" lon="12.525066812716279"><ele>150.33333333333334</ele><time>2026-04-19T09:38:12.952Z</time></trkpt><trkpt lat="42.51919455325336" lon="12.525130334691948"><ele>151.0</ele><time>2026-04-19T09:38:13.952Z</time></trkpt><trkpt lat="42.51910564107238" lon="12.525216210396907"><ele>151.0</ele><time>2026-04-19T09:38:15.952Z</time></trkpt><trkpt lat="42.519065520244496" lon="12.525291766956553"><ele>151.0</ele><time>2026-04-19T09:38:29.953Z</time></trkpt><trkpt lat="42.51903574963407" lon="12.525384864766613"><ele>151.0</ele><time>2026-04-19T09:38:40.953Z</time></trkpt><trkpt lat="42.51910405562177" lon="12.5255711325617"><ele>151.0</ele><time>2026-04-19T09:38:42.953Z</time></trkpt><trkpt lat="42.51915668663352" lon="12.525673114382922"><ele>151.0</ele><time>2026-04-19T09:38:43.953Z</time></trkpt><trkpt lat="42.51921441628492" lon="12.5257825418895"><ele>150.6</ele><time>2026-04-19T09:38:44.953Z</time></trkpt><trkpt lat="42.51926768205256" lon="12.525897395541048"><ele>150.2</ele><time>2026-04-19T09:38:45.953Z</time></trkpt><trkpt lat="42.5193250938216" lon="12.526015560213086"><ele>149.8</ele><time>2026-04-19T09:38:46.953Z</time></trkpt><trkpt lat="42.51938584304719" lon="12.52614082722142"><ele>149.4</ele><time>2026-04-19T09:38:47.953Z</time></trkpt><trkpt lat="42.51944394189978" lon="12.52628268585138"><ele>149.0</ele><time>2026-04-19T09:38:48.953Z</time></trkpt><trkpt lat="42.519504068324125" lon="12.526429756264443"><ele>149.0</ele><time>2026-04-19T09:38:49.953Z</time></trkpt><trkpt lat="42.51954856590648" lon="12.526589695300954"><ele>149.0</ele><time>2026-04-19T09:38:50.953Z</time></trkpt><trkpt lat="42.5195800269206" lon="12.526754240355856"><ele>149.0</ele><time>2026-04-19T09:38:51.953Z</time></trkpt><trkpt lat="42.51958794604095" lon="12.52694462560275"><ele>149.0</ele><time>2026-04-19T09:38:52.953Z</time></trkpt><trkpt lat="42.51958735727786" lon="12.52714323083952"><ele>144.33333333333331</ele><time>2026-04-19T09:38:53.953Z</time></trkpt><trkpt lat="42.51959110734357" lon="12.527349478042865"><ele>139.66666666666666</ele><time>2026-04-19T09:38:54.953Z</time></trkpt><trkpt lat="42.51959187916956" lon="12.52756812256192"><ele>135.0</ele><time>2026-04-19T09:38:55.953Z</time></trkpt><trkpt lat="42.519594876944495" lon="12.527781550351028"><ele>134.0</ele><time>2026-04-19T09:38:56.953Z</time></trkpt><trkpt lat="42.51959910924417" lon="12.527994217150187"><ele>133.0</ele><time>2026-04-19T09:38:57.953Z</time></trkpt><trkpt lat="42.51960233837458" lon="12.528203543983786"><ele>132.0</ele><time>2026-04-19T09:38:58.953Z</time></trkpt><trkpt lat="42.51960537152449" lon="12.52840917963059"><ele>132.0</ele><time>2026-04-19T09:38:59.953Z</time></trkpt><trkpt lat="42.519610249866254" lon="12.528617491515293"><ele>132.0</ele><time>2026-04-19T09:39:00.953Z</time></trkpt><trkpt lat="42.51961700780792" lon="12.528823453843204"><ele>132.0</ele><time>2026-04-19T09:39:01.953Z</time></trkpt><trkpt lat="42.51963007816067" lon="12.52901286352164"><ele>132.0</ele><time>2026-04-19T09:39:02.953Z</time></trkpt><trkpt lat="42.519664914646285" lon="12.529184738887363"><ele>131.5</ele><time>2026-04-19T09:39:03.953Z</time></trkpt><trkpt lat="42.51972506856253" lon="12.52932943774221"><ele>131.0</ele><time>2026-04-19T09:39:04.953Z</time></trkpt><trkpt lat="42.519806665335175" lon="12.529445834462958"><ele>130.5</ele><time>2026-04-19T09:39:05.953Z</time></trkpt><trkpt lat="42.51990604435812" lon="12.52953433251979"><ele>130.0</ele><time>2026-04-19T09:39:06.953Z</time></trkpt><trkpt lat="42.52000609296777" lon="12.529622330849001"><ele>130.0</ele><time>2026-04-19T09:39:07.953Z</time></trkpt><trkpt lat="42.520094548814804" lon="12.529732965239871"><ele>130.0</ele><time>2026-04-19T09:39:08.953Z</time></trkpt><trkpt lat="42.52016329866644" lon="12.529864210098197"><ele>130.0</ele><time>2026-04-19T09:39:09.953Z</time></trkpt><trkpt lat="42.520209523501336" lon="12.530016144495121"><ele>130.0</ele><time>2026-04-19T09:39:10.952Z</time></trkpt><trkpt lat="42.520232657628654" lon="12.530176153828915"><ele>130.0</ele><time>2026-04-19T09:39:11.952Z</time></trkpt><trkpt lat="42.520227858837785" lon="12.530337822912362"><ele>130.0</ele><time>2026-04-19T09:39:12.952Z</time></trkpt><trkpt lat="42.52021663861167" lon="12.530506694128562"><ele>130.0</ele><time>2026-04-19T09:39:13.952Z</time></trkpt><trkpt lat="42.52018831969691" lon="12.5306716622835"><ele>130.0</ele><time>2026-04-19T09:39:14.952Z</time></trkpt><trkpt lat="42.520158155458304" lon="12.530833335947117"><ele>130.0</ele><time>2026-04-19T09:39:15.952Z</time></trkpt><trkpt lat="42.520124666755194" lon="12.53100126285629"><ele>130.0</ele><time>2026-04-19T09:39:16.952Z</time></trkpt><trkpt lat="42.520090834509595" lon="12.531174789146089"><ele>130.0</ele><time>2026-04-19T09:39:17.952Z</time></trkpt><trkpt lat="42.520058949329794" lon="12.531354107152955"><ele>130.0</ele><time>2026-04-19T09:39:18.952Z</time></trkpt><trkpt lat="42.52003109416742" lon="12.53153456662272"><ele>127.25</ele><time>2026-04-19T09:39:19.952Z</time></trkpt><trkpt lat="42.520010400461004" lon="12.531711783299324"><ele>124.5</ele><time>2026-04-19T09:39:20.894Z</time></trkpt><trkpt lat="42.519990255345185" lon="12.531882062739253"><ele>121.75</ele><time>2026-04-19T09:39:21.894Z</time></trkpt><trkpt lat="42.51997951335061" lon="12.532038900766437"><ele>119.0</ele><time>2026-04-19T09:39:22.893Z</time></trkpt><trkpt lat="42.519973329629124" lon="12.53218899159623"><ele>118.0</ele><time>2026-04-19T09:39:23.893Z</time></trkpt><trkpt lat="42.51996658790524" lon="12.532340044828576"><ele>117.0</ele><time>2026-04-19T09:39:24.893Z</time></trkpt><trkpt lat="42.51996438275094" lon="12.532490501080641"><ele>116.0</ele><time>2026-04-19T09:39:25.893Z</time></trkpt><trkpt lat="42.519965650007386" lon="12.532640529193712"><ele>115.0</ele><time>2026-04-19T09:39:26.893Z</time></trkpt><trkpt lat="42.519972383267586" lon="12.53279558367258"><ele>114.0</ele><time>2026-04-19T09:39:27.893Z</time></trkpt><trkpt lat="42.51998482488768" lon="12.532961056777276"><ele>113.25</ele><time>2026-04-19T09:39:28.893Z</time></trkpt><trkpt lat="42.520001329184005" lon="12.53313157977418"><ele>112.5</ele><time>2026-04-19T09:39:29.893Z</time></trkpt><trkpt lat="42.520016160944635" lon="12.53331274813777"><ele>111.75</ele><time>2026-04-19T09:39:30.893Z</time></trkpt><trkpt lat="42.52003133952999" lon="12.533496244249411"><ele>111.0</ele><time>2026-04-19T09:39:31.893Z</time></trkpt><trkpt lat="42.52004706024001" lon="12.533678356978873"><ele>110.5</ele><time>2026-04-19T09:39:32.893Z</time></trkpt><trkpt lat="42.52006365767633" lon="12.533859070751602"><ele>110.0</ele><time>2026-04-19T09:39:33.893Z</time></trkpt><trkpt lat="42.520083570315194" lon="12.534038540179047"><ele>109.5</ele><time>2026-04-19T09:39:34.893Z</time></trkpt><trkpt lat="42.520106637164346" lon="12.534214404524537"><ele>109.0</ele><time>2026-04-19T09:39:35.893Z</time></trkpt><trkpt lat="42.5201328853389" lon="12.534390231621106"><ele>108.80000000000001</ele><time>2026-04-19T09:39:36.893Z</time></trkpt><trkpt lat="42.52015861970267" lon="12.53455876735104"><ele>108.60000000000001</ele><time>2026-04-19T09:39:37.893Z</time></trkpt><trkpt lat="42.520190502916165" lon="12.534709546718826"><ele>108.4</ele><time>2026-04-19T09:39:38.893Z</time></trkpt><trkpt lat="42.52022062443771" lon="12.534833667977145"><ele>108.2</ele><time>2026-04-19T09:39:39.893Z</time></trkpt><trkpt lat="42.520245301491585" lon="12.534938961442997"><ele>108.0</ele><time>2026-04-19T09:39:40.893Z</time></trkpt><trkpt lat="42.52025959226835" lon="12.535030319779999"><ele>108.0</ele><time>2026-04-19T09:39:41.893Z</time></trkpt><trkpt lat="42.520255796133824" lon="12.53511866513634"><ele>108.0</ele><time>2026-04-19T09:39:42.893Z</time></trkpt><trkpt lat="42.52022312795735" lon="12.5352129897076"><ele>108.0</ele><time>2026-04-19T09:39:43.893Z</time></trkpt><trkpt lat="42.52016767862682" lon="12.535315613186224"><ele>108.0</ele><time>2026-04-19T09:39:44.893Z</time></trkpt><trkpt lat="42.52010825053392" lon="12.535426070894433"><ele>108.0</ele><time>2026-04-19T09:39:45.893Z</time></trkpt><trkpt lat="42.52005719957057" lon="12.535523862383"><ele>108.0</ele><time>2026-04-19T09:39:46.892Z</time></trkpt><trkpt lat="42.520009816830566" lon="12.535608158879125"><ele>107.60000000000001</ele><time>2026-04-19T09:39:47.892Z</time></trkpt><trkpt lat="42.51995350133323" lon="12.53570201177564"><ele>107.20000000000002</ele><time>2026-04-19T09:39:48.892Z</time></trkpt><trkpt lat="42.51988878975478" lon="12.53579975197301"><ele>106.8</ele><time>2026-04-19T09:39:49.892Z</time></trkpt><trkpt lat="42.51981473088447" lon="12.535901862218186"><ele>106.4</ele><time>2026-04-19T09:39:50.892Z</time></trkpt><trkpt lat="42.51973609234565" lon="12.536007804626404"><ele>106.0</ele><time>2026-04-19T09:39:51.892Z</time></trkpt><trkpt lat="42.519641610994796" lon="12.536100542603727"><ele>106.5</ele><time>2026-04-19T09:39:52.892Z</time></trkpt><trkpt lat="42.51955951401986" lon="12.536210069507725"><ele>107.0</ele><time>2026-04-19T09:39:53.892Z</time></trkpt><trkpt lat="42.51948232814609" lon="12.53631881204924"><ele>107.5</ele><time>2026-04-19T09:39:54.892Z</time></trkpt><trkpt lat="42.51941279967229" lon="12.536436750779675"><ele>108.0</ele><time>2026-04-19T09:39:55.892Z</time></trkpt><trkpt lat="42.519347873862735" lon="12.536563265822267"><ele>108.0</ele><time>2026-04-19T09:39:56.892Z</time></trkpt><trkpt lat="42.5192938288708" lon="12.53670247458127"><ele>108.0</ele><time>2026-04-19T09:39:57.892Z</time></trkpt><trkpt lat="42.51924056199777" lon="12.536861882663157"><ele>108.0</ele><time>2026-04-19T09:39:58.892Z</time></trkpt><trkpt lat="42.51918873393965" lon="12.53702646878222"><ele>108.0</ele><time>2026-04-19T09:39:59.892Z</time></trkpt><trkpt lat="42.51913109987761" lon="12.537192462778036"><ele>108.0</ele><time>2026-04-19T09:40:00.892Z</time></trkpt><trkpt lat="42.51907513226652" lon="12.537357681025352"><ele>108.0</ele><time>2026-04-19T09:40:01.892Z</time></trkpt><trkpt lat="42.5190139871802" lon="12.537522987241516"><ele>108.0</ele><time>2026-04-19T09:40:02.892Z</time></trkpt><trkpt lat="42.51895602720171" lon="12.5376867924681"><ele>108.0</ele><time>2026-04-19T09:40:03.892Z</time></trkpt><trkpt lat="42.51889820991234" lon="12.53784864056453"><ele>108.25</ele><time>2026-04-19T09:40:04.892Z</time></trkpt><trkpt lat="42.51884601290866" lon="12.53800630237439"><ele>108.5</ele><time>2026-04-19T09:40:05.892Z</time></trkpt><trkpt lat="42.5187979336452" lon="12.538161091171995"><ele>108.75</ele><time>2026-04-19T09:40:06.892Z</time></trkpt><trkpt lat="42.5187638100385" lon="12.53832602292728"><ele>109.0</ele><time>2026-04-19T09:40:07.892Z</time></trkpt><trkpt lat="42.51873619633896" lon="12.538499857002774"><ele>109.75</ele><time>2026-04-19T09:40:08.892Z</time></trkpt><trkpt lat="42.5187084871685" lon="12.53866164047663"><ele>110.5</ele><time>2026-04-19T09:40:09.892Z</time></trkpt><trkpt lat="42.5186865815517" lon="12.538828725868116"><ele>111.25</ele><time>2026-04-19T09:40:10.891Z</time></trkpt><trkpt lat="42.5186661240425" lon="12.538995496428974"><ele>112.0</ele><time>2026-04-19T09:40:11.891Z</time></trkpt><trkpt lat="42.51864646074113" lon="12.539172644235565"><ele>112.0</ele><time>2026-04-19T09:40:12.891Z</time></trkpt><trkpt lat="42.518621779070486" lon="12.539352931448084"><ele>112.0</ele><time>2026-04-19T09:40:13.891Z</time></trkpt><trkpt lat="42.51859699978117" lon="12.539540094439534"><ele>112.0</ele><time>2026-04-19T09:40:14.891Z</time></trkpt><trkpt lat="42.51857192251075" lon="12.53972896307171"><ele>112.0</ele><time>2026-04-19T09:40:15.891Z</time></trkpt><trkpt lat="42.51854657331771" lon="12.539912918824417"><ele>112.0</ele><time>2026-04-19T09:40:16.891Z</time></trkpt><trkpt lat="42.51852296580191" lon="12.540095821109142"><ele>112.0</ele><time>2026-04-19T09:40:17.891Z</time></trkpt><trkpt lat="42.5185027232321" lon="12.54028050179253"><ele>112.0</ele><time>2026-04-19T09:40:18.891Z</time></trkpt><trkpt lat="42.51848550610214" lon="12.540459975078749"><ele>112.0</ele><time>2026-04-19T09:40:19.891Z</time></trkpt><trkpt lat="42.518464623809486" lon="12.540641586199358"><ele>112.0</ele><time>2026-04-19T09:40:20.891Z</time></trkpt><trkpt lat="42.518444601429714" lon="12.54082594510586"><ele>112.0</ele><time>2026-04-19T09:40:21.891Z</time></trkpt><trkpt lat="42.518428637186304" lon="12.541005193236339"><ele>112.0</ele><time>2026-04-19T09:40:22.891Z</time></trkpt><trkpt lat="42.51841388315921" lon="12.541190284459832"><ele>112.0</ele><time>2026-04-19T09:40:23.891Z</time></trkpt><trkpt lat="42.518398709046174" lon="12.541374328641275"><ele>113.0</ele><time>2026-04-19T09:40:24.891Z</time></trkpt><trkpt lat="42.51838560118884" lon="12.54155877168583"><ele>114.0</ele><time>2026-04-19T09:40:25.891Z</time></trkpt><trkpt lat="42.51838016178879" lon="12.54174172778142"><ele>115.0</ele><time>2026-04-19T09:40:26.891Z</time></trkpt><trkpt lat="42.51836663776737" lon="12.541922423191483"><ele>116.0</ele><time>2026-04-19T09:40:27.891Z</time></trkpt><trkpt lat="42.51835516111703" lon="12.542105472847515"><ele>116.0</ele><time>2026-04-19T09:40:28.891Z</time></trkpt><trkpt lat="42.51834608388849" lon="12.542281426712846"><ele>116.0</ele><time>2026-04-19T09:40:29.891Z</time></trkpt><trkpt lat="42.51833284953984" lon="12.542450464963999"><ele>116.0</ele><time>2026-04-19T09:40:30.891Z</time></trkpt><trkpt lat="42.518305561178295" lon="12.542612237660718"><ele>116.0</ele><time>2026-04-19T09:40:31.891Z</time></trkpt><trkpt lat="42.5182715757464" lon="12.54277074547661"><ele>114.75</ele><time>2026-04-19T09:40:32.893Z</time></trkpt><trkpt lat="42.51822357538616" lon="12.542935564553655"><ele>113.5</ele><time>2026-04-19T09:40:33.892Z</time></trkpt><trkpt lat="42.518171916778364" lon="12.543084396960976"><ele>112.25</ele><time>2026-04-19T09:40:34.892Z</time></trkpt><trkpt lat="42.51811967597421" lon="12.543215823497551"><ele>111.0</ele><time>2026-04-19T09:40:35.893Z</time></trkpt><trkpt lat="42.518053826609076" lon="12.543336788026485"><ele>111.0</ele><time>2026-04-19T09:40:36.892Z</time></trkpt><trkpt lat="42.517975522430476" lon="12.543446520261924"><ele>111.0</ele><time>2026-04-19T09:40:37.892Z</time></trkpt><trkpt lat="42.51789179527432" lon="12.543527315818446"><ele>111.0</ele><time>2026-04-19T09:40:38.892Z</time></trkpt><trkpt lat="42.517792803690554" lon="12.543607682621738"><ele>111.0</ele><time>2026-04-19T09:40:39.892Z</time></trkpt><trkpt lat="42.517698214084795" lon="12.543686863311043"><ele>111.0</ele><time>2026-04-19T09:40:40.892Z</time></trkpt><trkpt lat="42.51760198211872" lon="12.543778460107282"><ele>113.0</ele><time>2026-04-19T09:40:41.892Z</time></trkpt><trkpt lat="42.517526639399584" lon="12.543892569356615"><ele>115.0</ele><time>2026-04-19T09:40:42.892Z</time></trkpt><trkpt lat="42.51745378015655" lon="12.544006792188297"><ele>117.0</ele><time>2026-04-19T09:40:43.892Z</time></trkpt><trkpt lat="42.517373643687534" lon="12.544115931678338"><ele>119.0</ele><time>2026-04-19T09:40:44.892Z</time></trkpt><trkpt lat="42.51728187078437" lon="12.544210494776951"><ele>119.0</ele><time>2026-04-19T09:40:45.892Z</time></trkpt><trkpt lat="42.51718339439932" lon="12.544280058561457"><ele>119.0</ele><time>2026-04-19T09:40:46.892Z</time></trkpt><trkpt lat="42.51708499532786" lon="12.544370279344852"><ele>119.0</ele><time>2026-04-19T09:40:47.892Z</time></trkpt><trkpt lat="42.51699484711959" lon="12.544483662181678"><ele>119.0</ele><time>2026-04-19T09:40:48.892Z</time></trkpt><trkpt lat="42.516910458189166" lon="12.544599810947457"><ele>119.75</ele><time>2026-04-19T09:40:49.892Z</time></trkpt><trkpt lat="42.51683909113992" lon="12.544729337567272"><ele>120.5</ele><time>2026-04-19T09:40:50.892Z</time></trkpt><trkpt lat="42.51676626282514" lon="12.54485554724953"><ele>121.25</ele><time>2026-04-19T09:40:51.892Z</time></trkpt><trkpt lat="42.516681959209116" lon="12.54496759582508"><ele>122.0</ele><time>2026-04-19T09:40:52.892Z</time></trkpt><trkpt lat="42.516580684137196" lon="12.545045469103263"><ele>122.0</ele><time>2026-04-19T09:40:53.892Z</time></trkpt><trkpt lat="42.51647831966103" lon="12.545113236420228"><ele>122.0</ele><time>2026-04-19T09:40:54.892Z</time></trkpt><trkpt lat="42.51636515290003" lon="12.545170140999346"><ele>122.0</ele><time>2026-04-19T09:40:55.892Z</time></trkpt><trkpt lat="42.516244500567076" lon="12.545234365667955"><ele>122.0</ele><time>2026-04-19T09:40:56.892Z</time></trkpt><trkpt lat="42.51613564353106" lon="12.545310837146545"><ele>122.75</ele><time>2026-04-19T09:40:57.892Z</time></trkpt><trkpt lat="42.51605996565999" lon="12.54540660042311"><ele>123.5</ele><time>2026-04-19T09:40:58.892Z</time></trkpt><trkpt lat="42.516014834405944" lon="12.54553578513973"><ele>124.25</ele><time>2026-04-19T09:40:59.892Z</time></trkpt><trkpt lat="42.51596539986481" lon="12.545685878968841"><ele>125.0</ele><time>2026-04-19T09:41:00.892Z</time></trkpt><trkpt lat="42.515918028508835" lon="12.54585094569035"><ele>125.0</ele><time>2026-04-19T09:41:01.892Z</time></trkpt><trkpt lat="42.51586524134293" lon="12.5460132007963"><ele>125.0</ele><time>2026-04-19T09:41:02.891Z</time></trkpt><trkpt lat="42.51581100657076" lon="12.546179834143544"><ele>125.0</ele><time>2026-04-19T09:41:03.891Z</time></trkpt><trkpt lat="42.51574882825271" lon="12.546345737227481"><ele>125.0</ele><time>2026-04-19T09:41:04.891Z</time></trkpt><trkpt lat="42.51567246558503" lon="12.54651503799722"><ele>121.33333333333333</ele><time>2026-04-19T09:41:05.891Z</time></trkpt><trkpt lat="42.51559540880426" lon="12.546678226183703"><ele>117.66666666666666</ele><time>2026-04-19T09:41:06.891Z</time></trkpt><trkpt lat="42.51549792324894" lon="12.546832343622947"><ele>114.0</ele><time>2026-04-19T09:41:07.891Z</time></trkpt><trkpt lat="42.515412741889016" lon="12.547019808098563"><ele>117.33333333333334</ele><time>2026-04-19T09:41:08.891Z</time></trkpt><trkpt lat="42.515313073483384" lon="12.547176447406367"><ele>120.66666666666667</ele><time>2026-04-19T09:41:09.891Z</time></trkpt><trkpt lat="42.51521486365377" lon="12.547335495042875"><ele>124.0</ele><time>2026-04-19T09:41:10.891Z</time></trkpt><trkpt lat="42.51512099551162" lon="12.547485781628799"><ele>124.0</ele><time>2026-04-19T09:41:11.891Z</time></trkpt><trkpt lat="42.5150181374238" lon="12.547633019968387"><ele>124.0</ele><time>2026-04-19T09:41:12.891Z</time></trkpt><trkpt lat="42.514928103828474" lon="12.54779122775088"><ele>124.0</ele><time>2026-04-19T09:41:13.891Z</time></trkpt><trkpt lat="42.51484615963266" lon="12.547946726650594"><ele>124.0</ele><time>2026-04-19T09:41:14.891Z</time></trkpt><trkpt lat="42.51476556434979" lon="12.54809516653654"><ele>125.25</ele><time>2026-04-19T09:41:15.891Z</time></trkpt><trkpt lat="42.514678331257834" lon="12.548239879000203"><ele>126.5</ele><time>2026-04-19T09:41:16.891Z</time></trkpt><trkpt lat="42.51460294517537" lon="12.54839750106074"><ele>127.75</ele><time>2026-04-19T09:41:17.891Z</time></trkpt><trkpt lat="42.51455268899931" lon="12.548580442703338"><ele>129.0</ele><time>2026-04-19T09:41:18.891Z</time></trkpt><trkpt lat="42.51452557861224" lon="12.548789320749055"><ele>130.0</ele><time>2026-04-19T09:41:19.891Z</time></trkpt><trkpt lat="42.5145244602524" lon="12.549009581285253"><ele>131.0</ele><time>2026-04-19T09:41:20.891Z</time></trkpt><trkpt lat="42.514545980312555" lon="12.549219227504626"><ele>132.0</ele><time>2026-04-19T09:41:21.891Z</time></trkpt><trkpt lat="42.51458522228239" lon="12.549415349923954"><ele>127.33333333333334</ele><time>2026-04-19T09:41:22.891Z</time></trkpt><trkpt lat="42.51462683948646" lon="12.549609929705428"><ele>122.66666666666667</ele><time>2026-04-19T09:41:23.891Z</time></trkpt><trkpt lat="42.51466677404038" lon="12.549809029126346"><ele>118.0</ele><time>2026-04-19T09:41:24.89Z</time></trkpt><trkpt lat="42.51471160328707" lon="12.550014176264563"><ele>118.0</ele><time>2026-04-19T09:41:25.89Z</time></trkpt><trkpt lat="42.51474782184175" lon="12.55020626866864"><ele>118.0</ele><time>2026-04-19T09:41:26.89Z</time></trkpt><trkpt lat="42.514781228959414" lon="12.550399993943063"><ele>118.0</ele><time>2026-04-19T09:41:27.89Z</time></trkpt><trkpt lat="42.514809113947805" lon="12.550596458827268"><ele>118.0</ele><time>2026-04-19T09:41:28.89Z</time></trkpt><trkpt lat="42.51482433839411" lon="12.5507914573637"><ele>119.0</ele><time>2026-04-19T09:41:29.89Z</time></trkpt><trkpt lat="42.51482126786901" lon="12.551001676315131"><ele>120.0</ele><time>2026-04-19T09:41:30.89Z</time></trkpt><trkpt lat="42.514810668908986" lon="12.551202889173437"><ele>121.0</ele><time>2026-04-19T09:41:31.89Z</time></trkpt><trkpt lat="42.514785301601485" lon="12.551414358332424"><ele>122.66666666666667</ele><time>2026-04-19T09:41:32.89Z</time></trkpt><trkpt lat="42.51476973706219" lon="12.551620538678222"><ele>124.33333333333334</ele><time>2026-04-19T09:41:33.89Z</time></trkpt><trkpt lat="42.51475759685408" lon="12.551820488487278"><ele>126.0</ele><time>2026-04-19T09:41:34.89Z</time></trkpt><trkpt lat="42.514765887748" lon="12.552023500894958"><ele>127.25</ele><time>2026-04-19T09:41:35.89Z</time></trkpt><trkpt lat="42.51480109849128" lon="12.552217660997673"><ele>128.5</ele><time>2026-04-19T09:41:36.89Z</time></trkpt><trkpt lat="42.514852993632694" lon="12.552405601363345"><ele>129.75</ele><time>2026-04-19T09:41:37.89Z</time></trkpt><trkpt lat="42.51492392659196" lon="12.552589614296565"><ele>131.0</ele><time>2026-04-19T09:41:38.89Z</time></trkpt><trkpt lat="42.515005931075706" lon="12.55275794321277"><ele>133.5</ele><time>2026-04-19T09:41:39.89Z</time></trkpt><trkpt lat="42.515088894933065" lon="12.552928624399847"><ele>136.0</ele><time>2026-04-19T09:41:40.89Z</time></trkpt><trkpt lat="42.51516221164798" lon="12.553103676350416"><ele>138.5</ele><time>2026-04-19T09:41:41.89Z</time></trkpt><trkpt lat="42.515227968035276" lon="12.553281671253778"><ele>141.0</ele><time>2026-04-19T09:41:42.89Z</time></trkpt><trkpt lat="42.51529002371056" lon="12.553456454914436"><ele>141.0</ele><time>2026-04-19T09:41:43.89Z</time></trkpt><trkpt lat="42.51530599624997" lon="12.553635300529608"><ele>141.0</ele><time>2026-04-19T09:41:44.89Z</time></trkpt><trkpt lat="42.51533580548291" lon="12.55377856643513"><ele>141.0</ele><time>2026-04-19T09:41:45.89Z</time></trkpt><trkpt lat="42.515360786533854" lon="12.553910284119306"><ele>141.0</ele><time>2026-04-19T09:41:46.89Z</time></trkpt><trkpt lat="42.515380548810604" lon="12.554038064543414"><ele>141.0</ele><time>2026-04-19T09:41:47.889Z</time></trkpt><trkpt lat="42.51540718837672" lon="12.554169816530228"><ele>135.8</ele><time>2026-04-19T09:41:48.889Z</time></trkpt><trkpt lat="42.51542754796244" lon="12.554297742265504"><ele>130.6</ele><time>2026-04-19T09:41:49.889Z</time></trkpt><trkpt lat="42.515445371614774" lon="12.554430165465536"><ele>125.4</ele><time>2026-04-19T09:41:50.889Z</time></trkpt><trkpt lat="42.5154670334985" lon="12.554559364962765"><ele>120.2</ele><time>2026-04-19T09:41:51.889Z</time></trkpt><trkpt lat="42.51548699043224" lon="12.554683366112442"><ele>115.0</ele><time>2026-04-19T09:41:52.889Z</time></trkpt><trkpt lat="42.51551409674611" lon="12.554812158050424"><ele>115.0</ele><time>2026-04-19T09:41:53.889Z</time></trkpt><trkpt lat="42.51553461585625" lon="12.554944916258338"><ele>115.0</ele><time>2026-04-19T09:41:54.889Z</time></trkpt><trkpt lat="42.51555152342737" lon="12.555083494328672"><ele>115.0</ele><time>2026-04-19T09:41:55.889Z</time></trkpt><trkpt lat="42.51557152148964" lon="12.555207927827981"><ele>115.0</ele><time>2026-04-19T09:41:56.889Z</time></trkpt><trkpt lat="42.5155911138798" lon="12.555337652251538"><ele>115.0</ele><time>2026-04-19T09:41:57.889Z</time></trkpt><trkpt lat="42.51560352238826" lon="12.55547016572924"><ele>115.0</ele><time>2026-04-19T09:41:58.889Z</time></trkpt><trkpt lat="42.515601098358864" lon="12.555610793056541"><ele>115.0</ele><time>2026-04-19T09:41:59.889Z</time></trkpt><trkpt lat="42.51558373867431" lon="12.555758303023426"><ele>115.0</ele><time>2026-04-19T09:42:00.889Z</time></trkpt><trkpt lat="42.51555584132691" lon="12.55591032048407"><ele>115.0</ele><time>2026-04-19T09:42:01.889Z</time></trkpt><trkpt lat="42.51553022667325" lon="12.556065105042938"><ele>115.0</ele><time>2026-04-19T09:42:02.889Z</time></trkpt><trkpt lat="42.51548667356933" lon="12.556215743076319"><ele>115.0</ele><time>2026-04-19T09:42:03.889Z</time></trkpt><trkpt lat="42.5154278945043" lon="12.556354674813358"><ele>115.0</ele><time>2026-04-19T09:42:04.889Z</time></trkpt><trkpt lat="42.51537645229337" lon="12.556503988227343"><ele>115.0</ele><time>2026-04-19T09:42:05.889Z</time></trkpt><trkpt lat="42.51534073829783" lon="12.556671730724972"><ele>115.0</ele><time>2026-04-19T09:42:06.889Z</time></trkpt><trkpt lat="42.515349083277485" lon="12.55684684312454"><ele>116.0</ele><time>2026-04-19T09:42:07.889Z</time></trkpt><trkpt lat="42.515377299901616" lon="12.557011154644725"><ele>117.0</ele><time>2026-04-19T09:42:08.889Z</time></trkpt><trkpt lat="42.51539707767898" lon="12.557179901417014"><ele>118.0</ele><time>2026-04-19T09:42:09.889Z</time></trkpt><trkpt lat="42.51541882012818" lon="12.55734472286208"><ele>119.0</ele><time>2026-04-19T09:42:10.888Z</time></trkpt><trkpt lat="42.51543391574038" lon="12.557508651528268"><ele>119.0</ele><time>2026-04-19T09:42:11.888Z</time></trkpt><trkpt lat="42.515448828308266" lon="12.557666259323312"><ele>119.0</ele><time>2026-04-19T09:42:12.888Z</time></trkpt><trkpt lat="42.51545850479657" lon="12.557816740483828"><ele>119.0</ele><time>2026-04-19T09:42:13.888Z</time></trkpt><trkpt lat="42.51544624242159" lon="12.557964554910905"><ele>119.0</ele><time>2026-04-19T09:42:14.888Z</time></trkpt><trkpt lat="42.515408020302445" lon="12.55809706218918"><ele>119.0</ele><time>2026-04-19T09:42:15.888Z</time></trkpt><trkpt lat="42.515353451732786" lon="12.558223508595058"><ele>119.25</ele><time>2026-04-19T09:42:16.888Z</time></trkpt><trkpt lat="42.51529224959232" lon="12.55835142155008"><ele>119.5</ele><time>2026-04-19T09:42:17.888Z</time></trkpt><trkpt lat="42.51522627916201" lon="12.558492856566046"><ele>119.75</ele><time>2026-04-19T09:42:18.888Z</time></trkpt><trkpt lat="42.515159302873236" lon="12.558639897763033"><ele>120.0</ele><time>2026-04-19T09:42:19.888Z</time></trkpt><trkpt lat="42.51509120113658" lon="12.558791817916994"><ele>120.0</ele><time>2026-04-19T09:42:20.888Z</time></trkpt><trkpt lat="42.51501898993798" lon="12.558946060384018"><ele>120.0</ele><time>2026-04-19T09:42:21.888Z</time></trkpt><trkpt lat="42.51494473989683" lon="12.559097417992835"><ele>120.0</ele><time>2026-04-19T09:42:22.888Z</time></trkpt><trkpt lat="42.514868798374515" lon="12.559245874429218"><ele>120.0</ele><time>2026-04-19T09:42:23.888Z</time></trkpt><trkpt lat="42.51479944204066" lon="12.559404644399178"><ele>119.5</ele><time>2026-04-19T09:42:24.888Z</time></trkpt><trkpt lat="42.51472899516846" lon="12.559568648405412"><ele>119.0</ele><time>2026-04-19T09:42:25.888Z</time></trkpt><trkpt lat="42.514661058827606" lon="12.559738837194532"><ele>118.5</ele><time>2026-04-19T09:42:26.888Z</time></trkpt><trkpt lat="42.51459909350025" lon="12.55991994832497"><ele>118.0</ele><time>2026-04-19T09:42:27.888Z</time></trkpt><trkpt lat="42.51454123885505" lon="12.560105995705342"><ele>119.0</ele><time>2026-04-19T09:42:28.888Z</time></trkpt><trkpt lat="42.51448584310994" lon="12.560291109648903"><ele>120.0</ele><time>2026-04-19T09:42:29.888Z</time></trkpt><trkpt lat="42.51443139926027" lon="12.560461762522667"><ele>121.0</ele><time>2026-04-19T09:42:30.888Z</time></trkpt><trkpt lat="42.51437179076718" lon="12.560623426724902"><ele>122.0</ele><time>2026-04-19T09:42:31.888Z</time></trkpt><trkpt lat="42.514308528118846" lon="12.560771555051993"><ele>122.0</ele><time>2026-04-19T09:42:32.888Z</time></trkpt><trkpt lat="42.514240604907066" lon="12.560907882473705"><ele>122.0</ele><time>2026-04-19T09:42:33.887Z</time></trkpt><trkpt lat="42.514165333742945" lon="12.56102645481019"><ele>122.0</ele><time>2026-04-19T09:42:34.887Z</time></trkpt><trkpt lat="42.51408408132124" lon="12.561139448544925"><ele>122.0</ele><time>2026-04-19T09:42:35.887Z</time></trkpt><trkpt lat="42.513996053583455" lon="12.561252065040716"><ele>122.0</ele><time>2026-04-19T09:42:36.887Z</time></trkpt><trkpt lat="42.51390205742643" lon="12.561369771085023"><ele>122.0</ele><time>2026-04-19T09:42:37.887Z</time></trkpt><trkpt lat="42.513817211082205" lon="12.561485015259098"><ele>122.0</ele><time>2026-04-19T09:42:38.889Z</time></trkpt><trkpt lat="42.513729526258025" lon="12.561603951198641"><ele>122.0</ele><time>2026-04-19T09:42:39.889Z</time></trkpt><trkpt lat="42.51364693699428" lon="12.561721325337302"><ele>122.0</ele><time>2026-04-19T09:42:40.889Z</time></trkpt><trkpt lat="42.513562641207315" lon="12.561843117612042"><ele>122.0</ele><time>2026-04-19T09:42:41.889Z</time></trkpt><trkpt lat="42.51348045337875" lon="12.56197378045846"><ele>122.0</ele><time>2026-04-19T09:42:42.889Z</time></trkpt><trkpt lat="42.51339668830509" lon="12.562108555050559"><ele>122.0</ele><time>2026-04-19T09:42:43.889Z</time></trkpt><trkpt lat="42.51331895813037" lon="12.562235704600331"><ele>122.0</ele><time>2026-04-19T09:42:44.889Z</time></trkpt><trkpt lat="42.51324153789679" lon="12.562360160902804"><ele>121.99999999999999</ele><time>2026-04-19T09:42:45.889Z</time></trkpt><trkpt lat="42.513168404896746" lon="12.562469423759797"><ele>121.99999999999999</ele><time>2026-04-19T09:42:46.889Z</time></trkpt><trkpt lat="42.51310219097064" lon="12.562569376719821"><ele>122.0</ele><time>2026-04-19T09:42:47.889Z</time></trkpt><trkpt lat="42.51303805166967" lon="12.562675487782942"><ele>122.0</ele><time>2026-04-19T09:42:48.889Z</time></trkpt><trkpt lat="42.51297364912129" lon="12.56278223534063"><ele>122.6</ele><time>2026-04-19T09:42:49.889Z</time></trkpt><trkpt lat="42.51290380828525" lon="12.562891066092455"><ele>123.19999999999999</ele><time>2026-04-19T09:42:50.888Z</time></trkpt><trkpt lat="42.51282756299759" lon="12.562994103945057"><ele>123.8</ele><time>2026-04-19T09:42:51.889Z</time></trkpt><trkpt lat="42.51276053117154" lon="12.563100264294652"><ele>124.4</ele><time>2026-04-19T09:42:52.889Z</time></trkpt><trkpt lat="42.51269875527006" lon="12.563202427157345"><ele>125.0</ele><time>2026-04-19T09:42:53.889Z</time></trkpt><trkpt lat="42.51263913615037" lon="12.563304039069466"><ele>125.0</ele><time>2026-04-19T09:42:54.889Z</time></trkpt><trkpt lat="42.51258062233175" lon="12.563413256465314"><ele>125.0</ele><time>2026-04-19T09:42:55.889Z</time></trkpt><trkpt lat="42.51252691078027" lon="12.563526188325385"><ele>125.0</ele><time>2026-04-19T09:42:56.888Z</time></trkpt><trkpt lat="42.51247062176025" lon="12.563644607716192"><ele>125.0</ele><time>2026-04-19T09:42:57.888Z</time></trkpt><trkpt lat="42.51241437075764" lon="12.563769603518322"><ele>125.0</ele><time>2026-04-19T09:42:58.888Z</time></trkpt><trkpt lat="42.51236227930595" lon="12.5638948386168"><ele>124.6</ele><time>2026-04-19T09:42:59.888Z</time></trkpt><trkpt lat="42.51230302816851" lon="12.564012613657983"><ele>124.2</ele><time>2026-04-19T09:43:00.888Z</time></trkpt><trkpt lat="42.51224182125226" lon="12.564127595806312"><ele>123.80000000000001</ele><time>2026-04-19T09:43:01.888Z</time></trkpt><trkpt lat="42.51216798638849" lon="12.56423183489415"><ele>123.4</ele><time>2026-04-19T09:43:02.888Z</time></trkpt><trkpt lat="42.51208952827894" lon="12.564321396173304"><ele>123.0</ele><time>2026-04-19T09:43:03.888Z</time></trkpt><trkpt lat="42.51201556784679" lon="12.56440323844286"><ele>124.5</ele><time>2026-04-19T09:43:04.888Z</time></trkpt><trkpt lat="42.51192568465518" lon="12.564477298069274"><ele>126.0</ele><time>2026-04-19T09:43:05.888Z</time></trkpt><trkpt lat="42.511836008853464" lon="12.56458191793612"><ele>127.5</ele><time>2026-04-19T09:43:06.888Z</time></trkpt><trkpt lat="42.511745485256306" lon="12.564709372472814"><ele>129.0</ele><time>2026-04-19T09:43:07.888Z</time></trkpt><trkpt lat="42.511660056307804" lon="12.564862998099187"><ele>129.0</ele><time>2026-04-19T09:43:08.888Z</time></trkpt><trkpt lat="42.5115441150283" lon="12.564992482319534"><ele>129.0</ele><time>2026-04-19T09:43:09.888Z</time></trkpt><trkpt lat="42.511439380347824" lon="12.565142192172443"><ele>129.0</ele><time>2026-04-19T09:43:10.888Z</time></trkpt><trkpt lat="42.511330191266126" lon="12.565269685368628"><ele>129.0</ele><time>2026-04-19T09:43:11.888Z</time></trkpt><trkpt lat="42.51121857811663" lon="12.56538751394162"><ele>130.0</ele><time>2026-04-19T09:43:12.888Z</time></trkpt><trkpt lat="42.51112210514214" lon="12.565528465166755"><ele>131.0</ele><time>2026-04-19T09:43:13.888Z</time></trkpt><trkpt lat="42.51103070255856" lon="12.565682421924057"><ele>132.0</ele><time>2026-04-19T09:43:14.888Z</time></trkpt><trkpt lat="42.510936526702956" lon="12.565828140182452"><ele>133.0</ele><time>2026-04-19T09:43:15.888Z</time></trkpt><trkpt lat="42.51084806612741" lon="12.565958779846069"><ele>133.0</ele><time>2026-04-19T09:43:16.888Z</time></trkpt><trkpt lat="42.51075513419057" lon="12.566088424928614"><ele>133.0</ele><time>2026-04-19T09:43:17.888Z</time></trkpt><trkpt lat="42.510654882737256" lon="12.566219963308692"><ele>133.0</ele><time>2026-04-19T09:43:18.888Z</time></trkpt><trkpt lat="42.51054712110734" lon="12.56634829629416"><ele>133.0</ele><time>2026-04-19T09:43:19.887Z</time></trkpt><trkpt lat="42.51043914775791" lon="12.566479005683892"><ele>135.0</ele><time>2026-04-19T09:43:20.887Z</time></trkpt><trkpt lat="42.51032373748543" lon="12.566608404125779"><ele>137.0</ele><time>2026-04-19T09:43:21.887Z</time></trkpt><trkpt lat="42.51020708540085" lon="12.566739581315755"><ele>139.0</ele><time>2026-04-19T09:43:22.887Z</time></trkpt><trkpt lat="42.51009137833087" lon="12.566875260622894"><ele>139.0</ele><time>2026-04-19T09:43:23.887Z</time></trkpt><trkpt lat="42.50997304494983" lon="12.567006040668405"><ele>139.0</ele><time>2026-04-19T09:43:24.887Z</time></trkpt><trkpt lat="42.509852792758416" lon="12.567133511311539"><ele>139.0</ele><time>2026-04-19T09:43:25.887Z</time></trkpt><trkpt lat="42.50974235632228" lon="12.567258105564386"><ele>139.0</ele><time>2026-04-19T09:43:26.887Z</time></trkpt><trkpt lat="42.50963704952889" lon="12.567380218078926"><ele>140.0</ele><time>2026-04-19T09:43:27.887Z</time></trkpt><trkpt lat="42.50953568771221" lon="12.567491556938183"><ele>141.0</ele><time>2026-04-19T09:43:28.887Z</time></trkpt><trkpt lat="42.50944010999633" lon="12.567600172770444"><ele>142.0</ele><time>2026-04-19T09:43:29.887Z</time></trkpt><trkpt lat="42.50934423976785" lon="12.567705034107577"><ele>143.0</ele><time>2026-04-19T09:43:30.887Z</time></trkpt><trkpt lat="42.50924219047029" lon="12.567817435895895"><ele>140.75</ele><time>2026-04-19T09:43:31.887Z</time></trkpt><trkpt lat="42.509142299823495" lon="12.567944194604067"><ele>138.5</ele><time>2026-04-19T09:43:32.887Z</time></trkpt><trkpt lat="42.509041492921014" lon="12.568087081054733"><ele>136.25</ele><time>2026-04-19T09:43:33.887Z</time></trkpt><trkpt lat="42.508944453259716" lon="12.56824076470824"><ele>134.0</ele><time>2026-04-19T09:43:34.887Z</time></trkpt><trkpt lat="42.50884791520745" lon="12.568404971003904"><ele>134.0</ele><time>2026-04-19T09:43:35.887Z</time></trkpt><trkpt lat="42.50874624264873" lon="12.568562327378793"><ele>134.0</ele><time>2026-04-19T09:43:36.887Z</time></trkpt><trkpt lat="42.50864620116471" lon="12.568723069038008"><ele>134.0</ele><time>2026-04-19T09:43:37.887Z</time></trkpt><trkpt lat="42.50854319442251" lon="12.568883935277034"><ele>137.66666666666666</ele><time>2026-04-19T09:43:38.887Z</time></trkpt><trkpt lat="42.508449028061236" lon="12.569056462308493"><ele>141.33333333333334</ele><time>2026-04-19T09:43:39.887Z</time></trkpt><trkpt lat="42.508352010149466" lon="12.569235831232135"><ele>145.0</ele><time>2026-04-19T09:43:40.887Z</time></trkpt><trkpt lat="42.508246603221956" lon="12.56941002408766"><ele>141.66666666666669</ele><time>2026-04-19T09:43:41.887Z</time></trkpt><trkpt lat="42.50815088001162" lon="12.56959059893894"><ele>138.33333333333334</ele><time>2026-04-19T09:43:42.886Z</time></trkpt><trkpt lat="42.50805081962634" lon="12.56977433523965"><ele>135.0</ele><time>2026-04-19T09:43:43.886Z</time></trkpt><trkpt lat="42.50796248834952" lon="12.569967956124577"><ele>141.0</ele><time>2026-04-19T09:43:44.886Z</time></trkpt><trkpt lat="42.50789019711074" lon="12.570163109279369"><ele>147.0</ele><time>2026-04-19T09:43:45.886Z</time></trkpt><trkpt lat="42.507814457599" lon="12.570367312646583"><ele>153.0</ele><time>2026-04-19T09:43:46.886Z</time></trkpt><trkpt lat="42.50778368831665" lon="12.570557024375375"><ele>153.0</ele><time>2026-04-19T09:43:47.886Z</time></trkpt><trkpt lat="42.50772226872465" lon="12.570774517893726"><ele>153.0</ele><time>2026-04-19T09:43:48.886Z</time></trkpt><trkpt lat="42.50768836336102" lon="12.57096834199282"><ele>153.0</ele><time>2026-04-19T09:43:49.886Z</time></trkpt><trkpt lat="42.507667653463734" lon="12.571153877506797"><ele>151.75</ele><time>2026-04-19T09:43:50.886Z</time></trkpt><trkpt lat="42.50763877513738" lon="12.57134177602833"><ele>150.5</ele><time>2026-04-19T09:43:51.886Z</time></trkpt><trkpt lat="42.507612591645916" lon="12.571515905121599"><ele>149.25</ele><time>2026-04-19T09:43:52.886Z</time></trkpt><trkpt lat="42.50758380660331" lon="12.571681362607716"><ele>148.0</ele><time>2026-04-19T09:43:53.886Z</time></trkpt><trkpt lat="42.50755328369478" lon="12.571850716082984"><ele>146.5</ele><time>2026-04-19T09:43:54.886Z</time></trkpt><trkpt lat="42.507506072653804" lon="12.572027403051168"><ele>145.0</ele><time>2026-04-19T09:43:55.886Z</time></trkpt><trkpt lat="42.50745307267085" lon="12.572205544244378"><ele>143.5</ele><time>2026-04-19T09:43:56.886Z</time></trkpt><trkpt lat="42.50739679910977" lon="12.572383434706234"><ele>142.0</ele><time>2026-04-19T09:43:57.886Z</time></trkpt><trkpt lat="42.50733465952038" lon="12.572566285438896"><ele>142.0</ele><time>2026-04-19T09:43:58.886Z</time></trkpt><trkpt lat="42.507270507887675" lon="12.57274986845495"><ele>142.0</ele><time>2026-04-19T09:43:59.886Z</time></trkpt><trkpt lat="42.50721138659261" lon="12.572938560544959"><ele>142.0</ele><time>2026-04-19T09:44:00.886Z</time></trkpt><trkpt lat="42.50714864345771" lon="12.573128412263992"><ele>140.0</ele><time>2026-04-19T09:44:01.886Z</time></trkpt><trkpt lat="42.50707837715047" lon="12.573327658757274"><ele>138.0</ele><time>2026-04-19T09:44:02.886Z</time></trkpt><trkpt lat="42.50702044241709" lon="12.573540202773897"><ele>136.0</ele><time>2026-04-19T09:44:03.886Z</time></trkpt><trkpt lat="42.50695652796609" lon="12.573747656080453"><ele>142.0</ele><time>2026-04-19T09:44:04.886Z</time></trkpt><trkpt lat="42.50689414019795" lon="12.573954689916981"><ele>148.0</ele><time>2026-04-19T09:44:05.885Z</time></trkpt><trkpt lat="42.506829293743166" lon="12.574144220391558"><ele>154.0</ele><time>2026-04-19T09:44:06.885Z</time></trkpt><trkpt lat="42.506728638467216" lon="12.574305372022613"><ele>154.0</ele><time>2026-04-19T09:44:07.885Z</time></trkpt><trkpt lat="42.50664811343473" lon="12.574509033329626"><ele>154.0</ele><time>2026-04-19T09:44:08.885Z</time></trkpt><trkpt lat="42.50654769000957" lon="12.574686883367058"><ele>154.0</ele><time>2026-04-19T09:44:09.885Z</time></trkpt><trkpt lat="42.506461269226925" lon="12.57487062607811"><ele>149.33333333333334</ele><time>2026-04-19T09:44:10.885Z</time></trkpt><trkpt lat="42.506388864584814" lon="12.575065173659942"><ele>144.66666666666666</ele><time>2026-04-19T09:44:11.885Z</time></trkpt><trkpt lat="42.50631482779335" lon="12.575257186729937"><ele>140.0</ele><time>2026-04-19T09:44:12.885Z</time></trkpt><trkpt lat="42.50625109288465" lon="12.57546655790678"><ele>141.33333333333331</ele><time>2026-04-19T09:44:13.885Z</time></trkpt><trkpt lat="42.50618639522548" lon="12.575679895291998"><ele>142.66666666666666</ele><time>2026-04-19T09:44:14.885Z</time></trkpt><trkpt lat="42.506120970757934" lon="12.575899676357112"><ele>144.0</ele><time>2026-04-19T09:44:15.885Z</time></trkpt><trkpt lat="42.506054469268825" lon="12.5761242871989"><ele>142.33333333333334</ele><time>2026-04-19T09:44:16.885Z</time></trkpt><trkpt lat="42.50598499982865" lon="12.576348130401563"><ele>140.66666666666669</ele><time>2026-04-19T09:44:17.885Z</time></trkpt><trkpt lat="42.50590975973504" lon="12.576575414275897"><ele>139.0</ele><time>2026-04-19T09:44:18.885Z</time></trkpt><trkpt lat="42.50581878221093" lon="12.576812235650975"><ele>137.66666666666669</ele><time>2026-04-19T09:44:19.885Z</time></trkpt><trkpt lat="42.50571977344699" lon="12.57704020776465"><ele>136.33333333333334</ele><time>2026-04-19T09:44:20.885Z</time></trkpt><trkpt lat="42.50560709243491" lon="12.57727122205871"><ele>135.0</ele><time>2026-04-19T09:44:21.885Z</time></trkpt><trkpt lat="42.50547904783229" lon="12.577481267679648"><ele>136.66666666666666</ele><time>2026-04-19T09:44:22.885Z</time></trkpt><trkpt lat="42.505348897415985" lon="12.577692121279494"><ele>138.33333333333331</ele><time>2026-04-19T09:44:23.885Z</time></trkpt><trkpt lat="42.505215663580884" lon="12.577891893529145"><ele>140.0</ele><time>2026-04-19T09:44:24.885Z</time></trkpt><trkpt lat="42.50507343072108" lon="12.57807920981605"><ele>140.0</ele><time>2026-04-19T09:44:25.885Z</time></trkpt><trkpt lat="42.50492386646055" lon="12.578260785238111"><ele>140.0</ele><time>2026-04-19T09:44:26.885Z</time></trkpt><trkpt lat="42.50476729823518" lon="12.57843520544744"><ele>140.0</ele><time>2026-04-19T09:44:27.885Z</time></trkpt><trkpt lat="42.504605369974946" lon="12.57860349421468"><ele>139.66666666666666</ele><time>2026-04-19T09:44:28.884Z</time></trkpt><trkpt lat="42.504446606307496" lon="12.57875730140573"><ele>139.33333333333334</ele><time>2026-04-19T09:44:29.884Z</time></trkpt><trkpt lat="42.504287024144354" lon="12.578910476108877"><ele>139.0</ele><time>2026-04-19T09:44:30.884Z</time></trkpt><trkpt lat="42.50413186357894" lon="12.579063041453818"><ele>139.0</ele><time>2026-04-19T09:44:31.884Z</time></trkpt><trkpt lat="42.50398182438229" lon="12.579226555411578"><ele>139.0</ele><time>2026-04-19T09:44:32.884Z</time></trkpt><trkpt lat="42.50384174625425" lon="12.579391951340698"><ele>139.0</ele><time>2026-04-19T09:44:33.884Z</time></trkpt><trkpt lat="42.503706929204746" lon="12.579581208928342"><ele>140.33333333333334</ele><time>2026-04-19T09:44:34.884Z</time></trkpt><trkpt lat="42.5035634335713" lon="12.579771561681174"><ele>141.66666666666666</ele><time>2026-04-19T09:44:35.884Z</time></trkpt><trkpt lat="42.503420079009715" lon="12.579948860446786"><ele>143.0</ele><time>2026-04-19T09:44:36.884Z</time></trkpt><trkpt lat="42.50327232478295" lon="12.580128500467127"><ele>143.0</ele><time>2026-04-19T09:44:37.884Z</time></trkpt><trkpt lat="42.503120300845104" lon="12.580309586598158"><ele>143.0</ele><time>2026-04-19T09:44:38.884Z</time></trkpt><trkpt lat="42.50297434697292" lon="12.580483665546753"><ele>143.0</ele><time>2026-04-19T09:44:39.884Z</time></trkpt><trkpt lat="42.502833017048765" lon="12.580651275517832"><ele>144.33333333333331</ele><time>2026-04-19T09:44:40.884Z</time></trkpt><trkpt lat="42.50269469785096" lon="12.580805222329731"><ele>145.66666666666666</ele><time>2026-04-19T09:44:41.884Z</time></trkpt><trkpt lat="42.50255781686339" lon="12.580953981719228"><ele>147.0</ele><time>2026-04-19T09:44:42.884Z</time></trkpt><trkpt lat="42.50242580382127" lon="12.581100168486463"><ele>146.0</ele><time>2026-04-19T09:44:43.884Z</time></trkpt><trkpt lat="42.50228579264489" lon="12.581231841194848"><ele>145.0</ele><time>2026-04-19T09:44:44.886Z</time></trkpt><trkpt lat="42.50212698844302" lon="12.581356469113945"><ele>144.0</ele><time>2026-04-19T09:44:45.886Z</time></trkpt><trkpt lat="42.50196066026765" lon="12.581469148053394"><ele>144.0</ele><time>2026-04-19T09:44:46.886Z</time></trkpt><trkpt lat="42.50179078600867" lon="12.581569995469271"><ele>144.0</ele><time>2026-04-19T09:44:47.886Z</time></trkpt><trkpt lat="42.50163593949547" lon="12.581682701549305"><ele>144.0</ele><time>2026-04-19T09:44:48.886Z</time></trkpt><trkpt lat="42.5014930417156" lon="12.581794536569197"><ele>144.0</ele><time>2026-04-19T09:44:49.886Z</time></trkpt><trkpt lat="42.50137388796977" lon="12.581900910883956"><ele>144.0</ele><time>2026-04-19T09:44:50.886Z</time></trkpt><trkpt lat="42.50127075043595" lon="12.582006888881493"><ele>144.0</ele><time>2026-04-19T09:44:51.886Z</time></trkpt><trkpt lat="42.50120704256536" lon="12.582111608608969"><ele>144.0</ele><time>2026-04-19T09:44:52.886Z</time></trkpt><trkpt lat="42.501168263528115" lon="12.582253870037496"><ele>144.75</ele><time>2026-04-19T09:44:53.886Z</time></trkpt><trkpt lat="42.50117030761058" lon="12.582426308094774"><ele>145.5</ele><time>2026-04-19T09:44:54.886Z</time></trkpt><trkpt lat="42.50117797576884" lon="12.582620008245346"><ele>146.25</ele><time>2026-04-19T09:44:55.886Z</time></trkpt><trkpt lat="42.50118458998176" lon="12.582812257525372"><ele>147.0</ele><time>2026-04-19T09:44:56.886Z</time></trkpt><trkpt lat="42.501193950463346" lon="12.582998061086967"><ele>148.0</ele><time>2026-04-19T09:44:57.886Z</time></trkpt><trkpt lat="42.50119951422418" lon="12.583192409539885"><ele>149.0</ele><time>2026-04-19T09:44:58.886Z</time></trkpt><trkpt lat="42.50120374601106" lon="12.583402037670295"><ele>150.0</ele><time>2026-04-19T09:44:59.886Z</time></trkpt><trkpt lat="42.50120357724835" lon="12.583621367073425"><ele>151.0</ele><time>2026-04-19T09:45:00.886Z</time></trkpt><trkpt lat="42.50118862472219" lon="12.583838441530288"><ele>152.0</ele><time>2026-04-19T09:45:01.886Z</time></trkpt><trkpt lat="42.50117126279994" lon="12.584046990707936"><ele>153.0</ele><time>2026-04-19T09:45:02.886Z</time></trkpt><trkpt lat="42.50115484164794" lon="12.584239037136877"><ele>153.0</ele><time>2026-04-19T09:45:03.886Z</time></trkpt><trkpt lat="42.5011308327972" lon="12.584430993446901"><ele>153.0</ele><time>2026-04-19T09:45:04.886Z</time></trkpt><trkpt lat="42.50109472802788" lon="12.584630172604385"><ele>153.0</ele><time>2026-04-19T09:45:05.886Z</time></trkpt><trkpt lat="42.50104661398748" lon="12.584838035403505"><ele>152.33333333333334</ele><time>2026-04-19T09:45:06.886Z</time></trkpt><trkpt lat="42.501009358523895" lon="12.585061671139462"><ele>151.66666666666669</ele><time>2026-04-19T09:45:07.886Z</time></trkpt><trkpt lat="42.500972191955924" lon="12.585293427505299"><ele>151.0</ele><time>2026-04-19T09:45:08.886Z</time></trkpt><trkpt lat="42.500930844651364" lon="12.58552553573965"><ele>150.0</ele><time>2026-04-19T09:45:09.886Z</time></trkpt><trkpt lat="42.500885705851324" lon="12.585759709825417"><ele>149.0</ele><time>2026-04-19T09:45:10.885Z</time></trkpt><trkpt lat="42.50083192919587" lon="12.585993918399565"><ele>148.0</ele><time>2026-04-19T09:45:11.885Z</time></trkpt><trkpt lat="42.50076694923612" lon="12.586226736738084"><ele>147.33333333333334</ele><time>2026-04-19T09:45:12.885Z</time></trkpt><trkpt lat="42.50068647304929" lon="12.586453688821129"><ele>146.66666666666666</ele><time>2026-04-19T09:45:13.885Z</time></trkpt><trkpt lat="42.50059355914051" lon="12.586670938568362"><ele>146.0</ele><time>2026-04-19T09:45:14.885Z</time></trkpt><trkpt lat="42.50049211154573" lon="12.586875384937027"><ele>148.0</ele><time>2026-04-19T09:45:15.885Z</time></trkpt><trkpt lat="42.50039153228835" lon="12.587075871391193"><ele>150.0</ele><time>2026-04-19T09:45:16.885Z</time></trkpt><trkpt lat="42.50029613064627" lon="12.587291844124485"><ele>152.0</ele><time>2026-04-19T09:45:17.885Z</time></trkpt><trkpt lat="42.50021823358488" lon="12.587520298896063"><ele>152.0</ele><time>2026-04-19T09:45:18.885Z</time></trkpt><trkpt lat="42.50015754455192" lon="12.58775548573249"><ele>152.0</ele><time>2026-04-19T09:45:19.885Z</time></trkpt><trkpt lat="42.50011172739609" lon="12.588004599684538"><ele>152.0</ele><time>2026-04-19T09:45:20.885Z</time></trkpt><trkpt lat="42.500075158693456" lon="12.588259526855655"><ele>151.66666666666666</ele><time>2026-04-19T09:45:21.885Z</time></trkpt><trkpt lat="42.50003993796474" lon="12.58852322189413"><ele>151.33333333333334</ele><time>2026-04-19T09:45:22.885Z</time></trkpt><trkpt lat="42.50000680775193" lon="12.58878925487636"><ele>151.0</ele><time>2026-04-19T09:45:23.885Z</time></trkpt><trkpt lat="42.49996837601021" lon="12.589052343966474"><ele>150.66666666666669</ele><time>2026-04-19T09:45:24.885Z</time></trkpt><trkpt lat="42.499936754215504" lon="12.589322757052123"><ele>150.33333333333334</ele><time>2026-04-19T09:45:25.885Z</time></trkpt><trkpt lat="42.49990018210792" lon="12.589591697142998"><ele>150.0</ele><time>2026-04-19T09:45:26.885Z</time></trkpt><trkpt lat="42.4998611157531" lon="12.589861935186358"><ele>148.66666666666666</ele><time>2026-04-19T09:45:27.885Z</time></trkpt><trkpt lat="42.49981507709394" lon="12.590137771474259"><ele>147.33333333333331</ele><time>2026-04-19T09:45:28.885Z</time></trkpt><trkpt lat="42.499763217603714" lon="12.590404320786117"><ele>146.0</ele><time>2026-04-19T09:45:29.885Z</time></trkpt><trkpt lat="42.49969695793823" lon="12.590669816944878"><ele>146.0</ele><time>2026-04-19T09:45:30.885Z</time></trkpt><trkpt lat="42.499619335510936" lon="12.590931486721221"><ele>146.0</ele><time>2026-04-19T09:45:31.885Z</time></trkpt><trkpt lat="42.49954266819536" lon="12.591192652850506"><ele>146.0</ele><time>2026-04-19T09:45:32.885Z</time></trkpt><trkpt lat="42.49947364347396" lon="12.59145513625503"><ele>147.0</ele><time>2026-04-19T09:45:33.884Z</time></trkpt><trkpt lat="42.49941620893383" lon="12.59170681144934"><ele>148.0</ele><time>2026-04-19T09:45:34.884Z</time></trkpt><trkpt lat="42.499376724052944" lon="12.591967813009338"><ele>149.0</ele><time>2026-04-19T09:45:35.884Z</time></trkpt><trkpt lat="42.49936583454217" lon="12.592227937921306"><ele>149.0</ele><time>2026-04-19T09:45:36.884Z</time></trkpt><trkpt lat="42.49937899102321" lon="12.592487156375604"><ele>149.0</ele><time>2026-04-19T09:45:37.884Z</time></trkpt><trkpt lat="42.49941263279481" lon="12.592747305443876"><ele>149.0</ele><time>2026-04-19T09:45:38.884Z</time></trkpt><trkpt lat="42.499444493554634" lon="12.593002201483655"><ele>150.0</ele><time>2026-04-19T09:45:39.884Z</time></trkpt><trkpt lat="42.49946119535432" lon="12.593241996708896"><ele>151.0</ele><time>2026-04-19T09:45:40.884Z</time></trkpt><trkpt lat="42.49945651547432" lon="12.593454074084553"><ele>152.0</ele><time>2026-04-19T09:45:41.884Z</time></trkpt><trkpt lat="42.49942566425663" lon="12.59364606765478"><ele>151.66666666666666</ele><time>2026-04-19T09:45:42.884Z</time></trkpt><trkpt lat="42.49936447207131" lon="12.59384269718916"><ele>151.33333333333334</ele><time>2026-04-19T09:45:43.884Z</time></trkpt><trkpt lat="42.499293805506156" lon="12.594046739162838"><ele>151.0</ele><time>2026-04-19T09:45:44.884Z</time></trkpt><trkpt lat="42.4992223416667" lon="12.594264041582335"><ele>151.0</ele><time>2026-04-19T09:45:45.884Z</time></trkpt><trkpt lat="42.4991536418581" lon="12.594499890587091"><ele>151.0</ele><time>2026-04-19T09:45:46.884Z</time></trkpt><trkpt lat="42.49908848261916" lon="12.594743428047064"><ele>151.0</ele><time>2026-04-19T09:45:47.884Z</time></trkpt><trkpt lat="42.4990289775027" lon="12.594993822402067"><ele>151.0</ele><time>2026-04-19T09:45:48.884Z</time></trkpt><trkpt lat="42.49896786545836" lon="12.595245836181274"><ele>151.0</ele><time>2026-04-19T09:45:49.884Z</time></trkpt><trkpt lat="42.49891075838008" lon="12.595496640747196"><ele>151.0</ele><time>2026-04-19T09:45:50.884Z</time></trkpt><trkpt lat="42.49885867555589" lon="12.59574944774156"><ele>151.0</ele><time>2026-04-19T09:45:51.884Z</time></trkpt><trkpt lat="42.49881534931526" lon="12.596000304791737"><ele>151.0</ele><time>2026-04-19T09:45:52.884Z</time></trkpt><trkpt lat="42.49878208656668" lon="12.596250999947976"><ele>151.0</ele><time>2026-04-19T09:45:53.884Z</time></trkpt><trkpt lat="42.498755000794084" lon="12.59650264229955"><ele>153.0</ele><time>2026-04-19T09:45:54.884Z</time></trkpt><trkpt lat="42.498733462925934" lon="12.596754607389"><ele>155.0</ele><time>2026-04-19T09:45:55.884Z</time></trkpt><trkpt lat="42.49871263374868" lon="12.597010908997893"><ele>157.0</ele><time>2026-04-19T09:45:56.883Z</time></trkpt><trkpt lat="42.49869428742716" lon="12.597267534545145"><ele>157.33333333333334</ele><time>2026-04-19T09:45:57.883Z</time></trkpt><trkpt lat="42.4986773995195" lon="12.597521611279255"><ele>157.66666666666666</ele><time>2026-04-19T09:45:58.883Z</time></trkpt><trkpt lat="42.498658855848454" lon="12.597773954662172"><ele>158.0</ele><time>2026-04-19T09:45:59.883Z</time></trkpt><trkpt lat="42.49863972352315" lon="12.598027078836344"><ele>158.0</ele><time>2026-04-19T09:46:00.883Z</time></trkpt><trkpt lat="42.49861904368348" lon="12.598276812317856"><ele>158.0</ele><time>2026-04-19T09:46:01.883Z</time></trkpt><trkpt lat="42.49860412287414" lon="12.598532841021909"><ele>158.0</ele><time>2026-04-19T09:46:02.883Z</time></trkpt><trkpt lat="42.498585328965554" lon="12.59878650764721"><ele>159.0</ele><time>2026-04-19T09:46:03.883Z</time></trkpt><trkpt lat="42.49857153368226" lon="12.599041944084048"><ele>160.0</ele><time>2026-04-19T09:46:04.883Z</time></trkpt><trkpt lat="42.498565102994384" lon="12.599295900413157"><ele>161.0</ele><time>2026-04-19T09:46:05.883Z</time></trkpt><trkpt lat="42.498566465232976" lon="12.59955350012624"><ele>161.33333333333331</ele><time>2026-04-19T09:46:06.883Z</time></trkpt><trkpt lat="42.4985773814015" lon="12.599809718497395"><ele>161.66666666666666</ele><time>2026-04-19T09:46:07.883Z</time></trkpt><trkpt lat="42.498592277358654" lon="12.600064033060267"><ele>162.0</ele><time>2026-04-19T09:46:08.883Z</time></trkpt><trkpt lat="42.49861171721649" lon="12.600316282940183"><ele>162.0</ele><time>2026-04-19T09:46:09.883Z</time></trkpt><trkpt lat="42.49863556296755" lon="12.600567069175593"><ele>162.0</ele><time>2026-04-19T09:46:10.883Z</time></trkpt><trkpt lat="42.498654997695624" lon="12.600822465115387"><ele>162.0</ele><time>2026-04-19T09:46:11.883Z</time></trkpt><trkpt lat="42.49867398089619" lon="12.601076094973136"><ele>162.33333333333334</ele><time>2026-04-19T09:46:12.883Z</time></trkpt><trkpt lat="42.498695454487006" lon="12.601329754888802"><ele>162.66666666666669</ele><time>2026-04-19T09:46:13.883Z</time></trkpt><trkpt lat="42.49871623581246" lon="12.601585932893254"><ele>163.0</ele><time>2026-04-19T09:46:14.883Z</time></trkpt><trkpt lat="42.49873743742696" lon="12.601837778090156"><ele>159.66666666666669</ele><time>2026-04-19T09:46:15.883Z</time></trkpt><trkpt lat="42.49875295810339" lon="12.602083961968498"><ele>156.33333333333334</ele><time>2026-04-19T09:46:16.883Z</time></trkpt><trkpt lat="42.498765581304056" lon="12.602331367795115"><ele>153.0</ele><time>2026-04-19T09:46:17.883Z</time></trkpt><trkpt lat="42.4987756574673" lon="12.602577031074526"><ele>153.0</ele><time>2026-04-19T09:46:18.883Z</time></trkpt><trkpt lat="42.49878434549003" lon="12.60282027843722"><ele>153.0</ele><time>2026-04-19T09:46:19.882Z</time></trkpt><trkpt lat="42.4987875197553" lon="12.603056529700064"><ele>153.0</ele><time>2026-04-19T09:46:20.882Z</time></trkpt><trkpt lat="42.49879298921439" lon="12.603285012860995"><ele>154.0</ele><time>2026-04-19T09:46:21.882Z</time></trkpt><trkpt lat="42.498789091831675" lon="12.603504117575762"><ele>155.0</ele><time>2026-04-19T09:46:22.882Z</time></trkpt><trkpt lat="42.49878030892015" lon="12.603712704293635"><ele>156.0</ele><time>2026-04-19T09:46:23.882Z</time></trkpt><trkpt lat="42.49876648319094" lon="12.603924063189726"><ele>158.25</ele><time>2026-04-19T09:46:24.882Z</time></trkpt><trkpt lat="42.49871310642343" lon="12.60409470806917"><ele>160.5</ele><time>2026-04-19T09:46:25.882Z</time></trkpt><trkpt lat="42.49864860106093" lon="12.60426755811963"><ele>162.75</ele><time>2026-04-19T09:46:26.882Z</time></trkpt><trkpt lat="42.49856979073763" lon="12.604428114542634"><ele>165.0</ele><time>2026-04-19T09:46:27.882Z</time></trkpt><trkpt lat="42.49849028212815" lon="12.604586828859738"><ele>165.0</ele><time>2026-04-19T09:46:28.882Z</time></trkpt><trkpt lat="42.4984062177673" lon="12.604752278887334"><ele>165.0</ele><time>2026-04-19T09:46:29.882Z</time></trkpt><trkpt lat="42.49832043381529" lon="12.604921113306181"><ele>165.0</ele><time>2026-04-19T09:46:30.882Z</time></trkpt><trkpt lat="42.49823528673812" lon="12.605085805800782"><ele>165.0</ele><time>2026-04-19T09:46:31.882Z</time></trkpt><trkpt lat="42.49814588801218" lon="12.605257274617887"><ele>162.66666666666666</ele><time>2026-04-19T09:46:32.882Z</time></trkpt><trkpt lat="42.49805197250772" lon="12.605413286834581"><ele>160.33333333333331</ele><time>2026-04-19T09:46:33.882Z</time></trkpt><trkpt lat="42.497949174892554" lon="12.605560534131191"><ele>158.0</ele><time>2026-04-19T09:46:34.882Z</time></trkpt><trkpt lat="42.49781228974829" lon="12.605674579643798"><ele>163.66666666666666</ele><time>2026-04-19T09:46:35.882Z</time></trkpt><trkpt lat="42.49767637771403" lon="12.605792393205231"><ele>169.33333333333334</ele><time>2026-04-19T09:46:36.882Z</time></trkpt><trkpt lat="42.49755204753066" lon="12.605938536642153"><ele>175.0</ele><time>2026-04-19T09:46:37.882Z</time></trkpt><trkpt lat="42.497452119865045" lon="12.60613254840928"><ele>170.66666666666669</ele><time>2026-04-19T09:46:38.882Z</time></trkpt><trkpt lat="42.49737186124339" lon="12.606326788329138"><ele>166.33333333333334</ele><time>2026-04-19T09:46:39.882Z</time></trkpt><trkpt lat="42.497296147772644" lon="12.606531940735778"><ele>162.0</ele><time>2026-04-19T09:46:40.882Z</time></trkpt><trkpt lat="42.497208110676645" lon="12.606732192382761"><ele>162.0</ele><time>2026-04-19T09:46:41.882Z</time></trkpt><trkpt lat="42.49711932883348" lon="12.60692315546263"><ele>162.0</ele><time>2026-04-19T09:46:42.881Z</time></trkpt><trkpt lat="42.49702405636935" lon="12.60709417355987"><ele>162.0</ele><time>2026-04-19T09:46:43.881Z</time></trkpt><trkpt lat="42.496931909723486" lon="12.607263982938052"><ele>163.0</ele><time>2026-04-19T09:46:44.881Z</time></trkpt><trkpt lat="42.49683605216017" lon="12.607425366966984"><ele>164.0</ele><time>2026-04-19T09:46:45.881Z</time></trkpt><trkpt lat="42.49673985515432" lon="12.607577078538851"><ele>165.0</ele><time>2026-04-19T09:46:46.881Z</time></trkpt><trkpt lat="42.496647006126715" lon="12.607725859909786"><ele>166.0</ele><time>2026-04-19T09:46:47.881Z</time></trkpt><trkpt lat="42.49654550382599" lon="12.607865754368975"><ele>166.0</ele><time>2026-04-19T09:46:48.881Z</time></trkpt><trkpt lat="42.49644726789489" lon="12.608013803896176"><ele>166.0</ele><time>2026-04-19T09:46:49.881Z</time></trkpt><trkpt lat="42.49635549615705" lon="12.608179374357418"><ele>166.0</ele><time>2026-04-19T09:46:50.883Z</time></trkpt><trkpt lat="42.496271830814266" lon="12.60835490381862"><ele>166.33333333333334</ele><time>2026-04-19T09:46:51.883Z</time></trkpt><trkpt lat="42.49617939844604" lon="12.608535986991203"><ele>166.66666666666666</ele><time>2026-04-19T09:46:52.883Z</time></trkpt><trkpt lat="42.496091527204776" lon="12.608734692104614"><ele>167.0</ele><time>2026-04-19T09:46:53.883Z</time></trkpt><trkpt lat="42.496000411026465" lon="12.608931904542366"><ele>167.0</ele><time>2026-04-19T09:46:54.882Z</time></trkpt><trkpt lat="42.4959074672936" lon="12.609123880699427"><ele>167.0</ele><time>2026-04-19T09:46:55.882Z</time></trkpt><trkpt lat="42.49579914948333" lon="12.60930634158275"><ele>167.0</ele><time>2026-04-19T09:46:56.882Z</time></trkpt><trkpt lat="42.49567806679751" lon="12.609487921044662"><ele>166.66666666666666</ele><time>2026-04-19T09:46:57.883Z</time></trkpt><trkpt lat="42.49553910400301" lon="12.609651939587621"><ele>166.33333333333334</ele><time>2026-04-19T09:46:58.883Z</time></trkpt><trkpt lat="42.49539936420559" lon="12.609812783798294"><ele>166.0</ele><time>2026-04-19T09:46:59.882Z</time></trkpt><trkpt lat="42.495252685148586" lon="12.609972997706732"><ele>166.0</ele><time>2026-04-19T09:47:00.883Z</time></trkpt><trkpt lat="42.49510670110371" lon="12.610129427843383"><ele>166.0</ele><time>2026-04-19T09:47:01.882Z</time></trkpt><trkpt lat="42.49495544583299" lon="12.610279951961411"><ele>166.0</ele><time>2026-04-19T09:47:02.883Z</time></trkpt><trkpt lat="42.4947966155775" lon="12.610414826751331"><ele>164.33333333333334</ele><time>2026-04-19T09:47:03.882Z</time></trkpt><trkpt lat="42.49463797033405" lon="12.610540481156523"><ele>162.66666666666666</ele><time>2026-04-19T09:47:04.882Z</time></trkpt><trkpt lat="42.494482094154144" lon="12.610662431499907"><ele>161.0</ele><time>2026-04-19T09:47:05.882Z</time></trkpt><trkpt lat="42.494324497748146" lon="12.610763864419706"><ele>164.66666666666666</ele><time>2026-04-19T09:47:06.882Z</time></trkpt><trkpt lat="42.494165631917724" lon="12.61085359912588"><ele>168.33333333333334</ele><time>2026-04-19T09:47:07.882Z</time></trkpt><trkpt lat="42.49400803888498" lon="12.610933728772444"><ele>172.0</ele><time>2026-04-19T09:47:08.882Z</time></trkpt><trkpt lat="42.49384524444389" lon="12.61102775897062"><ele>172.33333333333334</ele><time>2026-04-19T09:47:09.882Z</time></trkpt><trkpt lat="42.49368741174771" lon="12.611139468501499"><ele>172.66666666666666</ele><time>2026-04-19T09:47:10.882Z</time></trkpt><trkpt lat="42.49352830544697" lon="12.611254866118347"><ele>173.0</ele><time>2026-04-19T09:47:11.882Z</time></trkpt><trkpt lat="42.493368092039276" lon="12.611373616854364"><ele>173.0</ele><time>2026-04-19T09:47:12.882Z</time></trkpt><trkpt lat="42.49321119430519" lon="12.61149894115351"><ele>173.0</ele><time>2026-04-19T09:47:13.882Z</time></trkpt><trkpt lat="42.49305138277724" lon="12.61162103513021"><ele>173.0</ele><time>2026-04-19T09:47:14.882Z</time></trkpt><trkpt lat="42.49288962754674" lon="12.611737091155549"><ele>172.0</ele><time>2026-04-19T09:47:15.882Z</time></trkpt><trkpt lat="42.49272641463963" lon="12.611856284941547"><ele>171.0</ele><time>2026-04-19T09:47:16.882Z</time></trkpt><trkpt lat="42.49256401322536" lon="12.61197845851322"><ele>170.0</ele><time>2026-04-19T09:47:17.882Z</time></trkpt><trkpt lat="42.4924042640195" lon="12.612100589274707"><ele>170.0</ele><time>2026-04-19T09:47:18.882Z</time></trkpt><trkpt lat="42.49224789405964" lon="12.612210818414207"><ele>170.0</ele><time>2026-04-19T09:47:19.882Z</time></trkpt><trkpt lat="42.4921013067549" lon="12.6123220137746"><ele>170.0</ele><time>2026-04-19T09:47:20.882Z</time></trkpt><trkpt lat="42.49196878900083" lon="12.612429261049193"><ele>170.0</ele><time>2026-04-19T09:47:21.882Z</time></trkpt><trkpt lat="42.49185529097518" lon="12.612523867976748"><ele>170.0</ele><time>2026-04-19T09:47:22.882Z</time></trkpt><trkpt lat="42.49175595775992" lon="12.612618450215578"><ele>170.0</ele><time>2026-04-19T09:47:23.882Z</time></trkpt><trkpt lat="42.49166234910032" lon="12.612726826182199"><ele>170.0</ele><time>2026-04-19T09:47:24.882Z</time></trkpt><trkpt lat="42.49158161906324" lon="12.612845281623766"><ele>170.0</ele><time>2026-04-19T09:47:25.881Z</time></trkpt><trkpt lat="42.4915127176231" lon="12.61296340413123"><ele>170.0</ele><time>2026-04-19T09:47:26.881Z</time></trkpt><trkpt lat="42.49146593901308" lon="12.613066379858205"><ele>170.0</ele><time>2026-04-19T09:47:27.881Z</time></trkpt><trkpt lat="42.49143185819117" lon="12.613139346135766"><ele>170.0</ele><time>2026-04-19T09:47:28.881Z</time></trkpt><trkpt lat="42.49139158302645" lon="12.613223852004618"><ele>170.0</ele><time>2026-04-19T09:47:30.881Z</time></trkpt><trkpt lat="42.49135262115497" lon="12.613341572425906"><ele>170.0</ele><time>2026-04-19T09:47:35.881Z</time></trkpt><trkpt lat="42.4913297054124" lon="12.613436856312692"><ele>170.0</ele><time>2026-04-19T09:47:37.881Z</time></trkpt><trkpt lat="42.4913160215235" lon="12.61353521919653"><ele>170.0</ele><time>2026-04-19T09:47:40.881Z</time></trkpt><trkpt lat="42.491425127053624" lon="12.613652022460284"><ele>170.0</ele><time>2026-04-19T09:47:42.881Z</time></trkpt><trkpt lat="42.4914961380663" lon="12.613700383975322"><ele>170.0</ele><time>2026-04-19T09:47:43.881Z</time></trkpt><trkpt lat="42.491567563008985" lon="12.613769889647164"><ele>170.0</ele><time>2026-04-19T09:47:44.881Z</time></trkpt><trkpt lat="42.491644685481965" lon="12.613840338703909"><ele>169.6</ele><time>2026-04-19T09:47:45.881Z</time></trkpt><trkpt lat="42.491728793233904" lon="12.613909439419206"><ele>169.2</ele><time>2026-04-19T09:47:46.881Z</time></trkpt><trkpt lat="42.49181473656321" lon="12.613985335576237"><ele>168.8</ele><time>2026-04-19T09:47:47.881Z</time></trkpt><trkpt lat="42.49189547774655" lon="12.61405661721932"><ele>168.4</ele><time>2026-04-19T09:47:48.88Z</time></trkpt><trkpt lat="42.49197290726015" lon="12.614131394556894"><ele>168.0</ele><time>2026-04-19T09:47:49.88Z</time></trkpt><trkpt lat="42.49204206907623" lon="12.614205889087678"><ele>168.0</ele><time>2026-04-19T09:47:50.88Z</time></trkpt><trkpt lat="42.49208945764783" lon="12.614315527457212"><ele>168.0</ele><time>2026-04-19T09:47:51.88Z</time></trkpt><trkpt lat="42.49216188979917" lon="12.614373633670644"><ele>168.0</ele><time>2026-04-19T09:47:52.88Z</time></trkpt><trkpt lat="42.492198539023875" lon="12.614552815332193"><ele>168.0</ele><time>2026-04-19T09:47:53.88Z</time></trkpt><trkpt lat="42.492230922854255" lon="12.614688662437056"><ele>168.0</ele><time>2026-04-19T09:47:54.88Z</time></trkpt><trkpt lat="42.492292219588165" lon="12.614820246122298"><ele>167.75</ele><time>2026-04-19T09:47:55.88Z</time></trkpt><trkpt lat="42.49236166676927" lon="12.614972903531397"><ele>167.5</ele><time>2026-04-19T09:47:56.88Z</time></trkpt><trkpt lat="42.4924361286924" lon="12.615142766564716"><ele>167.25</ele><time>2026-04-19T09:47:57.88Z</time></trkpt><trkpt lat="42.49250989794048" lon="12.615309828908503"><ele>167.0</ele><time>2026-04-19T09:47:58.88Z</time></trkpt><trkpt lat="42.492578229524675" lon="12.615477655925776"><ele>168.25</ele><time>2026-04-19T09:47:59.88Z</time></trkpt><trkpt lat="42.49264298375728" lon="12.615640425222459"><ele>169.5</ele><time>2026-04-19T09:48:00.88Z</time></trkpt><trkpt lat="42.49270029753486" lon="12.615793916650736"><ele>170.75</ele><time>2026-04-19T09:48:01.88Z</time></trkpt><trkpt lat="42.49274953915355" lon="12.615936168745261"><ele>172.0</ele><time>2026-04-19T09:48:02.88Z</time></trkpt><trkpt lat="42.49278894616039" lon="12.616077058083054"><ele>174.0</ele><time>2026-04-19T09:48:03.88Z</time></trkpt><trkpt lat="42.49279406535692" lon="12.616215118564146"><ele>176.0</ele><time>2026-04-19T09:48:04.88Z</time></trkpt><trkpt lat="42.49276356926125" lon="12.616342347709628"><ele>178.0</ele><time>2026-04-19T09:48:05.88Z</time></trkpt><trkpt lat="42.49271077250626" lon="12.616470711337556"><ele>180.0</ele><time>2026-04-19T09:48:06.88Z</time></trkpt><trkpt lat="42.49263662641608" lon="12.616604304025651"><ele>182.0</ele><time>2026-04-19T09:48:07.88Z</time></trkpt><trkpt lat="42.492549314198826" lon="12.616747288197153"><ele>182.0</ele><time>2026-04-19T09:48:08.88Z</time></trkpt><trkpt lat="42.492451545763046" lon="12.61688862654028"><ele>182.0</ele><time>2026-04-19T09:48:09.88Z</time></trkpt><trkpt lat="42.49235257967179" lon="12.61703573242102"><ele>182.0</ele><time>2026-04-19T09:48:10.879Z</time></trkpt><trkpt lat="42.492250890182454" lon="12.617197102827797"><ele>182.0</ele><time>2026-04-19T09:48:11.879Z</time></trkpt><trkpt lat="42.49214307554325" lon="12.617378063309342"><ele>182.66666666666666</ele><time>2026-04-19T09:48:12.879Z</time></trkpt><trkpt lat="42.49203397464496" lon="12.617573116478619"><ele>183.33333333333334</ele><time>2026-04-19T09:48:13.879Z</time></trkpt><trkpt lat="42.49192196194077" lon="12.61777827397966"><ele>184.0</ele><time>2026-04-19T09:48:14.879Z</time></trkpt><trkpt lat="42.491819727195114" lon="12.617982302743023"><ele>188.0</ele><time>2026-04-19T09:48:15.879Z</time></trkpt><trkpt lat="42.49172883513" lon="12.618167424500344"><ele>192.0</ele><time>2026-04-19T09:48:16.879Z</time></trkpt><trkpt lat="42.49164191822025" lon="12.618338136286509"><ele>196.0</ele><time>2026-04-19T09:48:17.879Z</time></trkpt><trkpt lat="42.491562921001034" lon="12.618502941013572"><ele>199.0</ele><time>2026-04-19T09:48:18.879Z</time></trkpt><trkpt lat="42.49149235079919" lon="12.618681000840327"><ele>202.0</ele><time>2026-04-19T09:48:19.879Z</time></trkpt><trkpt lat="42.491433854345516" lon="12.618870219326642"><ele>205.0</ele><time>2026-04-19T09:48:20.879Z</time></trkpt><trkpt lat="42.49138232087748" lon="12.619067912800567"><ele>205.0</ele><time>2026-04-19T09:48:21.879Z</time></trkpt><trkpt lat="42.4913450105448" lon="12.619278341442946"><ele>205.0</ele><time>2026-04-19T09:48:22.879Z</time></trkpt><trkpt lat="42.49131795373459" lon="12.619498397028831"><ele>205.0</ele><time>2026-04-19T09:48:23.879Z</time></trkpt><trkpt lat="42.491296762419154" lon="12.61972803076472"><ele>204.66666666666666</ele><time>2026-04-19T09:48:24.879Z</time></trkpt><trkpt lat="42.491278462910145" lon="12.619956058969931"><ele>204.33333333333331</ele><time>2026-04-19T09:48:25.879Z</time></trkpt><trkpt lat="42.49126738531447" lon="12.6201853952504"><ele>204.0</ele><time>2026-04-19T09:48:26.879Z</time></trkpt><trkpt lat="42.49125420951943" lon="12.620418128932304"><ele>206.0</ele><time>2026-04-19T09:48:27.879Z</time></trkpt><trkpt lat="42.491244542939505" lon="12.620665307675468"><ele>208.0</ele><time>2026-04-19T09:48:28.879Z</time></trkpt><trkpt lat="42.49121938942166" lon="12.62089502106028"><ele>210.0</ele><time>2026-04-19T09:48:29.879Z</time></trkpt><trkpt lat="42.49119291427949" lon="12.621116203040764"><ele>213.33333333333331</ele><time>2026-04-19T09:48:30.879Z</time></trkpt><trkpt lat="42.491158985001384" lon="12.621325593151981"><ele>216.66666666666666</ele><time>2026-04-19T09:48:31.879Z</time></trkpt><trkpt lat="42.491115352393756" lon="12.621517441741714"><ele>220.0</ele><time>2026-04-19T09:48:32.879Z</time></trkpt><trkpt lat="42.49106044221476" lon="12.621700344841033"><ele>220.0</ele><time>2026-04-19T09:48:33.878Z</time></trkpt><trkpt lat="42.49099125171947" lon="12.621879065467963"><ele>220.0</ele><time>2026-04-19T09:48:34.878Z</time></trkpt><trkpt lat="42.49091538906801" lon="12.622055253054798"><ele>220.0</ele><time>2026-04-19T09:48:35.878Z</time></trkpt><trkpt lat="42.49083427858167" lon="12.622227021868929"><ele>223.33333333333331</ele><time>2026-04-19T09:48:36.878Z</time></trkpt><trkpt lat="42.49074975527227" lon="12.622414040068913"><ele>226.66666666666669</ele><time>2026-04-19T09:48:37.878Z</time></trkpt><trkpt lat="42.490662705215904" lon="12.622599276347717"><ele>230.0</ele><time>2026-04-19T09:48:38.878Z</time></trkpt><trkpt lat="42.49058568500204" lon="12.62277461731939"><ele>228.25</ele><time>2026-04-19T09:48:39.878Z</time></trkpt><trkpt lat="42.49051706502259" lon="12.622939835231264"><ele>226.5</ele><time>2026-04-19T09:48:40.878Z</time></trkpt><trkpt lat="42.490442712440114" lon="12.623088740230571"><ele>224.75</ele><time>2026-04-19T09:48:41.878Z</time></trkpt><trkpt lat="42.49035694708893" lon="12.623224443175868"><ele>223.0</ele><time>2026-04-19T09:48:42.878Z</time></trkpt><trkpt lat="42.49027173045723" lon="12.623355246966328"><ele>224.25</ele><time>2026-04-19T09:48:43.878Z</time></trkpt><trkpt lat="42.490183067846395" lon="12.623471275445171"><ele>225.5</ele><time>2026-04-19T09:48:44.878Z</time></trkpt><trkpt lat="42.49008546944823" lon="12.623567548603122"><ele>226.75</ele><time>2026-04-19T09:48:45.878Z</time></trkpt><trkpt lat="42.489976340253385" lon="12.62362617279117"><ele>228.0</ele><time>2026-04-19T09:48:46.878Z</time></trkpt><trkpt lat="42.48985151332333" lon="12.623670772640045"><ele>228.0</ele><time>2026-04-19T09:48:47.878Z</time></trkpt><trkpt lat="42.48972239025187" lon="12.623733614461814"><ele>228.0</ele><time>2026-04-19T09:48:48.878Z</time></trkpt><trkpt lat="42.489598801859394" lon="12.623761304259771"><ele>228.0</ele><time>2026-04-19T09:48:49.878Z</time></trkpt><trkpt lat="42.48949052450276" lon="12.623794384716412"><ele>228.0</ele><time>2026-04-19T09:48:50.878Z</time></trkpt><trkpt lat="42.489388506955045" lon="12.623829826266196"><ele>231.60000000000002</ele><time>2026-04-19T09:48:51.878Z</time></trkpt><trkpt lat="42.48928017925957" lon="12.623872697669263"><ele>235.20000000000002</ele><time>2026-04-19T09:48:52.878Z</time></trkpt><trkpt lat="42.48917510005389" lon="12.623913953532915"><ele>238.8</ele><time>2026-04-19T09:48:53.878Z</time></trkpt><trkpt lat="42.48907303360108" lon="12.62395409765184"><ele>242.4</ele><time>2026-04-19T09:48:54.878Z</time></trkpt><trkpt lat="42.48897534566949" lon="12.62396294373068"><ele>246.0</ele><time>2026-04-19T09:48:55.878Z</time></trkpt><trkpt lat="42.48887809166647" lon="12.623924411805374"><ele>246.0</ele><time>2026-04-19T09:48:56.88Z</time></trkpt><trkpt lat="42.488794673376695" lon="12.623829248514724"><ele>246.0</ele><time>2026-04-19T09:48:57.88Z</time></trkpt><trkpt lat="42.48870309811978" lon="12.62372980866228"><ele>246.0</ele><time>2026-04-19T09:48:58.88Z</time></trkpt><trkpt lat="42.48860832894539" lon="12.623630550409837"><ele>246.0</ele><time>2026-04-19T09:48:59.88Z</time></trkpt><trkpt lat="42.488495132337626" lon="12.623551988967671"><ele>248.75</ele><time>2026-04-19T09:49:00.88Z</time></trkpt><trkpt lat="42.48838460224928" lon="12.623454657432202"><ele>251.5</ele><time>2026-04-19T09:49:01.88Z</time></trkpt><trkpt lat="42.48826782195265" lon="12.62334862284575"><ele>254.25</ele><time>2026-04-19T09:49:02.879Z</time></trkpt><trkpt lat="42.48815482200433" lon="12.6232355788682"><ele>257.0</ele><time>2026-04-19T09:49:03.88Z</time></trkpt><trkpt lat="42.488049702575005" lon="12.623123421057155"><ele>257.0</ele><time>2026-04-19T09:49:04.88Z</time></trkpt><trkpt lat="42.48795311345549" lon="12.622994837975552"><ele>257.0</ele><time>2026-04-19T09:49:05.88Z</time></trkpt><trkpt lat="42.48788166584737" lon="12.622872777623215"><ele>257.0</ele><time>2026-04-19T09:49:06.88Z</time></trkpt><trkpt lat="42.48781232027889" lon="12.622755136779787"><ele>257.0</ele><time>2026-04-19T09:49:07.88Z</time></trkpt><trkpt lat="42.487748350178656" lon="12.622655367091863"><ele>257.8</ele><time>2026-04-19T09:49:08.88Z</time></trkpt><trkpt lat="42.48768092419705" lon="12.622571075932001"><ele>258.6</ele><time>2026-04-19T09:49:09.88Z</time></trkpt><trkpt lat="42.487598333882474" lon="12.622505668298059"><ele>259.40000000000003</ele><time>2026-04-19T09:49:10.88Z</time></trkpt><trkpt lat="42.48750694146388" lon="12.622451106989569"><ele>260.2</ele><time>2026-04-19T09:49:11.88Z</time></trkpt><trkpt lat="42.48739985592753" lon="12.622422766002607"><ele>261.0</ele><time>2026-04-19T09:49:12.88Z</time></trkpt><trkpt lat="42.48729413999776" lon="12.622427619052436"><ele>261.0</ele><time>2026-04-19T09:49:13.88Z</time></trkpt><trkpt lat="42.48718178776321" lon="12.622456091789214"><ele>261.0</ele><time>2026-04-19T09:49:14.88Z</time></trkpt><trkpt lat="42.48708052129306" lon="12.622506449115418"><ele>261.0</ele><time>2026-04-19T09:49:15.88Z</time></trkpt><trkpt lat="42.486982892243155" lon="12.622571479347771"><ele>261.0</ele><time>2026-04-19T09:49:16.88Z</time></trkpt><trkpt lat="42.48688654424028" lon="12.622631918274074"><ele>261.0</ele><time>2026-04-19T09:49:17.88Z</time></trkpt><trkpt lat="42.48678498797353" lon="12.6226954714195"><ele>260.8</ele><time>2026-04-19T09:49:18.88Z</time></trkpt><trkpt lat="42.4866839517012" lon="12.62276789860882"><ele>260.6</ele><time>2026-04-19T09:49:19.88Z</time></trkpt><trkpt lat="42.48659370040891" lon="12.622832248566832"><ele>260.4</ele><time>2026-04-19T09:49:20.879Z</time></trkpt><trkpt lat="42.4865078208035" lon="12.622896393871008"><ele>260.2</ele><time>2026-04-19T09:49:21.879Z</time></trkpt><trkpt lat="42.48642161618151" lon="12.622958303346453"><ele>260.0</ele><time>2026-04-19T09:49:22.879Z</time></trkpt><trkpt lat="42.48633408394089" lon="12.623014850638246"><ele>261.6</ele><time>2026-04-19T09:49:23.879Z</time></trkpt><trkpt lat="42.486240082758904" lon="12.623077234065374"><ele>263.2</ele><time>2026-04-19T09:49:24.879Z</time></trkpt><trkpt lat="42.48614150370015" lon="12.623142574785097"><ele>264.8</ele><time>2026-04-19T09:49:25.879Z</time></trkpt><trkpt lat="42.48604056591211" lon="12.623202861706616"><ele>266.4</ele><time>2026-04-19T09:49:26.879Z</time></trkpt><trkpt lat="42.48593409527252" lon="12.623253441982806"><ele>268.0</ele><time>2026-04-19T09:49:27.879Z</time></trkpt><trkpt lat="42.485830890679544" lon="12.62330067235358"><ele>268.0</ele><time>2026-04-19T09:49:28.879Z</time></trkpt><trkpt lat="42.48572712189294" lon="12.623347853478025"><ele>268.0</ele><time>2026-04-19T09:49:29.879Z</time></trkpt><trkpt lat="42.48561551455973" lon="12.623389551838107"><ele>268.0</ele><time>2026-04-19T09:49:30.879Z</time></trkpt><trkpt lat="42.48551006918749" lon="12.623439102495391"><ele>268.0</ele><time>2026-04-19T09:49:31.879Z</time></trkpt><trkpt lat="42.48540453651382" lon="12.623491340134592"><ele>268.0</ele><time>2026-04-19T09:49:32.879Z</time></trkpt><trkpt lat="42.485281263124016" lon="12.623548947805142"><ele>266.75</ele><time>2026-04-19T09:49:33.879Z</time></trkpt><trkpt lat="42.48516363298119" lon="12.623599720250466"><ele>265.5</ele><time>2026-04-19T09:49:34.879Z</time></trkpt><trkpt lat="42.485047512973" lon="12.623657186656658"><ele>264.25</ele><time>2026-04-19T09:49:35.879Z</time></trkpt><trkpt lat="42.484934744335334" lon="12.623713609902618"><ele>263.0</ele><time>2026-04-19T09:49:36.879Z</time></trkpt><trkpt lat="42.4848110932567" lon="12.623774939761333"><ele>266.0</ele><time>2026-04-19T09:49:37.879Z</time></trkpt><trkpt lat="42.48470381919426" lon="12.623820441997557"><ele>269.0</ele><time>2026-04-19T09:49:38.879Z</time></trkpt><trkpt lat="42.48458919926866" lon="12.623875455740013"><ele>272.0</ele><time>2026-04-19T09:49:39.879Z</time></trkpt><trkpt lat="42.48446838848585" lon="12.623930507700777"><ele>275.0</ele><time>2026-04-19T09:49:40.879Z</time></trkpt><trkpt lat="42.48435066244953" lon="12.623989190926356"><ele>275.0</ele><time>2026-04-19T09:49:41.879Z</time></trkpt><trkpt lat="42.48423630324393" lon="12.624057924141404"><ele>275.0</ele><time>2026-04-19T09:49:42.879Z</time></trkpt><trkpt lat="42.48413510977129" lon="12.62411215164114"><ele>275.0</ele><time>2026-04-19T09:49:43.878Z</time></trkpt><trkpt lat="42.484035892183364" lon="12.624147150250614"><ele>275.0</ele><time>2026-04-19T09:49:44.878Z</time></trkpt><trkpt lat="42.48393872369198" lon="12.624225915566706"><ele>275.0</ele><time>2026-04-19T09:49:45.878Z</time></trkpt><trkpt lat="42.48385244190486" lon="12.624334779557556"><ele>275.0</ele><time>2026-04-19T09:49:46.878Z</time></trkpt><trkpt lat="42.48377636696084" lon="12.624455373255195"><ele>275.0</ele><time>2026-04-19T09:49:47.878Z</time></trkpt><trkpt lat="42.4837091260529" lon="12.624595191506216"><ele>275.0</ele><time>2026-04-19T09:49:48.878Z</time></trkpt><trkpt lat="42.4836445466304" lon="12.624734226705886"><ele>275.5</ele><time>2026-04-19T09:49:49.878Z</time></trkpt><trkpt lat="42.48357371240228" lon="12.624872234630123"><ele>276.0</ele><time>2026-04-19T09:49:50.878Z</time></trkpt><trkpt lat="42.48349990975871" lon="12.62501917123587"><ele>276.5</ele><time>2026-04-19T09:49:51.878Z</time></trkpt><trkpt lat="42.48343051372806" lon="12.62516516021128"><ele>277.0</ele><time>2026-04-19T09:49:52.878Z</time></trkpt><trkpt lat="42.48335857768754" lon="12.625315355889278"><ele>280.75</ele><time>2026-04-19T09:49:53.878Z</time></trkpt><trkpt lat="42.483281884792184" lon="12.625447805241114"><ele>284.5</ele><time>2026-04-19T09:49:54.878Z</time></trkpt><trkpt lat="42.483212419739644" lon="12.62557363556434"><ele>288.25</ele><time>2026-04-19T09:49:55.878Z</time></trkpt><trkpt lat="42.48314262171136" lon="12.625688362681172"><ele>292.0</ele><time>2026-04-19T09:49:56.878Z</time></trkpt><trkpt lat="42.48308508700576" lon="12.62580743648214"><ele>292.0</ele><time>2026-04-19T09:49:57.878Z</time></trkpt><trkpt lat="42.48303289337122" lon="12.625906821284483"><ele>292.0</ele><time>2026-04-19T09:49:58.878Z</time></trkpt><trkpt lat="42.482970843760796" lon="12.625982965983729"><ele>292.0</ele><time>2026-04-19T09:49:59.878Z</time></trkpt><trkpt lat="42.482922059304116" lon="12.626062332160725"><ele>292.0</ele><time>2026-04-19T09:50:00.878Z</time></trkpt><trkpt lat="42.482854210288835" lon="12.626124709528092"><ele>292.0</ele><time>2026-04-19T09:50:01.878Z</time></trkpt><trkpt lat="42.482780040077365" lon="12.626175889617759"><ele>292.0</ele><time>2026-04-19T09:50:02.878Z</time></trkpt><trkpt lat="42.48269332929118" lon="12.62619729069176"><ele>290.2</ele><time>2026-04-19T09:50:03.878Z</time></trkpt><trkpt lat="42.48260202672773" lon="12.626204984038512"><ele>288.4</ele><time>2026-04-19T09:50:04.878Z</time></trkpt><trkpt lat="42.48251073178123" lon="12.626217118429905"><ele>286.6</ele><time>2026-04-19T09:50:05.878Z</time></trkpt><trkpt lat="42.48242137705191" lon="12.626221535498855"><ele>284.8</ele><time>2026-04-19T09:50:06.877Z</time></trkpt><trkpt lat="42.48232471308192" lon="12.626223526536034"><ele>283.0</ele><time>2026-04-19T09:50:07.877Z</time></trkpt><trkpt lat="42.48221999836544" lon="12.626217887992745"><ele>283.0</ele><time>2026-04-19T09:50:08.877Z</time></trkpt><trkpt lat="42.48211256428904" lon="12.626198678636035"><ele>283.0</ele><time>2026-04-19T09:50:09.877Z</time></trkpt><trkpt lat="42.482005065807776" lon="12.626174640601768"><ele>283.0</ele><time>2026-04-19T09:50:10.877Z</time></trkpt><trkpt lat="42.48190006872419" lon="12.62613985091249"><ele>283.0</ele><time>2026-04-19T09:50:11.877Z</time></trkpt><trkpt lat="42.48180213811825" lon="12.626113666464038"><ele>283.0</ele><time>2026-04-19T09:50:12.877Z</time></trkpt><trkpt lat="42.481718098580075" lon="12.626093914179972"><ele>284.16666666666663</ele><time>2026-04-19T09:50:13.877Z</time></trkpt><trkpt lat="42.481640770106736" lon="12.626074306615843"><ele>285.3333333333333</ele><time>2026-04-19T09:50:14.877Z</time></trkpt><trkpt lat="42.481576661730394" lon="12.62606205315824"><ele>286.5</ele><time>2026-04-19T09:50:15.877Z</time></trkpt><trkpt lat="42.481443630219516" lon="12.62604647732169"><ele>287.6666666666667</ele><time>2026-04-19T09:50:17.877Z</time></trkpt><trkpt lat="42.481365474091895" lon="12.62603183184735"><ele>288.83333333333337</ele><time>2026-04-19T09:50:18.877Z</time></trkpt><trkpt lat="42.481286417506794" lon="12.626006583344243"><ele>290.0</ele><time>2026-04-19T09:50:19.877Z</time></trkpt><trkpt lat="42.48119495372215" lon="12.625971421715423"><ele>292.25</ele><time>2026-04-19T09:50:20.877Z</time></trkpt><trkpt lat="42.48109864963198" lon="12.625910538435631"><ele>294.5</ele><time>2026-04-19T09:50:21.877Z</time></trkpt><trkpt lat="42.48099651546257" lon="12.625831910781743"><ele>296.75</ele><time>2026-04-19T09:50:22.877Z</time></trkpt><trkpt lat="42.48090511208507" lon="12.625735232349873"><ele>299.0</ele><time>2026-04-19T09:50:23.877Z</time></trkpt><trkpt lat="42.48082881349603" lon="12.625614397011246"><ele>299.0</ele><time>2026-04-19T09:50:24.877Z</time></trkpt><trkpt lat="42.48076609453887" lon="12.625467916021321"><ele>299.0</ele><time>2026-04-19T09:50:25.877Z</time></trkpt><trkpt lat="42.480706799242846" lon="12.625319855371892"><ele>299.0</ele><time>2026-04-19T09:50:26.877Z</time></trkpt><trkpt lat="42.480651822016426" lon="12.625184673981124"><ele>299.0</ele><time>2026-04-19T09:50:27.877Z</time></trkpt><trkpt lat="42.480590450587194" lon="12.625066012444332"><ele>298.5</ele><time>2026-04-19T09:50:28.877Z</time></trkpt><trkpt lat="42.48051646174504" lon="12.624970643802"><ele>298.0</ele><time>2026-04-19T09:50:29.876Z</time></trkpt><trkpt lat="42.4804150525292" lon="12.624896321969734"><ele>297.5</ele><time>2026-04-19T09:50:30.876Z</time></trkpt><trkpt lat="42.4803062086117" lon="12.624825551243077"><ele>297.0</ele><time>2026-04-19T09:50:31.876Z</time></trkpt><trkpt lat="42.48018951678042" lon="12.62474792641173"><ele>300.75</ele><time>2026-04-19T09:50:32.876Z</time></trkpt><trkpt lat="42.480085239994466" lon="12.62464941757434"><ele>304.5</ele><time>2026-04-19T09:50:33.876Z</time></trkpt><trkpt lat="42.47998949519373" lon="12.62453059754015"><ele>308.25</ele><time>2026-04-19T09:50:34.876Z</time></trkpt><trkpt lat="42.47988798364379" lon="12.624408258631437"><ele>312.0</ele><time>2026-04-19T09:50:35.876Z</time></trkpt><trkpt lat="42.479792770652296" lon="12.624282336852058"><ele>312.0</ele><time>2026-04-19T09:50:36.876Z</time></trkpt><trkpt lat="42.47970513682505" lon="12.624157567117512"><ele>312.0</ele><time>2026-04-19T09:50:37.876Z</time></trkpt><trkpt lat="42.47962308824401" lon="12.624035890036547"><ele>312.0</ele><time>2026-04-19T09:50:38.876Z</time></trkpt><trkpt lat="42.47953995507839" lon="12.623934992990954"><ele>312.0</ele><time>2026-04-19T09:50:39.876Z</time></trkpt><trkpt lat="42.4794606550286" lon="12.623852796655736"><ele>314.6</ele><time>2026-04-19T09:50:40.876Z</time></trkpt><trkpt lat="42.47937138770269" lon="12.623810799342477"><ele>317.2</ele><time>2026-04-19T09:50:41.876Z</time></trkpt><trkpt lat="42.47927977616584" lon="12.62379485937234"><ele>319.8</ele><time>2026-04-19T09:50:42.876Z</time></trkpt><trkpt lat="42.47919989848589" lon="12.623822716742382"><ele>322.4</ele><time>2026-04-19T09:50:43.876Z</time></trkpt><trkpt lat="42.47910994631898" lon="12.623868997310627"><ele>325.0</ele><time>2026-04-19T09:50:44.876Z</time></trkpt><trkpt lat="42.47901762504704" lon="12.623924091946703"><ele>325.0</ele><time>2026-04-19T09:50:45.876Z</time></trkpt><trkpt lat="42.47892030971489" lon="12.623978148386053"><ele>325.0</ele><time>2026-04-19T09:50:46.876Z</time></trkpt><trkpt lat="42.47881578210449" lon="12.624045111727575"><ele>325.0</ele><time>2026-04-19T09:50:47.876Z</time></trkpt><trkpt lat="42.47871981058945" lon="12.62412191220469"><ele>325.0</ele><time>2026-04-19T09:50:48.876Z</time></trkpt><trkpt lat="42.47862528788308" lon="12.62420146021337"><ele>325.0</ele><time>2026-04-19T09:50:49.876Z</time></trkpt><trkpt lat="42.47852520657868" lon="12.624273762952306"><ele>326.0</ele><time>2026-04-19T09:50:50.876Z</time></trkpt><trkpt lat="42.47844127772721" lon="12.62436953108008"><ele>327.0</ele><time>2026-04-19T09:50:51.875Z</time></trkpt><trkpt lat="42.47835909863997" lon="12.624470289157387"><ele>328.0</ele><time>2026-04-19T09:50:52.875Z</time></trkpt><trkpt lat="42.478279947019125" lon="12.624573663160453"><ele>329.0</ele><time>2026-04-19T09:50:53.875Z</time></trkpt><trkpt lat="42.47820863350503" lon="12.624679637734975"><ele>330.0</ele><time>2026-04-19T09:50:54.875Z</time></trkpt><trkpt lat="42.47814679173457" lon="12.624775020994221"><ele>330.5</ele><time>2026-04-19T09:50:55.875Z</time></trkpt><trkpt lat="42.478097737973144" lon="12.624859707342047"><ele>331.0</ele><time>2026-04-19T09:50:56.875Z</time></trkpt><trkpt lat="42.478051618370316" lon="12.624942975731845"><ele>331.5</ele><time>2026-04-19T09:50:57.875Z</time></trkpt><trkpt lat="42.47800483412568" lon="12.62502807123123"><ele>332.0</ele><time>2026-04-19T09:50:58.875Z</time></trkpt><trkpt lat="42.47795624431675" lon="12.625124003162858"><ele>332.5</ele><time>2026-04-19T09:50:59.875Z</time></trkpt><trkpt lat="42.477902026566326" lon="12.625235869511323"><ele>333.0</ele><time>2026-04-19T09:51:00.875Z</time></trkpt><trkpt lat="42.47783231596722" lon="12.625345700868635"><ele>333.0</ele><time>2026-04-19T09:51:01.875Z</time></trkpt><trkpt lat="42.477752265608785" lon="12.625431575327184"><ele>333.0</ele><time>2026-04-19T09:51:02.877Z</time></trkpt><trkpt lat="42.47766985531222" lon="12.62548528552447"><ele>333.0</ele><time>2026-04-19T09:51:03.877Z</time></trkpt><trkpt lat="42.47757439143446" lon="12.625534140850178"><ele>333.0</ele><time>2026-04-19T09:51:04.877Z</time></trkpt><trkpt lat="42.477476329807544" lon="12.62553536319338"><ele>333.0</ele><time>2026-04-19T09:51:05.877Z</time></trkpt><trkpt lat="42.477377197963904" lon="12.625545905346403"><ele>333.0</ele><time>2026-04-19T09:51:06.877Z</time></trkpt><trkpt lat="42.47728355942553" lon="12.625536518808508"><ele>333.0</ele><time>2026-04-19T09:51:07.877Z</time></trkpt><trkpt lat="42.47719321171057" lon="12.625510782355732"><ele>333.0</ele><time>2026-04-19T09:51:08.877Z</time></trkpt><trkpt lat="42.47712316707202" lon="12.625461143252243"><ele>333.0</ele><time>2026-04-19T09:51:09.877Z</time></trkpt><trkpt lat="42.477050485539706" lon="12.625397667961384"><ele>333.0</ele><time>2026-04-19T09:51:10.877Z</time></trkpt><trkpt lat="42.47698891568084" lon="12.625320650965485"><ele>333.0</ele><time>2026-04-19T09:51:11.877Z</time></trkpt><trkpt lat="42.476951898763495" lon="12.625224191504566"><ele>333.59999999999997</ele><time>2026-04-19T09:51:12.876Z</time></trkpt><trkpt lat="42.47693259791839" lon="12.625115396461814"><ele>334.2</ele><time>2026-04-19T09:51:13.876Z</time></trkpt><trkpt lat="42.47692535014858" lon="12.624997962673397"><ele>334.8</ele><time>2026-04-19T09:51:14.877Z</time></trkpt><trkpt lat="42.47692145439675" lon="12.624857910829045"><ele>335.4</ele><time>2026-04-19T09:51:15.876Z</time></trkpt><trkpt lat="42.47690037042288" lon="12.624721588703327"><ele>336.0</ele><time>2026-04-19T09:51:16.876Z</time></trkpt><trkpt lat="42.476896110341684" lon="12.624591073802405"><ele>336.8</ele><time>2026-04-19T09:51:17.876Z</time></trkpt><trkpt lat="42.476899097226564" lon="12.62445310457941"><ele>337.6</ele><time>2026-04-19T09:51:18.876Z</time></trkpt><trkpt lat="42.47689208265027" lon="12.624309953490217"><ele>338.4</ele><time>2026-04-19T09:51:19.876Z</time></trkpt><trkpt lat="42.47688068309168" lon="12.624164718635997"><ele>339.2</ele><time>2026-04-19T09:51:20.876Z</time></trkpt><trkpt lat="42.47686872016162" lon="12.624020469556937"><ele>340.0</ele><time>2026-04-19T09:51:21.876Z</time></trkpt><trkpt lat="42.47685201974019" lon="12.623879444856254"><ele>340.0</ele><time>2026-04-19T09:51:22.876Z</time></trkpt><trkpt lat="42.47683313022919" lon="12.623745681185168"><ele>340.0</ele><time>2026-04-19T09:51:23.876Z</time></trkpt><trkpt lat="42.47681889204292" lon="12.623632961097995"><ele>340.0</ele><time>2026-04-19T09:51:24.876Z</time></trkpt><trkpt lat="42.47680334448688" lon="12.62352587370774"><ele>340.0</ele><time>2026-04-19T09:51:25.876Z</time></trkpt><trkpt lat="42.4767777643206" lon="12.623421960883002"><ele>340.0</ele><time>2026-04-19T09:51:26.876Z</time></trkpt><trkpt lat="42.47673536980493" lon="12.623320645957682"><ele>340.0</ele><time>2026-04-19T09:51:27.876Z</time></trkpt><trkpt lat="42.47666607265983" lon="12.623225125812906"><ele>338.8</ele><time>2026-04-19T09:51:28.876Z</time></trkpt><trkpt lat="42.476583865594534" lon="12.62313855906672"><ele>337.6</ele><time>2026-04-19T09:51:29.876Z</time></trkpt><trkpt lat="42.47648735894207" lon="12.623062946147037"><ele>336.4</ele><time>2026-04-19T09:51:30.876Z</time></trkpt><trkpt lat="42.476390475472165" lon="12.622988595655436"><ele>335.2</ele><time>2026-04-19T09:51:31.876Z</time></trkpt><trkpt lat="42.47631389602897" lon="12.622903571061476"><ele>334.0</ele><time>2026-04-19T09:51:32.876Z</time></trkpt><trkpt lat="42.47624632174683" lon="12.622824785171696"><ele>337.0</ele><time>2026-04-19T09:51:33.876Z</time></trkpt><trkpt lat="42.47619090251415" lon="12.62276073354873"><ele>340.0</ele><time>2026-04-19T09:51:34.876Z</time></trkpt><trkpt lat="42.47614673112852" lon="12.622682937649806"><ele>343.0</ele><time>2026-04-19T09:51:35.876Z</time></trkpt><trkpt lat="42.47610375912704" lon="12.622607201341877"><ele>346.0</ele><time>2026-04-19T09:51:36.876Z</time></trkpt><trkpt lat="42.47605086783256" lon="12.62253267410968"><ele>349.0</ele><time>2026-04-19T09:51:37.876Z</time></trkpt><trkpt lat="42.475975506987595" lon="12.622466141847223"><ele>352.0</ele><time>2026-04-19T09:51:38.875Z</time></trkpt><trkpt lat="42.47588016182604" lon="12.622412149581963"><ele>352.0</ele><time>2026-04-19T09:51:39.875Z</time></trkpt><trkpt lat="42.4757845530677" lon="12.622350345878148"><ele>352.0</ele><time>2026-04-19T09:51:40.875Z</time></trkpt><trkpt lat="42.4756894221549" lon="12.622278127816458"><ele>352.0</ele><time>2026-04-19T09:51:41.875Z</time></trkpt><trkpt lat="42.475594790651556" lon="12.622190527799791"><ele>352.0</ele><time>2026-04-19T09:51:42.875Z</time></trkpt><trkpt lat="42.47550479536274" lon="12.622090233959272"><ele>352.0</ele><time>2026-04-19T09:51:43.875Z</time></trkpt><trkpt lat="42.475414455041125" lon="12.621983660058849"><ele>350.20000000000005</ele><time>2026-04-19T09:51:44.875Z</time></trkpt><trkpt lat="42.47532467860387" lon="12.621882869494032"><ele>348.4</ele><time>2026-04-19T09:51:45.875Z</time></trkpt><trkpt lat="42.475240739965564" lon="12.62179359306558"><ele>346.6</ele><time>2026-04-19T09:51:46.875Z</time></trkpt><trkpt lat="42.47516313949551" lon="12.621705777549492"><ele>344.79999999999995</ele><time>2026-04-19T09:51:47.875Z</time></trkpt><trkpt lat="42.4750849267778" lon="12.621623810982573"><ele>343.0</ele><time>2026-04-19T09:51:48.875Z</time></trkpt><trkpt lat="42.475012670591916" lon="12.621546527838126"><ele>343.0</ele><time>2026-04-19T09:51:49.875Z</time></trkpt><trkpt lat="42.474954548021444" lon="12.621480862834696"><ele>343.0</ele><time>2026-04-19T09:51:50.875Z</time></trkpt><trkpt lat="42.47489849816476" lon="12.62142750255686"><ele>343.0</ele><time>2026-04-19T09:51:51.875Z</time></trkpt><trkpt lat="42.47484137167789" lon="12.621376560152886"><ele>343.0</ele><time>2026-04-19T09:51:52.875Z</time></trkpt><trkpt lat="42.47477560932354" lon="12.621328328102885"><ele>343.0</ele><time>2026-04-19T09:51:53.875Z</time></trkpt><trkpt lat="42.47471296466157" lon="12.621291684229613"><ele>343.0</ele><time>2026-04-19T09:51:54.875Z</time></trkpt><trkpt lat="42.47465011714684" lon="12.621256914815458"><ele>343.0</ele><time>2026-04-19T09:51:55.875Z</time></trkpt><trkpt lat="42.47458585039004" lon="12.62122344364679"><ele>342.7142857142857</ele><time>2026-04-19T09:51:56.875Z</time></trkpt><trkpt lat="42.474524263200806" lon="12.621159348793624"><ele>342.42857142857144</ele><time>2026-04-19T09:51:57.875Z</time></trkpt><trkpt lat="42.474451546958804" lon="12.621109538550007"><ele>342.1428571428571</ele><time>2026-04-19T09:51:58.875Z</time></trkpt><trkpt lat="42.47437902944583" lon="12.621078253956446"><ele>341.8571428571429</ele><time>2026-04-19T09:51:59.875Z</time></trkpt><trkpt lat="42.47431722032563" lon="12.621024322197469"><ele>341.57142857142856</ele><time>2026-04-19T09:52:00.875Z</time></trkpt><trkpt lat="42.474257326686676" lon="12.620981902807547"><ele>341.2857142857143</ele><time>2026-04-19T09:52:01.874Z</time></trkpt><trkpt lat="42.474194656138565" lon="12.620940921991977"><ele>341.0</ele><time>2026-04-19T09:52:02.874Z</time></trkpt><trkpt lat="42.47412524751755" lon="12.6208941984629"><ele>341.0</ele><time>2026-04-19T09:52:03.874Z</time></trkpt><trkpt lat="42.47405262184941" lon="12.620844428434427"><ele>341.0</ele><time>2026-04-19T09:52:04.874Z</time></trkpt><trkpt lat="42.473970221542615" lon="12.620801320144126"><ele>341.0</ele><time>2026-04-19T09:52:05.874Z</time></trkpt><trkpt lat="42.47387868883691" lon="12.620750310074742"><ele>341.0</ele><time>2026-04-19T09:52:06.874Z</time></trkpt><trkpt lat="42.47377931875559" lon="12.620696676924004"><ele>341.0</ele><time>2026-04-19T09:52:07.874Z</time></trkpt><trkpt lat="42.473684486062645" lon="12.620624410438642"><ele>341.75</ele><time>2026-04-19T09:52:08.874Z</time></trkpt><trkpt lat="42.47357921960242" lon="12.620574600663526"><ele>342.5</ele><time>2026-04-19T09:52:09.874Z</time></trkpt><trkpt lat="42.47346421619319" lon="12.62052255456293"><ele>343.25</ele><time>2026-04-19T09:52:10.874Z</time></trkpt><trkpt lat="42.47334099938417" lon="12.62046159859948"><ele>344.0</ele><time>2026-04-19T09:52:11.874Z</time></trkpt><trkpt lat="42.47321624823119" lon="12.620393068283521"><ele>344.0</ele><time>2026-04-19T09:52:12.874Z</time></trkpt><trkpt lat="42.473097072146096" lon="12.620329924439284"><ele>344.0</ele><time>2026-04-19T09:52:13.874Z</time></trkpt><trkpt lat="42.47298628472325" lon="12.620278060968344"><ele>344.0</ele><time>2026-04-19T09:52:14.874Z</time></trkpt><trkpt lat="42.472871717334115" lon="12.620257449961706"><ele>344.0</ele><time>2026-04-19T09:52:15.874Z</time></trkpt><trkpt lat="42.47275792116933" lon="12.620258427342847"><ele>345.0</ele><time>2026-04-19T09:52:16.874Z</time></trkpt><trkpt lat="42.4726389721668" lon="12.620292646864176"><ele>346.0</ele><time>2026-04-19T09:52:17.874Z</time></trkpt><trkpt lat="42.47250804318385" lon="12.620312857540577"><ele>347.0</ele><time>2026-04-19T09:52:18.874Z</time></trkpt><trkpt lat="42.472374084621876" lon="12.62034905384293"><ele>348.0</ele><time>2026-04-19T09:52:19.874Z</time></trkpt><trkpt lat="42.47223486158098" lon="12.620399873824807"><ele>352.5</ele><time>2026-04-19T09:52:20.874Z</time></trkpt><trkpt lat="42.472093452074745" lon="12.620462937640605"><ele>357.0</ele><time>2026-04-19T09:52:21.874Z</time></trkpt><trkpt lat="42.471961109768486" lon="12.620522379521427"><ele>361.5</ele><time>2026-04-19T09:52:22.874Z</time></trkpt><trkpt lat="42.47183268756508" lon="12.620572056770115"><ele>366.0</ele><time>2026-04-19T09:52:23.874Z</time></trkpt><trkpt lat="42.471701332354726" lon="12.620616831260921"><ele>366.0</ele><time>2026-04-19T09:52:24.873Z</time></trkpt><trkpt lat="42.47157735199075" lon="12.620669329053332"><ele>366.0</ele><time>2026-04-19T09:52:25.873Z</time></trkpt><trkpt lat="42.47148461625898" lon="12.620707713056591"><ele>366.0</ele><time>2026-04-19T09:52:26.873Z</time></trkpt><trkpt lat="42.47141002789616" lon="12.620743142828006"><ele>366.0</ele><time>2026-04-19T09:52:27.873Z</time></trkpt><trkpt lat="42.471306103226155" lon="12.620794337802057"><ele>366.0</ele><time>2026-04-19T09:52:29.873Z</time></trkpt><trkpt lat="42.47123760846868" lon="12.620810809632253"><ele>366.8</ele><time>2026-04-19T09:52:30.873Z</time></trkpt><trkpt lat="42.471149753823006" lon="12.620836235699125"><ele>367.6</ele><time>2026-04-19T09:52:31.873Z</time></trkpt><trkpt lat="42.47104324452464" lon="12.620862320690584"><ele>368.4</ele><time>2026-04-19T09:52:32.873Z</time></trkpt><trkpt lat="42.4709257214868" lon="12.620880573809092"><ele>369.2</ele><time>2026-04-19T09:52:33.873Z</time></trkpt><trkpt lat="42.47080865392098" lon="12.620908409915852"><ele>370.0</ele><time>2026-04-19T09:52:34.873Z</time></trkpt><trkpt lat="42.470694961524224" lon="12.620962482423739"><ele>370.0</ele><time>2026-04-19T09:52:35.873Z</time></trkpt><trkpt lat="42.47058090358487" lon="12.621036839387836"><ele>370.0</ele><time>2026-04-19T09:52:36.873Z</time></trkpt><trkpt lat="42.470482736319795" lon="12.621139059001193"><ele>370.0</ele><time>2026-04-19T09:52:37.873Z</time></trkpt><trkpt lat="42.470382038324544" lon="12.621216723620543"><ele>370.0</ele><time>2026-04-19T09:52:38.873Z</time></trkpt><trkpt lat="42.47029149333837" lon="12.621291294297993"><ele>370.0</ele><time>2026-04-19T09:52:39.873Z</time></trkpt><trkpt lat="42.4702177906644" lon="12.621362115730328"><ele>370.0</ele><time>2026-04-19T09:52:40.873Z</time></trkpt><trkpt lat="42.47015316645398" lon="12.621428991703498"><ele>370.0</ele><time>2026-04-19T09:52:41.873Z</time></trkpt><trkpt lat="42.4700825078072" lon="12.621483935010529"><ele>370.0</ele><time>2026-04-19T09:52:42.873Z</time></trkpt><trkpt lat="42.46999515395655" lon="12.621527016273928"><ele>370.0</ele><time>2026-04-19T09:52:43.873Z</time></trkpt><trkpt lat="42.46988568966034" lon="12.621564664225222"><ele>370.0</ele><time>2026-04-19T09:52:44.873Z</time></trkpt><trkpt lat="42.46976434812644" lon="12.621606187135443"><ele>370.0</ele><time>2026-04-19T09:52:45.873Z</time></trkpt><trkpt lat="42.469634256694796" lon="12.621641013019028"><ele>370.0</ele><time>2026-04-19T09:52:46.873Z</time></trkpt><trkpt lat="42.46949786704582" lon="12.621703494082862"><ele>370.0</ele><time>2026-04-19T09:52:47.872Z</time></trkpt><trkpt lat="42.469375092041346" lon="12.621764778596852"><ele>371.5</ele><time>2026-04-19T09:52:48.872Z</time></trkpt><trkpt lat="42.469266372841375" lon="12.621817944018474"><ele>373.0</ele><time>2026-04-19T09:52:49.872Z</time></trkpt><trkpt lat="42.469161850944104" lon="12.621854667378104"><ele>374.5</ele><time>2026-04-19T09:52:50.872Z</time></trkpt><trkpt lat="42.46904770841399" lon="12.62187983781535"><ele>376.0</ele><time>2026-04-19T09:52:51.872Z</time></trkpt><trkpt lat="42.468917832290145" lon="12.621892758154623"><ele>376.0</ele><time>2026-04-19T09:52:52.872Z</time></trkpt><trkpt lat="42.4687838194146" lon="12.621909339176542"><ele>376.0</ele><time>2026-04-19T09:52:53.872Z</time></trkpt><trkpt lat="42.46864778263143" lon="12.621928279390689"><ele>376.0</ele><time>2026-04-19T09:52:54.872Z</time></trkpt><trkpt lat="42.468509856555876" lon="12.621962403179952"><ele>376.0</ele><time>2026-04-19T09:52:55.872Z</time></trkpt><trkpt lat="42.46837917010482" lon="12.622027913066606"><ele>375.8</ele><time>2026-04-19T09:52:56.872Z</time></trkpt><trkpt lat="42.468259473917556" lon="12.622089665850893"><ele>375.6</ele><time>2026-04-19T09:52:57.872Z</time></trkpt><trkpt lat="42.46815516054191" lon="12.622135403719218"><ele>375.4</ele><time>2026-04-19T09:52:58.872Z</time></trkpt><trkpt lat="42.46806386411335" lon="12.622166912786234"><ele>375.2</ele><time>2026-04-19T09:52:59.872Z</time></trkpt><trkpt lat="42.467975914981636" lon="12.622181648713031"><ele>375.0</ele><time>2026-04-19T09:53:00.872Z</time></trkpt><trkpt lat="42.46790990328806" lon="12.622225455649907"><ele>374.8</ele><time>2026-04-19T09:53:01.872Z</time></trkpt><trkpt lat="42.46785716641778" lon="12.622297871708428"><ele>374.6</ele><time>2026-04-19T09:53:02.872Z</time></trkpt><trkpt lat="42.46780014508772" lon="12.622385753245597"><ele>374.4</ele><time>2026-04-19T09:53:03.872Z</time></trkpt><trkpt lat="42.46773361706214" lon="12.622478202769347"><ele>374.2</ele><time>2026-04-19T09:53:04.872Z</time></trkpt><trkpt lat="42.46765738405227" lon="12.622578905932857"><ele>374.0</ele><time>2026-04-19T09:53:05.872Z</time></trkpt><trkpt lat="42.46758267624654" lon="12.622662396172483"><ele>374.0</ele><time>2026-04-19T09:53:06.872Z</time></trkpt><trkpt lat="42.467492497214685" lon="12.622750166721994"><ele>374.0</ele><time>2026-04-19T09:53:07.872Z</time></trkpt><trkpt lat="42.46739647219414" lon="12.622830899657265"><ele>374.0</ele><time>2026-04-19T09:53:08.874Z</time></trkpt><trkpt lat="42.46730298272358" lon="12.622902676561974"><ele>374.0</ele><time>2026-04-19T09:53:09.874Z</time></trkpt><trkpt lat="42.467206201346485" lon="12.622967195115498"><ele>374.0</ele><time>2026-04-19T09:53:10.874Z</time></trkpt><trkpt lat="42.46711325198146" lon="12.623048842433608"><ele>373.4</ele><time>2026-04-19T09:53:11.874Z</time></trkpt><trkpt lat="42.467012221772464" lon="12.623096391177786"><ele>372.79999999999995</ele><time>2026-04-19T09:53:12.874Z</time></trkpt><trkpt lat="42.466914425535634" lon="12.623153298263972"><ele>372.20000000000005</ele><time>2026-04-19T09:53:13.874Z</time></trkpt><trkpt lat="42.466813472032406" lon="12.623219910857111"><ele>371.6</ele><time>2026-04-19T09:53:14.874Z</time></trkpt><trkpt lat="42.46672397354516" lon="12.623285575851893"><ele>371.0</ele><time>2026-04-19T09:53:15.873Z</time></trkpt><trkpt lat="42.466635876343865" lon="12.623362314470535"><ele>371.0</ele><time>2026-04-19T09:53:16.873Z</time></trkpt><trkpt lat="42.46655717583701" lon="12.623454386958004"><ele>371.0</ele><time>2026-04-19T09:53:17.874Z</time></trkpt><trkpt lat="42.46647979652869" lon="12.623555072098776"><ele>371.0</ele><time>2026-04-19T09:53:18.874Z</time></trkpt><trkpt lat="42.46638202342573" lon="12.623651914202476"><ele>371.0</ele><time>2026-04-19T09:53:19.874Z</time></trkpt><trkpt lat="42.46628038715671" lon="12.623740623305228"><ele>370.75</ele><time>2026-04-19T09:53:20.874Z</time></trkpt><trkpt lat="42.4661775818287" lon="12.623855862799056"><ele>370.5</ele><time>2026-04-19T09:53:21.874Z</time></trkpt><trkpt lat="42.466085012820166" lon="12.623997936112213"><ele>370.25</ele><time>2026-04-19T09:53:22.873Z</time></trkpt><trkpt lat="42.46600756692773" lon="12.624121042179935"><ele>370.0</ele><time>2026-04-19T09:53:23.873Z</time></trkpt><trkpt lat="42.465911371968744" lon="12.624193854639387"><ele>370.0</ele><time>2026-04-19T09:53:24.873Z</time></trkpt><trkpt lat="42.46581561341546" lon="12.624266955307863"><ele>370.0</ele><time>2026-04-19T09:53:25.873Z</time></trkpt><trkpt lat="42.465726243178835" lon="12.624328960231862"><ele>370.0</ele><time>2026-04-19T09:53:26.873Z</time></trkpt><trkpt lat="42.46564495623838" lon="12.624381522699702"><ele>370.0</ele><time>2026-04-19T09:53:27.873Z</time></trkpt><trkpt lat="42.46556756551221" lon="12.624409904731204"><ele>370.0</ele><time>2026-04-19T09:53:28.873Z</time></trkpt><trkpt lat="42.46547652441157" lon="12.624429784599569"><ele>370.0</ele><time>2026-04-19T09:53:29.873Z</time></trkpt><trkpt lat="42.46537184702153" lon="12.624444675621326"><ele>370.0</ele><time>2026-04-19T09:53:30.873Z</time></trkpt><trkpt lat="42.46526204387897" lon="12.62447739763123"><ele>370.0</ele><time>2026-04-19T09:53:31.873Z</time></trkpt><trkpt lat="42.465143853971036" lon="12.624467038157194"><ele>370.0</ele><time>2026-04-19T09:53:32.873Z</time></trkpt><trkpt lat="42.4650234300735" lon="12.624471718480526"><ele>369.25</ele><time>2026-04-19T09:53:33.873Z</time></trkpt><trkpt lat="42.46489750936926" lon="12.624482078295474"><ele>368.5</ele><time>2026-04-19T09:53:34.873Z</time></trkpt><trkpt lat="42.464781910610114" lon="12.624494115883339"><ele>367.75</ele><time>2026-04-19T09:53:35.873Z</time></trkpt><trkpt lat="42.46467793867097" lon="12.62450105159416"><ele>367.0</ele><time>2026-04-19T09:53:36.873Z</time></trkpt><trkpt lat="42.46457294098979" lon="12.62451556005128"><ele>367.0</ele><time>2026-04-19T09:53:37.873Z</time></trkpt><trkpt lat="42.46447019453141" lon="12.624504127010674"><ele>367.0</ele><time>2026-04-19T09:53:38.873Z</time></trkpt><trkpt lat="42.46435629513644" lon="12.62451906223311"><ele>367.0</ele><time>2026-04-19T09:53:39.873Z</time></trkpt><trkpt lat="42.46423385896655" lon="12.624548118695529"><ele>367.0</ele><time>2026-04-19T09:53:40.873Z</time></trkpt><trkpt lat="42.46410688266116" lon="12.624577001498462"><ele>367.0</ele><time>2026-04-19T09:53:41.873Z</time></trkpt><trkpt lat="42.46397312206868" lon="12.624614508189616"><ele>367.0</ele><time>2026-04-19T09:53:42.873Z</time></trkpt><trkpt lat="42.46384558845445" lon="12.62464873298237"><ele>367.0</ele><time>2026-04-19T09:53:43.873Z</time></trkpt><trkpt lat="42.4637202764314" lon="12.624679578438089"><ele>367.0</ele><time>2026-04-19T09:53:44.873Z</time></trkpt><trkpt lat="42.46359225524685" lon="12.62470713250706"><ele>367.0</ele><time>2026-04-19T09:53:45.872Z</time></trkpt><trkpt lat="42.46346901333353" lon="12.624738391983279"><ele>367.0</ele><time>2026-04-19T09:53:46.872Z</time></trkpt><trkpt lat="42.46334785869921" lon="12.624773913424379"><ele>367.0</ele><time>2026-04-19T09:53:47.872Z</time></trkpt><trkpt lat="42.46322914106494" lon="12.624830101427827"><ele>367.0</ele><time>2026-04-19T09:53:48.872Z</time></trkpt><trkpt lat="42.46310839868974" lon="12.624895280382905"><ele>367.0</ele><time>2026-04-19T09:53:49.872Z</time></trkpt><trkpt lat="42.462983313086134" lon="12.62496144271949"><ele>367.0</ele><time>2026-04-19T09:53:50.872Z</time></trkpt><trkpt lat="42.46285612783685" lon="12.625033414024307"><ele>367.0</ele><time>2026-04-19T09:53:51.872Z</time></trkpt><trkpt lat="42.462736814996845" lon="12.625091579165208"><ele>367.0</ele><time>2026-04-19T09:53:52.872Z</time></trkpt><trkpt lat="42.462615595454274" lon="12.625143765624205"><ele>365.75</ele><time>2026-04-19T09:53:53.872Z</time></trkpt><trkpt lat="42.462491638349555" lon="12.625183188004916"><ele>364.5</ele><time>2026-04-19T09:53:54.872Z</time></trkpt><trkpt lat="42.46235787259956" lon="12.625205629186224"><ele>363.25</ele><time>2026-04-19T09:53:55.872Z</time></trkpt><trkpt lat="42.4622246733854" lon="12.62521695106118"><ele>362.0</ele><time>2026-04-19T09:53:56.872Z</time></trkpt><trkpt lat="42.46208583131196" lon="12.625227142766368"><ele>359.75</ele><time>2026-04-19T09:53:57.872Z</time></trkpt><trkpt lat="42.461946544921446" lon="12.625239246146785"><ele>357.5</ele><time>2026-04-19T09:53:58.872Z</time></trkpt><trkpt lat="42.46180946727658" lon="12.625253625556077"><ele>355.25</ele><time>2026-04-19T09:53:59.872Z</time></trkpt><trkpt lat="42.46167371050627" lon="12.625272047614308"><ele>353.0</ele><time>2026-04-19T09:54:00.872Z</time></trkpt><trkpt lat="42.46153348117983" lon="12.62529694003718"><ele>353.5</ele><time>2026-04-19T09:54:01.872Z</time></trkpt><trkpt lat="42.46139127594788" lon="12.625323481998524"><ele>354.0</ele><time>2026-04-19T09:54:02.872Z</time></trkpt><trkpt lat="42.461257423075295" lon="12.625359730538271"><ele>354.5</ele><time>2026-04-19T09:54:03.872Z</time></trkpt><trkpt lat="42.46112974675895" lon="12.625401124354873"><ele>355.0</ele><time>2026-04-19T09:54:04.872Z</time></trkpt><trkpt lat="42.46100753884477" lon="12.625456074044205"><ele>355.0</ele><time>2026-04-19T09:54:05.872Z</time></trkpt><trkpt lat="42.46089252610515" lon="12.62553504132511"><ele>355.0</ele><time>2026-04-19T09:54:06.872Z</time></trkpt><trkpt lat="42.46078639260756" lon="12.62560767026643"><ele>355.0</ele><time>2026-04-19T09:54:07.872Z</time></trkpt><trkpt lat="42.46068812590912" lon="12.625648327408577"><ele>355.0</ele><time>2026-04-19T09:54:08.871Z</time></trkpt><trkpt lat="42.46059403740556" lon="12.625664095334411"><ele>355.0</ele><time>2026-04-19T09:54:09.871Z</time></trkpt><trkpt lat="42.460482912438984" lon="12.625653622675356"><ele>357.75</ele><time>2026-04-19T09:54:10.871Z</time></trkpt><trkpt lat="42.46037175037761" lon="12.625643004084585"><ele>360.5</ele><time>2026-04-19T09:54:11.871Z</time></trkpt><trkpt lat="42.460249443998514" lon="12.625626191742725"><ele>363.25</ele><time>2026-04-19T09:54:12.871Z</time></trkpt><trkpt lat="42.46013235840602" lon="12.62561228298231"><ele>366.0</ele><time>2026-04-19T09:54:13.871Z</time></trkpt><trkpt lat="42.46001599080908" lon="12.625603413739698"><ele>366.0</ele><time>2026-04-19T09:54:14.871Z</time></trkpt><trkpt lat="42.45991364055272" lon="12.625613926126029"><ele>366.0</ele><time>2026-04-19T09:54:15.871Z</time></trkpt><trkpt lat="42.459828727356815" lon="12.625656635573543"><ele>366.0</ele><time>2026-04-19T09:54:16.871Z</time></trkpt><trkpt lat="42.4597507849974" lon="12.625739640862616"><ele>366.0</ele><time>2026-04-19T09:54:18.871Z</time></trkpt><trkpt lat="42.45969427167533" lon="12.62583758963063"><ele>366.0</ele><time>2026-04-19T09:54:20.871Z</time></trkpt><trkpt lat="42.45959916021748" lon="12.625879059217489"><ele>368.3333333333333</ele><time>2026-04-19T09:54:22.872Z</time></trkpt><trkpt lat="42.45950091186282" lon="12.625885735900614"><ele>370.6666666666667</ele><time>2026-04-19T09:54:24.876Z</time></trkpt><trkpt lat="42.45943440962678" lon="12.625879523715371"><ele>373.0</ele><time>2026-04-19T09:54:25.878Z</time></trkpt><trkpt lat="42.45936716042779" lon="12.625854233156614"><ele>375.33333333333337</ele><time>2026-04-19T09:54:26.879Z</time></trkpt><trkpt lat="42.45929164022014" lon="12.625810248986184"><ele>377.6666666666667</ele><time>2026-04-19T09:54:27.881Z</time></trkpt><trkpt lat="42.459211226998335" lon="12.625758136029658"><ele>380.0</ele><time>2026-04-19T09:54:28.882Z</time></trkpt><trkpt lat="42.45911172795135" lon="12.62570188675083"><ele>380.0</ele><time>2026-04-19T09:54:29.884Z</time></trkpt><trkpt lat="42.45901644304937" lon="12.625621424459366"><ele>380.0</ele><time>2026-04-19T09:54:30.885Z</time></trkpt><trkpt lat="42.4589276527408" lon="12.625559250016645"><ele>380.0</ele><time>2026-04-19T09:54:31.886Z</time></trkpt><trkpt lat="42.458849357165164" lon="12.625513326679213"><ele>380.0</ele><time>2026-04-19T09:54:32.887Z</time></trkpt><trkpt lat="42.45878004169269" lon="12.625476228911506"><ele>380.0</ele><time>2026-04-19T09:54:33.888Z</time></trkpt><trkpt lat="42.458652399253836" lon="12.625454402983987"><ele>381.5</ele><time>2026-04-19T09:54:35.89Z</time></trkpt><trkpt lat="42.458575747450915" lon="12.625458312050649"><ele>383.0</ele><time>2026-04-19T09:54:36.891Z</time></trkpt><trkpt lat="42.45849853106745" lon="12.625478503767987"><ele>384.5</ele><time>2026-04-19T09:54:37.892Z</time></trkpt><trkpt lat="42.4584126018719" lon="12.625505179440337"><ele>386.0</ele><time>2026-04-19T09:54:38.893Z</time></trkpt><trkpt lat="42.458322269859934" lon="12.625544117416759"><ele>387.49999999999994</ele><time>2026-04-19T09:54:39.893Z</time></trkpt><trkpt lat="42.458221186832255" lon="12.625581052169828"><ele>389.0</ele><time>2026-04-19T09:54:40.894Z</time></trkpt><trkpt lat="42.458116898929575" lon="12.625610260445885"><ele>389.0</ele><time>2026-04-19T09:54:41.895Z</time></trkpt><trkpt lat="42.45801527119411" lon="12.625623538988664"><ele>389.0</ele><time>2026-04-19T09:54:42.895Z</time></trkpt><trkpt lat="42.45791511487886" lon="12.625615593887384"><ele>389.0</ele><time>2026-04-19T09:54:43.896Z</time></trkpt><trkpt lat="42.45781817565416" lon="12.625593773436748"><ele>389.0</ele><time>2026-04-19T09:54:44.896Z</time></trkpt><trkpt lat="42.4577177074425" lon="12.625564352627428"><ele>389.0</ele><time>2026-04-19T09:54:45.897Z</time></trkpt><trkpt lat="42.45762114380371" lon="12.625533471115059"><ele>390.2</ele><time>2026-04-19T09:54:46.897Z</time></trkpt><trkpt lat="42.45752698026399" lon="12.625506189870741"><ele>391.4</ele><time>2026-04-19T09:54:47.898Z</time></trkpt><trkpt lat="42.4574376675442" lon="12.625462272005198"><ele>392.6</ele><time>2026-04-19T09:54:48.898Z</time></trkpt><trkpt lat="42.457348504623" lon="12.625421352627145"><ele>393.8</ele><time>2026-04-19T09:54:49.898Z</time></trkpt><trkpt lat="42.45725848330159" lon="12.6253833929013"><ele>395.0</ele><time>2026-04-19T09:54:50.899Z</time></trkpt><trkpt lat="42.45715655958838" lon="12.625362257499502"><ele>396.16666666666663</ele><time>2026-04-19T09:54:51.899Z</time></trkpt><trkpt lat="42.45704298141376" lon="12.625370187897305"><ele>397.3333333333333</ele><time>2026-04-19T09:54:52.899Z</time></trkpt><trkpt lat="42.456943031658966" lon="12.625384887631428"><ele>398.5</ele><time>2026-04-19T09:54:53.899Z</time></trkpt><trkpt lat="42.45686101556417" lon="12.625391854953689"><ele>399.66666666666663</ele><time>2026-04-19T09:54:54.9Z</time></trkpt><trkpt lat="42.4567934458898" lon="12.625389901527152"><ele>400.8333333333333</ele><time>2026-04-19T09:54:55.9Z</time></trkpt><trkpt lat="42.45672065008352" lon="12.625365799017215"><ele>402.0</ele><time>2026-04-19T09:54:56.9Z</time></trkpt><trkpt lat="42.456646692891326" lon="12.625349978568424"><ele>402.40000000000003</ele><time>2026-04-19T09:54:57.9Z</time></trkpt><trkpt lat="42.45658687404534" lon="12.625307433036118"><ele>402.8</ele><time>2026-04-19T09:54:58.901Z</time></trkpt><trkpt lat="42.45652712002298" lon="12.625276724333984"><ele>403.2</ele><time>2026-04-19T09:55:00.901Z</time></trkpt><trkpt lat="42.45661430232368" lon="12.62503367384693"><ele>403.6</ele><time>2026-04-19T09:55:46.904Z</time></trkpt><trkpt lat="42.456683386509866" lon="12.624957420388851"><ele>404.0</ele><time>2026-04-19T09:55:48.904Z</time></trkpt><trkpt lat="42.456617576620815" lon="12.625028552075639"><ele>404.0</ele><time>2026-04-19T09:56:03.903Z</time></trkpt><trkpt lat="42.45657489871592" lon="12.62509730360135"><ele>404.0</ele><time>2026-04-19T09:56:05.903Z</time></trkpt><trkpt lat="42.456526429346056" lon="12.625168851840424"><ele>404.0</ele><time>2026-04-19T09:56:08.903Z</time></trkpt><trkpt lat="42.456464364312296" lon="12.625273780572247"><ele>404.0</ele><time>2026-04-19T09:56:44.902Z</time></trkpt><trkpt lat="42.45635074419642" lon="12.625410980098296"><ele>404.0</ele><time>2026-04-19T09:56:46.902Z</time></trkpt><trkpt lat="42.4562881094199" lon="12.625478348083679"><ele>404.8333333333333</ele><time>2026-04-19T09:56:47.902Z</time></trkpt><trkpt lat="42.45622804902263" lon="12.625551530008446"><ele>405.66666666666663</ele><time>2026-04-19T09:56:48.902Z</time></trkpt><trkpt lat="42.456166387408345" lon="12.625633866910213"><ele>406.5</ele><time>2026-04-19T09:56:49.902Z</time></trkpt><trkpt lat="42.456091353701716" lon="12.625691821795115"><ele>407.33333333333337</ele><time>2026-04-19T09:56:50.902Z</time></trkpt><trkpt lat="42.45603025071315" lon="12.62577428388753"><ele>408.1666666666667</ele><time>2026-04-19T09:56:51.902Z</time></trkpt><trkpt lat="42.455963934606416" lon="12.625863548915888"><ele>409.0</ele><time>2026-04-19T09:56:52.902Z</time></trkpt><trkpt lat="42.45589628604151" lon="12.625952261280808"><ele>409.0</ele><time>2026-04-19T09:56:53.902Z</time></trkpt><trkpt lat="42.455823973389286" lon="12.62604466069621"><ele>409.0</ele><time>2026-04-19T09:56:54.902Z</time></trkpt><trkpt lat="42.4557512074424" lon="12.626136692997713"><ele>409.0</ele><time>2026-04-19T09:56:55.902Z</time></trkpt><trkpt lat="42.4556867396814" lon="12.62624572446151"><ele>409.0</ele><time>2026-04-19T09:56:56.902Z</time></trkpt><trkpt lat="42.45560076544501" lon="12.626320359846373"><ele>409.0</ele><time>2026-04-19T09:56:57.901Z</time></trkpt><trkpt lat="42.45552528242543" lon="12.626409480916706"><ele>410.2</ele><time>2026-04-19T09:56:58.901Z</time></trkpt><trkpt lat="42.45545279117278" lon="12.62650431334401"><ele>411.4</ele><time>2026-04-19T09:56:59.901Z</time></trkpt><trkpt lat="42.45538366854477" lon="12.626600752762194"><ele>412.6</ele><time>2026-04-19T09:57:00.901Z</time></trkpt><trkpt lat="42.455316067090536" lon="12.626689987670552"><ele>413.8</ele><time>2026-04-19T09:57:01.901Z</time></trkpt><trkpt lat="42.455256217036215" lon="12.626771367069546"><ele>415.0</ele><time>2026-04-19T09:57:02.901Z</time></trkpt><trkpt lat="42.45519022611758" lon="12.626841179448416"><ele>415.00000000000006</ele><time>2026-04-19T09:57:03.901Z</time></trkpt><trkpt lat="42.45512224877565" lon="12.62690845252162"><ele>415.0</ele><time>2026-04-19T09:57:04.901Z</time></trkpt><trkpt lat="42.45504964755165" lon="12.626970797712012"><ele>415.0</ele><time>2026-04-19T09:57:05.901Z</time></trkpt><trkpt lat="42.454974059536944" lon="12.627017656936946"><ele>415.0</ele><time>2026-04-19T09:57:06.901Z</time></trkpt><trkpt lat="42.454902310223325" lon="12.627076791038489"><ele>415.00000000000006</ele><time>2026-04-19T09:57:07.901Z</time></trkpt><trkpt lat="42.4548404401312" lon="12.627141844776585"><ele>415.0</ele><time>2026-04-19T09:57:08.901Z</time></trkpt><trkpt lat="42.454772604666644" lon="12.62715055853558"><ele>415.1666666666667</ele><time>2026-04-19T09:57:09.901Z</time></trkpt><trkpt lat="42.45467232810372" lon="12.627163606212848"><ele>415.33333333333337</ele><time>2026-04-19T09:57:11.901Z</time></trkpt><trkpt lat="42.454607309333284" lon="12.62716403165662"><ele>415.5</ele><time>2026-04-19T09:57:12.901Z</time></trkpt><trkpt lat="42.45454437915204" lon="12.62713348068934"><ele>415.66666666666663</ele><time>2026-04-19T09:57:13.901Z</time></trkpt><trkpt lat="42.45447542348802" lon="12.627108224071948"><ele>415.8333333333333</ele><time>2026-04-19T09:57:14.901Z</time></trkpt><trkpt lat="42.454403359954576" lon="12.627105052340358"><ele>416.0</ele><time>2026-04-19T09:57:15.901Z</time></trkpt><trkpt lat="42.45430903043383" lon="12.627105647191547"><ele>416.3333333333333</ele><time>2026-04-19T09:57:16.901Z</time></trkpt><trkpt lat="42.45423142777697" lon="12.627170540073383"><ele>416.66666666666663</ele><time>2026-04-19T09:57:17.901Z</time></trkpt><trkpt lat="42.454151864505484" lon="12.627215854116024"><ele>417.0</ele><time>2026-04-19T09:57:18.901Z</time></trkpt><trkpt lat="42.454065407702004" lon="12.627241682826204"><ele>417.33333333333337</ele><time>2026-04-19T09:57:19.901Z</time></trkpt><trkpt lat="42.453988031094866" lon="12.627288329572922"><ele>417.6666666666667</ele><time>2026-04-19T09:57:20.903Z</time></trkpt><trkpt lat="42.45391762721852" lon="12.627313169102935"><ele>418.0</ele><time>2026-04-19T09:57:21.904Z</time></trkpt><trkpt lat="42.453850852560386" lon="12.62729870020199"><ele>419.33333333333337</ele><time>2026-04-19T09:57:22.904Z</time></trkpt><trkpt lat="42.45377954090069" lon="12.627295408915666"><ele>420.6666666666667</ele><time>2026-04-19T09:57:23.903Z</time></trkpt><trkpt lat="42.45371147208721" lon="12.627206402586792"><ele>422.0</ele><time>2026-04-19T09:57:24.904Z</time></trkpt><trkpt lat="42.4536387943047" lon="12.627142264704275"><ele>423.33333333333337</ele><time>2026-04-19T09:57:25.904Z</time></trkpt><trkpt lat="42.453578388310156" lon="12.627091818777966"><ele>424.6666666666667</ele><time>2026-04-19T09:57:26.903Z</time></trkpt><trkpt lat="42.45351976776224" lon="12.627049766841829"><ele>426.0</ele><time>2026-04-19T09:57:27.903Z</time></trkpt><trkpt lat="42.45345938311234" lon="12.627016768367918"><ele>426.0</ele><time>2026-04-19T09:57:28.903Z</time></trkpt><trkpt lat="42.45338831759041" lon="12.627012961592428"><ele>426.0</ele><time>2026-04-19T09:57:29.903Z</time></trkpt><trkpt lat="42.45332268873511" lon="12.6270103109176"><ele>426.0</ele><time>2026-04-19T09:57:30.903Z</time></trkpt><trkpt lat="42.453241995460154" lon="12.627028045732652"><ele>426.0</ele><time>2026-04-19T09:57:31.903Z</time></trkpt><trkpt lat="42.45315668848755" lon="12.627067396642122"><ele>426.0</ele><time>2026-04-19T09:57:32.903Z</time></trkpt><trkpt lat="42.453075677943204" lon="12.62705880112214"><ele>426.0</ele><time>2026-04-19T09:57:33.903Z</time></trkpt><trkpt lat="42.45300248298128" lon="12.627069657088997"><ele>425.1666666666667</ele><time>2026-04-19T09:57:34.903Z</time></trkpt><trkpt lat="42.45291936377171" lon="12.627084812110903"><ele>424.33333333333337</ele><time>2026-04-19T09:57:35.903Z</time></trkpt><trkpt lat="42.45283694676095" lon="12.627136076479882"><ele>423.5</ele><time>2026-04-19T09:57:36.903Z</time></trkpt><trkpt lat="42.45275778343721" lon="12.627166430126978"><ele>422.6666666666667</ele><time>2026-04-19T09:57:37.903Z</time></trkpt><trkpt lat="42.452682701072675" lon="12.627214628288598"><ele>421.83333333333337</ele><time>2026-04-19T09:57:38.903Z</time></trkpt><trkpt lat="42.452601959399644" lon="12.627248424570235"><ele>421.0</ele><time>2026-04-19T09:57:39.903Z</time></trkpt><trkpt lat="42.45252523229305" lon="12.627283688837844"><ele>421.00000000000006</ele><time>2026-04-19T09:57:40.903Z</time></trkpt><trkpt lat="42.452445429117226" lon="12.627315352166482"><ele>421.0</ele><time>2026-04-19T09:57:41.903Z</time></trkpt><trkpt lat="42.452361950708145" lon="12.627345544050511"><ele>421.0</ele><time>2026-04-19T09:57:42.903Z</time></trkpt><trkpt lat="42.45227327435372" lon="12.627371172417677"><ele>421.0</ele><time>2026-04-19T09:57:43.903Z</time></trkpt><trkpt lat="42.452183974043535" lon="12.627396638408205"><ele>421.00000000000006</ele><time>2026-04-19T09:57:44.902Z</time></trkpt><trkpt lat="42.45209527766071" lon="12.627424787645285"><ele>421.0</ele><time>2026-04-19T09:57:45.902Z</time></trkpt><trkpt lat="42.45201506665157" lon="12.627459501809586"><ele>420.83333333333337</ele><time>2026-04-19T09:57:46.902Z</time></trkpt><trkpt lat="42.45195247081882" lon="12.627490634838242"><ele>420.6666666666667</ele><time>2026-04-19T09:57:47.902Z</time></trkpt><trkpt lat="42.45187758521246" lon="12.627523833353186"><ele>420.5</ele><time>2026-04-19T09:57:49.902Z</time></trkpt><trkpt lat="42.45177408400668" lon="12.627515898606173"><ele>420.33333333333337</ele><time>2026-04-19T09:57:51.902Z</time></trkpt><trkpt lat="42.45170396100433" lon="12.627499112812306"><ele>420.1666666666667</ele><time>2026-04-19T09:57:52.902Z</time></trkpt><trkpt lat="42.451628878408684" lon="12.627483932191288"><ele>420.0</ele><time>2026-04-19T09:57:53.902Z</time></trkpt><trkpt lat="42.45155004401234" lon="12.627477847493443"><ele>420.0</ele><time>2026-04-19T09:57:54.902Z</time></trkpt><trkpt lat="42.45148118357404" lon="12.62748343631694"><ele>420.0</ele><time>2026-04-19T09:57:55.902Z</time></trkpt><trkpt lat="42.45138241362398" lon="12.627440250817171"><ele>420.0</ele><time>2026-04-19T09:57:57.902Z</time></trkpt><trkpt lat="42.45130585291655" lon="12.627411382256822"><ele>420.0</ele><time>2026-04-19T09:57:59.902Z</time></trkpt><trkpt lat="42.45119824855576" lon="12.627346763699123"><ele>420.0</ele><time>2026-04-19T09:58:01.902Z</time></trkpt><trkpt lat="42.451105582582514" lon="12.627272945228029"><ele>421.0</ele><time>2026-04-19T09:58:03.902Z</time></trkpt><trkpt lat="42.4510234803986" lon="12.627200346859928"><ele>422.0</ele><time>2026-04-19T09:58:05.902Z</time></trkpt><trkpt lat="42.45094400822798" lon="12.627093658023853"><ele>423.0</ele><time>2026-04-19T09:58:07.902Z</time></trkpt><trkpt lat="42.45086470172303" lon="12.627038957121917"><ele>424.0</ele><time>2026-04-19T09:58:09.902Z</time></trkpt><trkpt lat="42.45080208268572" lon="12.627026156736127"><ele>425.0</ele><time>2026-04-19T09:58:15.901Z</time></trkpt><trkpt lat="42.45077820925792" lon="12.626915835106182"><ele>426.0</ele><time>2026-04-19T09:58:23.901Z</time></trkpt><trkpt lat="42.450807879825426" lon="12.626807903136624"><ele>423.8333333333333</ele><time>2026-04-19T09:58:26.901Z</time></trkpt><trkpt lat="42.45083189694959" lon="12.626695008414298"><ele>421.66666666666663</ele><time>2026-04-19T09:58:36.901Z</time></trkpt><trkpt lat="42.45088814130615" lon="12.626636136789864"><ele>419.5</ele><time>2026-04-19T09:58:38.901Z</time></trkpt><trkpt lat="42.45095868574551" lon="12.62667551805888"><ele>417.3333333333333</ele><time>2026-04-19T09:58:39.9Z</time></trkpt><trkpt lat="42.4510568008309" lon="12.62665840454653"><ele>415.16666666666663</ele><time>2026-04-19T09:58:42.9Z</time></trkpt><trkpt lat="42.45114234216978" lon="12.626666984998163"><ele>413.0</ele><time>2026-04-19T09:58:44.9Z</time></trkpt><trkpt lat="42.45123988978321" lon="12.626665220444213"><ele>412.99999999999994</ele><time>2026-04-19T09:58:46.9Z</time></trkpt><trkpt lat="42.45133119294722" lon="12.626650240367457"><ele>413.0</ele><time>2026-04-19T09:58:48.9Z</time></trkpt><trkpt lat="42.45139772220117" lon="12.626626653646102"><ele>413.0</ele><time>2026-04-19T09:58:52.9Z</time></trkpt><trkpt lat="42.45130702105182" lon="12.62664282875823"><ele>413.0</ele><time>2026-04-19T09:59:16.899Z</time></trkpt><trkpt lat="42.4511971722067" lon="12.626668122437161"><ele>412.99999999999994</ele><time>2026-04-19T09:59:18.899Z</time></trkpt><trkpt lat="42.45112644872169" lon="12.626666615074395"><ele>413.0</ele><time>2026-04-19T09:59:19.899Z</time></trkpt><trkpt lat="42.45101347680286" lon="12.626664799884564"><ele>412.99999999999994</ele><time>2026-04-19T09:59:21.899Z</time></trkpt><trkpt lat="42.45093540876303" lon="12.626650471580577"><ele>413.0</ele><time>2026-04-19T09:59:23.899Z</time></trkpt><trkpt lat="42.45087506116571" lon="12.626678518963294"><ele>413.0</ele><time>2026-04-19T09:59:25.899Z</time></trkpt><trkpt lat="42.450795022088116" lon="12.62673722589716"><ele>413.0</ele><time>2026-04-19T09:59:28.901Z</time></trkpt><trkpt lat="42.45079292226547" lon="12.626891236711138"><ele>412.99999999999994</ele><time>2026-04-19T09:59:30.901Z</time></trkpt><trkpt lat="42.45074647104737" lon="12.626771230359756"><ele>413.0</ele><time>2026-04-19T09:59:32.901Z</time></trkpt><trkpt lat="42.4508532196289" lon="12.62707583463513"><ele>415.59999999999997</ele><time>2026-04-19T09:59:34.901Z</time></trkpt><trkpt lat="42.450942482768035" lon="12.62714773323011"><ele>418.2</ele><time>2026-04-19T09:59:44.901Z</time></trkpt><trkpt lat="42.451038829769594" lon="12.627257903055854"><ele>420.8</ele><time>2026-04-19T09:59:46.901Z</time></trkpt><trkpt lat="42.45109202062868" lon="12.627320677563615"><ele>423.4</ele><time>2026-04-19T09:59:47.901Z</time></trkpt><trkpt lat="42.45116664693192" lon="12.627372733169802"><ele>426.0</ele><time>2026-04-19T09:59:48.901Z</time></trkpt><trkpt lat="42.4512347070316" lon="12.62740644631014"><ele>426.0</ele><time>2026-04-19T09:59:49.901Z</time></trkpt><trkpt lat="42.451315413037975" lon="12.627440695203752"><ele>426.0</ele><time>2026-04-19T09:59:51.901Z</time></trkpt><trkpt lat="42.45122199610074" lon="12.627535490050487"><ele>426.0</ele><time>2026-04-19T09:59:57.9Z</time></trkpt><trkpt lat="42.45114896054548" lon="12.627547511910187"><ele>426.0</ele><time>2026-04-19T09:59:58.9Z</time></trkpt><trkpt lat="42.451024057357" lon="12.627571838790766"><ele>426.0</ele><time>2026-04-19T10:00:00.9Z</time></trkpt><trkpt lat="42.45090504657759" lon="12.627581304166787"><ele>426.0</ele><time>2026-04-19T10:00:02.9Z</time></trkpt><trkpt lat="42.450793053443874" lon="12.627606365433294"><ele>426.0</ele><time>2026-04-19T10:00:04.9Z</time></trkpt><trkpt lat="42.45071286378046" lon="12.627609179220867"><ele>426.0</ele><time>2026-04-19T10:00:07.9Z</time></trkpt><trkpt lat="42.45065672587395" lon="12.627567617260292"><ele>426.0</ele><time>2026-04-19T10:01:55.898Z</time></trkpt><trkpt lat="42.45071491206925" lon="12.627607010506582"><ele>426.0</ele><time>2026-04-19T10:03:56.895Z</time></trkpt><trkpt lat="42.45079958004399" lon="12.627600674523201"><ele>426.0</ele><time>2026-04-19T10:03:58.895Z</time></trkpt><trkpt lat="42.45088996163656" lon="12.627613663883652"><ele>426.0</ele><time>2026-04-19T10:04:00.895Z</time></trkpt><trkpt lat="42.45098044069265" lon="12.627603244268862"><ele>426.0</ele><time>2026-04-19T10:04:02.895Z</time></trkpt><trkpt lat="42.451082962516494" lon="12.627577991786104"><ele>426.0</ele><time>2026-04-19T10:04:04.894Z</time></trkpt><trkpt lat="42.451191499167244" lon="12.627417508384388"><ele>426.0</ele><time>2026-04-19T10:04:05.894Z</time></trkpt><trkpt lat="42.45126760832396" lon="12.627468612011372"><ele>426.0</ele><time>2026-04-19T10:04:07.894Z</time></trkpt><trkpt lat="42.451374045857655" lon="12.627504646199126"><ele>425.0</ele><time>2026-04-19T10:04:09.894Z</time></trkpt><trkpt lat="42.451437706171795" lon="12.627523176051993"><ele>424.0</ele><time>2026-04-19T10:04:10.894Z</time></trkpt><trkpt lat="42.45150208661667" lon="12.62751214671091"><ele>423.0</ele><time>2026-04-19T10:04:11.894Z</time></trkpt><trkpt lat="42.4515704935938" lon="12.627513395851773"><ele>422.0</ele><time>2026-04-19T10:04:12.894Z</time></trkpt><trkpt lat="42.45169727529399" lon="12.627525852753765"><ele>421.0</ele><time>2026-04-19T10:04:14.894Z</time></trkpt><trkpt lat="42.45176503097172" lon="12.62755024197942"><ele>420.0</ele><time>2026-04-19T10:04:15.894Z</time></trkpt><trkpt lat="42.45184236677595" lon="12.62761174849968"><ele>420.0</ele><time>2026-04-19T10:04:17.894Z</time></trkpt><trkpt lat="42.4518603147965" lon="12.627699519673175"><ele>420.0</ele><time>2026-04-19T10:04:19.894Z</time></trkpt><trkpt lat="42.4518263777758" lon="12.627801648650378"><ele>420.0</ele><time>2026-04-19T10:04:21.894Z</time></trkpt><trkpt lat="42.451785427307" lon="12.627881227201023"><ele>420.0</ele><time>2026-04-19T10:04:23.894Z</time></trkpt><trkpt lat="42.45171116722045" lon="12.628009219323546"><ele>420.0</ele><time>2026-04-19T10:04:25.894Z</time></trkpt><trkpt lat="42.45165159401054" lon="12.628087528049438"><ele>420.0</ele><time>2026-04-19T10:04:26.894Z</time></trkpt><trkpt lat="42.451578456122036" lon="12.628165247896918"><ele>419.0</ele><time>2026-04-19T10:04:27.894Z</time></trkpt><trkpt lat="42.45148313645018" lon="12.628236288192216"><ele>418.0</ele><time>2026-04-19T10:04:28.894Z</time></trkpt><trkpt lat="42.45138691539512" lon="12.628297223215286"><ele>417.0</ele><time>2026-04-19T10:04:29.894Z</time></trkpt><trkpt lat="42.451287368527474" lon="12.628346315120067"><ele>416.0</ele><time>2026-04-19T10:04:30.894Z</time></trkpt><trkpt lat="42.451186404150995" lon="12.628400674190168"><ele>415.0</ele><time>2026-04-19T10:04:31.894Z</time></trkpt><trkpt lat="42.45109083981058" lon="12.628471422884576"><ele>415.0</ele><time>2026-04-19T10:04:32.893Z</time></trkpt><trkpt lat="42.45099883244244" lon="12.628550106837343"><ele>415.0</ele><time>2026-04-19T10:04:33.893Z</time></trkpt><trkpt lat="42.450919080383095" lon="12.628617533075044"><ele>415.0</ele><time>2026-04-19T10:04:34.893Z</time></trkpt><trkpt lat="42.45085676814867" lon="12.628673681352183"><ele>415.0</ele><time>2026-04-19T10:04:35.893Z</time></trkpt><trkpt lat="42.45080515540159" lon="12.628815141190653"><ele>415.0</ele><time>2026-04-19T10:04:37.893Z</time></trkpt><trkpt lat="42.45085554279826" lon="12.628910034217675"><ele>412.83333333333337</ele><time>2026-04-19T10:04:38.893Z</time></trkpt><trkpt lat="42.45091705898991" lon="12.628964343711605"><ele>410.6666666666667</ele><time>2026-04-19T10:04:39.893Z</time></trkpt><trkpt lat="42.45099497787956" lon="12.628973166835376"><ele>408.5</ele><time>2026-04-19T10:04:40.893Z</time></trkpt><trkpt lat="42.45108377502071" lon="12.628954292875301"><ele>406.33333333333337</ele><time>2026-04-19T10:04:41.893Z</time></trkpt><trkpt lat="42.45117093769318" lon="12.628935983706825"><ele>404.1666666666667</ele><time>2026-04-19T10:04:42.893Z</time></trkpt><trkpt lat="42.45127557564207" lon="12.628911485088981"><ele>402.0</ele><time>2026-04-19T10:04:43.893Z</time></trkpt><trkpt lat="42.45138472628941" lon="12.628898225150731"><ele>400.6666666666667</ele><time>2026-04-19T10:04:44.893Z</time></trkpt><trkpt lat="42.45149732990672" lon="12.628877702719137"><ele>399.33333333333337</ele><time>2026-04-19T10:04:45.893Z</time></trkpt><trkpt lat="42.451607063473325" lon="12.628863068547702"><ele>398.0</ele><time>2026-04-19T10:04:46.893Z</time></trkpt><trkpt lat="42.4516927925082" lon="12.628851440565633"><ele>396.6666666666667</ele><time>2026-04-19T10:04:47.893Z</time></trkpt><trkpt lat="42.4517600889453" lon="12.628861809748713"><ele>395.33333333333337</ele><time>2026-04-19T10:04:48.893Z</time></trkpt><trkpt lat="42.45182384718519" lon="12.62887770407677"><ele>394.0</ele><time>2026-04-19T10:04:50.893Z</time></trkpt><trkpt lat="42.451753047557396" lon="12.628957386622371"><ele>394.00000000000006</ele><time>2026-04-19T10:04:54.893Z</time></trkpt><trkpt lat="42.45168935036467" lon="12.629005985930608"><ele>394.0</ele><time>2026-04-19T10:04:55.893Z</time></trkpt><trkpt lat="42.451620917147004" lon="12.629038495146157"><ele>394.0</ele><time>2026-04-19T10:04:56.893Z</time></trkpt><trkpt lat="42.45154983320577" lon="12.629078082352162"><ele>394.0</ele><time>2026-04-19T10:04:57.893Z</time></trkpt><trkpt lat="42.45147532871679" lon="12.629130563328793"><ele>394.00000000000006</ele><time>2026-04-19T10:04:58.893Z</time></trkpt><trkpt lat="42.45138755711885" lon="12.629168868814673"><ele>394.0</ele><time>2026-04-19T10:04:59.892Z</time></trkpt><trkpt lat="42.451305562252976" lon="12.629234218320816"><ele>393.79999999999995</ele><time>2026-04-19T10:05:00.892Z</time></trkpt><trkpt lat="42.451218467909165" lon="12.629309345372963"><ele>393.59999999999997</ele><time>2026-04-19T10:05:01.892Z</time></trkpt><trkpt lat="42.451129211071745" lon="12.629388081021828"><ele>393.4</ele><time>2026-04-19T10:05:02.892Z</time></trkpt><trkpt lat="42.45103850678122" lon="12.629458553082047"><ele>393.2</ele><time>2026-04-19T10:05:03.892Z</time></trkpt><trkpt lat="42.450944317025275" lon="12.629523238278978"><ele>393.0</ele><time>2026-04-19T10:05:04.892Z</time></trkpt><trkpt lat="42.45084205985339" lon="12.629583864859406"><ele>393.0</ele><time>2026-04-19T10:05:05.892Z</time></trkpt><trkpt lat="42.450737842228605" lon="12.62963841637723"><ele>393.0</ele><time>2026-04-19T10:05:06.892Z</time></trkpt><trkpt lat="42.45062628955284" lon="12.629696542497044"><ele>393.0</ele><time>2026-04-19T10:05:07.892Z</time></trkpt><trkpt lat="42.45051056852083" lon="12.629763911143524"><ele>393.0</ele><time>2026-04-19T10:05:08.892Z</time></trkpt><trkpt lat="42.450399967165865" lon="12.629840840508345"><ele>394.59999999999997</ele><time>2026-04-19T10:05:09.892Z</time></trkpt><trkpt lat="42.45030967757998" lon="12.62992591004529"><ele>396.2</ele><time>2026-04-19T10:05:10.892Z</time></trkpt><trkpt lat="42.450236857440615" lon="12.630025508113915"><ele>397.8</ele><time>2026-04-19T10:05:11.892Z</time></trkpt><trkpt lat="42.45016435769385" lon="12.6301077532655"><ele>399.4</ele><time>2026-04-19T10:05:12.892Z</time></trkpt><trkpt lat="42.45008485091552" lon="12.630199808164232"><ele>401.0</ele><time>2026-04-19T10:05:13.892Z</time></trkpt><trkpt lat="42.4499968889593" lon="12.630286865303336"><ele>397.75</ele><time>2026-04-19T10:05:14.892Z</time></trkpt><trkpt lat="42.449895506937246" lon="12.630359094598669"><ele>394.5</ele><time>2026-04-19T10:05:15.892Z</time></trkpt><trkpt lat="42.4497779624209" lon="12.63040502374768"><ele>391.25</ele><time>2026-04-19T10:05:16.892Z</time></trkpt><trkpt lat="42.44964887865966" lon="12.630421508283142"><ele>388.0</ele><time>2026-04-19T10:05:17.892Z</time></trkpt><trkpt lat="42.449512189838856" lon="12.630407498669957"><ele>388.0</ele><time>2026-04-19T10:05:18.892Z</time></trkpt><trkpt lat="42.44937359905736" lon="12.630392642134876"><ele>388.0</ele><time>2026-04-19T10:05:19.892Z</time></trkpt><trkpt lat="42.44923205233909" lon="12.630385386768685"><ele>388.0</ele><time>2026-04-19T10:05:20.892Z</time></trkpt><trkpt lat="42.44909295526013" lon="12.630376955980068"><ele>388.0</ele><time>2026-04-19T10:05:21.892Z</time></trkpt><trkpt lat="42.44896008566484" lon="12.630377969898035"><ele>388.0</ele><time>2026-04-19T10:05:22.892Z</time></trkpt><trkpt lat="42.4488288511743" lon="12.630394916638407"><ele>388.0</ele><time>2026-04-19T10:05:23.892Z</time></trkpt><trkpt lat="42.4487005739066" lon="12.630398338583234"><ele>388.0</ele><time>2026-04-19T10:05:24.892Z</time></trkpt><trkpt lat="42.44857552503474" lon="12.630379584744947"><ele>388.0</ele><time>2026-04-19T10:05:25.892Z</time></trkpt><trkpt lat="42.44845630903036" lon="12.630318787415588"><ele>390.0</ele><time>2026-04-19T10:05:26.892Z</time></trkpt><trkpt lat="42.44833987338419" lon="12.630236121177074"><ele>392.0</ele><time>2026-04-19T10:05:27.891Z</time></trkpt><trkpt lat="42.44822380357023" lon="12.630135057197439"><ele>394.0</ele><time>2026-04-19T10:05:28.891Z</time></trkpt><trkpt lat="42.44810761523414" lon="12.630035261526332"><ele>396.0</ele><time>2026-04-19T10:05:29.891Z</time></trkpt><trkpt lat="42.44799066414721" lon="12.62992291920891"><ele>392.0</ele><time>2026-04-19T10:05:30.891Z</time></trkpt><trkpt lat="42.44787341244848" lon="12.629800086811708"><ele>388.0</ele><time>2026-04-19T10:05:31.891Z</time></trkpt><trkpt lat="42.44775419734585" lon="12.629673583118818"><ele>384.0</ele><time>2026-04-19T10:05:32.891Z</time></trkpt><trkpt lat="42.44763796332161" lon="12.629542916507617"><ele>385.75</ele><time>2026-04-19T10:05:33.891Z</time></trkpt><trkpt lat="42.447528537244345" lon="12.629411507050001"><ele>387.5</ele><time>2026-04-19T10:05:34.891Z</time></trkpt><trkpt lat="42.44741921716457" lon="12.629278766094762"><ele>389.25</ele><time>2026-04-19T10:05:35.891Z</time></trkpt><trkpt lat="42.44731505918825" lon="12.629135570679448"><ele>391.0</ele><time>2026-04-19T10:05:36.891Z</time></trkpt><trkpt lat="42.447218700831755" lon="12.628980239449143"><ele>391.0</ele><time>2026-04-19T10:05:37.891Z</time></trkpt><trkpt lat="42.44713190514086" lon="12.628810276116928"><ele>391.0</ele><time>2026-04-19T10:05:38.891Z</time></trkpt><trkpt lat="42.447055121860004" lon="12.628635976717504"><ele>391.0</ele><time>2026-04-19T10:05:39.891Z</time></trkpt><trkpt lat="42.446990252303735" lon="12.628484113564165"><ele>391.0</ele><time>2026-04-19T10:05:40.891Z</time></trkpt><trkpt lat="42.44692689998672" lon="12.628351758946296"><ele>388.00000000000006</ele><time>2026-04-19T10:05:41.891Z</time></trkpt><trkpt lat="42.44686626420407" lon="12.628248243309793"><ele>385.0</ele><time>2026-04-19T10:05:42.891Z</time></trkpt><trkpt lat="42.44679838448322" lon="12.62818610965625"><ele>382.0</ele><time>2026-04-19T10:05:43.891Z</time></trkpt><trkpt lat="42.44672194599463" lon="12.628175525544842"><ele>379.0</ele><time>2026-04-19T10:05:44.893Z</time></trkpt><trkpt lat="42.44664734217506" lon="12.628219256099323"><ele>376.0</ele><time>2026-04-19T10:05:45.892Z</time></trkpt><trkpt lat="42.446580639638455" lon="12.62831110199002"><ele>373.0</ele><time>2026-04-19T10:05:46.892Z</time></trkpt><trkpt lat="42.44651862714368" lon="12.628442464058914"><ele>373.0</ele><time>2026-04-19T10:05:47.893Z</time></trkpt><trkpt lat="42.446449539763144" lon="12.628574113060791"><ele>373.0</ele><time>2026-04-19T10:05:48.893Z</time></trkpt><trkpt lat="42.44635000659293" lon="12.628689798586892"><ele>373.0</ele><time>2026-04-19T10:05:49.893Z</time></trkpt><trkpt lat="42.44621447210273" lon="12.628763478748066"><ele>373.0</ele><time>2026-04-19T10:05:50.892Z</time></trkpt><trkpt lat="42.44607839284554" lon="12.628864664232063"><ele>368.66666666666663</ele><time>2026-04-19T10:05:51.892Z</time></trkpt><trkpt lat="42.44592594321131" lon="12.628948783618531"><ele>364.3333333333333</ele><time>2026-04-19T10:05:52.892Z</time></trkpt><trkpt lat="42.44576824113736" lon="12.629037659957005"><ele>360.0</ele><time>2026-04-19T10:05:53.892Z</time></trkpt><trkpt lat="42.44560848932123" lon="12.629122363207196"><ele>358.3333333333333</ele><time>2026-04-19T10:05:54.892Z</time></trkpt><trkpt lat="42.44545456497133" lon="12.629199105490002"><ele>356.66666666666663</ele><time>2026-04-19T10:05:55.892Z</time></trkpt><trkpt lat="42.4453032636066" lon="12.629279479080356"><ele>355.0</ele><time>2026-04-19T10:05:56.892Z</time></trkpt><trkpt lat="42.44515550527933" lon="12.629369634735248"><ele>355.0</ele><time>2026-04-19T10:05:57.892Z</time></trkpt><trkpt lat="42.44500118389668" lon="12.629439045117739"><ele>355.0</ele><time>2026-04-19T10:05:58.892Z</time></trkpt><trkpt lat="42.4448563370858" lon="12.629540196287016"><ele>355.0</ele><time>2026-04-19T10:05:59.892Z</time></trkpt><trkpt lat="42.44471028274114" lon="12.629605244016192"><ele>357.5</ele><time>2026-04-19T10:06:00.892Z</time></trkpt><trkpt lat="42.444567399561066" lon="12.629661563519113"><ele>360.0</ele><time>2026-04-19T10:06:01.892Z</time></trkpt><trkpt lat="42.44443191808692" lon="12.629680501371366"><ele>362.5</ele><time>2026-04-19T10:06:02.892Z</time></trkpt><trkpt lat="42.44430194851595" lon="12.629668980481242"><ele>365.0</ele><time>2026-04-19T10:06:03.892Z</time></trkpt><trkpt lat="42.444170465013414" lon="12.629627702790886"><ele>365.0</ele><time>2026-04-19T10:06:04.892Z</time></trkpt><trkpt lat="42.44403785347188" lon="12.629590568511746"><ele>365.0</ele><time>2026-04-19T10:06:05.892Z</time></trkpt><trkpt lat="42.44389617276775" lon="12.62958581496138"><ele>365.0</ele><time>2026-04-19T10:06:06.892Z</time></trkpt><trkpt lat="42.44375595104488" lon="12.629597310586922"><ele>365.0</ele><time>2026-04-19T10:06:07.892Z</time></trkpt><trkpt lat="42.443616646122415" lon="12.6296180895384"><ele>367.5</ele><time>2026-04-19T10:06:08.892Z</time></trkpt><trkpt lat="42.443494687234725" lon="12.629646467381479"><ele>370.0</ele><time>2026-04-19T10:06:09.892Z</time></trkpt><trkpt lat="42.443380108650885" lon="12.629682574940682"><ele>372.5</ele><time>2026-04-19T10:06:10.892Z</time></trkpt><trkpt lat="42.4432715233914" lon="12.629725344380153"><ele>375.0</ele><time>2026-04-19T10:06:11.892Z</time></trkpt><trkpt lat="42.44316746423094" lon="12.629782530326745"><ele>375.0</ele><time>2026-04-19T10:06:12.892Z</time></trkpt><trkpt lat="42.44306885753324" lon="12.629860053466361"><ele>375.0</ele><time>2026-04-19T10:06:13.892Z</time></trkpt><trkpt lat="42.44297782975637" lon="12.629955294166068"><ele>375.0</ele><time>2026-04-19T10:06:14.892Z</time></trkpt><trkpt lat="42.442883078937996" lon="12.630065479036883"><ele>375.0</ele><time>2026-04-19T10:06:15.892Z</time></trkpt><trkpt lat="42.44278798208369" lon="12.630178191483648"><ele>376.0</ele><time>2026-04-19T10:06:16.892Z</time></trkpt><trkpt lat="42.44269457226689" lon="12.630293496587893"><ele>377.0</ele><time>2026-04-19T10:06:17.891Z</time></trkpt><trkpt lat="42.44259860533141" lon="12.630408401219952"><ele>378.0</ele><time>2026-04-19T10:06:18.891Z</time></trkpt><trkpt lat="42.44250331765078" lon="12.630529046231482"><ele>379.0</ele><time>2026-04-19T10:06:19.891Z</time></trkpt><trkpt lat="42.442405226950605" lon="12.630650139904109"><ele>380.25</ele><time>2026-04-19T10:06:20.891Z</time></trkpt><trkpt lat="42.44229489138147" lon="12.630759378848147"><ele>381.5</ele><time>2026-04-19T10:06:21.891Z</time></trkpt><trkpt lat="42.442186020043266" lon="12.630872724664858"><ele>382.75</ele><time>2026-04-19T10:06:22.891Z</time></trkpt><trkpt lat="42.442094080305985" lon="12.6309949020405"><ele>384.0</ele><time>2026-04-19T10:06:23.891Z</time></trkpt><trkpt lat="42.442004050977154" lon="12.63110820645962"><ele>384.5</ele><time>2026-04-19T10:06:24.891Z</time></trkpt><trkpt lat="42.44191711571505" lon="12.63121714452104"><ele>385.0</ele><time>2026-04-19T10:06:25.891Z</time></trkpt><trkpt lat="42.441829160518274" lon="12.631331665111423"><ele>385.5</ele><time>2026-04-19T10:06:26.891Z</time></trkpt><trkpt lat="42.44173934077891" lon="12.631454276607009"><ele>386.0</ele><time>2026-04-19T10:06:27.891Z</time></trkpt><trkpt lat="42.441645230982" lon="12.631572273368366"><ele>386.0</ele><time>2026-04-19T10:06:28.891Z</time></trkpt><trkpt lat="42.441538795891795" lon="12.63167704012198"><ele>386.0</ele><time>2026-04-19T10:06:29.891Z</time></trkpt><trkpt lat="42.44142381095189" lon="12.631758526416519"><ele>386.0</ele><time>2026-04-19T10:06:30.891Z</time></trkpt><trkpt lat="42.4413046389695" lon="12.631815809552286"><ele>386.0</ele><time>2026-04-19T10:06:31.891Z</time></trkpt><trkpt lat="42.44117597542482" lon="12.63184280055977"><ele>387.0</ele><time>2026-04-19T10:06:32.891Z</time></trkpt><trkpt lat="42.44104299950004" lon="12.631856284916266"><ele>388.0</ele><time>2026-04-19T10:06:33.891Z</time></trkpt><trkpt lat="42.440912522659964" lon="12.63184935499649"><ele>389.0</ele><time>2026-04-19T10:06:34.891Z</time></trkpt><trkpt lat="42.44077696216211" lon="12.63184492130446"><ele>390.0</ele><time>2026-04-19T10:06:35.891Z</time></trkpt><trkpt lat="42.440638629199604" lon="12.631852494866777"><ele>390.0</ele><time>2026-04-19T10:06:36.891Z</time></trkpt><trkpt lat="42.440502055223504" lon="12.631853326073376"><ele>390.0</ele><time>2026-04-19T10:06:37.891Z</time></trkpt><trkpt lat="42.4403576165442" lon="12.631825872531957"><ele>390.0</ele><time>2026-04-19T10:06:38.891Z</time></trkpt><trkpt lat="42.440210023409264" lon="12.63185164921079"><ele>390.0</ele><time>2026-04-19T10:06:39.891Z</time></trkpt><trkpt lat="42.440051765978" lon="12.631836756272387"><ele>391.75</ele><time>2026-04-19T10:06:40.891Z</time></trkpt><trkpt lat="42.43992504941221" lon="12.631816055039948"><ele>393.5</ele><time>2026-04-19T10:06:41.891Z</time></trkpt><trkpt lat="42.43980959236921" lon="12.631787376479744"><ele>395.25</ele><time>2026-04-19T10:06:42.891Z</time></trkpt><trkpt lat="42.439698013052535" lon="12.631853108203988"><ele>397.0</ele><time>2026-04-19T10:06:43.891Z</time></trkpt><trkpt lat="42.4396001625758" lon="12.63193107439715"><ele>399.5</ele><time>2026-04-19T10:06:44.891Z</time></trkpt><trkpt lat="42.43951090537466" lon="12.632022308425329"><ele>402.0</ele><time>2026-04-19T10:06:45.89Z</time></trkpt><trkpt lat="42.43943529173972" lon="12.632136298714554"><ele>404.5</ele><time>2026-04-19T10:06:46.89Z</time></trkpt><trkpt lat="42.439353875623866" lon="12.63224514760738"><ele>407.0</ele><time>2026-04-19T10:06:47.89Z</time></trkpt><trkpt lat="42.439337039727725" lon="12.63240218102876"><ele>407.0</ele><time>2026-04-19T10:06:48.89Z</time></trkpt><trkpt lat="42.43930074557155" lon="12.63255589070914"><ele>407.0</ele><time>2026-04-19T10:06:49.89Z</time></trkpt><trkpt lat="42.439230675130304" lon="12.632693660902298"><ele>407.0</ele><time>2026-04-19T10:06:50.89Z</time></trkpt><trkpt lat="42.439173749288635" lon="12.632838253234041"><ele>407.0</ele><time>2026-04-19T10:06:51.89Z</time></trkpt><trkpt lat="42.43911340886738" lon="12.632981548471617"><ele>407.0</ele><time>2026-04-19T10:06:52.89Z</time></trkpt><trkpt lat="42.439051919088904" lon="12.63313372675489"><ele>407.0</ele><time>2026-04-19T10:06:53.89Z</time></trkpt><trkpt lat="42.4389667202267" lon="12.633259020613888"><ele>407.0</ele><time>2026-04-19T10:06:54.89Z</time></trkpt><trkpt lat="42.43887115607938" lon="12.633358295777946"><ele>407.0</ele><time>2026-04-19T10:06:55.89Z</time></trkpt><trkpt lat="42.438762692495864" lon="12.633444043187492"><ele>407.0</ele><time>2026-04-19T10:06:56.89Z</time></trkpt><trkpt lat="42.43865208399362" lon="12.633524640246746"><ele>407.0</ele><time>2026-04-19T10:06:57.89Z</time></trkpt><trkpt lat="42.4385439560165" lon="12.633596687998146"><ele>407.0</ele><time>2026-04-19T10:06:58.89Z</time></trkpt><trkpt lat="42.43842947306061" lon="12.633663305253588"><ele>407.0</ele><time>2026-04-19T10:06:59.89Z</time></trkpt><trkpt lat="42.43831557625005" lon="12.63373217105991"><ele>405.5</ele><time>2026-04-19T10:07:00.89Z</time></trkpt><trkpt lat="42.43820063959215" lon="12.633806078625017"><ele>404.0</ele><time>2026-04-19T10:07:01.89Z</time></trkpt><trkpt lat="42.43808857905894" lon="12.633880264593921"><ele>402.5</ele><time>2026-04-19T10:07:02.89Z</time></trkpt><trkpt lat="42.437988167124445" lon="12.633944376345024"><ele>401.0</ele><time>2026-04-19T10:07:03.89Z</time></trkpt><trkpt lat="42.43790153666746" lon="12.633992748124854"><ele>402.99999999999994</ele><time>2026-04-19T10:07:04.89Z</time></trkpt><trkpt lat="42.437823816047484" lon="12.634024453096053"><ele>405.0</ele><time>2026-04-19T10:07:05.89Z</time></trkpt><trkpt lat="42.43774402798328" lon="12.634053675176942"><ele>407.0</ele><time>2026-04-19T10:07:06.89Z</time></trkpt><trkpt lat="42.4376610840716" lon="12.634087910816017"><ele>409.0</ele><time>2026-04-19T10:07:07.89Z</time></trkpt><trkpt lat="42.43757511023007" lon="12.634105635634887"><ele>410.99999999999994</ele><time>2026-04-19T10:07:08.89Z</time></trkpt><trkpt lat="42.43749069930512" lon="12.634113123540057"><ele>413.0</ele><time>2026-04-19T10:07:09.89Z</time></trkpt><trkpt lat="42.437407461340804" lon="12.634107314599524"><ele>412.99999999999994</ele><time>2026-04-19T10:07:10.89Z</time></trkpt><trkpt lat="42.43732966593448" lon="12.634095229143872"><ele>413.0</ele><time>2026-04-19T10:07:11.89Z</time></trkpt><trkpt lat="42.43725379863366" lon="12.634095569140316"><ele>413.0</ele><time>2026-04-19T10:07:12.889Z</time></trkpt><trkpt lat="42.43718677075687" lon="12.634118300571979"><ele>413.0</ele><time>2026-04-19T10:07:13.889Z</time></trkpt><trkpt lat="42.43712814444582" lon="12.634169134263834"><ele>412.99999999999994</ele><time>2026-04-19T10:07:14.889Z</time></trkpt><trkpt lat="42.43707309256938" lon="12.634258901324204"><ele>413.0</ele><time>2026-04-19T10:07:15.889Z</time></trkpt><trkpt lat="42.43700380257634" lon="12.634389892508327"><ele>415.3333333333333</ele><time>2026-04-19T10:07:16.889Z</time></trkpt><trkpt lat="42.43690640305203" lon="12.634539549413278"><ele>417.66666666666663</ele><time>2026-04-19T10:07:17.889Z</time></trkpt><trkpt lat="42.43679916885203" lon="12.634715552389519"><ele>420.0</ele><time>2026-04-19T10:07:18.889Z</time></trkpt><trkpt lat="42.43667040562271" lon="12.634913295282935"><ele>420.0</ele><time>2026-04-19T10:07:19.889Z</time></trkpt><trkpt lat="42.436537163577306" lon="12.635105336241683"><ele>420.0</ele><time>2026-04-19T10:07:20.889Z</time></trkpt><trkpt lat="42.43641653211039" lon="12.635289286976432"><ele>420.0</ele><time>2026-04-19T10:07:21.889Z</time></trkpt><trkpt lat="42.43629912794045" lon="12.635475094786322"><ele>421.66666666666663</ele><time>2026-04-19T10:07:22.889Z</time></trkpt><trkpt lat="42.43618158359183" lon="12.6356620915107"><ele>423.3333333333333</ele><time>2026-04-19T10:07:23.889Z</time></trkpt><trkpt lat="42.43605644537857" lon="12.635861374093205"><ele>425.0</ele><time>2026-04-19T10:07:24.889Z</time></trkpt><trkpt lat="42.435936266287314" lon="12.636072728839014"><ele>426.0</ele><time>2026-04-19T10:07:25.889Z</time></trkpt><trkpt lat="42.4358155805002" lon="12.636277075823113"><ele>427.0</ele><time>2026-04-19T10:07:26.889Z</time></trkpt><trkpt lat="42.4357035406754" lon="12.636472407219422"><ele>428.0</ele><time>2026-04-19T10:07:27.889Z</time></trkpt><trkpt lat="42.43560141032698" lon="12.636669639727103"><ele>428.0</ele><time>2026-04-19T10:07:28.889Z</time></trkpt><trkpt lat="42.43550088160538" lon="12.636860683094275"><ele>428.0</ele><time>2026-04-19T10:07:29.889Z</time></trkpt><trkpt lat="42.43539617031891" lon="12.63703952083297"><ele>428.0</ele><time>2026-04-19T10:07:30.889Z</time></trkpt><trkpt lat="42.43528249370548" lon="12.637209309228895"><ele>429.66666666666663</ele><time>2026-04-19T10:07:31.889Z</time></trkpt><trkpt lat="42.43516910936907" lon="12.637387443165329"><ele>431.33333333333337</ele><time>2026-04-19T10:07:32.889Z</time></trkpt><trkpt lat="42.435045036980554" lon="12.63756882927791"><ele>433.0</ele><time>2026-04-19T10:07:33.889Z</time></trkpt><trkpt lat="42.434935422920084" lon="12.637725378527158"><ele>434.0</ele><time>2026-04-19T10:07:34.889Z</time></trkpt><trkpt lat="42.434827562574306" lon="12.637872211095788"><ele>435.0</ele><time>2026-04-19T10:07:35.889Z</time></trkpt><trkpt lat="42.434706220603104" lon="12.63800810045385"><ele>436.0</ele><time>2026-04-19T10:07:36.889Z</time></trkpt><trkpt lat="42.434583217127994" lon="12.638115928662362"><ele>436.0</ele><time>2026-04-19T10:07:37.889Z</time></trkpt><trkpt lat="42.43445560751228" lon="12.638205646415477"><ele>436.0</ele><time>2026-04-19T10:07:38.889Z</time></trkpt><trkpt lat="42.434315907102004" lon="12.638270649164948"><ele>436.0</ele><time>2026-04-19T10:07:39.889Z</time></trkpt><trkpt lat="42.434177246681806" lon="12.638320807459738"><ele>436.0</ele><time>2026-04-19T10:07:40.888Z</time></trkpt><trkpt lat="42.43404594377836" lon="12.638372137024113"><ele>436.0</ele><time>2026-04-19T10:07:41.888Z</time></trkpt><trkpt lat="42.4339206144867" lon="12.638434998484861"><ele>436.0</ele><time>2026-04-19T10:07:42.888Z</time></trkpt><trkpt lat="42.433800670031474" lon="12.63851598456694"><ele>436.0</ele><time>2026-04-19T10:07:43.888Z</time></trkpt><trkpt lat="42.43369119814031" lon="12.638611596476945"><ele>436.0</ele><time>2026-04-19T10:07:44.888Z</time></trkpt><trkpt lat="42.43358872895138" lon="12.638705521132843"><ele>436.4</ele><time>2026-04-19T10:07:45.888Z</time></trkpt><trkpt lat="42.433487225318686" lon="12.63877257381657"><ele>436.8</ele><time>2026-04-19T10:07:46.888Z</time></trkpt><trkpt lat="42.43337990298696" lon="12.638805055897857"><ele>437.19999999999993</ele><time>2026-04-19T10:07:47.888Z</time></trkpt><trkpt lat="42.433277662512744" lon="12.638809246962264"><ele>437.59999999999997</ele><time>2026-04-19T10:07:48.888Z</time></trkpt><trkpt lat="42.433167098189315" lon="12.638784846726823"><ele>438.0</ele><time>2026-04-19T10:07:49.888Z</time></trkpt><trkpt lat="42.43305059152098" lon="12.638722260026583"><ele>436.75</ele><time>2026-04-19T10:07:50.889Z</time></trkpt><trkpt lat="42.432935909897104" lon="12.63867368508575"><ele>435.5</ele><time>2026-04-19T10:07:51.888Z</time></trkpt><trkpt lat="42.432820939773926" lon="12.63862992562114"><ele>434.25</ele><time>2026-04-19T10:07:52.888Z</time></trkpt><trkpt lat="42.43269740056233" lon="12.63858366040003"><ele>433.0</ele><time>2026-04-19T10:07:53.889Z</time></trkpt><trkpt lat="42.43256929019403" lon="12.638539131667269"><ele>436.25</ele><time>2026-04-19T10:07:54.889Z</time></trkpt><trkpt lat="42.43243764373902" lon="12.63849235192968"><ele>439.5</ele><time>2026-04-19T10:07:55.889Z</time></trkpt><trkpt lat="42.432293105686064" lon="12.638457736581847"><ele>442.75</ele><time>2026-04-19T10:07:56.889Z</time></trkpt><trkpt lat="42.43214137410744" lon="12.638429682681412"><ele>446.0</ele><time>2026-04-19T10:07:57.889Z</time></trkpt><trkpt lat="42.43198853412648" lon="12.63839246246984"><ele>447.3333333333333</ele><time>2026-04-19T10:07:58.889Z</time></trkpt><trkpt lat="42.4318302890788" lon="12.638369765023091"><ele>448.66666666666663</ele><time>2026-04-19T10:07:59.888Z</time></trkpt><trkpt lat="42.43167077425476" lon="12.638348928651165"><ele>450.0</ele><time>2026-04-19T10:08:00.889Z</time></trkpt><trkpt lat="42.43150829543088" lon="12.638334505869953"><ele>450.0</ele><time>2026-04-19T10:08:01.889Z</time></trkpt><trkpt lat="42.4313491390572" lon="12.63832057948595"><ele>450.0</ele><time>2026-04-19T10:08:02.888Z</time></trkpt><trkpt lat="42.43119584973662" lon="12.6383105893987"><ele>450.0</ele><time>2026-04-19T10:08:03.889Z</time></trkpt><trkpt lat="42.43105050268487" lon="12.638302144930277"><ele>452.25</ele><time>2026-04-19T10:08:04.889Z</time></trkpt><trkpt lat="42.43091879350882" lon="12.638297089890003"><ele>454.5</ele><time>2026-04-19T10:08:05.889Z</time></trkpt><trkpt lat="42.43079257659585" lon="12.638300476187336"><ele>456.75</ele><time>2026-04-19T10:08:06.889Z</time></trkpt><trkpt lat="42.4306854563352" lon="12.638330410997414"><ele>459.0</ele><time>2026-04-19T10:08:07.889Z</time></trkpt><trkpt lat="42.43059203082926" lon="12.638393954166514"><ele>459.0</ele><time>2026-04-19T10:08:08.888Z</time></trkpt><trkpt lat="42.430512714154574" lon="12.638479669837379"><ele>459.0</ele><time>2026-04-19T10:08:09.888Z</time></trkpt><trkpt lat="42.430442098778386" lon="12.638589416137684"><ele>459.0</ele><time>2026-04-19T10:08:10.888Z</time></trkpt><trkpt lat="42.43037656137418" lon="12.638711290117538"><ele>459.0</ele><time>2026-04-19T10:08:11.888Z</time></trkpt><trkpt lat="42.43031038769037" lon="12.638849233543617"><ele>459.0</ele><time>2026-04-19T10:08:12.888Z</time></trkpt><trkpt lat="42.43023823685033" lon="12.638985583687203"><ele>461.75</ele><time>2026-04-19T10:08:13.888Z</time></trkpt><trkpt lat="42.43016231053084" lon="12.639119643150421"><ele>464.5</ele><time>2026-04-19T10:08:14.888Z</time></trkpt><trkpt lat="42.43007136124849" lon="12.639243127536142"><ele>467.25</ele><time>2026-04-19T10:08:15.888Z</time></trkpt><trkpt lat="42.42997212682633" lon="12.639345960483277"><ele>470.0</ele><time>2026-04-19T10:08:16.888Z</time></trkpt><trkpt lat="42.42986365317287" lon="12.639422656047715"><ele>470.2</ele><time>2026-04-19T10:08:17.888Z</time></trkpt><trkpt lat="42.429758574826565" lon="12.639473975890935"><ele>470.4</ele><time>2026-04-19T10:08:18.888Z</time></trkpt><trkpt lat="42.42965755507435" lon="12.639503488693224"><ele>470.6</ele><time>2026-04-19T10:08:19.888Z</time></trkpt><trkpt lat="42.42955419480225" lon="12.639492281272082"><ele>470.8</ele><time>2026-04-19T10:08:20.888Z</time></trkpt><trkpt lat="42.429467269794365" lon="12.639438277400263"><ele>471.0</ele><time>2026-04-19T10:08:21.888Z</time></trkpt><trkpt lat="42.42939078835331" lon="12.63936341394542"><ele>471.0</ele><time>2026-04-19T10:08:22.888Z</time></trkpt><trkpt lat="42.42932785999231" lon="12.639276297148106"><ele>471.0</ele><time>2026-04-19T10:08:23.888Z</time></trkpt><trkpt lat="42.42927189276528" lon="12.639191719086467"><ele>471.0</ele><time>2026-04-19T10:08:24.888Z</time></trkpt><trkpt lat="42.42923253820172" lon="12.63908865127102"><ele>471.0</ele><time>2026-04-19T10:08:25.888Z</time></trkpt><trkpt lat="42.42916373926702" lon="12.6390159024149"><ele>471.0</ele><time>2026-04-19T10:08:26.888Z</time></trkpt><trkpt lat="42.42908394644406" lon="12.638986907105489"><ele>471.0</ele><time>2026-04-19T10:08:27.888Z</time></trkpt><trkpt lat="42.42899720979618" lon="12.638970333298666"><ele>471.0</ele><time>2026-04-19T10:08:28.888Z</time></trkpt><trkpt lat="42.4288967609971" lon="12.63899689180522"><ele>471.0</ele><time>2026-04-19T10:08:29.888Z</time></trkpt><trkpt lat="42.42878805211375" lon="12.639061971834396"><ele>471.0</ele><time>2026-04-19T10:08:30.888Z</time></trkpt><trkpt lat="42.428689899021165" lon="12.639130880347931"><ele>471.0</ele><time>2026-04-19T10:08:31.888Z</time></trkpt><trkpt lat="42.42857812222005" lon="12.639203495161158"><ele>471.25</ele><time>2026-04-19T10:08:32.888Z</time></trkpt><trkpt lat="42.42845243260517" lon="12.639256194921138"><ele>471.5</ele><time>2026-04-19T10:08:33.888Z</time></trkpt><trkpt lat="42.42832320838008" lon="12.639262928862854"><ele>471.75</ele><time>2026-04-19T10:08:34.888Z</time></trkpt><trkpt lat="42.42819598889952" lon="12.63923540702449"><ele>472.0</ele><time>2026-04-19T10:08:35.887Z</time></trkpt><trkpt lat="42.428079279465585" lon="12.639206054200026"><ele>471.0</ele><time>2026-04-19T10:08:36.887Z</time></trkpt><trkpt lat="42.427959397311085" lon="12.639175566172796"><ele>470.00000000000006</ele><time>2026-04-19T10:08:37.887Z</time></trkpt><trkpt lat="42.427849570005606" lon="12.639134292020541"><ele>469.00000000000006</ele><time>2026-04-19T10:08:38.887Z</time></trkpt><trkpt lat="42.42774711482769" lon="12.639085936963172"><ele>468.0</ele><time>2026-04-19T10:08:39.887Z</time></trkpt><trkpt lat="42.42765138830822" lon="12.639034848989235"><ele>467.0</ele><time>2026-04-19T10:08:40.887Z</time></trkpt><trkpt lat="42.427567246803804" lon="12.63898319369025"><ele>467.0</ele><time>2026-04-19T10:08:41.887Z</time></trkpt><trkpt lat="42.427487150406066" lon="12.63895041396729"><ele>467.00000000000006</ele><time>2026-04-19T10:08:42.887Z</time></trkpt><trkpt lat="42.42740495050277" lon="12.638961293958543"><ele>467.00000000000006</ele><time>2026-04-19T10:08:43.887Z</time></trkpt><trkpt lat="42.427325382733365" lon="12.639007763407424"><ele>467.0</ele><time>2026-04-19T10:08:44.887Z</time></trkpt><trkpt lat="42.42724439126621" lon="12.639091178507714"><ele>467.0</ele><time>2026-04-19T10:08:45.887Z</time></trkpt><trkpt lat="42.42717721618139" lon="12.639183126070447"><ele>470.3333333333333</ele><time>2026-04-19T10:08:46.887Z</time></trkpt><trkpt lat="42.42711793261573" lon="12.63926913139933"><ele>473.66666666666663</ele><time>2026-04-19T10:08:47.887Z</time></trkpt><trkpt lat="42.42706663233572" lon="12.639356787733792"><ele>477.0</ele><time>2026-04-19T10:08:48.887Z</time></trkpt><trkpt lat="42.427038992194035" lon="12.639447064149717"><ele>480.33333333333337</ele><time>2026-04-19T10:08:49.887Z</time></trkpt><trkpt lat="42.4270432498308" lon="12.639544653827341"><ele>483.6666666666667</ele><time>2026-04-19T10:08:50.887Z</time></trkpt><trkpt lat="42.42706737624139" lon="12.639655416680478"><ele>487.0</ele><time>2026-04-19T10:08:51.887Z</time></trkpt><trkpt lat="42.427142920257275" lon="12.63976332994412"><ele>480.0</ele><time>2026-04-19T10:08:52.887Z</time></trkpt><trkpt lat="42.427244439790634" lon="12.639879076052917"><ele>473.0</ele><time>2026-04-19T10:08:53.887Z</time></trkpt><trkpt lat="42.42737151007543" lon="12.640004960912707"><ele>466.0</ele><time>2026-04-19T10:08:54.887Z</time></trkpt><trkpt lat="42.42752257751457" lon="12.640144392881366"><ele>466.0</ele><time>2026-04-19T10:08:55.887Z</time></trkpt><trkpt lat="42.427692635636525" lon="12.640286107732349"><ele>466.0</ele><time>2026-04-19T10:08:56.887Z</time></trkpt><trkpt lat="42.427838129785165" lon="12.640424439684406"><ele>466.0</ele><time>2026-04-19T10:08:57.887Z</time></trkpt><trkpt lat="42.427970610666655" lon="12.640557753779275"><ele>463.33333333333337</ele><time>2026-04-19T10:08:58.887Z</time></trkpt><trkpt lat="42.42809968251266" lon="12.640679500160468"><ele>460.66666666666663</ele><time>2026-04-19T10:08:59.887Z</time></trkpt><trkpt lat="42.428229510906235" lon="12.640818809172375"><ele>458.0</ele><time>2026-04-19T10:09:00.887Z</time></trkpt><trkpt lat="42.42834163781831" lon="12.64095381712075"><ele>458.0</ele><time>2026-04-19T10:09:01.887Z</time></trkpt><trkpt lat="42.428410573001145" lon="12.641107877164528"><ele>458.0</ele><time>2026-04-19T10:09:02.887Z</time></trkpt><trkpt lat="42.42846241005882" lon="12.641250189290293"><ele>458.0</ele><time>2026-04-19T10:09:03.886Z</time></trkpt><trkpt lat="42.42846751269224" lon="12.641398172779741"><ele>458.0</ele><time>2026-04-19T10:09:04.886Z</time></trkpt><trkpt lat="42.42847119323174" lon="12.641566673365274"><ele>458.75</ele><time>2026-04-19T10:09:05.886Z</time></trkpt><trkpt lat="42.428472293677004" lon="12.641735210512156"><ele>459.5</ele><time>2026-04-19T10:09:06.886Z</time></trkpt><trkpt lat="42.42851584330992" lon="12.64190491785186"><ele>460.25</ele><time>2026-04-19T10:09:07.886Z</time></trkpt><trkpt lat="42.42856784729002" lon="12.64206124147638"><ele>461.0</ele><time>2026-04-19T10:09:08.886Z</time></trkpt><trkpt lat="42.428622605548696" lon="12.64220632235852"><ele>461.0</ele><time>2026-04-19T10:09:09.886Z</time></trkpt><trkpt lat="42.42865090876543" lon="12.642335939202953"><ele>461.0</ele><time>2026-04-19T10:09:10.886Z</time></trkpt><trkpt lat="42.42862270428297" lon="12.642447596326857"><ele>461.0</ele><time>2026-04-19T10:09:11.886Z</time></trkpt><trkpt lat="42.42854925851448" lon="12.642540536240222"><ele>461.0</ele><time>2026-04-19T10:09:12.886Z</time></trkpt><trkpt lat="42.4284526936142" lon="12.642609645477853"><ele>461.0</ele><time>2026-04-19T10:09:13.886Z</time></trkpt><trkpt lat="42.42833866583137" lon="12.642664395895032"><ele>461.0</ele><time>2026-04-19T10:09:14.886Z</time></trkpt><trkpt lat="42.42821260132059" lon="12.642714750592615"><ele>461.0</ele><time>2026-04-19T10:09:15.886Z</time></trkpt><trkpt lat="42.42807891661603" lon="12.642712457176307"><ele>461.0</ele><time>2026-04-19T10:09:16.886Z</time></trkpt><trkpt lat="42.42793012632419" lon="12.64272159608432"><ele>461.0</ele><time>2026-04-19T10:09:17.886Z</time></trkpt><trkpt lat="42.42777608752725" lon="12.642728001315902"><ele>463.66666666666663</ele><time>2026-04-19T10:09:18.886Z</time></trkpt><trkpt lat="42.42761993629278" lon="12.642733247545166"><ele>466.33333333333337</ele><time>2026-04-19T10:09:19.886Z</time></trkpt><trkpt lat="42.42745777519304" lon="12.642737021155778"><ele>469.0</ele><time>2026-04-19T10:09:20.886Z</time></trkpt><trkpt lat="42.427295717832486" lon="12.642735989360885"><ele>470.33333333333337</ele><time>2026-04-19T10:09:21.886Z</time></trkpt><trkpt lat="42.42713682702614" lon="12.642728908654728"><ele>471.66666666666663</ele><time>2026-04-19T10:09:22.886Z</time></trkpt><trkpt lat="42.426980362147184" lon="12.6427141909432"><ele>473.0</ele><time>2026-04-19T10:09:23.886Z</time></trkpt><trkpt lat="42.42683094403345" lon="12.642691778512527"><ele>473.0</ele><time>2026-04-19T10:09:24.886Z</time></trkpt><trkpt lat="42.42669102111834" lon="12.642655712873202"><ele>472.99999999999994</ele><time>2026-04-19T10:09:25.886Z</time></trkpt><trkpt lat="42.42657203583468" lon="12.642601185045764"><ele>472.99999999999994</ele><time>2026-04-19T10:09:26.886Z</time></trkpt><trkpt lat="42.426475115827635" lon="12.642582948925332"><ele>473.0</ele><time>2026-04-19T10:09:27.886Z</time></trkpt><trkpt lat="42.426401434578445" lon="12.642592818599756"><ele>473.0</ele><time>2026-04-19T10:09:28.886Z</time></trkpt><trkpt lat="42.426343927684236" lon="12.642644182392644"><ele>471.3333333333333</ele><time>2026-04-19T10:09:29.886Z</time></trkpt><trkpt lat="42.426308379228935" lon="12.642730191686283"><ele>469.66666666666663</ele><time>2026-04-19T10:09:30.885Z</time></trkpt><trkpt lat="42.42630798663964" lon="12.64284806723561"><ele>468.0</ele><time>2026-04-19T10:09:31.885Z</time></trkpt><trkpt lat="42.42634050025548" lon="12.642966723019876"><ele>466.33333333333337</ele><time>2026-04-19T10:09:32.885Z</time></trkpt><trkpt lat="42.426387929268245" lon="12.643068928950969"><ele>464.6666666666667</ele><time>2026-04-19T10:09:33.885Z</time></trkpt><trkpt lat="42.426444846755395" lon="12.643191554475646"><ele>463.0</ele><time>2026-04-19T10:09:34.885Z</time></trkpt><trkpt lat="42.426506887219645" lon="12.643319182095379"><ele>463.0</ele><time>2026-04-19T10:09:35.885Z</time></trkpt><trkpt lat="42.42656272186423" lon="12.643457067013767"><ele>463.0</ele><time>2026-04-19T10:09:36.885Z</time></trkpt><trkpt lat="42.42660769748509" lon="12.643602220804254"><ele>463.0</ele><time>2026-04-19T10:09:37.885Z</time></trkpt><trkpt lat="42.426632882269686" lon="12.643764509282667"><ele>463.0</ele><time>2026-04-19T10:09:38.885Z</time></trkpt><trkpt lat="42.42662624069499" lon="12.643929291222827"><ele>463.0</ele><time>2026-04-19T10:09:39.885Z</time></trkpt><trkpt lat="42.42657573350943" lon="12.644094894659311"><ele>463.0</ele><time>2026-04-19T10:09:40.885Z</time></trkpt><trkpt lat="42.426550599489076" lon="12.644277777077727"><ele>463.0</ele><time>2026-04-19T10:09:41.885Z</time></trkpt><trkpt lat="42.42653993101622" lon="12.644450787759755"><ele>463.0</ele><time>2026-04-19T10:09:42.885Z</time></trkpt><trkpt lat="42.42655486044973" lon="12.644645893878314"><ele>463.0</ele><time>2026-04-19T10:09:43.885Z</time></trkpt><trkpt lat="42.42657967975624" lon="12.644828411435935"><ele>463.0</ele><time>2026-04-19T10:09:44.885Z</time></trkpt><trkpt lat="42.426633986888056" lon="12.64498627828356"><ele>463.0</ele><time>2026-04-19T10:09:45.885Z</time></trkpt><trkpt lat="42.42670427097615" lon="12.645128206349682"><ele>463.0</ele><time>2026-04-19T10:09:46.885Z</time></trkpt><trkpt lat="42.42678697970116" lon="12.645264317898606"><ele>462.79999999999995</ele><time>2026-04-19T10:09:47.885Z</time></trkpt><trkpt lat="42.42687676022724" lon="12.645382975837046"><ele>462.59999999999997</ele><time>2026-04-19T10:09:48.885Z</time></trkpt><trkpt lat="42.42694895951612" lon="12.6455091184787"><ele>462.40000000000003</ele><time>2026-04-19T10:09:49.885Z</time></trkpt><trkpt lat="42.426987482323824" lon="12.645629290756105"><ele>462.20000000000005</ele><time>2026-04-19T10:09:50.885Z</time></trkpt><trkpt lat="42.426993918627254" lon="12.645729900726224"><ele>462.0</ele><time>2026-04-19T10:09:51.885Z</time></trkpt><trkpt lat="42.42697998811424" lon="12.645815228427875"><ele>462.0</ele><time>2026-04-19T10:09:52.885Z</time></trkpt><trkpt lat="42.4269508521592" lon="12.645924008176932"><ele>462.0</ele><time>2026-04-19T10:09:54.885Z</time></trkpt><trkpt lat="42.42691485181389" lon="12.646001912332567"><ele>462.0</ele><time>2026-04-19T10:09:56.885Z</time></trkpt><trkpt lat="42.42691784579149" lon="12.646110841855249"><ele>462.0</ele><time>2026-04-19T10:09:58.885Z</time></trkpt><trkpt lat="42.42694628079498" lon="12.646197886329604"><ele>462.0</ele><time>2026-04-19T10:10:00.881Z</time></trkpt><trkpt lat="42.426986788149186" lon="12.646280772851851"><ele>462.0</ele><time>2026-04-19T10:10:02.878Z</time></trkpt><trkpt lat="42.427031459882876" lon="12.64635090002392"><ele>462.0</ele><time>2026-04-19T10:10:04.875Z</time></trkpt><trkpt lat="42.42705411113367" lon="12.646466835332166"><ele>461.6666666666667</ele><time>2026-04-19T10:10:07.871Z</time></trkpt><trkpt lat="42.4270990558302" lon="12.64657096940249"><ele>461.33333333333337</ele><time>2026-04-19T10:10:10.869Z</time></trkpt><trkpt lat="42.42714277103632" lon="12.646670787289148"><ele>461.0</ele><time>2026-04-19T10:10:13.866Z</time></trkpt><trkpt lat="42.427194812615866" lon="12.646772757395654"><ele>460.6666666666667</ele><time>2026-04-19T10:10:16.864Z</time></trkpt><trkpt lat="42.427238646831036" lon="12.646847817329949"><ele>460.33333333333337</ele><time>2026-04-19T10:10:18.863Z</time></trkpt><trkpt lat="42.42729401509037" lon="12.646928257309892"><ele>460.0</ele><time>2026-04-19T10:10:20.862Z</time></trkpt><trkpt lat="42.42734985401961" lon="12.647016802633686"><ele>459.2</ele><time>2026-04-19T10:10:22.861Z</time></trkpt><trkpt lat="42.42743242448246" lon="12.647133742192413"><ele>458.4</ele><time>2026-04-19T10:10:24.86Z</time></trkpt><trkpt lat="42.42748843946654" lon="12.647200156267514"><ele>457.6</ele><time>2026-04-19T10:10:25.859Z</time></trkpt><trkpt lat="42.427551556750046" lon="12.647273197599818"><ele>456.8</ele><time>2026-04-19T10:10:26.859Z</time></trkpt><trkpt lat="42.4276161460813" lon="12.647358958601993"><ele>456.0</ele><time>2026-04-19T10:10:27.859Z</time></trkpt><trkpt lat="42.42768198691223" lon="12.647434050507071"><ele>456.0</ele><time>2026-04-19T10:10:28.858Z</time></trkpt><trkpt lat="42.427738407215166" lon="12.64750273441429"><ele>456.0</ele><time>2026-04-19T10:10:29.858Z</time></trkpt><trkpt lat="42.427791362555595" lon="12.64757603402593"><ele>456.0</ele><time>2026-04-19T10:10:30.858Z</time></trkpt><trkpt lat="42.42787366803325" lon="12.647675632888909"><ele>456.0</ele><time>2026-04-19T10:10:32.857Z</time></trkpt><trkpt lat="42.427935035598225" lon="12.647749482948209"><ele>456.0</ele><time>2026-04-19T10:10:34.857Z</time></trkpt><trkpt lat="42.42798624899157" lon="12.647824338977307"><ele>456.0</ele><time>2026-04-19T10:10:36.856Z</time></trkpt><trkpt lat="42.428042609480094" lon="12.647910370063501"><ele>456.1666666666667</ele><time>2026-04-19T10:10:38.856Z</time></trkpt><trkpt lat="42.42808857312561" lon="12.648009285383077"><ele>456.33333333333337</ele><time>2026-04-19T10:10:40.856Z</time></trkpt><trkpt lat="42.42812088534636" lon="12.648145119800617"><ele>456.5</ele><time>2026-04-19T10:10:42.855Z</time></trkpt><trkpt lat="42.428119198339985" lon="12.648237272349482"><ele>456.6666666666667</ele><time>2026-04-19T10:10:43.855Z</time></trkpt><trkpt lat="42.428098813233284" lon="12.64834151877061"><ele>456.83333333333337</ele><time>2026-04-19T10:10:44.855Z</time></trkpt><trkpt lat="42.42805828200797" lon="12.648448425657943"><ele>457.0</ele><time>2026-04-19T10:10:45.855Z</time></trkpt><trkpt lat="42.42800162490497" lon="12.648574917658625"><ele>455.0</ele><time>2026-04-19T10:10:46.855Z</time></trkpt><trkpt lat="42.427932783581475" lon="12.648705857509638"><ele>453.0</ele><time>2026-04-19T10:10:47.855Z</time></trkpt><trkpt lat="42.42786327384624" lon="12.648840243085482"><ele>451.0</ele><time>2026-04-19T10:10:48.855Z</time></trkpt><trkpt lat="42.42779996544208" lon="12.648983208900665"><ele>449.0</ele><time>2026-04-19T10:10:49.854Z</time></trkpt><trkpt lat="42.4277465643467" lon="12.649137579390478"><ele>449.0</ele><time>2026-04-19T10:10:50.854Z</time></trkpt><trkpt lat="42.42770778114856" lon="12.649297277368792"><ele>449.0</ele><time>2026-04-19T10:10:51.854Z</time></trkpt><trkpt lat="42.427686555766385" lon="12.649457220761013"><ele>449.0</ele><time>2026-04-19T10:10:52.854Z</time></trkpt><trkpt lat="42.42770179871497" lon="12.649620611319003"><ele>449.0</ele><time>2026-04-19T10:10:53.854Z</time></trkpt><trkpt lat="42.4277413332324" lon="12.649772624705804"><ele>448.5</ele><time>2026-04-19T10:10:54.854Z</time></trkpt><trkpt lat="42.42780633150881" lon="12.649912974139037"><ele>448.0</ele><time>2026-04-19T10:10:55.854Z</time></trkpt><trkpt lat="42.4278878672823" lon="12.65003306817568"><ele>447.5</ele><time>2026-04-19T10:10:56.854Z</time></trkpt><trkpt lat="42.4279787023416" lon="12.650138044525896"><ele>447.0</ele><time>2026-04-19T10:10:57.854Z</time></trkpt><trkpt lat="42.42809625099594" lon="12.650224748775873"><ele>447.0</ele><time>2026-04-19T10:10:58.854Z</time></trkpt><trkpt lat="42.428221792575705" lon="12.650300282736639"><ele>447.0</ele><time>2026-04-19T10:10:59.853Z</time></trkpt><trkpt lat="42.428350699659056" lon="12.650382323829703"><ele>447.0</ele><time>2026-04-19T10:11:00.853Z</time></trkpt><trkpt lat="42.42847490197843" lon="12.650467673408894"><ele>447.0</ele><time>2026-04-19T10:11:01.853Z</time></trkpt><trkpt lat="42.42858899873059" lon="12.650556379225703"><ele>447.0</ele><time>2026-04-19T10:11:02.853Z</time></trkpt><trkpt lat="42.42869487301253" lon="12.650651073245253"><ele>447.0</ele><time>2026-04-19T10:11:03.853Z</time></trkpt><trkpt lat="42.428795225150246" lon="12.650743757498558"><ele>447.0</ele><time>2026-04-19T10:11:04.853Z</time></trkpt><trkpt lat="42.42888564953096" lon="12.650839043091821"><ele>447.0</ele><time>2026-04-19T10:11:05.853Z</time></trkpt><trkpt lat="42.428967524325884" lon="12.650940705998467"><ele>446.5</ele><time>2026-04-19T10:11:06.853Z</time></trkpt><trkpt lat="42.42904302903459" lon="12.65104462599906"><ele>446.0</ele><time>2026-04-19T10:11:07.853Z</time></trkpt><trkpt lat="42.42912080199835" lon="12.651153634198643"><ele>445.5</ele><time>2026-04-19T10:11:08.853Z</time></trkpt><trkpt lat="42.429202523007135" lon="12.65127032489634"><ele>445.0</ele><time>2026-04-19T10:11:09.853Z</time></trkpt><trkpt lat="42.42928678257767" lon="12.651390057177997"><ele>445.0</ele><time>2026-04-19T10:11:10.853Z</time></trkpt><trkpt lat="42.42936751684371" lon="12.65150906809032"><ele>445.0</ele><time>2026-04-19T10:11:11.853Z</time></trkpt><trkpt lat="42.42944782323453" lon="12.651631509704831"><ele>445.0</ele><time>2026-04-19T10:11:12.853Z</time></trkpt><trkpt lat="42.42952941267146" lon="12.651752718216649"><ele>445.0</ele><time>2026-04-19T10:11:13.853Z</time></trkpt><trkpt lat="42.42960996578622" lon="12.651878942496914"><ele>445.0</ele><time>2026-04-19T10:11:14.852Z</time></trkpt><trkpt lat="42.42969261377856" lon="12.652007023415706"><ele>445.0</ele><time>2026-04-19T10:11:15.852Z</time></trkpt><trkpt lat="42.42977040404091" lon="12.652133531654941"><ele>445.0</ele><time>2026-04-19T10:11:16.852Z</time></trkpt><trkpt lat="42.4298330131127" lon="12.652240516287746"><ele>445.0</ele><time>2026-04-19T10:11:17.852Z</time></trkpt><trkpt lat="42.42986685205538" lon="12.652359908376264"><ele>445.0</ele><time>2026-04-19T10:11:18.852Z</time></trkpt><trkpt lat="42.429876959496184" lon="12.65247729955454"><ele>445.0</ele><time>2026-04-19T10:11:19.852Z</time></trkpt><trkpt lat="42.42986211122571" lon="12.652608009783135"><ele>445.0</ele><time>2026-04-19T10:11:20.852Z</time></trkpt><trkpt lat="42.42981922663388" lon="12.652743199532189"><ele>445.0</ele><time>2026-04-19T10:11:21.852Z</time></trkpt><trkpt lat="42.42976670462992" lon="12.652884528908686"><ele>445.0</ele><time>2026-04-19T10:11:22.852Z</time></trkpt><trkpt lat="42.42972847478818" lon="12.653035205885393"><ele>445.0</ele><time>2026-04-19T10:11:23.852Z</time></trkpt><trkpt lat="42.429716674041316" lon="12.653186087970788"><ele>445.25</ele><time>2026-04-19T10:11:24.852Z</time></trkpt><trkpt lat="42.42973034861283" lon="12.653338945049507"><ele>445.5</ele><time>2026-04-19T10:11:25.852Z</time></trkpt><trkpt lat="42.4297709123511" lon="12.653487734523983"><ele>445.75</ele><time>2026-04-19T10:11:26.852Z</time></trkpt><trkpt lat="42.42983594043128" lon="12.653625739933823"><ele>446.0</ele><time>2026-04-19T10:11:27.852Z</time></trkpt><trkpt lat="42.42991710847349" lon="12.65376421394513"><ele>446.0</ele><time>2026-04-19T10:11:28.852Z</time></trkpt><trkpt lat="42.43000243367558" lon="12.653904155233738"><ele>446.0</ele><time>2026-04-19T10:11:29.852Z</time></trkpt><trkpt lat="42.43008606731357" lon="12.65404018685751"><ele>446.0</ele><time>2026-04-19T10:11:30.852Z</time></trkpt><trkpt lat="42.43016604312097" lon="12.654176946324935"><ele>446.0</ele><time>2026-04-19T10:11:31.852Z</time></trkpt><trkpt lat="42.430246674387" lon="12.654314729497681"><ele>446.0</ele><time>2026-04-19T10:11:32.852Z</time></trkpt><trkpt lat="42.430322394201305" lon="12.65445468238491"><ele>446.0</ele><time>2026-04-19T10:11:33.851Z</time></trkpt><trkpt lat="42.43039569668133" lon="12.654594382190547"><ele>446.0</ele><time>2026-04-19T10:11:34.851Z</time></trkpt><trkpt lat="42.43047238784765" lon="12.654729650083976"><ele>446.0</ele><time>2026-04-19T10:11:35.851Z</time></trkpt><trkpt lat="42.43055108314913" lon="12.654862195521515"><ele>446.25</ele><time>2026-04-19T10:11:36.851Z</time></trkpt><trkpt lat="42.43063139115121" lon="12.654994413697462"><ele>446.5</ele><time>2026-04-19T10:11:37.851Z</time></trkpt><trkpt lat="42.430720820826984" lon="12.655120749555538"><ele>446.75</ele><time>2026-04-19T10:11:38.851Z</time></trkpt><trkpt lat="42.43083008060401" lon="12.655233883718909"><ele>447.0</ele><time>2026-04-19T10:11:39.851Z</time></trkpt><trkpt lat="42.430957818029825" lon="12.655331320213833"><ele>448.0</ele><time>2026-04-19T10:11:40.851Z</time></trkpt><trkpt lat="42.431089982892146" lon="12.655420711043215"><ele>449.0</ele><time>2026-04-19T10:11:41.851Z</time></trkpt><trkpt lat="42.43122226571017" lon="12.655517499525773"><ele>450.0</ele><time>2026-04-19T10:11:42.851Z</time></trkpt><trkpt lat="42.4313537135279" lon="12.655616935879111"><ele>451.0</ele><time>2026-04-19T10:11:43.851Z</time></trkpt><trkpt lat="42.43146466201102" lon="12.655739018947601"><ele>451.5</ele><time>2026-04-19T10:11:44.851Z</time></trkpt><trkpt lat="42.43156026971003" lon="12.655867519388499"><ele>452.0</ele><time>2026-04-19T10:11:45.851Z</time></trkpt><trkpt lat="42.43163409966034" lon="12.656003654957349"><ele>452.5</ele><time>2026-04-19T10:11:46.851Z</time></trkpt><trkpt lat="42.43168476548478" lon="12.656160238447058"><ele>453.0</ele><time>2026-04-19T10:11:47.851Z</time></trkpt><trkpt lat="42.43170876170042" lon="12.656330286621628"><ele>453.0</ele><time>2026-04-19T10:11:48.851Z</time></trkpt><trkpt lat="42.431717613943256" lon="12.656510405883653"><ele>453.0</ele><time>2026-04-19T10:11:49.851Z</time></trkpt><trkpt lat="42.43172625972247" lon="12.656688357230294"><ele>453.0</ele><time>2026-04-19T10:11:50.851Z</time></trkpt><trkpt lat="42.43174562290778" lon="12.656872020073829"><ele>453.0</ele><time>2026-04-19T10:11:51.851Z</time></trkpt><trkpt lat="42.431767351700486" lon="12.657064922685606"><ele>452.25</ele><time>2026-04-19T10:11:52.851Z</time></trkpt><trkpt lat="42.43178618990098" lon="12.657261733282125"><ele>451.5</ele><time>2026-04-19T10:11:53.851Z</time></trkpt><trkpt lat="42.43180390145951" lon="12.65746313483283"><ele>450.75</ele><time>2026-04-19T10:11:54.851Z</time></trkpt><trkpt lat="42.431819459418755" lon="12.657669601992552"><ele>450.0</ele><time>2026-04-19T10:11:55.851Z</time></trkpt><trkpt lat="42.4318413384565" lon="12.657876670573131"><ele>450.0</ele><time>2026-04-19T10:11:56.85Z</time></trkpt><trkpt lat="42.431861701072485" lon="12.658086288124085"><ele>450.0</ele><time>2026-04-19T10:11:57.85Z</time></trkpt><trkpt lat="42.43188626572923" lon="12.658298324309298"><ele>450.0</ele><time>2026-04-19T10:11:58.85Z</time></trkpt><trkpt lat="42.43192021709599" lon="12.658515463099636"><ele>449.33333333333337</ele><time>2026-04-19T10:11:59.85Z</time></trkpt><trkpt lat="42.43196869040562" lon="12.65873867837735"><ele>448.6666666666667</ele><time>2026-04-19T10:12:00.85Z</time></trkpt><trkpt lat="42.432026750502416" lon="12.658960359728857"><ele>448.0</ele><time>2026-04-19T10:12:01.85Z</time></trkpt><trkpt lat="42.43208443876971" lon="12.659180856514078"><ele>450.33333333333337</ele><time>2026-04-19T10:12:02.851Z</time></trkpt><trkpt lat="42.43214105987296" lon="12.65940110277082"><ele>452.66666666666663</ele><time>2026-04-19T10:12:03.852Z</time></trkpt><trkpt lat="42.43219250714803" lon="12.65962022587378"><ele>455.0</ele><time>2026-04-19T10:12:04.852Z</time></trkpt><trkpt lat="42.4322460553058" lon="12.659842554151545"><ele>456.66666666666663</ele><time>2026-04-19T10:12:05.852Z</time></trkpt><trkpt lat="42.432301738496726" lon="12.660067707330738"><ele>458.33333333333337</ele><time>2026-04-19T10:12:06.851Z</time></trkpt><trkpt lat="42.432357519914746" lon="12.66029596837313"><ele>460.0</ele><time>2026-04-19T10:12:07.851Z</time></trkpt><trkpt lat="42.43241301538876" lon="12.66051943107917"><ele>460.0</ele><time>2026-04-19T10:12:08.851Z</time></trkpt><trkpt lat="42.432469888648264" lon="12.66074767017295"><ele>460.0</ele><time>2026-04-19T10:12:09.851Z</time></trkpt><trkpt lat="42.43252628244853" lon="12.660980953316125"><ele>460.0</ele><time>2026-04-19T10:12:10.851Z</time></trkpt><trkpt lat="42.43258372008711" lon="12.661218331478413"><ele>458.0</ele><time>2026-04-19T10:12:11.852Z</time></trkpt><trkpt lat="42.432637690004675" lon="12.661458591350932"><ele>456.0</ele><time>2026-04-19T10:12:12.851Z</time></trkpt><trkpt lat="42.43269277634381" lon="12.661696883174333"><ele>454.0</ele><time>2026-04-19T10:12:13.851Z</time></trkpt><trkpt lat="42.43275008616256" lon="12.661927091915812"><ele>454.33333333333337</ele><time>2026-04-19T10:12:14.851Z</time></trkpt><trkpt lat="42.432813201562" lon="12.662148283003651"><ele>454.66666666666663</ele><time>2026-04-19T10:12:15.851Z</time></trkpt><trkpt lat="42.432875537412805" lon="12.662352461078147"><ele>455.0</ele><time>2026-04-19T10:12:16.851Z</time></trkpt><trkpt lat="42.43293654216339" lon="12.662534664440011"><ele>457.2</ele><time>2026-04-19T10:12:17.851Z</time></trkpt><trkpt lat="42.433000452648294" lon="12.662683893091884"><ele>459.4</ele><time>2026-04-19T10:12:18.851Z</time></trkpt><trkpt lat="42.433060045348256" lon="12.662799676041637"><ele>461.6</ele><time>2026-04-19T10:12:19.851Z</time></trkpt><trkpt lat="42.43310378661316" lon="12.662907376932836"><ele>463.8</ele><time>2026-04-19T10:12:20.851Z</time></trkpt><trkpt lat="42.433125510868635" lon="12.663015625192253"><ele>466.0</ele><time>2026-04-19T10:12:21.851Z</time></trkpt><trkpt lat="42.43311382164358" lon="12.663112736440066"><ele>466.0</ele><time>2026-04-19T10:12:22.851Z</time></trkpt><trkpt lat="42.43308105978429" lon="12.663199001733846"><ele>466.0</ele><time>2026-04-19T10:12:23.851Z</time></trkpt><trkpt lat="42.433029818268786" lon="12.66326637793377"><ele>466.0</ele><time>2026-04-19T10:12:24.851Z</time></trkpt><trkpt lat="42.43294693416111" lon="12.663287185869379"><ele>466.0</ele><time>2026-04-19T10:12:26.851Z</time></trkpt><trkpt lat="42.4328698421914" lon="12.663298719427864"><ele>466.0</ele><time>2026-04-19T10:12:28.851Z</time></trkpt><trkpt lat="42.43280537005457" lon="12.663284258185458"><ele>466.0</ele><time>2026-04-19T10:12:29.851Z</time></trkpt><trkpt lat="42.43273244055942" lon="12.663248301860646"><ele>466.0</ele><time>2026-04-19T10:12:30.851Z</time></trkpt><trkpt lat="42.432638980307836" lon="12.663177820456582"><ele>466.75</ele><time>2026-04-19T10:12:31.85Z</time></trkpt><trkpt lat="42.43253383601721" lon="12.663076545946822"><ele>467.5</ele><time>2026-04-19T10:12:32.85Z</time></trkpt><trkpt lat="42.43241044564671" lon="12.662986297136307"><ele>468.25</ele><time>2026-04-19T10:12:33.85Z</time></trkpt><trkpt lat="42.43230143663871" lon="12.662859870706818"><ele>469.0</ele><time>2026-04-19T10:12:34.85Z</time></trkpt><trkpt lat="42.43217445605052" lon="12.6627773280858"><ele>467.5</ele><time>2026-04-19T10:12:35.85Z</time></trkpt><trkpt lat="42.43206395514385" lon="12.662673818101554"><ele>466.0</ele><time>2026-04-19T10:12:36.85Z</time></trkpt><trkpt lat="42.43193670312432" lon="12.662636488738546"><ele>464.5</ele><time>2026-04-19T10:12:37.85Z</time></trkpt><trkpt lat="42.431815986014264" lon="12.662595836384822"><ele>463.0</ele><time>2026-04-19T10:12:38.85Z</time></trkpt><trkpt lat="42.43168196458959" lon="12.662585375948924"><ele>463.0</ele><time>2026-04-19T10:12:39.85Z</time></trkpt><trkpt lat="42.43154745676215" lon="12.662593991310645"><ele>463.0</ele><time>2026-04-19T10:12:40.85Z</time></trkpt><trkpt lat="42.431403209841434" lon="12.66261432604808"><ele>463.0</ele><time>2026-04-19T10:12:41.85Z</time></trkpt><trkpt lat="42.43124948571035" lon="12.66263364395504"><ele>463.0</ele><time>2026-04-19T10:12:42.85Z</time></trkpt><trkpt lat="42.43109306636048" lon="12.66265312845601"><ele>461.33333333333337</ele><time>2026-04-19T10:12:43.85Z</time></trkpt><trkpt lat="42.430927533865365" lon="12.662673867739132"><ele>459.66666666666663</ele><time>2026-04-19T10:12:44.85Z</time></trkpt><trkpt lat="42.43075545570881" lon="12.662698675197936"><ele>458.0</ele><time>2026-04-19T10:12:45.85Z</time></trkpt><trkpt lat="42.43058830302167" lon="12.662721387603122"><ele>457.3333333333333</ele><time>2026-04-19T10:12:46.85Z</time></trkpt><trkpt lat="42.430416301808954" lon="12.662742180830355"><ele>456.66666666666663</ele><time>2026-04-19T10:12:47.85Z</time></trkpt><trkpt lat="42.43023893659013" lon="12.662769769603665"><ele>456.0</ele><time>2026-04-19T10:12:48.85Z</time></trkpt><trkpt lat="42.4300635070485" lon="12.662785283207237"><ele>463.0</ele><time>2026-04-19T10:12:49.85Z</time></trkpt><trkpt lat="42.429889263248704" lon="12.662808846150075"><ele>470.0</ele><time>2026-04-19T10:12:50.85Z</time></trkpt><trkpt lat="42.429724274697065" lon="12.662835024951052"><ele>477.0</ele><time>2026-04-19T10:12:51.85Z</time></trkpt><trkpt lat="42.42955906941882" lon="12.662857955518618"><ele>477.0</ele><time>2026-04-19T10:12:52.85Z</time></trkpt><trkpt lat="42.42940365265756" lon="12.662885955083791"><ele>477.0</ele><time>2026-04-19T10:12:53.85Z</time></trkpt><trkpt lat="42.42924076946211" lon="12.662914814469952"><ele>477.0</ele><time>2026-04-19T10:12:54.85Z</time></trkpt><trkpt lat="42.42908163912049" lon="12.662952813691266"><ele>477.0</ele><time>2026-04-19T10:12:55.849Z</time></trkpt><trkpt lat="42.4289367966229" lon="12.663014526123524"><ele>477.0</ele><time>2026-04-19T10:12:56.849Z</time></trkpt><trkpt lat="42.42879804418297" lon="12.663104006287883"><ele>477.0</ele><time>2026-04-19T10:12:57.849Z</time></trkpt><trkpt lat="42.42865162751216" lon="12.663212442686975"><ele>479.33333333333337</ele><time>2026-04-19T10:12:58.849Z</time></trkpt><trkpt lat="42.42849898860968" lon="12.663359610739114"><ele>481.6666666666667</ele><time>2026-04-19T10:12:59.849Z</time></trkpt><trkpt lat="42.428347779459955" lon="12.663513700041433"><ele>484.0</ele><time>2026-04-19T10:13:00.849Z</time></trkpt><trkpt lat="42.42817824536996" lon="12.663678272139151"><ele>484.0</ele><time>2026-04-19T10:13:01.849Z</time></trkpt><trkpt lat="42.42801012167603" lon="12.66386152839894"><ele>484.0</ele><time>2026-04-19T10:13:02.849Z</time></trkpt><trkpt lat="42.42785658911173" lon="12.66401346069312"><ele>484.0</ele><time>2026-04-19T10:13:03.849Z</time></trkpt><trkpt lat="42.42771192431091" lon="12.664155857037422"><ele>478.33333333333337</ele><time>2026-04-19T10:13:04.849Z</time></trkpt><trkpt lat="42.427570048211585" lon="12.664279779031238"><ele>472.66666666666663</ele><time>2026-04-19T10:13:05.849Z</time></trkpt><trkpt lat="42.42742838042792" lon="12.66436603949872"><ele>467.0</ele><time>2026-04-19T10:13:06.849Z</time></trkpt><trkpt lat="42.42728977711788" lon="12.664410140306526"><ele>467.0</ele><time>2026-04-19T10:13:07.849Z</time></trkpt><trkpt lat="42.42715368332738" lon="12.664421651077104"><ele>467.0</ele><time>2026-04-19T10:13:08.849Z</time></trkpt><trkpt lat="42.42700179845692" lon="12.66442216864275"><ele>467.0</ele><time>2026-04-19T10:13:09.849Z</time></trkpt><trkpt lat="42.42684313459975" lon="12.66443023989024"><ele>467.0</ele><time>2026-04-19T10:13:10.849Z</time></trkpt><trkpt lat="42.42669287321271" lon="12.664459027411516"><ele>466.3333333333333</ele><time>2026-04-19T10:13:11.849Z</time></trkpt><trkpt lat="42.42653967257068" lon="12.664522842323807"><ele>465.66666666666663</ele><time>2026-04-19T10:13:12.849Z</time></trkpt><trkpt lat="42.426379727822955" lon="12.664614696380777"><ele>465.0</ele><time>2026-04-19T10:13:13.849Z</time></trkpt><trkpt lat="42.42621776257077" lon="12.664734103399208"><ele>465.0</ele><time>2026-04-19T10:13:14.849Z</time></trkpt><trkpt lat="42.426062779762574" lon="12.664868618114964"><ele>465.0</ele><time>2026-04-19T10:13:15.849Z</time></trkpt><trkpt lat="42.4259304152835" lon="12.665001892574072"><ele>465.0</ele><time>2026-04-19T10:13:16.849Z</time></trkpt><trkpt lat="42.425795169252936" lon="12.665129468486375"><ele>465.0</ele><time>2026-04-19T10:13:17.849Z</time></trkpt><trkpt lat="42.42565014064059" lon="12.665251980428597"><ele>465.0</ele><time>2026-04-19T10:13:18.848Z</time></trkpt><trkpt lat="42.42550278842258" lon="12.665361281896953"><ele>465.0</ele><time>2026-04-19T10:13:19.848Z</time></trkpt><trkpt lat="42.42536142711775" lon="12.665452149007137"><ele>466.5</ele><time>2026-04-19T10:13:20.848Z</time></trkpt><trkpt lat="42.4252327611154" lon="12.66552412233612"><ele>468.0</ele><time>2026-04-19T10:13:21.848Z</time></trkpt><trkpt lat="42.42511785929134" lon="12.665579764186631"><ele>469.5</ele><time>2026-04-19T10:13:22.848Z</time></trkpt><trkpt lat="42.425001210498785" lon="12.665630054806543"><ele>471.0</ele><time>2026-04-19T10:13:23.848Z</time></trkpt><trkpt lat="42.42490002856581" lon="12.665692787263145"><ele>471.0</ele><time>2026-04-19T10:13:24.848Z</time></trkpt><trkpt lat="42.42478576478152" lon="12.665760539022212"><ele>471.0</ele><time>2026-04-19T10:13:25.848Z</time></trkpt><trkpt lat="42.424674323149084" lon="12.665817449724674"><ele>471.0</ele><time>2026-04-19T10:13:26.848Z</time></trkpt><trkpt lat="42.42456004007197" lon="12.665879786113427"><ele>471.0</ele><time>2026-04-19T10:13:27.848Z</time></trkpt><trkpt lat="42.42444138749994" lon="12.665938982165097"><ele>470.5</ele><time>2026-04-19T10:13:28.848Z</time></trkpt><trkpt lat="42.424322227088645" lon="12.665998522454483"><ele>470.0</ele><time>2026-04-19T10:13:29.848Z</time></trkpt><trkpt lat="42.42420724432868" lon="12.666067230614223"><ele>469.5</ele><time>2026-04-19T10:13:30.848Z</time></trkpt><trkpt lat="42.42409314265158" lon="12.666133657938758"><ele>469.0</ele><time>2026-04-19T10:13:31.848Z</time></trkpt><trkpt lat="42.423984930158284" lon="12.666203153451375"><ele>469.0</ele><time>2026-04-19T10:13:32.848Z</time></trkpt><trkpt lat="42.42387712815087" lon="12.666271260840924"><ele>469.0</ele><time>2026-04-19T10:13:33.848Z</time></trkpt><trkpt lat="42.423767268215215" lon="12.666329353289251"><ele>469.0</ele><time>2026-04-19T10:13:34.848Z</time></trkpt><trkpt lat="42.42366165367842" lon="12.666386484412206"><ele>469.0</ele><time>2026-04-19T10:13:35.848Z</time></trkpt><trkpt lat="42.423567043210724" lon="12.666438263897303"><ele>467.1666666666667</ele><time>2026-04-19T10:13:36.848Z</time></trkpt><trkpt lat="42.42348946330991" lon="12.666489239529474"><ele>465.33333333333337</ele><time>2026-04-19T10:13:37.848Z</time></trkpt><trkpt lat="42.42341885721918" lon="12.666558603830737"><ele>463.5</ele><time>2026-04-19T10:13:38.848Z</time></trkpt><trkpt lat="42.42335705803778" lon="12.666641197259816"><ele>461.66666666666663</ele><time>2026-04-19T10:13:39.848Z</time></trkpt><trkpt lat="42.423304208665066" lon="12.666727620324579"><ele>459.8333333333333</ele><time>2026-04-19T10:13:40.848Z</time></trkpt><trkpt lat="42.42325947100748" lon="12.666828871799044"><ele>458.0</ele><time>2026-04-19T10:13:41.848Z</time></trkpt><trkpt lat="42.42322047036816" lon="12.666943616462891"><ele>458.0</ele><time>2026-04-19T10:13:42.847Z</time></trkpt><trkpt lat="42.42319075425015" lon="12.667058728364385"><ele>457.99999999999994</ele><time>2026-04-19T10:13:43.847Z</time></trkpt><trkpt lat="42.42317536733953" lon="12.667184536276752"><ele>457.99999999999994</ele><time>2026-04-19T10:13:44.847Z</time></trkpt><trkpt lat="42.42317172569369" lon="12.66732490258425"><ele>458.0</ele><time>2026-04-19T10:13:45.847Z</time></trkpt><trkpt lat="42.42317355502042" lon="12.667469775707564"><ele>458.0</ele><time>2026-04-19T10:13:46.847Z</time></trkpt><trkpt lat="42.42317574883885" lon="12.66762426325335"><ele>457.25</ele><time>2026-04-19T10:13:47.847Z</time></trkpt><trkpt lat="42.42317651884318" lon="12.667788337103831"><ele>456.5</ele><time>2026-04-19T10:13:48.847Z</time></trkpt><trkpt lat="42.42317550873071" lon="12.667963705333007"><ele>455.75</ele><time>2026-04-19T10:13:49.847Z</time></trkpt><trkpt lat="42.42316963625045" lon="12.668124148986168"><ele>455.0</ele><time>2026-04-19T10:13:50.847Z</time></trkpt><trkpt lat="42.423167702123074" lon="12.66828829348342"><ele>455.0</ele><time>2026-04-19T10:13:51.847Z</time></trkpt><trkpt lat="42.42316303019617" lon="12.668448381159427"><ele>455.0</ele><time>2026-04-19T10:13:52.847Z</time></trkpt><trkpt lat="42.42316413725837" lon="12.66861132865228"><ele>455.0</ele><time>2026-04-19T10:13:53.847Z</time></trkpt><trkpt lat="42.423179858334755" lon="12.668767088810748"><ele>455.0</ele><time>2026-04-19T10:13:54.847Z</time></trkpt><trkpt lat="42.423194930895846" lon="12.668927925311692"><ele>453.0</ele><time>2026-04-19T10:13:55.847Z</time></trkpt><trkpt lat="42.423260803301005" lon="12.669053407805789"><ele>451.0</ele><time>2026-04-19T10:13:56.847Z</time></trkpt><trkpt lat="42.423339714992885" lon="12.669145077751498"><ele>449.0</ele><time>2026-04-19T10:13:57.847Z</time></trkpt><trkpt lat="42.42343795754104" lon="12.669194207307111"><ele>447.0</ele><time>2026-04-19T10:13:58.847Z</time></trkpt><trkpt lat="42.42354325792833" lon="12.669238721285266"><ele>445.0</ele><time>2026-04-19T10:13:59.847Z</time></trkpt><trkpt lat="42.42365188892759" lon="12.669250219439625"><ele>445.0</ele><time>2026-04-19T10:14:00.847Z</time></trkpt><trkpt lat="42.423765644161655" lon="12.669243337399532"><ele>445.0</ele><time>2026-04-19T10:14:01.847Z</time></trkpt><trkpt lat="42.42388920978181" lon="12.669227153126686"><ele>445.0</ele><time>2026-04-19T10:14:02.847Z</time></trkpt><trkpt lat="42.42401666477965" lon="12.669210641717687"><ele>445.0</ele><time>2026-04-19T10:14:03.847Z</time></trkpt><trkpt lat="42.42413715050533" lon="12.669199368756619"><ele>446.4</ele><time>2026-04-19T10:14:04.847Z</time></trkpt><trkpt lat="42.42425113753507" lon="12.669199054893445"><ele>447.8</ele><time>2026-04-19T10:14:05.846Z</time></trkpt><trkpt lat="42.42434687805239" lon="12.669215040138136"><ele>449.20000000000005</ele><time>2026-04-19T10:14:06.846Z</time></trkpt><trkpt lat="42.42442870069532" lon="12.669249912141332"><ele>450.6</ele><time>2026-04-19T10:14:07.846Z</time></trkpt><trkpt lat="42.4244946779607" lon="12.669329822580721"><ele>452.0</ele><time>2026-04-19T10:14:08.847Z</time></trkpt><trkpt lat="42.42452987280351" lon="12.669437257126676"><ele>450.3333333333333</ele><time>2026-04-19T10:14:09.847Z</time></trkpt><trkpt lat="42.42452987188879" lon="12.66954898752472"><ele>448.66666666666663</ele><time>2026-04-19T10:14:10.847Z</time></trkpt><trkpt lat="42.42450881594464" lon="12.66965190078644"><ele>447.0</ele><time>2026-04-19T10:14:11.847Z</time></trkpt><trkpt lat="42.424454673044735" lon="12.669735023319362"><ele>445.33333333333337</ele><time>2026-04-19T10:14:12.847Z</time></trkpt><trkpt lat="42.42439500227676" lon="12.669821875615629"><ele>443.6666666666667</ele><time>2026-04-19T10:14:13.847Z</time></trkpt><trkpt lat="42.42433265218865" lon="12.66993055143804"><ele>442.0</ele><time>2026-04-19T10:14:14.847Z</time></trkpt><trkpt lat="42.424278898065936" lon="12.670057552690558"><ele>442.0</ele><time>2026-04-19T10:14:15.847Z</time></trkpt><trkpt lat="42.424247097302974" lon="12.67019140563022"><ele>442.00000000000006</ele><time>2026-04-19T10:14:16.847Z</time></trkpt><trkpt lat="42.424243045126936" lon="12.670326241758586"><ele>442.00000000000006</ele><time>2026-04-19T10:14:17.847Z</time></trkpt><trkpt lat="42.424257573695236" lon="12.67046968482612"><ele>442.0</ele><time>2026-04-19T10:14:18.847Z</time></trkpt><trkpt lat="42.42429330662726" lon="12.670619281701551"><ele>442.0</ele><time>2026-04-19T10:14:19.847Z</time></trkpt><trkpt lat="42.42435625877931" lon="12.67075710407739"><ele>441.5</ele><time>2026-04-19T10:14:20.846Z</time></trkpt><trkpt lat="42.4244319387332" lon="12.670890727173761"><ele>441.0</ele><time>2026-04-19T10:14:21.847Z</time></trkpt><trkpt lat="42.42452311771135" lon="12.67102280009854"><ele>440.5</ele><time>2026-04-19T10:14:22.847Z</time></trkpt><trkpt lat="42.424624155441926" lon="12.671150753622198"><ele>440.0</ele><time>2026-04-19T10:14:23.847Z</time></trkpt><trkpt lat="42.424705228110255" lon="12.67127721154279"><ele>441.6</ele><time>2026-04-19T10:14:24.847Z</time></trkpt><trkpt lat="42.42478632123295" lon="12.671401200947038"><ele>443.2</ele><time>2026-04-19T10:14:25.847Z</time></trkpt><trkpt lat="42.42484450134607" lon="12.671515475349173"><ele>444.79999999999995</ele><time>2026-04-19T10:14:26.847Z</time></trkpt><trkpt lat="42.42487806755833" lon="12.67162846641116"><ele>446.4</ele><time>2026-04-19T10:14:27.847Z</time></trkpt><trkpt lat="42.424882125144514" lon="12.671740996412987"><ele>448.0</ele><time>2026-04-19T10:14:28.846Z</time></trkpt><trkpt lat="42.42486242016086" lon="12.671840519904553"><ele>448.00000000000006</ele><time>2026-04-19T10:14:29.846Z</time></trkpt><trkpt lat="42.424816382130786" lon="12.671928993345288"><ele>448.0</ele><time>2026-04-19T10:14:30.846Z</time></trkpt><trkpt lat="42.42474927144248" lon="12.672007230355502"><ele>448.0</ele><time>2026-04-19T10:14:31.846Z</time></trkpt><trkpt lat="42.42467497537416" lon="12.672056888986402"><ele>448.0</ele><time>2026-04-19T10:14:32.846Z</time></trkpt><trkpt lat="42.424602071440475" lon="12.672075807890506"><ele>448.00000000000006</ele><time>2026-04-19T10:14:33.846Z</time></trkpt><trkpt lat="42.424528604945564" lon="12.672056747857322"><ele>448.0</ele><time>2026-04-19T10:14:34.846Z</time></trkpt><trkpt lat="42.42445396275758" lon="12.672012945100848"><ele>448.0</ele><time>2026-04-19T10:14:35.846Z</time></trkpt><trkpt lat="42.42438036117912" lon="12.671953106154907"><ele>447.99999999999994</ele><time>2026-04-19T10:14:36.846Z</time></trkpt><trkpt lat="42.42429934942926" lon="12.671885645478826"><ele>447.99999999999994</ele><time>2026-04-19T10:14:37.846Z</time></trkpt><trkpt lat="42.42421504164948" lon="12.671810223535779"><ele>448.0</ele><time>2026-04-19T10:14:38.846Z</time></trkpt><trkpt lat="42.424119196547764" lon="12.671734683659569"><ele>448.0</ele><time>2026-04-19T10:14:39.846Z</time></trkpt><trkpt lat="42.42402980939166" lon="12.671639631375157"><ele>448.0</ele><time>2026-04-19T10:14:40.846Z</time></trkpt><trkpt lat="42.423932170479816" lon="12.671534851936876"><ele>448.0</ele><time>2026-04-19T10:14:41.846Z</time></trkpt><trkpt lat="42.42383616041132" lon="12.671443271133485"><ele>448.0</ele><time>2026-04-19T10:14:42.846Z</time></trkpt><trkpt lat="42.423733164273536" lon="12.671344130010311"><ele>448.0</ele><time>2026-04-19T10:14:43.846Z</time></trkpt><trkpt lat="42.42363968834502" lon="12.671241257521155"><ele>446.79999999999995</ele><time>2026-04-19T10:14:44.846Z</time></trkpt><trkpt lat="42.42354842572622" lon="12.671146123531758"><ele>445.59999999999997</ele><time>2026-04-19T10:14:45.846Z</time></trkpt><trkpt lat="42.42345774672886" lon="12.671063401335726"><ele>444.40000000000003</ele><time>2026-04-19T10:14:46.846Z</time></trkpt><trkpt lat="42.42336875148784" lon="12.671001743332676"><ele>443.20000000000005</ele><time>2026-04-19T10:14:47.846Z</time></trkpt><trkpt lat="42.42327264975994" lon="12.670953396268503"><ele>442.0</ele><time>2026-04-19T10:14:48.846Z</time></trkpt><trkpt lat="42.42316717320591" lon="12.670928057911304"><ele>442.0</ele><time>2026-04-19T10:14:49.846Z</time></trkpt><trkpt lat="42.4230514171366" lon="12.670913755422548"><ele>442.0</ele><time>2026-04-19T10:14:50.846Z</time></trkpt><trkpt lat="42.42293340545013" lon="12.670914535498467"><ele>442.0</ele><time>2026-04-19T10:14:51.845Z</time></trkpt><trkpt lat="42.422805873077806" lon="12.670923094991155"><ele>442.0</ele><time>2026-04-19T10:14:52.845Z</time></trkpt><trkpt lat="42.422674000007" lon="12.670936214289894"><ele>442.75</ele><time>2026-04-19T10:14:53.845Z</time></trkpt><trkpt lat="42.42253858403285" lon="12.670943067102856"><ele>443.5</ele><time>2026-04-19T10:14:54.845Z</time></trkpt><trkpt lat="42.42240279508433" lon="12.670956631892833"><ele>444.25</ele><time>2026-04-19T10:14:55.845Z</time></trkpt><trkpt lat="42.422270564902256" lon="12.670969430077687"><ele>445.0</ele><time>2026-04-19T10:14:56.845Z</time></trkpt><trkpt lat="42.422138605850584" lon="12.670949167217257"><ele>443.5</ele><time>2026-04-19T10:14:57.845Z</time></trkpt><trkpt lat="42.42201114008499" lon="12.670963614462439"><ele>442.0</ele><time>2026-04-19T10:14:58.845Z</time></trkpt><trkpt lat="42.42189129295508" lon="12.670960765633552"><ele>440.5</ele><time>2026-04-19T10:14:59.845Z</time></trkpt><trkpt lat="42.42177522613644" lon="12.67101310279661"><ele>439.0</ele><time>2026-04-19T10:15:00.845Z</time></trkpt><trkpt lat="42.42167369495226" lon="12.671092577243664"><ele>441.75</ele><time>2026-04-19T10:15:01.845Z</time></trkpt><trkpt lat="42.4215808012366" lon="12.67119887650648"><ele>444.5</ele><time>2026-04-19T10:15:02.845Z</time></trkpt><trkpt lat="42.421497267049034" lon="12.671328385051961"><ele>447.25</ele><time>2026-04-19T10:15:03.845Z</time></trkpt><trkpt lat="42.42141196223137" lon="12.671467000228592"><ele>450.0</ele><time>2026-04-19T10:15:04.845Z</time></trkpt><trkpt lat="42.42133257593553" lon="12.671593422632082"><ele>446.75</ele><time>2026-04-19T10:15:05.845Z</time></trkpt><trkpt lat="42.42125777279072" lon="12.671721895273693"><ele>443.5</ele><time>2026-04-19T10:15:06.845Z</time></trkpt><trkpt lat="42.42119453483098" lon="12.671854382853436"><ele>440.25</ele><time>2026-04-19T10:15:07.845Z</time></trkpt><trkpt lat="42.421146416541035" lon="12.67200513594899"><ele>437.0</ele><time>2026-04-19T10:15:08.845Z</time></trkpt><trkpt lat="42.42112234669277" lon="12.67217579590508"><ele>437.0</ele><time>2026-04-19T10:15:09.845Z</time></trkpt><trkpt lat="42.42111921243653" lon="12.672353176234852"><ele>437.0</ele><time>2026-04-19T10:15:10.845Z</time></trkpt><trkpt lat="42.42112265737558" lon="12.672548390270656"><ele>437.0</ele><time>2026-04-19T10:15:11.845Z</time></trkpt><trkpt lat="42.421124519057685" lon="12.67274509547268"><ele>437.0</ele><time>2026-04-19T10:15:12.845Z</time></trkpt><trkpt lat="42.42112512255834" lon="12.67292566725116"><ele>437.25</ele><time>2026-04-19T10:15:13.845Z</time></trkpt><trkpt lat="42.4211191469228" lon="12.673107802753735"><ele>437.5</ele><time>2026-04-19T10:15:14.845Z</time></trkpt><trkpt lat="42.42109901796708" lon="12.673289287200683"><ele>437.75</ele><time>2026-04-19T10:15:15.844Z</time></trkpt><trkpt lat="42.42105907444903" lon="12.67345085867109"><ele>438.0</ele><time>2026-04-19T10:15:16.844Z</time></trkpt><trkpt lat="42.420996522867725" lon="12.673573525531914"><ele>438.0</ele><time>2026-04-19T10:15:17.844Z</time></trkpt><trkpt lat="42.42091856774215" lon="12.673673759332132"><ele>437.99999999999994</ele><time>2026-04-19T10:15:18.844Z</time></trkpt><trkpt lat="42.42082481216229" lon="12.673722583037751"><ele>437.99999999999994</ele><time>2026-04-19T10:15:19.844Z</time></trkpt><trkpt lat="42.42071629222384" lon="12.673738394919864"><ele>438.0</ele><time>2026-04-19T10:15:20.844Z</time></trkpt><trkpt lat="42.420599522953694" lon="12.673759726153682"><ele>438.0</ele><time>2026-04-19T10:15:21.844Z</time></trkpt><trkpt lat="42.420476711598084" lon="12.673798545000883"><ele>438.0</ele><time>2026-04-19T10:15:22.844Z</time></trkpt><trkpt lat="42.42035857733007" lon="12.673855144778349"><ele>438.0</ele><time>2026-04-19T10:15:23.844Z</time></trkpt><trkpt lat="42.42024594938141" lon="12.673926987502384"><ele>438.0</ele><time>2026-04-19T10:15:24.844Z</time></trkpt><trkpt lat="42.420150120094505" lon="12.674030715559748"><ele>438.0</ele><time>2026-04-19T10:15:25.844Z</time></trkpt><trkpt lat="42.42006833587" lon="12.674163107507496"><ele>438.0</ele><time>2026-04-19T10:15:26.844Z</time></trkpt><trkpt lat="42.420002911013874" lon="12.674321599912941"><ele>438.0</ele><time>2026-04-19T10:15:27.844Z</time></trkpt><trkpt lat="42.419950918853885" lon="12.674496173718833"><ele>438.0</ele><time>2026-04-19T10:15:28.844Z</time></trkpt><trkpt lat="42.419906712803666" lon="12.674658461928718"><ele>438.0</ele><time>2026-04-19T10:15:29.844Z</time></trkpt><trkpt lat="42.41985802206278" lon="12.674794269718616"><ele>440.0</ele><time>2026-04-19T10:15:30.844Z</time></trkpt><trkpt lat="42.419802363681825" lon="12.674897099927263"><ele>441.99999999999994</ele><time>2026-04-19T10:15:31.844Z</time></trkpt><trkpt lat="42.4197360096481" lon="12.674967764801979"><ele>443.99999999999994</ele><time>2026-04-19T10:15:32.844Z</time></trkpt><trkpt lat="42.41965062477518" lon="12.674971953472868"><ele>446.0</ele><time>2026-04-19T10:15:33.844Z</time></trkpt><trkpt lat="42.41955229034141" lon="12.67498553787094"><ele>448.0</ele><time>2026-04-19T10:15:34.844Z</time></trkpt><trkpt lat="42.419461419702074" lon="12.67498268904632"><ele>448.1666666666667</ele><time>2026-04-19T10:15:35.844Z</time></trkpt><trkpt lat="42.41939436411466" lon="12.67495078911945"><ele>448.33333333333337</ele><time>2026-04-19T10:15:36.844Z</time></trkpt><trkpt lat="42.41933764760984" lon="12.674886409382339"><ele>448.5</ele><time>2026-04-19T10:15:37.844Z</time></trkpt><trkpt lat="42.41929520984915" lon="12.67479029476841"><ele>448.66666666666663</ele><time>2026-04-19T10:15:38.843Z</time></trkpt><trkpt lat="42.419242486496216" lon="12.674668822052423"><ele>448.8333333333333</ele><time>2026-04-19T10:15:39.843Z</time></trkpt><trkpt lat="42.41918287665291" lon="12.674533552737376"><ele>449.0</ele><time>2026-04-19T10:15:40.843Z</time></trkpt><trkpt lat="42.41910834342821" lon="12.674399266804599"><ele>447.25</ele><time>2026-04-19T10:15:41.843Z</time></trkpt><trkpt lat="42.419020677130405" lon="12.67427373780387"><ele>445.5</ele><time>2026-04-19T10:15:42.843Z</time></trkpt><trkpt lat="42.41893347393061" lon="12.674158795459139"><ele>443.75</ele><time>2026-04-19T10:15:43.843Z</time></trkpt><trkpt lat="42.41883901257911" lon="12.674054078835193"><ele>442.0</ele><time>2026-04-19T10:15:44.843Z</time></trkpt><trkpt lat="42.41873783585059" lon="12.673976327809424"><ele>442.0</ele><time>2026-04-19T10:15:45.843Z</time></trkpt><trkpt lat="42.418634082594295" lon="12.673934711259994"><ele>442.00000000000006</ele><time>2026-04-19T10:15:46.843Z</time></trkpt><trkpt lat="42.418530983916725" lon="12.673961904256736"><ele>442.00000000000006</ele><time>2026-04-19T10:15:47.843Z</time></trkpt><trkpt lat="42.41844314240321" lon="12.674004287448666"><ele>442.0</ele><time>2026-04-19T10:15:48.843Z</time></trkpt><trkpt lat="42.41836377032313" lon="12.674052024816799"><ele>442.0</ele><time>2026-04-19T10:15:49.843Z</time></trkpt><trkpt lat="42.41831014856815" lon="12.674181571808324"><ele>442.0</ele><time>2026-04-19T10:15:50.843Z</time></trkpt><trkpt lat="42.418254799392635" lon="12.674314624797404"><ele>442.00000000000006</ele><time>2026-04-19T10:15:51.843Z</time></trkpt><trkpt lat="42.418204945282454" lon="12.674436904659585"><ele>442.00000000000006</ele><time>2026-04-19T10:15:52.843Z</time></trkpt><trkpt lat="42.41813937110295" lon="12.674533261835432"><ele>442.0</ele><time>2026-04-19T10:15:53.843Z</time></trkpt><trkpt lat="42.418061022843034" lon="12.674599422853701"><ele>442.0</ele><time>2026-04-19T10:15:54.843Z</time></trkpt><trkpt lat="42.41798027459616" lon="12.674631381908318"><ele>441.0</ele><time>2026-04-19T10:15:55.843Z</time></trkpt><trkpt lat="42.41788931641833" lon="12.674622717231927"><ele>440.00000000000006</ele><time>2026-04-19T10:15:56.843Z</time></trkpt><trkpt lat="42.41781005676932" lon="12.674568232364424"><ele>439.00000000000006</ele><time>2026-04-19T10:15:57.843Z</time></trkpt><trkpt lat="42.41773333465275" lon="12.67448158433413"><ele>438.0</ele><time>2026-04-19T10:15:58.843Z</time></trkpt><trkpt lat="42.41764628001855" lon="12.674387262569153"><ele>437.0</ele><time>2026-04-19T10:15:59.843Z</time></trkpt><trkpt lat="42.41754599437414" lon="12.674309400919375"><ele>437.0</ele><time>2026-04-19T10:16:00.843Z</time></trkpt><trkpt lat="42.41742913784086" lon="12.674254981727517"><ele>437.0</ele><time>2026-04-19T10:16:01.843Z</time></trkpt><trkpt lat="42.41730037567849" lon="12.674227067230035"><ele>437.0</ele><time>2026-04-19T10:16:02.842Z</time></trkpt><trkpt lat="42.417168069335965" lon="12.674208264641766"><ele>437.0</ele><time>2026-04-19T10:16:03.842Z</time></trkpt><trkpt lat="42.417035105042466" lon="12.674203099992283"><ele>437.25</ele><time>2026-04-19T10:16:04.842Z</time></trkpt><trkpt lat="42.41689881199396" lon="12.674227085214616"><ele>437.5</ele><time>2026-04-19T10:16:05.842Z</time></trkpt><trkpt lat="42.416773319851174" lon="12.674278640503335"><ele>437.75</ele><time>2026-04-19T10:16:06.842Z</time></trkpt><trkpt lat="42.41665215022171" lon="12.674344916969586"><ele>438.0</ele><time>2026-04-19T10:16:07.842Z</time></trkpt><trkpt lat="42.416552447586355" lon="12.67447799889876"><ele>442.75</ele><time>2026-04-19T10:16:08.842Z</time></trkpt><trkpt lat="42.4164541385654" lon="12.674604823535883"><ele>447.5</ele><time>2026-04-19T10:16:09.842Z</time></trkpt><trkpt lat="42.41636266765837" lon="12.674719596813004"><ele>452.25</ele><time>2026-04-19T10:16:10.842Z</time></trkpt><trkpt lat="42.41626682153038" lon="12.674817828298096"><ele>457.0</ele><time>2026-04-19T10:16:11.842Z</time></trkpt><trkpt lat="42.41616132601681" lon="12.674888343115628"><ele>457.0</ele><time>2026-04-19T10:16:12.842Z</time></trkpt><trkpt lat="42.41605210915066" lon="12.674922702410317"><ele>457.00000000000006</ele><time>2026-04-19T10:16:13.842Z</time></trkpt><trkpt lat="42.4159410325785" lon="12.674906670674625"><ele>457.00000000000006</ele><time>2026-04-19T10:16:14.843Z</time></trkpt><trkpt lat="42.415839933887874" lon="12.674866162132664"><ele>457.0</ele><time>2026-04-19T10:16:15.842Z</time></trkpt><trkpt lat="42.41574956450491" lon="12.674790563876133"><ele>457.0</ele><time>2026-04-19T10:16:16.842Z</time></trkpt><trkpt lat="42.41566181715298" lon="12.674674886406658"><ele>457.0</ele><time>2026-04-19T10:16:17.842Z</time></trkpt><trkpt lat="42.41557253551088" lon="12.674532421019121"><ele>457.0</ele><time>2026-04-19T10:16:18.843Z</time></trkpt><trkpt lat="42.415478697636175" lon="12.674395587966497"><ele>457.0</ele><time>2026-04-19T10:16:19.843Z</time></trkpt><trkpt lat="42.41539548264512" lon="12.674276536209726"><ele>457.0</ele><time>2026-04-19T10:16:20.842Z</time></trkpt><trkpt lat="42.415305712893215" lon="12.674185421396208"><ele>456.25</ele><time>2026-04-19T10:16:21.842Z</time></trkpt><trkpt lat="42.41521150189704" lon="12.674086839228682"><ele>455.5</ele><time>2026-04-19T10:16:22.842Z</time></trkpt><trkpt lat="42.41509636943072" lon="12.67406371392877"><ele>454.75</ele><time>2026-04-19T10:16:23.843Z</time></trkpt><trkpt lat="42.41498908698586" lon="12.674126716536527"><ele>454.0</ele><time>2026-04-19T10:16:24.843Z</time></trkpt><trkpt lat="42.41490111801491" lon="12.674212008733425"><ele>454.0</ele><time>2026-04-19T10:16:25.843Z</time></trkpt><trkpt lat="42.41485465424495" lon="12.674317188855268"><ele>454.0</ele><time>2026-04-19T10:16:26.842Z</time></trkpt><trkpt lat="42.41481799094907" lon="12.674429171106322"><ele>454.0</ele><time>2026-04-19T10:16:27.842Z</time></trkpt><trkpt lat="42.41476895950585" lon="12.674572140782573"><ele>454.0</ele><time>2026-04-19T10:16:28.842Z</time></trkpt><trkpt lat="42.41470190180518" lon="12.674739036915621"><ele>454.0</ele><time>2026-04-19T10:16:29.842Z</time></trkpt><trkpt lat="42.41463143201453" lon="12.674917915230028"><ele>453.25</ele><time>2026-04-19T10:16:30.842Z</time></trkpt><trkpt lat="42.414557904237284" lon="12.675102458995532"><ele>452.5</ele><time>2026-04-19T10:16:31.842Z</time></trkpt><trkpt lat="42.414486036339724" lon="12.675274133694902"><ele>451.75</ele><time>2026-04-19T10:16:32.842Z</time></trkpt><trkpt lat="42.41442498283894" lon="12.675435765041165"><ele>451.0</ele><time>2026-04-19T10:16:33.842Z</time></trkpt><trkpt lat="42.4143654790466" lon="12.675592183660111"><ele>451.0</ele><time>2026-04-19T10:16:34.842Z</time></trkpt><trkpt lat="42.414319497644684" lon="12.675759898945923"><ele>451.0</ele><time>2026-04-19T10:16:35.842Z</time></trkpt><trkpt lat="42.41429144352436" lon="12.675930164295762"><ele>451.0</ele><time>2026-04-19T10:16:36.842Z</time></trkpt><trkpt lat="42.41428691519823" lon="12.676117593474036"><ele>451.0</ele><time>2026-04-19T10:16:37.842Z</time></trkpt><trkpt lat="42.4143094273908" lon="12.676314749671647"><ele>451.6666666666667</ele><time>2026-04-19T10:16:38.842Z</time></trkpt><trkpt lat="42.414347887257314" lon="12.676524237205046"><ele>452.33333333333337</ele><time>2026-04-19T10:16:39.842Z</time></trkpt><trkpt lat="42.414396058353915" lon="12.676747775510387"><ele>453.0</ele><time>2026-04-19T10:16:40.842Z</time></trkpt><trkpt lat="42.41444590113266" lon="12.67698735287554"><ele>454.0</ele><time>2026-04-19T10:16:41.842Z</time></trkpt><trkpt lat="42.41448946993655" lon="12.677218925024334"><ele>455.0</ele><time>2026-04-19T10:16:42.842Z</time></trkpt><trkpt lat="42.41452805820585" lon="12.677425274561674"><ele>456.0</ele><time>2026-04-19T10:16:43.842Z</time></trkpt><trkpt lat="42.4145681194526" lon="12.677621117353633"><ele>458.25</ele><time>2026-04-19T10:16:44.842Z</time></trkpt><trkpt lat="42.41460470171704" lon="12.677805841008436"><ele>460.5</ele><time>2026-04-19T10:16:45.842Z</time></trkpt><trkpt lat="42.41463777879041" lon="12.677981172062852"><ele>462.75</ele><time>2026-04-19T10:16:46.842Z</time></trkpt><trkpt lat="42.41466039730356" lon="12.678143125660405"><ele>465.0</ele><time>2026-04-19T10:16:47.842Z</time></trkpt><trkpt lat="42.41465753787864" lon="12.678303462622056"><ele>465.0</ele><time>2026-04-19T10:16:48.842Z</time></trkpt><trkpt lat="42.41462079079194" lon="12.678430903269803"><ele>465.0</ele><time>2026-04-19T10:16:49.842Z</time></trkpt><trkpt lat="42.414551343863806" lon="12.678524125336496"><ele>465.0</ele><time>2026-04-19T10:16:50.841Z</time></trkpt><trkpt lat="42.41446184778015" lon="12.678585740570314"><ele>465.0</ele><time>2026-04-19T10:16:51.841Z</time></trkpt><trkpt lat="42.41435870786137" lon="12.678614751843563"><ele>465.0</ele><time>2026-04-19T10:16:52.841Z</time></trkpt><trkpt lat="42.4142446079542" lon="12.67861547194228"><ele>465.0</ele><time>2026-04-19T10:16:53.841Z</time></trkpt><trkpt lat="42.414124003868075" lon="12.678602534540873"><ele>465.0</ele><time>2026-04-19T10:16:54.841Z</time></trkpt><trkpt lat="42.41401438683492" lon="12.678598135791525"><ele>465.0</ele><time>2026-04-19T10:16:55.841Z</time></trkpt><trkpt lat="42.41390617064491" lon="12.67859528155247"><ele>465.0</ele><time>2026-04-19T10:16:56.841Z</time></trkpt><trkpt lat="42.413805733140784" lon="12.678595113447654"><ele>465.0</ele><time>2026-04-19T10:16:57.841Z</time></trkpt><trkpt lat="42.41371318491104" lon="12.678600364637447"><ele>468.1666666666667</ele><time>2026-04-19T10:16:58.841Z</time></trkpt><trkpt lat="42.4136314392988" lon="12.678607818657067"><ele>471.33333333333337</ele><time>2026-04-19T10:16:59.841Z</time></trkpt><trkpt lat="42.41355859073165" lon="12.678618636199477"><ele>474.5</ele><time>2026-04-19T10:17:00.841Z</time></trkpt><trkpt lat="42.41349431080936" lon="12.678629066282046"><ele>477.6666666666667</ele><time>2026-04-19T10:17:01.841Z</time></trkpt><trkpt lat="42.413431582135914" lon="12.678644890922616"><ele>480.83333333333337</ele><time>2026-04-19T10:17:02.841Z</time></trkpt><trkpt lat="42.413349982395495" lon="12.678627618945491"><ele>484.0</ele><time>2026-04-19T10:17:04.841Z</time></trkpt><trkpt lat="42.41332682830048" lon="12.678858761347641"><ele>484.0</ele><time>2026-04-19T10:17:06.841Z</time></trkpt><trkpt lat="42.413320800665836" lon="12.678954402047548"><ele>483.99999999999994</ele><time>2026-04-19T10:17:07.841Z</time></trkpt><trkpt lat="42.41330731734407" lon="12.679053066698174"><ele>484.0</ele><time>2026-04-19T10:17:08.841Z</time></trkpt><trkpt lat="42.413261762357145" lon="12.679142464990608"><ele>484.0</ele><time>2026-04-19T10:17:09.841Z</time></trkpt><trkpt lat="42.41320109894726" lon="12.679198426288242"><ele>483.99999999999994</ele><time>2026-04-19T10:17:10.841Z</time></trkpt><trkpt lat="42.41312924499563" lon="12.679223016641172"><ele>484.0</ele><time>2026-04-19T10:17:11.841Z</time></trkpt><trkpt lat="42.413058342662595" lon="12.679186390757426"><ele>484.0</ele><time>2026-04-19T10:17:12.841Z</time></trkpt><trkpt lat="42.41297408657625" lon="12.679152876579428"><ele>483.2</ele><time>2026-04-19T10:17:13.841Z</time></trkpt><trkpt lat="42.41288757738859" lon="12.679085462037365"><ele>482.4</ele><time>2026-04-19T10:17:14.84Z</time></trkpt><trkpt lat="42.412791259541336" lon="12.679019122292909"><ele>481.6</ele><time>2026-04-19T10:17:15.84Z</time></trkpt><trkpt lat="42.41270565093865" lon="12.678979571145371"><ele>480.8</ele><time>2026-04-19T10:17:16.84Z</time></trkpt><trkpt lat="42.41261558035791" lon="12.678981894003918"><ele>480.0</ele><time>2026-04-19T10:17:17.84Z</time></trkpt><trkpt lat="42.4125218517172" lon="12.679009837547145"><ele>480.0</ele><time>2026-04-19T10:17:18.84Z</time></trkpt><trkpt lat="42.41244024258438" lon="12.679075168940464"><ele>480.0</ele><time>2026-04-19T10:17:19.84Z</time></trkpt><trkpt lat="42.41236499856385" lon="12.679184876444467"><ele>480.0</ele><time>2026-04-19T10:17:20.84Z</time></trkpt><trkpt lat="42.412291649616336" lon="12.679311384152125"><ele>480.0</ele><time>2026-04-19T10:17:21.84Z</time></trkpt><trkpt lat="42.412210376330364" lon="12.679454908680736"><ele>479.25</ele><time>2026-04-19T10:17:22.84Z</time></trkpt><trkpt lat="42.41211781159274" lon="12.679602624450842"><ele>478.5</ele><time>2026-04-19T10:17:23.84Z</time></trkpt><trkpt lat="42.412029779492556" lon="12.679764059976637"><ele>477.75</ele><time>2026-04-19T10:17:24.84Z</time></trkpt><trkpt lat="42.41193622555217" lon="12.679926480981809"><ele>477.0</ele><time>2026-04-19T10:17:25.84Z</time></trkpt><trkpt lat="42.41183430325987" lon="12.680081271147822"><ele>477.0</ele><time>2026-04-19T10:17:26.84Z</time></trkpt><trkpt lat="42.41175256435507" lon="12.680259331449843"><ele>477.0</ele><time>2026-04-19T10:17:27.84Z</time></trkpt><trkpt lat="42.411681211855914" lon="12.68043338727255"><ele>477.0</ele><time>2026-04-19T10:17:28.84Z</time></trkpt><trkpt lat="42.411621854495266" lon="12.68059842786671"><ele>477.0</ele><time>2026-04-19T10:17:29.84Z</time></trkpt><trkpt lat="42.411564472820146" lon="12.680751821820953"><ele>479.75</ele><time>2026-04-19T10:17:30.84Z</time></trkpt><trkpt lat="42.41152732783124" lon="12.680903415512054"><ele>482.5</ele><time>2026-04-19T10:17:31.84Z</time></trkpt><trkpt lat="42.41150814949937" lon="12.681063235458879"><ele>485.25</ele><time>2026-04-19T10:17:32.84Z</time></trkpt><trkpt lat="42.41150358709768" lon="12.681230608611216"><ele>488.0</ele><time>2026-04-19T10:17:33.84Z</time></trkpt><trkpt lat="42.411522279473125" lon="12.681407322668482"><ele>489.75</ele><time>2026-04-19T10:17:34.84Z</time></trkpt><trkpt lat="42.41154355639794" lon="12.681584602989432"><ele>491.5</ele><time>2026-04-19T10:17:35.84Z</time></trkpt><trkpt lat="42.41156293525987" lon="12.681758926545008"><ele>493.25</ele><time>2026-04-19T10:17:36.84Z</time></trkpt><trkpt lat="42.41158124576689" lon="12.681928023993967"><ele>495.0</ele><time>2026-04-19T10:17:37.839Z</time></trkpt><trkpt lat="42.41160130204101" lon="12.682108356183148"><ele>495.0</ele><time>2026-04-19T10:17:38.839Z</time></trkpt><trkpt lat="42.41161728278033" lon="12.68229053497435"><ele>495.0</ele><time>2026-04-19T10:17:39.839Z</time></trkpt><trkpt lat="42.41163168678332" lon="12.682473721437844"><ele>495.0</ele><time>2026-04-19T10:17:40.839Z</time></trkpt><trkpt lat="42.41164920444335" lon="12.682643902596856"><ele>495.0</ele><time>2026-04-19T10:17:41.839Z</time></trkpt><trkpt lat="42.41167391400524" lon="12.682804487089552"><ele>494.25</ele><time>2026-04-19T10:17:42.839Z</time></trkpt><trkpt lat="42.41170416606279" lon="12.68296223157523"><ele>493.5</ele><time>2026-04-19T10:17:43.839Z</time></trkpt><trkpt lat="42.41175097358576" lon="12.683107356280438"><ele>492.75</ele><time>2026-04-19T10:17:44.839Z</time></trkpt><trkpt lat="42.41180725829328" lon="12.683245079851691"><ele>492.0</ele><time>2026-04-19T10:17:45.839Z</time></trkpt><trkpt lat="42.41186699597227" lon="12.683377774066836"><ele>492.0</ele><time>2026-04-19T10:17:46.839Z</time></trkpt><trkpt lat="42.4119147356228" lon="12.683495356203789"><ele>492.00000000000006</ele><time>2026-04-19T10:17:47.839Z</time></trkpt><trkpt lat="42.41194272636653" lon="12.683610689481428"><ele>492.00000000000006</ele><time>2026-04-19T10:17:48.839Z</time></trkpt><trkpt lat="42.41194313506279" lon="12.68372558007787"><ele>492.0</ele><time>2026-04-19T10:17:49.839Z</time></trkpt><trkpt lat="42.41192008809857" lon="12.683856741415342"><ele>492.0</ele><time>2026-04-19T10:17:50.839Z</time></trkpt><trkpt lat="42.4118816814538" lon="12.683988028614495"><ele>494.8</ele><time>2026-04-19T10:17:51.839Z</time></trkpt><trkpt lat="42.4118325076852" lon="12.684097472386068"><ele>497.6</ele><time>2026-04-19T10:17:52.839Z</time></trkpt><trkpt lat="42.41175361641045" lon="12.684174870810978"><ele>500.40000000000003</ele><time>2026-04-19T10:17:53.839Z</time></trkpt><trkpt lat="42.41166144893516" lon="12.68423814186612"><ele>503.20000000000005</ele><time>2026-04-19T10:17:54.839Z</time></trkpt><trkpt lat="42.41155727616615" lon="12.68430888115226"><ele>506.0</ele><time>2026-04-19T10:17:55.839Z</time></trkpt><trkpt lat="42.41146416201904" lon="12.684367965233882"><ele>506.0</ele><time>2026-04-19T10:17:56.839Z</time></trkpt><trkpt lat="42.41136892020517" lon="12.684332125140116"><ele>506.0</ele><time>2026-04-19T10:17:57.839Z</time></trkpt><trkpt lat="42.41128034476658" lon="12.684288359182764"><ele>506.0</ele><time>2026-04-19T10:17:58.839Z</time></trkpt><trkpt lat="42.41117380838412" lon="12.684230022160799"><ele>506.0</ele><time>2026-04-19T10:17:59.839Z</time></trkpt><trkpt lat="42.411050732212495" lon="12.684163835384703"><ele>506.0</ele><time>2026-04-19T10:18:00.839Z</time></trkpt><trkpt lat="42.41091698942957" lon="12.684101201710972"><ele>508.25</ele><time>2026-04-19T10:18:01.838Z</time></trkpt><trkpt lat="42.4107846230629" lon="12.684037569060697"><ele>510.5</ele><time>2026-04-19T10:18:02.838Z</time></trkpt><trkpt lat="42.41065300151393" lon="12.68397309146874"><ele>512.75</ele><time>2026-04-19T10:18:03.838Z</time></trkpt><trkpt lat="42.41052980592963" lon="12.683912741462462"><ele>515.0</ele><time>2026-04-19T10:18:04.838Z</time></trkpt><trkpt lat="42.4104190654022" lon="12.683857269151211"><ele>515.4</ele><time>2026-04-19T10:18:05.838Z</time></trkpt><trkpt lat="42.41031265076367" lon="12.683804018675936"><ele>515.8</ele><time>2026-04-19T10:18:06.838Z</time></trkpt><trkpt lat="42.41020017048595" lon="12.683757155750962"><ele>516.2</ele><time>2026-04-19T10:18:07.838Z</time></trkpt><trkpt lat="42.410100632114364" lon="12.683745026520558"><ele>516.6</ele><time>2026-04-19T10:18:08.838Z</time></trkpt><trkpt lat="42.41001391160302" lon="12.683767491667002"><ele>517.0</ele><time>2026-04-19T10:18:09.838Z</time></trkpt><trkpt lat="42.409944041986016" lon="12.683853677236941"><ele>517.0</ele><time>2026-04-19T10:18:10.838Z</time></trkpt><trkpt lat="42.40987800377348" lon="12.683946206509036"><ele>517.0</ele><time>2026-04-19T10:18:11.838Z</time></trkpt><trkpt lat="42.409817569314754" lon="12.684064494688663"><ele>517.0</ele><time>2026-04-19T10:18:12.838Z</time></trkpt><trkpt lat="42.409760111078924" lon="12.684200018327678"><ele>517.0</ele><time>2026-04-19T10:18:13.838Z</time></trkpt><trkpt lat="42.40970117596569" lon="12.684344804032488"><ele>517.0</ele><time>2026-04-19T10:18:14.838Z</time></trkpt><trkpt lat="42.40963163520048" lon="12.684502598103496"><ele>515.5</ele><time>2026-04-19T10:18:15.838Z</time></trkpt><trkpt lat="42.40955922610265" lon="12.68465244439712"><ele>514.0</ele><time>2026-04-19T10:18:16.838Z</time></trkpt><trkpt lat="42.40949758842043" lon="12.684805946064833"><ele>512.5</ele><time>2026-04-19T10:18:17.838Z</time></trkpt><trkpt lat="42.409435908462186" lon="12.684953894437418"><ele>511.0</ele><time>2026-04-19T10:18:18.838Z</time></trkpt><trkpt lat="42.40937258245288" lon="12.685101350598643"><ele>511.0</ele><time>2026-04-19T10:18:19.838Z</time></trkpt><trkpt lat="42.409313686159415" lon="12.685253642417456"><ele>511.0</ele><time>2026-04-19T10:18:20.839Z</time></trkpt><trkpt lat="42.409255128897435" lon="12.68540937925033"><ele>511.0</ele><time>2026-04-19T10:18:21.838Z</time></trkpt><trkpt lat="42.409204079448166" lon="12.685574318000828"><ele>511.0</ele><time>2026-04-19T10:18:22.838Z</time></trkpt><trkpt lat="42.409166444137" lon="12.685750648292878"><ele>514.75</ele><time>2026-04-19T10:18:23.838Z</time></trkpt><trkpt lat="42.40913092058453" lon="12.685935803917447"><ele>518.5</ele><time>2026-04-19T10:18:24.838Z</time></trkpt><trkpt lat="42.40909673030829" lon="12.686122955495467"><ele>522.25</ele><time>2026-04-19T10:18:25.838Z</time></trkpt><trkpt lat="42.40905712512989" lon="12.686310114378491"><ele>526.0</ele><time>2026-04-19T10:18:26.838Z</time></trkpt><trkpt lat="42.4090200856892" lon="12.686482018319312"><ele>525.75</ele><time>2026-04-19T10:18:27.838Z</time></trkpt><trkpt lat="42.40898374202667" lon="12.686637057952943"><ele>525.5</ele><time>2026-04-19T10:18:28.838Z</time></trkpt><trkpt lat="42.40894892748226" lon="12.686781994874808"><ele>525.25</ele><time>2026-04-19T10:18:29.837Z</time></trkpt><trkpt lat="42.408886142127464" lon="12.686908761126755"><ele>525.0</ele><time>2026-04-19T10:18:30.837Z</time></trkpt><trkpt lat="42.40882000020206" lon="12.687024925254697"><ele>525.0</ele><time>2026-04-19T10:18:31.837Z</time></trkpt><trkpt lat="42.40874925251231" lon="12.687125124772603"><ele>525.0</ele><time>2026-04-19T10:18:32.838Z</time></trkpt><trkpt lat="42.40872803347645" lon="12.687257004104936"><ele>525.0</ele><time>2026-04-19T10:18:33.838Z</time></trkpt><trkpt lat="42.40872937705231" lon="12.68736835503474"><ele>525.0</ele><time>2026-04-19T10:18:34.838Z</time></trkpt><trkpt lat="42.40875994409409" lon="12.687446161221603"><ele>525.0</ele><time>2026-04-19T10:18:35.838Z</time></trkpt><trkpt lat="42.4088072001269" lon="12.687526008664252"><ele>525.0</ele><time>2026-04-19T10:18:36.837Z</time></trkpt><trkpt lat="42.40886552433816" lon="12.687596088295166"><ele>526.2</ele><time>2026-04-19T10:18:37.837Z</time></trkpt><trkpt lat="42.40892897702981" lon="12.687677814251384"><ele>527.4</ele><time>2026-04-19T10:18:38.837Z</time></trkpt><trkpt lat="42.40899522669829" lon="12.687769718859856"><ele>528.6</ele><time>2026-04-19T10:18:39.837Z</time></trkpt><trkpt lat="42.40906772564376" lon="12.6878818448131"><ele>529.8</ele><time>2026-04-19T10:18:40.837Z</time></trkpt><trkpt lat="42.40914954587734" lon="12.687998528416403"><ele>531.0</ele><time>2026-04-19T10:18:41.837Z</time></trkpt><trkpt lat="42.409238186931844" lon="12.688109024664316"><ele>531.0</ele><time>2026-04-19T10:18:42.837Z</time></trkpt><trkpt lat="42.40931935832539" lon="12.68823407818249"><ele>531.0</ele><time>2026-04-19T10:18:43.837Z</time></trkpt><trkpt lat="42.40939177940982" lon="12.688383156067308"><ele>531.0</ele><time>2026-04-19T10:18:44.837Z</time></trkpt><trkpt lat="42.40946742618661" lon="12.688542596361788"><ele>531.0</ele><time>2026-04-19T10:18:45.837Z</time></trkpt><trkpt lat="42.40954208405398" lon="12.688702422427035"><ele>524.0</ele><time>2026-04-19T10:18:46.837Z</time></trkpt><trkpt lat="42.409613894386524" lon="12.688851264697465"><ele>517.0</ele><time>2026-04-19T10:18:47.837Z</time></trkpt><trkpt lat="42.409688104089575" lon="12.688999930708068"><ele>510.0</ele><time>2026-04-19T10:18:48.837Z</time></trkpt><trkpt lat="42.40976857874943" lon="12.689145255506961"><ele>503.0</ele><time>2026-04-19T10:18:49.837Z</time></trkpt><trkpt lat="42.40985728601197" lon="12.689281270820862"><ele>508.79999999999995</ele><time>2026-04-19T10:18:50.837Z</time></trkpt><trkpt lat="42.40993940322566" lon="12.689402293439132"><ele>514.5999999999999</ele><time>2026-04-19T10:18:51.837Z</time></trkpt><trkpt lat="42.410007422788546" lon="12.689518437779284"><ele>520.4000000000001</ele><time>2026-04-19T10:18:52.837Z</time></trkpt><trkpt lat="42.41008086932235" lon="12.689609133184462"><ele>526.2</ele><time>2026-04-19T10:18:53.837Z</time></trkpt><trkpt lat="42.41014542677303" lon="12.689693144203394"><ele>532.0</ele><time>2026-04-19T10:18:54.837Z</time></trkpt><trkpt lat="42.41020335122762" lon="12.689764858634462"><ele>532.0</ele><time>2026-04-19T10:18:55.837Z</time></trkpt><trkpt lat="42.41024649048036" lon="12.68984275645504"><ele>532.0</ele><time>2026-04-19T10:18:56.837Z</time></trkpt><trkpt lat="42.41027487413548" lon="12.689921760901763"><ele>532.0</ele><time>2026-04-19T10:18:57.837Z</time></trkpt><trkpt lat="42.41031465768449" lon="12.69004947934458"><ele>532.0</ele><time>2026-04-19T10:18:59.836Z</time></trkpt><trkpt lat="42.41031633938751" lon="12.690180390961093"><ele>532.0</ele><time>2026-04-19T10:19:01.836Z</time></trkpt><trkpt lat="42.410324574120644" lon="12.690274417917324"><ele>532.0</ele><time>2026-04-19T10:19:03.836Z</time></trkpt><trkpt lat="42.41033512742922" lon="12.69037704683688"><ele>528.8333333333334</ele><time>2026-04-19T10:19:19.836Z</time></trkpt><trkpt lat="42.41034710262574" lon="12.690483851678128"><ele>525.6666666666667</ele><time>2026-04-19T10:19:21.836Z</time></trkpt><trkpt lat="42.41035719682452" lon="12.690572631215966"><ele>522.5</ele><time>2026-04-19T10:19:22.836Z</time></trkpt><trkpt lat="42.41036909837788" lon="12.690677305829066"><ele>519.3333333333334</ele><time>2026-04-19T10:19:23.835Z</time></trkpt><trkpt lat="42.41038252983337" lon="12.690780928858674"><ele>516.1666666666666</ele><time>2026-04-19T10:19:24.835Z</time></trkpt><trkpt lat="42.41040751057225" lon="12.690871919473523"><ele>513.0</ele><time>2026-04-19T10:19:25.835Z</time></trkpt><trkpt lat="42.410407391367215" lon="12.690980467411533"><ele>516.4</ele><time>2026-04-19T10:19:26.835Z</time></trkpt><trkpt lat="42.41042723411974" lon="12.691103517086196"><ele>519.8</ele><time>2026-04-19T10:19:27.835Z</time></trkpt><trkpt lat="42.4104383809723" lon="12.691234985515104"><ele>523.2</ele><time>2026-04-19T10:19:28.835Z</time></trkpt><trkpt lat="42.410458227647574" lon="12.691359650407172"><ele>526.6</ele><time>2026-04-19T10:19:29.835Z</time></trkpt><trkpt lat="42.41046526774199" lon="12.691482074288539"><ele>530.0</ele><time>2026-04-19T10:19:30.835Z</time></trkpt><trkpt lat="42.41044972526816" lon="12.691604460665056"><ele>530.0</ele><time>2026-04-19T10:19:31.835Z</time></trkpt><trkpt lat="42.410408804266226" lon="12.691723484035732"><ele>530.0</ele><time>2026-04-19T10:19:32.835Z</time></trkpt><trkpt lat="42.41035382720077" lon="12.691837588533847"><ele>530.0</ele><time>2026-04-19T10:19:33.835Z</time></trkpt><trkpt lat="42.41027236807092" lon="12.691969691173517"><ele>530.0</ele><time>2026-04-19T10:19:34.835Z</time></trkpt><trkpt lat="42.41020193372068" lon="12.692096857264813"><ele>530.0</ele><time>2026-04-19T10:19:35.835Z</time></trkpt><trkpt lat="42.41013350613697" lon="12.692210551827122"><ele>533.0</ele><time>2026-04-19T10:19:36.835Z</time></trkpt><trkpt lat="42.41007555434337" lon="12.692333850452545"><ele>536.0</ele><time>2026-04-19T10:19:37.835Z</time></trkpt><trkpt lat="42.4100423760988" lon="12.69247210983444"><ele>539.0</ele><time>2026-04-19T10:19:38.835Z</time></trkpt><trkpt lat="42.4100216578513" lon="12.692616512578814"><ele>542.0</ele><time>2026-04-19T10:19:39.835Z</time></trkpt><trkpt lat="42.41003237296804" lon="12.692765406925975"><ele>545.0</ele><time>2026-04-19T10:19:40.835Z</time></trkpt><trkpt lat="42.410070538922916" lon="12.692925088805833"><ele>545.0</ele><time>2026-04-19T10:19:41.835Z</time></trkpt><trkpt lat="42.41011491403103" lon="12.69309293351503"><ele>545.0</ele><time>2026-04-19T10:19:42.835Z</time></trkpt><trkpt lat="42.41014163858751" lon="12.693264048481778"><ele>545.0</ele><time>2026-04-19T10:19:43.835Z</time></trkpt><trkpt lat="42.41015237381063" lon="12.693438408349827"><ele>545.0</ele><time>2026-04-19T10:19:44.835Z</time></trkpt><trkpt lat="42.41015618861361" lon="12.693595170633397"><ele>544.0</ele><time>2026-04-19T10:19:45.835Z</time></trkpt><trkpt lat="42.41017109509302" lon="12.693735273544068"><ele>543.0</ele><time>2026-04-19T10:19:46.834Z</time></trkpt><trkpt lat="42.41020796395616" lon="12.693841740582497"><ele>542.0</ele><time>2026-04-19T10:19:47.834Z</time></trkpt><trkpt lat="42.410270249178424" lon="12.693923053445165"><ele>541.0</ele><time>2026-04-19T10:19:48.834Z</time></trkpt><trkpt lat="42.41035282460513" lon="12.693982704850931"><ele>540.0</ele><time>2026-04-19T10:19:49.834Z</time></trkpt><trkpt lat="42.41046947153284" lon="12.6940445427093"><ele>547.25</ele><time>2026-04-19T10:19:50.834Z</time></trkpt><trkpt lat="42.410596568455006" lon="12.694116543582007"><ele>554.5</ele><time>2026-04-19T10:19:51.834Z</time></trkpt><trkpt lat="42.41072582382851" lon="12.69420043378701"><ele>561.75</ele><time>2026-04-19T10:19:52.834Z</time></trkpt><trkpt lat="42.410854584408796" lon="12.694287884957015"><ele>569.0</ele><time>2026-04-19T10:19:53.834Z</time></trkpt><trkpt lat="42.41096345125837" lon="12.694371060508475"><ele>565.0</ele><time>2026-04-19T10:19:54.834Z</time></trkpt><trkpt lat="42.41107724037343" lon="12.69443237056308"><ele>561.0</ele><time>2026-04-19T10:19:55.834Z</time></trkpt><trkpt lat="42.41118987767495" lon="12.69446892298227"><ele>557.0</ele><time>2026-04-19T10:19:56.834Z</time></trkpt><trkpt lat="42.411305158131036" lon="12.694478504193492"><ele>553.0</ele><time>2026-04-19T10:19:57.834Z</time></trkpt><trkpt lat="42.411425009101364" lon="12.694466100733697"><ele>553.0</ele><time>2026-04-19T10:19:58.834Z</time></trkpt><trkpt lat="42.411554243773274" lon="12.694443177918343"><ele>553.0</ele><time>2026-04-19T10:19:59.834Z</time></trkpt><trkpt lat="42.4116776826922" lon="12.694419792698325"><ele>553.0</ele><time>2026-04-19T10:20:00.834Z</time></trkpt><trkpt lat="42.411794485346306" lon="12.694406399858922"><ele>553.0</ele><time>2026-04-19T10:20:01.834Z</time></trkpt><trkpt lat="42.41190763520201" lon="12.69443683275374"><ele>553.0</ele><time>2026-04-19T10:20:02.834Z</time></trkpt><trkpt lat="42.41199758334691" lon="12.694493566961473"><ele>553.0</ele><time>2026-04-19T10:20:03.834Z</time></trkpt><trkpt lat="42.412061502556874" lon="12.694587245402014"><ele>553.0</ele><time>2026-04-19T10:20:04.834Z</time></trkpt><trkpt lat="42.41211785594024" lon="12.694700101790504"><ele>553.0</ele><time>2026-04-19T10:20:05.834Z</time></trkpt><trkpt lat="42.41218247305039" lon="12.694817049729565"><ele>553.0</ele><time>2026-04-19T10:20:06.834Z</time></trkpt><trkpt lat="42.412268678405496" lon="12.694929914833763"><ele>556.25</ele><time>2026-04-19T10:20:07.834Z</time></trkpt><trkpt lat="42.412379236274184" lon="12.695007272259547"><ele>559.5</ele><time>2026-04-19T10:20:08.834Z</time></trkpt><trkpt lat="42.41250789955881" lon="12.695056061000129"><ele>562.75</ele><time>2026-04-19T10:20:09.834Z</time></trkpt><trkpt lat="42.41264225751349" lon="12.695073420089267"><ele>566.0</ele><time>2026-04-19T10:20:10.833Z</time></trkpt><trkpt lat="42.4127656664904" lon="12.695078230175167"><ele>566.0</ele><time>2026-04-19T10:20:11.833Z</time></trkpt><trkpt lat="42.41288254165765" lon="12.695083435341605"><ele>566.0</ele><time>2026-04-19T10:20:12.833Z</time></trkpt><trkpt lat="42.41297727084765" lon="12.695095756300402"><ele>566.0</ele><time>2026-04-19T10:20:13.833Z</time></trkpt><trkpt lat="42.41304282519594" lon="12.695130827566901"><ele>566.0</ele><time>2026-04-19T10:20:14.833Z</time></trkpt><trkpt lat="42.413086675029476" lon="12.695198082067806"><ele>566.0</ele><time>2026-04-19T10:20:15.833Z</time></trkpt><trkpt lat="42.413109932292876" lon="12.695292242091"><ele>566.0</ele><time>2026-04-19T10:20:16.833Z</time></trkpt><trkpt lat="42.413083578001206" lon="12.695428824215158"><ele>567.2</ele><time>2026-04-19T10:20:17.833Z</time></trkpt><trkpt lat="42.41307670004328" lon="12.695582518013719"><ele>568.4000000000001</ele><time>2026-04-19T10:20:18.833Z</time></trkpt><trkpt lat="42.413069967009854" lon="12.695735726766046"><ele>569.6</ele><time>2026-04-19T10:20:19.833Z</time></trkpt><trkpt lat="42.41306530063619" lon="12.695875905164643"><ele>570.8000000000001</ele><time>2026-04-19T10:20:20.833Z</time></trkpt><trkpt lat="42.41304063233625" lon="12.695994521583156"><ele>572.0</ele><time>2026-04-19T10:20:21.833Z</time></trkpt><trkpt lat="42.413001979698834" lon="12.696097108213602"><ele>577.8000000000001</ele><time>2026-04-19T10:20:22.833Z</time></trkpt><trkpt lat="42.412905225108204" lon="12.696142579339664"><ele>583.6</ele><time>2026-04-19T10:20:23.833Z</time></trkpt><trkpt lat="42.412812634907766" lon="12.6962027852792"><ele>589.4000000000001</ele><time>2026-04-19T10:20:24.833Z</time></trkpt><trkpt lat="42.41273101105849" lon="12.696266365657918"><ele>595.2</ele><time>2026-04-19T10:20:25.833Z</time></trkpt><trkpt lat="42.41264909472647" lon="12.69630283480181"><ele>601.0</ele><time>2026-04-19T10:20:26.833Z</time></trkpt><trkpt lat="42.41255693986703" lon="12.696312532848765"><ele>601.0</ele><time>2026-04-19T10:20:27.833Z</time></trkpt><trkpt lat="42.41245455378482" lon="12.696258657538435"><ele>601.0</ele><time>2026-04-19T10:20:28.833Z</time></trkpt><trkpt lat="42.412339734255404" lon="12.696256585705065"><ele>601.0</ele><time>2026-04-19T10:20:29.833Z</time></trkpt><trkpt lat="42.41222524044786" lon="12.696254007417412"><ele>601.0</ele><time>2026-04-19T10:20:30.832Z</time></trkpt><trkpt lat="42.41212072107434" lon="12.69627061942146"><ele>601.0</ele><time>2026-04-19T10:20:31.832Z</time></trkpt><trkpt lat="42.41201070897144" lon="12.696269390544204"><ele>605.0</ele><time>2026-04-19T10:20:32.832Z</time></trkpt><trkpt lat="42.41190210167073" lon="12.696248649285275"><ele>609.0</ele><time>2026-04-19T10:20:33.832Z</time></trkpt><trkpt lat="42.41182057261552" lon="12.696164470190784"><ele>613.0</ele><time>2026-04-19T10:20:34.832Z</time></trkpt><trkpt lat="42.411722038201844" lon="12.696083986139904"><ele>617.0</ele><time>2026-04-19T10:20:35.832Z</time></trkpt><trkpt lat="42.41160974977149" lon="12.695993599722955"><ele>604.75</ele><time>2026-04-19T10:20:36.832Z</time></trkpt><trkpt lat="42.41149522150054" lon="12.695910338567726"><ele>592.5</ele><time>2026-04-19T10:20:37.832Z</time></trkpt><trkpt lat="42.41136445089485" lon="12.69590018147438"><ele>580.25</ele><time>2026-04-19T10:20:38.832Z</time></trkpt><trkpt lat="42.41124236134278" lon="12.695956713207897"><ele>568.0</ele><time>2026-04-19T10:20:39.832Z</time></trkpt><trkpt lat="42.411112234304795" lon="12.696014838405006"><ele>567.6666666666667</ele><time>2026-04-19T10:20:40.832Z</time></trkpt><trkpt lat="42.410966775525715" lon="12.696068083754875"><ele>567.3333333333334</ele><time>2026-04-19T10:20:41.832Z</time></trkpt><trkpt lat="42.410813137320304" lon="12.69610816201229"><ele>567.0</ele><time>2026-04-19T10:20:42.831Z</time></trkpt><trkpt lat="42.410653325917664" lon="12.6961362420142"><ele>585.0</ele><time>2026-04-19T10:20:43.831Z</time></trkpt><trkpt lat="42.41048364778914" lon="12.696134246516708"><ele>603.0</ele><time>2026-04-19T10:20:44.831Z</time></trkpt><trkpt lat="42.41031919498942" lon="12.696117597105795"><ele>621.0</ele><time>2026-04-19T10:20:45.831Z</time></trkpt><trkpt lat="42.41016136680651" lon="12.696122384166113"><ele>621.0</ele><time>2026-04-19T10:20:46.831Z</time></trkpt><trkpt lat="42.41001873550658" lon="12.696158366426872"><ele>621.0</ele><time>2026-04-19T10:20:47.831Z</time></trkpt><trkpt lat="42.409895781609954" lon="12.696199661702323"><ele>621.0</ele><time>2026-04-19T10:20:48.831Z</time></trkpt><trkpt lat="42.409792815147696" lon="12.696220006703314"><ele>621.0</ele><time>2026-04-19T10:20:49.831Z</time></trkpt><trkpt lat="42.409685209471675" lon="12.696204051471476"><ele>625.75</ele><time>2026-04-19T10:20:50.831Z</time></trkpt><trkpt lat="42.40957884658395" lon="12.696148823881739"><ele>630.5</ele><time>2026-04-19T10:20:51.831Z</time></trkpt><trkpt lat="42.4094674318575" lon="12.696053910821549"><ele>635.25</ele><time>2026-04-19T10:20:52.831Z</time></trkpt><trkpt lat="42.40933971483964" lon="12.695956158449587"><ele>640.0</ele><time>2026-04-19T10:20:53.831Z</time></trkpt><trkpt lat="42.409192379805674" lon="12.695879548820994"><ele>634.0</ele><time>2026-04-19T10:20:54.831Z</time></trkpt><trkpt lat="42.409044358336565" lon="12.695820208054961"><ele>628.0</ele><time>2026-04-19T10:20:55.831Z</time></trkpt><trkpt lat="42.40891541716417" lon="12.695766186265956"><ele>622.0</ele><time>2026-04-19T10:20:56.831Z</time></trkpt><trkpt lat="42.40879368632331" lon="12.695703117669128"><ele>616.0</ele><time>2026-04-19T10:20:57.831Z</time></trkpt><trkpt lat="42.408664291345154" lon="12.695624283557938"><ele>616.0</ele><time>2026-04-19T10:20:58.831Z</time></trkpt><trkpt lat="42.40854746612311" lon="12.695497924798943"><ele>616.0</ele><time>2026-04-19T10:20:59.831Z</time></trkpt><trkpt lat="42.40842266684654" lon="12.695376292078183"><ele>616.0</ele><time>2026-04-19T10:21:00.831Z</time></trkpt><trkpt lat="42.40830351337798" lon="12.695262680607469"><ele>616.0</ele><time>2026-04-19T10:21:01.831Z</time></trkpt><trkpt lat="42.40819683319368" lon="12.69513194490448"><ele>610.25</ele><time>2026-04-19T10:21:02.831Z</time></trkpt><trkpt lat="42.40811172407269" lon="12.694975765371224"><ele>604.5</ele><time>2026-04-19T10:21:03.831Z</time></trkpt><trkpt lat="42.408046499377015" lon="12.694827185299927"><ele>598.75</ele><time>2026-04-19T10:21:04.831Z</time></trkpt><trkpt lat="42.40801440874742" lon="12.694672678049697"><ele>593.0</ele><time>2026-04-19T10:21:05.831Z</time></trkpt><trkpt lat="42.408006618620874" lon="12.694536341284302"><ele>592.3333333333333</ele><time>2026-04-19T10:21:06.83Z</time></trkpt><trkpt lat="42.4080085218403" lon="12.694393523201125"><ele>591.6666666666666</ele><time>2026-04-19T10:21:07.83Z</time></trkpt><trkpt lat="42.407979397098394" lon="12.69427672458691"><ele>591.0</ele><time>2026-04-19T10:21:08.83Z</time></trkpt><trkpt lat="42.40791679658611" lon="12.694196712001434"><ele>590.3333333333334</ele><time>2026-04-19T10:21:09.83Z</time></trkpt><trkpt lat="42.407838824095336" lon="12.69417358282598"><ele>589.6666666666667</ele><time>2026-04-19T10:21:10.83Z</time></trkpt><trkpt lat="42.40777241694505" lon="12.694215018749235"><ele>589.0</ele><time>2026-04-19T10:21:11.83Z</time></trkpt><trkpt lat="42.40771704779208" lon="12.694300098204597"><ele>589.0</ele><time>2026-04-19T10:21:12.83Z</time></trkpt><trkpt lat="42.407664991598566" lon="12.694410382968156"><ele>589.0</ele><time>2026-04-19T10:21:13.83Z</time></trkpt><trkpt lat="42.40766625690086" lon="12.694561855923038"><ele>589.0</ele><time>2026-04-19T10:21:14.83Z</time></trkpt><trkpt lat="42.407680177280824" lon="12.694722914824336"><ele>589.0</ele><time>2026-04-19T10:21:15.83Z</time></trkpt><trkpt lat="42.40768618464188" lon="12.694897851985921"><ele>591.0</ele><time>2026-04-19T10:21:16.83Z</time></trkpt><trkpt lat="42.407709685293554" lon="12.695070933733179"><ele>593.0</ele><time>2026-04-19T10:21:17.83Z</time></trkpt><trkpt lat="42.40773472148175" lon="12.695264712068994"><ele>595.0</ele><time>2026-04-19T10:21:18.83Z</time></trkpt><trkpt lat="42.40775889311691" lon="12.695449573579863"><ele>597.0</ele><time>2026-04-19T10:21:19.83Z</time></trkpt><trkpt lat="42.40778469798574" lon="12.695626438142625"><ele>599.0</ele><time>2026-04-19T10:21:20.83Z</time></trkpt><trkpt lat="42.40781128102553" lon="12.695787128450325"><ele>601.0</ele><time>2026-04-19T10:21:21.83Z</time></trkpt><trkpt lat="42.40783627511848" lon="12.695938212585862"><ele>603.0</ele><time>2026-04-19T10:21:22.83Z</time></trkpt><trkpt lat="42.40783822273026" lon="12.696041445814222"><ele>605.0</ele><time>2026-04-19T10:21:23.83Z</time></trkpt><trkpt lat="42.40779889754136" lon="12.696201215324049"><ele>607.0</ele><time>2026-04-19T10:21:25.83Z</time></trkpt><trkpt lat="42.40772725513677" lon="12.696258856300165"><ele>613.0</ele><time>2026-04-19T10:21:26.83Z</time></trkpt><trkpt lat="42.407638588112675" lon="12.696282214400826"><ele>619.0</ele><time>2026-04-19T10:21:27.83Z</time></trkpt><trkpt lat="42.40752415401627" lon="12.696261976991085"><ele>625.0</ele><time>2026-04-19T10:21:28.83Z</time></trkpt><trkpt lat="42.40739918837946" lon="12.696234645396348"><ele>631.0</ele><time>2026-04-19T10:21:29.829Z</time></trkpt><trkpt lat="42.40726488550716" lon="12.69623648796483"><ele>628.6666666666667</ele><time>2026-04-19T10:21:30.829Z</time></trkpt><trkpt lat="42.407122362938" lon="12.696270859348628"><ele>626.3333333333334</ele><time>2026-04-19T10:21:31.829Z</time></trkpt><trkpt lat="42.40697237988385" lon="12.696271246909284"><ele>624.0</ele><time>2026-04-19T10:21:32.829Z</time></trkpt><trkpt lat="42.40682278382983" lon="12.696408796305375"><ele>624.0</ele><time>2026-04-19T10:21:33.829Z</time></trkpt><trkpt lat="42.406668463234766" lon="12.696518677861855"><ele>624.0</ele><time>2026-04-19T10:21:34.829Z</time></trkpt><trkpt lat="42.40651788792178" lon="12.696627825677574"><ele>624.0</ele><time>2026-04-19T10:21:35.829Z</time></trkpt><trkpt lat="42.40638399116142" lon="12.69673235516685"><ele>624.6666666666666</ele><time>2026-04-19T10:21:36.829Z</time></trkpt><trkpt lat="42.40626114940097" lon="12.696842169304386"><ele>625.3333333333333</ele><time>2026-04-19T10:21:37.829Z</time></trkpt><trkpt lat="42.40613459369194" lon="12.696979907152476"><ele>626.0</ele><time>2026-04-19T10:21:38.829Z</time></trkpt><trkpt lat="42.40600940040588" lon="12.697145946591611"><ele>626.0</ele><time>2026-04-19T10:21:39.829Z</time></trkpt><trkpt lat="42.40589052321254" lon="12.697298610814007"><ele>626.0</ele><time>2026-04-19T10:21:40.829Z</time></trkpt><trkpt lat="42.40578245178179" lon="12.697450272627036"><ele>626.0</ele><time>2026-04-19T10:21:41.829Z</time></trkpt><trkpt lat="42.4056884484765" lon="12.69760064305736"><ele>629.0</ele><time>2026-04-19T10:21:42.829Z</time></trkpt><trkpt lat="42.40560898913375" lon="12.697763054451775"><ele>632.0</ele><time>2026-04-19T10:21:43.829Z</time></trkpt><trkpt lat="42.405550398840816" lon="12.697929820226884"><ele>635.0</ele><time>2026-04-19T10:21:44.829Z</time></trkpt><trkpt lat="42.40550571143345" lon="12.698097860784198"><ele>638.0</ele><time>2026-04-19T10:21:45.829Z</time></trkpt><trkpt lat="42.405485278402196" lon="12.698262152859636"><ele>638.0</ele><time>2026-04-19T10:21:46.829Z</time></trkpt><trkpt lat="42.405493999398956" lon="12.69841805947983"><ele>638.0</ele><time>2026-04-19T10:21:47.829Z</time></trkpt><trkpt lat="42.40552847119791" lon="12.698568975886424"><ele>638.0</ele><time>2026-04-19T10:21:48.829Z</time></trkpt><trkpt lat="42.405576233878385" lon="12.698719696443415"><ele>638.0</ele><time>2026-04-19T10:21:49.829Z</time></trkpt><trkpt lat="42.40562373215253" lon="12.698867357884112"><ele>638.0</ele><time>2026-04-19T10:21:50.829Z</time></trkpt><trkpt lat="42.40567733183636" lon="12.699015743764296"><ele>638.0</ele><time>2026-04-19T10:21:51.829Z</time></trkpt><trkpt lat="42.405737373807" lon="12.699172947394157"><ele>638.0</ele><time>2026-04-19T10:21:52.829Z</time></trkpt><trkpt lat="42.40579533768922" lon="12.699341713396196"><ele>638.0</ele><time>2026-04-19T10:21:53.828Z</time></trkpt><trkpt lat="42.40585459907528" lon="12.699519976738951"><ele>637.6666666666666</ele><time>2026-04-19T10:21:54.828Z</time></trkpt><trkpt lat="42.40590710288522" lon="12.699705085725638"><ele>637.3333333333334</ele><time>2026-04-19T10:21:55.828Z</time></trkpt><trkpt lat="42.405962364695704" lon="12.69989690222711"><ele>637.0</ele><time>2026-04-19T10:21:56.828Z</time></trkpt><trkpt lat="42.40601404287138" lon="12.700102402196908"><ele>640.0</ele><time>2026-04-19T10:21:57.828Z</time></trkpt><trkpt lat="42.40606121222904" lon="12.700308511504483"><ele>643.0</ele><time>2026-04-19T10:21:58.828Z</time></trkpt><trkpt lat="42.406096637257" lon="12.700488017946677"><ele>646.0</ele><time>2026-04-19T10:21:59.828Z</time></trkpt><trkpt lat="42.40613026779876" lon="12.70064781044453"><ele>649.0</ele><time>2026-04-19T10:22:00.828Z</time></trkpt><trkpt lat="42.4061503898295" lon="12.700786760087814"><ele>649.0</ele><time>2026-04-19T10:22:01.828Z</time></trkpt><trkpt lat="42.40614178266971" lon="12.700891676013184"><ele>649.0</ele><time>2026-04-19T10:22:02.828Z</time></trkpt><trkpt lat="42.40606007934077" lon="12.700981621275567"><ele>649.0</ele><time>2026-04-19T10:22:04.828Z</time></trkpt><trkpt lat="42.40598707673268" lon="12.700959763906791"><ele>649.0</ele><time>2026-04-19T10:22:05.828Z</time></trkpt><trkpt lat="42.405914205277085" lon="12.700872822286543"><ele>649.0</ele><time>2026-04-19T10:22:06.828Z</time></trkpt><trkpt lat="42.405830510560534" lon="12.700777859669245"><ele>649.0</ele><time>2026-04-19T10:22:07.828Z</time></trkpt><trkpt lat="42.405718222167884" lon="12.700736695721936"><ele>649.0</ele><time>2026-04-19T10:22:08.828Z</time></trkpt><trkpt lat="42.405585066574716" lon="12.700690503554764"><ele>649.0</ele><time>2026-04-19T10:22:09.828Z</time></trkpt><trkpt lat="42.405429142782125" lon="12.70066250078008"><ele>649.0</ele><time>2026-04-19T10:22:10.828Z</time></trkpt><trkpt lat="42.4052635821957" lon="12.700637117004268"><ele>650.6666666666667</ele><time>2026-04-19T10:22:11.828Z</time></trkpt><trkpt lat="42.40508539984881" lon="12.700635039510548"><ele>652.3333333333334</ele><time>2026-04-19T10:22:12.828Z</time></trkpt><trkpt lat="42.40490040161746" lon="12.700640584211056"><ele>654.0</ele><time>2026-04-19T10:22:13.828Z</time></trkpt><trkpt lat="42.4047218398138" lon="12.700636784903082"><ele>652.5</ele><time>2026-04-19T10:22:14.828Z</time></trkpt><trkpt lat="42.4045568573632" lon="12.70064290232312"><ele>651.0</ele><time>2026-04-19T10:22:15.828Z</time></trkpt><trkpt lat="42.40442021291153" lon="12.700659070361553"><ele>649.5</ele><time>2026-04-19T10:22:16.827Z</time></trkpt><trkpt lat="42.40431744845986" lon="12.700684844632248"><ele>648.0</ele><time>2026-04-19T10:22:17.827Z</time></trkpt><trkpt lat="42.404237171947635" lon="12.700733907800519"><ele>648.0</ele><time>2026-04-19T10:22:18.827Z</time></trkpt><trkpt lat="42.404193321220625" lon="12.700804432037543"><ele>648.0</ele><time>2026-04-19T10:22:19.827Z</time></trkpt><trkpt lat="42.40417932822123" lon="12.700887676492917"><ele>648.0</ele><time>2026-04-19T10:22:20.827Z</time></trkpt><trkpt lat="42.40419617938749" lon="12.70097567762707"><ele>648.0</ele><time>2026-04-19T10:22:21.827Z</time></trkpt><trkpt lat="42.404248019515556" lon="12.70104102170987"><ele>648.0</ele><time>2026-04-19T10:22:22.827Z</time></trkpt><trkpt lat="42.40431340448296" lon="12.701066147991687"><ele>648.0</ele><time>2026-04-19T10:22:23.827Z</time></trkpt><trkpt lat="42.40438415730953" lon="12.70105193233655"><ele>648.0</ele><time>2026-04-19T10:22:24.827Z</time></trkpt><trkpt lat="42.40446571615601" lon="12.701020463257398"><ele>648.0</ele><time>2026-04-19T10:22:25.827Z</time></trkpt><trkpt lat="42.40455722960886" lon="12.70099213504217"><ele>648.0</ele><time>2026-04-19T10:22:26.827Z</time></trkpt><trkpt lat="42.40465845905601" lon="12.700957520219703"><ele>648.0</ele><time>2026-04-19T10:22:27.827Z</time></trkpt><trkpt lat="42.40477277982201" lon="12.700944071490895"><ele>648.0</ele><time>2026-04-19T10:22:28.827Z</time></trkpt><trkpt lat="42.404900036649046" lon="12.700939768479682"><ele>648.0</ele><time>2026-04-19T10:22:29.827Z</time></trkpt><trkpt lat="42.4050318459499" lon="12.700951330906594"><ele>649.5</ele><time>2026-04-19T10:22:30.827Z</time></trkpt><trkpt lat="42.405165540544175" lon="12.700975898191638"><ele>651.0</ele><time>2026-04-19T10:22:31.827Z</time></trkpt><trkpt lat="42.40529929460888" lon="12.70101693124384"><ele>652.5</ele><time>2026-04-19T10:22:32.826Z</time></trkpt><trkpt lat="42.405419371661964" lon="12.701075465418052"><ele>654.0</ele><time>2026-04-19T10:22:33.827Z</time></trkpt><trkpt lat="42.405521639311665" lon="12.701146341590817"><ele>658.0</ele><time>2026-04-19T10:22:34.827Z</time></trkpt><trkpt lat="42.4055996852823" lon="12.701245186981794"><ele>662.0</ele><time>2026-04-19T10:22:35.827Z</time></trkpt><trkpt lat="42.40566423627029" lon="12.701366300846098"><ele>666.0</ele><time>2026-04-19T10:22:36.826Z</time></trkpt><trkpt lat="42.405727339054835" lon="12.701501940357227"><ele>670.0</ele><time>2026-04-19T10:22:37.826Z</time></trkpt><trkpt lat="42.405795611173474" lon="12.701646306723461"><ele>670.0</ele><time>2026-04-19T10:22:38.827Z</time></trkpt><trkpt lat="42.40587488474046" lon="12.701784266511018"><ele>670.0</ele><time>2026-04-19T10:22:39.826Z</time></trkpt><trkpt lat="42.4059524293692" lon="12.70190631258819"><ele>670.0</ele><time>2026-04-19T10:22:40.826Z</time></trkpt><trkpt lat="42.40603883594635" lon="12.701991985077221"><ele>670.0</ele><time>2026-04-19T10:22:41.826Z</time></trkpt><trkpt lat="42.40613462830977" lon="12.70205797668644"><ele>673.2</ele><time>2026-04-19T10:22:42.826Z</time></trkpt><trkpt lat="42.406217325238664" lon="12.702109152248168"><ele>676.4</ele><time>2026-04-19T10:22:43.826Z</time></trkpt><trkpt lat="42.40630913747605" lon="12.702148793726026"><ele>679.5999999999999</ele><time>2026-04-19T10:22:44.826Z</time></trkpt><trkpt lat="42.406399223572684" lon="12.702186083098693"><ele>682.8</ele><time>2026-04-19T10:22:45.826Z</time></trkpt><trkpt lat="42.406489520029425" lon="12.702208776185142"><ele>686.0</ele><time>2026-04-19T10:22:46.826Z</time></trkpt><trkpt lat="42.406582676498545" lon="12.702228251014912"><ele>686.0</ele><time>2026-04-19T10:22:47.826Z</time></trkpt><trkpt lat="42.406668617470054" lon="12.702254183623282"><ele>686.0</ele><time>2026-04-19T10:22:48.826Z</time></trkpt><trkpt lat="42.40675425210293" lon="12.7022755575817"><ele>686.0</ele><time>2026-04-19T10:22:49.826Z</time></trkpt><trkpt lat="42.40683652776058" lon="12.702309192991178"><ele>686.0</ele><time>2026-04-19T10:22:50.826Z</time></trkpt><trkpt lat="42.40691729152973" lon="12.702332519519853"><ele>686.0</ele><time>2026-04-19T10:22:51.826Z</time></trkpt><trkpt lat="42.40699021964014" lon="12.70233870615151"><ele>686.0</ele><time>2026-04-19T10:22:52.826Z</time></trkpt><trkpt lat="42.4070626665533" lon="12.702348864321447"><ele>686.0</ele><time>2026-04-19T10:22:53.826Z</time></trkpt><trkpt lat="42.40713852818045" lon="12.702373717385175"><ele>686.0</ele><time>2026-04-19T10:22:54.826Z</time></trkpt><trkpt lat="42.40721170192936" lon="12.702361393368255"><ele>686.0</ele><time>2026-04-19T10:22:55.826Z</time></trkpt><trkpt lat="42.40728449540411" lon="12.702313775565706"><ele>686.0</ele><time>2026-04-19T10:22:56.826Z</time></trkpt><trkpt lat="42.407363080339756" lon="12.702247522002892"><ele>686.0</ele><time>2026-04-19T10:22:57.826Z</time></trkpt><trkpt lat="42.4074423509944" lon="12.702172608640996"><ele>686.0</ele><time>2026-04-19T10:22:58.826Z</time></trkpt><trkpt lat="42.407518338598365" lon="12.702101873580359"><ele>686.8</ele><time>2026-04-19T10:22:59.826Z</time></trkpt><trkpt lat="42.40757292960602" lon="12.702021200177692"><ele>687.5999999999999</ele><time>2026-04-19T10:23:00.826Z</time></trkpt><trkpt lat="42.40766074622784" lon="12.701903892800864"><ele>688.4</ele><time>2026-04-19T10:23:01.826Z</time></trkpt><trkpt lat="42.40773927728369" lon="12.701782675310035"><ele>689.2</ele><time>2026-04-19T10:23:02.826Z</time></trkpt><trkpt lat="42.40780482609418" lon="12.701659125418239"><ele>690.0</ele><time>2026-04-19T10:23:03.826Z</time></trkpt><trkpt lat="42.407863119370504" lon="12.701523838540435"><ele>689.6</ele><time>2026-04-19T10:23:04.826Z</time></trkpt><trkpt lat="42.407909310642246" lon="12.701397516393314"><ele>689.2</ele><time>2026-04-19T10:23:05.826Z</time></trkpt><trkpt lat="42.40795717067386" lon="12.701266742885181"><ele>688.8</ele><time>2026-04-19T10:23:06.826Z</time></trkpt><trkpt lat="42.40799944175055" lon="12.701136059960561"><ele>688.4</ele><time>2026-04-19T10:23:07.826Z</time></trkpt><trkpt lat="42.40804321988871" lon="12.701019764804307"><ele>688.0</ele><time>2026-04-19T10:23:08.825Z</time></trkpt><trkpt lat="42.40810362897252" lon="12.700916138386708"><ele>688.0</ele><time>2026-04-19T10:23:09.825Z</time></trkpt><trkpt lat="42.40817566768259" lon="12.700829623032837"><ele>688.0</ele><time>2026-04-19T10:23:10.825Z</time></trkpt><trkpt lat="42.40826214000776" lon="12.700763284225996"><ele>688.0</ele><time>2026-04-19T10:23:11.825Z</time></trkpt><trkpt lat="42.40835664040083" lon="12.700706686494563"><ele>688.0</ele><time>2026-04-19T10:23:12.825Z</time></trkpt><trkpt lat="42.40844819128155" lon="12.700671781286076"><ele>688.0</ele><time>2026-04-19T10:23:13.825Z</time></trkpt><trkpt lat="42.40854839062997" lon="12.700663171392026"><ele>688.0</ele><time>2026-04-19T10:23:14.825Z</time></trkpt><trkpt lat="42.4086451237826" lon="12.70067483048817"><ele>688.0</ele><time>2026-04-19T10:23:15.825Z</time></trkpt><trkpt lat="42.408743148002564" lon="12.70071313703573"><ele>688.0</ele><time>2026-04-19T10:23:16.825Z</time></trkpt><trkpt lat="42.408833127721564" lon="12.7007711630535"><ele>688.0</ele><time>2026-04-19T10:23:17.825Z</time></trkpt><trkpt lat="42.40891812618738" lon="12.7008443798775"><ele>688.0</ele><time>2026-04-19T10:23:18.825Z</time></trkpt><trkpt lat="42.409010709611934" lon="12.700926275380674"><ele>688.2</ele><time>2026-04-19T10:23:19.825Z</time></trkpt><trkpt lat="42.40909439627993" lon="12.701010836527365"><ele>688.4</ele><time>2026-04-19T10:23:20.825Z</time></trkpt><trkpt lat="42.40917650442283" lon="12.701093014891276"><ele>688.6</ele><time>2026-04-19T10:23:21.825Z</time></trkpt><trkpt lat="42.409261380306184" lon="12.70117570276717"><ele>688.8000000000001</ele><time>2026-04-19T10:23:22.825Z</time></trkpt><trkpt lat="42.409351286854445" lon="12.701257276133202"><ele>689.0</ele><time>2026-04-19T10:23:23.825Z</time></trkpt><trkpt lat="42.409445962415845" lon="12.70133975138617"><ele>692.5</ele><time>2026-04-19T10:23:24.825Z</time></trkpt><trkpt lat="42.40954525807929" lon="12.70141286465338"><ele>696.0</ele><time>2026-04-19T10:23:25.825Z</time></trkpt><trkpt lat="42.40965282959121" lon="12.701482142452056"><ele>699.5</ele><time>2026-04-19T10:23:26.825Z</time></trkpt><trkpt lat="42.40977250914251" lon="12.701539885821813"><ele>703.0</ele><time>2026-04-19T10:23:27.825Z</time></trkpt><trkpt lat="42.40990656793971" lon="12.701596291571729"><ele>703.0</ele><time>2026-04-19T10:23:28.825Z</time></trkpt><trkpt lat="42.41006845023334" lon="12.70169083536737"><ele>703.0</ele><time>2026-04-19T10:23:29.825Z</time></trkpt><trkpt lat="42.410226450550965" lon="12.701774884958192"><ele>703.0</ele><time>2026-04-19T10:23:30.825Z</time></trkpt><trkpt lat="42.41036905724115" lon="12.701877909555689"><ele>709.0</ele><time>2026-04-19T10:23:31.825Z</time></trkpt><trkpt lat="42.41051866572067" lon="12.701987327200069"><ele>715.0</ele><time>2026-04-19T10:23:32.824Z</time></trkpt><trkpt lat="42.41067760489243" lon="12.702101908728098"><ele>721.0</ele><time>2026-04-19T10:23:33.824Z</time></trkpt><trkpt lat="42.41081866254645" lon="12.702225883842663"><ele>721.0</ele><time>2026-04-19T10:23:34.824Z</time></trkpt><trkpt lat="42.410960561919076" lon="12.702341645278471"><ele>721.0</ele><time>2026-04-19T10:23:35.824Z</time></trkpt><trkpt lat="42.411096100897794" lon="12.702440192324273"><ele>721.0</ele><time>2026-04-19T10:23:36.824Z</time></trkpt><trkpt lat="42.41122079871544" lon="12.702512867727307"><ele>723.5</ele><time>2026-04-19T10:23:37.824Z</time></trkpt><trkpt lat="42.4113366986985" lon="12.702598974103843"><ele>726.0</ele><time>2026-04-19T10:23:38.824Z</time></trkpt><trkpt lat="42.4114398750899" lon="12.702705128177136"><ele>728.5</ele><time>2026-04-19T10:23:39.824Z</time></trkpt><trkpt lat="42.411544507323285" lon="12.702828348255052"><ele>731.0</ele><time>2026-04-19T10:23:40.824Z</time></trkpt><trkpt lat="42.41165065842182" lon="12.702958572405304"><ele>731.0</ele><time>2026-04-19T10:23:41.824Z</time></trkpt><trkpt lat="42.411747111515574" lon="12.703094549783948"><ele>731.0</ele><time>2026-04-19T10:23:42.824Z</time></trkpt><trkpt lat="42.41185533525543" lon="12.703215029895457"><ele>731.0</ele><time>2026-04-19T10:23:43.824Z</time></trkpt><trkpt lat="42.41197379921706" lon="12.703320018773221"><ele>731.0</ele><time>2026-04-19T10:23:44.824Z</time></trkpt><trkpt lat="42.412095122425754" lon="12.703424843054387"><ele>727.75</ele><time>2026-04-19T10:23:45.824Z</time></trkpt><trkpt lat="42.412230736813775" lon="12.703467913934222"><ele>724.5</ele><time>2026-04-19T10:23:46.824Z</time></trkpt><trkpt lat="42.41237135932718" lon="12.703484942940383"><ele>721.25</ele><time>2026-04-19T10:23:47.824Z</time></trkpt><trkpt lat="42.41250499272515" lon="12.703477048047654"><ele>718.0</ele><time>2026-04-19T10:23:48.824Z</time></trkpt><trkpt lat="42.412628936734" lon="12.703445804872612"><ele>718.0</ele><time>2026-04-19T10:23:49.824Z</time></trkpt><trkpt lat="42.41274882323639" lon="12.703384623716834"><ele>718.0</ele><time>2026-04-19T10:23:50.824Z</time></trkpt><trkpt lat="42.4128666229201" lon="12.703299480663228"><ele>718.0</ele><time>2026-04-19T10:23:51.824Z</time></trkpt><trkpt lat="42.412980191016665" lon="12.70319214743047"><ele>718.0</ele><time>2026-04-19T10:23:52.824Z</time></trkpt><trkpt lat="42.413084835182595" lon="12.703085697202484"><ele>720.0</ele><time>2026-04-19T10:23:53.824Z</time></trkpt><trkpt lat="42.41318302581964" lon="12.70298896415229"><ele>722.0</ele><time>2026-04-19T10:23:54.824Z</time></trkpt><trkpt lat="42.41326298730006" lon="12.702891363902687"><ele>724.0</ele><time>2026-04-19T10:23:55.823Z</time></trkpt><trkpt lat="42.41335625533234" lon="12.702876522773236"><ele>726.0</ele><time>2026-04-19T10:23:56.823Z</time></trkpt><trkpt lat="42.41343888145234" lon="12.702881602886725"><ele>728.0</ele><time>2026-04-19T10:23:57.823Z</time></trkpt><trkpt lat="42.413522238686014" lon="12.70295668565742"><ele>728.0</ele><time>2026-04-19T10:23:58.823Z</time></trkpt><trkpt lat="42.41358281897539" lon="12.703059991620506"><ele>728.0</ele><time>2026-04-19T10:23:59.823Z</time></trkpt><trkpt lat="42.41363011417693" lon="12.703185433236749"><ele>728.0</ele><time>2026-04-19T10:24:00.823Z</time></trkpt><trkpt lat="42.41365953159007" lon="12.70333219128234"><ele>728.0</ele><time>2026-04-19T10:24:01.823Z</time></trkpt><trkpt lat="42.4136787791462" lon="12.703480788956762"><ele>728.0</ele><time>2026-04-19T10:24:02.823Z</time></trkpt><trkpt lat="42.41369403447075" lon="12.70363153909084"><ele>731.0</ele><time>2026-04-19T10:24:03.823Z</time></trkpt><trkpt lat="42.413708363109684" lon="12.703783873050213"><ele>734.0</ele><time>2026-04-19T10:24:04.823Z</time></trkpt><trkpt lat="42.413719806491784" lon="12.703937180660525"><ele>737.0</ele><time>2026-04-19T10:24:05.823Z</time></trkpt><trkpt lat="42.413727735548115" lon="12.704086318182307"><ele>740.0</ele><time>2026-04-19T10:24:06.823Z</time></trkpt><trkpt lat="42.41376258733686" lon="12.704241215736024"><ele>740.75</ele><time>2026-04-19T10:24:07.823Z</time></trkpt><trkpt lat="42.41382660350253" lon="12.704374334062225"><ele>741.5</ele><time>2026-04-19T10:24:08.823Z</time></trkpt><trkpt lat="42.413901366087536" lon="12.704502423745259"><ele>742.25</ele><time>2026-04-19T10:24:09.823Z</time></trkpt><trkpt lat="42.41398384827756" lon="12.704618716358045"><ele>743.0</ele><time>2026-04-19T10:24:10.823Z</time></trkpt><trkpt lat="42.41405908728349" lon="12.704750691786021"><ele>743.0</ele><time>2026-04-19T10:24:11.823Z</time></trkpt><trkpt lat="42.41415608078577" lon="12.704869814798197"><ele>743.0</ele><time>2026-04-19T10:24:12.823Z</time></trkpt><trkpt lat="42.414252342250094" lon="12.704985558883159"><ele>743.0</ele><time>2026-04-19T10:24:13.823Z</time></trkpt><trkpt lat="42.41435177118233" lon="12.705103605856545"><ele>743.0</ele><time>2026-04-19T10:24:14.823Z</time></trkpt><trkpt lat="42.41445000082975" lon="12.705225106075961"><ele>742.5</ele><time>2026-04-19T10:24:15.823Z</time></trkpt><trkpt lat="42.41454752324075" lon="12.705345538073384"><ele>742.0</ele><time>2026-04-19T10:24:16.823Z</time></trkpt><trkpt lat="42.41464959834451" lon="12.705466865073461"><ele>741.5</ele><time>2026-04-19T10:24:17.823Z</time></trkpt><trkpt lat="42.41475257349145" lon="12.705595530574687"><ele>741.0</ele><time>2026-04-19T10:24:18.823Z</time></trkpt><trkpt lat="42.41485826474" lon="12.705720605620119"><ele>741.0</ele><time>2026-04-19T10:24:19.822Z</time></trkpt><trkpt lat="42.41495994379764" lon="12.705845919961408"><ele>741.0</ele><time>2026-04-19T10:24:20.822Z</time></trkpt><trkpt lat="42.415058345032485" lon="12.705977311463053"><ele>741.0</ele><time>2026-04-19T10:24:21.822Z</time></trkpt><trkpt lat="42.415160877771015" lon="12.706104639634853"><ele>741.0</ele><time>2026-04-19T10:24:22.822Z</time></trkpt><trkpt lat="42.41527111613521" lon="12.70622777961411"><ele>743.75</ele><time>2026-04-19T10:24:23.822Z</time></trkpt><trkpt lat="42.4153699879715" lon="12.706368703586582"><ele>746.5</ele><time>2026-04-19T10:24:24.822Z</time></trkpt><trkpt lat="42.41548900655438" lon="12.706484796391253"><ele>749.25</ele><time>2026-04-19T10:24:25.822Z</time></trkpt><trkpt lat="42.41561063852081" lon="12.70659650791275"><ele>752.0</ele><time>2026-04-19T10:24:26.822Z</time></trkpt><trkpt lat="42.415732266488924" lon="12.706699061436916"><ele>752.0</ele><time>2026-04-19T10:24:27.822Z</time></trkpt><trkpt lat="42.41584411643677" lon="12.706805949390342"><ele>752.0</ele><time>2026-04-19T10:24:28.822Z</time></trkpt><trkpt lat="42.415939372357954" lon="12.706924004280383"><ele>752.0</ele><time>2026-04-19T10:24:29.822Z</time></trkpt><trkpt lat="42.4160284958424" lon="12.707057159657614"><ele>752.0</ele><time>2026-04-19T10:24:30.822Z</time></trkpt><trkpt lat="42.4161049155528" lon="12.707215923103103"><ele>752.0</ele><time>2026-04-19T10:24:31.822Z</time></trkpt><trkpt lat="42.41617591559546" lon="12.70738459167035"><ele>752.0</ele><time>2026-04-19T10:24:32.822Z</time></trkpt><trkpt lat="42.41623424150696" lon="12.707567712920694"><ele>752.0</ele><time>2026-04-19T10:24:33.822Z</time></trkpt><trkpt lat="42.41632196400122" lon="12.707718033620347"><ele>752.0</ele><time>2026-04-19T10:24:34.822Z</time></trkpt><trkpt lat="42.41641832452239" lon="12.707841992137794"><ele>761.0</ele><time>2026-04-19T10:24:35.822Z</time></trkpt><trkpt lat="42.41654382309194" lon="12.707945200901232"><ele>770.0</ele><time>2026-04-19T10:24:36.822Z</time></trkpt><trkpt lat="42.41668217569259" lon="12.708027424664609"><ele>779.0</ele><time>2026-04-19T10:24:37.822Z</time></trkpt><trkpt lat="42.416836040332804" lon="12.708110082197424"><ele>779.0</ele><time>2026-04-19T10:24:38.822Z</time></trkpt><trkpt lat="42.416977150786" lon="12.708179462908515"><ele>779.0</ele><time>2026-04-19T10:24:39.821Z</time></trkpt><trkpt lat="42.41710275987355" lon="12.708250853982603"><ele>779.0</ele><time>2026-04-19T10:24:40.821Z</time></trkpt><trkpt lat="42.417212071244" lon="12.708321922505293"><ele>779.0</ele><time>2026-04-19T10:24:41.821Z</time></trkpt><trkpt lat="42.41730981860935" lon="12.708419125118077"><ele>780.25</ele><time>2026-04-19T10:24:42.82Z</time></trkpt><trkpt lat="42.41739932748908" lon="12.708538621522505"><ele>781.5</ele><time>2026-04-19T10:24:43.82Z</time></trkpt><trkpt lat="42.417473472585165" lon="12.708680273649048"><ele>782.75</ele><time>2026-04-19T10:24:44.821Z</time></trkpt><trkpt lat="42.417535582529254" lon="12.708842255496808"><ele>784.0</ele><time>2026-04-19T10:24:45.821Z</time></trkpt><trkpt lat="42.41759913346983" lon="12.70901315428706"><ele>784.0</ele><time>2026-04-19T10:24:46.821Z</time></trkpt><trkpt lat="42.41766034726521" lon="12.709195066104025"><ele>784.0</ele><time>2026-04-19T10:24:47.821Z</time></trkpt><trkpt lat="42.417723575409774" lon="12.709385911945217"><ele>784.0</ele><time>2026-04-19T10:24:48.82Z</time></trkpt><trkpt lat="42.41778482292281" lon="12.709559208818243"><ele>784.0</ele><time>2026-04-19T10:24:49.82Z</time></trkpt><trkpt lat="42.4178573758055" lon="12.709702890007126"><ele>784.8000000000001</ele><time>2026-04-19T10:24:50.82Z</time></trkpt><trkpt lat="42.41789531787817" lon="12.709841529548044"><ele>785.6</ele><time>2026-04-19T10:24:51.82Z</time></trkpt><trkpt lat="42.41789479380979" lon="12.709972660611525"><ele>786.4</ele><time>2026-04-19T10:24:52.82Z</time></trkpt><trkpt lat="42.41785667233326" lon="12.710080185922232"><ele>787.2</ele><time>2026-04-19T10:24:53.82Z</time></trkpt><trkpt lat="42.41787475396584" lon="12.710190068567837"><ele>788.0</ele><time>2026-04-19T10:24:55.82Z</time></trkpt><trkpt lat="42.41761932011832" lon="12.71033999302399"><ele>788.0</ele><time>2026-04-19T10:24:56.82Z</time></trkpt><trkpt lat="42.41752000984051" lon="12.710411740670034"><ele>788.0</ele><time>2026-04-19T10:24:57.82Z</time></trkpt><trkpt lat="42.417407396054905" lon="12.71049495174823"><ele>788.0</ele><time>2026-04-19T10:24:58.82Z</time></trkpt><trkpt lat="42.41728009704824" lon="12.710562076503171"><ele>788.0</ele><time>2026-04-19T10:24:59.82Z</time></trkpt><trkpt lat="42.41714726610262" lon="12.710612502864306"><ele>792.25</ele><time>2026-04-19T10:25:00.82Z</time></trkpt><trkpt lat="42.417019091438135" lon="12.710670612523174"><ele>796.5</ele><time>2026-04-19T10:25:01.82Z</time></trkpt><trkpt lat="42.41689531331726" lon="12.710739757029366"><ele>800.75</ele><time>2026-04-19T10:25:02.82Z</time></trkpt><trkpt lat="42.41677512593358" lon="12.710849426322438"><ele>805.0</ele><time>2026-04-19T10:25:03.82Z</time></trkpt><trkpt lat="42.41667009553851" lon="12.710992244447205"><ele>801.3333333333333</ele><time>2026-04-19T10:25:04.82Z</time></trkpt><trkpt lat="42.41656086521261" lon="12.711146914367026"><ele>797.6666666666667</ele><time>2026-04-19T10:25:05.82Z</time></trkpt><trkpt lat="42.41645160041957" lon="12.711304685069571"><ele>794.0</ele><time>2026-04-19T10:25:06.82Z</time></trkpt><trkpt lat="42.41634893130293" lon="12.711474894399572"><ele>798.0</ele><time>2026-04-19T10:25:07.82Z</time></trkpt><trkpt lat="42.4162629169461" lon="12.71165520751724"><ele>802.0</ele><time>2026-04-19T10:25:08.82Z</time></trkpt><trkpt lat="42.41619599518231" lon="12.711865009475952"><ele>806.0</ele><time>2026-04-19T10:25:09.819Z</time></trkpt><trkpt lat="42.41612552861498" lon="12.712061892480367"><ele>806.0</ele><time>2026-04-19T10:25:10.819Z</time></trkpt><trkpt lat="42.41605499693098" lon="12.712266067207107"><ele>806.0</ele><time>2026-04-19T10:25:11.819Z</time></trkpt><trkpt lat="42.41597733453124" lon="12.712459406356166"><ele>806.0</ele><time>2026-04-19T10:25:12.819Z</time></trkpt><trkpt lat="42.41588542457544" lon="12.712641723053586"><ele>805.3333333333334</ele><time>2026-04-19T10:25:13.819Z</time></trkpt><trkpt lat="42.415818204985634" lon="12.712839002267557"><ele>804.6666666666667</ele><time>2026-04-19T10:25:14.819Z</time></trkpt><trkpt lat="42.41577218849931" lon="12.713055676117323"><ele>804.0</ele><time>2026-04-19T10:25:15.819Z</time></trkpt><trkpt lat="42.4157461628586" lon="12.713288605070264"><ele>804.0</ele><time>2026-04-19T10:25:16.819Z</time></trkpt><trkpt lat="42.41570429414203" lon="12.713515435763714"><ele>804.0</ele><time>2026-04-19T10:25:17.819Z</time></trkpt><trkpt lat="42.415647247051034" lon="12.713739600955622"><ele>804.0</ele><time>2026-04-19T10:25:18.819Z</time></trkpt><trkpt lat="42.415584077792346" lon="12.7139409646663"><ele>805.0</ele><time>2026-04-19T10:25:19.819Z</time></trkpt><trkpt lat="42.41551971271286" lon="12.714133867466677"><ele>806.0</ele><time>2026-04-19T10:25:20.819Z</time></trkpt><trkpt lat="42.41544045182823" lon="12.714320156810064"><ele>807.0</ele><time>2026-04-19T10:25:21.819Z</time></trkpt><trkpt lat="42.41534273338197" lon="12.714497199235282"><ele>810.6666666666667</ele><time>2026-04-19T10:25:22.819Z</time></trkpt><trkpt lat="42.41523355318201" lon="12.714672474866315"><ele>814.3333333333334</ele><time>2026-04-19T10:25:23.819Z</time></trkpt><trkpt lat="42.41512169318061" lon="12.714850478347987"><ele>818.0</ele><time>2026-04-19T10:25:24.819Z</time></trkpt><trkpt lat="42.41500699495471" lon="12.715025449516402"><ele>818.0</ele><time>2026-04-19T10:25:25.819Z</time></trkpt><trkpt lat="42.41489167104274" lon="12.715193517992892"><ele>818.0</ele><time>2026-04-19T10:25:26.819Z</time></trkpt><trkpt lat="42.41477506212684" lon="12.715356176020297"><ele>818.0</ele><time>2026-04-19T10:25:27.819Z</time></trkpt><trkpt lat="42.41464831198185" lon="12.715511667928853"><ele>819.6666666666667</ele><time>2026-04-19T10:25:28.819Z</time></trkpt><trkpt lat="42.41450640854967" lon="12.715653297654086"><ele>821.3333333333333</ele><time>2026-04-19T10:25:29.819Z</time></trkpt><trkpt lat="42.414358848909146" lon="12.71578561750935"><ele>823.0</ele><time>2026-04-19T10:25:30.819Z</time></trkpt><trkpt lat="42.41421329254203" lon="12.715921176042498"><ele>823.0</ele><time>2026-04-19T10:25:31.819Z</time></trkpt><trkpt lat="42.414078176702816" lon="12.716066317095002"><ele>823.0</ele><time>2026-04-19T10:25:32.819Z</time></trkpt><trkpt lat="42.413943979367986" lon="12.716214037410563"><ele>823.0</ele><time>2026-04-19T10:25:33.818Z</time></trkpt><trkpt lat="42.413812514336094" lon="12.716369544566176"><ele>827.3333333333333</ele><time>2026-04-19T10:25:34.818Z</time></trkpt><trkpt lat="42.41367909239828" lon="12.716530975885304"><ele>831.6666666666667</ele><time>2026-04-19T10:25:35.818Z</time></trkpt><trkpt lat="42.41354104404886" lon="12.716691786015888"><ele>836.0</ele><time>2026-04-19T10:25:36.818Z</time></trkpt><trkpt lat="42.41339827158832" lon="12.716850897276219"><ele>836.3333333333334</ele><time>2026-04-19T10:25:37.818Z</time></trkpt><trkpt lat="42.4132537567185" lon="12.717017358419444"><ele>836.6666666666667</ele><time>2026-04-19T10:25:38.818Z</time></trkpt><trkpt lat="42.41310382308862" lon="12.717178761951237"><ele>837.0</ele><time>2026-04-19T10:25:39.818Z</time></trkpt><trkpt lat="42.41294903018215" lon="12.717332397349589"><ele>837.0</ele><time>2026-04-19T10:25:40.818Z</time></trkpt><trkpt lat="42.41279005564771" lon="12.717482929478306"><ele>837.0</ele><time>2026-04-19T10:25:41.818Z</time></trkpt><trkpt lat="42.41263094264592" lon="12.717633413768166"><ele>837.0</ele><time>2026-04-19T10:25:42.818Z</time></trkpt><trkpt lat="42.412474787680765" lon="12.717790675968052"><ele>834.3333333333333</ele><time>2026-04-19T10:25:43.818Z</time></trkpt><trkpt lat="42.41233167082503" lon="12.717962431204015"><ele>831.6666666666666</ele><time>2026-04-19T10:25:44.818Z</time></trkpt><trkpt lat="42.41219677030158" lon="12.718155909372872"><ele>829.0</ele><time>2026-04-19T10:25:45.818Z</time></trkpt><trkpt lat="42.4120647253836" lon="12.718348170101587"><ele>832.6666666666666</ele><time>2026-04-19T10:25:46.818Z</time></trkpt><trkpt lat="42.411931000814114" lon="12.718540927254729"><ele>836.3333333333333</ele><time>2026-04-19T10:25:47.818Z</time></trkpt><trkpt lat="42.4117950260996" lon="12.718732611305033"><ele>840.0</ele><time>2026-04-19T10:25:48.818Z</time></trkpt><trkpt lat="42.41164856021916" lon="12.71891545354353"><ele>840.0</ele><time>2026-04-19T10:25:49.818Z</time></trkpt><trkpt lat="42.41149927770422" lon="12.719095340697626"><ele>840.0</ele><time>2026-04-19T10:25:50.818Z</time></trkpt><trkpt lat="42.4113481157894" lon="12.719271633290127"><ele>840.0</ele><time>2026-04-19T10:25:51.818Z</time></trkpt><trkpt lat="42.411201514134625" lon="12.719446237384737"><ele>844.3333333333333</ele><time>2026-04-19T10:25:52.818Z</time></trkpt><trkpt lat="42.41106842972635" lon="12.719606417238882"><ele>848.6666666666666</ele><time>2026-04-19T10:25:53.818Z</time></trkpt><trkpt lat="42.410943930519196" lon="12.719763610567005"><ele>853.0</ele><time>2026-04-19T10:25:54.818Z</time></trkpt><trkpt lat="42.41083386900386" lon="12.719915946400917"><ele>853.0</ele><time>2026-04-19T10:25:55.818Z</time></trkpt><trkpt lat="42.41073427464124" lon="12.72007248701041"><ele>853.0</ele><time>2026-04-19T10:25:56.817Z</time></trkpt><trkpt lat="42.41065058743128" lon="12.72024674475022"><ele>853.0</ele><time>2026-04-19T10:25:57.817Z</time></trkpt><trkpt lat="42.41058807592213" lon="12.720442405342135"><ele>852.3333333333333</ele><time>2026-04-19T10:25:58.817Z</time></trkpt><trkpt lat="42.41054200486402" lon="12.720656301163734"><ele>851.6666666666667</ele><time>2026-04-19T10:25:59.817Z</time></trkpt><trkpt lat="42.410499883570694" lon="12.720882750401561"><ele>851.0</ele><time>2026-04-19T10:26:00.817Z</time></trkpt><trkpt lat="42.41045983257157" lon="12.72108974379967"><ele>851.0</ele><time>2026-04-19T10:26:01.817Z</time></trkpt><trkpt lat="42.41042632387352" lon="12.721290869172213"><ele>851.0</ele><time>2026-04-19T10:26:02.817Z</time></trkpt><trkpt lat="42.410366218541235" lon="12.721471856267742"><ele>851.0</ele><time>2026-04-19T10:26:03.817Z</time></trkpt><trkpt lat="42.41029038408206" lon="12.721634596007286"><ele>851.0</ele><time>2026-04-19T10:26:04.817Z</time></trkpt><trkpt lat="42.41018654008727" lon="12.721789278853533"><ele>851.0</ele><time>2026-04-19T10:26:05.817Z</time></trkpt><trkpt lat="42.41005869691083" lon="12.721935709733861"><ele>851.0</ele><time>2026-04-19T10:26:06.817Z</time></trkpt><trkpt lat="42.40992842737555" lon="12.72208236028144"><ele>851.0</ele><time>2026-04-19T10:26:07.817Z</time></trkpt><trkpt lat="42.40980231232001" lon="12.722255221313224"><ele>851.0</ele><time>2026-04-19T10:26:08.817Z</time></trkpt><trkpt lat="42.40968760467421" lon="12.722449607377266"><ele>851.0</ele><time>2026-04-19T10:26:09.817Z</time></trkpt><trkpt lat="42.40957865801789" lon="12.722660443950696"><ele>851.0</ele><time>2026-04-19T10:26:10.817Z</time></trkpt><trkpt lat="42.40946776053457" lon="12.722874206566116"><ele>847.0</ele><time>2026-04-19T10:26:11.817Z</time></trkpt><trkpt lat="42.40935211368368" lon="12.723088562701871"><ele>843.0</ele><time>2026-04-19T10:26:12.817Z</time></trkpt><trkpt lat="42.409228814357405" lon="12.723297724653932"><ele>839.0</ele><time>2026-04-19T10:26:13.817Z</time></trkpt><trkpt lat="42.40909644741737" lon="12.723507637751695"><ele>841.3333333333334</ele><time>2026-04-19T10:26:14.817Z</time></trkpt><trkpt lat="42.40895831003878" lon="12.723709625419447"><ele>843.6666666666667</ele><time>2026-04-19T10:26:15.817Z</time></trkpt><trkpt lat="42.408819103505635" lon="12.72391449819549"><ele>846.0</ele><time>2026-04-19T10:26:16.817Z</time></trkpt><trkpt lat="42.408690868484236" lon="12.724121327625756"><ele>841.0</ele><time>2026-04-19T10:26:17.817Z</time></trkpt><trkpt lat="42.40857032352433" lon="12.72433056932418"><ele>836.0</ele><time>2026-04-19T10:26:18.817Z</time></trkpt><trkpt lat="42.40845247247257" lon="12.724548091872586"><ele>831.0</ele><time>2026-04-19T10:26:19.817Z</time></trkpt><trkpt lat="42.40833148989327" lon="12.724752328604074"><ele>831.0</ele><time>2026-04-19T10:26:20.816Z</time></trkpt><trkpt lat="42.408210056376134" lon="12.724949102997973"><ele>831.0</ele><time>2026-04-19T10:26:21.816Z</time></trkpt><trkpt lat="42.40807690305663" lon="12.725137945344649"><ele>831.0</ele><time>2026-04-19T10:26:22.816Z</time></trkpt><trkpt lat="42.4079344026061" lon="12.725316407620273"><ele>825.3333333333333</ele><time>2026-04-19T10:26:23.816Z</time></trkpt><trkpt lat="42.407791463802546" lon="12.725472193524363"><ele>819.6666666666666</ele><time>2026-04-19T10:26:24.816Z</time></trkpt><trkpt lat="42.40765451034045" lon="12.725625258985309"><ele>814.0</ele><time>2026-04-19T10:26:25.816Z</time></trkpt><trkpt lat="42.40752686360009" lon="12.725778963853555"><ele>814.0</ele><time>2026-04-19T10:26:26.816Z</time></trkpt><trkpt lat="42.40741875120222" lon="12.725929434048904"><ele>814.0</ele><time>2026-04-19T10:26:27.816Z</time></trkpt><trkpt lat="42.407330368399414" lon="12.726103253756895"><ele>814.0</ele><time>2026-04-19T10:26:28.816Z</time></trkpt><trkpt lat="42.40726488991198" lon="12.726303133391637"><ele>817.0</ele><time>2026-04-19T10:26:29.816Z</time></trkpt><trkpt lat="42.40722798456212" lon="12.726520539959806"><ele>820.0</ele><time>2026-04-19T10:26:30.816Z</time></trkpt><trkpt lat="42.407212754502325" lon="12.72674397254012"><ele>823.0</ele><time>2026-04-19T10:26:31.816Z</time></trkpt><trkpt lat="42.407203608238056" lon="12.726983502526267"><ele>824.0</ele><time>2026-04-19T10:26:32.816Z</time></trkpt><trkpt lat="42.407197587260164" lon="12.727209793321835"><ele>825.0</ele><time>2026-04-19T10:26:33.816Z</time></trkpt><trkpt lat="42.407191183811605" lon="12.727429514178139"><ele>826.0</ele><time>2026-04-19T10:26:34.816Z</time></trkpt><trkpt lat="42.40718490391585" lon="12.7276574055867"><ele>824.0</ele><time>2026-04-19T10:26:35.816Z</time></trkpt><trkpt lat="42.40717763596954" lon="12.727887008413692"><ele>822.0</ele><time>2026-04-19T10:26:36.816Z</time></trkpt><trkpt lat="42.40716841492865" lon="12.728121378476306"><ele>820.0</ele><time>2026-04-19T10:26:37.816Z</time></trkpt><trkpt lat="42.407165114088784" lon="12.728339973937866"><ele>817.75</ele><time>2026-04-19T10:26:38.816Z</time></trkpt><trkpt lat="42.40715190021788" lon="12.728538613122188"><ele>815.5</ele><time>2026-04-19T10:26:39.816Z</time></trkpt><trkpt lat="42.40713722207213" lon="12.728718329994456"><ele>813.25</ele><time>2026-04-19T10:26:40.816Z</time></trkpt><trkpt lat="42.407131410450404" lon="12.728872379004185"><ele>811.0</ele><time>2026-04-19T10:26:41.816Z</time></trkpt><trkpt lat="42.40714572493732" lon="12.729019060868957"><ele>812.0</ele><time>2026-04-19T10:26:42.816Z</time></trkpt><trkpt lat="42.40718122093766" lon="12.729157172722235"><ele>813.0</ele><time>2026-04-19T10:26:43.816Z</time></trkpt><trkpt lat="42.407240539177856" lon="12.729286518480956"><ele>814.0</ele><time>2026-04-19T10:26:44.816Z</time></trkpt><trkpt lat="42.40730578964886" lon="12.729431785271524"><ele>815.0</ele><time>2026-04-19T10:26:45.817Z</time></trkpt><trkpt lat="42.40736580533691" lon="12.729581658358848"><ele>815.0</ele><time>2026-04-19T10:26:46.817Z</time></trkpt><trkpt lat="42.40740223771563" lon="12.729748300737812"><ele>815.0</ele><time>2026-04-19T10:26:47.816Z</time></trkpt><trkpt lat="42.40741617614615" lon="12.729920837897472"><ele>815.0</ele><time>2026-04-19T10:26:48.816Z</time></trkpt><trkpt lat="42.40741389326526" lon="12.730106005712331"><ele>815.0</ele><time>2026-04-19T10:26:49.816Z</time></trkpt><trkpt lat="42.407399766429265" lon="12.730283671345019"><ele>814.25</ele><time>2026-04-19T10:26:50.816Z</time></trkpt><trkpt lat="42.407372455762236" lon="12.730460272930513"><ele>813.5</ele><time>2026-04-19T10:26:51.816Z</time></trkpt><trkpt lat="42.407341595646336" lon="12.730625266699999"><ele>812.75</ele><time>2026-04-19T10:26:52.816Z</time></trkpt><trkpt lat="42.40729757382249" lon="12.730785712987291"><ele>812.0</ele><time>2026-04-19T10:26:53.816Z</time></trkpt><trkpt lat="42.40724556327786" lon="12.730942317859817"><ele>812.0</ele><time>2026-04-19T10:26:54.816Z</time></trkpt><trkpt lat="42.40719281914519" lon="12.731093516222098"><ele>812.0</ele><time>2026-04-19T10:26:55.816Z</time></trkpt><trkpt lat="42.407148692364835" lon="12.731247928092817"><ele>812.0</ele><time>2026-04-19T10:26:56.816Z</time></trkpt><trkpt lat="42.407115237242415" lon="12.731391124738911"><ele>812.0</ele><time>2026-04-19T10:26:57.816Z</time></trkpt><trkpt lat="42.407107955076064" lon="12.731520724828895"><ele>812.0</ele><time>2026-04-19T10:26:58.816Z</time></trkpt><trkpt lat="42.40713120419" lon="12.731640917795934"><ele>812.0</ele><time>2026-04-19T10:26:59.816Z</time></trkpt><trkpt lat="42.40717815991723" lon="12.731744152421026"><ele>812.0</ele><time>2026-04-19T10:27:00.816Z</time></trkpt><trkpt lat="42.40723908156548" lon="12.731851149128142"><ele>812.0</ele><time>2026-04-19T10:27:01.815Z</time></trkpt><trkpt lat="42.40730415358736" lon="12.731976569210495"><ele>812.0</ele><time>2026-04-19T10:27:02.815Z</time></trkpt><trkpt lat="42.40736596937783" lon="12.732099586619425"><ele>808.5</ele><time>2026-04-19T10:27:03.815Z</time></trkpt><trkpt lat="42.40741941848475" lon="12.732237892618397"><ele>805.0</ele><time>2026-04-19T10:27:04.815Z</time></trkpt><trkpt lat="42.407457781838175" lon="12.732379806680912"><ele>801.5</ele><time>2026-04-19T10:27:05.815Z</time></trkpt><trkpt lat="42.40748067213663" lon="12.732538355664667"><ele>798.0</ele><time>2026-04-19T10:27:06.815Z</time></trkpt><trkpt lat="42.40749231059803" lon="12.732703352912207"><ele>794.5</ele><time>2026-04-19T10:27:07.815Z</time></trkpt><trkpt lat="42.40747878334352" lon="12.73288321652461"><ele>791.0</ele><time>2026-04-19T10:27:08.815Z</time></trkpt><trkpt lat="42.407464077027235" lon="12.733063100368552"><ele>787.5</ele><time>2026-04-19T10:27:09.815Z</time></trkpt><trkpt lat="42.40748406626275" lon="12.73324067484354"><ele>784.0</ele><time>2026-04-19T10:27:10.815Z</time></trkpt><trkpt lat="42.40751764309187" lon="12.733431635526287"><ele>779.25</ele><time>2026-04-19T10:27:11.815Z</time></trkpt><trkpt lat="42.40754085915326" lon="12.733620939345279"><ele>774.5</ele><time>2026-04-19T10:27:12.815Z</time></trkpt><trkpt lat="42.407552077138035" lon="12.733793794950179"><ele>769.75</ele><time>2026-04-19T10:27:13.815Z</time></trkpt><trkpt lat="42.40754409872627" lon="12.733935893820552"><ele>765.0</ele><time>2026-04-19T10:27:14.815Z</time></trkpt><trkpt lat="42.407535423684216" lon="12.734040819804815"><ele>765.0</ele><time>2026-04-19T10:27:15.815Z</time></trkpt><trkpt lat="42.40756081950872" lon="12.734156938047256"><ele>765.0</ele><time>2026-04-19T10:27:16.815Z</time></trkpt><trkpt lat="42.40761135228" lon="12.73425002613276"><ele>765.0</ele><time>2026-04-19T10:27:17.815Z</time></trkpt><trkpt lat="42.407674772950905" lon="12.734326348988766"><ele>765.0</ele><time>2026-04-19T10:27:18.815Z</time></trkpt><trkpt lat="42.40776894865193" lon="12.734391738199959"><ele>765.0</ele><time>2026-04-19T10:27:19.815Z</time></trkpt><trkpt lat="42.40788400661625" lon="12.734435100374197"><ele>765.75</ele><time>2026-04-19T10:27:20.815Z</time></trkpt><trkpt lat="42.40800739472199" lon="12.734463332620932"><ele>766.5</ele><time>2026-04-19T10:27:21.815Z</time></trkpt><trkpt lat="42.40812524846406" lon="12.73447651085438"><ele>767.25</ele><time>2026-04-19T10:27:22.815Z</time></trkpt><trkpt lat="42.408236107147005" lon="12.73451224695062"><ele>768.0</ele><time>2026-04-19T10:27:23.815Z</time></trkpt><trkpt lat="42.40834606246313" lon="12.734541520097789"><ele>768.0</ele><time>2026-04-19T10:27:24.814Z</time></trkpt><trkpt lat="42.4084408813339" lon="12.734586307616008"><ele>768.0</ele><time>2026-04-19T10:27:25.814Z</time></trkpt><trkpt lat="42.40850809195114" lon="12.734652443902805"><ele>768.0</ele><time>2026-04-19T10:27:26.814Z</time></trkpt><trkpt lat="42.4085465932156" lon="12.734740222991224"><ele>768.0</ele><time>2026-04-19T10:27:27.814Z</time></trkpt><trkpt lat="42.40855457250122" lon="12.734842209983613"><ele>768.0</ele><time>2026-04-19T10:27:28.814Z</time></trkpt><trkpt lat="42.408534110493186" lon="12.734954919196644"><ele>768.0</ele><time>2026-04-19T10:27:29.814Z</time></trkpt><trkpt lat="42.40848533539855" lon="12.735070835440194"><ele>768.0</ele><time>2026-04-19T10:27:30.814Z</time></trkpt><trkpt lat="42.4084136841251" lon="12.735190450519966"><ele>768.0</ele><time>2026-04-19T10:27:31.814Z</time></trkpt><trkpt lat="42.40834083090999" lon="12.735322431327692"><ele>768.0</ele><time>2026-04-19T10:27:32.814Z</time></trkpt><trkpt lat="42.408277219641995" lon="12.73547265003908"><ele>768.0</ele><time>2026-04-19T10:27:33.814Z</time></trkpt><trkpt lat="42.408225759929834" lon="12.735647948357842"><ele>768.5</ele><time>2026-04-19T10:27:34.814Z</time></trkpt><trkpt lat="42.40819145491341" lon="12.735843411142104"><ele>769.0</ele><time>2026-04-19T10:27:35.814Z</time></trkpt><trkpt lat="42.40816659896568" lon="12.736035113020552"><ele>769.5</ele><time>2026-04-19T10:27:36.814Z</time></trkpt><trkpt lat="42.40814560018461" lon="12.73622725116811"><ele>770.0</ele><time>2026-04-19T10:27:37.814Z</time></trkpt><trkpt lat="42.40812430488197" lon="12.736441250280372"><ele>770.0</ele><time>2026-04-19T10:27:38.814Z</time></trkpt><trkpt lat="42.408102862734566" lon="12.736648248191694"><ele>770.0</ele><time>2026-04-19T10:27:39.814Z</time></trkpt><trkpt lat="42.4080776246276" lon="12.73685090106072"><ele>770.0</ele><time>2026-04-19T10:27:40.814Z</time></trkpt><trkpt lat="42.40805352521664" lon="12.737034936454041"><ele>770.0</ele><time>2026-04-19T10:27:41.814Z</time></trkpt><trkpt lat="42.40802969966911" lon="12.737212292980914"><ele>770.0</ele><time>2026-04-19T10:27:42.814Z</time></trkpt><trkpt lat="42.40799869020167" lon="12.737395840566931"><ele>770.0</ele><time>2026-04-19T10:27:43.814Z</time></trkpt><trkpt lat="42.40794871870523" lon="12.73758925616967"><ele>770.0</ele><time>2026-04-19T10:27:44.814Z</time></trkpt><trkpt lat="42.40786116169834" lon="12.737773967698894"><ele>760.0</ele><time>2026-04-19T10:27:45.814Z</time></trkpt><trkpt lat="42.40778792967819" lon="12.737963508121819"><ele>750.0</ele><time>2026-04-19T10:27:46.814Z</time></trkpt><trkpt lat="42.407723604312444" lon="12.73814481029493"><ele>740.0</ele><time>2026-04-19T10:27:47.814Z</time></trkpt><trkpt lat="42.40767090734996" lon="12.738305101688619"><ele>730.0</ele><time>2026-04-19T10:27:48.813Z</time></trkpt><trkpt lat="42.40762844251429" lon="12.738448834399867"><ele>731.0</ele><time>2026-04-19T10:27:49.813Z</time></trkpt><trkpt lat="42.407601338858" lon="12.738617761694709"><ele>732.0</ele><time>2026-04-19T10:27:50.813Z</time></trkpt><trkpt lat="42.40760209175465" lon="12.738792861233158"><ele>733.0</ele><time>2026-04-19T10:27:51.813Z</time></trkpt><trkpt lat="42.40762185511942" lon="12.738994376283438"><ele>734.0</ele><time>2026-04-19T10:27:52.813Z</time></trkpt><trkpt lat="42.40763517154358" lon="12.739220161118324"><ele>732.3333333333333</ele><time>2026-04-19T10:27:53.813Z</time></trkpt><trkpt lat="42.40765096161326" lon="12.739461262533803"><ele>730.6666666666666</ele><time>2026-04-19T10:27:54.813Z</time></trkpt><trkpt lat="42.40764933558635" lon="12.739697442756514"><ele>729.0</ele><time>2026-04-19T10:27:55.813Z</time></trkpt><trkpt lat="42.40764625517918" lon="12.739930697250793"><ele>729.0</ele><time>2026-04-19T10:27:56.813Z</time></trkpt><trkpt lat="42.407633937205034" lon="12.74016706911519"><ele>729.0</ele><time>2026-04-19T10:27:57.813Z</time></trkpt><trkpt lat="42.40762429443877" lon="12.740403049099665"><ele>729.0</ele><time>2026-04-19T10:27:58.813Z</time></trkpt><trkpt lat="42.40761772377745" lon="12.740647688432094"><ele>729.0</ele><time>2026-04-19T10:27:59.813Z</time></trkpt><trkpt lat="42.40760792672932" lon="12.740891284326773"><ele>729.0</ele><time>2026-04-19T10:28:00.813Z</time></trkpt><trkpt lat="42.407601852306804" lon="12.741142687956142"><ele>729.0</ele><time>2026-04-19T10:28:01.813Z</time></trkpt><trkpt lat="42.40759994933773" lon="12.741402769429849"><ele>727.6666666666666</ele><time>2026-04-19T10:28:02.813Z</time></trkpt><trkpt lat="42.40759841766679" lon="12.741651824703126"><ele>726.3333333333333</ele><time>2026-04-19T10:28:03.813Z</time></trkpt><trkpt lat="42.40760065130339" lon="12.741897131906693"><ele>725.0</ele><time>2026-04-19T10:28:04.813Z</time></trkpt><trkpt lat="42.40760642161722" lon="12.742144536112889"><ele>724.0</ele><time>2026-04-19T10:28:05.813Z</time></trkpt><trkpt lat="42.40762116232587" lon="12.742393160907532"><ele>723.0</ele><time>2026-04-19T10:28:06.813Z</time></trkpt><trkpt lat="42.407633648441134" lon="12.742648308335164"><ele>722.0</ele><time>2026-04-19T10:28:07.813Z</time></trkpt><trkpt lat="42.40764510982314" lon="12.742899434538463"><ele>720.0</ele><time>2026-04-19T10:28:08.813Z</time></trkpt><trkpt lat="42.407659104232074" lon="12.74314657755471"><ele>718.0</ele><time>2026-04-19T10:28:09.813Z</time></trkpt><trkpt lat="42.40766085870728" lon="12.74339311683867"><ele>716.0</ele><time>2026-04-19T10:28:10.813Z</time></trkpt><trkpt lat="42.40766154865938" lon="12.743637532408593"><ele>715.6666666666666</ele><time>2026-04-19T10:28:11.812Z</time></trkpt><trkpt lat="42.40765408530206" lon="12.74388776057692"><ele>715.3333333333334</ele><time>2026-04-19T10:28:12.812Z</time></trkpt><trkpt lat="42.40763741757689" lon="12.744144037775667"><ele>715.0</ele><time>2026-04-19T10:28:13.812Z</time></trkpt><trkpt lat="42.407622443302685" lon="12.744389871711624"><ele>713.3333333333334</ele><time>2026-04-19T10:28:14.812Z</time></trkpt><trkpt lat="42.40760950996794" lon="12.744630249322203"><ele>711.6666666666666</ele><time>2026-04-19T10:28:15.812Z</time></trkpt><trkpt lat="42.40760411892804" lon="12.744872855825552"><ele>710.0</ele><time>2026-04-19T10:28:16.812Z</time></trkpt><trkpt lat="42.40760306368732" lon="12.745109287814326"><ele>707.3333333333333</ele><time>2026-04-19T10:28:17.812Z</time></trkpt><trkpt lat="42.40760409504094" lon="12.745327107032724"><ele>704.6666666666666</ele><time>2026-04-19T10:28:18.812Z</time></trkpt><trkpt lat="42.40761414152477" lon="12.745519252311578"><ele>702.0</ele><time>2026-04-19T10:28:19.812Z</time></trkpt><trkpt lat="42.407646965141424" lon="12.745714785672805"><ele>702.0</ele><time>2026-04-19T10:28:20.812Z</time></trkpt><trkpt lat="42.40768893697525" lon="12.745882191350967"><ele>702.0</ele><time>2026-04-19T10:28:21.812Z</time></trkpt><trkpt lat="42.40774304899284" lon="12.746024181458479"><ele>702.0</ele><time>2026-04-19T10:28:22.812Z</time></trkpt><trkpt lat="42.407814958588624" lon="12.746154110503902"><ele>702.0</ele><time>2026-04-19T10:28:23.812Z</time></trkpt><trkpt lat="42.40789969782887" lon="12.746260629538078"><ele>702.0</ele><time>2026-04-19T10:28:24.812Z</time></trkpt><trkpt lat="42.40799006941911" lon="12.746363950271768"><ele>702.0</ele><time>2026-04-19T10:28:25.812Z</time></trkpt><trkpt lat="42.408096500609986" lon="12.746450194279623"><ele>702.0</ele><time>2026-04-19T10:28:26.812Z</time></trkpt><trkpt lat="42.408207580929094" lon="12.746508829111152"><ele>702.0</ele><time>2026-04-19T10:28:27.812Z</time></trkpt><trkpt lat="42.40832162028928" lon="12.746532482694615"><ele>702.0</ele><time>2026-04-19T10:28:28.812Z</time></trkpt><trkpt lat="42.408438518102635" lon="12.746541774689348"><ele>702.0</ele><time>2026-04-19T10:28:29.812Z</time></trkpt><trkpt lat="42.40855542001903" lon="12.746532189726006"><ele>702.0</ele><time>2026-04-19T10:28:30.812Z</time></trkpt><trkpt lat="42.408670369915804" lon="12.746494344995648"><ele>702.0</ele><time>2026-04-19T10:28:31.812Z</time></trkpt><trkpt lat="42.408787693260464" lon="12.746430959223447"><ele>699.75</ele><time>2026-04-19T10:28:32.812Z</time></trkpt><trkpt lat="42.408903854790246" lon="12.746357980508343"><ele>697.5</ele><time>2026-04-19T10:28:33.812Z</time></trkpt><trkpt lat="42.40902106518655" lon="12.746290664357215"><ele>695.25</ele><time>2026-04-19T10:28:34.812Z</time></trkpt><trkpt lat="42.409130577534576" lon="12.746236041744732"><ele>693.0</ele><time>2026-04-19T10:28:35.811Z</time></trkpt><trkpt lat="42.40923456216244" lon="12.746199476319784"><ele>693.0</ele><time>2026-04-19T10:28:36.811Z</time></trkpt><trkpt lat="42.409345692018356" lon="12.746196596758194"><ele>693.0</ele><time>2026-04-19T10:28:37.811Z</time></trkpt><trkpt lat="42.40944648439898" lon="12.746230721744645"><ele>693.0</ele><time>2026-04-19T10:28:38.811Z</time></trkpt><trkpt lat="42.409544138346035" lon="12.746300949267846"><ele>693.0</ele><time>2026-04-19T10:28:39.811Z</time></trkpt><trkpt lat="42.40964482072481" lon="12.746354549746371"><ele>693.0</ele><time>2026-04-19T10:28:40.811Z</time></trkpt><trkpt lat="42.40975310701066" lon="12.746370326849588"><ele>691.0</ele><time>2026-04-19T10:28:41.811Z</time></trkpt><trkpt lat="42.40985516849073" lon="12.74633082785194"><ele>689.0</ele><time>2026-04-19T10:28:42.811Z</time></trkpt><trkpt lat="42.40995023754355" lon="12.746254959329066"><ele>687.0</ele><time>2026-04-19T10:28:43.811Z</time></trkpt><trkpt lat="42.410042557464976" lon="12.746174407549123"><ele>685.0</ele><time>2026-04-19T10:28:44.811Z</time></trkpt><trkpt lat="42.410132825391536" lon="12.746091487371142"><ele>683.0</ele><time>2026-04-19T10:28:45.811Z</time></trkpt><trkpt lat="42.410220353623465" lon="12.746007536241764"><ele>684.5</ele><time>2026-04-19T10:28:46.811Z</time></trkpt><trkpt lat="42.4103102675071" lon="12.745939987065858"><ele>686.0</ele><time>2026-04-19T10:28:47.811Z</time></trkpt><trkpt lat="42.410392753815394" lon="12.745886847683472"><ele>687.5</ele><time>2026-04-19T10:28:48.811Z</time></trkpt><trkpt lat="42.410470047533025" lon="12.745876325247309"><ele>689.0</ele><time>2026-04-19T10:28:49.811Z</time></trkpt><trkpt lat="42.41054276723683" lon="12.745909320248495"><ele>690.5</ele><time>2026-04-19T10:28:50.811Z</time></trkpt><trkpt lat="42.410601153614344" lon="12.745992728114308"><ele>692.0</ele><time>2026-04-19T10:28:51.811Z</time></trkpt><trkpt lat="42.4106332765181" lon="12.746095251177941"><ele>692.0</ele><time>2026-04-19T10:28:52.811Z</time></trkpt><trkpt lat="42.41065306929251" lon="12.746214578277861"><ele>692.0</ele><time>2026-04-19T10:28:53.811Z</time></trkpt><trkpt lat="42.41067217128355" lon="12.746346584373912"><ele>692.0</ele><time>2026-04-19T10:28:54.811Z</time></trkpt><trkpt lat="42.41069166072491" lon="12.7464983657961"><ele>692.0</ele><time>2026-04-19T10:28:55.811Z</time></trkpt><trkpt lat="42.41071403604517" lon="12.746668474832692"><ele>692.0</ele><time>2026-04-19T10:28:56.811Z</time></trkpt><trkpt lat="42.41074762960221" lon="12.746835858387835"><ele>688.5</ele><time>2026-04-19T10:28:57.81Z</time></trkpt><trkpt lat="42.41078065496965" lon="12.74700413597115"><ele>685.0</ele><time>2026-04-19T10:28:58.81Z</time></trkpt><trkpt lat="42.410815707319486" lon="12.747169181297808"><ele>681.5</ele><time>2026-04-19T10:28:59.811Z</time></trkpt><trkpt lat="42.41086647520833" lon="12.747322269388237"><ele>678.0</ele><time>2026-04-19T10:29:00.811Z</time></trkpt><trkpt lat="42.41093334012099" lon="12.747438366249586"><ele>678.0</ele><time>2026-04-19T10:29:01.811Z</time></trkpt><trkpt lat="42.411022227050964" lon="12.747532033674354"><ele>678.0</ele><time>2026-04-19T10:29:02.81Z</time></trkpt><trkpt lat="42.411123633238596" lon="12.747600998850755"><ele>678.0</ele><time>2026-04-19T10:29:03.811Z</time></trkpt><trkpt lat="42.4112376030885" lon="12.747654042399647"><ele>678.0</ele><time>2026-04-19T10:29:04.811Z</time></trkpt><trkpt lat="42.41135644316036" lon="12.747696478332392"><ele>674.75</ele><time>2026-04-19T10:29:05.811Z</time></trkpt><trkpt lat="42.411475414956165" lon="12.74773152239562"><ele>671.5</ele><time>2026-04-19T10:29:06.811Z</time></trkpt><trkpt lat="42.41159969909523" lon="12.747764417047318"><ele>668.25</ele><time>2026-04-19T10:29:07.811Z</time></trkpt><trkpt lat="42.411723355351796" lon="12.747804767457884"><ele>665.0</ele><time>2026-04-19T10:29:08.811Z</time></trkpt><trkpt lat="42.41185712005259" lon="12.747851092147396"><ele>665.0</ele><time>2026-04-19T10:29:09.811Z</time></trkpt><trkpt lat="42.41199844974663" lon="12.747915603213539"><ele>665.0</ele><time>2026-04-19T10:29:10.811Z</time></trkpt><trkpt lat="42.412130184746424" lon="12.74798653784137"><ele>665.0</ele><time>2026-04-19T10:29:11.811Z</time></trkpt><trkpt lat="42.41225876728942" lon="12.748060887403108"><ele>665.0</ele><time>2026-04-19T10:29:12.811Z</time></trkpt><trkpt lat="42.412386588043795" lon="12.748132603206972"><ele>666.5</ele><time>2026-04-19T10:29:13.81Z</time></trkpt><trkpt lat="42.412511175598" lon="12.748193233968058"><ele>668.0</ele><time>2026-04-19T10:29:14.81Z</time></trkpt><trkpt lat="42.4126327576739" lon="12.748228928536633"><ele>669.5</ele><time>2026-04-19T10:29:15.81Z</time></trkpt><trkpt lat="42.412752493403204" lon="12.74823237773077"><ele>671.0</ele><time>2026-04-19T10:29:16.81Z</time></trkpt><trkpt lat="42.412869913064576" lon="12.74817745788348"><ele>671.0</ele><time>2026-04-19T10:29:17.81Z</time></trkpt><trkpt lat="42.41297491979215" lon="12.748088769196112"><ele>671.0</ele><time>2026-04-19T10:29:18.81Z</time></trkpt><trkpt lat="42.41305455817344" lon="12.747973179321304"><ele>671.0</ele><time>2026-04-19T10:29:19.81Z</time></trkpt><trkpt lat="42.41311260001585" lon="12.74783935800948"><ele>671.0</ele><time>2026-04-19T10:29:20.81Z</time></trkpt><trkpt lat="42.41317106381214" lon="12.74772591047589"><ele>669.1999999999999</ele><time>2026-04-19T10:29:21.81Z</time></trkpt><trkpt lat="42.413244897934234" lon="12.747642971776047"><ele>667.4</ele><time>2026-04-19T10:29:22.81Z</time></trkpt><trkpt lat="42.413320875697615" lon="12.747609006555392"><ele>665.6</ele><time>2026-04-19T10:29:23.81Z</time></trkpt><trkpt lat="42.41340924665923" lon="12.747633479400577"><ele>663.8</ele><time>2026-04-19T10:29:24.81Z</time></trkpt><trkpt lat="42.41349096775139" lon="12.747708014861141"><ele>662.0</ele><time>2026-04-19T10:29:25.81Z</time></trkpt><trkpt lat="42.41355168227234" lon="12.747815559974896"><ele>662.0</ele><time>2026-04-19T10:29:26.81Z</time></trkpt><trkpt lat="42.41360070110359" lon="12.747942633815695"><ele>662.0</ele><time>2026-04-19T10:29:27.81Z</time></trkpt><trkpt lat="42.413666672940025" lon="12.748062255752485"><ele>662.0</ele><time>2026-04-19T10:29:28.81Z</time></trkpt><trkpt lat="42.41374424827461" lon="12.748171794039921"><ele>662.0</ele><time>2026-04-19T10:29:29.81Z</time></trkpt><trkpt lat="42.4138239376461" lon="12.748271727837356"><ele>662.0</ele><time>2026-04-19T10:29:30.81Z</time></trkpt><trkpt lat="42.413909017607516" lon="12.7483720402745"><ele>662.4000000000001</ele><time>2026-04-19T10:29:31.81Z</time></trkpt><trkpt lat="42.41398045898224" lon="12.748481450346942"><ele>662.8000000000001</ele><time>2026-04-19T10:29:32.81Z</time></trkpt><trkpt lat="42.41403398894717" lon="12.748611228751262"><ele>663.2</ele><time>2026-04-19T10:29:33.81Z</time></trkpt><trkpt lat="42.41405973630465" lon="12.748755925779259"><ele>663.6</ele><time>2026-04-19T10:29:34.81Z</time></trkpt><trkpt lat="42.414065922914546" lon="12.748895798781678"><ele>664.0</ele><time>2026-04-19T10:29:35.81Z</time></trkpt><trkpt lat="42.41405094244935" lon="12.749042173086282"><ele>664.0</ele><time>2026-04-19T10:29:36.809Z</time></trkpt><trkpt lat="42.414018743160995" lon="12.74920832122707"><ele>664.0</ele><time>2026-04-19T10:29:37.809Z</time></trkpt><trkpt lat="42.413990498946056" lon="12.749387086894442"><ele>664.0</ele><time>2026-04-19T10:29:38.809Z</time></trkpt><trkpt lat="42.41396955747479" lon="12.749578926091768"><ele>664.0</ele><time>2026-04-19T10:29:39.809Z</time></trkpt><trkpt lat="42.41395599241646" lon="12.749771714359492"><ele>663.75</ele><time>2026-04-19T10:29:40.809Z</time></trkpt><trkpt lat="42.41394604407056" lon="12.749954145158652"><ele>663.5</ele><time>2026-04-19T10:29:41.809Z</time></trkpt><trkpt lat="42.413936758084915" lon="12.750130543917109"><ele>663.25</ele><time>2026-04-19T10:29:42.809Z</time></trkpt><trkpt lat="42.413926461795306" lon="12.750306154510485"><ele>663.0</ele><time>2026-04-19T10:29:43.809Z</time></trkpt><trkpt lat="42.413902413214515" lon="12.750477849409037"><ele>663.75</ele><time>2026-04-19T10:29:44.809Z</time></trkpt><trkpt lat="42.41385062799896" lon="12.750635911122398"><ele>664.5</ele><time>2026-04-19T10:29:45.809Z</time></trkpt><trkpt lat="42.41378235797616" lon="12.750786541471461"><ele>665.25</ele><time>2026-04-19T10:29:46.809Z</time></trkpt><trkpt lat="42.413699303220575" lon="12.750934406442232"><ele>666.0</ele><time>2026-04-19T10:29:47.809Z</time></trkpt><trkpt lat="42.41360892168764" lon="12.751084220265316"><ele>658.6666666666666</ele><time>2026-04-19T10:29:48.809Z</time></trkpt><trkpt lat="42.41352208061811" lon="12.75125202379106"><ele>651.3333333333333</ele><time>2026-04-19T10:29:49.809Z</time></trkpt><trkpt lat="42.413440595749634" lon="12.751438121252754"><ele>644.0</ele><time>2026-04-19T10:29:50.809Z</time></trkpt><trkpt lat="42.41335834374159" lon="12.75163731100462"><ele>644.0</ele><time>2026-04-19T10:29:51.809Z</time></trkpt><trkpt lat="42.413273587057084" lon="12.751829228020785"><ele>644.0</ele><time>2026-04-19T10:29:52.809Z</time></trkpt><trkpt lat="42.413187023963026" lon="12.7520173791501"><ele>644.0</ele><time>2026-04-19T10:29:53.809Z</time></trkpt><trkpt lat="42.41309926538505" lon="12.752204109327513"><ele>638.3333333333333</ele><time>2026-04-19T10:29:54.809Z</time></trkpt><trkpt lat="42.41301613030408" lon="12.752391501004082"><ele>632.6666666666666</ele><time>2026-04-19T10:29:55.809Z</time></trkpt><trkpt lat="42.412940047978495" lon="12.752580646959853"><ele>627.0</ele><time>2026-04-19T10:29:56.809Z</time></trkpt><trkpt lat="42.41286309440482" lon="12.752768503366438"><ele>627.0</ele><time>2026-04-19T10:29:57.809Z</time></trkpt><trkpt lat="42.41278985288337" lon="12.752955884959224"><ele>627.0</ele><time>2026-04-19T10:29:58.809Z</time></trkpt><trkpt lat="42.41271915292303" lon="12.75313864041744"><ele>627.0</ele><time>2026-04-19T10:29:59.809Z</time></trkpt><trkpt lat="42.41264902625189" lon="12.753316630930716"><ele>627.0</ele><time>2026-04-19T10:30:00.808Z</time></trkpt><trkpt lat="42.41258784612437" lon="12.753477102269608"><ele>627.0</ele><time>2026-04-19T10:30:01.808Z</time></trkpt><trkpt lat="42.412540896867235" lon="12.753640258036391"><ele>627.0</ele><time>2026-04-19T10:30:02.808Z</time></trkpt><trkpt lat="42.412508777500115" lon="12.753811750292828"><ele>627.0</ele><time>2026-04-19T10:30:03.808Z</time></trkpt><trkpt lat="42.41249712172714" lon="12.753987222885169"><ele>627.5</ele><time>2026-04-19T10:30:04.808Z</time></trkpt><trkpt lat="42.41250656866711" lon="12.754168809939221"><ele>628.0</ele><time>2026-04-19T10:30:05.808Z</time></trkpt><trkpt lat="42.41253559227165" lon="12.754350389959077"><ele>628.5</ele><time>2026-04-19T10:30:06.808Z</time></trkpt><trkpt lat="42.412577531487464" lon="12.754531520448335"><ele>629.0</ele><time>2026-04-19T10:30:07.808Z</time></trkpt><trkpt lat="42.41262962360741" lon="12.75470292089005"><ele>628.0</ele><time>2026-04-19T10:30:08.808Z</time></trkpt><trkpt lat="42.41267777305623" lon="12.754854575760596"><ele>627.0</ele><time>2026-04-19T10:30:09.808Z</time></trkpt><trkpt lat="42.41271720615471" lon="12.754979607673958"><ele>626.0</ele><time>2026-04-19T10:30:10.808Z</time></trkpt><trkpt lat="42.41273192316825" lon="12.755092384526451"><ele>625.0</ele><time>2026-04-19T10:30:11.808Z</time></trkpt><trkpt lat="42.412713428627434" lon="12.755201700338704"><ele>624.0</ele><time>2026-04-19T10:30:12.808Z</time></trkpt><trkpt lat="42.41265643493001" lon="12.755303996241961"><ele>626.2</ele><time>2026-04-19T10:30:13.808Z</time></trkpt><trkpt lat="42.41258256266891" lon="12.755386222637068"><ele>628.4</ele><time>2026-04-19T10:30:14.808Z</time></trkpt><trkpt lat="42.412485310512395" lon="12.755467486466564"><ele>630.6</ele><time>2026-04-19T10:30:15.808Z</time></trkpt><trkpt lat="42.41238607841355" lon="12.755552231884728"><ele>632.8</ele><time>2026-04-19T10:30:16.808Z</time></trkpt><trkpt lat="42.412291916948426" lon="12.755637790019534"><ele>635.0</ele><time>2026-04-19T10:30:17.808Z</time></trkpt><trkpt lat="42.412210245456144" lon="12.755737353525932"><ele>625.25</ele><time>2026-04-19T10:30:18.808Z</time></trkpt><trkpt lat="42.412146128270116" lon="12.755863740178118"><ele>615.5</ele><time>2026-04-19T10:30:19.808Z</time></trkpt><trkpt lat="42.41210672891947" lon="12.75601418687953"><ele>605.75</ele><time>2026-04-19T10:30:20.808Z</time></trkpt><trkpt lat="42.412090985132416" lon="12.756180726066908"><ele>596.0</ele><time>2026-04-19T10:30:21.808Z</time></trkpt><trkpt lat="42.41210057360192" lon="12.756349242319054"><ele>596.0</ele><time>2026-04-19T10:30:22.808Z</time></trkpt><trkpt lat="42.41213902116033" lon="12.756509649185936"><ele>596.0</ele><time>2026-04-19T10:30:23.808Z</time></trkpt><trkpt lat="42.412208073660025" lon="12.75664744325396"><ele>596.0</ele><time>2026-04-19T10:30:24.807Z</time></trkpt><trkpt lat="42.412290907396404" lon="12.75675802569364"><ele>596.0</ele><time>2026-04-19T10:30:25.807Z</time></trkpt><trkpt lat="42.41238645736294" lon="12.756859556317718"><ele>599.25</ele><time>2026-04-19T10:30:26.807Z</time></trkpt><trkpt lat="42.412488410805494" lon="12.756948087838873"><ele>602.5</ele><time>2026-04-19T10:30:27.807Z</time></trkpt><trkpt lat="42.41258474002965" lon="12.757052733500121"><ele>605.75</ele><time>2026-04-19T10:30:28.807Z</time></trkpt><trkpt lat="42.4126657330314" lon="12.757176746732746"><ele>609.0</ele><time>2026-04-19T10:30:29.807Z</time></trkpt><trkpt lat="42.412739871605574" lon="12.757304180787235"><ele>609.0</ele><time>2026-04-19T10:30:30.807Z</time></trkpt><trkpt lat="42.412791730201626" lon="12.757452602064541"><ele>609.0</ele><time>2026-04-19T10:30:31.807Z</time></trkpt><trkpt lat="42.41283060378806" lon="12.757602604973444"><ele>609.0</ele><time>2026-04-19T10:30:32.807Z</time></trkpt><trkpt lat="42.412868526245305" lon="12.757758091181728"><ele>609.0</ele><time>2026-04-19T10:30:33.807Z</time></trkpt><trkpt lat="42.41289099387112" lon="12.757911916325696"><ele>608.25</ele><time>2026-04-19T10:30:34.807Z</time></trkpt><trkpt lat="42.41289395456387" lon="12.75807377750504"><ele>607.5</ele><time>2026-04-19T10:30:35.807Z</time></trkpt><trkpt lat="42.4128723304224" lon="12.758234766689972"><ele>606.75</ele><time>2026-04-19T10:30:36.807Z</time></trkpt><trkpt lat="42.412823927504064" lon="12.758400684526338"><ele>606.0</ele><time>2026-04-19T10:30:37.807Z</time></trkpt><trkpt lat="42.41276438066044" lon="12.758570574795835"><ele>606.0</ele><time>2026-04-19T10:30:38.807Z</time></trkpt><trkpt lat="42.412691026007444" lon="12.758742870607872"><ele>606.0</ele><time>2026-04-19T10:30:39.807Z</time></trkpt><trkpt lat="42.41261471361311" lon="12.758924773064594"><ele>606.0</ele><time>2026-04-19T10:30:40.807Z</time></trkpt><trkpt lat="42.412541885416964" lon="12.759116612550402"><ele>606.0</ele><time>2026-04-19T10:30:41.807Z</time></trkpt><trkpt lat="42.412480025526676" lon="12.759315740227775"><ele>606.0</ele><time>2026-04-19T10:30:42.807Z</time></trkpt><trkpt lat="42.412422503593206" lon="12.759508044147939"><ele>606.0</ele><time>2026-04-19T10:30:43.807Z</time></trkpt><trkpt lat="42.41236634060512" lon="12.759700362280679"><ele>605.0</ele><time>2026-04-19T10:30:44.807Z</time></trkpt><trkpt lat="42.41232368883312" lon="12.759900863601592"><ele>604.0</ele><time>2026-04-19T10:30:45.807Z</time></trkpt><trkpt lat="42.41228745408235" lon="12.760100595596484"><ele>603.0</ele><time>2026-04-19T10:30:46.807Z</time></trkpt><trkpt lat="42.41227339044282" lon="12.76029837063297"><ele>603.0</ele><time>2026-04-19T10:30:47.806Z</time></trkpt><trkpt lat="42.41227587107939" lon="12.760478005728762"><ele>603.0</ele><time>2026-04-19T10:30:48.806Z</time></trkpt><trkpt lat="42.412294644158514" lon="12.760637096432065"><ele>603.0</ele><time>2026-04-19T10:30:49.806Z</time></trkpt><trkpt lat="42.41233873330613" lon="12.760777196371853"><ele>603.0</ele><time>2026-04-19T10:30:50.806Z</time></trkpt><trkpt lat="42.412406246789665" lon="12.760897279810221"><ele>603.0</ele><time>2026-04-19T10:30:51.806Z</time></trkpt><trkpt lat="42.41249066619988" lon="12.760995792956653"><ele>603.0</ele><time>2026-04-19T10:30:52.806Z</time></trkpt><trkpt lat="42.41258032286284" lon="12.761052885722718"><ele>603.0</ele><time>2026-04-19T10:30:53.806Z</time></trkpt><trkpt lat="42.41268772579087" lon="12.761094265216833"><ele>603.0</ele><time>2026-04-19T10:30:54.806Z</time></trkpt><trkpt lat="42.41280972680931" lon="12.76112443413721"><ele>603.0</ele><time>2026-04-19T10:30:55.806Z</time></trkpt><trkpt lat="42.4129275793907" lon="12.761176331989835"><ele>602.0</ele><time>2026-04-19T10:30:56.806Z</time></trkpt><trkpt lat="42.41304668934593" lon="12.761245153124536"><ele>601.0</ele><time>2026-04-19T10:30:57.806Z</time></trkpt><trkpt lat="42.41316211945932" lon="12.7613477812196"><ele>600.0</ele><time>2026-04-19T10:30:58.806Z</time></trkpt><trkpt lat="42.413276886252426" lon="12.761449684242345"><ele>599.0</ele><time>2026-04-19T10:30:59.806Z</time></trkpt><trkpt lat="42.413385824540356" lon="12.761545448437781"><ele>599.0</ele><time>2026-04-19T10:31:00.806Z</time></trkpt><trkpt lat="42.41348852169125" lon="12.76164223754589"><ele>599.0</ele><time>2026-04-19T10:31:01.806Z</time></trkpt><trkpt lat="42.41359168260986" lon="12.761753426683834"><ele>599.0</ele><time>2026-04-19T10:31:02.806Z</time></trkpt><trkpt lat="42.41368980814158" lon="12.761894451734994"><ele>599.0</ele><time>2026-04-19T10:31:03.807Z</time></trkpt><trkpt lat="42.41378485466516" lon="12.762061324146838"><ele>600.3333333333333</ele><time>2026-04-19T10:31:04.806Z</time></trkpt><trkpt lat="42.41386999681292" lon="12.762244822617411"><ele>601.6666666666666</ele><time>2026-04-19T10:31:05.806Z</time></trkpt><trkpt lat="42.41396272862006" lon="12.762424961450808"><ele>603.0</ele><time>2026-04-19T10:31:06.806Z</time></trkpt><trkpt lat="42.414046459096554" lon="12.76262240176137"><ele>596.3333333333334</ele><time>2026-04-19T10:31:07.806Z</time></trkpt><trkpt lat="42.414125562963875" lon="12.762806669193667"><ele>589.6666666666667</ele><time>2026-04-19T10:31:08.806Z</time></trkpt><trkpt lat="42.41419727465908" lon="12.762994204219781"><ele>583.0</ele><time>2026-04-19T10:31:09.806Z</time></trkpt><trkpt lat="42.41426447670184" lon="12.763183192792727"><ele>583.0</ele><time>2026-04-19T10:31:10.806Z</time></trkpt><trkpt lat="42.41433915055047" lon="12.763365811502064"><ele>583.0</ele><time>2026-04-19T10:31:11.806Z</time></trkpt><trkpt lat="42.41441835254406" lon="12.7635357855252"><ele>583.0</ele><time>2026-04-19T10:31:12.806Z</time></trkpt><trkpt lat="42.414509446372726" lon="12.763695115315004"><ele>583.0</ele><time>2026-04-19T10:31:13.806Z</time></trkpt><trkpt lat="42.41461161849206" lon="12.763837126080574"><ele>583.0</ele><time>2026-04-19T10:31:14.806Z</time></trkpt><trkpt lat="42.4147275230783" lon="12.763940300298207"><ele>583.0</ele><time>2026-04-19T10:31:15.805Z</time></trkpt><trkpt lat="42.4148547857455" lon="12.764018230762995"><ele>583.0</ele><time>2026-04-19T10:31:16.805Z</time></trkpt><trkpt lat="42.41499274911661" lon="12.764064138949978"><ele>583.0</ele><time>2026-04-19T10:31:17.805Z</time></trkpt><trkpt lat="42.415152911269296" lon="12.764090017471126"><ele>583.0</ele><time>2026-04-19T10:31:18.805Z</time></trkpt><trkpt lat="42.415306534126735" lon="12.764126874969483"><ele>583.0</ele><time>2026-04-19T10:31:19.805Z</time></trkpt><trkpt lat="42.41545674022477" lon="12.764176435313928"><ele>582.5</ele><time>2026-04-19T10:31:20.805Z</time></trkpt><trkpt lat="42.41560887158068" lon="12.76421563791028"><ele>582.0</ele><time>2026-04-19T10:31:21.805Z</time></trkpt><trkpt lat="42.41575440903836" lon="12.764258719646074"><ele>581.5</ele><time>2026-04-19T10:31:22.805Z</time></trkpt><trkpt lat="42.415876349819534" lon="12.764294585489372"><ele>581.0</ele><time>2026-04-19T10:31:23.805Z</time></trkpt><trkpt lat="42.41598260996296" lon="12.764309712915342"><ele>581.0</ele><time>2026-04-19T10:31:24.805Z</time></trkpt><trkpt lat="42.416078986273654" lon="12.764299953864672"><ele>581.0</ele><time>2026-04-19T10:31:25.805Z</time></trkpt><trkpt lat="42.41617843834323" lon="12.76424840924636"><ele>581.0</ele><time>2026-04-19T10:31:26.805Z</time></trkpt><trkpt lat="42.41626050611424" lon="12.76416971240853"><ele>581.0</ele><time>2026-04-19T10:31:27.805Z</time></trkpt><trkpt lat="42.4163297720834" lon="12.764061274496513"><ele>581.0</ele><time>2026-04-19T10:31:28.805Z</time></trkpt><trkpt lat="42.41640248384065" lon="12.763933565205726"><ele>576.0</ele><time>2026-04-19T10:31:29.805Z</time></trkpt><trkpt lat="42.41646842110059" lon="12.763791178806404"><ele>571.0</ele><time>2026-04-19T10:31:30.805Z</time></trkpt><trkpt lat="42.416502682161195" lon="12.763645565150316"><ele>566.0</ele><time>2026-04-19T10:31:31.805Z</time></trkpt><trkpt lat="42.4165038282691" lon="12.763503927549548"><ele>561.0</ele><time>2026-04-19T10:31:32.805Z</time></trkpt><trkpt lat="42.41647391440951" lon="12.763378606134884"><ele>556.0</ele><time>2026-04-19T10:31:33.805Z</time></trkpt><trkpt lat="42.4164142241175" lon="12.763263213217137"><ele>555.0</ele><time>2026-04-19T10:31:34.805Z</time></trkpt><trkpt lat="42.41632990217337" lon="12.763150503471698"><ele>554.0</ele><time>2026-04-19T10:31:35.805Z</time></trkpt><trkpt lat="42.41622353133918" lon="12.763026152726104"><ele>553.0</ele><time>2026-04-19T10:31:36.805Z</time></trkpt><trkpt lat="42.416103953964424" lon="12.762880988348956"><ele>552.0</ele><time>2026-04-19T10:31:37.805Z</time></trkpt><trkpt lat="42.415985953997236" lon="12.762731134756686"><ele>556.0</ele><time>2026-04-19T10:31:38.804Z</time></trkpt><trkpt lat="42.41586982524848" lon="12.76260174837573"><ele>560.0</ele><time>2026-04-19T10:31:39.804Z</time></trkpt><trkpt lat="42.4157605069767" lon="12.762468695263346"><ele>564.0</ele><time>2026-04-19T10:31:40.804Z</time></trkpt><trkpt lat="42.41565935236367" lon="12.762344729917633"><ele>568.0</ele><time>2026-04-19T10:31:41.804Z</time></trkpt><trkpt lat="42.41557867711073" lon="12.76222945367169"><ele>568.0</ele><time>2026-04-19T10:31:42.804Z</time></trkpt><trkpt lat="42.4155290394239" lon="12.762117162276756"><ele>568.0</ele><time>2026-04-19T10:31:43.804Z</time></trkpt><trkpt lat="42.41551497991284" lon="12.762015457301167"><ele>568.0</ele><time>2026-04-19T10:31:44.804Z</time></trkpt><trkpt lat="42.415536164053314" lon="12.761913152570227"><ele>568.0</ele><time>2026-04-19T10:31:45.804Z</time></trkpt><trkpt lat="42.41559459118036" lon="12.761839061363613"><ele>568.0</ele><time>2026-04-19T10:31:46.804Z</time></trkpt><trkpt lat="42.41568824425502" lon="12.761785051104546"><ele>568.0</ele><time>2026-04-19T10:31:47.804Z</time></trkpt><trkpt lat="42.415787632999844" lon="12.761730133835972"><ele>568.25</ele><time>2026-04-19T10:31:48.804Z</time></trkpt><trkpt lat="42.415898644342164" lon="12.761655091498675"><ele>568.5</ele><time>2026-04-19T10:31:49.804Z</time></trkpt><trkpt lat="42.41601788288024" lon="12.761577465036613"><ele>568.75</ele><time>2026-04-19T10:31:50.804Z</time></trkpt><trkpt lat="42.41613457958216" lon="12.761489113690176"><ele>569.0</ele><time>2026-04-19T10:31:51.804Z</time></trkpt><trkpt lat="42.41625361505631" lon="12.761400932915048"><ele>560.25</ele><time>2026-04-19T10:31:52.804Z</time></trkpt><trkpt lat="42.41637646673143" lon="12.761316868410265"><ele>551.5</ele><time>2026-04-19T10:31:53.804Z</time></trkpt><trkpt lat="42.41650227921574" lon="12.761233833518796"><ele>542.75</ele><time>2026-04-19T10:31:54.804Z</time></trkpt><trkpt lat="42.41662011919436" lon="12.76114027255556"><ele>534.0</ele><time>2026-04-19T10:31:55.804Z</time></trkpt><trkpt lat="42.41675015804214" lon="12.761052379904722"><ele>537.25</ele><time>2026-04-19T10:31:56.804Z</time></trkpt><trkpt lat="42.41687384476798" lon="12.760968603039883"><ele>540.5</ele><time>2026-04-19T10:31:57.804Z</time></trkpt><trkpt lat="42.41699203376924" lon="12.760882474100018"><ele>543.75</ele><time>2026-04-19T10:31:58.804Z</time></trkpt><trkpt lat="42.41710862507544" lon="12.760801954264126"><ele>547.0</ele><time>2026-04-19T10:31:59.804Z</time></trkpt><trkpt lat="42.41721410599839" lon="12.760762194316058"><ele>547.0</ele><time>2026-04-19T10:32:00.804Z</time></trkpt><trkpt lat="42.417315011080916" lon="12.760761086697897"><ele>547.0</ele><time>2026-04-19T10:32:01.804Z</time></trkpt><trkpt lat="42.41740438111203" lon="12.760798312497489"><ele>547.0</ele><time>2026-04-19T10:32:02.803Z</time></trkpt><trkpt lat="42.41749948675719" lon="12.760840082856141"><ele>547.0</ele><time>2026-04-19T10:32:03.803Z</time></trkpt><trkpt lat="42.41761073893445" lon="12.760880751862832"><ele>547.0</ele><time>2026-04-19T10:32:04.803Z</time></trkpt><trkpt lat="42.417701808951485" lon="12.76088848866719"><ele>547.0</ele><time>2026-04-19T10:32:05.803Z</time></trkpt><trkpt lat="42.41778207884803" lon="12.76086107624111"><ele>547.0</ele><time>2026-04-19T10:32:06.803Z</time></trkpt><trkpt lat="42.41785512699982" lon="12.760773116450242"><ele>547.0</ele><time>2026-04-19T10:32:07.803Z</time></trkpt><trkpt lat="42.417911231392225" lon="12.760647610833177"><ele>547.0</ele><time>2026-04-19T10:32:08.803Z</time></trkpt><trkpt lat="42.417937262452625" lon="12.760516354485326"><ele>547.0</ele><time>2026-04-19T10:32:09.803Z</time></trkpt><trkpt lat="42.41793718903184" lon="12.760368652375577"><ele>547.0</ele><time>2026-04-19T10:32:10.803Z</time></trkpt><trkpt lat="42.4179191933113" lon="12.760215312141998"><ele>547.0</ele><time>2026-04-19T10:32:11.803Z</time></trkpt><trkpt lat="42.417888552141875" lon="12.760051120191891"><ele>547.0</ele><time>2026-04-19T10:32:12.803Z</time></trkpt><trkpt lat="42.41786564699143" lon="12.759862071405076"><ele>547.0</ele><time>2026-04-19T10:32:13.803Z</time></trkpt><trkpt lat="42.41784367801216" lon="12.759664876236686"><ele>552.25</ele><time>2026-04-19T10:32:14.803Z</time></trkpt><trkpt lat="42.41781347226481" lon="12.75947059671549"><ele>557.5</ele><time>2026-04-19T10:32:15.803Z</time></trkpt><trkpt lat="42.41779440764865" lon="12.759282829081672"><ele>562.75</ele><time>2026-04-19T10:32:16.803Z</time></trkpt><trkpt lat="42.41777443475483" lon="12.759099036710678"><ele>568.0</ele><time>2026-04-19T10:32:17.803Z</time></trkpt><trkpt lat="42.417768194088055" lon="12.758927861770294"><ele>568.0</ele><time>2026-04-19T10:32:18.803Z</time></trkpt><trkpt lat="42.417768582798246" lon="12.758755396356243"><ele>568.0</ele><time>2026-04-19T10:32:19.803Z</time></trkpt><trkpt lat="42.417789910802234" lon="12.758619194758971"><ele>568.0</ele><time>2026-04-19T10:32:20.803Z</time></trkpt><trkpt lat="42.4178139250853" lon="12.758501365421575"><ele>568.0</ele><time>2026-04-19T10:32:21.803Z</time></trkpt><trkpt lat="42.41785254611263" lon="12.758412497430024"><ele>568.0</ele><time>2026-04-19T10:32:22.803Z</time></trkpt><trkpt lat="42.41791359728411" lon="12.758341792458872"><ele>562.8</ele><time>2026-04-19T10:32:23.803Z</time></trkpt><trkpt lat="42.41799472219712" lon="12.758311942387785"><ele>557.5999999999999</ele><time>2026-04-19T10:32:24.803Z</time></trkpt><trkpt lat="42.41806788735601" lon="12.758327662890709"><ele>552.4000000000001</ele><time>2026-04-19T10:32:25.802Z</time></trkpt><trkpt lat="42.41815047506252" lon="12.758387706577047"><ele>547.2</ele><time>2026-04-19T10:32:26.802Z</time></trkpt><trkpt lat="42.4182369791808" lon="12.758467293513256"><ele>542.0</ele><time>2026-04-19T10:32:27.802Z</time></trkpt><trkpt lat="42.418333571208485" lon="12.75855041231694"><ele>538.5</ele><time>2026-04-19T10:32:28.802Z</time></trkpt><trkpt lat="42.41843614697022" lon="12.75863969134082"><ele>535.0</ele><time>2026-04-19T10:32:29.802Z</time></trkpt><trkpt lat="42.418542000507664" lon="12.758735896717305"><ele>531.5</ele><time>2026-04-19T10:32:30.802Z</time></trkpt><trkpt lat="42.41864097294693" lon="12.758837648334254"><ele>528.0</ele><time>2026-04-19T10:32:31.802Z</time></trkpt><trkpt lat="42.418739840545044" lon="12.758937026326283"><ele>526.4</ele><time>2026-04-19T10:32:32.802Z</time></trkpt><trkpt lat="42.418840518789736" lon="12.759030484761201"><ele>524.8</ele><time>2026-04-19T10:32:33.802Z</time></trkpt><trkpt lat="42.418935368413216" lon="12.759108796075402"><ele>523.2</ele><time>2026-04-19T10:32:34.802Z</time></trkpt><trkpt lat="42.419017161279875" lon="12.759145532156433"><ele>521.6</ele><time>2026-04-19T10:32:35.802Z</time></trkpt><trkpt lat="42.419094743787454" lon="12.759133121706862"><ele>520.0</ele><time>2026-04-19T10:32:36.802Z</time></trkpt><trkpt lat="42.41916623906967" lon="12.759073390464955"><ele>520.0</ele><time>2026-04-19T10:32:37.802Z</time></trkpt><trkpt lat="42.41923367925329" lon="12.758975263306287"><ele>520.0</ele><time>2026-04-19T10:32:38.802Z</time></trkpt><trkpt lat="42.41929944160638" lon="12.758855040630252"><ele>520.0</ele><time>2026-04-19T10:32:39.802Z</time></trkpt><trkpt lat="42.41936112740951" lon="12.758721192698667"><ele>520.0</ele><time>2026-04-19T10:32:40.802Z</time></trkpt><trkpt lat="42.41941427588722" lon="12.758564749650409"><ele>526.3333333333334</ele><time>2026-04-19T10:32:41.802Z</time></trkpt><trkpt lat="42.419444294554815" lon="12.758378280833913"><ele>532.6666666666666</ele><time>2026-04-19T10:32:42.802Z</time></trkpt><trkpt lat="42.41946369945125" lon="12.758169439576271"><ele>539.0</ele><time>2026-04-19T10:32:43.802Z</time></trkpt><trkpt lat="42.41946893593959" lon="12.757950805559348"><ele>539.0</ele><time>2026-04-19T10:32:44.802Z</time></trkpt><trkpt lat="42.41947063978419" lon="12.757733334631583"><ele>539.0</ele><time>2026-04-19T10:32:45.802Z</time></trkpt><trkpt lat="42.419470433774215" lon="12.75751362772217"><ele>539.0</ele><time>2026-04-19T10:32:46.802Z</time></trkpt><trkpt lat="42.419461438776324" lon="12.757296555326539"><ele>538.6666666666666</ele><time>2026-04-19T10:32:47.802Z</time></trkpt><trkpt lat="42.419458291575495" lon="12.75709039798347"><ele>538.3333333333334</ele><time>2026-04-19T10:32:48.802Z</time></trkpt><trkpt lat="42.41943993321415" lon="12.756890253648388"><ele>538.0</ele><time>2026-04-19T10:32:49.801Z</time></trkpt><trkpt lat="42.41940984864687" lon="12.756692058643983"><ele>538.0</ele><time>2026-04-19T10:32:50.801Z</time></trkpt><trkpt lat="42.4193715445151" lon="12.75651624395175"><ele>538.0</ele><time>2026-04-19T10:32:51.801Z</time></trkpt><trkpt lat="42.419334845386494" lon="12.756367785283295"><ele>538.0</ele><time>2026-04-19T10:32:52.801Z</time></trkpt><trkpt lat="42.41930812107582" lon="12.756241628890022"><ele>538.0</ele><time>2026-04-19T10:32:53.801Z</time></trkpt><trkpt lat="42.41928957676772" lon="12.75614107679148"><ele>538.0</ele><time>2026-04-19T10:32:54.801Z</time></trkpt><trkpt lat="42.41931617072767" lon="12.755993170193019"><ele>538.0</ele><time>2026-04-19T10:32:56.801Z</time></trkpt><trkpt lat="42.41936899644791" lon="12.755945395847004"><ele>538.0</ele><time>2026-04-19T10:32:57.801Z</time></trkpt><trkpt lat="42.4194316736085" lon="12.755957091133313"><ele>538.0</ele><time>2026-04-19T10:32:58.801Z</time></trkpt><trkpt lat="42.41947956680484" lon="12.75601262646357"><ele>538.0</ele><time>2026-04-19T10:32:59.801Z</time></trkpt><trkpt lat="42.41950662776573" lon="12.756180639567761"><ele>538.0</ele><time>2026-04-19T10:33:01.801Z</time></trkpt><trkpt lat="42.41951068674927" lon="12.75626777254051"><ele>538.0</ele><time>2026-04-19T10:33:02.801Z</time></trkpt><trkpt lat="42.419519519118595" lon="12.756371384231018"><ele>538.0</ele><time>2026-04-19T10:33:03.801Z</time></trkpt><trkpt lat="42.419539133076874" lon="12.756498404340059"><ele>538.0</ele><time>2026-04-19T10:33:04.801Z</time></trkpt><trkpt lat="42.41955773308681" lon="12.75663687030906"><ele>538.0</ele><time>2026-04-19T10:33:05.802Z</time></trkpt><trkpt lat="42.41957824392083" lon="12.756789182376613"><ele>538.0</ele><time>2026-04-19T10:33:06.802Z</time></trkpt><trkpt lat="42.419592163725525" lon="12.756943964178166"><ele>538.0</ele><time>2026-04-19T10:33:07.802Z</time></trkpt><trkpt lat="42.41960722793597" lon="12.757103016552358"><ele>540.0</ele><time>2026-04-19T10:33:08.801Z</time></trkpt><trkpt lat="42.419624736299674" lon="12.7572563583707"><ele>542.0</ele><time>2026-04-19T10:33:09.801Z</time></trkpt><trkpt lat="42.41963507677938" lon="12.757414575301826"><ele>544.0</ele><time>2026-04-19T10:33:10.801Z</time></trkpt><trkpt lat="42.419645191162296" lon="12.757585258558366"><ele>546.0</ele><time>2026-04-19T10:33:11.802Z</time></trkpt><trkpt lat="42.419666764806664" lon="12.757761977615544"><ele>530.75</ele><time>2026-04-19T10:33:12.801Z</time></trkpt><trkpt lat="42.41967935872375" lon="12.757938504536426"><ele>515.5</ele><time>2026-04-19T10:33:13.801Z</time></trkpt><trkpt lat="42.41968201534087" lon="12.758112751895718"><ele>500.25</ele><time>2026-04-19T10:33:14.801Z</time></trkpt><trkpt lat="42.4196906164417" lon="12.758281530593205"><ele>485.0</ele><time>2026-04-19T10:33:15.801Z</time></trkpt><trkpt lat="42.41970854371609" lon="12.758454335212562"><ele>484.25</ele><time>2026-04-19T10:33:16.801Z</time></trkpt><trkpt lat="42.41971728698283" lon="12.758620837406822"><ele>483.5</ele><time>2026-04-19T10:33:17.801Z</time></trkpt><trkpt lat="42.41971025705601" lon="12.758785075453012"><ele>482.75</ele><time>2026-04-19T10:33:18.801Z</time></trkpt><trkpt lat="42.41968977874052" lon="12.758937757641656"><ele>482.0</ele><time>2026-04-19T10:33:19.801Z</time></trkpt><trkpt lat="42.4196427947913" lon="12.759076772926555"><ele>485.0</ele><time>2026-04-19T10:33:20.801Z</time></trkpt><trkpt lat="42.419571288146685" lon="12.759224808901372"><ele>488.0</ele><time>2026-04-19T10:33:21.801Z</time></trkpt><trkpt lat="42.41952081845602" lon="12.759382432111543"><ele>491.0</ele><time>2026-04-19T10:33:22.801Z</time></trkpt><trkpt lat="42.41949258734519" lon="12.759553225225599"><ele>494.0</ele><time>2026-04-19T10:33:23.801Z</time></trkpt><trkpt lat="42.41950239120319" lon="12.75970761288009"><ele>494.0</ele><time>2026-04-19T10:33:24.801Z</time></trkpt><trkpt lat="42.41952299932307" lon="12.759874300325954"><ele>494.0</ele><time>2026-04-19T10:33:25.801Z</time></trkpt><trkpt lat="42.41952536916871" lon="12.76001574574751"><ele>494.0</ele><time>2026-04-19T10:33:26.801Z</time></trkpt><trkpt lat="42.419512730069975" lon="12.760145903325597"><ele>494.0</ele><time>2026-04-19T10:33:27.801Z</time></trkpt><trkpt lat="42.419466986462645" lon="12.760264186249774"><ele>494.0</ele><time>2026-04-19T10:33:28.801Z</time></trkpt><trkpt lat="42.41940938006734" lon="12.760347405361204"><ele>493.99999999999994</ele><time>2026-04-19T10:33:29.8Z</time></trkpt><trkpt lat="42.419340016258076" lon="12.760367512160013"><ele>494.0</ele><time>2026-04-19T10:33:30.8Z</time></trkpt><trkpt lat="42.41926052229442" lon="12.760334043402684"><ele>494.0</ele><time>2026-04-19T10:33:31.8Z</time></trkpt><trkpt lat="42.419184122849536" lon="12.760259764883193"><ele>494.0</ele><time>2026-04-19T10:33:32.8Z</time></trkpt><trkpt lat="42.41911373339253" lon="12.760183189485645"><ele>493.99999999999994</ele><time>2026-04-19T10:33:33.8Z</time></trkpt><trkpt lat="42.419038802197576" lon="12.760125079644505"><ele>494.0</ele><time>2026-04-19T10:33:34.8Z</time></trkpt><trkpt lat="42.41895444811324" lon="12.760091538738775"><ele>494.0</ele><time>2026-04-19T10:33:35.8Z</time></trkpt><trkpt lat="42.41886733405891" lon="12.760095958310748"><ele>494.0</ele><time>2026-04-19T10:33:36.8Z</time></trkpt><trkpt lat="42.418787708890264" lon="12.760136520255124"><ele>494.0</ele><time>2026-04-19T10:33:37.8Z</time></trkpt><trkpt lat="42.41872548133745" lon="12.760213370784678"><ele>494.0</ele><time>2026-04-19T10:33:38.8Z</time></trkpt><trkpt lat="42.4186810498103" lon="12.760328694919128"><ele>494.0</ele><time>2026-04-19T10:33:39.8Z</time></trkpt><trkpt lat="42.4186571049377" lon="12.76046856366126"><ele>492.25</ele><time>2026-04-19T10:33:40.8Z</time></trkpt><trkpt lat="42.41864444728557" lon="12.760615708457134"><ele>490.5</ele><time>2026-04-19T10:33:41.8Z</time></trkpt><trkpt lat="42.418626874995965" lon="12.760770808607374"><ele>488.75</ele><time>2026-04-19T10:33:42.8Z</time></trkpt><trkpt lat="42.41860570971703" lon="12.760952642850128"><ele>487.0</ele><time>2026-04-19T10:33:43.8Z</time></trkpt><trkpt lat="42.41859494622136" lon="12.761110859903878"><ele>487.0</ele><time>2026-04-19T10:33:44.8Z</time></trkpt><trkpt lat="42.41858983710253" lon="12.761263655376448"><ele>487.0</ele><time>2026-04-19T10:33:45.8Z</time></trkpt><trkpt lat="42.41857381673193" lon="12.761416457338237"><ele>487.0</ele><time>2026-04-19T10:33:46.8Z</time></trkpt><trkpt lat="42.4185452417246" lon="12.761561678201087"><ele>487.0</ele><time>2026-04-19T10:33:47.8Z</time></trkpt><trkpt lat="42.41849440968106" lon="12.761698125439198"><ele>487.0</ele><time>2026-04-19T10:33:48.8Z</time></trkpt><trkpt lat="42.41842813114815" lon="12.761830172775175"><ele>487.0</ele><time>2026-04-19T10:33:49.8Z</time></trkpt><trkpt lat="42.41833398450873" lon="12.761957339663482"><ele>487.0</ele><time>2026-04-19T10:33:50.8Z</time></trkpt><trkpt lat="42.418243034440806" lon="12.762092752489965"><ele>487.0</ele><time>2026-04-19T10:33:51.8Z</time></trkpt><trkpt lat="42.418149372781805" lon="12.762222715200126"><ele>488.20000000000005</ele><time>2026-04-19T10:33:52.8Z</time></trkpt><trkpt lat="42.418069119918826" lon="12.76234464687692"><ele>489.40000000000003</ele><time>2026-04-19T10:33:53.799Z</time></trkpt><trkpt lat="42.41800802475379" lon="12.76245916828843"><ele>490.59999999999997</ele><time>2026-04-19T10:33:54.799Z</time></trkpt><trkpt lat="42.41798357519887" lon="12.76258279026404"><ele>491.79999999999995</ele><time>2026-04-19T10:33:55.799Z</time></trkpt><trkpt lat="42.4179923746469" lon="12.76270324801215"><ele>493.0</ele><time>2026-04-19T10:33:56.799Z</time></trkpt><trkpt lat="42.41803076778015" lon="12.762817644752527"><ele>488.0</ele><time>2026-04-19T10:33:57.799Z</time></trkpt><trkpt lat="42.41809325785792" lon="12.762925108558758"><ele>482.99999999999994</ele><time>2026-04-19T10:33:58.799Z</time></trkpt><trkpt lat="42.418172250286204" lon="12.76302509094225"><ele>477.99999999999994</ele><time>2026-04-19T10:33:59.799Z</time></trkpt><trkpt lat="42.418249845860714" lon="12.76311951081092"><ele>473.0</ele><time>2026-04-19T10:34:00.799Z</time></trkpt><trkpt lat="42.41831740398429" lon="12.763227481222582"><ele>468.0</ele><time>2026-04-19T10:34:01.799Z</time></trkpt><trkpt lat="42.41837514615465" lon="12.763343292380592"><ele>468.0</ele><time>2026-04-19T10:34:02.799Z</time></trkpt><trkpt lat="42.41840754084337" lon="12.763472780981814"><ele>467.99999999999994</ele><time>2026-04-19T10:34:03.799Z</time></trkpt><trkpt lat="42.41840039007734" lon="12.76361953370147"><ele>467.99999999999994</ele><time>2026-04-19T10:34:04.799Z</time></trkpt><trkpt lat="42.41834717427479" lon="12.763764342589708"><ele>468.0</ele><time>2026-04-19T10:34:05.799Z</time></trkpt><trkpt lat="42.41829129538468" lon="12.763886515819689"><ele>468.0</ele><time>2026-04-19T10:34:06.799Z</time></trkpt><trkpt lat="42.418210046933176" lon="12.763998055419178"><ele>465.0</ele><time>2026-04-19T10:34:07.799Z</time></trkpt><trkpt lat="42.41813052372974" lon="12.76412326936563"><ele>462.0</ele><time>2026-04-19T10:34:08.799Z</time></trkpt><trkpt lat="42.41807023469441" lon="12.764260725898186"><ele>459.0</ele><time>2026-04-19T10:34:09.799Z</time></trkpt><trkpt lat="42.41802118795509" lon="12.764422362760516"><ele>456.0</ele><time>2026-04-19T10:34:10.799Z</time></trkpt><trkpt lat="42.41799081477331" lon="12.764603369387576"><ele>459.25</ele><time>2026-04-19T10:34:11.799Z</time></trkpt><trkpt lat="42.41795776046196" lon="12.764781520806071"><ele>462.5</ele><time>2026-04-19T10:34:12.799Z</time></trkpt><trkpt lat="42.41792608991338" lon="12.76495809488627"><ele>465.75</ele><time>2026-04-19T10:34:13.799Z</time></trkpt><trkpt lat="42.417907537517365" lon="12.765134850474976"><ele>469.0</ele><time>2026-04-19T10:34:14.799Z</time></trkpt><trkpt lat="42.41788255384617" lon="12.765311299327326"><ele>469.0</ele><time>2026-04-19T10:34:15.799Z</time></trkpt><trkpt lat="42.41783959270322" lon="12.765478363751422"><ele>469.0</ele><time>2026-04-19T10:34:16.798Z</time></trkpt><trkpt lat="42.417783039364714" lon="12.765645357035675"><ele>469.0</ele><time>2026-04-19T10:34:17.798Z</time></trkpt><trkpt lat="42.41771145589608" lon="12.76580092554305"><ele>469.0</ele><time>2026-04-19T10:34:18.798Z</time></trkpt><trkpt lat="42.41762885034487" lon="12.765941087429557"><ele>461.5</ele><time>2026-04-19T10:34:19.798Z</time></trkpt><trkpt lat="42.41754339416852" lon="12.766073906059626"><ele>454.0</ele><time>2026-04-19T10:34:20.798Z</time></trkpt><trkpt lat="42.41746018348866" lon="12.766212409595862"><ele>446.5</ele><time>2026-04-19T10:34:21.798Z</time></trkpt><trkpt lat="42.41737705091302" lon="12.76634897938118"><ele>439.0</ele><time>2026-04-19T10:34:22.798Z</time></trkpt><trkpt lat="42.41729263381313" lon="12.766484535133886"><ele>439.0</ele><time>2026-04-19T10:34:23.798Z</time></trkpt><trkpt lat="42.41720908732146" lon="12.766618402395311"><ele>439.0</ele><time>2026-04-19T10:34:24.798Z</time></trkpt><trkpt lat="42.41712249042333" lon="12.766756221869612"><ele>439.0</ele><time>2026-04-19T10:34:25.798Z</time></trkpt><trkpt lat="42.417030494370174" lon="12.766897490855117"><ele>439.0</ele><time>2026-04-19T10:34:26.798Z</time></trkpt><trkpt lat="42.41694369014449" lon="12.767039115793134"><ele>442.5</ele><time>2026-04-19T10:34:27.798Z</time></trkpt><trkpt lat="42.41685152364763" lon="12.767171740579377"><ele>446.0</ele><time>2026-04-19T10:34:28.798Z</time></trkpt><trkpt lat="42.41675383014061" lon="12.76730416502576"><ele>449.5</ele><time>2026-04-19T10:34:29.798Z</time></trkpt><trkpt lat="42.416643828161995" lon="12.767422309089262"><ele>453.0</ele><time>2026-04-19T10:34:30.798Z</time></trkpt><trkpt lat="42.41653232892887" lon="12.767528637786821"><ele>453.0</ele><time>2026-04-19T10:34:31.798Z</time></trkpt><trkpt lat="42.416418837460796" lon="12.767633008881615"><ele>453.0</ele><time>2026-04-19T10:34:32.798Z</time></trkpt><trkpt lat="42.416303079963775" lon="12.76773523347862"><ele>453.0</ele><time>2026-04-19T10:34:33.798Z</time></trkpt><trkpt lat="42.41618708774059" lon="12.76783445838923"><ele>453.0</ele><time>2026-04-19T10:34:34.798Z</time></trkpt><trkpt lat="42.416074990027084" lon="12.767940948341417"><ele>448.75</ele><time>2026-04-19T10:34:35.798Z</time></trkpt><trkpt lat="42.41595763928728" lon="12.768031363261295"><ele>444.5</ele><time>2026-04-19T10:34:36.798Z</time></trkpt><trkpt lat="42.41583394572843" lon="12.768120544019657"><ele>440.25</ele><time>2026-04-19T10:34:37.798Z</time></trkpt><trkpt lat="42.41570804785221" lon="12.768190604283118"><ele>436.0</ele><time>2026-04-19T10:34:38.798Z</time></trkpt><trkpt lat="42.41557851805206" lon="12.76825506374285"><ele>437.0</ele><time>2026-04-19T10:34:39.798Z</time></trkpt><trkpt lat="42.41544964385873" lon="12.76830683283715"><ele>438.0</ele><time>2026-04-19T10:34:40.797Z</time></trkpt><trkpt lat="42.41532274347754" lon="12.768366979051793"><ele>439.0</ele><time>2026-04-19T10:34:41.797Z</time></trkpt><trkpt lat="42.41519893283152" lon="12.76841751647579"><ele>440.0</ele><time>2026-04-19T10:34:42.797Z</time></trkpt><trkpt lat="42.41507935674768" lon="12.768471007424468"><ele>440.0</ele><time>2026-04-19T10:34:43.797Z</time></trkpt><trkpt lat="42.41495901019725" lon="12.7685233447133"><ele>440.0</ele><time>2026-04-19T10:34:44.797Z</time></trkpt><trkpt lat="42.41483947275477" lon="12.7685679846587"><ele>440.0</ele><time>2026-04-19T10:34:45.797Z</time></trkpt><trkpt lat="42.41472128853548" lon="12.768616975230836"><ele>440.0</ele><time>2026-04-19T10:34:46.797Z</time></trkpt><trkpt lat="42.41460461061725" lon="12.768660025634468"><ele>435.75</ele><time>2026-04-19T10:34:47.797Z</time></trkpt><trkpt lat="42.41449285883218" lon="12.768703569154468"><ele>431.5</ele><time>2026-04-19T10:34:48.797Z</time></trkpt><trkpt lat="42.41438151423864" lon="12.768747213108782"><ele>427.25</ele><time>2026-04-19T10:34:49.797Z</time></trkpt><trkpt lat="42.414269207468095" lon="12.768786546344502"><ele>423.0</ele><time>2026-04-19T10:34:50.797Z</time></trkpt><trkpt lat="42.41416112600663" lon="12.768827244614657"><ele>423.0</ele><time>2026-04-19T10:34:51.797Z</time></trkpt><trkpt lat="42.41405463569861" lon="12.768871213600407"><ele>423.0</ele><time>2026-04-19T10:34:52.797Z</time></trkpt><trkpt lat="42.413949043661454" lon="12.76891285598424"><ele>423.0</ele><time>2026-04-19T10:34:53.797Z</time></trkpt><trkpt lat="42.41384384564134" lon="12.768948107344576"><ele>423.0</ele><time>2026-04-19T10:34:54.797Z</time></trkpt><trkpt lat="42.413739108408194" lon="12.768964778318239"><ele>423.0</ele><time>2026-04-19T10:34:55.797Z</time></trkpt><trkpt lat="42.41363739469807" lon="12.768965347127375"><ele>423.3333333333333</ele><time>2026-04-19T10:34:56.797Z</time></trkpt><trkpt lat="42.413541476618605" lon="12.768959816328774"><ele>423.66666666666663</ele><time>2026-04-19T10:34:57.797Z</time></trkpt><trkpt lat="42.413448166259855" lon="12.76894302881771"><ele>424.0</ele><time>2026-04-19T10:34:58.797Z</time></trkpt><trkpt lat="42.41336732856563" lon="12.768928886350084"><ele>424.3333333333333</ele><time>2026-04-19T10:34:59.797Z</time></trkpt><trkpt lat="42.4132985375809" lon="12.76891241871567"><ele>424.66666666666663</ele><time>2026-04-19T10:35:00.797Z</time></trkpt><trkpt lat="42.41319842272468" lon="12.768887042871373"><ele>425.0</ele><time>2026-04-19T10:35:02.797Z</time></trkpt><trkpt lat="42.41312455784353" lon="12.768873026415372"><ele>425.0</ele><time>2026-04-19T10:35:04.796Z</time></trkpt><trkpt lat="42.41303763714119" lon="12.76887034975203"><ele>425.0</ele><time>2026-04-19T10:35:06.796Z</time></trkpt><trkpt lat="42.41293069651229" lon="12.768878633240869"><ele>425.0</ele><time>2026-04-19T10:35:08.798Z</time></trkpt><trkpt lat="42.412812224750446" lon="12.768903277068173"><ele>425.0</ele><time>2026-04-19T10:35:10.797Z</time></trkpt><trkpt lat="42.412744363877174" lon="12.7689243491263"><ele>425.0</ele><time>2026-04-19T10:35:11.797Z</time></trkpt><trkpt lat="42.4126756749422" lon="12.768950715474963"><ele>424.6</ele><time>2026-04-19T10:35:12.797Z</time></trkpt><trkpt lat="42.41259485329686" lon="12.768973441210658"><ele>424.2</ele><time>2026-04-19T10:35:13.797Z</time></trkpt><trkpt lat="42.41251299460902" lon="12.769003327680185"><ele>423.79999999999995</ele><time>2026-04-19T10:35:14.797Z</time></trkpt><trkpt lat="42.41242674756021" lon="12.769031324471516"><ele>423.4</ele><time>2026-04-19T10:35:15.797Z</time></trkpt><trkpt lat="42.412330541793104" lon="12.769064079304144"><ele>423.0</ele><time>2026-04-19T10:35:16.797Z</time></trkpt><trkpt lat="42.41223553429422" lon="12.769100618343808"><ele>423.2</ele><time>2026-04-19T10:35:17.797Z</time></trkpt><trkpt lat="42.41214097115514" lon="12.769130984212213"><ele>423.4</ele><time>2026-04-19T10:35:18.797Z</time></trkpt><trkpt lat="42.412044234072" lon="12.769163698503041"><ele>423.59999999999997</ele><time>2026-04-19T10:35:19.797Z</time></trkpt><trkpt lat="42.41195065860038" lon="12.769198205387587"><ele>423.79999999999995</ele><time>2026-04-19T10:35:20.796Z</time></trkpt><trkpt lat="42.411854505714665" lon="12.769218769323953"><ele>424.0</ele><time>2026-04-19T10:35:21.797Z</time></trkpt><trkpt lat="42.411755044716394" lon="12.769250600303755"><ele>424.0</ele><time>2026-04-19T10:35:22.797Z</time></trkpt><trkpt lat="42.41165807067091" lon="12.76928597760081"><ele>424.0</ele><time>2026-04-19T10:35:23.797Z</time></trkpt><trkpt lat="42.41155846035865" lon="12.76931843152352"><ele>424.0</ele><time>2026-04-19T10:35:24.797Z</time></trkpt><trkpt lat="42.41146046733661" lon="12.76935087841123"><ele>424.0</ele><time>2026-04-19T10:35:25.796Z</time></trkpt><trkpt lat="42.41136417552561" lon="12.769379350911256"><ele>424.0</ele><time>2026-04-19T10:35:26.796Z</time></trkpt><trkpt lat="42.41126836030933" lon="12.769413053475898"><ele>423.2</ele><time>2026-04-19T10:35:27.796Z</time></trkpt><trkpt lat="42.411171723109184" lon="12.769439952755548"><ele>422.4</ele><time>2026-04-19T10:35:28.796Z</time></trkpt><trkpt lat="42.41107677247693" lon="12.769466406538152"><ele>421.6</ele><time>2026-04-19T10:35:29.796Z</time></trkpt><trkpt lat="42.41098132738208" lon="12.76949533249038"><ele>420.8</ele><time>2026-04-19T10:35:30.796Z</time></trkpt><trkpt lat="42.410891533720935" lon="12.769526109658106"><ele>420.0</ele><time>2026-04-19T10:35:31.796Z</time></trkpt><trkpt lat="42.4107976753292" lon="12.769558638056605"><ele>420.0</ele><time>2026-04-19T10:35:32.796Z</time></trkpt><trkpt lat="42.4107015566242" lon="12.769588885584929"><ele>420.0</ele><time>2026-04-19T10:35:33.796Z</time></trkpt><trkpt lat="42.41060069047362" lon="12.76962871655543"><ele>420.0</ele><time>2026-04-19T10:35:34.796Z</time></trkpt><trkpt lat="42.410500960034895" lon="12.76965976570149"><ele>420.0</ele><time>2026-04-19T10:35:35.796Z</time></trkpt><trkpt lat="42.41040037068676" lon="12.76968897366582"><ele>420.0</ele><time>2026-04-19T10:35:36.796Z</time></trkpt><trkpt lat="42.41030213248403" lon="12.76971462171816"><ele>419.6</ele><time>2026-04-19T10:35:37.796Z</time></trkpt><trkpt lat="42.41020407369975" lon="12.769746841775609"><ele>419.2</ele><time>2026-04-19T10:35:38.796Z</time></trkpt><trkpt lat="42.41010225488846" lon="12.769777046146842"><ele>418.79999999999995</ele><time>2026-04-19T10:35:39.796Z</time></trkpt><trkpt lat="42.4099911734878" lon="12.769814986635188"><ele>418.4</ele><time>2026-04-19T10:35:40.796Z</time></trkpt><trkpt lat="42.40988171042552" lon="12.769859125571646"><ele>418.0</ele><time>2026-04-19T10:35:41.796Z</time></trkpt><trkpt lat="42.40976958803201" lon="12.769900387546276"><ele>418.0</ele><time>2026-04-19T10:35:42.796Z</time></trkpt><trkpt lat="42.40966031998199" lon="12.769934018195352"><ele>418.0</ele><time>2026-04-19T10:35:43.796Z</time></trkpt><trkpt lat="42.4095581134426" lon="12.76996249674991"><ele>418.0</ele><time>2026-04-19T10:35:44.796Z</time></trkpt><trkpt lat="42.40946136941963" lon="12.769989193590744"><ele>418.0</ele><time>2026-04-19T10:35:45.796Z</time></trkpt><trkpt lat="42.40937934124305" lon="12.770015937987854"><ele>418.0</ele><time>2026-04-19T10:35:46.796Z</time></trkpt><trkpt lat="42.40930001386479" lon="12.770038920382003"><ele>417.4</ele><time>2026-04-19T10:35:47.796Z</time></trkpt><trkpt lat="42.40923742564005" lon="12.770053090764403"><ele>416.79999999999995</ele><time>2026-04-19T10:35:48.796Z</time></trkpt><trkpt lat="42.40915835842565" lon="12.770131158096106"><ele>416.2</ele><time>2026-04-19T10:35:50.795Z</time></trkpt><trkpt lat="42.40917801881876" lon="12.770300373886961"><ele>415.6</ele><time>2026-04-19T10:35:52.795Z</time></trkpt><trkpt lat="42.40919334359108" lon="12.770419861091334"><ele>415.0</ele><time>2026-04-19T10:35:53.795Z</time></trkpt><trkpt lat="42.40919486053517" lon="12.770540114651931"><ele>414.8</ele><time>2026-04-19T10:35:54.795Z</time></trkpt><trkpt lat="42.409198419766945" lon="12.770681853086796"><ele>414.6</ele><time>2026-04-19T10:35:55.795Z</time></trkpt><trkpt lat="42.40920550596923" lon="12.770828455727848"><ele>414.4</ele><time>2026-04-19T10:35:56.795Z</time></trkpt><trkpt lat="42.40920139900488" lon="12.770966953941624"><ele>414.2</ele><time>2026-04-19T10:35:57.795Z</time></trkpt><trkpt lat="42.40920122737042" lon="12.771124705441911"><ele>414.0</ele><time>2026-04-19T10:35:58.795Z</time></trkpt><trkpt lat="42.40920243631945" lon="12.771279597087169"><ele>413.25</ele><time>2026-04-19T10:35:59.795Z</time></trkpt><trkpt lat="42.409205332332455" lon="12.771434680544061"><ele>412.5</ele><time>2026-04-19T10:36:00.795Z</time></trkpt><trkpt lat="42.409202456931375" lon="12.77159519929144"><ele>411.75</ele><time>2026-04-19T10:36:01.795Z</time></trkpt><trkpt lat="42.40920282163427" lon="12.771753741095138"><ele>411.0</ele><time>2026-04-19T10:36:02.795Z</time></trkpt><trkpt lat="42.40920289780719" lon="12.771911389817147"><ele>410.6</ele><time>2026-04-19T10:36:03.795Z</time></trkpt><trkpt lat="42.40919806232397" lon="12.772067661452521"><ele>410.20000000000005</ele><time>2026-04-19T10:36:04.795Z</time></trkpt><trkpt lat="42.40918989463321" lon="12.772225453816416"><ele>409.79999999999995</ele><time>2026-04-19T10:36:05.795Z</time></trkpt><trkpt lat="42.409181242572124" lon="12.772362421460539"><ele>409.4</ele><time>2026-04-19T10:36:06.795Z</time></trkpt><trkpt lat="42.40917267743042" lon="12.772486656027548"><ele>409.0</ele><time>2026-04-19T10:36:07.795Z</time></trkpt><trkpt lat="42.409165372758416" lon="12.772609181311712"><ele>408.79999999999995</ele><time>2026-04-19T10:36:08.795Z</time></trkpt><trkpt lat="42.40915625289861" lon="12.772738996093834"><ele>408.59999999999997</ele><time>2026-04-19T10:36:09.795Z</time></trkpt><trkpt lat="42.4091489871513" lon="12.77287431481757"><ele>408.4</ele><time>2026-04-19T10:36:10.795Z</time></trkpt><trkpt lat="42.40914097044663" lon="12.773017729517957"><ele>408.2</ele><time>2026-04-19T10:36:11.795Z</time></trkpt><trkpt lat="42.409129361683114" lon="12.773160474363952"><ele>408.0</ele><time>2026-04-19T10:36:12.794Z</time></trkpt><trkpt lat="42.4091274579663" lon="12.773299641426123"><ele>408.0</ele><time>2026-04-19T10:36:13.794Z</time></trkpt><trkpt lat="42.4091205298316" lon="12.77344409899408"><ele>408.0</ele><time>2026-04-19T10:36:14.794Z</time></trkpt><trkpt lat="42.409109881553306" lon="12.773583721949915"><ele>408.0</ele><time>2026-04-19T10:36:15.794Z</time></trkpt><trkpt lat="42.40909400358203" lon="12.773713618233629"><ele>408.0</ele><time>2026-04-19T10:36:16.794Z</time></trkpt><trkpt lat="42.40907926835077" lon="12.77384536942136"><ele>408.0</ele><time>2026-04-19T10:36:17.794Z</time></trkpt><trkpt lat="42.40906608089417" lon="12.773976844523352"><ele>407.4</ele><time>2026-04-19T10:36:18.794Z</time></trkpt><trkpt lat="42.40904317815673" lon="12.774110702510155"><ele>406.79999999999995</ele><time>2026-04-19T10:36:19.794Z</time></trkpt><trkpt lat="42.40900659049583" lon="12.77423988011355"><ele>406.2</ele><time>2026-04-19T10:36:20.794Z</time></trkpt><trkpt lat="42.40897563832138" lon="12.77436767616135"><ele>405.6</ele><time>2026-04-19T10:36:21.794Z</time></trkpt><trkpt lat="42.40894057832894" lon="12.774488778583844"><ele>405.0</ele><time>2026-04-19T10:36:22.794Z</time></trkpt><trkpt lat="42.408911569040875" lon="12.77460496733611"><ele>404.8</ele><time>2026-04-19T10:36:23.794Z</time></trkpt><trkpt lat="42.4088806468602" lon="12.774724551384962"><ele>404.6</ele><time>2026-04-19T10:36:24.794Z</time></trkpt><trkpt lat="42.40884723072507" lon="12.774842818804448"><ele>404.4</ele><time>2026-04-19T10:36:25.794Z</time></trkpt><trkpt lat="42.40881423703381" lon="12.774957916111685"><ele>404.2</ele><time>2026-04-19T10:36:26.794Z</time></trkpt><trkpt lat="42.40878162177993" lon="12.775071941894618"><ele>404.0</ele><time>2026-04-19T10:36:27.794Z</time></trkpt><trkpt lat="42.40874990228152" lon="12.7751765539763"><ele>403.66666666666663</ele><time>2026-04-19T10:36:28.794Z</time></trkpt><trkpt lat="42.4087205004757" lon="12.77528171696326"><ele>403.3333333333333</ele><time>2026-04-19T10:36:29.794Z</time></trkpt><trkpt lat="42.408692634628984" lon="12.775382295170846"><ele>403.0</ele><time>2026-04-19T10:36:30.794Z</time></trkpt><trkpt lat="42.40866235723674" lon="12.775483905387908"><ele>402.66666666666663</ele><time>2026-04-19T10:36:31.794Z</time></trkpt><trkpt lat="42.40863290886494" lon="12.775584392974526"><ele>402.3333333333333</ele><time>2026-04-19T10:36:32.794Z</time></trkpt><trkpt lat="42.408599353096" lon="12.775694925178442"><ele>402.0</ele><time>2026-04-19T10:36:33.794Z</time></trkpt><trkpt lat="42.40856493053562" lon="12.775812407249358"><ele>402.0</ele><time>2026-04-19T10:36:34.794Z</time></trkpt><trkpt lat="42.40853006092978" lon="12.775930559639297"><ele>402.0</ele><time>2026-04-19T10:36:35.794Z</time></trkpt><trkpt lat="42.4084945630664" lon="12.776063715864941"><ele>402.0</ele><time>2026-04-19T10:36:36.793Z</time></trkpt><trkpt lat="42.40845808013756" lon="12.7762032292891"><ele>402.0</ele><time>2026-04-19T10:36:37.793Z</time></trkpt><trkpt lat="42.408415958351" lon="12.776342202227255"><ele>402.0</ele><time>2026-04-19T10:36:38.793Z</time></trkpt><trkpt lat="42.408371189374726" lon="12.776479471259073"><ele>401.40000000000003</ele><time>2026-04-19T10:36:39.793Z</time></trkpt><trkpt lat="42.40832863436614" lon="12.77660775958745"><ele>400.8</ele><time>2026-04-19T10:36:40.793Z</time></trkpt><trkpt lat="42.40828603095711" lon="12.77675012177431"><ele>400.2</ele><time>2026-04-19T10:36:41.793Z</time></trkpt><trkpt lat="42.40824873223586" lon="12.776882990316688"><ele>399.6</ele><time>2026-04-19T10:36:42.793Z</time></trkpt><trkpt lat="42.40820855706563" lon="12.777015283989046"><ele>399.0</ele><time>2026-04-19T10:36:43.793Z</time></trkpt><trkpt lat="42.40816870447783" lon="12.77713675927457"><ele>398.6</ele><time>2026-04-19T10:36:44.793Z</time></trkpt><trkpt lat="42.40812770797471" lon="12.77726537849302"><ele>398.2</ele><time>2026-04-19T10:36:45.793Z</time></trkpt><trkpt lat="42.40808882890039" lon="12.777399647240008"><ele>397.8</ele><time>2026-04-19T10:36:46.793Z</time></trkpt><trkpt lat="42.4080522321176" lon="12.777537502494352"><ele>397.40000000000003</ele><time>2026-04-19T10:36:47.793Z</time></trkpt><trkpt lat="42.40801412395346" lon="12.77767788570137"><ele>397.0</ele><time>2026-04-19T10:36:48.793Z</time></trkpt><trkpt lat="42.40797597722974" lon="12.77781445416078"><ele>396.6</ele><time>2026-04-19T10:36:49.793Z</time></trkpt><trkpt lat="42.40793436489094" lon="12.777946891691427"><ele>396.20000000000005</ele><time>2026-04-19T10:36:50.793Z</time></trkpt><trkpt lat="42.40789409570128" lon="12.778080508628145"><ele>395.8</ele><time>2026-04-19T10:36:51.793Z</time></trkpt><trkpt lat="42.407848218853154" lon="12.778221345065159"><ele>395.4</ele><time>2026-04-19T10:36:52.793Z</time></trkpt><trkpt lat="42.40780027598823" lon="12.778355910206187"><ele>395.0</ele><time>2026-04-19T10:36:53.793Z</time></trkpt><trkpt lat="42.40776128487978" lon="12.778489319149784"><ele>394.6</ele><time>2026-04-19T10:36:54.793Z</time></trkpt><trkpt lat="42.407721285353354" lon="12.778625037289212"><ele>394.2</ele><time>2026-04-19T10:36:55.793Z</time></trkpt><trkpt lat="42.40768636984971" lon="12.778761059413766"><ele>393.79999999999995</ele><time>2026-04-19T10:36:56.793Z</time></trkpt><trkpt lat="42.40765395696263" lon="12.778900286498843"><ele>393.4</ele><time>2026-04-19T10:36:57.793Z</time></trkpt><trkpt lat="42.40761632412909" lon="12.779030928530531"><ele>393.0</ele><time>2026-04-19T10:36:58.793Z</time></trkpt><trkpt lat="42.4075655564833" lon="12.77915384983802"><ele>393.0</ele><time>2026-04-19T10:36:59.793Z</time></trkpt><trkpt lat="42.40751426007239" lon="12.77926936052522"><ele>393.0</ele><time>2026-04-19T10:37:00.792Z</time></trkpt><trkpt lat="42.407446221666646" lon="12.779381023039878"><ele>393.0</ele><time>2026-04-19T10:37:01.792Z</time></trkpt><trkpt lat="42.40737276611721" lon="12.779488380996876"><ele>393.0</ele><time>2026-04-19T10:37:02.792Z</time></trkpt><trkpt lat="42.40729836964568" lon="12.779602062089198"><ele>393.0</ele><time>2026-04-19T10:37:03.792Z</time></trkpt><trkpt lat="42.40722099020218" lon="12.779717052013613"><ele>392.25</ele><time>2026-04-19T10:37:04.792Z</time></trkpt><trkpt lat="42.407141225274614" lon="12.779831498816801"><ele>391.5</ele><time>2026-04-19T10:37:05.792Z</time></trkpt><trkpt lat="42.407063639273396" lon="12.779952471057616"><ele>390.75</ele><time>2026-04-19T10:37:06.792Z</time></trkpt><trkpt lat="42.40698247725914" lon="12.78008330075109"><ele>390.0</ele><time>2026-04-19T10:37:07.792Z</time></trkpt><trkpt lat="42.406890378853916" lon="12.780213505911092"><ele>389.5</ele><time>2026-04-19T10:37:08.792Z</time></trkpt><trkpt lat="42.40679639504603" lon="12.78034473271022"><ele>389.0</ele><time>2026-04-19T10:37:09.792Z</time></trkpt><trkpt lat="42.40670533632037" lon="12.780478093286813"><ele>388.5</ele><time>2026-04-19T10:37:10.792Z</time></trkpt><trkpt lat="42.40661595560942" lon="12.780612711929805"><ele>388.0</ele><time>2026-04-19T10:37:11.792Z</time></trkpt><trkpt lat="42.40652880326977" lon="12.78074009847672"><ele>388.0</ele><time>2026-04-19T10:37:12.792Z</time></trkpt><trkpt lat="42.40644484642598" lon="12.780873583662784"><ele>388.0</ele><time>2026-04-19T10:37:13.792Z</time></trkpt><trkpt lat="42.40636297392948" lon="12.78100360840194"><ele>388.0</ele><time>2026-04-19T10:37:14.793Z</time></trkpt><trkpt lat="42.40628493072648" lon="12.781131000367589"><ele>388.0</ele><time>2026-04-19T10:37:15.793Z</time></trkpt><trkpt lat="42.40620668804225" lon="12.781263193891016"><ele>387.75</ele><time>2026-04-19T10:37:16.793Z</time></trkpt><trkpt lat="42.40613823977083" lon="12.781405444053734"><ele>387.5</ele><time>2026-04-19T10:37:17.793Z</time></trkpt><trkpt lat="42.40608172432389" lon="12.781557174872994"><ele>387.25</ele><time>2026-04-19T10:37:18.793Z</time></trkpt><trkpt lat="42.406035461212674" lon="12.78173230011447"><ele>387.0</ele><time>2026-04-19T10:37:19.793Z</time></trkpt><trkpt lat="42.40600001499518" lon="12.78191022588857"><ele>387.0</ele><time>2026-04-19T10:37:20.793Z</time></trkpt><trkpt lat="42.405967435885074" lon="12.782099040352522"><ele>387.0</ele><time>2026-04-19T10:37:21.793Z</time></trkpt><trkpt lat="42.40593268408083" lon="12.782291391997708"><ele>387.0</ele><time>2026-04-19T10:37:22.793Z</time></trkpt><trkpt lat="42.40590054507411" lon="12.782480947563274"><ele>387.0</ele><time>2026-04-19T10:37:23.793Z</time></trkpt><trkpt lat="42.405868758590394" lon="12.782660255164892"><ele>386.75</ele><time>2026-04-19T10:37:24.792Z</time></trkpt><trkpt lat="42.40583190841127" lon="12.782828595552038"><ele>386.5</ele><time>2026-04-19T10:37:25.792Z</time></trkpt><trkpt lat="42.40579616531083" lon="12.782992458738661"><ele>386.25</ele><time>2026-04-19T10:37:26.793Z</time></trkpt><trkpt lat="42.40575136349585" lon="12.78314586096866"><ele>386.0</ele><time>2026-04-19T10:37:27.793Z</time></trkpt><trkpt lat="42.405686987665455" lon="12.783293486959598"><ele>386.0</ele><time>2026-04-19T10:37:28.793Z</time></trkpt><trkpt lat="42.405604842385216" lon="12.783420637580665"><ele>386.0</ele><time>2026-04-19T10:37:29.793Z</time></trkpt><trkpt lat="42.40552511533895" lon="12.783552388516844"><ele>386.0</ele><time>2026-04-19T10:37:30.793Z</time></trkpt><trkpt lat="42.40544030093205" lon="12.783694481674395"><ele>386.0</ele><time>2026-04-19T10:37:31.793Z</time></trkpt><trkpt lat="42.40535783714787" lon="12.783841435359957"><ele>386.0</ele><time>2026-04-19T10:37:32.792Z</time></trkpt><trkpt lat="42.405281948022115" lon="12.783988931784691"><ele>386.0</ele><time>2026-04-19T10:37:33.792Z</time></trkpt><trkpt lat="42.40521300694165" lon="12.78413509257475"><ele>386.0</ele><time>2026-04-19T10:37:34.792Z</time></trkpt><trkpt lat="42.40515576350325" lon="12.784278469033545"><ele>386.0</ele><time>2026-04-19T10:37:35.792Z</time></trkpt><trkpt lat="42.40511173731084" lon="12.784428219871277"><ele>386.0</ele><time>2026-04-19T10:37:36.792Z</time></trkpt><trkpt lat="42.40507044199505" lon="12.784590881446295"><ele>386.0</ele><time>2026-04-19T10:37:37.792Z</time></trkpt><trkpt lat="42.40503226226812" lon="12.784770215001348"><ele>386.0</ele><time>2026-04-19T10:37:38.792Z</time></trkpt><trkpt lat="42.40499872360116" lon="12.784948714471103"><ele>386.0</ele><time>2026-04-19T10:37:39.792Z</time></trkpt><trkpt lat="42.40496989692558" lon="12.785130696520044"><ele>385.75</ele><time>2026-04-19T10:37:40.792Z</time></trkpt><trkpt lat="42.40494886561403" lon="12.785317590079487"><ele>385.5</ele><time>2026-04-19T10:37:41.792Z</time></trkpt><trkpt lat="42.40492802293571" lon="12.785509945119163"><ele>385.25</ele><time>2026-04-19T10:37:42.792Z</time></trkpt><trkpt lat="42.404907553292524" lon="12.785699299493519"><ele>385.0</ele><time>2026-04-19T10:37:43.792Z</time></trkpt><trkpt lat="42.404885013153006" lon="12.785887785949425"><ele>384.5</ele><time>2026-04-19T10:37:44.792Z</time></trkpt><trkpt lat="42.4048532347018" lon="12.786072866216267"><ele>384.0</ele><time>2026-04-19T10:37:45.792Z</time></trkpt><trkpt lat="42.40482166628865" lon="12.786250686219988"><ele>383.5</ele><time>2026-04-19T10:37:46.792Z</time></trkpt><trkpt lat="42.404793580085816" lon="12.786417395999898"><ele>383.0</ele><time>2026-04-19T10:37:47.792Z</time></trkpt><trkpt lat="42.40477205894326" lon="12.786587116795706"><ele>383.0</ele><time>2026-04-19T10:37:48.792Z</time></trkpt><trkpt lat="42.40474683401703" lon="12.786760465534954"><ele>383.0</ele><time>2026-04-19T10:37:49.792Z</time></trkpt><trkpt lat="42.40472527136299" lon="12.78694322932658"><ele>383.0</ele><time>2026-04-19T10:37:50.792Z</time></trkpt><trkpt lat="42.40470051228787" lon="12.787130528213929"><ele>383.0</ele><time>2026-04-19T10:37:51.792Z</time></trkpt><trkpt lat="42.4046750041381" lon="12.787318514383866"><ele>383.5</ele><time>2026-04-19T10:37:52.792Z</time></trkpt><trkpt lat="42.40465545015498" lon="12.78749376367275"><ele>384.0</ele><time>2026-04-19T10:37:53.792Z</time></trkpt><trkpt lat="42.40463895745283" lon="12.787665326041376"><ele>384.5</ele><time>2026-04-19T10:37:54.792Z</time></trkpt><trkpt lat="42.40461853575034" lon="12.787821080283152"><ele>385.0</ele><time>2026-04-19T10:37:55.792Z</time></trkpt><trkpt lat="42.40459505812228" lon="12.787940718934156"><ele>385.1666666666667</ele><time>2026-04-19T10:37:56.791Z</time></trkpt><trkpt lat="42.40455738503501" lon="12.788069285295594"><ele>385.33333333333337</ele><time>2026-04-19T10:37:58.791Z</time></trkpt><trkpt lat="42.40454015494007" lon="12.788158406115814"><ele>385.5</ele><time>2026-04-19T10:38:00.791Z</time></trkpt><trkpt lat="42.404505113193736" lon="12.788234771960434"><ele>385.66666666666663</ele><time>2026-04-19T10:38:01.791Z</time></trkpt><trkpt lat="42.404458662935035" lon="12.788295278598554"><ele>385.8333333333333</ele><time>2026-04-19T10:38:02.791Z</time></trkpt><trkpt lat="42.40439652584822" lon="12.78837203380656"><ele>386.0</ele><time>2026-04-19T10:38:03.791Z</time></trkpt><trkpt lat="42.40432181651541" lon="12.788467369959161"><ele>386.25</ele><time>2026-04-19T10:38:04.791Z</time></trkpt><trkpt lat="42.404224332713454" lon="12.788563948707177"><ele>386.5</ele><time>2026-04-19T10:38:05.791Z</time></trkpt><trkpt lat="42.40412726538344" lon="12.788689870595382"><ele>386.75</ele><time>2026-04-19T10:38:06.791Z</time></trkpt><trkpt lat="42.404015841470446" lon="12.788828716888954"><ele>387.0</ele><time>2026-04-19T10:38:07.791Z</time></trkpt><trkpt lat="42.40390091152644" lon="12.788978303405738"><ele>386.66666666666663</ele><time>2026-04-19T10:38:08.791Z</time></trkpt><trkpt lat="42.403783756546254" lon="12.789126176944878"><ele>386.3333333333333</ele><time>2026-04-19T10:38:09.791Z</time></trkpt><trkpt lat="42.40366175322644" lon="12.78927669566262"><ele>386.0</ele><time>2026-04-19T10:38:10.791Z</time></trkpt><trkpt lat="42.40355399932123" lon="12.789442803961093"><ele>386.0</ele><time>2026-04-19T10:38:11.791Z</time></trkpt><trkpt lat="42.40343583336968" lon="12.789594016654506"><ele>386.0</ele><time>2026-04-19T10:38:12.791Z</time></trkpt><trkpt lat="42.4033174856586" lon="12.789745461934313"><ele>386.0</ele><time>2026-04-19T10:38:13.791Z</time></trkpt><trkpt lat="42.40319874965841" lon="12.78989740409668"><ele>386.0</ele><time>2026-04-19T10:38:14.791Z</time></trkpt><trkpt lat="42.40307400577766" lon="12.790034281515496"><ele>386.0</ele><time>2026-04-19T10:38:15.791Z</time></trkpt><trkpt lat="42.402959867664904" lon="12.790185058832954"><ele>386.0</ele><time>2026-04-19T10:38:16.791Z</time></trkpt><trkpt lat="42.40284506542523" lon="12.790344719951385"><ele>386.3333333333333</ele><time>2026-04-19T10:38:17.791Z</time></trkpt><trkpt lat="42.402726323399925" lon="12.790504053953427"><ele>386.66666666666663</ele><time>2026-04-19T10:38:18.791Z</time></trkpt><trkpt lat="42.40260713833534" lon="12.790669226972316"><ele>387.0</ele><time>2026-04-19T10:38:19.79Z</time></trkpt><trkpt lat="42.40250555942403" lon="12.790848243130583"><ele>387.0</ele><time>2026-04-19T10:38:20.79Z</time></trkpt><trkpt lat="42.4023629032562" lon="12.791000843640383"><ele>387.0</ele><time>2026-04-19T10:38:21.79Z</time></trkpt><trkpt lat="42.40223948801483" lon="12.791168235234169"><ele>387.0</ele><time>2026-04-19T10:38:22.79Z</time></trkpt><trkpt lat="42.402117573905954" lon="12.7913340659624"><ele>387.0</ele><time>2026-04-19T10:38:23.79Z</time></trkpt><trkpt lat="42.40199805850619" lon="12.791494681635799"><ele>387.0</ele><time>2026-04-19T10:38:24.79Z</time></trkpt><trkpt lat="42.40188373720448" lon="12.791660150351783"><ele>387.0</ele><time>2026-04-19T10:38:25.79Z</time></trkpt><trkpt lat="42.401767962950444" lon="12.791828915124523"><ele>387.0</ele><time>2026-04-19T10:38:26.79Z</time></trkpt><trkpt lat="42.401653607351" lon="12.791992502353002"><ele>387.0</ele><time>2026-04-19T10:38:27.79Z</time></trkpt><trkpt lat="42.401539312689074" lon="12.792152319589873"><ele>387.0</ele><time>2026-04-19T10:38:28.79Z</time></trkpt><trkpt lat="42.4014288546466" lon="12.79231367233346"><ele>387.0</ele><time>2026-04-19T10:38:29.79Z</time></trkpt><trkpt lat="42.40131997141613" lon="12.792480883273234"><ele>387.0</ele><time>2026-04-19T10:38:30.79Z</time></trkpt><trkpt lat="42.40120838568429" lon="12.792662747593901"><ele>387.0</ele><time>2026-04-19T10:38:31.79Z</time></trkpt><trkpt lat="42.401093658796775" lon="12.792849623908815"><ele>387.0</ele><time>2026-04-19T10:38:32.79Z</time></trkpt><trkpt lat="42.40097488735015" lon="12.79304154942076"><ele>387.0</ele><time>2026-04-19T10:38:33.79Z</time></trkpt><trkpt lat="42.4008541109697" lon="12.793238122227002"><ele>387.0</ele><time>2026-04-19T10:38:34.79Z</time></trkpt><trkpt lat="42.40073484052019" lon="12.793440465440222"><ele>386.33333333333337</ele><time>2026-04-19T10:38:35.79Z</time></trkpt><trkpt lat="42.40061850739607" lon="12.793649373903127"><ele>385.6666666666667</ele><time>2026-04-19T10:38:36.79Z</time></trkpt><trkpt lat="42.40050334907173" lon="12.793863563718697"><ele>385.0</ele><time>2026-04-19T10:38:37.79Z</time></trkpt><trkpt lat="42.400380579257714" lon="12.79407908119231"><ele>385.0</ele><time>2026-04-19T10:38:38.79Z</time></trkpt><trkpt lat="42.400262293374496" lon="12.794299688332025"><ele>385.0</ele><time>2026-04-19T10:38:39.79Z</time></trkpt><trkpt lat="42.400149682883935" lon="12.794523265689156"><ele>385.0</ele><time>2026-04-19T10:38:40.79Z</time></trkpt><trkpt lat="42.400037034052886" lon="12.794750998002321"><ele>384.33333333333337</ele><time>2026-04-19T10:38:41.79Z</time></trkpt><trkpt lat="42.39992702188165" lon="12.794980616462098"><ele>383.6666666666667</ele><time>2026-04-19T10:38:42.79Z</time></trkpt><trkpt lat="42.39981568973756" lon="12.795214181369222"><ele>383.0</ele><time>2026-04-19T10:38:43.789Z</time></trkpt><trkpt lat="42.39970246567779" lon="12.79545114736717"><ele>383.0</ele><time>2026-04-19T10:38:44.789Z</time></trkpt><trkpt lat="42.399588435365075" lon="12.795693644349829"><ele>383.0</ele><time>2026-04-19T10:38:45.789Z</time></trkpt><trkpt lat="42.399469691776375" lon="12.795942197903372"><ele>383.0</ele><time>2026-04-19T10:38:46.789Z</time></trkpt><trkpt lat="42.39935127325904" lon="12.796191278314403"><ele>383.0</ele><time>2026-04-19T10:38:47.789Z</time></trkpt><trkpt lat="42.39923346377817" lon="12.796441911772524"><ele>383.0</ele><time>2026-04-19T10:38:48.788Z</time></trkpt><trkpt lat="42.39911393830239" lon="12.796691457899138"><ele>383.0</ele><time>2026-04-19T10:38:49.788Z</time></trkpt><trkpt lat="42.398995385487346" lon="12.796939627626683"><ele>382.6666666666667</ele><time>2026-04-19T10:38:50.787Z</time></trkpt><trkpt lat="42.39887653421683" lon="12.79719052921722"><ele>382.3333333333333</ele><time>2026-04-19T10:38:51.787Z</time></trkpt><trkpt lat="42.39874459072577" lon="12.797429246175872"><ele>382.0</ele><time>2026-04-19T10:38:52.787Z</time></trkpt><trkpt lat="42.398625328433276" lon="12.79767829783827"><ele>381.66666666666663</ele><time>2026-04-19T10:38:53.787Z</time></trkpt><trkpt lat="42.39850621155129" lon="12.797926816922978"><ele>381.3333333333333</ele><time>2026-04-19T10:38:54.786Z</time></trkpt><trkpt lat="42.398398389391815" lon="12.798182187472289"><ele>381.0</ele><time>2026-04-19T10:38:55.786Z</time></trkpt><trkpt lat="42.39828241730344" lon="12.798426728294393"><ele>381.0</ele><time>2026-04-19T10:38:56.786Z</time></trkpt><trkpt lat="42.39816368879021" lon="12.79866935573623"><ele>381.0</ele><time>2026-04-19T10:38:57.786Z</time></trkpt><trkpt lat="42.39804665326559" lon="12.798910021889405"><ele>381.0</ele><time>2026-04-19T10:38:58.785Z</time></trkpt><trkpt lat="42.397931816840334" lon="12.799156680440705"><ele>381.0</ele><time>2026-04-19T10:38:59.785Z</time></trkpt><trkpt lat="42.3978198093687" lon="12.799398891933425"><ele>381.0</ele><time>2026-04-19T10:39:00.785Z</time></trkpt><trkpt lat="42.397694546325596" lon="12.799621361923297"><ele>381.0</ele><time>2026-04-19T10:39:01.785Z</time></trkpt><trkpt lat="42.397583041990586" lon="12.799854921705125"><ele>381.0</ele><time>2026-04-19T10:39:02.785Z</time></trkpt><trkpt lat="42.39747061263791" lon="12.800090078382649"><ele>381.0</ele><time>2026-04-19T10:39:03.784Z</time></trkpt><trkpt lat="42.397359161433485" lon="12.800323188020174"><ele>381.0</ele><time>2026-04-19T10:39:04.784Z</time></trkpt><trkpt lat="42.3972521712008" lon="12.800546967650742"><ele>381.3333333333333</ele><time>2026-04-19T10:39:05.784Z</time></trkpt><trkpt lat="42.39714175623466" lon="12.800777910400942"><ele>381.66666666666663</ele><time>2026-04-19T10:39:06.784Z</time></trkpt><trkpt lat="42.397028559724774" lon="12.801014670467575"><ele>382.0</ele><time>2026-04-19T10:39:07.784Z</time></trkpt><trkpt lat="42.39691165891241" lon="12.801257337512777"><ele>382.0</ele><time>2026-04-19T10:39:08.784Z</time></trkpt><trkpt lat="42.39679349668541" lon="12.801504565007646"><ele>382.0</ele><time>2026-04-19T10:39:09.783Z</time></trkpt><trkpt lat="42.39667829156862" lon="12.801745200901369"><ele>382.0</ele><time>2026-04-19T10:39:10.783Z</time></trkpt><trkpt lat="42.39656509365126" lon="12.80198164418133"><ele>382.0</ele><time>2026-04-19T10:39:11.783Z</time></trkpt><trkpt lat="42.39646547120321" lon="12.802226598464523"><ele>382.0</ele><time>2026-04-19T10:39:12.783Z</time></trkpt><trkpt lat="42.396349572852124" lon="12.802456778666693"><ele>382.0</ele><time>2026-04-19T10:39:13.783Z</time></trkpt><trkpt lat="42.39623857662352" lon="12.802684448882435"><ele>382.0</ele><time>2026-04-19T10:39:14.783Z</time></trkpt><trkpt lat="42.396135097398215" lon="12.80289971879425"><ele>382.0</ele><time>2026-04-19T10:39:15.783Z</time></trkpt><trkpt lat="42.3960323723" lon="12.803114875524063"><ele>382.0</ele><time>2026-04-19T10:39:16.783Z</time></trkpt><trkpt lat="42.395929253456096" lon="12.803334175959609"><ele>381.66666666666663</ele><time>2026-04-19T10:39:17.783Z</time></trkpt><trkpt lat="42.395825502200665" lon="12.803559216190473"><ele>381.3333333333333</ele><time>2026-04-19T10:39:18.782Z</time></trkpt><trkpt lat="42.39571904773125" lon="12.803783391945782"><ele>381.0</ele><time>2026-04-19T10:39:19.782Z</time></trkpt><trkpt lat="42.395613754739294" lon="12.804009605727257"><ele>381.0</ele><time>2026-04-19T10:39:20.783Z</time></trkpt><trkpt lat="42.39550628089091" lon="12.804233413283512"><ele>381.0</ele><time>2026-04-19T10:39:21.783Z</time></trkpt><trkpt lat="42.39539721397596" lon="12.80445345958804"><ele>381.0</ele><time>2026-04-19T10:39:22.783Z</time></trkpt><trkpt lat="42.39529222374936" lon="12.804674869095432"><ele>380.6666666666667</ele><time>2026-04-19T10:39:23.782Z</time></trkpt><trkpt lat="42.39518748951829" lon="12.80489353721337"><ele>380.33333333333337</ele><time>2026-04-19T10:39:24.783Z</time></trkpt><trkpt lat="42.39507905107469" lon="12.805104779588685"><ele>380.0</ele><time>2026-04-19T10:39:25.783Z</time></trkpt><trkpt lat="42.39497187666192" lon="12.805316881291503"><ele>380.0</ele><time>2026-04-19T10:39:26.783Z</time></trkpt><trkpt lat="42.394866751993554" lon="12.80553317038419"><ele>380.0</ele><time>2026-04-19T10:39:27.782Z</time></trkpt><trkpt lat="42.394759129113915" lon="12.805753779420797"><ele>380.0</ele><time>2026-04-19T10:39:28.782Z</time></trkpt><trkpt lat="42.394648311854716" lon="12.80598153623192"><ele>380.33333333333337</ele><time>2026-04-19T10:39:29.783Z</time></trkpt><trkpt lat="42.39453720045129" lon="12.806210218788493"><ele>380.6666666666667</ele><time>2026-04-19T10:39:30.783Z</time></trkpt><trkpt lat="42.39442311364216" lon="12.806439089904488"><ele>381.0</ele><time>2026-04-19T10:39:31.783Z</time></trkpt><trkpt lat="42.3943097424556" lon="12.806671430266013"><ele>381.0</ele><time>2026-04-19T10:39:32.782Z</time></trkpt><trkpt lat="42.39419926823852" lon="12.806904595224063"><ele>381.0</ele><time>2026-04-19T10:39:33.782Z</time></trkpt><trkpt lat="42.39408887213405" lon="12.807136581977439"><ele>381.0</ele><time>2026-04-19T10:39:34.782Z</time></trkpt><trkpt lat="42.393976414726886" lon="12.807367884602414"><ele>381.0</ele><time>2026-04-19T10:39:35.782Z</time></trkpt><trkpt lat="42.39386537802239" lon="12.807596022628143"><ele>381.0</ele><time>2026-04-19T10:39:36.782Z</time></trkpt><trkpt lat="42.39375598832984" lon="12.807827583378534"><ele>381.0</ele><time>2026-04-19T10:39:37.782Z</time></trkpt><trkpt lat="42.393650397733126" lon="12.808061515826882"><ele>381.3333333333333</ele><time>2026-04-19T10:39:38.782Z</time></trkpt><trkpt lat="42.39354830126" lon="12.80829296992358"><ele>381.66666666666663</ele><time>2026-04-19T10:39:39.782Z</time></trkpt><trkpt lat="42.39344713101595" lon="12.808528494159601"><ele>382.0</ele><time>2026-04-19T10:39:40.782Z</time></trkpt><trkpt lat="42.393347871157864" lon="12.808767756602462"><ele>382.0</ele><time>2026-04-19T10:39:41.782Z</time></trkpt><trkpt lat="42.393251129336136" lon="12.809008445256094"><ele>382.0</ele><time>2026-04-19T10:39:42.782Z</time></trkpt><trkpt lat="42.39315550923692" lon="12.809257680789297"><ele>382.0</ele><time>2026-04-19T10:39:43.782Z</time></trkpt><trkpt lat="42.393062127578865" lon="12.80951282228995"><ele>382.3333333333333</ele><time>2026-04-19T10:39:44.782Z</time></trkpt><trkpt lat="42.392965591500676" lon="12.80976931500021"><ele>382.6666666666667</ele><time>2026-04-19T10:39:45.782Z</time></trkpt><trkpt lat="42.39287649764854" lon="12.810029660562417"><ele>383.0</ele><time>2026-04-19T10:39:46.782Z</time></trkpt><trkpt lat="42.39278266502119" lon="12.810297052600065"><ele>382.6666666666667</ele><time>2026-04-19T10:39:47.782Z</time></trkpt><trkpt lat="42.39270712655953" lon="12.810568838014637"><ele>382.3333333333333</ele><time>2026-04-19T10:39:48.782Z</time></trkpt><trkpt lat="42.39263077143069" lon="12.81083188404497"><ele>382.0</ele><time>2026-04-19T10:39:49.782Z</time></trkpt><trkpt lat="42.39255283689253" lon="12.811101775178031"><ele>382.0</ele><time>2026-04-19T10:39:50.782Z</time></trkpt><trkpt lat="42.392481497590154" lon="12.811376787949705"><ele>382.0</ele><time>2026-04-19T10:39:51.782Z</time></trkpt><trkpt lat="42.392413234802234" lon="12.811648092823381"><ele>382.0</ele><time>2026-04-19T10:39:52.781Z</time></trkpt><trkpt lat="42.392347461595364" lon="12.811925198777837"><ele>382.3333333333333</ele><time>2026-04-19T10:39:53.781Z</time></trkpt><trkpt lat="42.392282561235746" lon="12.812200752565847"><ele>382.6666666666667</ele><time>2026-04-19T10:39:54.781Z</time></trkpt><trkpt lat="42.39222168166044" lon="12.812481426886022"><ele>383.0</ele><time>2026-04-19T10:39:55.781Z</time></trkpt><trkpt lat="42.39216190861167" lon="12.812763373371764"><ele>383.0</ele><time>2026-04-19T10:39:56.781Z</time></trkpt><trkpt lat="42.392105972018776" lon="12.813047855787856"><ele>383.0</ele><time>2026-04-19T10:39:57.781Z</time></trkpt><trkpt lat="42.39205252931834" lon="12.813333178469973"><ele>383.0</ele><time>2026-04-19T10:39:58.781Z</time></trkpt><trkpt lat="42.392007896235796" lon="12.813618390605034"><ele>383.0</ele><time>2026-04-19T10:39:59.781Z</time></trkpt><trkpt lat="42.391965750310135" lon="12.813904797651306"><ele>383.0</ele><time>2026-04-19T10:40:00.781Z</time></trkpt><trkpt lat="42.39192357157896" lon="12.814186659815823"><ele>383.0</ele><time>2026-04-19T10:40:01.781Z</time></trkpt><trkpt lat="42.39188338092613" lon="12.814467401373255"><ele>383.0</ele><time>2026-04-19T10:40:02.781Z</time></trkpt><trkpt lat="42.391849062759455" lon="12.814751079059663"><ele>383.0</ele><time>2026-04-19T10:40:03.781Z</time></trkpt><trkpt lat="42.39182502445791" lon="12.815030260650227"><ele>383.0</ele><time>2026-04-19T10:40:04.781Z</time></trkpt><trkpt lat="42.39180621989031" lon="12.815310319362627"><ele>383.0</ele><time>2026-04-19T10:40:05.781Z</time></trkpt><trkpt lat="42.39178675272377" lon="12.815588875907354"><ele>383.0</ele><time>2026-04-19T10:40:06.781Z</time></trkpt><trkpt lat="42.39176967946747" lon="12.815864347486599"><ele>383.0</ele><time>2026-04-19T10:40:07.781Z</time></trkpt><trkpt lat="42.391748989614" lon="12.816134869756674"><ele>383.0</ele><time>2026-04-19T10:40:08.781Z</time></trkpt><trkpt lat="42.39173545481938" lon="12.816400703947822"><ele>383.0</ele><time>2026-04-19T10:40:09.781Z</time></trkpt><trkpt lat="42.39172723084597" lon="12.816665365667177"><ele>383.0</ele><time>2026-04-19T10:40:10.781Z</time></trkpt><trkpt lat="42.391719560193984" lon="12.816929797760395"><ele>383.0</ele><time>2026-04-19T10:40:11.781Z</time></trkpt><trkpt lat="42.391711641342916" lon="12.817191885431667"><ele>383.0</ele><time>2026-04-19T10:40:12.781Z</time></trkpt><trkpt lat="42.3917082833909" lon="12.817451056679042"><ele>383.0</ele><time>2026-04-19T10:40:13.78Z</time></trkpt><trkpt lat="42.39170767128973" lon="12.817711102627047"><ele>383.0</ele><time>2026-04-19T10:40:14.78Z</time></trkpt><trkpt lat="42.391704566564655" lon="12.817970929624776"><ele>383.0</ele><time>2026-04-19T10:40:15.78Z</time></trkpt><trkpt lat="42.39170412092346" lon="12.818232522726305"><ele>383.0</ele><time>2026-04-19T10:40:16.78Z</time></trkpt><trkpt lat="42.391706281467116" lon="12.818498457848472"><ele>383.0</ele><time>2026-04-19T10:40:17.78Z</time></trkpt><trkpt lat="42.39170836725757" lon="12.818763552820336"><ele>383.0</ele><time>2026-04-19T10:40:18.78Z</time></trkpt><trkpt lat="42.39170554956199" lon="12.81902943639235"><ele>383.0</ele><time>2026-04-19T10:40:19.78Z</time></trkpt><trkpt lat="42.391711241679296" lon="12.819299517262202"><ele>382.6666666666667</ele><time>2026-04-19T10:40:20.78Z</time></trkpt><trkpt lat="42.39171750599393" lon="12.819568555093339"><ele>382.3333333333333</ele><time>2026-04-19T10:40:21.78Z</time></trkpt><trkpt lat="42.391721245765105" lon="12.819835921645337"><ele>382.0</ele><time>2026-04-19T10:40:22.78Z</time></trkpt><trkpt lat="42.39172317328945" lon="12.820109032855976"><ele>382.0</ele><time>2026-04-19T10:40:23.78Z</time></trkpt><trkpt lat="42.39172503343759" lon="12.820385488970457"><ele>382.0</ele><time>2026-04-19T10:40:24.78Z</time></trkpt><trkpt lat="42.39172508985398" lon="12.820658875937015"><ele>382.0</ele><time>2026-04-19T10:40:25.78Z</time></trkpt><trkpt lat="42.39173005831602" lon="12.820934762736421"><ele>382.0</ele><time>2026-04-19T10:40:26.78Z</time></trkpt><trkpt lat="42.39173530726795" lon="12.821214174585876"><ele>382.0</ele><time>2026-04-19T10:40:27.78Z</time></trkpt><trkpt lat="42.391735053541595" lon="12.821494354858384"><ele>382.0</ele><time>2026-04-19T10:40:28.78Z</time></trkpt><trkpt lat="42.39173590728777" lon="12.821777581363673"><ele>382.3333333333333</ele><time>2026-04-19T10:40:29.78Z</time></trkpt><trkpt lat="42.39174012557727" lon="12.822065372265499"><ele>382.6666666666667</ele><time>2026-04-19T10:40:30.78Z</time></trkpt><trkpt lat="42.391742285515335" lon="12.822334180260432"><ele>383.0</ele><time>2026-04-19T10:40:31.78Z</time></trkpt><trkpt lat="42.391745721982005" lon="12.822588578688318"><ele>383.0</ele><time>2026-04-19T10:40:32.78Z</time></trkpt><trkpt lat="42.39174713433851" lon="12.822829116209675"><ele>383.0</ele><time>2026-04-19T10:40:33.78Z</time></trkpt><trkpt lat="42.391749299875464" lon="12.823068115501547"><ele>383.0</ele><time>2026-04-19T10:40:34.78Z</time></trkpt><trkpt lat="42.391749465423764" lon="12.823307986180941"><ele>382.6666666666667</ele><time>2026-04-19T10:40:35.78Z</time></trkpt><trkpt lat="42.391749743547415" lon="12.823546350104522"><ele>382.3333333333333</ele><time>2026-04-19T10:40:36.779Z</time></trkpt><trkpt lat="42.391750774773826" lon="12.823780848251374"><ele>382.0</ele><time>2026-04-19T10:40:37.779Z</time></trkpt><trkpt lat="42.391753170971334" lon="12.82401469646519"><ele>382.0</ele><time>2026-04-19T10:40:38.779Z</time></trkpt><trkpt lat="42.391757115008446" lon="12.824245647076998"><ele>382.0</ele><time>2026-04-19T10:40:39.779Z</time></trkpt><trkpt lat="42.39176190625572" lon="12.824475448704044"><ele>382.0</ele><time>2026-04-19T10:40:40.779Z</time></trkpt><trkpt lat="42.391764400962906" lon="12.824698545629031"><ele>382.3333333333333</ele><time>2026-04-19T10:40:41.779Z</time></trkpt><trkpt lat="42.39176669116942" lon="12.824920189920103"><ele>382.6666666666667</ele><time>2026-04-19T10:40:42.779Z</time></trkpt><trkpt lat="42.39177302891948" lon="12.825145516759465"><ele>383.0</ele><time>2026-04-19T10:40:43.779Z</time></trkpt><trkpt lat="42.39177536651034" lon="12.825360975853851"><ele>383.33333333333337</ele><time>2026-04-19T10:40:44.779Z</time></trkpt><trkpt lat="42.391774805844314" lon="12.825571088356675"><ele>383.6666666666667</ele><time>2026-04-19T10:40:45.779Z</time></trkpt><trkpt lat="42.391772790673976" lon="12.825774159128745"><ele>384.0</ele><time>2026-04-19T10:40:46.779Z</time></trkpt><trkpt lat="42.3917779605894" lon="12.825975698388525"><ele>383.75</ele><time>2026-04-19T10:40:47.779Z</time></trkpt><trkpt lat="42.39178274013235" lon="12.826175651266055"><ele>383.5</ele><time>2026-04-19T10:40:48.779Z</time></trkpt><trkpt lat="42.39178492099869" lon="12.826379249875641"><ele>383.25</ele><time>2026-04-19T10:40:49.779Z</time></trkpt><trkpt lat="42.391782717816206" lon="12.826581822158783"><ele>383.0</ele><time>2026-04-19T10:40:50.779Z</time></trkpt><trkpt lat="42.39177967892963" lon="12.826784538634469"><ele>382.75</ele><time>2026-04-19T10:40:51.779Z</time></trkpt><trkpt lat="42.39178009604112" lon="12.826984569608564"><ele>382.5</ele><time>2026-04-19T10:40:52.779Z</time></trkpt><trkpt lat="42.391779854863046" lon="12.827183677205639"><ele>382.25</ele><time>2026-04-19T10:40:53.779Z</time></trkpt><trkpt lat="42.39178209644332" lon="12.827383803034621"><ele>382.0</ele><time>2026-04-19T10:40:54.779Z</time></trkpt><trkpt lat="42.39178495694536" lon="12.827584255796268"><ele>382.25</ele><time>2026-04-19T10:40:55.779Z</time></trkpt><trkpt lat="42.3917865537208" lon="12.827785654705334"><ele>382.5</ele><time>2026-04-19T10:40:56.779Z</time></trkpt><trkpt lat="42.39179119125073" lon="12.827983742625289"><ele>382.75</ele><time>2026-04-19T10:40:57.779Z</time></trkpt><trkpt lat="42.39179579293168" lon="12.828184016590269"><ele>383.0</ele><time>2026-04-19T10:40:58.779Z</time></trkpt><trkpt lat="42.39179939801994" lon="12.828385350824483"><ele>382.75</ele><time>2026-04-19T10:40:59.778Z</time></trkpt><trkpt lat="42.391800656580195" lon="12.828587553415552"><ele>382.5</ele><time>2026-04-19T10:41:00.778Z</time></trkpt><trkpt lat="42.39179546505895" lon="12.82878785854901"><ele>382.25</ele><time>2026-04-19T10:41:01.778Z</time></trkpt><trkpt lat="42.39179456223458" lon="12.828993791251035"><ele>382.0</ele><time>2026-04-19T10:41:02.778Z</time></trkpt><trkpt lat="42.39179655509561" lon="12.829200483758912"><ele>382.66666666666663</ele><time>2026-04-19T10:41:03.778Z</time></trkpt><trkpt lat="42.39179744351808" lon="12.82941618177426"><ele>383.3333333333333</ele><time>2026-04-19T10:41:04.778Z</time></trkpt><trkpt lat="42.39180073206275" lon="12.829633738624073"><ele>384.0</ele><time>2026-04-19T10:41:05.778Z</time></trkpt><trkpt lat="42.39180733996374" lon="12.82985284834689"><ele>384.0</ele><time>2026-04-19T10:41:06.778Z</time></trkpt><trkpt lat="42.39181510643625" lon="12.830076541604711"><ele>384.0</ele><time>2026-04-19T10:41:07.778Z</time></trkpt><trkpt lat="42.39182751524458" lon="12.830301880691577"><ele>384.0</ele><time>2026-04-19T10:41:08.778Z</time></trkpt><trkpt lat="42.39184071700099" lon="12.830523805555945"><ele>384.33333333333337</ele><time>2026-04-19T10:41:09.778Z</time></trkpt><trkpt lat="42.391860951575765" lon="12.83074669112151"><ele>384.6666666666667</ele><time>2026-04-19T10:41:10.778Z</time></trkpt><trkpt lat="42.39188719599191" lon="12.830959992642933"><ele>385.0</ele><time>2026-04-19T10:41:11.778Z</time></trkpt><trkpt lat="42.39191070476984" lon="12.83117964726349"><ele>385.33333333333337</ele><time>2026-04-19T10:41:12.778Z</time></trkpt><trkpt lat="42.39193700839148" lon="12.831400354377166"><ele>385.66666666666663</ele><time>2026-04-19T10:41:13.778Z</time></trkpt><trkpt lat="42.3919661203888" lon="12.831616831856763"><ele>386.0</ele><time>2026-04-19T10:41:14.778Z</time></trkpt><trkpt lat="42.39199703850087" lon="12.831830480971387"><ele>386.0</ele><time>2026-04-19T10:41:15.778Z</time></trkpt><trkpt lat="42.392020336028104" lon="12.832039553656257"><ele>386.0</ele><time>2026-04-19T10:41:16.778Z</time></trkpt><trkpt lat="42.392039340922345" lon="12.832245540204502"><ele>386.0</ele><time>2026-04-19T10:41:17.778Z</time></trkpt><trkpt lat="42.39206415458075" lon="12.832452083680074"><ele>385.3333333333333</ele><time>2026-04-19T10:41:18.778Z</time></trkpt><trkpt lat="42.3920904090858" lon="12.832655042315986"><ele>384.66666666666663</ele><time>2026-04-19T10:41:19.778Z</time></trkpt><trkpt lat="42.3921126443483" lon="12.832862301970314"><ele>384.0</ele><time>2026-04-19T10:41:20.778Z</time></trkpt><trkpt lat="42.39213217337863" lon="12.833075569373472"><ele>384.0</ele><time>2026-04-19T10:41:21.778Z</time></trkpt><trkpt lat="42.39214574407629" lon="12.833282104805352"><ele>384.0</ele><time>2026-04-19T10:41:22.777Z</time></trkpt><trkpt lat="42.392153785008695" lon="12.83349278272559"><ele>384.0</ele><time>2026-04-19T10:41:23.777Z</time></trkpt><trkpt lat="42.39215817779221" lon="12.833715587995314"><ele>384.0</ele><time>2026-04-19T10:41:24.777Z</time></trkpt><trkpt lat="42.392155349754816" lon="12.833935475053556"><ele>384.0</ele><time>2026-04-19T10:41:25.777Z</time></trkpt><trkpt lat="42.39214971556172" lon="12.834157234093695"><ele>384.0</ele><time>2026-04-19T10:41:26.778Z</time></trkpt><trkpt lat="42.39213576909605" lon="12.83437462961219"><ele>384.33333333333337</ele><time>2026-04-19T10:41:27.777Z</time></trkpt><trkpt lat="42.392115318251015" lon="12.834594642345964"><ele>384.6666666666667</ele><time>2026-04-19T10:41:28.777Z</time></trkpt><trkpt lat="42.39208855571171" lon="12.834809711536632"><ele>385.0</ele><time>2026-04-19T10:41:29.777Z</time></trkpt><trkpt lat="42.39205655495302" lon="12.835028159927003"><ele>385.33333333333337</ele><time>2026-04-19T10:41:30.778Z</time></trkpt><trkpt lat="42.3920186580752" lon="12.835245167153165"><ele>385.66666666666663</ele><time>2026-04-19T10:41:31.778Z</time></trkpt><trkpt lat="42.3919767677785" lon="12.835458048968642"><ele>386.0</ele><time>2026-04-19T10:41:32.778Z</time></trkpt><trkpt lat="42.39192968504301" lon="12.835666450488889"><ele>386.0</ele><time>2026-04-19T10:41:33.777Z</time></trkpt><trkpt lat="42.39187635578769" lon="12.835873044875894"><ele>386.0</ele><time>2026-04-19T10:41:34.777Z</time></trkpt><trkpt lat="42.39181942201755" lon="12.836077283281877"><ele>386.0</ele><time>2026-04-19T10:41:35.777Z</time></trkpt><trkpt lat="42.391744078238105" lon="12.836257485820932"><ele>386.0</ele><time>2026-04-19T10:41:36.777Z</time></trkpt><trkpt lat="42.3916785362009" lon="12.836445987687174"><ele>386.0</ele><time>2026-04-19T10:41:37.777Z</time></trkpt><trkpt lat="42.391608773016" lon="12.836631853914744"><ele>386.0</ele><time>2026-04-19T10:41:38.777Z</time></trkpt><trkpt lat="42.391531517392885" lon="12.836821160539582"><ele>386.0</ele><time>2026-04-19T10:41:39.777Z</time></trkpt><trkpt lat="42.391449893012926" lon="12.837016188832187"><ele>386.0</ele><time>2026-04-19T10:41:40.777Z</time></trkpt><trkpt lat="42.39136597205733" lon="12.837212355590422"><ele>386.0</ele><time>2026-04-19T10:41:41.777Z</time></trkpt><trkpt lat="42.39127958738077" lon="12.837414281389183"><ele>386.3333333333333</ele><time>2026-04-19T10:41:42.777Z</time></trkpt><trkpt lat="42.391208441244366" lon="12.837628669761713"><ele>386.66666666666663</ele><time>2026-04-19T10:41:43.777Z</time></trkpt><trkpt lat="42.391120989788774" lon="12.83783179056252"><ele>387.0</ele><time>2026-04-19T10:41:44.777Z</time></trkpt><trkpt lat="42.391028740128405" lon="12.83804049426797"><ele>387.0</ele><time>2026-04-19T10:41:45.777Z</time></trkpt><trkpt lat="42.39093622501083" lon="12.838253157902834"><ele>387.0</ele><time>2026-04-19T10:41:46.776Z</time></trkpt><trkpt lat="42.39085356054689" lon="12.838475367845804"><ele>387.0</ele><time>2026-04-19T10:41:47.776Z</time></trkpt><trkpt lat="42.39078449257437" lon="12.838703598787475"><ele>386.66666666666663</ele><time>2026-04-19T10:41:48.776Z</time></trkpt><trkpt lat="42.39072518900371" lon="12.838934596856237"><ele>386.3333333333333</ele><time>2026-04-19T10:41:49.776Z</time></trkpt><trkpt lat="42.3906732625056" lon="12.839168721362215"><ele>386.0</ele><time>2026-04-19T10:41:50.776Z</time></trkpt><trkpt lat="42.390623282149825" lon="12.839405899526861"><ele>386.0</ele><time>2026-04-19T10:41:51.776Z</time></trkpt><trkpt lat="42.390578683474885" lon="12.839648555630353"><ele>386.0</ele><time>2026-04-19T10:41:52.776Z</time></trkpt><trkpt lat="42.39054324792536" lon="12.839895740473317"><ele>386.0</ele><time>2026-04-19T10:41:53.776Z</time></trkpt><trkpt lat="42.390514860443126" lon="12.840137709154575"><ele>386.3333333333333</ele><time>2026-04-19T10:41:54.776Z</time></trkpt><trkpt lat="42.390498261418976" lon="12.840375959613285"><ele>386.66666666666663</ele><time>2026-04-19T10:41:55.776Z</time></trkpt><trkpt lat="42.390483577015786" lon="12.840615888923418"><ele>387.0</ele><time>2026-04-19T10:41:56.776Z</time></trkpt><trkpt lat="42.39047663683274" lon="12.840860779331287"><ele>386.33333333333337</ele><time>2026-04-19T10:41:57.776Z</time></trkpt><trkpt lat="42.39048138872853" lon="12.841111189589526"><ele>385.6666666666667</ele><time>2026-04-19T10:41:58.776Z</time></trkpt><trkpt lat="42.3904878351841" lon="12.841359253484683"><ele>385.0</ele><time>2026-04-19T10:41:59.776Z</time></trkpt><trkpt lat="42.390496736824346" lon="12.841614956473904"><ele>385.6666666666667</ele><time>2026-04-19T10:42:00.776Z</time></trkpt><trkpt lat="42.39050861342866" lon="12.841857257521795"><ele>386.33333333333337</ele><time>2026-04-19T10:42:01.776Z</time></trkpt><trkpt lat="42.39052124230643" lon="12.842108779739739"><ele>387.0</ele><time>2026-04-19T10:42:02.776Z</time></trkpt><trkpt lat="42.390534198578415" lon="12.84235244478875"><ele>387.0</ele><time>2026-04-19T10:42:03.776Z</time></trkpt><trkpt lat="42.39054351504241" lon="12.84259609355677"><ele>387.0</ele><time>2026-04-19T10:42:04.776Z</time></trkpt><trkpt lat="42.39055384030042" lon="12.8428412894425"><ele>387.0</ele><time>2026-04-19T10:42:05.776Z</time></trkpt><trkpt lat="42.390567745692444" lon="12.843087298684981"><ele>387.0</ele><time>2026-04-19T10:42:06.776Z</time></trkpt><trkpt lat="42.39058282575963" lon="12.843335744130876"><ele>387.0</ele><time>2026-04-19T10:42:07.776Z</time></trkpt><trkpt lat="42.390593519856914" lon="12.843581659907953"><ele>387.0</ele><time>2026-04-19T10:42:08.776Z</time></trkpt><trkpt lat="42.39060237410193" lon="12.84382571034163"><ele>386.66666666666663</ele><time>2026-04-19T10:42:09.775Z</time></trkpt><trkpt lat="42.39061553279595" lon="12.844069510637816"><ele>386.3333333333333</ele><time>2026-04-19T10:42:10.775Z</time></trkpt><trkpt lat="42.39063058089037" lon="12.844314019722749"><ele>386.0</ele><time>2026-04-19T10:42:11.775Z</time></trkpt><trkpt lat="42.39064609351667" lon="12.84455821140281"><ele>385.66666666666663</ele><time>2026-04-19T10:42:12.775Z</time></trkpt><trkpt lat="42.39066791531361" lon="12.844800095067013"><ele>385.33333333333337</ele><time>2026-04-19T10:42:13.775Z</time></trkpt><trkpt lat="42.390688062530515" lon="12.845040127855679"><ele>385.0</ele><time>2026-04-19T10:42:14.775Z</time></trkpt><trkpt lat="42.39071819535511" lon="12.84527359105297"><ele>385.0</ele><time>2026-04-19T10:42:15.775Z</time></trkpt><trkpt lat="42.390751057663316" lon="12.845509049202747"><ele>385.0</ele><time>2026-04-19T10:42:16.775Z</time></trkpt><trkpt lat="42.39078575827695" lon="12.845737531491057"><ele>385.0</ele><time>2026-04-19T10:42:17.775Z</time></trkpt><trkpt lat="42.39082992064225" lon="12.845961349324156"><ele>385.33333333333337</ele><time>2026-04-19T10:42:18.775Z</time></trkpt><trkpt lat="42.390884513241815" lon="12.846188953923413"><ele>385.66666666666663</ele><time>2026-04-19T10:42:19.775Z</time></trkpt><trkpt lat="42.39093972742796" lon="12.846418269452784"><ele>386.0</ele><time>2026-04-19T10:42:20.775Z</time></trkpt><trkpt lat="42.3909966509405" lon="12.846647668546092"><ele>385.66666666666663</ele><time>2026-04-19T10:42:21.775Z</time></trkpt><trkpt lat="42.39106109816094" lon="12.846868949389945"><ele>385.33333333333337</ele><time>2026-04-19T10:42:22.775Z</time></trkpt><trkpt lat="42.39113116016027" lon="12.847087484437626"><ele>385.0</ele><time>2026-04-19T10:42:23.775Z</time></trkpt><trkpt lat="42.39120489767738" lon="12.847299768996198"><ele>385.0</ele><time>2026-04-19T10:42:24.775Z</time></trkpt><trkpt lat="42.39128382643401" lon="12.84750925095703"><ele>385.0</ele><time>2026-04-19T10:42:25.775Z</time></trkpt><trkpt lat="42.3913655472971" lon="12.847717655686754"><ele>385.0</ele><time>2026-04-19T10:42:26.775Z</time></trkpt><trkpt lat="42.39145348163992" lon="12.847922670186387"><ele>385.6666666666667</ele><time>2026-04-19T10:42:27.775Z</time></trkpt><trkpt lat="42.39154328789425" lon="12.84812967113043"><ele>386.33333333333337</ele><time>2026-04-19T10:42:28.775Z</time></trkpt><trkpt lat="42.39163966641414" lon="12.848332108646945"><ele>387.0</ele><time>2026-04-19T10:42:29.775Z</time></trkpt><trkpt lat="42.39173660015924" lon="12.848543570723296"><ele>387.0</ele><time>2026-04-19T10:42:30.775Z</time></trkpt><trkpt lat="42.39183258775076" lon="12.848753631954226"><ele>387.0</ele><time>2026-04-19T10:42:31.775Z</time></trkpt><trkpt lat="42.39192790978292" lon="12.848959602040393"><ele>387.0</ele><time>2026-04-19T10:42:32.774Z</time></trkpt><trkpt lat="42.39202396107746" lon="12.849166453461637"><ele>387.0</ele><time>2026-04-19T10:42:33.774Z</time></trkpt><trkpt lat="42.3921179863845" lon="12.84937071426552"><ele>387.0</ele><time>2026-04-19T10:42:34.774Z</time></trkpt><trkpt lat="42.39221793610076" lon="12.849570081610741"><ele>387.0</ele><time>2026-04-19T10:42:35.774Z</time></trkpt><trkpt lat="42.39231396938919" lon="12.849774531235783"><ele>387.0</ele><time>2026-04-19T10:42:36.774Z</time></trkpt><trkpt lat="42.39240157197015" lon="12.84998209423544"><ele>387.0</ele><time>2026-04-19T10:42:37.774Z</time></trkpt><trkpt lat="42.39249472036547" lon="12.850177596064785"><ele>387.0</ele><time>2026-04-19T10:42:38.774Z</time></trkpt><trkpt lat="42.392584698274526" lon="12.850381445671449"><ele>386.66666666666663</ele><time>2026-04-19T10:42:39.774Z</time></trkpt><trkpt lat="42.39266666846616" lon="12.850588129504311"><ele>386.3333333333333</ele><time>2026-04-19T10:42:40.774Z</time></trkpt><trkpt lat="42.39274326511612" lon="12.850805211790465"><ele>386.0</ele><time>2026-04-19T10:42:41.774Z</time></trkpt><trkpt lat="42.39281509815234" lon="12.851026026025453"><ele>386.0</ele><time>2026-04-19T10:42:42.774Z</time></trkpt><trkpt lat="42.3928821244222" lon="12.851243394508922"><ele>386.0</ele><time>2026-04-19T10:42:43.774Z</time></trkpt><trkpt lat="42.392945050476456" lon="12.851463797239306"><ele>386.0</ele><time>2026-04-19T10:42:44.774Z</time></trkpt><trkpt lat="42.3930068074597" lon="12.851684415420126"><ele>386.0</ele><time>2026-04-19T10:42:45.774Z</time></trkpt><trkpt lat="42.39306740262962" lon="12.851905377740309"><ele>386.0</ele><time>2026-04-19T10:42:46.774Z</time></trkpt><trkpt lat="42.39311737115757" lon="12.852136053866548"><ele>386.0</ele><time>2026-04-19T10:42:47.774Z</time></trkpt><trkpt lat="42.393161572687234" lon="12.852364091720894"><ele>386.0</ele><time>2026-04-19T10:42:48.774Z</time></trkpt><trkpt lat="42.39319848982467" lon="12.85259094071398"><ele>386.0</ele><time>2026-04-19T10:42:49.774Z</time></trkpt><trkpt lat="42.393228289841986" lon="12.8528194811222"><ele>386.0</ele><time>2026-04-19T10:42:50.774Z</time></trkpt><trkpt lat="42.39325323703731" lon="12.853047354857983"><ele>386.0</ele><time>2026-04-19T10:42:51.774Z</time></trkpt><trkpt lat="42.393274143529354" lon="12.853277536223091"><ele>386.0</ele><time>2026-04-19T10:42:52.774Z</time></trkpt><trkpt lat="42.3932911424003" lon="12.853515036512148"><ele>386.0</ele><time>2026-04-19T10:42:53.774Z</time></trkpt><trkpt lat="42.39330114660321" lon="12.853751906541882"><ele>386.0</ele><time>2026-04-19T10:42:54.774Z</time></trkpt><trkpt lat="42.3933081962822" lon="12.853988312658611"><ele>386.0</ele><time>2026-04-19T10:42:55.773Z</time></trkpt><trkpt lat="42.39331313979925" lon="12.854222530671796"><ele>386.0</ele><time>2026-04-19T10:42:56.773Z</time></trkpt><trkpt lat="42.393312906548864" lon="12.854461536052172"><ele>386.66666666666663</ele><time>2026-04-19T10:42:57.773Z</time></trkpt><trkpt lat="42.39330928957478" lon="12.854699315285776"><ele>387.33333333333337</ele><time>2026-04-19T10:42:58.773Z</time></trkpt><trkpt lat="42.39330365340416" lon="12.854938061811358"><ele>388.0</ele><time>2026-04-19T10:42:59.773Z</time></trkpt><trkpt lat="42.39329820534625" lon="12.855180896087571"><ele>388.33333333333337</ele><time>2026-04-19T10:43:00.773Z</time></trkpt><trkpt lat="42.39329315037648" lon="12.85542630886088"><ele>388.66666666666663</ele><time>2026-04-19T10:43:01.773Z</time></trkpt><trkpt lat="42.39328929158149" lon="12.855665230335806"><ele>389.0</ele><time>2026-04-19T10:43:02.773Z</time></trkpt><trkpt lat="42.393282063061676" lon="12.855904894465203"><ele>388.3333333333333</ele><time>2026-04-19T10:43:03.773Z</time></trkpt><trkpt lat="42.39326847567693" lon="12.856152407674204"><ele>387.66666666666663</ele><time>2026-04-19T10:43:04.773Z</time></trkpt><trkpt lat="42.393252113051794" lon="12.856382649016062"><ele>387.0</ele><time>2026-04-19T10:43:05.773Z</time></trkpt><trkpt lat="42.39324625440261" lon="12.856620398658011"><ele>387.0</ele><time>2026-04-19T10:43:06.773Z</time></trkpt><trkpt lat="42.393241004714426" lon="12.85686817462652"><ele>387.0</ele><time>2026-04-19T10:43:07.773Z</time></trkpt><trkpt lat="42.39323570465389" lon="12.85711208674629"><ele>387.0</ele><time>2026-04-19T10:43:08.773Z</time></trkpt><trkpt lat="42.39322796658289" lon="12.857351243295009"><ele>387.0</ele><time>2026-04-19T10:43:09.773Z</time></trkpt><trkpt lat="42.39321830970354" lon="12.857589874083839"><ele>387.0</ele><time>2026-04-19T10:43:10.773Z</time></trkpt><trkpt lat="42.3932104658012" lon="12.857834273618248"><ele>387.0</ele><time>2026-04-19T10:43:11.773Z</time></trkpt><trkpt lat="42.393202469532014" lon="12.858076001215228"><ele>387.33333333333337</ele><time>2026-04-19T10:43:12.773Z</time></trkpt><trkpt lat="42.39319626238029" lon="12.858320053414865"><ele>387.6666666666667</ele><time>2026-04-19T10:43:13.773Z</time></trkpt><trkpt lat="42.39319159280016" lon="12.858568407639691"><ele>388.0</ele><time>2026-04-19T10:43:14.773Z</time></trkpt><trkpt lat="42.39319217220583" lon="12.85881509926513"><ele>388.0</ele><time>2026-04-19T10:43:15.773Z</time></trkpt><trkpt lat="42.39319897727847" lon="12.859058882280243"><ele>388.0</ele><time>2026-04-19T10:43:16.773Z</time></trkpt><trkpt lat="42.393211047817445" lon="12.859295644224272"><ele>388.0</ele><time>2026-04-19T10:43:17.773Z</time></trkpt><trkpt lat="42.39322843893159" lon="12.859540079418446"><ele>388.0</ele><time>2026-04-19T10:43:18.772Z</time></trkpt><trkpt lat="42.39325788197996" lon="12.859775648778285"><ele>388.0</ele><time>2026-04-19T10:43:19.772Z</time></trkpt><trkpt lat="42.393298432353525" lon="12.860007454258383"><ele>388.0</ele><time>2026-04-19T10:43:20.772Z</time></trkpt><trkpt lat="42.39335332844499" lon="12.860250211203109"><ele>388.0</ele><time>2026-04-19T10:43:21.772Z</time></trkpt><trkpt lat="42.393415212001266" lon="12.860500575352983"><ele>388.0</ele><time>2026-04-19T10:43:22.772Z</time></trkpt><trkpt lat="42.3934682972813" lon="12.860743669871152"><ele>388.0</ele><time>2026-04-19T10:43:23.772Z</time></trkpt><trkpt lat="42.39352943580907" lon="12.86097813576143"><ele>388.0</ele><time>2026-04-19T10:43:24.772Z</time></trkpt><trkpt lat="42.39359905815332" lon="12.861204113544092"><ele>388.0</ele><time>2026-04-19T10:43:25.772Z</time></trkpt><trkpt lat="42.39367139553055" lon="12.861421890572112"><ele>388.0</ele><time>2026-04-19T10:43:26.772Z</time></trkpt><trkpt lat="42.393750663066015" lon="12.861637287495162"><ele>388.33333333333337</ele><time>2026-04-19T10:43:27.772Z</time></trkpt><trkpt lat="42.39382743576049" lon="12.861848284480878"><ele>388.66666666666663</ele><time>2026-04-19T10:43:28.772Z</time></trkpt><trkpt lat="42.393906367899106" lon="12.862065100235613"><ele>389.0</ele><time>2026-04-19T10:43:29.772Z</time></trkpt><trkpt lat="42.39398224823639" lon="12.862279115079167"><ele>390.0</ele><time>2026-04-19T10:43:30.772Z</time></trkpt><trkpt lat="42.394056158016355" lon="12.86249518018001"><ele>391.0</ele><time>2026-04-19T10:43:31.772Z</time></trkpt><trkpt lat="42.39412269745707" lon="12.862712223663564"><ele>392.0</ele><time>2026-04-19T10:43:32.773Z</time></trkpt><trkpt lat="42.39418453658971" lon="12.862935521739193"><ele>392.0</ele><time>2026-04-19T10:43:33.772Z</time></trkpt><trkpt lat="42.39423818632308" lon="12.863162960351078"><ele>392.0</ele><time>2026-04-19T10:43:34.772Z</time></trkpt><trkpt lat="42.39428936704267" lon="12.863392808100608"><ele>392.0</ele><time>2026-04-19T10:43:35.773Z</time></trkpt><trkpt lat="42.39432944938805" lon="12.863621857783905"><ele>391.66666666666663</ele><time>2026-04-19T10:43:36.773Z</time></trkpt><trkpt lat="42.3943707930168" lon="12.863856796797108"><ele>391.33333333333337</ele><time>2026-04-19T10:43:37.773Z</time></trkpt><trkpt lat="42.394406523080434" lon="12.864092462033172"><ele>391.0</ele><time>2026-04-19T10:43:38.772Z</time></trkpt><trkpt lat="42.394445617675366" lon="12.864328532911157"><ele>392.0</ele><time>2026-04-19T10:43:39.772Z</time></trkpt><trkpt lat="42.394479454539784" lon="12.864560739024062"><ele>393.0</ele><time>2026-04-19T10:43:40.772Z</time></trkpt><trkpt lat="42.39451776274975" lon="12.864805448764516"><ele>394.0</ele><time>2026-04-19T10:43:41.773Z</time></trkpt><trkpt lat="42.39455248180743" lon="12.865047382870229"><ele>401.33333333333337</ele><time>2026-04-19T10:43:42.773Z</time></trkpt><trkpt lat="42.394589457784086" lon="12.865276952595936"><ele>408.66666666666663</ele><time>2026-04-19T10:43:43.772Z</time></trkpt><trkpt lat="42.39462289067195" lon="12.865519688248664"><ele>416.0</ele><time>2026-04-19T10:43:44.773Z</time></trkpt><trkpt lat="42.394657889234736" lon="12.865755940904009"><ele>426.0</ele><time>2026-04-19T10:43:45.773Z</time></trkpt><trkpt lat="42.39469261254769" lon="12.865991878589185"><ele>436.0</ele><time>2026-04-19T10:43:46.773Z</time></trkpt><trkpt lat="42.39472882747771" lon="12.866229068337653"><ele>446.0</ele><time>2026-04-19T10:43:47.773Z</time></trkpt><trkpt lat="42.39476556025921" lon="12.866466134488789"><ele>446.0</ele><time>2026-04-19T10:43:48.773Z</time></trkpt><trkpt lat="42.394803475793154" lon="12.866704901726365"><ele>446.0</ele><time>2026-04-19T10:43:49.772Z</time></trkpt><trkpt lat="42.39484210738784" lon="12.8669452345528"><ele>446.0</ele><time>2026-04-19T10:43:50.772Z</time></trkpt><trkpt lat="42.39532925683683" lon="12.870467026117385"><ele>499.0</ele><time>2026-04-19T10:43:55.361Z</time></trkpt><trkpt lat="42.39544785204107" lon="12.871299998732965"><ele>440.0</ele><time>2026-04-19T10:43:56.359Z</time></trkpt><trkpt lat="42.39556582464673" lon="12.872136380381821"><ele>407.0</ele><time>2026-04-19T10:43:57.36Z</time></trkpt><trkpt lat="42.395684272694616" lon="12.872970754568662"><ele>397.0</ele><time>2026-04-19T10:43:58.359Z</time></trkpt><trkpt lat="42.39580259187932" lon="12.873847523965347"><ele>397.0</ele><time>2026-04-19T10:44:15.771Z</time></trkpt><trkpt lat="42.3958388170929" lon="12.874136380727252"><ele>397.0</ele><time>2026-04-19T10:44:16.771Z</time></trkpt><trkpt lat="42.395904168121675" lon="12.874357390908425"><ele>397.0</ele><time>2026-04-19T10:44:17.771Z</time></trkpt><trkpt lat="42.39590948303449" lon="12.874667443815017"><ele>396.6666666666667</ele><time>2026-04-19T10:44:18.771Z</time></trkpt><trkpt lat="42.39593243872051" lon="12.874960108937893"><ele>396.33333333333337</ele><time>2026-04-19T10:44:19.771Z</time></trkpt><trkpt lat="42.39595192324439" lon="12.875240621591058"><ele>396.0</ele><time>2026-04-19T10:44:20.771Z</time></trkpt><trkpt lat="42.39596770966285" lon="12.875513005015154"><ele>395.66666666666663</ele><time>2026-04-19T10:44:21.771Z</time></trkpt><trkpt lat="42.395979948504305" lon="12.87577981681629"><ele>395.3333333333333</ele><time>2026-04-19T10:44:22.771Z</time></trkpt><trkpt lat="42.39598949164862" lon="12.876032931990254"><ele>395.0</ele><time>2026-04-19T10:44:23.771Z</time></trkpt><trkpt lat="42.395995556092714" lon="12.876289357551617"><ele>394.3333333333333</ele><time>2026-04-19T10:44:24.771Z</time></trkpt><trkpt lat="42.39599869706937" lon="12.87654580189552"><ele>393.66666666666663</ele><time>2026-04-19T10:44:25.771Z</time></trkpt><trkpt lat="42.39600570773854" lon="12.876805280173437"><ele>393.0</ele><time>2026-04-19T10:44:26.771Z</time></trkpt><trkpt lat="42.39600833454729" lon="12.877061116093197"><ele>393.0</ele><time>2026-04-19T10:44:27.771Z</time></trkpt><trkpt lat="42.39600747421734" lon="12.877320095734518"><ele>393.0</ele><time>2026-04-19T10:44:28.771Z</time></trkpt><trkpt lat="42.39599568483905" lon="12.877560565883309"><ele>393.0</ele><time>2026-04-19T10:44:29.771Z</time></trkpt><trkpt lat="42.395980582284494" lon="12.877805910895475"><ele>393.0</ele><time>2026-04-19T10:44:30.771Z</time></trkpt><trkpt lat="42.39595752017147" lon="12.878056427315352"><ele>393.0</ele><time>2026-04-19T10:44:31.771Z</time></trkpt><trkpt lat="42.39592915235849" lon="12.878302542178893"><ele>393.0</ele><time>2026-04-19T10:44:32.771Z</time></trkpt><trkpt lat="42.395904255106515" lon="12.878550574176964"><ele>393.0</ele><time>2026-04-19T10:44:33.771Z</time></trkpt><trkpt lat="42.39587188781527" lon="12.87878772353609"><ele>393.0</ele><time>2026-04-19T10:44:34.771Z</time></trkpt><trkpt lat="42.395831416420435" lon="12.879011935240161"><ele>393.0</ele><time>2026-04-19T10:44:35.77Z</time></trkpt><trkpt lat="42.395791022499324" lon="12.879228723537931"><ele>394.0</ele><time>2026-04-19T10:44:36.77Z</time></trkpt><trkpt lat="42.39574536808364" lon="12.879434789115338"><ele>395.0</ele><time>2026-04-19T10:44:37.77Z</time></trkpt><trkpt lat="42.39569107555929" lon="12.879640406532863"><ele>396.0</ele><time>2026-04-19T10:44:38.77Z</time></trkpt><trkpt lat="42.39563410702664" lon="12.879844338971953"><ele>396.0</ele><time>2026-04-19T10:44:39.77Z</time></trkpt><trkpt lat="42.395578377395786" lon="12.880048548156642"><ele>396.0</ele><time>2026-04-19T10:44:40.77Z</time></trkpt><trkpt lat="42.395523031964544" lon="12.880245453698286"><ele>396.0</ele><time>2026-04-19T10:44:41.77Z</time></trkpt><trkpt lat="42.39547167489707" lon="12.880436188111105"><ele>395.25</ele><time>2026-04-19T10:44:42.77Z</time></trkpt><trkpt lat="42.395414936643384" lon="12.8806139826866"><ele>394.5</ele><time>2026-04-19T10:44:43.77Z</time></trkpt><trkpt lat="42.395359328470235" lon="12.880776540890626"><ele>393.75</ele><time>2026-04-19T10:44:44.77Z</time></trkpt><trkpt lat="42.39530416367681" lon="12.8809476110473"><ele>393.0</ele><time>2026-04-19T10:44:45.77Z</time></trkpt><trkpt lat="42.39523898644773" lon="12.881117852351181"><ele>393.0</ele><time>2026-04-19T10:44:46.77Z</time></trkpt><trkpt lat="42.395165356843485" lon="12.881283464853128"><ele>393.0</ele><time>2026-04-19T10:44:47.77Z</time></trkpt><trkpt lat="42.395081642504714" lon="12.881439525150313"><ele>393.0</ele><time>2026-04-19T10:44:48.77Z</time></trkpt><trkpt lat="42.39498646183184" lon="12.8815844045583"><ele>393.0</ele><time>2026-04-19T10:44:49.77Z</time></trkpt><trkpt lat="42.39488141251875" lon="12.881721845650045"><ele>393.0</ele><time>2026-04-19T10:44:50.77Z</time></trkpt><trkpt lat="42.394772036949476" lon="12.88185076183625"><ele>393.0</ele><time>2026-04-19T10:44:51.77Z</time></trkpt><trkpt lat="42.39465967058694" lon="12.881967145355897"><ele>393.0</ele><time>2026-04-19T10:44:52.77Z</time></trkpt><trkpt lat="42.39454448572952" lon="12.882068558827475"><ele>393.0</ele><time>2026-04-19T10:44:53.77Z</time></trkpt><trkpt lat="42.39442619579819" lon="12.882154257300254"><ele>393.0</ele><time>2026-04-19T10:44:54.77Z</time></trkpt><trkpt lat="42.39429752793378" lon="12.882229207239714"><ele>393.0</ele><time>2026-04-19T10:44:55.77Z</time></trkpt><trkpt lat="42.39417013879112" lon="12.882310401315443"><ele>393.0</ele><time>2026-04-19T10:44:56.77Z</time></trkpt><trkpt lat="42.39407797805007" lon="12.882424021406788"><ele>393.0</ele><time>2026-04-19T10:44:57.77Z</time></trkpt><trkpt lat="42.39394991301261" lon="12.882467836960362"><ele>393.0</ele><time>2026-04-19T10:44:58.769Z</time></trkpt><trkpt lat="42.39386021448128" lon="12.88254149030392"><ele>393.0</ele><time>2026-04-19T10:44:59.769Z</time></trkpt><trkpt lat="42.393800740843396" lon="12.882639608485816"><ele>393.0</ele><time>2026-04-19T10:45:00.769Z</time></trkpt><trkpt lat="42.393758918441506" lon="12.882763483316102"><ele>393.0</ele><time>2026-04-19T10:45:01.769Z</time></trkpt><trkpt lat="42.39373868103893" lon="12.882897067154692"><ele>393.0</ele><time>2026-04-19T10:45:02.769Z</time></trkpt><trkpt lat="42.39374075998003" lon="12.883026877790744"><ele>393.0</ele><time>2026-04-19T10:45:03.769Z</time></trkpt><trkpt lat="42.393758402441804" lon="12.883160459915224"><ele>393.0</ele><time>2026-04-19T10:45:04.769Z</time></trkpt><trkpt lat="42.39380753945604" lon="12.883287466544328"><ele>393.0</ele><time>2026-04-19T10:45:05.769Z</time></trkpt><trkpt lat="42.393879832229175" lon="12.883418321165333"><ele>393.0</ele><time>2026-04-19T10:45:06.769Z</time></trkpt><trkpt lat="42.39396549088855" lon="12.883539530906148"><ele>394.25</ele><time>2026-04-19T10:45:07.769Z</time></trkpt><trkpt lat="42.39406509391956" lon="12.88365789390908"><ele>395.5</ele><time>2026-04-19T10:45:08.769Z</time></trkpt><trkpt lat="42.3941725247979" lon="12.883784690315125"><ele>396.75</ele><time>2026-04-19T10:45:09.769Z</time></trkpt><trkpt lat="42.39428037171523" lon="12.883920345990138"><ele>398.0</ele><time>2026-04-19T10:45:10.769Z</time></trkpt><trkpt lat="42.3943890046301" lon="12.884058185444369"><ele>398.0</ele><time>2026-04-19T10:45:11.769Z</time></trkpt><trkpt lat="42.394500987300034" lon="12.88419288725307"><ele>398.0</ele><time>2026-04-19T10:45:12.769Z</time></trkpt><trkpt lat="42.39461087595854" lon="12.884330462608482"><ele>398.0</ele><time>2026-04-19T10:45:13.769Z</time></trkpt><trkpt lat="42.394718046416514" lon="12.884467908002012"><ele>398.0</ele><time>2026-04-19T10:45:14.769Z</time></trkpt><trkpt lat="42.39482741347783" lon="12.88460623697362"><ele>398.66666666666663</ele><time>2026-04-19T10:45:15.769Z</time></trkpt><trkpt lat="42.39493494846619" lon="12.88474254860489"><ele>399.33333333333337</ele><time>2026-04-19T10:45:16.769Z</time></trkpt><trkpt lat="42.39504621655091" lon="12.884880512475325"><ele>400.0</ele><time>2026-04-19T10:45:17.769Z</time></trkpt><trkpt lat="42.39516585334901" lon="12.885021666202315"><ele>400.0</ele><time>2026-04-19T10:45:18.769Z</time></trkpt><trkpt lat="42.39528904140625" lon="12.885169712209729"><ele>400.0</ele><time>2026-04-19T10:45:19.769Z</time></trkpt><trkpt lat="42.395413186758645" lon="12.885328656554874"><ele>400.0</ele><time>2026-04-19T10:45:20.769Z</time></trkpt><trkpt lat="42.39554242491734" lon="12.885487975462429"><ele>400.0</ele><time>2026-04-19T10:45:21.768Z</time></trkpt><trkpt lat="42.395667949373475" lon="12.885652068236748"><ele>400.0</ele><time>2026-04-19T10:45:22.768Z</time></trkpt><trkpt lat="42.395794483923204" lon="12.885804183970372"><ele>400.0</ele><time>2026-04-19T10:45:23.768Z</time></trkpt><trkpt lat="42.395926932624924" lon="12.885960695032706"><ele>400.0</ele><time>2026-04-19T10:45:24.768Z</time></trkpt><trkpt lat="42.396063673074224" lon="12.886126572998428"><ele>400.0</ele><time>2026-04-19T10:45:25.768Z</time></trkpt><trkpt lat="42.39620401401037" lon="12.886292671781897"><ele>400.0</ele><time>2026-04-19T10:45:26.768Z</time></trkpt><trkpt lat="42.3963465695805" lon="12.886451126869494"><ele>400.33333333333337</ele><time>2026-04-19T10:45:27.768Z</time></trkpt><trkpt lat="42.39649280215799" lon="12.886604258756226"><ele>400.66666666666663</ele><time>2026-04-19T10:45:28.768Z</time></trkpt><trkpt lat="42.396642995516736" lon="12.886740722945548"><ele>401.0</ele><time>2026-04-19T10:45:29.768Z</time></trkpt><trkpt lat="42.39679516644018" lon="12.8868646601284"><ele>401.0</ele><time>2026-04-19T10:45:30.768Z</time></trkpt><trkpt lat="42.39694825861965" lon="12.88698111639418"><ele>401.0</ele><time>2026-04-19T10:45:31.768Z</time></trkpt><trkpt lat="42.39711019283422" lon="12.887092183468742"><ele>401.0</ele><time>2026-04-19T10:45:32.768Z</time></trkpt><trkpt lat="42.397278698512146" lon="12.887193898787892"><ele>402.3333333333333</ele><time>2026-04-19T10:45:33.768Z</time></trkpt><trkpt lat="42.39745832627163" lon="12.887281054791474"><ele>403.66666666666663</ele><time>2026-04-19T10:45:34.768Z</time></trkpt><trkpt lat="42.397626347968554" lon="12.887359651112037"><ele>405.0</ele><time>2026-04-19T10:45:35.768Z</time></trkpt><trkpt lat="42.3978070974799" lon="12.887435831301167"><ele>405.0</ele><time>2026-04-19T10:45:36.768Z</time></trkpt><trkpt lat="42.39797918268269" lon="12.887508676858928"><ele>405.0</ele><time>2026-04-19T10:45:37.768Z</time></trkpt><trkpt lat="42.398157047075074" lon="12.887574546649853"><ele>405.0</ele><time>2026-04-19T10:45:38.768Z</time></trkpt><trkpt lat="42.398334800258446" lon="12.887642678606316"><ele>405.0</ele><time>2026-04-19T10:45:39.768Z</time></trkpt><trkpt lat="42.39850684939563" lon="12.887710398335596"><ele>405.0</ele><time>2026-04-19T10:45:40.768Z</time></trkpt><trkpt lat="42.398678201962774" lon="12.887777940366412"><ele>405.0</ele><time>2026-04-19T10:45:41.768Z</time></trkpt><trkpt lat="42.39884983071072" lon="12.887844894950616"><ele>405.0</ele><time>2026-04-19T10:45:42.768Z</time></trkpt><trkpt lat="42.399018202627595" lon="12.887911338834478"><ele>405.0</ele><time>2026-04-19T10:45:43.768Z</time></trkpt><trkpt lat="42.39918467342114" lon="12.887979274020386"><ele>405.0</ele><time>2026-04-19T10:45:44.768Z</time></trkpt><trkpt lat="42.39935329357849" lon="12.88804361069409"><ele>405.0</ele><time>2026-04-19T10:45:45.768Z</time></trkpt><trkpt lat="42.39951952202284" lon="12.88811021267178"><ele>405.0</ele><time>2026-04-19T10:45:46.767Z</time></trkpt><trkpt lat="42.399684685153964" lon="12.888176857297859"><ele>405.0</ele><time>2026-04-19T10:45:47.768Z</time></trkpt><trkpt lat="42.39985188409627" lon="12.88824659747595"><ele>406.0</ele><time>2026-04-19T10:45:48.768Z</time></trkpt><trkpt lat="42.40002421132233" lon="12.88831801883816"><ele>407.0</ele><time>2026-04-19T10:45:49.768Z</time></trkpt><trkpt lat="42.40019605430758" lon="12.888387721565312"><ele>408.0</ele><time>2026-04-19T10:45:50.768Z</time></trkpt><trkpt lat="42.400372337218286" lon="12.88845249866039"><ele>408.33333333333337</ele><time>2026-04-19T10:45:51.768Z</time></trkpt><trkpt lat="42.400543509865265" lon="12.888518274037981"><ele>408.6666666666667</ele><time>2026-04-19T10:45:52.768Z</time></trkpt><trkpt lat="42.400720396232266" lon="12.888585877875665"><ele>409.0</ele><time>2026-04-19T10:45:53.768Z</time></trkpt><trkpt lat="42.400895490319435" lon="12.888652499797185"><ele>409.0</ele><time>2026-04-19T10:45:54.768Z</time></trkpt><trkpt lat="42.40106922402567" lon="12.88872372386209"><ele>409.0</ele><time>2026-04-19T10:45:55.768Z</time></trkpt><trkpt lat="42.40124089800729" lon="12.888794088881875"><ele>409.0</ele><time>2026-04-19T10:45:56.768Z</time></trkpt><trkpt lat="42.40140836649233" lon="12.888863986490058"><ele>412.0</ele><time>2026-04-19T10:45:57.768Z</time></trkpt><trkpt lat="42.40157110576484" lon="12.888938491466229"><ele>415.0</ele><time>2026-04-19T10:45:58.768Z</time></trkpt><trkpt lat="42.40172907367054" lon="12.8890212888109"><ele>418.0</ele><time>2026-04-19T10:45:59.768Z</time></trkpt><trkpt lat="42.40189134504886" lon="12.889114885363188"><ele>418.0</ele><time>2026-04-19T10:46:00.768Z</time></trkpt><trkpt lat="42.40205060245639" lon="12.889226005028133"><ele>418.0</ele><time>2026-04-19T10:46:01.768Z</time></trkpt><trkpt lat="42.40219738741836" lon="12.889356131398896"><ele>418.0</ele><time>2026-04-19T10:46:02.767Z</time></trkpt><trkpt lat="42.40233738134074" lon="12.889489402890415"><ele>417.6666666666667</ele><time>2026-04-19T10:46:03.767Z</time></trkpt><trkpt lat="42.402489288500824" lon="12.889641009070795"><ele>417.33333333333337</ele><time>2026-04-19T10:46:04.767Z</time></trkpt><trkpt lat="42.40263090972098" lon="12.88979834960959"><ele>417.0</ele><time>2026-04-19T10:46:05.767Z</time></trkpt><trkpt lat="42.40273771222039" lon="12.889972395431295"><ele>417.0</ele><time>2026-04-19T10:46:06.767Z</time></trkpt><trkpt lat="42.40285738010843" lon="12.890133185311901"><ele>417.0</ele><time>2026-04-19T10:46:07.767Z</time></trkpt><trkpt lat="42.402941013175166" lon="12.890313533086179"><ele>417.0</ele><time>2026-04-19T10:46:08.767Z</time></trkpt><trkpt lat="42.40301846243533" lon="12.890470526424181"><ele>417.0</ele><time>2026-04-19T10:46:09.767Z</time></trkpt><trkpt lat="42.40307797305551" lon="12.890605451525568"><ele>417.0</ele><time>2026-04-19T10:46:10.767Z</time></trkpt><trkpt lat="42.403128223492565" lon="12.890739775632397"><ele>417.0</ele><time>2026-04-19T10:46:11.767Z</time></trkpt><trkpt lat="42.40318388348587" lon="12.89091789957779"><ele>417.0</ele><time>2026-04-19T10:46:13.767Z</time></trkpt><trkpt lat="42.403225850570955" lon="12.891074771764442"><ele>416.5</ele><time>2026-04-19T10:46:14.767Z</time></trkpt><trkpt lat="42.40327568075907" lon="12.891216583300498"><ele>416.0</ele><time>2026-04-19T10:46:15.767Z</time></trkpt><trkpt lat="42.40330830975271" lon="12.891373300264942"><ele>415.5</ele><time>2026-04-19T10:46:16.767Z</time></trkpt><trkpt lat="42.403337558374005" lon="12.891525220410324"><ele>415.0</ele><time>2026-04-19T10:46:17.767Z</time></trkpt><trkpt lat="42.40336435327362" lon="12.89167059999702"><ele>415.8</ele><time>2026-04-19T10:46:18.767Z</time></trkpt><trkpt lat="42.40338521278969" lon="12.891813176941357"><ele>416.6</ele><time>2026-04-19T10:46:19.767Z</time></trkpt><trkpt lat="42.40340621976758" lon="12.891946866355854"><ele>417.4</ele><time>2026-04-19T10:46:20.767Z</time></trkpt><trkpt lat="42.403423222599486" lon="12.892077412055505"><ele>418.2</ele><time>2026-04-19T10:46:21.767Z</time></trkpt><trkpt lat="42.403437646978325" lon="12.89221268617307"><ele>419.0</ele><time>2026-04-19T10:46:22.767Z</time></trkpt><trkpt lat="42.40345721435323" lon="12.892343931937496"><ele>419.0</ele><time>2026-04-19T10:46:23.767Z</time></trkpt><trkpt lat="42.40347669935944" lon="12.892470925230974"><ele>419.0</ele><time>2026-04-19T10:46:24.767Z</time></trkpt><trkpt lat="42.40349954755496" lon="12.892601351976763"><ele>419.0</ele><time>2026-04-19T10:46:25.766Z</time></trkpt><trkpt lat="42.40351786791637" lon="12.892734800910072"><ele>419.0</ele><time>2026-04-19T10:46:26.766Z</time></trkpt><trkpt lat="42.40353720991817" lon="12.892872354199318"><ele>419.0</ele><time>2026-04-19T10:46:27.766Z</time></trkpt><trkpt lat="42.40355726485893" lon="12.893007407484294"><ele>421.2</ele><time>2026-04-19T10:46:28.766Z</time></trkpt><trkpt lat="42.40357361186592" lon="12.893137196102503"><ele>423.4</ele><time>2026-04-19T10:46:29.766Z</time></trkpt><trkpt lat="42.40359245746193" lon="12.89326039769694"><ele>425.6</ele><time>2026-04-19T10:46:30.766Z</time></trkpt><trkpt lat="42.40360866667579" lon="12.893377257457535"><ele>427.8</ele><time>2026-04-19T10:46:31.766Z</time></trkpt><trkpt lat="42.40362658131556" lon="12.893498459547498"><ele>430.0</ele><time>2026-04-19T10:46:32.766Z</time></trkpt><trkpt lat="42.40364574699132" lon="12.893619563578337"><ele>433.8</ele><time>2026-04-19T10:46:33.766Z</time></trkpt><trkpt lat="42.40366514419732" lon="12.893738565284735"><ele>437.6</ele><time>2026-04-19T10:46:34.766Z</time></trkpt><trkpt lat="42.40368465999937" lon="12.893859453549117"><ele>441.4</ele><time>2026-04-19T10:46:35.766Z</time></trkpt><trkpt lat="42.4036993528754" lon="12.893978064837876"><ele>445.2</ele><time>2026-04-19T10:46:36.766Z</time></trkpt><trkpt lat="42.403715093534096" lon="12.894098893443683"><ele>449.0</ele><time>2026-04-19T10:46:37.766Z</time></trkpt><trkpt lat="42.403734695817214" lon="12.894223688464983"><ele>450.2</ele><time>2026-04-19T10:46:38.766Z</time></trkpt><trkpt lat="42.4037471650766" lon="12.894347344640906"><ele>451.4</ele><time>2026-04-19T10:46:39.766Z</time></trkpt><trkpt lat="42.40376475424267" lon="12.894466508579974"><ele>452.6</ele><time>2026-04-19T10:46:40.766Z</time></trkpt><trkpt lat="42.40378077654265" lon="12.894588566328553"><ele>453.8</ele><time>2026-04-19T10:46:41.766Z</time></trkpt><trkpt lat="42.40379830143296" lon="12.894707128840315"><ele>455.0</ele><time>2026-04-19T10:46:42.766Z</time></trkpt><trkpt lat="42.40381796411677" lon="12.89483212351628"><ele>447.8</ele><time>2026-04-19T10:46:43.766Z</time></trkpt><trkpt lat="42.40383668805673" lon="12.894960547282697"><ele>440.6</ele><time>2026-04-19T10:46:44.766Z</time></trkpt><trkpt lat="42.403856211625026" lon="12.895091259091206"><ele>433.4</ele><time>2026-04-19T10:46:45.766Z</time></trkpt><trkpt lat="42.40387823692326" lon="12.895225232302534"><ele>426.2</ele><time>2026-04-19T10:46:46.766Z</time></trkpt><trkpt lat="42.40389883803661" lon="12.8953639337531"><ele>419.0</ele><time>2026-04-19T10:46:47.766Z</time></trkpt><trkpt lat="42.4039145936311" lon="12.8955072164961"><ele>419.0</ele><time>2026-04-19T10:46:48.765Z</time></trkpt><trkpt lat="42.403934352887596" lon="12.895651687081367"><ele>419.0</ele><time>2026-04-19T10:46:49.765Z</time></trkpt><trkpt lat="42.40395384362042" lon="12.895799026786413"><ele>419.0</ele><time>2026-04-19T10:46:50.765Z</time></trkpt><trkpt lat="42.40398024097108" lon="12.895948778272684"><ele>419.0</ele><time>2026-04-19T10:46:51.765Z</time></trkpt><trkpt lat="42.40401170536659" lon="12.896102437785363"><ele>419.79999999999995</ele><time>2026-04-19T10:46:52.765Z</time></trkpt><trkpt lat="42.40404782305704" lon="12.896245515829257"><ele>420.59999999999997</ele><time>2026-04-19T10:46:53.765Z</time></trkpt><trkpt lat="42.40408779556323" lon="12.896386912973702"><ele>421.4</ele><time>2026-04-19T10:46:54.765Z</time></trkpt><trkpt lat="42.40414256672914" lon="12.896520478479971"><ele>422.2</ele><time>2026-04-19T10:46:55.765Z</time></trkpt><trkpt lat="42.4042057790832" lon="12.896647265420283"><ele>423.0</ele><time>2026-04-19T10:46:56.765Z</time></trkpt><trkpt lat="42.40427270904408" lon="12.89677500367989"><ele>424.5</ele><time>2026-04-19T10:46:57.765Z</time></trkpt><trkpt lat="42.404353062635685" lon="12.896893697380122"><ele>426.0</ele><time>2026-04-19T10:46:58.765Z</time></trkpt><trkpt lat="42.404441805176" lon="12.896991012885572"><ele>427.5</ele><time>2026-04-19T10:46:59.765Z</time></trkpt><trkpt lat="42.404539612058784" lon="12.897073515656345"><ele>429.0</ele><time>2026-04-19T10:47:00.765Z</time></trkpt><trkpt lat="42.40463887072821" lon="12.897134126488508"><ele>428.3333333333333</ele><time>2026-04-19T10:47:01.765Z</time></trkpt><trkpt lat="42.40473290999124" lon="12.897175172149847"><ele>427.66666666666663</ele><time>2026-04-19T10:47:02.765Z</time></trkpt><trkpt lat="42.40481405287734" lon="12.897210451611574"><ele>427.0</ele><time>2026-04-19T10:47:03.765Z</time></trkpt><trkpt lat="42.40489100521856" lon="12.897250046472228"><ele>426.3333333333333</ele><time>2026-04-19T10:47:04.765Z</time></trkpt><trkpt lat="42.404958337077886" lon="12.897285918094159"><ele>425.66666666666663</ele><time>2026-04-19T10:47:05.765Z</time></trkpt><trkpt lat="42.40501850251078" lon="12.897333283270218"><ele>425.0</ele><time>2026-04-19T10:47:06.765Z</time></trkpt><trkpt lat="42.405088072462185" lon="12.897371952257513"><ele>424.99999999999994</ele><time>2026-04-19T10:47:07.765Z</time></trkpt><trkpt lat="42.40513616245965" lon="12.897470910179065"><ele>425.0</ele><time>2026-04-19T10:47:08.765Z</time></trkpt><trkpt lat="42.40520170472894" lon="12.897516853004218"><ele>425.0</ele><time>2026-04-19T10:47:09.765Z</time></trkpt><trkpt lat="42.405275512040845" lon="12.897526669309968"><ele>425.0</ele><time>2026-04-19T10:47:10.765Z</time></trkpt><trkpt lat="42.40533757627686" lon="12.897496166570493"><ele>424.99999999999994</ele><time>2026-04-19T10:47:11.764Z</time></trkpt><trkpt lat="42.405395300494106" lon="12.897434374591775"><ele>425.0</ele><time>2026-04-19T10:47:12.764Z</time></trkpt><trkpt lat="42.40545550038264" lon="12.897360431758157"><ele>425.0</ele><time>2026-04-19T10:47:13.764Z</time></trkpt><trkpt lat="42.405480234046614" lon="12.897232309113173"><ele>425.0</ele><time>2026-04-19T10:47:14.764Z</time></trkpt><trkpt lat="42.405459266367494" lon="12.89709555030334"><ele>425.0</ele><time>2026-04-19T10:47:15.764Z</time></trkpt><trkpt lat="42.40539963780659" lon="12.896980732610103"><ele>425.0</ele><time>2026-04-19T10:47:16.764Z</time></trkpt><trkpt lat="42.40537339751234" lon="12.89686661009096"><ele>425.0</ele><time>2026-04-19T10:47:17.764Z</time></trkpt><trkpt lat="42.40535941064954" lon="12.896741885087744"><ele>424.0</ele><time>2026-04-19T10:47:18.764Z</time></trkpt><trkpt lat="42.405386779774105" lon="12.896584195913336"><ele>423.0</ele><time>2026-04-19T10:47:19.764Z</time></trkpt><trkpt lat="42.40541595783598" lon="12.896423961127926"><ele>422.0</ele><time>2026-04-19T10:47:20.764Z</time></trkpt><trkpt lat="42.40544866957916" lon="12.896253111078881"><ele>421.0</ele><time>2026-04-19T10:47:21.764Z</time></trkpt><trkpt lat="42.40548700289908" lon="12.896074910294745"><ele>421.0</ele><time>2026-04-19T10:47:22.764Z</time></trkpt><trkpt lat="42.40552502179259" lon="12.895891016739498"><ele>421.0</ele><time>2026-04-19T10:47:23.764Z</time></trkpt><trkpt lat="42.40556355795863" lon="12.895701730145886"><ele>421.0</ele><time>2026-04-19T10:47:24.764Z</time></trkpt><trkpt lat="42.40559915761892" lon="12.895524421546945"><ele>421.0</ele><time>2026-04-19T10:47:25.764Z</time></trkpt><trkpt lat="42.405633025648" lon="12.895351053530852"><ele>421.0</ele><time>2026-04-19T10:47:26.764Z</time></trkpt><trkpt lat="42.4056674456359" lon="12.895175711183937"><ele>421.0</ele><time>2026-04-19T10:47:27.764Z</time></trkpt><trkpt lat="42.40569898723526" lon="12.89499140750097"><ele>421.0</ele><time>2026-04-19T10:47:28.764Z</time></trkpt><trkpt lat="42.405723217202464" lon="12.894799569498597"><ele>421.0</ele><time>2026-04-19T10:47:29.764Z</time></trkpt><trkpt lat="42.405737648466754" lon="12.894612228710509"><ele>421.0</ele><time>2026-04-19T10:47:30.764Z</time></trkpt><trkpt lat="42.40574449029453" lon="12.894418646456598"><ele>421.0</ele><time>2026-04-19T10:47:31.764Z</time></trkpt><trkpt lat="42.405734313072735" lon="12.894220481372468"><ele>421.0</ele><time>2026-04-19T10:47:32.764Z</time></trkpt><trkpt lat="42.40571223352968" lon="12.894022225615132"><ele>421.0</ele><time>2026-04-19T10:47:33.764Z</time></trkpt><trkpt lat="42.40567914476741" lon="12.893826726491035"><ele>420.75</ele><time>2026-04-19T10:47:34.763Z</time></trkpt><trkpt lat="42.40564970740289" lon="12.8936395422356"><ele>420.5</ele><time>2026-04-19T10:47:35.763Z</time></trkpt><trkpt lat="42.405611330789846" lon="12.89344466858375"><ele>420.25</ele><time>2026-04-19T10:47:36.763Z</time></trkpt><trkpt lat="42.405577769882704" lon="12.893258300410315"><ele>420.0</ele><time>2026-04-19T10:47:37.763Z</time></trkpt><trkpt lat="42.40554300156878" lon="12.893073843865498"><ele>420.0</ele><time>2026-04-19T10:47:38.763Z</time></trkpt><trkpt lat="42.40551272026977" lon="12.892885077387422"><ele>420.0</ele><time>2026-04-19T10:47:39.763Z</time></trkpt><trkpt lat="42.40550083508536" lon="12.892696778653388"><ele>420.0</ele><time>2026-04-19T10:47:40.763Z</time></trkpt><trkpt lat="42.40549801198857" lon="12.89250865068715"><ele>420.0</ele><time>2026-04-19T10:47:41.763Z</time></trkpt><trkpt lat="42.40550523845086" lon="12.892324192856515"><ele>419.75</ele><time>2026-04-19T10:47:42.763Z</time></trkpt><trkpt lat="42.4055207237279" lon="12.892158277375058"><ele>419.5</ele><time>2026-04-19T10:47:43.763Z</time></trkpt><trkpt lat="42.40552443456314" lon="12.89197613092622"><ele>419.25</ele><time>2026-04-19T10:47:44.763Z</time></trkpt><trkpt lat="42.40552706243162" lon="12.891801137599725"><ele>419.0</ele><time>2026-04-19T10:47:45.763Z</time></trkpt><trkpt lat="42.405537659888886" lon="12.891633564846979"><ele>418.79999999999995</ele><time>2026-04-19T10:47:46.763Z</time></trkpt><trkpt lat="42.40554240483128" lon="12.891474634393337"><ele>418.59999999999997</ele><time>2026-04-19T10:47:47.763Z</time></trkpt><trkpt lat="42.4055498168348" lon="12.891313962457998"><ele>418.4</ele><time>2026-04-19T10:47:48.763Z</time></trkpt><trkpt lat="42.40555857622782" lon="12.89116530473919"><ele>418.2</ele><time>2026-04-19T10:47:49.763Z</time></trkpt><trkpt lat="42.40555817772227" lon="12.891027598886161"><ele>418.0</ele><time>2026-04-19T10:47:50.763Z</time></trkpt><trkpt lat="42.40556315551818" lon="12.890894229461207"><ele>417.83333333333337</ele><time>2026-04-19T10:47:51.763Z</time></trkpt><trkpt lat="42.40556852549406" lon="12.89077117813768"><ele>417.6666666666667</ele><time>2026-04-19T10:47:52.763Z</time></trkpt><trkpt lat="42.40557635807438" lon="12.890659013504795"><ele>417.5</ele><time>2026-04-19T10:47:53.762Z</time></trkpt><trkpt lat="42.40558422172414" lon="12.890541502078934"><ele>417.33333333333337</ele><time>2026-04-19T10:47:54.762Z</time></trkpt><trkpt lat="42.40559626556952" lon="12.89041805672196"><ele>417.1666666666667</ele><time>2026-04-19T10:47:55.762Z</time></trkpt><trkpt lat="42.405603333409346" lon="12.890288962177197"><ele>417.0</ele><time>2026-04-19T10:47:56.763Z</time></trkpt><trkpt lat="42.4056091478466" lon="12.890160232905258"><ele>417.0</ele><time>2026-04-19T10:47:57.763Z</time></trkpt><trkpt lat="42.405610440550255" lon="12.890018195444767"><ele>417.0</ele><time>2026-04-19T10:47:58.763Z</time></trkpt><trkpt lat="42.405617404575274" lon="12.889872920659547"><ele>417.0</ele><time>2026-04-19T10:47:59.763Z</time></trkpt><trkpt lat="42.40562789817618" lon="12.889727592456433"><ele>417.0</ele><time>2026-04-19T10:48:00.763Z</time></trkpt><trkpt lat="42.405634472210615" lon="12.889584907635225"><ele>417.0</ele><time>2026-04-19T10:48:01.762Z</time></trkpt><trkpt lat="42.40563706808561" lon="12.889454250932266"><ele>417.0</ele><time>2026-04-19T10:48:02.762Z</time></trkpt><trkpt lat="42.40563642239709" lon="12.889337083764577"><ele>417.0</ele><time>2026-04-19T10:48:03.762Z</time></trkpt><trkpt lat="42.40563969089285" lon="12.889230814875464"><ele>417.0</ele><time>2026-04-19T10:48:04.762Z</time></trkpt><trkpt lat="42.405646035489156" lon="12.8891457676286"><ele>417.0</ele><time>2026-04-19T10:48:05.762Z</time></trkpt><trkpt lat="42.405659882543574" lon="12.888992433305162"><ele>417.0</ele><time>2026-04-19T10:48:07.762Z</time></trkpt><trkpt lat="42.405665766750616" lon="12.888880013664592"><ele>417.0</ele><time>2026-04-19T10:48:08.762Z</time></trkpt><trkpt lat="42.405670157035324" lon="12.888736455126722"><ele>417.0</ele><time>2026-04-19T10:48:09.762Z</time></trkpt><trkpt lat="42.405674844631974" lon="12.888576864298544"><ele>417.0</ele><time>2026-04-19T10:48:10.762Z</time></trkpt><trkpt lat="42.405678947294106" lon="12.888412109046062"><ele>417.0</ele><time>2026-04-19T10:48:11.762Z</time></trkpt><trkpt lat="42.40568173054543" lon="12.88825411152409"><ele>417.0</ele><time>2026-04-19T10:48:12.762Z</time></trkpt><trkpt lat="42.40568588067217" lon="12.888096840242003"><ele>416.5</ele><time>2026-04-19T10:48:13.762Z</time></trkpt><trkpt lat="42.40569273627703" lon="12.887933225613757"><ele>416.0</ele><time>2026-04-19T10:48:14.762Z</time></trkpt><trkpt lat="42.40569882919657" lon="12.887766215354713"><ele>415.5</ele><time>2026-04-19T10:48:15.762Z</time></trkpt><trkpt lat="42.40570588286348" lon="12.887595433083163"><ele>415.0</ele><time>2026-04-19T10:48:16.762Z</time></trkpt><trkpt lat="42.405715494214036" lon="12.887417007385347"><ele>414.5</ele><time>2026-04-19T10:48:17.762Z</time></trkpt><trkpt lat="42.405720537487866" lon="12.88723206451162"><ele>414.0</ele><time>2026-04-19T10:48:18.762Z</time></trkpt><trkpt lat="42.40572295056023" lon="12.887050424776723"><ele>413.5</ele><time>2026-04-19T10:48:19.762Z</time></trkpt><trkpt lat="42.40572416319627" lon="12.886872197711737"><ele>413.0</ele><time>2026-04-19T10:48:20.762Z</time></trkpt><trkpt lat="42.40573218413629" lon="12.886697100116294"><ele>412.75</ele><time>2026-04-19T10:48:21.762Z</time></trkpt><trkpt lat="42.40574054296458" lon="12.886529396563283"><ele>412.5</ele><time>2026-04-19T10:48:22.762Z</time></trkpt><trkpt lat="42.40574641601397" lon="12.886363957803898"><ele>412.25</ele><time>2026-04-19T10:48:23.762Z</time></trkpt><trkpt lat="42.40575241236372" lon="12.886189833692256"><ele>412.0</ele><time>2026-04-19T10:48:24.761Z</time></trkpt><trkpt lat="42.405756887236755" lon="12.886017251159531"><ele>411.75</ele><time>2026-04-19T10:48:25.761Z</time></trkpt><trkpt lat="42.405759086231654" lon="12.885842762539582"><ele>411.5</ele><time>2026-04-19T10:48:26.761Z</time></trkpt><trkpt lat="42.40576613992179" lon="12.885665211876988"><ele>411.25</ele><time>2026-04-19T10:48:27.761Z</time></trkpt><trkpt lat="42.405775932239294" lon="12.88548321599615"><ele>411.0</ele><time>2026-04-19T10:48:28.761Z</time></trkpt><trkpt lat="42.40577993476881" lon="12.885303777451512"><ele>411.0</ele><time>2026-04-19T10:48:29.761Z</time></trkpt><trkpt lat="42.40578408635394" lon="12.88513013692757"><ele>411.0</ele><time>2026-04-19T10:48:30.761Z</time></trkpt><trkpt lat="42.40579057335197" lon="12.884960290633721"><ele>411.0</ele><time>2026-04-19T10:48:31.761Z</time></trkpt><trkpt lat="42.40579627999673" lon="12.884796810832775"><ele>411.0</ele><time>2026-04-19T10:48:32.761Z</time></trkpt><trkpt lat="42.405801404125214" lon="12.884637037124621"><ele>411.0</ele><time>2026-04-19T10:48:33.761Z</time></trkpt><trkpt lat="42.405809116926214" lon="12.884477252176291"><ele>411.0</ele><time>2026-04-19T10:48:34.761Z</time></trkpt><trkpt lat="42.40581756868477" lon="12.884321613654366"><ele>411.0</ele><time>2026-04-19T10:48:35.761Z</time></trkpt><trkpt lat="42.405825081393075" lon="12.884162731774252"><ele>411.0</ele><time>2026-04-19T10:48:36.761Z</time></trkpt><trkpt lat="42.40583357038121" lon="12.884001823931174"><ele>411.5</ele><time>2026-04-19T10:48:37.761Z</time></trkpt><trkpt lat="42.405841796473936" lon="12.88384043610908"><ele>412.0</ele><time>2026-04-19T10:48:38.761Z</time></trkpt><trkpt lat="42.405845253905575" lon="12.883682668191584"><ele>412.5</ele><time>2026-04-19T10:48:39.761Z</time></trkpt><trkpt lat="42.4058468944276" lon="12.883523113481548"><ele>413.0</ele><time>2026-04-19T10:48:40.761Z</time></trkpt><trkpt lat="42.40584941375285" lon="12.883363137372577"><ele>413.25</ele><time>2026-04-19T10:48:41.761Z</time></trkpt><trkpt lat="42.40585316322453" lon="12.88320488456657"><ele>413.5</ele><time>2026-04-19T10:48:42.761Z</time></trkpt><trkpt lat="42.40585654011494" lon="12.883041540845067"><ele>413.75</ele><time>2026-04-19T10:48:43.761Z</time></trkpt><trkpt lat="42.405862102308134" lon="12.882878748517054"><ele>414.0</ele><time>2026-04-19T10:48:44.761Z</time></trkpt><trkpt lat="42.40587001526801" lon="12.882715043808012"><ele>414.5</ele><time>2026-04-19T10:48:45.761Z</time></trkpt><trkpt lat="42.40587322124001" lon="12.882550715848415"><ele>415.0</ele><time>2026-04-19T10:48:46.761Z</time></trkpt><trkpt lat="42.40587708895133" lon="12.882383172612903"><ele>415.5</ele><time>2026-04-19T10:48:47.76Z</time></trkpt><trkpt lat="42.40587635684292" lon="12.882207591163876"><ele>416.0</ele><time>2026-04-19T10:48:48.76Z</time></trkpt><trkpt lat="42.40587520573591" lon="12.88203187604904"><ele>416.0</ele><time>2026-04-19T10:48:49.76Z</time></trkpt><trkpt lat="42.405876010389456" lon="12.881849978698162"><ele>416.0</ele><time>2026-04-19T10:48:50.76Z</time></trkpt><trkpt lat="42.405877340107644" lon="12.881671136762424"><ele>416.0</ele><time>2026-04-19T10:48:51.76Z</time></trkpt><trkpt lat="42.40587388359464" lon="12.881486428694949"><ele>416.0</ele><time>2026-04-19T10:48:52.76Z</time></trkpt><trkpt lat="42.40587844816021" lon="12.881308028199436"><ele>415.0</ele><time>2026-04-19T10:48:53.76Z</time></trkpt><trkpt lat="42.40588631386809" lon="12.881129975489793"><ele>414.0</ele><time>2026-04-19T10:48:54.76Z</time></trkpt><trkpt lat="42.405888346877745" lon="12.880953370374458"><ele>413.0</ele><time>2026-04-19T10:48:55.76Z</time></trkpt><trkpt lat="42.40588602091606" lon="12.88077882153471"><ele>412.0</ele><time>2026-04-19T10:48:56.76Z</time></trkpt><trkpt lat="42.405888136374756" lon="12.88061748508933"><ele>412.0</ele><time>2026-04-19T10:48:57.76Z</time></trkpt><trkpt lat="42.405886121710715" lon="12.880451852814243"><ele>412.0</ele><time>2026-04-19T10:48:58.76Z</time></trkpt><trkpt lat="42.405885998405225" lon="12.880282520239142"><ele>412.0</ele><time>2026-04-19T10:48:59.76Z</time></trkpt><trkpt lat="42.405884884674414" lon="12.880106730543933"><ele>412.0</ele><time>2026-04-19T10:49:00.76Z</time></trkpt><trkpt lat="42.405883374854334" lon="12.879930129907192"><ele>412.0</ele><time>2026-04-19T10:49:01.76Z</time></trkpt><trkpt lat="42.405881841428204" lon="12.879753296380066"><ele>412.0</ele><time>2026-04-19T10:49:02.76Z</time></trkpt><trkpt lat="42.40587888879441" lon="12.87957524634715"><ele>412.0</ele><time>2026-04-19T10:49:03.76Z</time></trkpt><trkpt lat="42.40587848683311" lon="12.879390434931109"><ele>412.0</ele><time>2026-04-19T10:49:04.76Z</time></trkpt><trkpt lat="42.40587522850222" lon="12.879202644171992"><ele>411.25</ele><time>2026-04-19T10:49:05.76Z</time></trkpt><trkpt lat="42.405870609740866" lon="12.87901197868127"><ele>410.5</ele><time>2026-04-19T10:49:06.76Z</time></trkpt><trkpt lat="42.40586578277264" lon="12.878821002038576"><ele>409.75</ele><time>2026-04-19T10:49:07.76Z</time></trkpt><trkpt lat="42.40586488727617" lon="12.878628475803911"><ele>409.0</ele><time>2026-04-19T10:49:08.76Z</time></trkpt><trkpt lat="42.40585757650073" lon="12.878431992772068"><ele>408.75</ele><time>2026-04-19T10:49:09.76Z</time></trkpt><trkpt lat="42.405850063869686" lon="12.878234688489508"><ele>408.5</ele><time>2026-04-19T10:49:10.759Z</time></trkpt><trkpt lat="42.405846587436024" lon="12.878037402495226"><ele>408.25</ele><time>2026-04-19T10:49:11.759Z</time></trkpt><trkpt lat="42.40584328167581" lon="12.87784107080046"><ele>408.0</ele><time>2026-04-19T10:49:12.759Z</time></trkpt><trkpt lat="42.405842997472334" lon="12.877645942297821"><ele>408.0</ele><time>2026-04-19T10:49:13.759Z</time></trkpt><trkpt lat="42.40583939466213" lon="12.877454883611634"><ele>408.0</ele><time>2026-04-19T10:49:14.759Z</time></trkpt><trkpt lat="42.405833474016845" lon="12.877263293117126"><ele>408.0</ele><time>2026-04-19T10:49:15.759Z</time></trkpt><trkpt lat="42.40582715372116" lon="12.877075045884634"><ele>408.0</ele><time>2026-04-19T10:49:16.759Z</time></trkpt><trkpt lat="42.40581703853332" lon="12.876890701449867"><ele>407.75</ele><time>2026-04-19T10:49:17.759Z</time></trkpt><trkpt lat="42.40579973403205" lon="12.876710268892605"><ele>407.5</ele><time>2026-04-19T10:49:18.759Z</time></trkpt><trkpt lat="42.40577732242157" lon="12.87652722019767"><ele>407.25</ele><time>2026-04-19T10:49:19.759Z</time></trkpt><trkpt lat="42.40575316130036" lon="12.876351859838014"><ele>407.0</ele><time>2026-04-19T10:49:20.759Z</time></trkpt><trkpt lat="42.40572660508975" lon="12.876175068433625"><ele>407.0</ele><time>2026-04-19T10:49:21.759Z</time></trkpt><trkpt lat="42.40569674127183" lon="12.876001004725941"><ele>407.0</ele><time>2026-04-19T10:49:22.759Z</time></trkpt><trkpt lat="42.40566513379512" lon="12.875828538475206"><ele>407.0</ele><time>2026-04-19T10:49:23.759Z</time></trkpt><trkpt lat="42.405635526594914" lon="12.8756615182606"><ele>407.0</ele><time>2026-04-19T10:49:24.759Z</time></trkpt><trkpt lat="42.4056051210414" lon="12.87548230978372"><ele>406.5</ele><time>2026-04-19T10:49:25.759Z</time></trkpt><trkpt lat="42.405576475090406" lon="12.87530038661424"><ele>406.0</ele><time>2026-04-19T10:49:26.759Z</time></trkpt><trkpt lat="42.4055462819704" lon="12.875120835188508"><ele>405.5</ele><time>2026-04-19T10:49:27.759Z</time></trkpt><trkpt lat="42.40551869572272" lon="12.874942860799203"><ele>405.0</ele><time>2026-04-19T10:49:28.759Z</time></trkpt><trkpt lat="42.4054915778137" lon="12.874761641646655"><ele>405.0</ele><time>2026-04-19T10:49:29.759Z</time></trkpt><trkpt lat="42.405460966583725" lon="12.874577900374879"><ele>405.0</ele><time>2026-04-19T10:49:30.759Z</time></trkpt><trkpt lat="42.405432749025" lon="12.87439947838692"><ele>405.0</ele><time>2026-04-19T10:49:31.759Z</time></trkpt><trkpt lat="42.40539984733484" lon="12.874225880882243"><ele>405.0</ele><time>2026-04-19T10:49:32.759Z</time></trkpt><trkpt lat="42.405375541756484" lon="12.874057543141335"><ele>405.0</ele><time>2026-04-19T10:49:33.758Z</time></trkpt><trkpt lat="42.40534815585707" lon="12.873894244500201"><ele>405.0</ele><time>2026-04-19T10:49:34.758Z</time></trkpt><trkpt lat="42.40532125383179" lon="12.873740296084922"><ele>405.0</ele><time>2026-04-19T10:49:35.758Z</time></trkpt><trkpt lat="42.405291724392875" lon="12.873584432354125"><ele>405.0</ele><time>2026-04-19T10:49:36.758Z</time></trkpt><trkpt lat="42.405264421688905" lon="12.873430955488512"><ele>405.0</ele><time>2026-04-19T10:49:37.758Z</time></trkpt><trkpt lat="42.40524100348991" lon="12.873284991296952"><ele>405.0</ele><time>2026-04-19T10:49:38.758Z</time></trkpt><trkpt lat="42.40521280754346" lon="12.873143993202376"><ele>405.0</ele><time>2026-04-19T10:49:39.758Z</time></trkpt><trkpt lat="42.40518800594958" lon="12.87300488940484"><ele>405.0</ele><time>2026-04-19T10:49:40.758Z</time></trkpt><trkpt lat="42.40516976224131" lon="12.872863582027989"><ele>405.0</ele><time>2026-04-19T10:49:41.758Z</time></trkpt><trkpt lat="42.405147048469914" lon="12.87272870335991"><ele>404.8333333333333</ele><time>2026-04-19T10:49:42.758Z</time></trkpt><trkpt lat="42.405122608511434" lon="12.872600745392473"><ele>404.66666666666663</ele><time>2026-04-19T10:49:43.758Z</time></trkpt><trkpt lat="42.40510020576875" lon="12.872474895769386"><ele>404.5</ele><time>2026-04-19T10:49:44.758Z</time></trkpt><trkpt lat="42.40508022371086" lon="12.87235202891655"><ele>404.3333333333333</ele><time>2026-04-19T10:49:45.758Z</time></trkpt><trkpt lat="42.405066023450665" lon="12.8722312051745"><ele>404.16666666666663</ele><time>2026-04-19T10:49:46.758Z</time></trkpt><trkpt lat="42.40505291144677" lon="12.872136196960122"><ele>404.0</ele><time>2026-04-19T10:49:47.758Z</time></trkpt><trkpt lat="42.405040559134385" lon="12.872031600312516"><ele>404.0</ele><time>2026-04-19T10:49:49.758Z</time></trkpt><trkpt lat="42.40502192162133" lon="12.871946851923255"><ele>404.0</ele><time>2026-04-19T10:50:20.757Z</time></trkpt><trkpt lat="42.405007263873955" lon="12.87181734572077"><ele>404.0</ele><time>2026-04-19T10:50:23.756Z</time></trkpt><trkpt lat="42.40500732430107" lon="12.871708357529418"><ele>404.0</ele><time>2026-04-19T10:50:25.756Z</time></trkpt><trkpt lat="42.40513249373896" lon="12.871602676666452"><ele>404.0</ele><time>2026-04-19T10:50:28.756Z</time></trkpt><trkpt lat="42.405239234125865" lon="12.871531959580711"><ele>403.6</ele><time>2026-04-19T10:50:30.756Z</time></trkpt><trkpt lat="42.40532090395916" lon="12.871481310387823"><ele>403.2</ele><time>2026-04-19T10:50:32.756Z</time></trkpt><trkpt lat="42.405386697912355" lon="12.87143907356962"><ele>402.8</ele><time>2026-04-19T10:50:35.756Z</time></trkpt><trkpt lat="42.405354911745754" lon="12.87136310061594"><ele>402.40000000000003</ele><time>2026-04-19T10:50:47.755Z</time></trkpt><trkpt lat="42.40544255764077" lon="12.87130367707173"><ele>402.0</ele><time>2026-04-19T10:50:50.755Z</time></trkpt><trkpt lat="42.40555878863538" lon="12.87123514026956"><ele>401.6</ele><time>2026-04-19T10:50:52.755Z</time></trkpt><trkpt lat="42.40563388218544" lon="12.871192718685704"><ele>401.20000000000005</ele><time>2026-04-19T10:50:53.755Z</time></trkpt><trkpt lat="42.40572056917442" lon="12.871143979702422"><ele>400.8</ele><time>2026-04-19T10:50:54.755Z</time></trkpt><trkpt lat="42.40581979148281" lon="12.871089015962616"><ele>400.4</ele><time>2026-04-19T10:50:55.755Z</time></trkpt><trkpt lat="42.40591671525313" lon="12.871037132637747"><ele>400.0</ele><time>2026-04-19T10:50:56.755Z</time></trkpt><trkpt lat="42.40598053518695" lon="12.87098068418029"><ele>400.0</ele><time>2026-04-19T10:50:58.755Z</time></trkpt><trkpt lat="42.40604308748081" lon="12.871037090748137"><ele>400.0</ele><time>2026-04-19T10:51:00.755Z</time></trkpt><trkpt lat="42.40615702500064" lon="12.87107888310867"><ele>400.0</ele><time>2026-04-19T10:51:02.755Z</time></trkpt><trkpt lat="42.40625959281469" lon="12.871156025588427"><ele>400.0</ele><time>2026-04-19T10:51:04.755Z</time></trkpt><trkpt lat="42.40632901350589" lon="12.87128575822572"><ele>400.0</ele><time>2026-04-19T10:51:06.755Z</time></trkpt><trkpt lat="42.406367686801026" lon="12.87135359137827"><ele>399.6666666666667</ele><time>2026-04-19T10:51:07.754Z</time></trkpt><trkpt lat="42.406388278437845" lon="12.871435972758535"><ele>399.33333333333337</ele><time>2026-04-19T10:51:08.754Z</time></trkpt><trkpt lat="42.406402877653534" lon="12.871529750771444"><ele>399.0</ele><time>2026-04-19T10:51:09.754Z</time></trkpt><trkpt lat="42.40641478544048" lon="12.871617875077257"><ele>398.66666666666663</ele><time>2026-04-19T10:51:10.754Z</time></trkpt><trkpt lat="42.40643677273606" lon="12.871776661205542"><ele>398.3333333333333</ele><time>2026-04-19T10:51:12.754Z</time></trkpt><trkpt lat="42.40647132170306" lon="12.871942597815206"><ele>398.0</ele><time>2026-04-19T10:51:14.754Z</time></trkpt><trkpt lat="42.406472124222496" lon="12.872029307045244"><ele>398.0</ele><time>2026-04-19T10:51:15.754Z</time></trkpt><trkpt lat="42.40647569545867" lon="12.872126682613633"><ele>398.0</ele><time>2026-04-19T10:51:16.754Z</time></trkpt><trkpt lat="42.40648202696458" lon="12.872221896654576"><ele>398.0</ele><time>2026-04-19T10:51:17.754Z</time></trkpt><trkpt lat="42.406509073676354" lon="12.87236979905059"><ele>398.0</ele><time>2026-04-19T10:51:19.754Z</time></trkpt><trkpt lat="42.406492830000275" lon="12.872601553819441"><ele>398.0</ele><time>2026-04-19T10:51:21.754Z</time></trkpt><trkpt lat="42.40647668431799" lon="12.872732057305539"><ele>398.25</ele><time>2026-04-19T10:51:22.754Z</time></trkpt><trkpt lat="42.406479287318554" lon="12.872875681155689"><ele>398.5</ele><time>2026-04-19T10:51:23.754Z</time></trkpt><trkpt lat="42.40650860927929" lon="12.873019097650953"><ele>398.75</ele><time>2026-04-19T10:51:24.754Z</time></trkpt><trkpt lat="42.40648989898029" lon="12.873184014815472"><ele>399.0</ele><time>2026-04-19T10:51:25.754Z</time></trkpt><trkpt lat="42.406496848245645" lon="12.873345184522908"><ele>399.2</ele><time>2026-04-19T10:51:26.754Z</time></trkpt><trkpt lat="42.40650102281475" lon="12.873503871395593"><ele>399.4</ele><time>2026-04-19T10:51:27.754Z</time></trkpt><trkpt lat="42.406509020860696" lon="12.873651347341854"><ele>399.6</ele><time>2026-04-19T10:51:28.754Z</time></trkpt><trkpt lat="42.40651433832324" lon="12.873795765982582"><ele>399.8</ele><time>2026-04-19T10:51:29.754Z</time></trkpt><trkpt lat="42.4065191856136" lon="12.873930882515793"><ele>400.0</ele><time>2026-04-19T10:51:30.753Z</time></trkpt><trkpt lat="42.40652561171265" lon="12.8740598240346"><ele>400.00000000000006</ele><time>2026-04-19T10:51:31.753Z</time></trkpt><trkpt lat="42.406533436189854" lon="12.874175847357154"><ele>400.0</ele><time>2026-04-19T10:51:32.753Z</time></trkpt><trkpt lat="42.4065451201354" lon="12.874274516670042"><ele>400.0</ele><time>2026-04-19T10:51:33.753Z</time></trkpt><trkpt lat="42.40654541221864" lon="12.874362287736693"><ele>400.0</ele><time>2026-04-19T10:51:34.753Z</time></trkpt><trkpt lat="42.40660837971487" lon="12.874488415573788"><ele>400.00000000000006</ele><time>2026-04-19T10:51:36.753Z</time></trkpt><trkpt lat="42.40666919937508" lon="12.874527303877949"><ele>400.0</ele><time>2026-04-19T10:55:54.743Z</time></trkpt><trkpt lat="42.406604867112755" lon="12.87464091186964"><ele>400.6</ele><time>2026-04-19T10:56:00.743Z</time></trkpt><trkpt lat="42.406582957333626" lon="12.87472749486346"><ele>401.2</ele><time>2026-04-19T10:56:01.742Z</time></trkpt><trkpt lat="42.40658404468503" lon="12.8748395991309"><ele>401.79999999999995</ele><time>2026-04-19T10:56:02.742Z</time></trkpt><trkpt lat="42.406595722435604" lon="12.874973873048956"><ele>402.4</ele><time>2026-04-19T10:56:03.742Z</time></trkpt><trkpt lat="42.406602643367975" lon="12.875119920025844"><ele>403.0</ele><time>2026-04-19T10:56:04.742Z</time></trkpt><trkpt lat="42.40657436353995" lon="12.87526874955699"><ele>403.25</ele><time>2026-04-19T10:56:05.742Z</time></trkpt><trkpt lat="42.40657817305191" lon="12.87542182671402"><ele>403.5</ele><time>2026-04-19T10:56:06.742Z</time></trkpt><trkpt lat="42.406582422532814" lon="12.875583537529875"><ele>403.75</ele><time>2026-04-19T10:56:07.743Z</time></trkpt><trkpt lat="42.40658645751283" lon="12.875743436713691"><ele>404.0</ele><time>2026-04-19T10:56:08.743Z</time></trkpt><trkpt lat="42.40659025783764" lon="12.87590659676878"><ele>404.5</ele><time>2026-04-19T10:56:09.743Z</time></trkpt><trkpt lat="42.40659214655682" lon="12.876076119416409"><ele>405.0</ele><time>2026-04-19T10:56:10.743Z</time></trkpt><trkpt lat="42.406593064896605" lon="12.876250588907908"><ele>405.5</ele><time>2026-04-19T10:56:11.743Z</time></trkpt><trkpt lat="42.40659683297657" lon="12.876417223246486"><ele>406.0</ele><time>2026-04-19T10:56:12.743Z</time></trkpt><trkpt lat="42.406604021198085" lon="12.876574617533771"><ele>406.0</ele><time>2026-04-19T10:56:13.743Z</time></trkpt><trkpt lat="42.4066137480685" lon="12.876732135457223"><ele>406.0</ele><time>2026-04-19T10:56:14.743Z</time></trkpt><trkpt lat="42.406624390079784" lon="12.87688455013061"><ele>406.0</ele><time>2026-04-19T10:56:15.743Z</time></trkpt><trkpt lat="42.40666771923205" lon="12.877036046689726"><ele>406.0</ele><time>2026-04-19T10:56:16.742Z</time></trkpt><trkpt lat="42.40668461541087" lon="12.877191229296308"><ele>406.0</ele><time>2026-04-19T10:56:17.742Z</time></trkpt><trkpt lat="42.406698814553835" lon="12.877344769619299"><ele>406.0</ele><time>2026-04-19T10:56:18.742Z</time></trkpt><trkpt lat="42.4067119623715" lon="12.877495041507933"><ele>406.0</ele><time>2026-04-19T10:56:19.743Z</time></trkpt><trkpt lat="42.40672012014733" lon="12.877635815018428"><ele>406.0</ele><time>2026-04-19T10:56:20.742Z</time></trkpt><trkpt lat="42.40672654898277" lon="12.877780522852317"><ele>406.0</ele><time>2026-04-19T10:56:21.742Z</time></trkpt><trkpt lat="42.40673752895069" lon="12.877922960116122"><ele>406.0</ele><time>2026-04-19T10:56:22.742Z</time></trkpt><trkpt lat="42.40674382192713" lon="12.87806353149179"><ele>406.0</ele><time>2026-04-19T10:56:23.742Z</time></trkpt><trkpt lat="42.40674996904399" lon="12.878202762921239"><ele>406.0</ele><time>2026-04-19T10:56:24.742Z</time></trkpt><trkpt lat="42.406750586521845" lon="12.878332295439765"><ele>406.0</ele><time>2026-04-19T10:56:25.742Z</time></trkpt><trkpt lat="42.40676615284047" lon="12.878462807095401"><ele>406.0</ele><time>2026-04-19T10:56:26.742Z</time></trkpt><trkpt lat="42.40677991962464" lon="12.87859402496419"><ele>406.20000000000005</ele><time>2026-04-19T10:56:27.742Z</time></trkpt><trkpt lat="42.40681627100383" lon="12.878734896429384"><ele>406.40000000000003</ele><time>2026-04-19T10:56:28.742Z</time></trkpt><trkpt lat="42.40684956505951" lon="12.878860036450119"><ele>406.6</ele><time>2026-04-19T10:56:29.742Z</time></trkpt><trkpt lat="42.40687386248454" lon="12.878968342735668"><ele>406.8</ele><time>2026-04-19T10:56:30.742Z</time></trkpt><trkpt lat="42.406903363919085" lon="12.879070376662632"><ele>407.0</ele><time>2026-04-19T10:56:31.741Z</time></trkpt><trkpt lat="42.4069387134678" lon="12.879203630895127"><ele>407.40000000000003</ele><time>2026-04-19T10:56:33.741Z</time></trkpt><trkpt lat="42.40694845504161" lon="12.87930379287529"><ele>407.8</ele><time>2026-04-19T10:56:35.741Z</time></trkpt><trkpt lat="42.406954955454935" lon="12.879389180753197"><ele>408.2</ele><time>2026-04-19T10:56:37.741Z</time></trkpt><trkpt lat="42.40697452319636" lon="12.879506325342355"><ele>408.6</ele><time>2026-04-19T10:56:40.741Z</time></trkpt><trkpt lat="42.40691327757651" lon="12.879621489061174"><ele>409.0</ele><time>2026-04-19T10:56:45.741Z</time></trkpt><trkpt lat="42.406757935925256" lon="12.879466465259883"><ele>409.00000000000006</ele><time>2026-04-19T10:56:46.741Z</time></trkpt><trkpt lat="42.40670376272546" lon="12.879399366238404"><ele>409.0</ele><time>2026-04-19T10:56:47.741Z</time></trkpt><trkpt lat="42.406645239952205" lon="12.879332715083365"><ele>409.0</ele><time>2026-04-19T10:56:48.741Z</time></trkpt><trkpt lat="42.40658129531706" lon="12.879259227292243"><ele>409.0</ele><time>2026-04-19T10:56:49.741Z</time></trkpt><trkpt lat="42.406520273212564" lon="12.87918006238059"><ele>409.00000000000006</ele><time>2026-04-19T10:56:50.741Z</time></trkpt><trkpt lat="42.406459296872725" lon="12.879104379454688"><ele>409.0</ele><time>2026-04-19T10:56:51.741Z</time></trkpt><trkpt lat="42.406401068676104" lon="12.87903196670823"><ele>409.0</ele><time>2026-04-19T10:56:52.741Z</time></trkpt><trkpt lat="42.406349584105556" lon="12.878966142377067"><ele>409.0</ele><time>2026-04-19T10:56:53.741Z</time></trkpt><trkpt lat="42.40630122701027" lon="12.878901547928267"><ele>409.0</ele><time>2026-04-19T10:56:54.74Z</time></trkpt><trkpt lat="42.40624595172159" lon="12.87883174298006"><ele>409.0</ele><time>2026-04-19T10:56:55.74Z</time></trkpt><trkpt lat="42.40618826085645" lon="12.878765418331302"><ele>409.0</ele><time>2026-04-19T10:56:56.74Z</time></trkpt><trkpt lat="42.4061347078041" lon="12.878698527122838"><ele>409.0</ele><time>2026-04-19T10:56:57.74Z</time></trkpt><trkpt lat="42.40608516587422" lon="12.878633852548132"><ele>409.0</ele><time>2026-04-19T10:56:58.74Z</time></trkpt><trkpt lat="42.40599729570823" lon="12.87856072077024"><ele>409.0</ele><time>2026-04-19T10:57:00.74Z</time></trkpt><trkpt lat="42.405922075179404" lon="12.878550774308035"><ele>409.0</ele><time>2026-04-19T10:57:09.74Z</time></trkpt><trkpt lat="42.40582941243059" lon="12.87858692282692"><ele>409.0</ele><time>2026-04-19T10:57:12.74Z</time></trkpt><trkpt lat="42.405817407578134" lon="12.878741309179295"><ele>409.0</ele><time>2026-04-19T10:57:13.74Z</time></trkpt><trkpt lat="42.40582198180108" lon="12.87886366736147"><ele>409.0</ele><time>2026-04-19T10:57:14.74Z</time></trkpt><trkpt lat="42.40582182397124" lon="12.878992662892621"><ele>409.0</ele><time>2026-04-19T10:57:15.74Z</time></trkpt><trkpt lat="42.405819947585634" lon="12.87914819859166"><ele>409.0</ele><time>2026-04-19T10:57:16.74Z</time></trkpt><trkpt lat="42.405821219883855" lon="12.879316932332728"><ele>409.0</ele><time>2026-04-19T10:57:17.739Z</time></trkpt><trkpt lat="42.40582057943919" lon="12.879489571339045"><ele>409.0</ele><time>2026-04-19T10:57:18.739Z</time></trkpt><trkpt lat="42.405823677106355" lon="12.879666565077704"><ele>409.5</ele><time>2026-04-19T10:57:19.739Z</time></trkpt><trkpt lat="42.40583229155661" lon="12.879850583500096"><ele>410.0</ele><time>2026-04-19T10:57:20.739Z</time></trkpt><trkpt lat="42.40583964999532" lon="12.880038897341521"><ele>410.5</ele><time>2026-04-19T10:57:21.739Z</time></trkpt><trkpt lat="42.40584463180515" lon="12.880228382782335"><ele>411.0</ele><time>2026-04-19T10:57:22.739Z</time></trkpt><trkpt lat="42.405848706828955" lon="12.880419885615405"><ele>411.0</ele><time>2026-04-19T10:57:23.739Z</time></trkpt><trkpt lat="42.40585310310066" lon="12.880614453497186"><ele>411.0</ele><time>2026-04-19T10:57:24.739Z</time></trkpt><trkpt lat="42.405852675893144" lon="12.880802116774023"><ele>411.0</ele><time>2026-04-19T10:57:25.739Z</time></trkpt><trkpt lat="42.405853116248956" lon="12.88099039556869"><ele>411.0</ele><time>2026-04-19T10:57:26.739Z</time></trkpt><trkpt lat="42.405854472793095" lon="12.881180246745537"><ele>411.25</ele><time>2026-04-19T10:57:27.739Z</time></trkpt><trkpt lat="42.40585672414112" lon="12.88136892968186"><ele>411.5</ele><time>2026-04-19T10:57:28.739Z</time></trkpt><trkpt lat="42.40585093523714" lon="12.881558622935422"><ele>411.75</ele><time>2026-04-19T10:57:29.739Z</time></trkpt><trkpt lat="42.405848538210435" lon="12.881746715782715"><ele>412.0</ele><time>2026-04-19T10:57:30.739Z</time></trkpt><trkpt lat="42.405848535878434" lon="12.881938674126124"><ele>412.5</ele><time>2026-04-19T10:57:31.739Z</time></trkpt><trkpt lat="42.4058498460068" lon="12.882131416898"><ele>413.0</ele><time>2026-04-19T10:57:32.739Z</time></trkpt><trkpt lat="42.40584898144013" lon="12.882326876339022"><ele>413.5</ele><time>2026-04-19T10:57:33.739Z</time></trkpt><trkpt lat="42.40584719217522" lon="12.882528823116848"><ele>414.0</ele><time>2026-04-19T10:57:34.739Z</time></trkpt><trkpt lat="42.4058436343396" lon="12.882729251360102"><ele>414.0</ele><time>2026-04-19T10:57:35.739Z</time></trkpt><trkpt lat="42.40584047059837" lon="12.882924739064007"><ele>414.0</ele><time>2026-04-19T10:57:36.739Z</time></trkpt><trkpt lat="42.405830001367" lon="12.883122094556489"><ele>414.0</ele><time>2026-04-19T10:57:37.739Z</time></trkpt><trkpt lat="42.40582266136072" lon="12.883318900896457"><ele>414.0</ele><time>2026-04-19T10:57:38.739Z</time></trkpt><trkpt lat="42.405818243388346" lon="12.883517974152571"><ele>413.75</ele><time>2026-04-19T10:57:39.739Z</time></trkpt><trkpt lat="42.40581468410765" lon="12.88371949298981"><ele>413.5</ele><time>2026-04-19T10:57:40.738Z</time></trkpt><trkpt lat="42.405807434927105" lon="12.88391355447643"><ele>413.25</ele><time>2026-04-19T10:57:41.738Z</time></trkpt><trkpt lat="42.405798183316236" lon="12.88410799484349"><ele>413.0</ele><time>2026-04-19T10:57:42.738Z</time></trkpt><trkpt lat="42.40578737521044" lon="12.884306475862392"><ele>412.5</ele><time>2026-04-19T10:57:43.738Z</time></trkpt><trkpt lat="42.40578597015202" lon="12.88449430070388"><ele>412.0</ele><time>2026-04-19T10:57:44.738Z</time></trkpt><trkpt lat="42.40577367974079" lon="12.884693171078363"><ele>411.5</ele><time>2026-04-19T10:57:45.738Z</time></trkpt><trkpt lat="42.40576813247997" lon="12.884896405415494"><ele>411.0</ele><time>2026-04-19T10:57:46.738Z</time></trkpt><trkpt lat="42.40576103894944" lon="12.88510167980224"><ele>411.0</ele><time>2026-04-19T10:57:47.738Z</time></trkpt><trkpt lat="42.40575607570053" lon="12.885313693175933"><ele>411.0</ele><time>2026-04-19T10:57:48.738Z</time></trkpt><trkpt lat="42.405747477394115" lon="12.885520434586704"><ele>411.0</ele><time>2026-04-19T10:57:49.738Z</time></trkpt><trkpt lat="42.4057399987859" lon="12.885716622343928"><ele>411.0</ele><time>2026-04-19T10:57:50.738Z</time></trkpt><trkpt lat="42.40573648293904" lon="12.885914903616271"><ele>411.0</ele><time>2026-04-19T10:57:51.738Z</time></trkpt><trkpt lat="42.4057289119602" lon="12.886116571416503"><ele>411.0</ele><time>2026-04-19T10:57:52.738Z</time></trkpt><trkpt lat="42.4057239083565" lon="12.886320143116713"><ele>411.0</ele><time>2026-04-19T10:57:53.738Z</time></trkpt><trkpt lat="42.40571384895117" lon="12.886524271970567"><ele>411.25</ele><time>2026-04-19T10:57:54.738Z</time></trkpt><trkpt lat="42.4057034283124" lon="12.886728387744387"><ele>411.5</ele><time>2026-04-19T10:57:55.738Z</time></trkpt><trkpt lat="42.405694880742736" lon="12.88693329382861"><ele>411.75</ele><time>2026-04-19T10:57:56.738Z</time></trkpt><trkpt lat="42.40568397425756" lon="12.88713165270026"><ele>412.0</ele><time>2026-04-19T10:57:57.738Z</time></trkpt><trkpt lat="42.40567565248139" lon="12.887327334923363"><ele>412.25</ele><time>2026-04-19T10:57:58.738Z</time></trkpt><trkpt lat="42.405666395193485" lon="12.887523083362897"><ele>412.5</ele><time>2026-04-19T10:57:59.738Z</time></trkpt><trkpt lat="42.40565803481189" lon="12.88772186861147"><ele>412.75</ele><time>2026-04-19T10:58:00.738Z</time></trkpt><trkpt lat="42.40564861802914" lon="12.887918987728423"><ele>413.0</ele><time>2026-04-19T10:58:01.738Z</time></trkpt><trkpt lat="42.405639784608695" lon="12.888111546280683"><ele>413.5</ele><time>2026-04-19T10:58:02.738Z</time></trkpt><trkpt lat="42.40563074212656" lon="12.888292864375948"><ele>414.0</ele><time>2026-04-19T10:58:03.737Z</time></trkpt><trkpt lat="42.405621004188916" lon="12.888460428966399"><ele>414.5</ele><time>2026-04-19T10:58:04.737Z</time></trkpt><trkpt lat="42.405609537677954" lon="12.88860575696017"><ele>415.0</ele><time>2026-04-19T10:58:05.737Z</time></trkpt><trkpt lat="42.405606747593936" lon="12.888742834098089"><ele>415.4</ele><time>2026-04-19T10:58:06.737Z</time></trkpt><trkpt lat="42.405599298123846" lon="12.888864076575567"><ele>415.8</ele><time>2026-04-19T10:58:07.737Z</time></trkpt><trkpt lat="42.405594346238274" lon="12.888971344190752"><ele>416.20000000000005</ele><time>2026-04-19T10:58:08.737Z</time></trkpt><trkpt lat="42.40558667138949" lon="12.889147052129239"><ele>416.6</ele><time>2026-04-19T10:58:10.737Z</time></trkpt><trkpt lat="42.40557485007144" lon="12.889265399131443"><ele>417.0</ele><time>2026-04-19T10:58:11.737Z</time></trkpt><trkpt lat="42.40556753214151" lon="12.889398768458758"><ele>417.0</ele><time>2026-04-19T10:58:12.737Z</time></trkpt><trkpt lat="42.40556352712188" lon="12.889550514587434"><ele>417.0</ele><time>2026-04-19T10:58:13.737Z</time></trkpt><trkpt lat="42.40556038328579" lon="12.889716141211363"><ele>417.0</ele><time>2026-04-19T10:58:14.737Z</time></trkpt><trkpt lat="42.40555218718318" lon="12.889897273419109"><ele>417.0</ele><time>2026-04-19T10:58:15.737Z</time></trkpt><trkpt lat="42.40555326391116" lon="12.890078451793627"><ele>417.0</ele><time>2026-04-19T10:58:16.737Z</time></trkpt><trkpt lat="42.40555291564365" lon="12.890246836807208"><ele>417.0</ele><time>2026-04-19T10:58:17.737Z</time></trkpt><trkpt lat="42.40554536651213" lon="12.890422566102714"><ele>417.0</ele><time>2026-04-19T10:58:18.737Z</time></trkpt><trkpt lat="42.40554412384017" lon="12.890590502391657"><ele>417.0</ele><time>2026-04-19T10:58:19.737Z</time></trkpt><trkpt lat="42.40553857871947" lon="12.890763354161134"><ele>417.25</ele><time>2026-04-19T10:58:20.737Z</time></trkpt><trkpt lat="42.40552224177684" lon="12.890932441598586"><ele>417.5</ele><time>2026-04-19T10:58:21.737Z</time></trkpt><trkpt lat="42.40551214679127" lon="12.89111276448677"><ele>417.75</ele><time>2026-04-19T10:58:22.736Z</time></trkpt><trkpt lat="42.405499323667016" lon="12.891300972128565"><ele>418.0</ele><time>2026-04-19T10:58:23.737Z</time></trkpt><trkpt lat="42.40549371843436" lon="12.891498421425496"><ele>417.5</ele><time>2026-04-19T10:58:24.737Z</time></trkpt><trkpt lat="42.40548706120112" lon="12.89168700123051"><ele>417.0</ele><time>2026-04-19T10:58:25.737Z</time></trkpt><trkpt lat="42.405485097111864" lon="12.89187632567164"><ele>416.5</ele><time>2026-04-19T10:58:26.737Z</time></trkpt><trkpt lat="42.405479710406794" lon="12.892063562046943"><ele>416.0</ele><time>2026-04-19T10:58:27.737Z</time></trkpt><trkpt lat="42.40547195997405" lon="12.892251073396054"><ele>416.0</ele><time>2026-04-19T10:58:28.737Z</time></trkpt><trkpt lat="42.40546443811173" lon="12.892440570297248"><ele>416.0</ele><time>2026-04-19T10:58:29.736Z</time></trkpt><trkpt lat="42.405463298770755" lon="12.892626583386747"><ele>416.0</ele><time>2026-04-19T10:58:30.736Z</time></trkpt><trkpt lat="42.40546901932167" lon="12.892807985768302"><ele>416.0</ele><time>2026-04-19T10:58:31.736Z</time></trkpt><trkpt lat="42.405493789178365" lon="12.892989726661101"><ele>417.0</ele><time>2026-04-19T10:58:32.736Z</time></trkpt><trkpt lat="42.40552301538043" lon="12.893165212639747"><ele>418.0</ele><time>2026-04-19T10:58:33.736Z</time></trkpt><trkpt lat="42.40555963413479" lon="12.893343933512524"><ele>419.0</ele><time>2026-04-19T10:58:34.736Z</time></trkpt><trkpt lat="42.405593868212634" lon="12.893529089488577"><ele>420.0</ele><time>2026-04-19T10:58:35.736Z</time></trkpt><trkpt lat="42.40563073534957" lon="12.89371782566096"><ele>420.0</ele><time>2026-04-19T10:58:36.736Z</time></trkpt><trkpt lat="42.40566032577003" lon="12.893906639149511"><ele>420.0</ele><time>2026-04-19T10:58:37.736Z</time></trkpt><trkpt lat="42.4056802360736" lon="12.89409713100471"><ele>420.0</ele><time>2026-04-19T10:58:38.736Z</time></trkpt><trkpt lat="42.40569390066128" lon="12.894272538049938"><ele>420.0</ele><time>2026-04-19T10:58:39.736Z</time></trkpt><trkpt lat="42.405694824579115" lon="12.894445269253934"><ele>420.25</ele><time>2026-04-19T10:58:40.736Z</time></trkpt><trkpt lat="42.405682864792034" lon="12.894627840430864"><ele>420.5</ele><time>2026-04-19T10:58:41.736Z</time></trkpt><trkpt lat="42.40566495427091" lon="12.894803722669161"><ele>420.75</ele><time>2026-04-19T10:58:42.736Z</time></trkpt><trkpt lat="42.40563904573969" lon="12.89498697799247"><ele>421.0</ele><time>2026-04-19T10:58:43.736Z</time></trkpt><trkpt lat="42.40560976736642" lon="12.895171434275419"><ele>421.0</ele><time>2026-04-19T10:58:44.736Z</time></trkpt><trkpt lat="42.4055785067225" lon="12.89535189764069"><ele>421.0</ele><time>2026-04-19T10:58:45.736Z</time></trkpt><trkpt lat="42.40554160588268" lon="12.895528193644708"><ele>421.0</ele><time>2026-04-19T10:58:46.736Z</time></trkpt><trkpt lat="42.40551126387442" lon="12.895705174999293"><ele>421.0</ele><time>2026-04-19T10:58:47.736Z</time></trkpt><trkpt lat="42.405475967186426" lon="12.895879546339142"><ele>421.0</ele><time>2026-04-19T10:58:48.736Z</time></trkpt><trkpt lat="42.40544305698853" lon="12.89604965349503"><ele>421.0</ele><time>2026-04-19T10:58:49.736Z</time></trkpt><trkpt lat="42.405412328450446" lon="12.896208019606828"><ele>421.0</ele><time>2026-04-19T10:58:50.736Z</time></trkpt><trkpt lat="42.405382962286986" lon="12.896361225167922"><ele>421.0</ele><time>2026-04-19T10:58:51.736Z</time></trkpt><trkpt lat="42.405358930743056" lon="12.896497415078827"><ele>421.00000000000006</ele><time>2026-04-19T10:58:52.735Z</time></trkpt><trkpt lat="42.40533577487768" lon="12.896597397374455"><ele>421.0</ele><time>2026-04-19T10:58:53.735Z</time></trkpt><trkpt lat="42.40531019775872" lon="12.896704377086154"><ele>421.0</ele><time>2026-04-19T10:58:55.735Z</time></trkpt><trkpt lat="42.405270492909494" lon="12.896793778710357"><ele>421.0</ele><time>2026-04-19T10:59:03.735Z</time></trkpt><trkpt lat="42.405258005003525" lon="12.896889417060859"><ele>421.00000000000006</ele><time>2026-04-19T10:59:05.735Z</time></trkpt><trkpt lat="42.40515658499094" lon="12.896997634901044"><ele>421.0</ele><time>2026-04-19T10:59:07.735Z</time></trkpt><trkpt lat="42.40501872010743" lon="12.897134096256563"><ele>423.0</ele><time>2026-04-19T10:59:09.735Z</time></trkpt><trkpt lat="42.40474733519719" lon="12.897140616611766"><ele>425.0</ele><time>2026-04-19T10:59:12.735Z</time></trkpt><trkpt lat="42.40454160674148" lon="12.8970117395928"><ele>424.0</ele><time>2026-04-19T10:59:14.734Z</time></trkpt><trkpt lat="42.404259715069756" lon="12.896678817457914"><ele>423.0</ele><time>2026-04-19T10:59:17.734Z</time></trkpt><trkpt lat="42.404115795132256" lon="12.896358406329174"><ele>423.0</ele><time>2026-04-19T10:59:19.734Z</time></trkpt><trkpt lat="42.40402207982559" lon="12.89598725892263"><ele>423.0</ele><time>2026-04-19T10:59:21.734Z</time></trkpt><trkpt lat="42.403994232976004" lon="12.895806065782233"><ele>423.0</ele><time>2026-04-19T10:59:22.734Z</time></trkpt><trkpt lat="42.40397002483522" lon="12.895627831494673"><ele>422.0</ele><time>2026-04-19T10:59:23.734Z</time></trkpt><trkpt lat="42.403944552317924" lon="12.895458368396103"><ele>421.0</ele><time>2026-04-19T10:59:24.734Z</time></trkpt><trkpt lat="42.40391563184962" lon="12.895289513349747"><ele>420.0</ele><time>2026-04-19T10:59:25.734Z</time></trkpt><trkpt lat="42.40389062291435" lon="12.895121627744834"><ele>419.0</ele><time>2026-04-19T10:59:26.734Z</time></trkpt><trkpt lat="42.40386789232106" lon="12.894958742359293"><ele>418.25</ele><time>2026-04-19T10:59:27.734Z</time></trkpt><trkpt lat="42.40384463747152" lon="12.89479721588204"><ele>417.5</ele><time>2026-04-19T10:59:28.734Z</time></trkpt><trkpt lat="42.40381997135452" lon="12.894635983406761"><ele>416.75</ele><time>2026-04-19T10:59:29.734Z</time></trkpt><trkpt lat="42.403795866928654" lon="12.894472157297646"><ele>416.0</ele><time>2026-04-19T10:59:30.734Z</time></trkpt><trkpt lat="42.40377104620103" lon="12.894303827086453"><ele>424.25</ele><time>2026-04-19T10:59:31.734Z</time></trkpt><trkpt lat="42.40374906212049" lon="12.894134264119156"><ele>432.5</ele><time>2026-04-19T10:59:32.734Z</time></trkpt><trkpt lat="42.40372457734993" lon="12.893966990762399"><ele>440.75</ele><time>2026-04-19T10:59:33.734Z</time></trkpt><trkpt lat="42.403698463274694" lon="12.89379516989568"><ele>449.0</ele><time>2026-04-19T10:59:34.734Z</time></trkpt><trkpt lat="42.403672343171934" lon="12.893612636231007"><ele>442.66666666666663</ele><time>2026-04-19T10:59:35.734Z</time></trkpt><trkpt lat="42.40364294077774" lon="12.893415875450293"><ele>436.33333333333337</ele><time>2026-04-19T10:59:36.734Z</time></trkpt><trkpt lat="42.40361030962468" lon="12.89321250885593"><ele>430.0</ele><time>2026-04-19T10:59:37.734Z</time></trkpt><trkpt lat="42.40357530787451" lon="12.893007929603298"><ele>430.0</ele><time>2026-04-19T10:59:38.733Z</time></trkpt><trkpt lat="42.4035567138394" lon="12.892787898674262"><ele>430.0</ele><time>2026-04-19T10:59:39.733Z</time></trkpt><trkpt lat="42.40352197222724" lon="12.89255333372987"><ele>430.0</ele><time>2026-04-19T10:59:40.733Z</time></trkpt><trkpt lat="42.40348778758419" lon="12.892322529231995"><ele>426.33333333333337</ele><time>2026-04-19T10:59:41.733Z</time></trkpt><trkpt lat="42.40345442496771" lon="12.892090406983897"><ele>422.66666666666663</ele><time>2026-04-19T10:59:42.733Z</time></trkpt><trkpt lat="42.403418712912945" lon="12.891862566976458"><ele>419.0</ele><time>2026-04-19T10:59:43.733Z</time></trkpt><trkpt lat="42.403367743131184" lon="12.891642213563062"><ele>417.66666666666663</ele><time>2026-04-19T10:59:44.733Z</time></trkpt><trkpt lat="42.403328999604746" lon="12.891414910617256"><ele>416.33333333333337</ele><time>2026-04-19T10:59:45.733Z</time></trkpt><trkpt lat="42.40327802841066" lon="12.891190666056428"><ele>415.0</ele><time>2026-04-19T10:59:46.733Z</time></trkpt><trkpt lat="42.40321843822444" lon="12.890973553751962"><ele>415.6666666666667</ele><time>2026-04-19T10:59:47.733Z</time></trkpt><trkpt lat="42.403168936448026" lon="12.890752202637387"><ele>416.33333333333337</ele><time>2026-04-19T10:59:48.733Z</time></trkpt><trkpt lat="42.40309209624345" lon="12.890549182963545"><ele>417.0</ele><time>2026-04-19T10:59:49.733Z</time></trkpt><trkpt lat="42.40300326333166" lon="12.890357241864232"><ele>417.0</ele><time>2026-04-19T10:59:50.733Z</time></trkpt><trkpt lat="42.402907020765426" lon="12.89017854566933"><ele>417.0</ele><time>2026-04-19T10:59:51.733Z</time></trkpt><trkpt lat="42.402802327330704" lon="12.890002963219443"><ele>417.0</ele><time>2026-04-19T10:59:52.733Z</time></trkpt><trkpt lat="42.40268102618682" lon="12.889847149450476"><ele>417.0</ele><time>2026-04-19T10:59:53.733Z</time></trkpt><trkpt lat="42.40255949354666" lon="12.88967579441872"><ele>417.0</ele><time>2026-04-19T10:59:54.733Z</time></trkpt><trkpt lat="42.402425338021935" lon="12.889513815928792"><ele>417.0</ele><time>2026-04-19T10:59:55.733Z</time></trkpt><trkpt lat="42.40228072418547" lon="12.889359149136009"><ele>417.33333333333337</ele><time>2026-04-19T10:59:56.733Z</time></trkpt><trkpt lat="42.40212401576484" lon="12.889220520375385"><ele>417.6666666666667</ele><time>2026-04-19T10:59:57.733Z</time></trkpt><trkpt lat="42.401956619858225" lon="12.889093907488272"><ele>418.0</ele><time>2026-04-19T10:59:58.733Z</time></trkpt><trkpt lat="42.40177848775064" lon="12.888981129037129"><ele>418.0</ele><time>2026-04-19T10:59:59.733Z</time></trkpt><trkpt lat="42.40159198763211" lon="12.888878615742557"><ele>418.0</ele><time>2026-04-19T11:00:00.733Z</time></trkpt><trkpt lat="42.40139990791771" lon="12.88879444442852"><ele>418.0</ele><time>2026-04-19T11:00:01.732Z</time></trkpt><trkpt lat="42.40120799829206" lon="12.888712309115267"><ele>415.0</ele><time>2026-04-19T11:00:02.732Z</time></trkpt><trkpt lat="42.401010596402486" lon="12.888641877662428"><ele>412.0</ele><time>2026-04-19T11:00:03.732Z</time></trkpt><trkpt lat="42.40081930000775" lon="12.888577257164531"><ele>409.0</ele><time>2026-04-19T11:00:04.732Z</time></trkpt><trkpt lat="42.400632910577734" lon="12.88850721441207"><ele>408.6666666666667</ele><time>2026-04-19T11:00:05.732Z</time></trkpt><trkpt lat="42.40044671717657" lon="12.888428868574334"><ele>408.33333333333337</ele><time>2026-04-19T11:00:06.732Z</time></trkpt><trkpt lat="42.40026023960628" lon="12.88835332813915"><ele>408.0</ele><time>2026-04-19T11:00:07.732Z</time></trkpt><trkpt lat="42.400073866100556" lon="12.888278056612721"><ele>408.66666666666663</ele><time>2026-04-19T11:00:08.732Z</time></trkpt><trkpt lat="42.3998858134167" lon="12.88820835661998"><ele>409.3333333333333</ele><time>2026-04-19T11:00:09.732Z</time></trkpt><trkpt lat="42.39970172590039" lon="12.888135145887782"><ele>410.0</ele><time>2026-04-19T11:00:10.732Z</time></trkpt><trkpt lat="42.399519580090015" lon="12.88805799650872"><ele>408.3333333333333</ele><time>2026-04-19T11:00:11.732Z</time></trkpt><trkpt lat="42.39934266034407" lon="12.887986711195488"><ele>406.66666666666663</ele><time>2026-04-19T11:00:12.732Z</time></trkpt><trkpt lat="42.39917381734283" lon="12.887918470345609"><ele>405.0</ele><time>2026-04-19T11:00:13.732Z</time></trkpt><trkpt lat="42.39900509473454" lon="12.887839205461669"><ele>405.0</ele><time>2026-04-19T11:00:14.732Z</time></trkpt><trkpt lat="42.39884420067707" lon="12.887777166534756"><ele>405.0</ele><time>2026-04-19T11:00:15.732Z</time></trkpt><trkpt lat="42.39868789502675" lon="12.88771501697325"><ele>405.0</ele><time>2026-04-19T11:00:16.732Z</time></trkpt><trkpt lat="42.398532132247276" lon="12.8876578606372"><ele>404.66666666666663</ele><time>2026-04-19T11:00:17.732Z</time></trkpt><trkpt lat="42.39837799053215" lon="12.887604894609106"><ele>404.3333333333333</ele><time>2026-04-19T11:00:18.732Z</time></trkpt><trkpt lat="42.398229483602194" lon="12.88755394029938"><ele>404.0</ele><time>2026-04-19T11:00:19.731Z</time></trkpt><trkpt lat="42.398080540494846" lon="12.887497524728802"><ele>404.3333333333333</ele><time>2026-04-19T11:00:20.731Z</time></trkpt><trkpt lat="42.3979317812055" lon="12.887438232614075"><ele>404.66666666666663</ele><time>2026-04-19T11:00:21.731Z</time></trkpt><trkpt lat="42.397783416925996" lon="12.887379932839123"><ele>405.0</ele><time>2026-04-19T11:00:22.731Z</time></trkpt><trkpt lat="42.39763692715239" lon="12.88731397266122"><ele>405.0</ele><time>2026-04-19T11:00:23.731Z</time></trkpt><trkpt lat="42.39749859103835" lon="12.887252917331429"><ele>405.0</ele><time>2026-04-19T11:00:24.731Z</time></trkpt><trkpt lat="42.39736343111269" lon="12.88719069447048"><ele>405.0</ele><time>2026-04-19T11:00:25.732Z</time></trkpt><trkpt lat="42.39723814010852" lon="12.887123484985178"><ele>405.0</ele><time>2026-04-19T11:00:26.731Z</time></trkpt><trkpt lat="42.39711319133024" lon="12.887051461334536"><ele>405.5</ele><time>2026-04-19T11:00:27.731Z</time></trkpt><trkpt lat="42.39699001326716" lon="12.886968976996904"><ele>406.0</ele><time>2026-04-19T11:00:28.732Z</time></trkpt><trkpt lat="42.39687176891298" lon="12.886874200063312"><ele>406.5</ele><time>2026-04-19T11:00:29.731Z</time></trkpt><trkpt lat="42.39674726374283" lon="12.886785320691036"><ele>407.0</ele><time>2026-04-19T11:00:30.731Z</time></trkpt><trkpt lat="42.39663405294801" lon="12.88668911409035"><ele>407.0</ele><time>2026-04-19T11:00:31.731Z</time></trkpt><trkpt lat="42.39652834171957" lon="12.886591128515384"><ele>407.0</ele><time>2026-04-19T11:00:32.731Z</time></trkpt><trkpt lat="42.39643043878292" lon="12.88649239612931"><ele>407.0</ele><time>2026-04-19T11:00:33.731Z</time></trkpt><trkpt lat="42.39633150809788" lon="12.886389984470592"><ele>407.0</ele><time>2026-04-19T11:00:34.731Z</time></trkpt><trkpt lat="42.39624659441042" lon="12.886284603215069"><ele>405.8</ele><time>2026-04-19T11:00:35.731Z</time></trkpt><trkpt lat="42.3961645208377" lon="12.88618885063206"><ele>404.6</ele><time>2026-04-19T11:00:36.731Z</time></trkpt><trkpt lat="42.39608159415805" lon="12.886103868508258"><ele>403.40000000000003</ele><time>2026-04-19T11:00:37.73Z</time></trkpt><trkpt lat="42.39600500171279" lon="12.88599269174687"><ele>402.20000000000005</ele><time>2026-04-19T11:00:38.73Z</time></trkpt><trkpt lat="42.39593313530903" lon="12.885896078827173"><ele>401.0</ele><time>2026-04-19T11:00:39.73Z</time></trkpt><trkpt lat="42.39586099443379" lon="12.885799059480199"><ele>401.0</ele><time>2026-04-19T11:00:40.73Z</time></trkpt><trkpt lat="42.39578964720116" lon="12.885705617694763"><ele>401.0</ele><time>2026-04-19T11:00:41.73Z</time></trkpt><trkpt lat="42.39571470708233" lon="12.885611148006669"><ele>401.0</ele><time>2026-04-19T11:00:42.73Z</time></trkpt><trkpt lat="42.3956380701486" lon="12.885518177339017"><ele>401.0</ele><time>2026-04-19T11:00:43.73Z</time></trkpt><trkpt lat="42.39556160177531" lon="12.885420603054238"><ele>401.0</ele><time>2026-04-19T11:00:44.73Z</time></trkpt><trkpt lat="42.39548506637976" lon="12.88531706702065"><ele>400.75</ele><time>2026-04-19T11:00:45.73Z</time></trkpt><trkpt lat="42.395403549573956" lon="12.885210243091345"><ele>400.5</ele><time>2026-04-19T11:00:46.73Z</time></trkpt><trkpt lat="42.39532744911554" lon="12.885094100518298"><ele>400.25</ele><time>2026-04-19T11:00:47.73Z</time></trkpt><trkpt lat="42.39524361304212" lon="12.884988778561478"><ele>400.0</ele><time>2026-04-19T11:00:48.73Z</time></trkpt><trkpt lat="42.39515471245389" lon="12.884871063894822"><ele>400.0</ele><time>2026-04-19T11:00:49.73Z</time></trkpt><trkpt lat="42.39506370612669" lon="12.884755627333426"><ele>400.0</ele><time>2026-04-19T11:00:50.73Z</time></trkpt><trkpt lat="42.394976567960136" lon="12.88463421199924"><ele>400.0</ele><time>2026-04-19T11:00:51.73Z</time></trkpt><trkpt lat="42.39489167990787" lon="12.884508069610055"><ele>400.0</ele><time>2026-04-19T11:00:52.73Z</time></trkpt><trkpt lat="42.39481859736879" lon="12.884377395144655"><ele>399.5</ele><time>2026-04-19T11:00:53.73Z</time></trkpt><trkpt lat="42.39475531682953" lon="12.884234414874912"><ele>399.0</ele><time>2026-04-19T11:00:54.73Z</time></trkpt><trkpt lat="42.39471088776036" lon="12.884083671546229"><ele>398.5</ele><time>2026-04-19T11:00:55.73Z</time></trkpt><trkpt lat="42.39468038230113" lon="12.883925581057"><ele>398.0</ele><time>2026-04-19T11:00:56.73Z</time></trkpt><trkpt lat="42.39466997442706" lon="12.88375235556099"><ele>399.0</ele><time>2026-04-19T11:00:57.73Z</time></trkpt><trkpt lat="42.394675253740616" lon="12.883578788665083"><ele>400.0</ele><time>2026-04-19T11:00:58.73Z</time></trkpt><trkpt lat="42.394696451837326" lon="12.883406870590402"><ele>401.0</ele><time>2026-04-19T11:00:59.73Z</time></trkpt><trkpt lat="42.394738808488086" lon="12.883238832252427"><ele>402.0</ele><time>2026-04-19T11:01:00.729Z</time></trkpt><trkpt lat="42.39479105832174" lon="12.883069930690825"><ele>402.0</ele><time>2026-04-19T11:01:01.729Z</time></trkpt><trkpt lat="42.394842731772975" lon="12.882893068500081"><ele>402.0</ele><time>2026-04-19T11:01:02.729Z</time></trkpt><trkpt lat="42.39490441444659" lon="12.882711866018695"><ele>402.0</ele><time>2026-04-19T11:01:03.729Z</time></trkpt><trkpt lat="42.39496804651287" lon="12.882524162801309"><ele>402.0</ele><time>2026-04-19T11:01:04.729Z</time></trkpt><trkpt lat="42.395038551883495" lon="12.882329084267482"><ele>400.66666666666663</ele><time>2026-04-19T11:01:05.729Z</time></trkpt><trkpt lat="42.395109275455496" lon="12.88212945868129"><ele>399.3333333333333</ele><time>2026-04-19T11:01:06.729Z</time></trkpt><trkpt lat="42.39517684062522" lon="12.881926614670615"><ele>398.0</ele><time>2026-04-19T11:01:07.729Z</time></trkpt><trkpt lat="42.395247772361685" lon="12.881721060912177"><ele>396.3333333333333</ele><time>2026-04-19T11:01:08.729Z</time></trkpt><trkpt lat="42.395316941538184" lon="12.881508609437953"><ele>394.66666666666663</ele><time>2026-04-19T11:01:09.729Z</time></trkpt><trkpt lat="42.39538893611291" lon="12.881294433092904"><ele>393.0</ele><time>2026-04-19T11:01:10.729Z</time></trkpt><trkpt lat="42.395462039256365" lon="12.881077879935518"><ele>395.0</ele><time>2026-04-19T11:01:11.729Z</time></trkpt><trkpt lat="42.395534514723664" lon="12.880860041699002"><ele>397.0</ele><time>2026-04-19T11:01:12.729Z</time></trkpt><trkpt lat="42.3956037470284" lon="12.880637641532692"><ele>399.0</ele><time>2026-04-19T11:01:13.729Z</time></trkpt><trkpt lat="42.395674563789086" lon="12.8804112398341"><ele>399.0</ele><time>2026-04-19T11:01:14.729Z</time></trkpt><trkpt lat="42.3957440110338" lon="12.880182715283825"><ele>399.0</ele><time>2026-04-19T11:01:15.729Z</time></trkpt><trkpt lat="42.39580693192305" lon="12.879949410184478"><ele>399.0</ele><time>2026-04-19T11:01:16.729Z</time></trkpt><trkpt lat="42.39587133924711" lon="12.87971247228768"><ele>398.0</ele><time>2026-04-19T11:01:17.729Z</time></trkpt><trkpt lat="42.39592978736183" lon="12.879470784618217"><ele>397.0</ele><time>2026-04-19T11:01:18.729Z</time></trkpt><trkpt lat="42.39597970742512" lon="12.87922483619856"><ele>396.0</ele><time>2026-04-19T11:01:19.729Z</time></trkpt><trkpt lat="42.39602656698293" lon="12.878977151568858"><ele>395.0</ele><time>2026-04-19T11:01:20.729Z</time></trkpt><trkpt lat="42.39606889116125" lon="12.878729715354401"><ele>394.0</ele><time>2026-04-19T11:01:21.729Z</time></trkpt><trkpt lat="42.3961068079781" lon="12.878476616191593"><ele>393.0</ele><time>2026-04-19T11:01:22.729Z</time></trkpt><trkpt lat="42.39614183187495" lon="12.878228995803733"><ele>393.0</ele><time>2026-04-19T11:01:23.728Z</time></trkpt><trkpt lat="42.39617396745238" lon="12.877979696660672"><ele>393.0</ele><time>2026-04-19T11:01:24.728Z</time></trkpt><trkpt lat="42.39620051965261" lon="12.877731441841178"><ele>393.0</ele><time>2026-04-19T11:01:25.728Z</time></trkpt><trkpt lat="42.396222849654144" lon="12.877479335619912"><ele>393.0</ele><time>2026-04-19T11:01:26.728Z</time></trkpt><trkpt lat="42.396237281812" lon="12.87723131762019"><ele>393.0</ele><time>2026-04-19T11:01:27.728Z</time></trkpt><trkpt lat="42.396253094134195" lon="12.87699027620326"><ele>393.0</ele><time>2026-04-19T11:01:28.728Z</time></trkpt><trkpt lat="42.396263186442916" lon="12.876742473196714"><ele>393.0</ele><time>2026-04-19T11:01:29.728Z</time></trkpt><trkpt lat="42.396271602227145" lon="12.876491243420013"><ele>393.0</ele><time>2026-04-19T11:01:30.728Z</time></trkpt><trkpt lat="42.396281152165905" lon="12.876252844292269"><ele>393.0</ele><time>2026-04-19T11:01:31.728Z</time></trkpt><trkpt lat="42.396282163121995" lon="12.876015314795918"><ele>393.66666666666663</ele><time>2026-04-19T11:01:32.728Z</time></trkpt><trkpt lat="42.396275277655946" lon="12.875788791401792"><ele>394.3333333333333</ele><time>2026-04-19T11:01:33.728Z</time></trkpt><trkpt lat="42.396274737938946" lon="12.875579110233431"><ele>395.0</ele><time>2026-04-19T11:01:34.728Z</time></trkpt><trkpt lat="42.39626350576753" lon="12.875390226432714"><ele>395.0</ele><time>2026-04-19T11:01:35.728Z</time></trkpt><trkpt lat="42.3962660904066" lon="12.875225350309105"><ele>395.0</ele><time>2026-04-19T11:01:36.728Z</time></trkpt><trkpt lat="42.39628568477711" lon="12.875071177637517"><ele>395.0</ele><time>2026-04-19T11:01:37.728Z</time></trkpt><trkpt lat="42.396322060841165" lon="12.87493071295398"><ele>395.0</ele><time>2026-04-19T11:01:38.728Z</time></trkpt><trkpt lat="42.39637120272712" lon="12.874805429342413"><ele>394.6</ele><time>2026-04-19T11:01:39.728Z</time></trkpt><trkpt lat="42.39643838529222" lon="12.874693588844181"><ele>394.2</ele><time>2026-04-19T11:01:40.728Z</time></trkpt><trkpt lat="42.3965185840832" lon="12.874595285563256"><ele>393.79999999999995</ele><time>2026-04-19T11:01:41.728Z</time></trkpt><trkpt lat="42.39659355552558" lon="12.874489762285513"><ele>393.4</ele><time>2026-04-19T11:01:42.728Z</time></trkpt><trkpt lat="42.39666216461622" lon="12.874383432583564"><ele>393.0</ele><time>2026-04-19T11:01:43.728Z</time></trkpt><trkpt lat="42.39670387156231" lon="12.874263453457479"><ele>393.0</ele><time>2026-04-19T11:01:44.728Z</time></trkpt><trkpt lat="42.39671929982291" lon="12.87412349951828"><ele>393.0</ele><time>2026-04-19T11:01:45.728Z</time></trkpt><trkpt lat="42.396713774375584" lon="12.873963532073475"><ele>393.0</ele><time>2026-04-19T11:01:46.727Z</time></trkpt><trkpt lat="42.39668989964592" lon="12.873795662637068"><ele>393.0</ele><time>2026-04-19T11:01:47.727Z</time></trkpt><trkpt lat="42.396662607811884" lon="12.873632460076715"><ele>393.0</ele><time>2026-04-19T11:01:48.727Z</time></trkpt><trkpt lat="42.39663815353581" lon="12.873484620929924"><ele>393.0</ele><time>2026-04-19T11:01:49.727Z</time></trkpt><trkpt lat="42.39661876173713" lon="12.873358550184967"><ele>393.0</ele><time>2026-04-19T11:01:50.727Z</time></trkpt><trkpt lat="42.39660587843605" lon="12.87325612960505"><ele>393.0</ele><time>2026-04-19T11:01:51.727Z</time></trkpt><trkpt lat="42.39658945304434" lon="12.873154574863243"><ele>393.0</ele><time>2026-04-19T11:01:53.727Z</time></trkpt><trkpt lat="42.39657754607763" lon="12.873056223212316"><ele>393.0</ele><time>2026-04-19T11:01:55.727Z</time></trkpt><trkpt lat="42.3963866751804" lon="12.873042250102484"><ele>396.5</ele><time>2026-04-19T11:01:57.727Z</time></trkpt><trkpt lat="42.396288981647224" lon="12.873075514640224"><ele>400.0</ele><time>2026-04-19T11:01:58.727Z</time></trkpt><trkpt lat="42.39618108849974" lon="12.873133216371956"><ele>403.5</ele><time>2026-04-19T11:01:59.727Z</time></trkpt><trkpt lat="42.39607116573341" lon="12.87322493810005"><ele>407.0</ele><time>2026-04-19T11:02:00.727Z</time></trkpt><trkpt lat="42.39596046681989" lon="12.873360725388228"><ele>403.66666666666663</ele><time>2026-04-19T11:02:01.727Z</time></trkpt><trkpt lat="42.39585461929255" lon="12.873513851656828"><ele>400.33333333333337</ele><time>2026-04-19T11:02:02.727Z</time></trkpt><trkpt lat="42.395753359596604" lon="12.873685143474361"><ele>397.0</ele><time>2026-04-19T11:02:03.727Z</time></trkpt><trkpt lat="42.39567272332309" lon="12.873855611764768"><ele>397.0</ele><time>2026-04-19T11:02:04.727Z</time></trkpt><trkpt lat="42.39559067310848" lon="12.87403533568208"><ele>397.0</ele><time>2026-04-19T11:02:05.727Z</time></trkpt><trkpt lat="42.39550626141061" lon="12.874216421336035"><ele>397.0</ele><time>2026-04-19T11:02:06.727Z</time></trkpt><trkpt lat="42.39543456641946" lon="12.874401021509158"><ele>401.0</ele><time>2026-04-19T11:02:07.727Z</time></trkpt><trkpt lat="42.39537201613812" lon="12.874601969791199"><ele>405.0</ele><time>2026-04-19T11:02:08.727Z</time></trkpt><trkpt lat="42.395311320869794" lon="12.874797768143829"><ele>409.0</ele><time>2026-04-19T11:02:09.726Z</time></trkpt><trkpt lat="42.395246055889075" lon="12.875000916433917"><ele>406.33333333333337</ele><time>2026-04-19T11:02:10.726Z</time></trkpt><trkpt lat="42.39518642288564" lon="12.875203271699327"><ele>403.66666666666663</ele><time>2026-04-19T11:02:11.726Z</time></trkpt><trkpt lat="42.39513270756067" lon="12.875411967881549"><ele>401.0</ele><time>2026-04-19T11:02:12.726Z</time></trkpt><trkpt lat="42.39508169003667" lon="12.875616622861594"><ele>401.0</ele><time>2026-04-19T11:02:13.726Z</time></trkpt><trkpt lat="42.39503763094085" lon="12.875819421255864"><ele>401.0</ele><time>2026-04-19T11:02:14.726Z</time></trkpt><trkpt lat="42.39498577455182" lon="12.876019664494141"><ele>401.0</ele><time>2026-04-19T11:02:15.726Z</time></trkpt><trkpt lat="42.394940666613756" lon="12.876214965005444"><ele>399.0</ele><time>2026-04-19T11:02:16.726Z</time></trkpt><trkpt lat="42.394895975212854" lon="12.876413097161786"><ele>397.0</ele><time>2026-04-19T11:02:17.726Z</time></trkpt><trkpt lat="42.39485475960725" lon="12.876614875789617"><ele>395.0</ele><time>2026-04-19T11:02:18.726Z</time></trkpt><trkpt lat="42.39481219526165" lon="12.876813592637776"><ele>393.3333333333333</ele><time>2026-04-19T11:02:19.726Z</time></trkpt><trkpt lat="42.394771017202366" lon="12.877020821306566"><ele>391.66666666666663</ele><time>2026-04-19T11:02:20.726Z</time></trkpt><trkpt lat="42.39473509949915" lon="12.877231205135534"><ele>390.0</ele><time>2026-04-19T11:02:21.726Z</time></trkpt><trkpt lat="42.39469328635551" lon="12.877440822380565"><ele>396.0</ele><time>2026-04-19T11:02:22.726Z</time></trkpt><trkpt lat="42.39465054545807" lon="12.877648422832431"><ele>402.0</ele><time>2026-04-19T11:02:23.726Z</time></trkpt><trkpt lat="42.39460552080171" lon="12.87785145422049"><ele>408.0</ele><time>2026-04-19T11:02:24.726Z</time></trkpt><trkpt lat="42.394555298271065" lon="12.878051944831151"><ele>408.0</ele><time>2026-04-19T11:02:25.726Z</time></trkpt><trkpt lat="42.39449158825177" lon="12.878242743267405"><ele>408.0</ele><time>2026-04-19T11:02:26.726Z</time></trkpt><trkpt lat="42.39441967326269" lon="12.878429198741266"><ele>408.0</ele><time>2026-04-19T11:02:27.726Z</time></trkpt><trkpt lat="42.39434186162566" lon="12.878618281696523"><ele>403.66666666666663</ele><time>2026-04-19T11:02:28.726Z</time></trkpt><trkpt lat="42.39426141967778" lon="12.878805992574991"><ele>399.3333333333333</ele><time>2026-04-19T11:02:29.726Z</time></trkpt><trkpt lat="42.394178736841816" lon="12.878999746960663"><ele>395.0</ele><time>2026-04-19T11:02:30.726Z</time></trkpt><trkpt lat="42.39411162442784" lon="12.879207095717593"><ele>394.3333333333333</ele><time>2026-04-19T11:02:31.726Z</time></trkpt><trkpt lat="42.394048451725986" lon="12.879422946564933"><ele>393.66666666666663</ele><time>2026-04-19T11:02:32.726Z</time></trkpt><trkpt lat="42.3939983221476" lon="12.879641466606403"><ele>393.0</ele><time>2026-04-19T11:02:33.726Z</time></trkpt><trkpt lat="42.3939449451537" lon="12.879864842301696"><ele>393.0</ele><time>2026-04-19T11:02:34.725Z</time></trkpt><trkpt lat="42.39387806583432" lon="12.880082551615557"><ele>393.0</ele><time>2026-04-19T11:02:35.726Z</time></trkpt><trkpt lat="42.393800253222146" lon="12.880290834120746"><ele>393.0</ele><time>2026-04-19T11:02:36.726Z</time></trkpt><trkpt lat="42.39371392107384" lon="12.880496269764967"><ele>393.0</ele><time>2026-04-19T11:02:37.725Z</time></trkpt><trkpt lat="42.39361685491582" lon="12.880691404625283"><ele>393.0</ele><time>2026-04-19T11:02:38.725Z</time></trkpt><trkpt lat="42.39350643145503" lon="12.880874741482089"><ele>393.0</ele><time>2026-04-19T11:02:39.725Z</time></trkpt><trkpt lat="42.39338604039304" lon="12.881037838381104"><ele>393.0</ele><time>2026-04-19T11:02:40.725Z</time></trkpt><trkpt lat="42.39327059765209" lon="12.881196282364076"><ele>393.0</ele><time>2026-04-19T11:02:41.725Z</time></trkpt><trkpt lat="42.39317424809599" lon="12.881359693241112"><ele>393.0</ele><time>2026-04-19T11:02:42.725Z</time></trkpt><trkpt lat="42.39309054083664" lon="12.881542331956405"><ele>393.0</ele><time>2026-04-19T11:02:43.725Z</time></trkpt><trkpt lat="42.39301363767241" lon="12.881738083756034"><ele>393.0</ele><time>2026-04-19T11:02:44.725Z</time></trkpt><trkpt lat="42.392936648131894" lon="12.881948394304727"><ele>393.0</ele><time>2026-04-19T11:02:45.725Z</time></trkpt><trkpt lat="42.39285025145215" lon="12.882159166000628"><ele>395.0</ele><time>2026-04-19T11:02:46.725Z</time></trkpt><trkpt lat="42.39277928255929" lon="12.882380953311491"><ele>397.0</ele><time>2026-04-19T11:02:47.725Z</time></trkpt><trkpt lat="42.39269918996299" lon="12.882595860329745"><ele>399.0</ele><time>2026-04-19T11:02:48.725Z</time></trkpt><trkpt lat="42.39262390515719" lon="12.882813840320388"><ele>399.0</ele><time>2026-04-19T11:02:49.725Z</time></trkpt><trkpt lat="42.3925458244203" lon="12.883031115139225"><ele>399.0</ele><time>2026-04-19T11:02:50.724Z</time></trkpt><trkpt lat="42.39247798865348" lon="12.883257090235043"><ele>399.0</ele><time>2026-04-19T11:02:51.724Z</time></trkpt><trkpt lat="42.39242098968031" lon="12.8834847350725"><ele>398.33333333333337</ele><time>2026-04-19T11:02:52.724Z</time></trkpt><trkpt lat="42.39237969803946" lon="12.883726439592339"><ele>397.6666666666667</ele><time>2026-04-19T11:02:53.724Z</time></trkpt><trkpt lat="42.392345329606684" lon="12.883967326544798"><ele>397.0</ele><time>2026-04-19T11:02:54.724Z</time></trkpt><trkpt lat="42.392324441080156" lon="12.884214541338501"><ele>397.0</ele><time>2026-04-19T11:02:55.724Z</time></trkpt><trkpt lat="42.39230999729431" lon="12.884461847757732"><ele>397.0</ele><time>2026-04-19T11:02:56.724Z</time></trkpt><trkpt lat="42.39229558584704" lon="12.884703952277558"><ele>397.0</ele><time>2026-04-19T11:02:57.724Z</time></trkpt><trkpt lat="42.39228066836456" lon="12.88494810704676"><ele>396.0</ele><time>2026-04-19T11:02:58.724Z</time></trkpt><trkpt lat="42.3922633458096" lon="12.885194379434408"><ele>395.0</ele><time>2026-04-19T11:02:59.724Z</time></trkpt><trkpt lat="42.39224297365762" lon="12.885440140067692"><ele>394.0</ele><time>2026-04-19T11:03:00.724Z</time></trkpt><trkpt lat="42.39222216244936" lon="12.885683250435626"><ele>394.0</ele><time>2026-04-19T11:03:01.724Z</time></trkpt><trkpt lat="42.39220276184679" lon="12.885915463973054"><ele>394.0</ele><time>2026-04-19T11:03:02.724Z</time></trkpt><trkpt lat="42.39217731609772" lon="12.886146729233747"><ele>394.0</ele><time>2026-04-19T11:03:03.724Z</time></trkpt><trkpt lat="42.39213982713811" lon="12.88637137740554"><ele>396.33333333333337</ele><time>2026-04-19T11:03:04.724Z</time></trkpt><trkpt lat="42.39209585500653" lon="12.886582715748577"><ele>398.66666666666663</ele><time>2026-04-19T11:03:05.724Z</time></trkpt><trkpt lat="42.39204947214497" lon="12.886785437394419"><ele>401.0</ele><time>2026-04-19T11:03:06.724Z</time></trkpt><trkpt lat="42.39199942301227" lon="12.88697620868293"><ele>401.0</ele><time>2026-04-19T11:03:07.724Z</time></trkpt><trkpt lat="42.39193848571055" lon="12.887151320923772"><ele>401.0</ele><time>2026-04-19T11:03:08.724Z</time></trkpt><trkpt lat="42.391862008944095" lon="12.887312290934354"><ele>401.0</ele><time>2026-04-19T11:03:09.724Z</time></trkpt><trkpt lat="42.39176835562136" lon="12.887454880018979"><ele>401.0</ele><time>2026-04-19T11:03:10.724Z</time></trkpt><trkpt lat="42.39165582732833" lon="12.887594662104089"><ele>399.66666666666663</ele><time>2026-04-19T11:03:11.724Z</time></trkpt><trkpt lat="42.39154406544126" lon="12.88773341383265"><ele>398.33333333333337</ele><time>2026-04-19T11:03:12.724Z</time></trkpt><trkpt lat="42.391426371788874" lon="12.887866876961532"><ele>397.0</ele><time>2026-04-19T11:03:13.723Z</time></trkpt><trkpt lat="42.39129735957461" lon="12.887987552667008"><ele>397.0</ele><time>2026-04-19T11:03:14.723Z</time></trkpt><trkpt lat="42.391162770928595" lon="12.888094737966751"><ele>397.0</ele><time>2026-04-19T11:03:15.723Z</time></trkpt><trkpt lat="42.39103143457118" lon="12.88819621678605"><ele>397.0</ele><time>2026-04-19T11:03:16.723Z</time></trkpt><trkpt lat="42.39091378080975" lon="12.888317626346549"><ele>395.5</ele><time>2026-04-19T11:03:17.723Z</time></trkpt><trkpt lat="42.39082321186509" lon="12.888459844756001"><ele>394.0</ele><time>2026-04-19T11:03:18.723Z</time></trkpt><trkpt lat="42.39074545191088" lon="12.888623767550666"><ele>392.5</ele><time>2026-04-19T11:03:19.723Z</time></trkpt><trkpt lat="42.390675652313796" lon="12.888797782987412"><ele>391.0</ele><time>2026-04-19T11:03:20.723Z</time></trkpt><trkpt lat="42.39061339216729" lon="12.888979530352549"><ele>391.0</ele><time>2026-04-19T11:03:21.723Z</time></trkpt><trkpt lat="42.390544654709046" lon="12.889161200018322"><ele>391.0</ele><time>2026-04-19T11:03:22.723Z</time></trkpt><trkpt lat="42.39048053012036" lon="12.8893475717608"><ele>391.0</ele><time>2026-04-19T11:03:23.723Z</time></trkpt><trkpt lat="42.390412084313425" lon="12.889547201197823"><ele>400.33333333333337</ele><time>2026-04-19T11:03:24.723Z</time></trkpt><trkpt lat="42.39034006837534" lon="12.8897447543506"><ele>409.66666666666663</ele><time>2026-04-19T11:03:25.723Z</time></trkpt><trkpt lat="42.39025800894082" lon="12.889933182018375"><ele>419.0</ele><time>2026-04-19T11:03:26.723Z</time></trkpt><trkpt lat="42.390145340938474" lon="12.890088961539517"><ele>414.0</ele><time>2026-04-19T11:03:27.723Z</time></trkpt><trkpt lat="42.39004112314025" lon="12.890248838177019"><ele>409.0</ele><time>2026-04-19T11:03:28.723Z</time></trkpt><trkpt lat="42.389936143035165" lon="12.89042075175802"><ele>404.0</ele><time>2026-04-19T11:03:29.723Z</time></trkpt><trkpt lat="42.38983886343298" lon="12.89060534809816"><ele>404.0</ele><time>2026-04-19T11:03:30.723Z</time></trkpt><trkpt lat="42.389747235428096" lon="12.890818987376718"><ele>404.0</ele><time>2026-04-19T11:03:31.723Z</time></trkpt><trkpt lat="42.38967526597319" lon="12.891043914956477"><ele>404.0</ele><time>2026-04-19T11:03:32.723Z</time></trkpt><trkpt lat="42.389613992330155" lon="12.891269552246742"><ele>412.66666666666663</ele><time>2026-04-19T11:03:33.723Z</time></trkpt><trkpt lat="42.38955748025278" lon="12.891497018430867"><ele>421.33333333333337</ele><time>2026-04-19T11:03:34.723Z</time></trkpt><trkpt lat="42.38950660873512" lon="12.891720313473382"><ele>430.0</ele><time>2026-04-19T11:03:35.723Z</time></trkpt><trkpt lat="42.389458159010836" lon="12.89194243454696"><ele>430.0</ele><time>2026-04-19T11:03:36.722Z</time></trkpt><trkpt lat="42.38943757632627" lon="12.89217373950053"><ele>430.0</ele><time>2026-04-19T11:03:37.722Z</time></trkpt><trkpt lat="42.38941133572276" lon="12.892402218876315"><ele>430.0</ele><time>2026-04-19T11:03:38.722Z</time></trkpt><trkpt lat="42.38939834774114" lon="12.89263469494431"><ele>429.33333333333337</ele><time>2026-04-19T11:03:39.722Z</time></trkpt><trkpt lat="42.38938708170942" lon="12.89287067691266"><ele>428.66666666666663</ele><time>2026-04-19T11:03:40.722Z</time></trkpt><trkpt lat="42.38937612318317" lon="12.893104139456993"><ele>428.0</ele><time>2026-04-19T11:03:41.722Z</time></trkpt><trkpt lat="42.38936815442567" lon="12.893339106600598"><ele>425.0</ele><time>2026-04-19T11:03:42.722Z</time></trkpt><trkpt lat="42.389352614977895" lon="12.893569562685295"><ele>422.0</ele><time>2026-04-19T11:03:43.722Z</time></trkpt><trkpt lat="42.389304903408444" lon="12.89379862881422"><ele>419.0</ele><time>2026-04-19T11:03:44.722Z</time></trkpt><trkpt lat="42.38929599996986" lon="12.894038318851676"><ele>415.66666666666663</ele><time>2026-04-19T11:03:45.722Z</time></trkpt><trkpt lat="42.3892745030289" lon="12.894277747896313"><ele>412.33333333333337</ele><time>2026-04-19T11:03:46.722Z</time></trkpt><trkpt lat="42.389238478134516" lon="12.894519505925391"><ele>409.0</ele><time>2026-04-19T11:03:47.722Z</time></trkpt><trkpt lat="42.3892307929148" lon="12.89475155697391"><ele>409.0</ele><time>2026-04-19T11:03:48.722Z</time></trkpt><trkpt lat="42.3892286465098" lon="12.894972741965969"><ele>409.0</ele><time>2026-04-19T11:03:49.722Z</time></trkpt><trkpt lat="42.389232646509605" lon="12.89518671441873"><ele>409.0</ele><time>2026-04-19T11:03:50.722Z</time></trkpt><trkpt lat="42.38922319587782" lon="12.895383823110974"><ele>406.5</ele><time>2026-04-19T11:03:51.722Z</time></trkpt><trkpt lat="42.38918444063472" lon="12.895554168974027"><ele>404.0</ele><time>2026-04-19T11:03:52.722Z</time></trkpt><trkpt lat="42.38911240282031" lon="12.895706255466509"><ele>401.5</ele><time>2026-04-19T11:03:53.722Z</time></trkpt><trkpt lat="42.38902827779135" lon="12.895876785745651"><ele>399.0</ele><time>2026-04-19T11:03:54.722Z</time></trkpt><trkpt lat="42.388915988187456" lon="12.896030203350906"><ele>401.0</ele><time>2026-04-19T11:03:55.722Z</time></trkpt><trkpt lat="42.38879117926391" lon="12.896189103523575"><ele>403.0</ele><time>2026-04-19T11:03:56.722Z</time></trkpt><trkpt lat="42.38867354967912" lon="12.896352043059842"><ele>405.0</ele><time>2026-04-19T11:03:57.722Z</time></trkpt><trkpt lat="42.388554539279134" lon="12.896516938954026"><ele>405.0</ele><time>2026-04-19T11:03:58.722Z</time></trkpt><trkpt lat="42.388436160743225" lon="12.896689101134484"><ele>405.0</ele><time>2026-04-19T11:03:59.721Z</time></trkpt><trkpt lat="42.38832201935336" lon="12.896871819969757"><ele>405.0</ele><time>2026-04-19T11:04:00.721Z</time></trkpt><trkpt lat="42.38823114757304" lon="12.89707520033441"><ele>403.0</ele><time>2026-04-19T11:04:01.721Z</time></trkpt><trkpt lat="42.388150821155875" lon="12.897299092091183"><ele>401.0</ele><time>2026-04-19T11:04:02.721Z</time></trkpt><trkpt lat="42.388077256103955" lon="12.897535490357674"><ele>399.0</ele><time>2026-04-19T11:04:03.721Z</time></trkpt><trkpt lat="42.38800644519125" lon="12.897772692558773"><ele>402.33333333333337</ele><time>2026-04-19T11:04:04.721Z</time></trkpt><trkpt lat="42.387933974168014" lon="12.898007117677384"><ele>405.6666666666667</ele><time>2026-04-19T11:04:05.721Z</time></trkpt><trkpt lat="42.387859425333914" lon="12.898242767177264"><ele>409.0</ele><time>2026-04-19T11:04:06.721Z</time></trkpt><trkpt lat="42.38778719900855" lon="12.898480951422897"><ele>409.0</ele><time>2026-04-19T11:04:07.721Z</time></trkpt><trkpt lat="42.387715882128354" lon="12.898719777082684"><ele>409.0</ele><time>2026-04-19T11:04:08.721Z</time></trkpt><trkpt lat="42.38764041036684" lon="12.898963237963574"><ele>409.0</ele><time>2026-04-19T11:04:09.721Z</time></trkpt><trkpt lat="42.38756275911473" lon="12.899208108307938"><ele>405.0</ele><time>2026-04-19T11:04:10.721Z</time></trkpt><trkpt lat="42.387487715834354" lon="12.899450222577757"><ele>401.0</ele><time>2026-04-19T11:04:11.721Z</time></trkpt><trkpt lat="42.387416026318405" lon="12.899693913066283"><ele>397.0</ele><time>2026-04-19T11:04:12.721Z</time></trkpt><trkpt lat="42.387343859878854" lon="12.899938092324172"><ele>395.33333333333337</ele><time>2026-04-19T11:04:13.721Z</time></trkpt><trkpt lat="42.38726832818521" lon="12.900181689725674"><ele>393.66666666666663</ele><time>2026-04-19T11:04:14.721Z</time></trkpt><trkpt lat="42.3871921956235" lon="12.900421564454529"><ele>392.0</ele><time>2026-04-19T11:04:15.721Z</time></trkpt><trkpt lat="42.38711919898173" lon="12.900651233288537"><ele>396.66666666666663</ele><time>2026-04-19T11:04:16.721Z</time></trkpt><trkpt lat="42.38705106766465" lon="12.900868757772438"><ele>401.33333333333337</ele><time>2026-04-19T11:04:17.721Z</time></trkpt><trkpt lat="42.38698808105348" lon="12.90108661147161"><ele>406.0</ele><time>2026-04-19T11:04:18.721Z</time></trkpt><trkpt lat="42.38691509575759" lon="12.901303883882502"><ele>406.0</ele><time>2026-04-19T11:04:19.721Z</time></trkpt><trkpt lat="42.386837880810724" lon="12.90152626333762"><ele>406.0</ele><time>2026-04-19T11:04:20.721Z</time></trkpt><trkpt lat="42.386757396454705" lon="12.901751204167399"><ele>406.0</ele><time>2026-04-19T11:04:21.721Z</time></trkpt><trkpt lat="42.38667692612925" lon="12.901979819571608"><ele>402.6666666666667</ele><time>2026-04-19T11:04:22.72Z</time></trkpt><trkpt lat="42.38659954625172" lon="12.902205895868256"><ele>399.33333333333337</ele><time>2026-04-19T11:04:23.72Z</time></trkpt><trkpt lat="42.38652257365654" lon="12.902430939791756"><ele>396.0</ele><time>2026-04-19T11:04:24.72Z</time></trkpt><trkpt lat="42.38645115122019" lon="12.902640014057058"><ele>395.5</ele><time>2026-04-19T11:04:25.72Z</time></trkpt><trkpt lat="42.386380805338966" lon="12.902830969077412"><ele>395.0</ele><time>2026-04-19T11:04:26.72Z</time></trkpt><trkpt lat="42.386311758873674" lon="12.90301082438462"><ele>394.5</ele><time>2026-04-19T11:04:27.72Z</time></trkpt><trkpt lat="42.386250820892926" lon="12.90318173742078"><ele>394.0</ele><time>2026-04-19T11:04:28.72Z</time></trkpt><trkpt lat="42.386181995493914" lon="12.90334450913195"><ele>394.75</ele><time>2026-04-19T11:04:29.72Z</time></trkpt><trkpt lat="42.38610272632134" lon="12.90349465116464"><ele>395.5</ele><time>2026-04-19T11:04:30.72Z</time></trkpt><trkpt lat="42.386011591986055" lon="12.903629227212988"><ele>396.25</ele><time>2026-04-19T11:04:31.72Z</time></trkpt><trkpt lat="42.38590517290657" lon="12.903752681089241"><ele>397.0</ele><time>2026-04-19T11:04:32.721Z</time></trkpt><trkpt lat="42.38578572503576" lon="12.903856912472618"><ele>397.0</ele><time>2026-04-19T11:04:33.721Z</time></trkpt><trkpt lat="42.38564990514718" lon="12.903939305476902"><ele>397.0</ele><time>2026-04-19T11:04:34.721Z</time></trkpt><trkpt lat="42.38551001782226" lon="12.90400103771193"><ele>397.0</ele><time>2026-04-19T11:04:35.72Z</time></trkpt><trkpt lat="42.38536348839251" lon="12.90407218853949"><ele>396.6666666666667</ele><time>2026-04-19T11:04:36.72Z</time></trkpt><trkpt lat="42.38521937341978" lon="12.904143010799213"><ele>396.33333333333337</ele><time>2026-04-19T11:04:37.72Z</time></trkpt><trkpt lat="42.385077058015305" lon="12.904237359369894"><ele>396.0</ele><time>2026-04-19T11:04:38.721Z</time></trkpt><trkpt lat="42.38495566225572" lon="12.904340850771433"><ele>396.0</ele><time>2026-04-19T11:04:39.721Z</time></trkpt><trkpt lat="42.38484734007105" lon="12.904449232139427"><ele>396.0</ele><time>2026-04-19T11:04:40.721Z</time></trkpt><trkpt lat="42.38474718245844" lon="12.904566258943765"><ele>396.0</ele><time>2026-04-19T11:04:41.721Z</time></trkpt><trkpt lat="42.384654636679485" lon="12.90466412769906"><ele>396.0</ele><time>2026-04-19T11:04:42.721Z</time></trkpt><trkpt lat="42.38456031388613" lon="12.904762874873555"><ele>396.25</ele><time>2026-04-19T11:04:43.72Z</time></trkpt><trkpt lat="42.38447111002737" lon="12.904862646760398"><ele>396.5</ele><time>2026-04-19T11:04:44.721Z</time></trkpt><trkpt lat="42.38438337796256" lon="12.90496123499496"><ele>396.75</ele><time>2026-04-19T11:04:45.721Z</time></trkpt><trkpt lat="42.38429581447446" lon="12.905059141874046"><ele>397.0</ele><time>2026-04-19T11:04:46.721Z</time></trkpt><trkpt lat="42.38420750214083" lon="12.905160003299628"><ele>397.0</ele><time>2026-04-19T11:04:47.72Z</time></trkpt><trkpt lat="42.384117193735875" lon="12.905261221444446"><ele>397.0</ele><time>2026-04-19T11:04:48.72Z</time></trkpt><trkpt lat="42.38403164946123" lon="12.905350161252072"><ele>397.0</ele><time>2026-04-19T11:04:49.72Z</time></trkpt><trkpt lat="42.38393762647253" lon="12.905448228107119"><ele>397.0</ele><time>2026-04-19T11:04:50.72Z</time></trkpt><trkpt lat="42.3838425306321" lon="12.905545306268944"><ele>397.75</ele><time>2026-04-19T11:04:51.72Z</time></trkpt><trkpt lat="42.38375001904611" lon="12.905650101126218"><ele>398.5</ele><time>2026-04-19T11:04:52.72Z</time></trkpt><trkpt lat="42.383653484554706" lon="12.905751560931439"><ele>399.25</ele><time>2026-04-19T11:04:53.72Z</time></trkpt><trkpt lat="42.38355971272583" lon="12.905852288644018"><ele>400.0</ele><time>2026-04-19T11:04:54.72Z</time></trkpt><trkpt lat="42.38346944389523" lon="12.905954683292304"><ele>400.0</ele><time>2026-04-19T11:04:55.72Z</time></trkpt><trkpt lat="42.38338189009579" lon="12.906059187320873"><ele>400.0</ele><time>2026-04-19T11:04:56.72Z</time></trkpt><trkpt lat="42.3832919415597" lon="12.906165758360755"><ele>400.0</ele><time>2026-04-19T11:04:57.72Z</time></trkpt><trkpt lat="42.3831984842332" lon="12.906259403583604"><ele>400.0</ele><time>2026-04-19T11:04:58.72Z</time></trkpt><trkpt lat="42.383106171571285" lon="12.906363999662148"><ele>400.0</ele><time>2026-04-19T11:04:59.72Z</time></trkpt><trkpt lat="42.38301720477855" lon="12.90647373982839"><ele>400.0</ele><time>2026-04-19T11:05:00.72Z</time></trkpt><trkpt lat="42.38293736228473" lon="12.90659206845485"><ele>400.0</ele><time>2026-04-19T11:05:01.72Z</time></trkpt><trkpt lat="42.382860364569396" lon="12.906708426380405"><ele>400.0</ele><time>2026-04-19T11:05:02.72Z</time></trkpt><trkpt lat="42.38278349626454" lon="12.906829411114117"><ele>400.5</ele><time>2026-04-19T11:05:03.72Z</time></trkpt><trkpt lat="42.38270637669948" lon="12.906947428790621"><ele>401.0</ele><time>2026-04-19T11:05:04.72Z</time></trkpt><trkpt lat="42.38263128578592" lon="12.90706422771896"><ele>401.5</ele><time>2026-04-19T11:05:05.72Z</time></trkpt><trkpt lat="42.38254994767395" lon="12.907178910082573"><ele>402.0</ele><time>2026-04-19T11:05:06.72Z</time></trkpt><trkpt lat="42.38246435640186" lon="12.907291396900147"><ele>402.0</ele><time>2026-04-19T11:05:07.72Z</time></trkpt><trkpt lat="42.38237444374858" lon="12.907405484142918"><ele>402.0</ele><time>2026-04-19T11:05:08.72Z</time></trkpt><trkpt lat="42.38228123904919" lon="12.907510980002609"><ele>402.0</ele><time>2026-04-19T11:05:09.72Z</time></trkpt><trkpt lat="42.382184049318084" lon="12.907609321533615"><ele>402.0</ele><time>2026-04-19T11:05:10.719Z</time></trkpt><trkpt lat="42.382086885522035" lon="12.907699093698254"><ele>401.25</ele><time>2026-04-19T11:05:11.719Z</time></trkpt><trkpt lat="42.38198979013641" lon="12.90779006892301"><ele>400.5</ele><time>2026-04-19T11:05:12.719Z</time></trkpt><trkpt lat="42.38189168875847" lon="12.907885725045016"><ele>399.75</ele><time>2026-04-19T11:05:13.719Z</time></trkpt><trkpt lat="42.381795951585325" lon="12.907983468397404"><ele>399.0</ele><time>2026-04-19T11:05:14.719Z</time></trkpt><trkpt lat="42.3816986649103" lon="12.908077627703758"><ele>399.0</ele><time>2026-04-19T11:05:15.719Z</time></trkpt><trkpt lat="42.3816011501809" lon="12.90817236800624"><ele>399.0</ele><time>2026-04-19T11:05:16.719Z</time></trkpt><trkpt lat="42.38150516338172" lon="12.90826609578365"><ele>399.0</ele><time>2026-04-19T11:05:17.719Z</time></trkpt><trkpt lat="42.38140912653629" lon="12.908360102911875"><ele>399.0</ele><time>2026-04-19T11:05:18.719Z</time></trkpt><trkpt lat="42.38131328538624" lon="12.908455723904881"><ele>398.75</ele><time>2026-04-19T11:05:19.719Z</time></trkpt><trkpt lat="42.38122159290482" lon="12.908547826075996"><ele>398.5</ele><time>2026-04-19T11:05:20.719Z</time></trkpt><trkpt lat="42.38112381752513" lon="12.908644102870594"><ele>398.25</ele><time>2026-04-19T11:05:21.719Z</time></trkpt><trkpt lat="42.38102630813774" lon="12.908743166658947"><ele>398.0</ele><time>2026-04-19T11:05:22.719Z</time></trkpt><trkpt lat="42.380933132968586" lon="12.908843097118758"><ele>398.0</ele><time>2026-04-19T11:05:23.719Z</time></trkpt><trkpt lat="42.38084126989204" lon="12.908947517811361"><ele>398.0</ele><time>2026-04-19T11:05:24.719Z</time></trkpt><trkpt lat="42.380758218267935" lon="12.90905923909224"><ele>398.0</ele><time>2026-04-19T11:05:25.719Z</time></trkpt><trkpt lat="42.38068455157402" lon="12.909182032030104"><ele>398.0</ele><time>2026-04-19T11:05:26.719Z</time></trkpt><trkpt lat="42.3806230343413" lon="12.90931363127535"><ele>398.0</ele><time>2026-04-19T11:05:27.719Z</time></trkpt><trkpt lat="42.38056369382394" lon="12.909450145262124"><ele>398.0</ele><time>2026-04-19T11:05:28.719Z</time></trkpt><trkpt lat="42.38050398698039" lon="12.909592390698451"><ele>398.0</ele><time>2026-04-19T11:05:29.719Z</time></trkpt><trkpt lat="42.380442306806664" lon="12.909733714712077"><ele>398.0</ele><time>2026-04-19T11:05:30.719Z</time></trkpt><trkpt lat="42.38037358502109" lon="12.909873100817203"><ele>398.0</ele><time>2026-04-19T11:05:31.719Z</time></trkpt><trkpt lat="42.3803040104653" lon="12.91000457924789"><ele>398.0</ele><time>2026-04-19T11:05:32.719Z</time></trkpt><trkpt lat="42.38023065973863" lon="12.910129923052013"><ele>398.0</ele><time>2026-04-19T11:05:33.718Z</time></trkpt><trkpt lat="42.38015466587588" lon="12.91024847385604"><ele>398.0</ele><time>2026-04-19T11:05:34.718Z</time></trkpt><trkpt lat="42.38006930984001" lon="12.91035923333982"><ele>398.0</ele><time>2026-04-19T11:05:35.718Z</time></trkpt><trkpt lat="42.37997791729507" lon="12.910460074316445"><ele>398.0</ele><time>2026-04-19T11:05:36.718Z</time></trkpt><trkpt lat="42.37988097834026" lon="12.910552885838882"><ele>398.0</ele><time>2026-04-19T11:05:37.718Z</time></trkpt><trkpt lat="42.37978385514331" lon="12.910645622985891"><ele>398.0</ele><time>2026-04-19T11:05:38.718Z</time></trkpt><trkpt lat="42.379688146596145" lon="12.910735582428234"><ele>397.75</ele><time>2026-04-19T11:05:39.718Z</time></trkpt><trkpt lat="42.379588244204356" lon="12.910823488844695"><ele>397.5</ele><time>2026-04-19T11:05:40.718Z</time></trkpt><trkpt lat="42.37948595057098" lon="12.910913801075514"><ele>397.25</ele><time>2026-04-19T11:05:41.718Z</time></trkpt><trkpt lat="42.3793746400823" lon="12.91102112614498"><ele>397.0</ele><time>2026-04-19T11:05:42.718Z</time></trkpt><trkpt lat="42.379256754148535" lon="12.911129649702977"><ele>397.0</ele><time>2026-04-19T11:05:43.718Z</time></trkpt><trkpt lat="42.379134202660566" lon="12.911237079808446"><ele>397.0</ele><time>2026-04-19T11:05:44.718Z</time></trkpt><trkpt lat="42.3790142041152" lon="12.911342996029735"><ele>397.0</ele><time>2026-04-19T11:05:45.718Z</time></trkpt><trkpt lat="42.3788967954631" lon="12.911449149286428"><ele>397.0</ele><time>2026-04-19T11:05:46.718Z</time></trkpt><trkpt lat="42.37878077598995" lon="12.911557457169815"><ele>397.0</ele><time>2026-04-19T11:05:47.718Z</time></trkpt><trkpt lat="42.37866402735954" lon="12.911662711795033"><ele>397.0</ele><time>2026-04-19T11:05:48.718Z</time></trkpt><trkpt lat="42.37854902046297" lon="12.911775104184901"><ele>397.0</ele><time>2026-04-19T11:05:49.718Z</time></trkpt><trkpt lat="42.37842654366053" lon="12.911885756862274"><ele>397.0</ele><time>2026-04-19T11:05:50.718Z</time></trkpt><trkpt lat="42.3782999000413" lon="12.911999868872066"><ele>397.0</ele><time>2026-04-19T11:05:51.718Z</time></trkpt><trkpt lat="42.37816996486768" lon="12.912111465056524"><ele>397.0</ele><time>2026-04-19T11:05:52.718Z</time></trkpt><trkpt lat="42.37804425244247" lon="12.912223112413194"><ele>397.0</ele><time>2026-04-19T11:05:53.718Z</time></trkpt><trkpt lat="42.37792013702412" lon="12.912343524571972"><ele>397.33333333333337</ele><time>2026-04-19T11:05:54.718Z</time></trkpt><trkpt lat="42.377788122499666" lon="12.912459827379152"><ele>397.66666666666663</ele><time>2026-04-19T11:05:55.718Z</time></trkpt><trkpt lat="42.37765117807728" lon="12.912579214004111"><ele>398.0</ele><time>2026-04-19T11:05:56.717Z</time></trkpt><trkpt lat="42.37750514100808" lon="12.912706504638"><ele>398.0</ele><time>2026-04-19T11:05:57.717Z</time></trkpt><trkpt lat="42.37735482866038" lon="12.912833750970183"><ele>398.0</ele><time>2026-04-19T11:05:58.717Z</time></trkpt><trkpt lat="42.37720733585229" lon="12.912972398611705"><ele>398.0</ele><time>2026-04-19T11:05:59.717Z</time></trkpt><trkpt lat="42.377058635263985" lon="12.913125070402913"><ele>398.3333333333333</ele><time>2026-04-19T11:06:00.717Z</time></trkpt><trkpt lat="42.376915284688266" lon="12.913283279653534"><ele>398.66666666666663</ele><time>2026-04-19T11:06:01.717Z</time></trkpt><trkpt lat="42.376777189177716" lon="12.91346252589826"><ele>399.0</ele><time>2026-04-19T11:06:02.717Z</time></trkpt><trkpt lat="42.37665989441767" lon="12.913657545722645"><ele>399.0</ele><time>2026-04-19T11:06:03.717Z</time></trkpt><trkpt lat="42.37655372157621" lon="12.913866073956386"><ele>399.0</ele><time>2026-04-19T11:06:04.717Z</time></trkpt><trkpt lat="42.37646657778936" lon="12.914076954456826"><ele>399.0</ele><time>2026-04-19T11:06:05.717Z</time></trkpt><trkpt lat="42.37639369480424" lon="12.914280958816965"><ele>401.33333333333337</ele><time>2026-04-19T11:06:06.717Z</time></trkpt><trkpt lat="42.376321390055246" lon="12.914482663490471"><ele>403.6666666666667</ele><time>2026-04-19T11:06:07.717Z</time></trkpt><trkpt lat="42.376253919822425" lon="12.91469747191565"><ele>406.0</ele><time>2026-04-19T11:06:08.717Z</time></trkpt><trkpt lat="42.37617776273568" lon="12.914905800252047"><ele>406.6666666666667</ele><time>2026-04-19T11:06:09.717Z</time></trkpt><trkpt lat="42.37610374887073" lon="12.915122397377944"><ele>407.33333333333337</ele><time>2026-04-19T11:06:10.717Z</time></trkpt><trkpt lat="42.376020680910905" lon="12.915351020434452"><ele>408.0</ele><time>2026-04-19T11:06:11.717Z</time></trkpt><trkpt lat="42.37594036223091" lon="12.915584858137741"><ele>408.0</ele><time>2026-04-19T11:06:12.717Z</time></trkpt><trkpt lat="42.37586686266088" lon="12.915815764601582"><ele>408.0</ele><time>2026-04-19T11:06:13.717Z</time></trkpt><trkpt lat="42.37579274108219" lon="12.916044395760728"><ele>408.0</ele><time>2026-04-19T11:06:14.717Z</time></trkpt><trkpt lat="42.37572002615204" lon="12.916270614347573"><ele>409.33333333333337</ele><time>2026-04-19T11:06:15.717Z</time></trkpt><trkpt lat="42.375640209012154" lon="12.916495497766373"><ele>410.6666666666667</ele><time>2026-04-19T11:06:16.717Z</time></trkpt><trkpt lat="42.375557323754705" lon="12.916713486752313"><ele>412.0</ele><time>2026-04-19T11:06:17.717Z</time></trkpt><trkpt lat="42.37547582494309" lon="12.916919143232548"><ele>412.0</ele><time>2026-04-19T11:06:18.717Z</time></trkpt><trkpt lat="42.37539023981958" lon="12.917124887812145"><ele>412.0</ele><time>2026-04-19T11:06:19.716Z</time></trkpt><trkpt lat="42.375300988704105" lon="12.917318663466077"><ele>412.0</ele><time>2026-04-19T11:06:20.716Z</time></trkpt><trkpt lat="42.37518206217324" lon="12.917489311401974"><ele>407.6666666666667</ele><time>2026-04-19T11:06:21.716Z</time></trkpt><trkpt lat="42.375058028099794" lon="12.917649469684882"><ele>403.33333333333337</ele><time>2026-04-19T11:06:22.716Z</time></trkpt><trkpt lat="42.37492839574893" lon="12.917790853895848"><ele>399.0</ele><time>2026-04-19T11:06:23.716Z</time></trkpt><trkpt lat="42.37477966442792" lon="12.917923559090372"><ele>403.33333333333337</ele><time>2026-04-19T11:06:24.716Z</time></trkpt><trkpt lat="42.37462517182261" lon="12.918040906628812"><ele>407.6666666666667</ele><time>2026-04-19T11:06:25.716Z</time></trkpt><trkpt lat="42.37446945917354" lon="12.918144132913904"><ele>412.0</ele><time>2026-04-19T11:06:26.716Z</time></trkpt><trkpt lat="42.37430714174198" lon="12.918240882769911"><ele>412.0</ele><time>2026-04-19T11:06:27.716Z</time></trkpt><trkpt lat="42.37414430513468" lon="12.918332802956128"><ele>412.0</ele><time>2026-04-19T11:06:28.716Z</time></trkpt><trkpt lat="42.37398996900247" lon="12.918424016972352"><ele>412.0</ele><time>2026-04-19T11:06:29.716Z</time></trkpt><trkpt lat="42.373852659739995" lon="12.918502355171972"><ele>411.25</ele><time>2026-04-19T11:06:30.716Z</time></trkpt><trkpt lat="42.373727012950646" lon="12.918579656526138"><ele>410.5</ele><time>2026-04-19T11:06:31.716Z</time></trkpt><trkpt lat="42.37361291319717" lon="12.918674844099796"><ele>409.75</ele><time>2026-04-19T11:06:32.716Z</time></trkpt><trkpt lat="42.373527376938675" lon="12.918802185084116"><ele>409.0</ele><time>2026-04-19T11:06:33.716Z</time></trkpt><trkpt lat="42.37346716119409" lon="12.918960749431749"><ele>409.0</ele><time>2026-04-19T11:06:34.716Z</time></trkpt><trkpt lat="42.3734291619551" lon="12.919137994116225"><ele>409.0</ele><time>2026-04-19T11:06:35.716Z</time></trkpt><trkpt lat="42.37339932934803" lon="12.919331088579694"><ele>409.0</ele><time>2026-04-19T11:06:36.716Z</time></trkpt><trkpt lat="42.373377913516784" lon="12.919538063196116"><ele>409.0</ele><time>2026-04-19T11:06:37.717Z</time></trkpt><trkpt lat="42.37334544673958" lon="12.919759981298483"><ele>406.6666666666667</ele><time>2026-04-19T11:06:38.716Z</time></trkpt><trkpt lat="42.37331783178156" lon="12.919974611535274"><ele>404.33333333333337</ele><time>2026-04-19T11:06:39.716Z</time></trkpt><trkpt lat="42.37328905073581" lon="12.920202800220924"><ele>402.0</ele><time>2026-04-19T11:06:40.716Z</time></trkpt><trkpt lat="42.373256386398715" lon="12.920438142387008"><ele>401.0</ele><time>2026-04-19T11:06:41.716Z</time></trkpt><trkpt lat="42.373226587958875" lon="12.920681753144535"><ele>400.0</ele><time>2026-04-19T11:06:42.716Z</time></trkpt><trkpt lat="42.3731967287034" lon="12.920923693162244"><ele>399.0</ele><time>2026-04-19T11:06:43.716Z</time></trkpt><trkpt lat="42.37317233479625" lon="12.921163133049333"><ele>399.0</ele><time>2026-04-19T11:06:44.716Z</time></trkpt><trkpt lat="42.37313883087088" lon="12.92139426059169"><ele>399.0</ele><time>2026-04-19T11:06:45.716Z</time></trkpt><trkpt lat="42.37309518579645" lon="12.921613212284205"><ele>399.0</ele><time>2026-04-19T11:06:46.716Z</time></trkpt><trkpt lat="42.37303200563447" lon="12.921812548565315"><ele>401.25</ele><time>2026-04-19T11:06:47.716Z</time></trkpt><trkpt lat="42.37295055092788" lon="12.921989097737505"><ele>403.5</ele><time>2026-04-19T11:06:48.716Z</time></trkpt><trkpt lat="42.372854658678726" lon="12.922135061887177"><ele>405.75</ele><time>2026-04-19T11:06:49.716Z</time></trkpt><trkpt lat="42.37274182494856" lon="12.92225273466544"><ele>408.0</ele><time>2026-04-19T11:06:50.716Z</time></trkpt><trkpt lat="42.37261865675986" lon="12.922342934004444"><ele>408.0</ele><time>2026-04-19T11:06:51.716Z</time></trkpt><trkpt lat="42.3724996026756" lon="12.922416771417257"><ele>408.0</ele><time>2026-04-19T11:06:52.716Z</time></trkpt><trkpt lat="42.37238202498501" lon="12.922492540465857"><ele>408.0</ele><time>2026-04-19T11:06:53.716Z</time></trkpt><trkpt lat="42.372262482934026" lon="12.922574832269246"><ele>408.0</ele><time>2026-04-19T11:06:54.716Z</time></trkpt><trkpt lat="42.372142431279954" lon="12.922645127277386"><ele>412.75</ele><time>2026-04-19T11:06:55.716Z</time></trkpt><trkpt lat="42.37202363457437" lon="12.922716319550604"><ele>417.5</ele><time>2026-04-19T11:06:56.716Z</time></trkpt><trkpt lat="42.37190260439063" lon="12.922787431727476"><ele>422.25</ele><time>2026-04-19T11:06:57.716Z</time></trkpt><trkpt lat="42.371783519254755" lon="12.922865820604544"><ele>427.0</ele><time>2026-04-19T11:06:58.716Z</time></trkpt><trkpt lat="42.37166095141954" lon="12.922949687035258"><ele>427.0</ele><time>2026-04-19T11:06:59.716Z</time></trkpt><trkpt lat="42.371542054041335" lon="12.923043208620784"><ele>427.0</ele><time>2026-04-19T11:07:00.716Z</time></trkpt><trkpt lat="42.371417748798464" lon="12.92313684337635"><ele>427.0</ele><time>2026-04-19T11:07:01.716Z</time></trkpt><trkpt lat="42.371289919458974" lon="12.923235862331534"><ele>427.0</ele><time>2026-04-19T11:07:02.716Z</time></trkpt><trkpt lat="42.371161574984235" lon="12.92333979809041"><ele>429.6666666666667</ele><time>2026-04-19T11:07:03.716Z</time></trkpt><trkpt lat="42.371022312432295" lon="12.923431318415117"><ele>432.33333333333337</ele><time>2026-04-19T11:07:04.715Z</time></trkpt><trkpt lat="42.37089501269408" lon="12.923543400098195"><ele>435.0</ele><time>2026-04-19T11:07:05.715Z</time></trkpt><trkpt lat="42.370770122702474" lon="12.923660452691099"><ele>435.0</ele><time>2026-04-19T11:07:06.715Z</time></trkpt><trkpt lat="42.37064456340118" lon="12.923774094223765"><ele>435.0</ele><time>2026-04-19T11:07:07.715Z</time></trkpt><trkpt lat="42.370516667279986" lon="12.923891054504246"><ele>435.0</ele><time>2026-04-19T11:07:08.715Z</time></trkpt><trkpt lat="42.37038218679271" lon="12.923998748957404"><ele>439.33333333333337</ele><time>2026-04-19T11:07:09.715Z</time></trkpt><trkpt lat="42.37025230817856" lon="12.924104804525067"><ele>443.6666666666667</ele><time>2026-04-19T11:07:10.715Z</time></trkpt><trkpt lat="42.37012260092942" lon="12.92421182975176"><ele>448.0</ele><time>2026-04-19T11:07:11.715Z</time></trkpt><trkpt lat="42.36999338412919" lon="12.92432418657008"><ele>448.0</ele><time>2026-04-19T11:07:12.715Z</time></trkpt><trkpt lat="42.36986041315851" lon="12.924432487878663"><ele>448.0</ele><time>2026-04-19T11:07:13.715Z</time></trkpt><trkpt lat="42.36972950585245" lon="12.924535978249796"><ele>448.0</ele><time>2026-04-19T11:07:14.715Z</time></trkpt><trkpt lat="42.3696015119252" lon="12.92463795093332"><ele>438.25</ele><time>2026-04-19T11:07:15.715Z</time></trkpt><trkpt lat="42.36947865849856" lon="12.924744582808282"><ele>428.5</ele><time>2026-04-19T11:07:16.715Z</time></trkpt><trkpt lat="42.36936245218031" lon="12.924851515437904"><ele>418.75</ele><time>2026-04-19T11:07:17.715Z</time></trkpt><trkpt lat="42.36924975531708" lon="12.924953747693518"><ele>409.0</ele><time>2026-04-19T11:07:18.715Z</time></trkpt><trkpt lat="42.36914030617683" lon="12.92505788123922"><ele>411.75</ele><time>2026-04-19T11:07:19.715Z</time></trkpt><trkpt lat="42.36903300227904" lon="12.92515798701103"><ele>414.5</ele><time>2026-04-19T11:07:20.715Z</time></trkpt><trkpt lat="42.36892827670251" lon="12.925253247219342"><ele>417.25</ele><time>2026-04-19T11:07:21.715Z</time></trkpt><trkpt lat="42.36881721433839" lon="12.925345039830676"><ele>420.0</ele><time>2026-04-19T11:07:22.715Z</time></trkpt><trkpt lat="42.36871296922036" lon="12.925434894958075"><ele>420.0</ele><time>2026-04-19T11:07:23.715Z</time></trkpt><trkpt lat="42.36861978972488" lon="12.925525680841957"><ele>420.0</ele><time>2026-04-19T11:07:24.715Z</time></trkpt><trkpt lat="42.36851655791706" lon="12.925594888703856"><ele>420.0</ele><time>2026-04-19T11:07:25.715Z</time></trkpt><trkpt lat="42.36841258729122" lon="12.925659049986843"><ele>420.0</ele><time>2026-04-19T11:07:26.715Z</time></trkpt><trkpt lat="42.36830676836982" lon="12.925719989525376"><ele>420.0</ele><time>2026-04-19T11:07:27.714Z</time></trkpt><trkpt lat="42.36819380270595" lon="12.925771633321514"><ele>420.0</ele><time>2026-04-19T11:07:28.714Z</time></trkpt><trkpt lat="42.368076102705054" lon="12.925815963406572"><ele>420.0</ele><time>2026-04-19T11:07:29.714Z</time></trkpt><trkpt lat="42.36796586299253" lon="12.925855999544988"><ele>420.0</ele><time>2026-04-19T11:07:30.714Z</time></trkpt><trkpt lat="42.36784609865028" lon="12.925893096621465"><ele>431.25</ele><time>2026-04-19T11:07:31.714Z</time></trkpt><trkpt lat="42.36772711161334" lon="12.925929310727843"><ele>442.5</ele><time>2026-04-19T11:07:32.714Z</time></trkpt><trkpt lat="42.367604082947764" lon="12.925966826612237"><ele>453.75</ele><time>2026-04-19T11:07:33.714Z</time></trkpt><trkpt lat="42.367482016317254" lon="12.92600542698106"><ele>465.0</ele><time>2026-04-19T11:07:34.714Z</time></trkpt><trkpt lat="42.36735764378836" lon="12.926043253965913"><ele>465.0</ele><time>2026-04-19T11:07:35.714Z</time></trkpt><trkpt lat="42.367233720125476" lon="12.92608149481498"><ele>465.0</ele><time>2026-04-19T11:07:36.714Z</time></trkpt><trkpt lat="42.367102336121015" lon="12.92609659768034"><ele>465.0</ele><time>2026-04-19T11:07:37.714Z</time></trkpt><trkpt lat="42.366966846323486" lon="12.926106196257722"><ele>465.0</ele><time>2026-04-19T11:07:38.714Z</time></trkpt><trkpt lat="42.36682499811473" lon="12.92610389151627"><ele>457.75</ele><time>2026-04-19T11:07:39.714Z</time></trkpt><trkpt lat="42.36668328369723" lon="12.926086334149854"><ele>450.5</ele><time>2026-04-19T11:07:40.714Z</time></trkpt><trkpt lat="42.36654252455219" lon="12.926055531454889"><ele>443.25</ele><time>2026-04-19T11:07:41.714Z</time></trkpt><trkpt lat="42.36639732521398" lon="12.926021129717748"><ele>436.0</ele><time>2026-04-19T11:07:42.714Z</time></trkpt><trkpt lat="42.36624783303435" lon="12.9259846977197"><ele>434.0</ele><time>2026-04-19T11:07:43.714Z</time></trkpt><trkpt lat="42.36609973478643" lon="12.925946020865654"><ele>432.0</ele><time>2026-04-19T11:07:44.714Z</time></trkpt><trkpt lat="42.365952621038076" lon="12.9259050944721"><ele>430.0</ele><time>2026-04-19T11:07:45.714Z</time></trkpt><trkpt lat="42.365800361800474" lon="12.92588683739247"><ele>425.6666666666667</ele><time>2026-04-19T11:07:46.714Z</time></trkpt><trkpt lat="42.36564353801805" lon="12.925882073421095"><ele>421.33333333333337</ele><time>2026-04-19T11:07:47.714Z</time></trkpt><trkpt lat="42.36548506578626" lon="12.92589891971101"><ele>417.0</ele><time>2026-04-19T11:07:48.714Z</time></trkpt><trkpt lat="42.36533210845185" lon="12.925940262206021"><ele>417.0</ele><time>2026-04-19T11:07:49.714Z</time></trkpt><trkpt lat="42.36517536642152" lon="12.925997465204055"><ele>417.0</ele><time>2026-04-19T11:07:50.713Z</time></trkpt><trkpt lat="42.36501273379618" lon="12.926062262007198"><ele>417.0</ele><time>2026-04-19T11:07:51.713Z</time></trkpt><trkpt lat="42.3648467901287" lon="12.926137326630542"><ele>412.33333333333337</ele><time>2026-04-19T11:07:52.713Z</time></trkpt><trkpt lat="42.36467308631239" lon="12.926248537782175"><ele>407.6666666666667</ele><time>2026-04-19T11:07:53.713Z</time></trkpt><trkpt lat="42.36449599312473" lon="12.92637394341155"><ele>403.0</ele><time>2026-04-19T11:07:54.713Z</time></trkpt><trkpt lat="42.36431812316081" lon="12.926508294922108"><ele>403.0</ele><time>2026-04-19T11:07:55.713Z</time></trkpt><trkpt lat="42.36414246822611" lon="12.926661626751914"><ele>403.0</ele><time>2026-04-19T11:07:56.713Z</time></trkpt><trkpt lat="42.36397290399192" lon="12.926830929490963"><ele>403.0</ele><time>2026-04-19T11:07:57.713Z</time></trkpt><trkpt lat="42.36381031664461" lon="12.927020180269963"><ele>403.0</ele><time>2026-04-19T11:07:58.713Z</time></trkpt><trkpt lat="42.36365336741969" lon="12.927210755704271"><ele>403.0</ele><time>2026-04-19T11:07:59.713Z</time></trkpt><trkpt lat="42.36348044398591" lon="12.927367207361776"><ele>403.0</ele><time>2026-04-19T11:08:00.713Z</time></trkpt><trkpt lat="42.36329289050259" lon="12.92751530584447"><ele>404.0</ele><time>2026-04-19T11:08:01.713Z</time></trkpt><trkpt lat="42.36309976411249" lon="12.927653559680813"><ele>405.0</ele><time>2026-04-19T11:08:02.713Z</time></trkpt><trkpt lat="42.36290322195678" lon="12.92778589222269"><ele>406.0</ele><time>2026-04-19T11:08:03.713Z</time></trkpt><trkpt lat="42.36270147111487" lon="12.927904321202659"><ele>406.0</ele><time>2026-04-19T11:08:04.713Z</time></trkpt><trkpt lat="42.362494907262494" lon="12.928006998359598"><ele>406.0</ele><time>2026-04-19T11:08:05.713Z</time></trkpt><trkpt lat="42.362284181744634" lon="12.92808335830419"><ele>406.0</ele><time>2026-04-19T11:08:06.713Z</time></trkpt><trkpt lat="42.36207577047871" lon="12.928144483629703"><ele>405.6666666666667</ele><time>2026-04-19T11:08:07.713Z</time></trkpt><trkpt lat="42.36185862504036" lon="12.928182978535775"><ele>405.33333333333337</ele><time>2026-04-19T11:08:08.713Z</time></trkpt><trkpt lat="42.36164348034727" lon="12.92821664355736"><ele>405.0</ele><time>2026-04-19T11:08:09.713Z</time></trkpt><trkpt lat="42.361430190630315" lon="12.928255197649467"><ele>405.33333333333337</ele><time>2026-04-19T11:08:10.713Z</time></trkpt><trkpt lat="42.36121545374057" lon="12.9282899736318"><ele>405.6666666666667</ele><time>2026-04-19T11:08:11.713Z</time></trkpt><trkpt lat="42.36100099718724" lon="12.928337154289855"><ele>406.0</ele><time>2026-04-19T11:08:12.713Z</time></trkpt><trkpt lat="42.360791491018716" lon="12.928404744244071"><ele>406.33333333333337</ele><time>2026-04-19T11:08:13.712Z</time></trkpt><trkpt lat="42.36058233971457" lon="12.928489530527033"><ele>406.66666666666663</ele><time>2026-04-19T11:08:14.712Z</time></trkpt><trkpt lat="42.36037102809733" lon="12.928593908242428"><ele>407.0</ele><time>2026-04-19T11:08:15.712Z</time></trkpt><trkpt lat="42.36016742162029" lon="12.928707112128587"><ele>407.0</ele><time>2026-04-19T11:08:16.712Z</time></trkpt><trkpt lat="42.35997728762055" lon="12.928839268681989"><ele>407.0</ele><time>2026-04-19T11:08:17.712Z</time></trkpt><trkpt lat="42.35978556447891" lon="12.928996610075167"><ele>407.0</ele><time>2026-04-19T11:08:18.712Z</time></trkpt><trkpt lat="42.35960320112444" lon="12.929178119665941"><ele>407.0</ele><time>2026-04-19T11:08:19.712Z</time></trkpt><trkpt lat="42.35942907163808" lon="12.92937830083654"><ele>407.0</ele><time>2026-04-19T11:08:20.712Z</time></trkpt><trkpt lat="42.35926703422707" lon="12.929596922870118"><ele>407.0</ele><time>2026-04-19T11:08:21.712Z</time></trkpt><trkpt lat="42.35912237516095" lon="12.929831589674231"><ele>407.0</ele><time>2026-04-19T11:08:22.712Z</time></trkpt><trkpt lat="42.35898782931145" lon="12.9300827577215"><ele>405.0</ele><time>2026-04-19T11:08:23.712Z</time></trkpt><trkpt lat="42.35886573496428" lon="12.93034258372991"><ele>403.0</ele><time>2026-04-19T11:08:24.712Z</time></trkpt><trkpt lat="42.35875706855982" lon="12.930610442359301"><ele>403.0</ele><time>2026-04-19T11:08:25.712Z</time></trkpt><trkpt lat="42.358668515037955" lon="12.930887422099634"><ele>403.0</ele><time>2026-04-19T11:08:26.712Z</time></trkpt><trkpt lat="42.358596610642095" lon="12.93117102729564"><ele>403.0</ele><time>2026-04-19T11:08:27.712Z</time></trkpt><trkpt lat="42.35853383767122" lon="12.9314559058731"><ele>402.33333333333337</ele><time>2026-04-19T11:08:28.712Z</time></trkpt><trkpt lat="42.35848067747437" lon="12.931749460781635"><ele>401.66666666666663</ele><time>2026-04-19T11:08:29.712Z</time></trkpt><trkpt lat="42.35842920883252" lon="12.932041480508797"><ele>401.0</ele><time>2026-04-19T11:08:30.712Z</time></trkpt><trkpt lat="42.35838473931095" lon="12.932334045903"><ele>405.3333333333333</ele><time>2026-04-19T11:08:31.712Z</time></trkpt><trkpt lat="42.358340374755755" lon="12.932620157841418"><ele>409.66666666666663</ele><time>2026-04-19T11:08:32.712Z</time></trkpt><trkpt lat="42.35829820411223" lon="12.932890949287785"><ele>414.0</ele><time>2026-04-19T11:08:33.712Z</time></trkpt><trkpt lat="42.358239611172294" lon="12.933151402020407"><ele>418.33333333333337</ele><time>2026-04-19T11:08:34.712Z</time></trkpt><trkpt lat="42.358179285232886" lon="12.933412342308781"><ele>422.6666666666667</ele><time>2026-04-19T11:08:35.712Z</time></trkpt><trkpt lat="42.35810866251067" lon="12.933667780358267"><ele>427.0</ele><time>2026-04-19T11:08:36.711Z</time></trkpt><trkpt lat="42.358039567842866" lon="12.93392644776516"><ele>419.6666666666667</ele><time>2026-04-19T11:08:37.711Z</time></trkpt><trkpt lat="42.35797056038148" lon="12.93418117994247"><ele>412.33333333333337</ele><time>2026-04-19T11:08:38.711Z</time></trkpt><trkpt lat="42.35789454799505" lon="12.93443622269177"><ele>405.0</ele><time>2026-04-19T11:08:39.711Z</time></trkpt><trkpt lat="42.357808030664586" lon="12.934686193765998"><ele>405.66666666666663</ele><time>2026-04-19T11:08:40.711Z</time></trkpt><trkpt lat="42.35770573189947" lon="12.93492625959171"><ele>406.3333333333333</ele><time>2026-04-19T11:08:41.711Z</time></trkpt><trkpt lat="42.35759420229791" lon="12.93516303334715"><ele>407.0</ele><time>2026-04-19T11:08:42.711Z</time></trkpt><trkpt lat="42.357473963190145" lon="12.93539974363561"><ele>407.0</ele><time>2026-04-19T11:08:43.712Z</time></trkpt><trkpt lat="42.35734910422561" lon="12.935634873612285"><ele>407.0</ele><time>2026-04-19T11:08:44.711Z</time></trkpt><trkpt lat="42.35721066342811" lon="12.935863450341682"><ele>407.0</ele><time>2026-04-19T11:08:45.711Z</time></trkpt><trkpt lat="42.357068752055895" lon="12.936085654694825"><ele>405.3333333333333</ele><time>2026-04-19T11:08:46.711Z</time></trkpt><trkpt lat="42.35692839647826" lon="12.93630157230065"><ele>403.66666666666663</ele><time>2026-04-19T11:08:47.712Z</time></trkpt><trkpt lat="42.35676558393314" lon="12.936501030119583"><ele>402.0</ele><time>2026-04-19T11:08:48.712Z</time></trkpt><trkpt lat="42.35659795015462" lon="12.936686604648438"><ele>402.33333333333337</ele><time>2026-04-19T11:08:49.711Z</time></trkpt><trkpt lat="42.35642251724158" lon="12.93685800181405"><ele>402.6666666666667</ele><time>2026-04-19T11:08:50.712Z</time></trkpt><trkpt lat="42.35624662530859" lon="12.93702710681497"><ele>403.0</ele><time>2026-04-19T11:08:51.711Z</time></trkpt><trkpt lat="42.356077117379556" lon="12.937190033696346"><ele>403.0</ele><time>2026-04-19T11:08:52.711Z</time></trkpt><trkpt lat="42.35590178351612" lon="12.93734304673831"><ele>403.0</ele><time>2026-04-19T11:08:53.712Z</time></trkpt><trkpt lat="42.35572445146691" lon="12.937488969494968"><ele>403.0</ele><time>2026-04-19T11:08:54.711Z</time></trkpt><trkpt lat="42.35555033710229" lon="12.93764903805213"><ele>404.33333333333337</ele><time>2026-04-19T11:08:55.711Z</time></trkpt><trkpt lat="42.3553773276493" lon="12.937831807918874"><ele>405.66666666666663</ele><time>2026-04-19T11:08:56.711Z</time></trkpt><trkpt lat="42.35520908427747" lon="12.938024543473178"><ele>407.0</ele><time>2026-04-19T11:08:57.711Z</time></trkpt><trkpt lat="42.35504996195932" lon="12.938238490101183"><ele>406.0</ele><time>2026-04-19T11:08:58.711Z</time></trkpt><trkpt lat="42.35489467234606" lon="12.938462820894621"><ele>405.0</ele><time>2026-04-19T11:08:59.711Z</time></trkpt><trkpt lat="42.35474867298231" lon="12.938702316787053"><ele>415.5</ele><time>2026-04-19T11:09:00.711Z</time></trkpt><trkpt lat="42.354610116206395" lon="12.938952773242704"><ele>426.0</ele><time>2026-04-19T11:09:01.711Z</time></trkpt><trkpt lat="42.35447970163457" lon="12.939210604184739"><ele>417.5</ele><time>2026-04-19T11:09:02.711Z</time></trkpt><trkpt lat="42.35436086526223" lon="12.939475799726711"><ele>409.0</ele><time>2026-04-19T11:09:03.711Z</time></trkpt><trkpt lat="42.35425674590903" lon="12.93975388993235"><ele>409.0</ele><time>2026-04-19T11:09:04.711Z</time></trkpt><trkpt lat="42.354168669705714" lon="12.940037761152611"><ele>409.0</ele><time>2026-04-19T11:09:05.711Z</time></trkpt><trkpt lat="42.35409084098354" lon="12.940327416529701"><ele>409.0</ele><time>2026-04-19T11:09:06.711Z</time></trkpt><trkpt lat="42.35402722758964" lon="12.940616532476467"><ele>409.0</ele><time>2026-04-19T11:09:07.711Z</time></trkpt><trkpt lat="42.353978874342125" lon="12.940910616045592"><ele>409.0</ele><time>2026-04-19T11:09:08.711Z</time></trkpt><trkpt lat="42.353940750846206" lon="12.94120665242619"><ele>409.0</ele><time>2026-04-19T11:09:09.711Z</time></trkpt><trkpt lat="42.35391393749759" lon="12.941501931861493"><ele>409.0</ele><time>2026-04-19T11:09:10.711Z</time></trkpt><trkpt lat="42.353895040065574" lon="12.94179955867508"><ele>409.0</ele><time>2026-04-19T11:09:11.711Z</time></trkpt><trkpt lat="42.353876175573916" lon="12.942093729097657"><ele>423.0</ele><time>2026-04-19T11:09:12.711Z</time></trkpt><trkpt lat="42.353858174729254" lon="12.942391935412175"><ele>437.0</ele><time>2026-04-19T11:09:13.711Z</time></trkpt><trkpt lat="42.353840059409805" lon="12.942689973401938"><ele>451.0</ele><time>2026-04-19T11:09:14.711Z</time></trkpt><trkpt lat="42.35381831279067" lon="12.942985814598256"><ele>451.0</ele><time>2026-04-19T11:09:15.711Z</time></trkpt><trkpt lat="42.35379625450445" lon="12.943277285306817"><ele>451.0</ele><time>2026-04-19T11:09:16.711Z</time></trkpt><trkpt lat="42.35376466466469" lon="12.943574488550528"><ele>451.0</ele><time>2026-04-19T11:09:17.711Z</time></trkpt><trkpt lat="42.35373096763494" lon="12.943865081048871"><ele>445.6666666666667</ele><time>2026-04-19T11:09:18.71Z</time></trkpt><trkpt lat="42.35368867916937" lon="12.94415300942866"><ele>440.33333333333337</ele><time>2026-04-19T11:09:19.71Z</time></trkpt><trkpt lat="42.35363934205643" lon="12.944434080983235"><ele>435.0</ele><time>2026-04-19T11:09:20.71Z</time></trkpt><trkpt lat="42.35358776771306" lon="12.944721607987516"><ele>429.66666666666663</ele><time>2026-04-19T11:09:21.71Z</time></trkpt><trkpt lat="42.353538154233185" lon="12.945007083130957"><ele>424.3333333333333</ele><time>2026-04-19T11:09:22.71Z</time></trkpt><trkpt lat="42.35348084926421" lon="12.945290619995031"><ele>419.0</ele><time>2026-04-19T11:09:23.71Z</time></trkpt><trkpt lat="42.353421083889856" lon="12.945575698779827"><ele>417.3333333333333</ele><time>2026-04-19T11:09:24.71Z</time></trkpt><trkpt lat="42.353357221098314" lon="12.945855986036973"><ele>415.66666666666663</ele><time>2026-04-19T11:09:25.71Z</time></trkpt><trkpt lat="42.353295627508466" lon="12.946135501204912"><ele>414.0</ele><time>2026-04-19T11:09:26.71Z</time></trkpt><trkpt lat="42.353236875144454" lon="12.946419932708704"><ele>414.0</ele><time>2026-04-19T11:09:27.71Z</time></trkpt><trkpt lat="42.35317848063836" lon="12.946706274102365"><ele>414.0</ele><time>2026-04-19T11:09:28.71Z</time></trkpt><trkpt lat="42.3531201246949" lon="12.946994986628065"><ele>414.0</ele><time>2026-04-19T11:09:29.71Z</time></trkpt><trkpt lat="42.35306964518783" lon="12.947281850060799"><ele>418.66666666666663</ele><time>2026-04-19T11:09:30.71Z</time></trkpt><trkpt lat="42.353015279608506" lon="12.947569737175453"><ele>423.3333333333333</ele><time>2026-04-19T11:09:31.71Z</time></trkpt><trkpt lat="42.3529668485704" lon="12.947855529377907"><ele>428.0</ele><time>2026-04-19T11:09:32.71Z</time></trkpt><trkpt lat="42.35291990793422" lon="12.948146935037641"><ele>427.0</ele><time>2026-04-19T11:09:33.71Z</time></trkpt><trkpt lat="42.35287406384921" lon="12.948446112146922"><ele>426.0</ele><time>2026-04-19T11:09:34.71Z</time></trkpt><trkpt lat="42.3528286928361" lon="12.948750448157767"><ele>426.0</ele><time>2026-04-19T11:09:35.71Z</time></trkpt><trkpt lat="42.35278485239183" lon="12.949059775402668"><ele>426.0</ele><time>2026-04-19T11:09:36.71Z</time></trkpt><trkpt lat="42.35274119825377" lon="12.94937243516182"><ele>426.0</ele><time>2026-04-19T11:09:37.71Z</time></trkpt><trkpt lat="42.3526986710552" lon="12.949686338747451"><ele>426.0</ele><time>2026-04-19T11:09:38.71Z</time></trkpt><trkpt lat="42.35268002576826" lon="12.949965503550757"><ele>426.0</ele><time>2026-04-19T11:09:39.71Z</time></trkpt><trkpt lat="42.352679069830224" lon="12.950230152037086"><ele>426.33333333333337</ele><time>2026-04-19T11:09:40.71Z</time></trkpt><trkpt lat="42.35268131197615" lon="12.950505007049337"><ele>426.6666666666667</ele><time>2026-04-19T11:09:41.709Z</time></trkpt><trkpt lat="42.35266726628738" lon="12.950789395072162"><ele>427.0</ele><time>2026-04-19T11:09:42.709Z</time></trkpt><trkpt lat="42.352655383745166" lon="12.951076919480151"><ele>426.6666666666667</ele><time>2026-04-19T11:09:43.709Z</time></trkpt><trkpt lat="42.35264150880965" lon="12.951370843769404"><ele>426.33333333333337</ele><time>2026-04-19T11:09:44.709Z</time></trkpt><trkpt lat="42.352629690484676" lon="12.95166607232056"><ele>426.0</ele><time>2026-04-19T11:09:45.709Z</time></trkpt><trkpt lat="42.352617183961044" lon="12.951961980997451"><ele>426.0</ele><time>2026-04-19T11:09:46.709Z</time></trkpt><trkpt lat="42.352600846071226" lon="12.952256711025711"><ele>426.0</ele><time>2026-04-19T11:09:47.709Z</time></trkpt><trkpt lat="42.35258247691079" lon="12.952549006108969"><ele>426.0</ele><time>2026-04-19T11:09:48.709Z</time></trkpt><trkpt lat="42.35256266901529" lon="12.952840063763272"><ele>424.0</ele><time>2026-04-19T11:09:49.709Z</time></trkpt><trkpt lat="42.35254376244397" lon="12.95312976856274"><ele>422.0</ele><time>2026-04-19T11:09:50.709Z</time></trkpt><trkpt lat="42.352525179708" lon="12.953423592655623"><ele>420.0</ele><time>2026-04-19T11:09:51.709Z</time></trkpt><trkpt lat="42.35250394652539" lon="12.953717658320224"><ele>419.33333333333337</ele><time>2026-04-19T11:09:52.709Z</time></trkpt><trkpt lat="42.35247471665336" lon="12.954010878964834"><ele>418.6666666666667</ele><time>2026-04-19T11:09:53.709Z</time></trkpt><trkpt lat="42.35243813466665" lon="12.954302015568762"><ele>418.0</ele><time>2026-04-19T11:09:54.709Z</time></trkpt><trkpt lat="42.3523957627658" lon="12.954582834270813"><ele>417.0</ele><time>2026-04-19T11:09:55.709Z</time></trkpt><trkpt lat="42.35235316386064" lon="12.954874000566027"><ele>416.0</ele><time>2026-04-19T11:09:56.709Z</time></trkpt><trkpt lat="42.352307908574154" lon="12.955154932899276"><ele>415.0</ele><time>2026-04-19T11:09:57.709Z</time></trkpt><trkpt lat="42.352251897360105" lon="12.955442054309943"><ele>429.33333333333337</ele><time>2026-04-19T11:09:58.709Z</time></trkpt><trkpt lat="42.35219155603982" lon="12.955727034360875"><ele>443.66666666666663</ele><time>2026-04-19T11:09:59.709Z</time></trkpt><trkpt lat="42.35213138707196" lon="12.956013361523905"><ele>458.0</ele><time>2026-04-19T11:10:00.709Z</time></trkpt><trkpt lat="42.352069756388" lon="12.956299186259608"><ele>458.0</ele><time>2026-04-19T11:10:01.709Z</time></trkpt><trkpt lat="42.352002539410044" lon="12.956583499467422"><ele>458.0</ele><time>2026-04-19T11:10:02.709Z</time></trkpt><trkpt lat="42.35193256559996" lon="12.956865853339924"><ele>458.0</ele><time>2026-04-19T11:10:03.709Z</time></trkpt><trkpt lat="42.35185974697066" lon="12.957149079307518"><ele>452.66666666666663</ele><time>2026-04-19T11:10:04.708Z</time></trkpt><trkpt lat="42.35178437166829" lon="12.957430554186729"><ele>447.33333333333337</ele><time>2026-04-19T11:10:05.708Z</time></trkpt><trkpt lat="42.35170905623166" lon="12.957714085276933"><ele>442.0</ele><time>2026-04-19T11:10:06.708Z</time></trkpt><trkpt lat="42.3516333497503" lon="12.957994491940527"><ele>436.0</ele><time>2026-04-19T11:10:07.708Z</time></trkpt><trkpt lat="42.35155104101984" lon="12.958282311188539"><ele>430.0</ele><time>2026-04-19T11:10:08.708Z</time></trkpt><trkpt lat="42.351479599022106" lon="12.958551675369568"><ele>424.0</ele><time>2026-04-19T11:10:09.708Z</time></trkpt><trkpt lat="42.351404319419565" lon="12.958827455257376"><ele>430.0</ele><time>2026-04-19T11:10:10.708Z</time></trkpt><trkpt lat="42.35133409268638" lon="12.959094232461556"><ele>436.0</ele><time>2026-04-19T11:10:11.708Z</time></trkpt><trkpt lat="42.35127542363466" lon="12.95934601042875"><ele>442.0</ele><time>2026-04-19T11:10:12.708Z</time></trkpt><trkpt lat="42.35121541238299" lon="12.959586287047886"><ele>442.0</ele><time>2026-04-19T11:10:13.708Z</time></trkpt><trkpt lat="42.351156984276706" lon="12.95982054765823"><ele>442.0</ele><time>2026-04-19T11:10:14.708Z</time></trkpt><trkpt lat="42.35109055670759" lon="12.960049199741267"><ele>442.0</ele><time>2026-04-19T11:10:15.708Z</time></trkpt><trkpt lat="42.35101455122881" lon="12.960277210794105"><ele>435.6666666666667</ele><time>2026-04-19T11:10:16.708Z</time></trkpt><trkpt lat="42.35092544833678" lon="12.960501383675439"><ele>429.33333333333337</ele><time>2026-04-19T11:10:17.708Z</time></trkpt><trkpt lat="42.35083399530351" lon="12.960727091576024"><ele>423.0</ele><time>2026-04-19T11:10:18.708Z</time></trkpt><trkpt lat="42.35073279438337" lon="12.960946582699513"><ele>423.0</ele><time>2026-04-19T11:10:19.708Z</time></trkpt><trkpt lat="42.35061941178561" lon="12.961156214677278"><ele>423.0</ele><time>2026-04-19T11:10:20.708Z</time></trkpt><trkpt lat="42.350499200379915" lon="12.961369657758517"><ele>423.0</ele><time>2026-04-19T11:10:21.708Z</time></trkpt><trkpt lat="42.350368187379594" lon="12.961574634881083"><ele>419.33333333333337</ele><time>2026-04-19T11:10:22.708Z</time></trkpt><trkpt lat="42.350221733005384" lon="12.96177069089872"><ele>415.6666666666667</ele><time>2026-04-19T11:10:23.708Z</time></trkpt><trkpt lat="42.35006641630004" lon="12.961961607774718"><ele>412.0</ele><time>2026-04-19T11:10:24.708Z</time></trkpt><trkpt lat="42.34990198806082" lon="12.96213353742985"><ele>412.0</ele><time>2026-04-19T11:10:25.708Z</time></trkpt><trkpt lat="42.349729748980074" lon="12.962294072941154"><ele>412.0</ele><time>2026-04-19T11:10:26.708Z</time></trkpt><trkpt lat="42.349553343334215" lon="12.962458250189341"><ele>412.0</ele><time>2026-04-19T11:10:27.707Z</time></trkpt><trkpt lat="42.34937973749695" lon="12.96262147277088"><ele>412.0</ele><time>2026-04-19T11:10:28.707Z</time></trkpt><trkpt lat="42.349199508279696" lon="12.96277230590626"><ele>412.0</ele><time>2026-04-19T11:10:29.707Z</time></trkpt><trkpt lat="42.349013027898785" lon="12.96292017831923"><ele>412.0</ele><time>2026-04-19T11:10:30.707Z</time></trkpt><trkpt lat="42.34883196058913" lon="12.96307338503564"><ele>412.0</ele><time>2026-04-19T11:10:31.707Z</time></trkpt><trkpt lat="42.34865746827177" lon="12.963222938133661"><ele>412.0</ele><time>2026-04-19T11:10:32.707Z</time></trkpt><trkpt lat="42.348487652407385" lon="12.963376221865017"><ele>412.0</ele><time>2026-04-19T11:10:33.707Z</time></trkpt><trkpt lat="42.34831485869909" lon="12.96353742885792"><ele>412.0</ele><time>2026-04-19T11:10:34.707Z</time></trkpt><trkpt lat="42.34813750482196" lon="12.963694460145575"><ele>412.0</ele><time>2026-04-19T11:10:35.707Z</time></trkpt><trkpt lat="42.34795563081187" lon="12.963856577482398"><ele>412.0</ele><time>2026-04-19T11:10:36.707Z</time></trkpt><trkpt lat="42.34777789243974" lon="12.964026237576338"><ele>412.33333333333337</ele><time>2026-04-19T11:10:37.707Z</time></trkpt><trkpt lat="42.3476392787267" lon="12.964268194838555"><ele>412.66666666666663</ele><time>2026-04-19T11:10:38.707Z</time></trkpt><trkpt lat="42.34747130555147" lon="12.964445464624779"><ele>413.0</ele><time>2026-04-19T11:10:39.707Z</time></trkpt><trkpt lat="42.347305020412655" lon="12.964628011697796"><ele>413.3333333333333</ele><time>2026-04-19T11:10:40.707Z</time></trkpt><trkpt lat="42.34712989020539" lon="12.964820459259684"><ele>413.66666666666663</ele><time>2026-04-19T11:10:41.707Z</time></trkpt><trkpt lat="42.346960353674426" lon="12.965005671310399"><ele>414.0</ele><time>2026-04-19T11:10:42.707Z</time></trkpt><trkpt lat="42.34678731376211" lon="12.965192259275417"><ele>414.0</ele><time>2026-04-19T11:10:43.707Z</time></trkpt><trkpt lat="42.34661176129334" lon="12.965369118472152"><ele>414.0</ele><time>2026-04-19T11:10:44.707Z</time></trkpt><trkpt lat="42.34644259891643" lon="12.96556043932523"><ele>414.0</ele><time>2026-04-19T11:10:45.707Z</time></trkpt><trkpt lat="42.346257803449625" lon="12.965719686552733"><ele>415.66666666666663</ele><time>2026-04-19T11:10:46.707Z</time></trkpt><trkpt lat="42.346076800599874" lon="12.965897073540999"><ele>417.3333333333333</ele><time>2026-04-19T11:10:47.707Z</time></trkpt><trkpt lat="42.34589659229787" lon="12.966073681853828"><ele>419.0</ele><time>2026-04-19T11:10:48.707Z</time></trkpt><trkpt lat="42.345718192439506" lon="12.966248517850696"><ele>417.66666666666663</ele><time>2026-04-19T11:10:49.707Z</time></trkpt><trkpt lat="42.345542351640674" lon="12.966420845902105"><ele>416.33333333333337</ele><time>2026-04-19T11:10:50.707Z</time></trkpt><trkpt lat="42.34536189653013" lon="12.966597696095072"><ele>415.0</ele><time>2026-04-19T11:10:51.707Z</time></trkpt><trkpt lat="42.3451851084422" lon="12.966787343811959"><ele>415.6666666666667</ele><time>2026-04-19T11:10:52.707Z</time></trkpt><trkpt lat="42.34499805622622" lon="12.966955243808359"><ele>416.33333333333337</ele><time>2026-04-19T11:10:53.707Z</time></trkpt><trkpt lat="42.34481497230097" lon="12.967130140589658"><ele>417.0</ele><time>2026-04-19T11:10:54.707Z</time></trkpt><trkpt lat="42.344633233471114" lon="12.967307809861445"><ele>417.0</ele><time>2026-04-19T11:10:55.708Z</time></trkpt><trkpt lat="42.34445266550116" lon="12.967483576156138"><ele>417.0</ele><time>2026-04-19T11:10:56.707Z</time></trkpt><trkpt lat="42.34427559902152" lon="12.967668794138186"><ele>417.0</ele><time>2026-04-19T11:10:57.707Z</time></trkpt><trkpt lat="42.34410311106091" lon="12.967864297926441"><ele>417.5</ele><time>2026-04-19T11:10:58.708Z</time></trkpt><trkpt lat="42.343937468773326" lon="12.968082256639171"><ele>418.0</ele><time>2026-04-19T11:10:59.707Z</time></trkpt><trkpt lat="42.3437816724536" lon="12.968303037241586"><ele>419.0</ele><time>2026-04-19T11:11:00.707Z</time></trkpt><trkpt lat="42.34362798866778" lon="12.968530712710102"><ele>420.0</ele><time>2026-04-19T11:11:01.707Z</time></trkpt><trkpt lat="42.343476107442605" lon="12.968761487246498"><ele>420.0</ele><time>2026-04-19T11:11:02.707Z</time></trkpt><trkpt lat="42.34332553126713" lon="12.968991728857537"><ele>420.0</ele><time>2026-04-19T11:11:03.707Z</time></trkpt><trkpt lat="42.343170519948536" lon="12.969210590076951"><ele>419.66666666666663</ele><time>2026-04-19T11:11:04.707Z</time></trkpt><trkpt lat="42.343013155763536" lon="12.969424952091101"><ele>419.3333333333333</ele><time>2026-04-19T11:11:05.707Z</time></trkpt><trkpt lat="42.342855154647594" lon="12.96963745952607"><ele>419.0</ele><time>2026-04-19T11:11:06.707Z</time></trkpt><trkpt lat="42.342687986604446" lon="12.969831491681738"><ele>419.0</ele><time>2026-04-19T11:11:07.707Z</time></trkpt><trkpt lat="42.34250644216374" lon="12.970015461540843"><ele>419.0</ele><time>2026-04-19T11:11:08.707Z</time></trkpt><trkpt lat="42.342315697099195" lon="12.970179613322038"><ele>420.3333333333333</ele><time>2026-04-19T11:11:09.707Z</time></trkpt><trkpt lat="42.342122576602044" lon="12.970330207442615"><ele>421.66666666666663</ele><time>2026-04-19T11:11:10.707Z</time></trkpt><trkpt lat="42.34192108264079" lon="12.970465861881253"><ele>423.0</ele><time>2026-04-19T11:11:11.707Z</time></trkpt><trkpt lat="42.34171640197199" lon="12.970588808459695"><ele>423.0</ele><time>2026-04-19T11:11:12.707Z</time></trkpt><trkpt lat="42.34150840065657" lon="12.970706945224062"><ele>423.0</ele><time>2026-04-19T11:11:13.707Z</time></trkpt><trkpt lat="42.341301727928716" lon="12.970830918679786"><ele>428.5</ele><time>2026-04-19T11:11:14.707Z</time></trkpt><trkpt lat="42.34109122905476" lon="12.970947415694305"><ele>434.0</ele><time>2026-04-19T11:11:15.707Z</time></trkpt><trkpt lat="42.34087825426084" lon="12.971065315557237"><ele>434.0</ele><time>2026-04-19T11:11:16.707Z</time></trkpt><trkpt lat="42.340663882102206" lon="12.971185719586082"><ele>434.0</ele><time>2026-04-19T11:11:17.707Z</time></trkpt><trkpt lat="42.340449648888075" lon="12.971309884788887"><ele>428.0</ele><time>2026-04-19T11:11:18.707Z</time></trkpt><trkpt lat="42.34022874079725" lon="12.97143145042149"><ele>422.0</ele><time>2026-04-19T11:11:19.706Z</time></trkpt><trkpt lat="42.340007853280156" lon="12.971552458256715"><ele>422.0</ele><time>2026-04-19T11:11:20.706Z</time></trkpt><trkpt lat="42.33978522227163" lon="12.971674459460164"><ele>422.0</ele><time>2026-04-19T11:11:21.706Z</time></trkpt><trkpt lat="42.33956329189488" lon="12.971795834795163"><ele>425.0</ele><time>2026-04-19T11:11:22.706Z</time></trkpt><trkpt lat="42.33934665249319" lon="12.971917931137966"><ele>428.0</ele><time>2026-04-19T11:11:23.706Z</time></trkpt><trkpt lat="42.33912478756852" lon="12.972045888404484"><ele>428.0</ele><time>2026-04-19T11:11:24.706Z</time></trkpt><trkpt lat="42.338902304815406" lon="12.9721698625038"><ele>428.0</ele><time>2026-04-19T11:11:25.706Z</time></trkpt><trkpt lat="42.3386851103353" lon="12.972292267659295"><ele>423.5</ele><time>2026-04-19T11:11:26.706Z</time></trkpt><trkpt lat="42.338466590215475" lon="12.972407478802195"><ele>419.0</ele><time>2026-04-19T11:11:27.706Z</time></trkpt><trkpt lat="42.33824886049215" lon="12.972534367349168"><ele>420.5</ele><time>2026-04-19T11:11:28.706Z</time></trkpt><trkpt lat="42.338031463983576" lon="12.97265606294704"><ele>422.0</ele><time>2026-04-19T11:11:29.706Z</time></trkpt><trkpt lat="42.33781185678533" lon="12.972779621761639"><ele>422.0</ele><time>2026-04-19T11:11:30.706Z</time></trkpt><trkpt lat="42.33759015447012" lon="12.97290381211435"><ele>422.0</ele><time>2026-04-19T11:11:31.706Z</time></trkpt><trkpt lat="42.337367575136945" lon="12.973024356090091"><ele>420.0</ele><time>2026-04-19T11:11:32.706Z</time></trkpt><trkpt lat="42.33714321379828" lon="12.973151640105348"><ele>418.0</ele><time>2026-04-19T11:11:33.706Z</time></trkpt><trkpt lat="42.336917881245746" lon="12.973279185670492"><ele>419.5</ele><time>2026-04-19T11:11:34.706Z</time></trkpt><trkpt lat="42.3366926836793" lon="12.973409178979812"><ele>421.0</ele><time>2026-04-19T11:11:35.706Z</time></trkpt><trkpt lat="42.336467603111224" lon="12.973550478528322"><ele>421.5</ele><time>2026-04-19T11:11:36.706Z</time></trkpt><trkpt lat="42.33625236340171" lon="12.973701936780445"><ele>422.0</ele><time>2026-04-19T11:11:37.794Z</time></trkpt><trkpt lat="42.33604582035392" lon="12.973875824970976"><ele>422.0</ele><time>2026-04-19T11:11:38.794Z</time></trkpt><trkpt lat="42.33585403445638" lon="12.974069114712222"><ele>422.0</ele><time>2026-04-19T11:11:39.794Z</time></trkpt><trkpt lat="42.33567515779445" lon="12.97427294277359"><ele>421.0</ele><time>2026-04-19T11:11:40.794Z</time></trkpt><trkpt lat="42.33550984698716" lon="12.974488592370554"><ele>420.0</ele><time>2026-04-19T11:11:41.794Z</time></trkpt><trkpt lat="42.33536592495055" lon="12.974705974107877"><ele>419.0</ele><time>2026-04-19T11:11:42.794Z</time></trkpt><trkpt lat="42.335221669737514" lon="12.974898650195609"><ele>419.66666666666663</ele><time>2026-04-19T11:11:43.794Z</time></trkpt><trkpt lat="42.33508556834346" lon="12.975091936712081"><ele>420.33333333333337</ele><time>2026-04-19T11:11:44.794Z</time></trkpt><trkpt lat="42.33499640210441" lon="12.975319800851217"><ele>421.0</ele><time>2026-04-19T11:11:45.794Z</time></trkpt><trkpt lat="42.33488863875575" lon="12.975518348649862"><ele>421.0</ele><time>2026-04-19T11:11:46.794Z</time></trkpt><trkpt lat="42.33478502305432" lon="12.975701401656627"><ele>421.0</ele><time>2026-04-19T11:11:47.793Z</time></trkpt><trkpt lat="42.33468757366906" lon="12.975851700697257"><ele>421.0</ele><time>2026-04-19T11:11:48.793Z</time></trkpt><trkpt lat="42.33458518344961" lon="12.975977025277984"><ele>420.5</ele><time>2026-04-19T11:11:49.793Z</time></trkpt><trkpt lat="42.3344676610294" lon="12.976068305768658"><ele>420.0</ele><time>2026-04-19T11:11:50.793Z</time></trkpt><trkpt lat="42.33434117360624" lon="12.976128039655643"><ele>419.5</ele><time>2026-04-19T11:11:51.793Z</time></trkpt><trkpt lat="42.33420988573565" lon="12.976168753756184"><ele>419.0</ele><time>2026-04-19T11:11:52.793Z</time></trkpt><trkpt lat="42.33407779473464" lon="12.976185949257827"><ele>419.0</ele><time>2026-04-19T11:11:53.793Z</time></trkpt><trkpt lat="42.3339578580886" lon="12.97617429355773"><ele>419.0</ele><time>2026-04-19T11:11:54.793Z</time></trkpt><trkpt lat="42.33385513021751" lon="12.97612757143743"><ele>419.0</ele><time>2026-04-19T11:11:55.793Z</time></trkpt><trkpt lat="42.33378051419846" lon="12.976068546730753"><ele>419.0</ele><time>2026-04-19T11:11:56.793Z</time></trkpt><trkpt lat="42.33368742155454" lon="12.976010789643887"><ele>419.0</ele><time>2026-04-19T11:11:58.793Z</time></trkpt><trkpt lat="42.3335983815932" lon="12.976085915374577"><ele>419.79999999999995</ele><time>2026-04-19T11:12:00.793Z</time></trkpt><trkpt lat="42.33356115525187" lon="12.976175902632425"><ele>420.59999999999997</ele><time>2026-04-19T11:12:01.793Z</time></trkpt><trkpt lat="42.33354324578418" lon="12.9762902525383"><ele>421.4</ele><time>2026-04-19T11:12:02.793Z</time></trkpt><trkpt lat="42.333529160608784" lon="12.976423797297048"><ele>422.2</ele><time>2026-04-19T11:12:03.793Z</time></trkpt><trkpt lat="42.33351332206865" lon="12.976566541743674"><ele>423.0</ele><time>2026-04-19T11:12:04.793Z</time></trkpt><trkpt lat="42.33349175762712" lon="12.97670060192163"><ele>423.0</ele><time>2026-04-19T11:12:05.793Z</time></trkpt><trkpt lat="42.333472402268036" lon="12.976848164061758"><ele>423.0</ele><time>2026-04-19T11:12:06.793Z</time></trkpt><trkpt lat="42.33345291137034" lon="12.977014740496196"><ele>423.0</ele><time>2026-04-19T11:12:07.793Z</time></trkpt><trkpt lat="42.333432705836" lon="12.977192373746295"><ele>423.0</ele><time>2026-04-19T11:12:08.793Z</time></trkpt><trkpt lat="42.3334097773348" lon="12.977376535268283"><ele>423.2</ele><time>2026-04-19T11:12:09.793Z</time></trkpt><trkpt lat="42.33338189938544" lon="12.977542970528784"><ele>423.4</ele><time>2026-04-19T11:12:10.793Z</time></trkpt><trkpt lat="42.333350639585355" lon="12.977686173665663"><ele>423.59999999999997</ele><time>2026-04-19T11:12:11.793Z</time></trkpt><trkpt lat="42.333323889942164" lon="12.977817978391705"><ele>423.79999999999995</ele><time>2026-04-19T11:12:12.793Z</time></trkpt><trkpt lat="42.33329479930248" lon="12.977938365026672"><ele>424.0</ele><time>2026-04-19T11:12:13.793Z</time></trkpt><trkpt lat="42.333254573927164" lon="12.978043213762549"><ele>424.0</ele><time>2026-04-19T11:12:14.793Z</time></trkpt><trkpt lat="42.333209794265024" lon="12.978138128951317"><ele>424.0</ele><time>2026-04-19T11:12:15.793Z</time></trkpt><trkpt lat="42.333165495111196" lon="12.978219636817192"><ele>424.0</ele><time>2026-04-19T11:12:16.793Z</time></trkpt><trkpt lat="42.333128008472265" lon="12.978289804608263"><ele>424.0</ele><time>2026-04-19T11:12:17.793Z</time></trkpt><trkpt lat="42.33307200724796" lon="12.978371976432362"><ele>424.0</ele><time>2026-04-19T11:12:18.793Z</time></trkpt><trkpt lat="42.33302198487464" lon="12.978425440360052"><ele>424.0</ele><time>2026-04-19T11:12:19.793Z</time></trkpt><trkpt lat="42.33297397849912" lon="12.978483494350886"><ele>424.0</ele><time>2026-04-19T11:12:20.793Z</time></trkpt><trkpt lat="42.33292655839405" lon="12.978544019484813"><ele>425.25</ele><time>2026-04-19T11:12:21.792Z</time></trkpt><trkpt lat="42.3328349633972" lon="12.978665810886953"><ele>426.5</ele><time>2026-04-19T11:12:23.792Z</time></trkpt><trkpt lat="42.332732375702726" lon="12.978782902081152"><ele>427.75</ele><time>2026-04-19T11:12:25.792Z</time></trkpt><trkpt lat="42.332662002505465" lon="12.97885985654693"><ele>429.0</ele><time>2026-04-19T11:12:26.792Z</time></trkpt><trkpt lat="42.33258891349018" lon="12.978962897347467"><ele>429.0</ele><time>2026-04-19T11:12:27.792Z</time></trkpt><trkpt lat="42.332498702306665" lon="12.979059805858494"><ele>429.0</ele><time>2026-04-19T11:12:28.792Z</time></trkpt><trkpt lat="42.33242708935274" lon="12.979148278545818"><ele>429.0</ele><time>2026-04-19T11:12:29.792Z</time></trkpt><trkpt lat="42.33234696277423" lon="12.979224997857855"><ele>429.0</ele><time>2026-04-19T11:12:30.792Z</time></trkpt><trkpt lat="42.33225279038547" lon="12.979280618888074"><ele>429.0</ele><time>2026-04-19T11:12:31.792Z</time></trkpt><trkpt lat="42.3321560818829" lon="12.97931297092578"><ele>428.5</ele><time>2026-04-19T11:12:32.792Z</time></trkpt><trkpt lat="42.332061670019144" lon="12.979320229563161"><ele>428.0</ele><time>2026-04-19T11:12:33.792Z</time></trkpt><trkpt lat="42.33197081155579" lon="12.979330011149663"><ele>427.5</ele><time>2026-04-19T11:12:34.792Z</time></trkpt><trkpt lat="42.331890136139734" lon="12.979332845135612"><ele>427.0</ele><time>2026-04-19T11:12:35.792Z</time></trkpt><trkpt lat="42.33181469745933" lon="12.979335105022583"><ele>426.5</ele><time>2026-04-19T11:12:36.792Z</time></trkpt><trkpt lat="42.33173809341416" lon="12.979352300578954"><ele>426.0</ele><time>2026-04-19T11:12:37.792Z</time></trkpt><trkpt lat="42.33166928138713" lon="12.97935068650574"><ele>426.0</ele><time>2026-04-19T11:12:38.792Z</time></trkpt><trkpt lat="42.33158634303052" lon="12.979388767557449"><ele>426.0</ele><time>2026-04-19T11:12:39.792Z</time></trkpt><trkpt lat="42.33151088960395" lon="12.97942618367479"><ele>426.0</ele><time>2026-04-19T11:12:40.792Z</time></trkpt><trkpt lat="42.33142595622312" lon="12.979475077855371"><ele>426.0</ele><time>2026-04-19T11:12:41.792Z</time></trkpt><trkpt lat="42.33133396909245" lon="12.97951693781035"><ele>426.0</ele><time>2026-04-19T11:12:42.792Z</time></trkpt><trkpt lat="42.33122540453001" lon="12.979561191697771"><ele>426.25</ele><time>2026-04-19T11:12:43.792Z</time></trkpt><trkpt lat="42.33109933917403" lon="12.97960831888035"><ele>426.5</ele><time>2026-04-19T11:12:44.792Z</time></trkpt><trkpt lat="42.33095658019539" lon="12.979655669978385"><ele>426.75</ele><time>2026-04-19T11:12:45.792Z</time></trkpt><trkpt lat="42.33080327897952" lon="12.979693403678288"><ele>427.0</ele><time>2026-04-19T11:12:46.792Z</time></trkpt><trkpt lat="42.33064605159174" lon="12.979741284309927"><ele>429.6666666666667</ele><time>2026-04-19T11:12:47.792Z</time></trkpt><trkpt lat="42.33047294700347" lon="12.979794455918835"><ele>432.33333333333337</ele><time>2026-04-19T11:12:48.792Z</time></trkpt><trkpt lat="42.33029786079934" lon="12.979864667971047"><ele>435.0</ele><time>2026-04-19T11:12:49.792Z</time></trkpt><trkpt lat="42.33011773630998" lon="12.979944331573758"><ele>431.66666666666663</ele><time>2026-04-19T11:12:50.792Z</time></trkpt><trkpt lat="42.32993817847644" lon="12.980026829852"><ele>428.3333333333333</ele><time>2026-04-19T11:12:51.792Z</time></trkpt><trkpt lat="42.329780052750635" lon="12.980117150200307"><ele>425.0</ele><time>2026-04-19T11:12:52.792Z</time></trkpt><trkpt lat="42.329628378593654" lon="12.980228169040936"><ele>425.0</ele><time>2026-04-19T11:12:53.792Z</time></trkpt><trkpt lat="42.32948723072972" lon="12.980331995852193"><ele>425.0</ele><time>2026-04-19T11:12:54.792Z</time></trkpt><trkpt lat="42.329353722164" lon="12.980423351716103"><ele>425.0</ele><time>2026-04-19T11:12:55.792Z</time></trkpt><trkpt lat="42.329217977615066" lon="12.980495933071614"><ele>425.0</ele><time>2026-04-19T11:12:56.792Z</time></trkpt><trkpt lat="42.329074614437744" lon="12.980558155838741"><ele>425.0</ele><time>2026-04-19T11:12:57.792Z</time></trkpt><trkpt lat="42.328916335404934" lon="12.980569561281982"><ele>425.0</ele><time>2026-04-19T11:12:58.793Z</time></trkpt><trkpt lat="42.32875130245606" lon="12.980586004025753"><ele>427.66666666666663</ele><time>2026-04-19T11:12:59.792Z</time></trkpt><trkpt lat="42.32858177880077" lon="12.980615830817165"><ele>430.33333333333337</ele><time>2026-04-19T11:13:00.792Z</time></trkpt><trkpt lat="42.32842375523246" lon="12.980628401932597"><ele>433.0</ele><time>2026-04-19T11:13:01.792Z</time></trkpt><trkpt lat="42.32829084263792" lon="12.980652974018724"><ele>433.0</ele><time>2026-04-19T11:13:02.792Z</time></trkpt><trkpt lat="42.32817589993527" lon="12.980686086312707"><ele>432.99999999999994</ele><time>2026-04-19T11:13:03.792Z</time></trkpt><trkpt lat="42.3280964049807" lon="12.98075661115699"><ele>432.99999999999994</ele><time>2026-04-19T11:13:04.792Z</time></trkpt><trkpt lat="42.328044981446396" lon="12.980847736741467"><ele>433.0</ele><time>2026-04-19T11:13:05.792Z</time></trkpt><trkpt lat="42.32801059441616" lon="12.980957105056822"><ele>433.0</ele><time>2026-04-19T11:13:06.792Z</time></trkpt><trkpt lat="42.32797481976554" lon="12.981085822441681"><ele>435.75</ele><time>2026-04-19T11:13:07.792Z</time></trkpt><trkpt lat="42.32793801798087" lon="12.981225044659569"><ele>438.5</ele><time>2026-04-19T11:13:08.792Z</time></trkpt><trkpt lat="42.32790488342253" lon="12.981375371906203"><ele>441.25</ele><time>2026-04-19T11:13:09.792Z</time></trkpt><trkpt lat="42.3278862357822" lon="12.981542592913693"><ele>444.0</ele><time>2026-04-19T11:13:10.792Z</time></trkpt><trkpt lat="42.32788093093941" lon="12.981718912005164"><ele>444.25</ele><time>2026-04-19T11:13:11.792Z</time></trkpt><trkpt lat="42.3278770051544" lon="12.981877947953892"><ele>444.5</ele><time>2026-04-19T11:13:12.792Z</time></trkpt><trkpt lat="42.32785503547004" lon="12.982040467625074"><ele>444.75</ele><time>2026-04-19T11:13:13.792Z</time></trkpt><trkpt lat="42.327811695379566" lon="12.98220195360005"><ele>445.0</ele><time>2026-04-19T11:13:14.792Z</time></trkpt><trkpt lat="42.32776008019639" lon="12.982346733154532"><ele>445.0</ele><time>2026-04-19T11:13:15.792Z</time></trkpt><trkpt lat="42.327730382606" lon="12.98248234926037"><ele>445.0</ele><time>2026-04-19T11:13:16.792Z</time></trkpt><trkpt lat="42.3277381842721" lon="12.982603722657968"><ele>445.0</ele><time>2026-04-19T11:13:17.792Z</time></trkpt><trkpt lat="42.327774848038736" lon="12.982711514760867"><ele>445.0</ele><time>2026-04-19T11:13:18.792Z</time></trkpt><trkpt lat="42.3278288544713" lon="12.982819828667871"><ele>445.0</ele><time>2026-04-19T11:13:19.792Z</time></trkpt><trkpt lat="42.327886450201596" lon="12.982925634121704"><ele>446.25</ele><time>2026-04-19T11:13:20.792Z</time></trkpt><trkpt lat="42.32793923485293" lon="12.983053475731756"><ele>447.5</ele><time>2026-04-19T11:13:21.792Z</time></trkpt><trkpt lat="42.3279895269634" lon="12.983194472508497"><ele>448.75</ele><time>2026-04-19T11:13:22.792Z</time></trkpt><trkpt lat="42.32803768826235" lon="12.983342915176072"><ele>450.0</ele><time>2026-04-19T11:13:23.792Z</time></trkpt><trkpt lat="42.328081288884825" lon="12.983486806197021"><ele>446.8</ele><time>2026-04-19T11:13:24.792Z</time></trkpt><trkpt lat="42.328120340204315" lon="12.983627388615265"><ele>443.6</ele><time>2026-04-19T11:13:25.792Z</time></trkpt><trkpt lat="42.32814583894979" lon="12.98375897885789"><ele>440.4</ele><time>2026-04-19T11:13:26.792Z</time></trkpt><trkpt lat="42.328163584180174" lon="12.983888099217596"><ele>437.2</ele><time>2026-04-19T11:13:27.792Z</time></trkpt><trkpt lat="42.328158439208615" lon="12.984009098926107"><ele>434.0</ele><time>2026-04-19T11:13:28.792Z</time></trkpt><trkpt lat="42.32812205038762" lon="12.984125720000568"><ele>433.66666666666663</ele><time>2026-04-19T11:13:29.792Z</time></trkpt><trkpt lat="42.32807932116944" lon="12.984211476266621"><ele>433.3333333333333</ele><time>2026-04-19T11:13:30.792Z</time></trkpt><trkpt lat="42.3280116355314" lon="12.984284850816595"><ele>433.0</ele><time>2026-04-19T11:13:31.792Z</time></trkpt><trkpt lat="42.32794172276848" lon="12.984342163996814"><ele>432.66666666666663</ele><time>2026-04-19T11:13:32.792Z</time></trkpt><trkpt lat="42.327864192775415" lon="12.984405044927149"><ele>432.3333333333333</ele><time>2026-04-19T11:13:33.791Z</time></trkpt><trkpt lat="42.327783604912646" lon="12.984460793327012"><ele>432.0</ele><time>2026-04-19T11:13:34.791Z</time></trkpt><trkpt lat="42.327710251131656" lon="12.984522937819303"><ele>432.8</ele><time>2026-04-19T11:13:35.791Z</time></trkpt><trkpt lat="42.327631137800104" lon="12.984580661320466"><ele>433.6</ele><time>2026-04-19T11:13:36.791Z</time></trkpt><trkpt lat="42.327551373317185" lon="12.984632777913129"><ele>434.40000000000003</ele><time>2026-04-19T11:13:37.791Z</time></trkpt><trkpt lat="42.327470426571956" lon="12.984691351800693"><ele>435.20000000000005</ele><time>2026-04-19T11:13:38.791Z</time></trkpt><trkpt lat="42.32738758518777" lon="12.984751521542126"><ele>436.0</ele><time>2026-04-19T11:13:39.791Z</time></trkpt><trkpt lat="42.32730615571506" lon="12.98482068059588"><ele>436.8</ele><time>2026-04-19T11:13:40.791Z</time></trkpt><trkpt lat="42.32721892904562" lon="12.984884974353118"><ele>437.6</ele><time>2026-04-19T11:13:41.791Z</time></trkpt><trkpt lat="42.32713300769524" lon="12.984963606681365"><ele>438.4</ele><time>2026-04-19T11:13:42.791Z</time></trkpt><trkpt lat="42.327043572497566" lon="12.985038824810461"><ele>439.2</ele><time>2026-04-19T11:13:43.791Z</time></trkpt><trkpt lat="42.32695500567997" lon="12.985115170514955"><ele>440.0</ele><time>2026-04-19T11:13:44.791Z</time></trkpt><trkpt lat="42.32686723920988" lon="12.985190781157163"><ele>440.49999999999994</ele><time>2026-04-19T11:13:45.791Z</time></trkpt><trkpt lat="42.326785381898716" lon="12.985264509017881"><ele>441.0</ele><time>2026-04-19T11:13:46.791Z</time></trkpt><trkpt lat="42.326709110237765" lon="12.985330061684603"><ele>441.5</ele><time>2026-04-19T11:13:47.791Z</time></trkpt><trkpt lat="42.326644271459706" lon="12.985393739453494"><ele>442.0</ele><time>2026-04-19T11:13:48.791Z</time></trkpt><trkpt lat="42.32659093609734" lon="12.985470378318674"><ele>442.49999999999994</ele><time>2026-04-19T11:13:49.791Z</time></trkpt><trkpt lat="42.32655588020311" lon="12.985560239380138"><ele>443.0</ele><time>2026-04-19T11:13:50.791Z</time></trkpt><trkpt lat="42.326543633960156" lon="12.985664175908859"><ele>442.99999999999994</ele><time>2026-04-19T11:13:51.791Z</time></trkpt><trkpt lat="42.32655265401055" lon="12.985768263633657"><ele>443.0</ele><time>2026-04-19T11:13:52.791Z</time></trkpt><trkpt lat="42.326565759580724" lon="12.985861998076814"><ele>443.0</ele><time>2026-04-19T11:13:53.791Z</time></trkpt><trkpt lat="42.32657259290682" lon="12.985951934295326"><ele>443.0</ele><time>2026-04-19T11:13:54.791Z</time></trkpt><trkpt lat="42.32657701287334" lon="12.986043463996133"><ele>442.99999999999994</ele><time>2026-04-19T11:13:55.791Z</time></trkpt><trkpt lat="42.32657872669984" lon="12.986153187776194"><ele>443.0</ele><time>2026-04-19T11:13:56.791Z</time></trkpt><trkpt lat="42.32658481338977" lon="12.98628309749811"><ele>442.25</ele><time>2026-04-19T11:13:57.791Z</time></trkpt><trkpt lat="42.326585260635724" lon="12.986435784765712"><ele>441.5</ele><time>2026-04-19T11:13:58.791Z</time></trkpt><trkpt lat="42.32658026470932" lon="12.98660309083849"><ele>440.75</ele><time>2026-04-19T11:13:59.791Z</time></trkpt><trkpt lat="42.32656167262699" lon="12.986770143681436"><ele>440.0</ele><time>2026-04-19T11:14:00.791Z</time></trkpt><trkpt lat="42.32653995919931" lon="12.98693366337029"><ele>438.8</ele><time>2026-04-19T11:14:01.791Z</time></trkpt><trkpt lat="42.326519344392736" lon="12.987096185424745"><ele>437.6</ele><time>2026-04-19T11:14:02.791Z</time></trkpt><trkpt lat="42.3264871277027" lon="12.98724697163746"><ele>436.4</ele><time>2026-04-19T11:14:03.791Z</time></trkpt><trkpt lat="42.32645320846954" lon="12.98739066352314"><ele>435.2</ele><time>2026-04-19T11:14:04.791Z</time></trkpt><trkpt lat="42.32642295466565" lon="12.987512873607638"><ele>434.0</ele><time>2026-04-19T11:14:05.791Z</time></trkpt><trkpt lat="42.32639811298498" lon="12.987608274970109"><ele>433.16666666666663</ele><time>2026-04-19T11:14:06.791Z</time></trkpt><trkpt lat="42.326355584294234" lon="12.98773835233225"><ele>432.3333333333333</ele><time>2026-04-19T11:14:08.79Z</time></trkpt><trkpt lat="42.326334392565215" lon="12.987819188885043"><ele>431.5</ele><time>2026-04-19T11:14:12.79Z</time></trkpt><trkpt lat="42.3263614003296" lon="12.987942405116595"><ele>430.66666666666663</ele><time>2026-04-19T11:14:43.789Z</time></trkpt><trkpt lat="42.32637071536035" lon="12.988037063071987"><ele>429.8333333333333</ele><time>2026-04-19T11:14:44.789Z</time></trkpt><trkpt lat="42.326394255954355" lon="12.988151349162964"><ele>429.0</ele><time>2026-04-19T11:14:45.789Z</time></trkpt><trkpt lat="42.3264464114051" lon="12.988281440431791"><ele>428.5</ele><time>2026-04-19T11:14:46.789Z</time></trkpt><trkpt lat="42.32652439074381" lon="12.988415923984379"><ele>428.0</ele><time>2026-04-19T11:14:47.789Z</time></trkpt><trkpt lat="42.32662770847898" lon="12.988559003640717"><ele>427.5</ele><time>2026-04-19T11:14:48.789Z</time></trkpt><trkpt lat="42.32671999407851" lon="12.98869705095712"><ele>427.0</ele><time>2026-04-19T11:14:49.789Z</time></trkpt><trkpt lat="42.32681243998325" lon="12.98883491343193"><ele>427.0</ele><time>2026-04-19T11:14:50.789Z</time></trkpt><trkpt lat="42.32688250685186" lon="12.98900314693123"><ele>427.0</ele><time>2026-04-19T11:14:51.789Z</time></trkpt><trkpt lat="42.32695223079788" lon="12.989176013074523"><ele>427.0</ele><time>2026-04-19T11:14:52.789Z</time></trkpt><trkpt lat="42.32700743003808" lon="12.989350866258032"><ele>427.0</ele><time>2026-04-19T11:14:53.789Z</time></trkpt><trkpt lat="42.32704852460749" lon="12.989536295853044"><ele>427.25</ele><time>2026-04-19T11:14:54.789Z</time></trkpt><trkpt lat="42.327071525991904" lon="12.989728300514809"><ele>427.5</ele><time>2026-04-19T11:14:55.789Z</time></trkpt><trkpt lat="42.32709212958076" lon="12.98992335511777"><ele>427.75</ele><time>2026-04-19T11:14:56.789Z</time></trkpt><trkpt lat="42.32707830738299" lon="12.990124768352397"><ele>428.0</ele><time>2026-04-19T11:14:57.789Z</time></trkpt><trkpt lat="42.327052569149714" lon="12.99032194155814"><ele>428.25</ele><time>2026-04-19T11:14:58.789Z</time></trkpt><trkpt lat="42.327010201482004" lon="12.990517772761722"><ele>428.5</ele><time>2026-04-19T11:14:59.789Z</time></trkpt><trkpt lat="42.326959215533755" lon="12.990713696039833"><ele>428.75</ele><time>2026-04-19T11:15:00.789Z</time></trkpt><trkpt lat="42.32691026851818" lon="12.990895706131862"><ele>429.0</ele><time>2026-04-19T11:15:01.789Z</time></trkpt><trkpt lat="42.326858914035355" lon="12.99106812323664"><ele>429.5</ele><time>2026-04-19T11:15:02.789Z</time></trkpt><trkpt lat="42.32681506143206" lon="12.99123173536517"><ele>430.0</ele><time>2026-04-19T11:15:03.789Z</time></trkpt><trkpt lat="42.32676882727884" lon="12.991388072372551"><ele>430.5</ele><time>2026-04-19T11:15:04.79Z</time></trkpt><trkpt lat="42.32672559262036" lon="12.991546070593817"><ele>431.0</ele><time>2026-04-19T11:15:05.79Z</time></trkpt><trkpt lat="42.326681926261394" lon="12.99171089972944"><ele>434.25</ele><time>2026-04-19T11:15:06.789Z</time></trkpt><trkpt lat="42.3266373872644" lon="12.991884956048846"><ele>437.5</ele><time>2026-04-19T11:15:07.79Z</time></trkpt><trkpt lat="42.32658991206886" lon="12.992057048528267"><ele>440.75</ele><time>2026-04-19T11:15:08.79Z</time></trkpt><trkpt lat="42.3265382968404" lon="12.992214438147702"><ele>444.0</ele><time>2026-04-19T11:15:09.789Z</time></trkpt><trkpt lat="42.3264704835534" lon="12.992358681440178"><ele>441.5</ele><time>2026-04-19T11:15:10.789Z</time></trkpt><trkpt lat="42.32638695271565" lon="12.992489404949637"><ele>439.0</ele><time>2026-04-19T11:15:11.789Z</time></trkpt><trkpt lat="42.32629593043783" lon="12.992590034030748"><ele>436.5</ele><time>2026-04-19T11:15:12.789Z</time></trkpt><trkpt lat="42.32619112383536" lon="12.99265223986475"><ele>434.0</ele><time>2026-04-19T11:15:13.789Z</time></trkpt><trkpt lat="42.32608685064818" lon="12.992701417250435"><ele>439.5</ele><time>2026-04-19T11:15:14.789Z</time></trkpt><trkpt lat="42.32597482816745" lon="12.992741423944816"><ele>445.0</ele><time>2026-04-19T11:15:15.789Z</time></trkpt><trkpt lat="42.32585238423808" lon="12.992760070663675"><ele>450.5</ele><time>2026-04-19T11:15:16.789Z</time></trkpt><trkpt lat="42.32571582192376" lon="12.992776458919316"><ele>456.0</ele><time>2026-04-19T11:15:17.789Z</time></trkpt><trkpt lat="42.32557092224503" lon="12.992799589113735"><ele>454.33333333333337</ele><time>2026-04-19T11:15:18.789Z</time></trkpt><trkpt lat="42.325419861572826" lon="12.992828227758505"><ele>452.6666666666667</ele><time>2026-04-19T11:15:19.789Z</time></trkpt><trkpt lat="42.325266915519684" lon="12.9928727073871"><ele>451.0</ele><time>2026-04-19T11:15:20.789Z</time></trkpt><trkpt lat="42.32511411187218" lon="12.992938068320923"><ele>451.0</ele><time>2026-04-19T11:15:21.789Z</time></trkpt><trkpt lat="42.32496194685803" lon="12.993014981602228"><ele>451.0</ele><time>2026-04-19T11:15:22.789Z</time></trkpt><trkpt lat="42.324821951734904" lon="12.993133557468411"><ele>451.0</ele><time>2026-04-19T11:15:23.788Z</time></trkpt><trkpt lat="42.32467957177865" lon="12.993234162082366"><ele>452.6666666666667</ele><time>2026-04-19T11:15:24.788Z</time></trkpt><trkpt lat="42.32454484197976" lon="12.99335100436975"><ele>454.33333333333337</ele><time>2026-04-19T11:15:25.788Z</time></trkpt><trkpt lat="42.32441363689571" lon="12.993464202624917"><ele>456.0</ele><time>2026-04-19T11:15:26.788Z</time></trkpt><trkpt lat="42.324280344463546" lon="12.993552891951186"><ele>456.0</ele><time>2026-04-19T11:15:27.788Z</time></trkpt><trkpt lat="42.32414190409426" lon="12.993605200738946"><ele>456.0</ele><time>2026-04-19T11:15:28.788Z</time></trkpt><trkpt lat="42.32399686777064" lon="12.993624785183629"><ele>456.0</ele><time>2026-04-19T11:15:29.788Z</time></trkpt><trkpt lat="42.3238445433438" lon="12.993648067503639"><ele>456.0</ele><time>2026-04-19T11:15:30.788Z</time></trkpt><trkpt lat="42.32368304444107" lon="12.99369029333613"><ele>453.33333333333337</ele><time>2026-04-19T11:15:31.788Z</time></trkpt><trkpt lat="42.32351101433259" lon="12.993746513920659"><ele>450.6666666666667</ele><time>2026-04-19T11:15:32.788Z</time></trkpt><trkpt lat="42.32334344112082" lon="12.993811437051178"><ele>448.0</ele><time>2026-04-19T11:15:33.788Z</time></trkpt><trkpt lat="42.32316781145364" lon="12.993837760874962"><ele>448.33333333333337</ele><time>2026-04-19T11:15:34.788Z</time></trkpt><trkpt lat="42.32299866343298" lon="12.993845493571662"><ele>448.66666666666663</ele><time>2026-04-19T11:15:35.788Z</time></trkpt><trkpt lat="42.32282716047267" lon="12.993833651841626"><ele>449.0</ele><time>2026-04-19T11:15:36.788Z</time></trkpt><trkpt lat="42.32266481856113" lon="12.99382242681337"><ele>449.0</ele><time>2026-04-19T11:15:37.788Z</time></trkpt><trkpt lat="42.32249886765488" lon="12.993827701599557"><ele>449.0</ele><time>2026-04-19T11:15:38.788Z</time></trkpt><trkpt lat="42.32233929232298" lon="12.993867157074"><ele>449.0</ele><time>2026-04-19T11:15:39.788Z</time></trkpt><trkpt lat="42.32218244250021" lon="12.993923409373828"><ele>448.3333333333333</ele><time>2026-04-19T11:15:40.788Z</time></trkpt><trkpt lat="42.322024958834085" lon="12.993993130861826"><ele>447.66666666666663</ele><time>2026-04-19T11:15:41.788Z</time></trkpt><trkpt lat="42.321864952981294" lon="12.994069930406143"><ele>447.0</ele><time>2026-04-19T11:15:42.788Z</time></trkpt><trkpt lat="42.32170168684407" lon="12.994141371696232"><ele>451.33333333333337</ele><time>2026-04-19T11:15:43.788Z</time></trkpt><trkpt lat="42.3215335078427" lon="12.99421875512223"><ele>455.6666666666667</ele><time>2026-04-19T11:15:44.788Z</time></trkpt><trkpt lat="42.321372201428574" lon="12.994283871228449"><ele>460.0</ele><time>2026-04-19T11:15:45.788Z</time></trkpt><trkpt lat="42.32121536883304" lon="12.99434167716705"><ele>460.0</ele><time>2026-04-19T11:15:46.788Z</time></trkpt><trkpt lat="42.321063399070745" lon="12.994421988434826"><ele>460.0</ele><time>2026-04-19T11:15:47.788Z</time></trkpt><trkpt lat="42.32092028156819" lon="12.994512440328558"><ele>460.0</ele><time>2026-04-19T11:15:48.788Z</time></trkpt><trkpt lat="42.32078272688256" lon="12.994625566332319"><ele>460.0</ele><time>2026-04-19T11:15:49.788Z</time></trkpt><trkpt lat="42.32064698497117" lon="12.994754529987633"><ele>460.0</ele><time>2026-04-19T11:15:50.788Z</time></trkpt><trkpt lat="42.32052319809959" lon="12.994887096996672"><ele>460.0</ele><time>2026-04-19T11:15:51.788Z</time></trkpt><trkpt lat="42.320408924694064" lon="12.995029873656987"><ele>457.5</ele><time>2026-04-19T11:15:52.788Z</time></trkpt><trkpt lat="42.32031042125712" lon="12.995184519850708"><ele>455.0</ele><time>2026-04-19T11:15:53.788Z</time></trkpt><trkpt lat="42.32022878742169" lon="12.995346431078987"><ele>452.5</ele><time>2026-04-19T11:15:54.788Z</time></trkpt><trkpt lat="42.32014002652726" lon="12.995499990999136"><ele>450.0</ele><time>2026-04-19T11:15:55.788Z</time></trkpt><trkpt lat="42.320087600115485" lon="12.995675459686826"><ele>452.6</ele><time>2026-04-19T11:15:56.787Z</time></trkpt><trkpt lat="42.32007176562578" lon="12.995837230306366"><ele>455.2</ele><time>2026-04-19T11:15:57.787Z</time></trkpt><trkpt lat="42.32004793423016" lon="12.995976140389507"><ele>457.79999999999995</ele><time>2026-04-19T11:15:58.787Z</time></trkpt><trkpt lat="42.32001878694354" lon="12.996087755731285"><ele>460.4</ele><time>2026-04-19T11:15:59.787Z</time></trkpt><trkpt lat="42.319978647864374" lon="12.996170832258546"><ele>463.0</ele><time>2026-04-19T11:16:00.787Z</time></trkpt><trkpt lat="42.31992566906021" lon="12.996219061380835"><ele>463.00000000000006</ele><time>2026-04-19T11:16:01.787Z</time></trkpt><trkpt lat="42.31986042789181" lon="12.996238744725325"><ele>463.0</ele><time>2026-04-19T11:16:02.787Z</time></trkpt><trkpt lat="42.319780706151725" lon="12.996252538134815"><ele>463.0</ele><time>2026-04-19T11:16:03.787Z</time></trkpt><trkpt lat="42.319687804416496" lon="12.996259497017633"><ele>463.0</ele><time>2026-04-19T11:16:04.787Z</time></trkpt><trkpt lat="42.31958876447507" lon="12.9962572577866"><ele>463.00000000000006</ele><time>2026-04-19T11:16:05.787Z</time></trkpt><trkpt lat="42.31950425866885" lon="12.996250277403735"><ele>463.0</ele><time>2026-04-19T11:16:06.787Z</time></trkpt><trkpt lat="42.31937785966867" lon="12.996214988792136"><ele>464.59999999999997</ele><time>2026-04-19T11:16:08.787Z</time></trkpt><trkpt lat="42.31931396378666" lon="12.996154983493483"><ele>466.19999999999993</ele><time>2026-04-19T11:16:09.787Z</time></trkpt><trkpt lat="42.31925290136292" lon="12.996068177508135"><ele>467.8</ele><time>2026-04-19T11:16:10.787Z</time></trkpt><trkpt lat="42.31918756733068" lon="12.99596018339244"><ele>469.4</ele><time>2026-04-19T11:16:11.787Z</time></trkpt><trkpt lat="42.31911023170423" lon="12.995848648796207"><ele>471.0</ele><time>2026-04-19T11:16:12.787Z</time></trkpt><trkpt lat="42.31901735931049" lon="12.995739467450544"><ele>471.0</ele><time>2026-04-19T11:16:13.787Z</time></trkpt><trkpt lat="42.31891804969753" lon="12.995634702851266"><ele>471.0</ele><time>2026-04-19T11:16:14.787Z</time></trkpt><trkpt lat="42.31880810190169" lon="12.995537314064634"><ele>471.0</ele><time>2026-04-19T11:16:15.787Z</time></trkpt><trkpt lat="42.31869031071137" lon="12.995449924292982"><ele>471.0</ele><time>2026-04-19T11:16:16.787Z</time></trkpt><trkpt lat="42.31857661032136" lon="12.995362222567358"><ele>471.0</ele><time>2026-04-19T11:16:17.787Z</time></trkpt><trkpt lat="42.31845840472757" lon="12.995294790181722"><ele>471.0</ele><time>2026-04-19T11:16:18.787Z</time></trkpt><trkpt lat="42.318337782617064" lon="12.9952400795299"><ele>471.0</ele><time>2026-04-19T11:16:19.787Z</time></trkpt><trkpt lat="42.3182097336433" lon="12.995209700416074"><ele>471.0</ele><time>2026-04-19T11:16:20.787Z</time></trkpt><trkpt lat="42.318079884724874" lon="12.995196817051914"><ele>471.5</ele><time>2026-04-19T11:16:21.787Z</time></trkpt><trkpt lat="42.31794627360812" lon="12.995210339177271"><ele>472.0</ele><time>2026-04-19T11:16:22.787Z</time></trkpt><trkpt lat="42.317815410782906" lon="12.995232474321226"><ele>472.5</ele><time>2026-04-19T11:16:23.787Z</time></trkpt><trkpt lat="42.31767714518071" lon="12.995261649875093"><ele>473.0</ele><time>2026-04-19T11:16:24.787Z</time></trkpt><trkpt lat="42.317559274008104" lon="12.99528151134466"><ele>473.0</ele><time>2026-04-19T11:16:25.787Z</time></trkpt><trkpt lat="42.31745893862074" lon="12.995279830423396"><ele>472.99999999999994</ele><time>2026-04-19T11:16:26.787Z</time></trkpt><trkpt lat="42.31736301201473" lon="12.995240987599427"><ele>472.99999999999994</ele><time>2026-04-19T11:16:27.787Z</time></trkpt><trkpt lat="42.317269451452496" lon="12.995161688139634"><ele>473.0</ele><time>2026-04-19T11:16:28.787Z</time></trkpt><trkpt lat="42.31719804860171" lon="12.995062459585393"><ele>473.0</ele><time>2026-04-19T11:16:29.787Z</time></trkpt><trkpt lat="42.31712586073074" lon="12.99496495302015"><ele>469.4</ele><time>2026-04-19T11:16:30.786Z</time></trkpt><trkpt lat="42.3170373574099" lon="12.994889581315437"><ele>465.79999999999995</ele><time>2026-04-19T11:16:31.786Z</time></trkpt><trkpt lat="42.31693621613504" lon="12.994837526942973"><ele>462.2</ele><time>2026-04-19T11:16:32.786Z</time></trkpt><trkpt lat="42.3168399463961" lon="12.994842033204401"><ele>458.6</ele><time>2026-04-19T11:16:33.786Z</time></trkpt><trkpt lat="42.316744202931524" lon="12.994887830878541"><ele>455.0</ele><time>2026-04-19T11:16:34.786Z</time></trkpt><trkpt lat="42.31666142259836" lon="12.99496762393844"><ele>459.0</ele><time>2026-04-19T11:16:35.786Z</time></trkpt><trkpt lat="42.316582768289244" lon="12.995054592577036"><ele>463.0</ele><time>2026-04-19T11:16:36.786Z</time></trkpt><trkpt lat="42.316499955949666" lon="12.99511009711157"><ele>467.0</ele><time>2026-04-19T11:16:37.786Z</time></trkpt><trkpt lat="42.316403748995725" lon="12.99512629638063"><ele>471.0</ele><time>2026-04-19T11:16:38.786Z</time></trkpt><trkpt lat="42.316301544939975" lon="12.995098666101388"><ele>475.0</ele><time>2026-04-19T11:16:39.786Z</time></trkpt><trkpt lat="42.316194690009866" lon="12.99504853755709"><ele>473.0</ele><time>2026-04-19T11:16:40.786Z</time></trkpt><trkpt lat="42.316082483857436" lon="12.994983999909243"><ele>471.0</ele><time>2026-04-19T11:16:41.786Z</time></trkpt><trkpt lat="42.31597058709319" lon="12.994905580772826"><ele>469.0</ele><time>2026-04-19T11:16:42.786Z</time></trkpt><trkpt lat="42.31586639705078" lon="12.994795137918898"><ele>467.0</ele><time>2026-04-19T11:16:43.786Z</time></trkpt><trkpt lat="42.31576448279553" lon="12.994679284938425"><ele>467.0</ele><time>2026-04-19T11:16:44.786Z</time></trkpt><trkpt lat="42.3156559790607" lon="12.994575512147378"><ele>467.0</ele><time>2026-04-19T11:16:45.786Z</time></trkpt><trkpt lat="42.31553681289658" lon="12.994497223746897"><ele>467.0</ele><time>2026-04-19T11:16:46.786Z</time></trkpt><trkpt lat="42.31540232182272" lon="12.99445242175174"><ele>467.0</ele><time>2026-04-19T11:16:47.786Z</time></trkpt><trkpt lat="42.315262891024595" lon="12.994441969757407"><ele>470.0</ele><time>2026-04-19T11:16:48.786Z</time></trkpt><trkpt lat="42.315110733144124" lon="12.994464162859279"><ele>473.0</ele><time>2026-04-19T11:16:49.786Z</time></trkpt><trkpt lat="42.31496240159901" lon="12.994491644091541"><ele>476.0</ele><time>2026-04-19T11:16:50.786Z</time></trkpt><trkpt lat="42.31480429549647" lon="12.994531642758176"><ele>475.66666666666663</ele><time>2026-04-19T11:16:51.786Z</time></trkpt><trkpt lat="42.3146436157301" lon="12.994597869360804"><ele>475.33333333333337</ele><time>2026-04-19T11:16:52.786Z</time></trkpt><trkpt lat="42.314486194768" lon="12.994685196195388"><ele>475.0</ele><time>2026-04-19T11:16:53.786Z</time></trkpt><trkpt lat="42.314337951257656" lon="12.994773022950008"><ele>475.0</ele><time>2026-04-19T11:16:54.786Z</time></trkpt><trkpt lat="42.31418393856222" lon="12.994840101998753"><ele>475.0</ele><time>2026-04-19T11:16:55.786Z</time></trkpt><trkpt lat="42.31402886302101" lon="12.994883681808984"><ele>475.0</ele><time>2026-04-19T11:16:56.786Z</time></trkpt><trkpt lat="42.31386802866313" lon="12.99486648292172"><ele>472.33333333333337</ele><time>2026-04-19T11:16:57.786Z</time></trkpt><trkpt lat="42.31370081202193" lon="12.994861775872442"><ele>469.66666666666663</ele><time>2026-04-19T11:16:58.786Z</time></trkpt><trkpt lat="42.31354351138031" lon="12.994848595352732"><ele>467.0</ele><time>2026-04-19T11:16:59.786Z</time></trkpt><trkpt lat="42.31340727731119" lon="12.994870556316911"><ele>467.0</ele><time>2026-04-19T11:17:00.786Z</time></trkpt><trkpt lat="42.313282823347706" lon="12.994920229316952"><ele>467.0</ele><time>2026-04-19T11:17:01.786Z</time></trkpt><trkpt lat="42.313149851612685" lon="12.994994544148794"><ele>467.0</ele><time>2026-04-19T11:17:02.786Z</time></trkpt><trkpt lat="42.31302598165338" lon="12.99509294991591"><ele>467.0</ele><time>2026-04-19T11:17:03.786Z</time></trkpt><trkpt lat="42.312905522289014" lon="12.995197131872095"><ele>466.5</ele><time>2026-04-19T11:17:04.785Z</time></trkpt><trkpt lat="42.312791561763724" lon="12.995303413927846"><ele>466.0</ele><time>2026-04-19T11:17:05.785Z</time></trkpt><trkpt lat="42.3126981105225" lon="12.995424153835877"><ele>465.5</ele><time>2026-04-19T11:17:06.787Z</time></trkpt><trkpt lat="42.312645563080515" lon="12.995537237553856"><ele>465.0</ele><time>2026-04-19T11:17:07.787Z</time></trkpt><trkpt lat="42.3126304615068" lon="12.995658945126001"><ele>465.0</ele><time>2026-04-19T11:17:08.787Z</time></trkpt><trkpt lat="42.3126424421948" lon="12.995799798747795"><ele>465.0</ele><time>2026-04-19T11:17:09.787Z</time></trkpt><trkpt lat="42.31265071900882" lon="12.99594197727289"><ele>465.0</ele><time>2026-04-19T11:17:10.787Z</time></trkpt><trkpt lat="42.31263438753618" lon="12.996055509182987"><ele>465.0</ele><time>2026-04-19T11:17:11.787Z</time></trkpt><trkpt lat="42.31259782446629" lon="12.996130287752361"><ele>465.0</ele><time>2026-04-19T11:17:12.787Z</time></trkpt><trkpt lat="42.31246432357316" lon="12.996164079420847"><ele>467.2</ele><time>2026-04-19T11:17:14.786Z</time></trkpt><trkpt lat="42.31236985223616" lon="12.996151661951096"><ele>469.4</ele><time>2026-04-19T11:17:15.787Z</time></trkpt><trkpt lat="42.312261197888425" lon="12.996135929141333"><ele>471.6</ele><time>2026-04-19T11:17:16.787Z</time></trkpt><trkpt lat="42.31214558732534" lon="12.996128975464613"><ele>473.8</ele><time>2026-04-19T11:17:17.787Z</time></trkpt><trkpt lat="42.31203428232695" lon="12.996171696770093"><ele>476.0</ele><time>2026-04-19T11:17:18.786Z</time></trkpt><trkpt lat="42.31193716226426" lon="12.996252216539434"><ele>476.0</ele><time>2026-04-19T11:17:19.786Z</time></trkpt><trkpt lat="42.311849581196284" lon="12.99636349606475"><ele>476.0</ele><time>2026-04-19T11:17:20.786Z</time></trkpt><trkpt lat="42.31175215578673" lon="12.996493135003863"><ele>476.0</ele><time>2026-04-19T11:17:21.786Z</time></trkpt><trkpt lat="42.311650471301746" lon="12.996608694664703"><ele>476.0</ele><time>2026-04-19T11:17:22.786Z</time></trkpt><trkpt lat="42.31154673096595" lon="12.996707812756261"><ele>476.5</ele><time>2026-04-19T11:17:23.786Z</time></trkpt><trkpt lat="42.31142898380779" lon="12.996796082220001"><ele>477.0</ele><time>2026-04-19T11:17:24.786Z</time></trkpt><trkpt lat="42.31130664898592" lon="12.996857827541193"><ele>477.5</ele><time>2026-04-19T11:17:25.786Z</time></trkpt><trkpt lat="42.311197821897196" lon="12.996921687297181"><ele>478.0</ele><time>2026-04-19T11:17:26.786Z</time></trkpt><trkpt lat="42.311108089066664" lon="12.997016621994643"><ele>478.0</ele><time>2026-04-19T11:17:27.786Z</time></trkpt><trkpt lat="42.31103226872795" lon="12.997102109016893"><ele>477.99999999999994</ele><time>2026-04-19T11:17:28.786Z</time></trkpt><trkpt lat="42.31102339221083" lon="12.997239920634803"><ele>477.99999999999994</ele><time>2026-04-19T11:17:29.786Z</time></trkpt><trkpt lat="42.311004811579956" lon="12.997348579450925"><ele>478.0</ele><time>2026-04-19T11:17:30.786Z</time></trkpt><trkpt lat="42.31096514147485" lon="12.997431016688042"><ele>478.0</ele><time>2026-04-19T11:17:31.786Z</time></trkpt><trkpt lat="42.31083585426825" lon="12.997456399607076"><ele>478.0</ele><time>2026-04-19T11:17:33.786Z</time></trkpt><trkpt lat="42.31074410337457" lon="12.997431297670172"><ele>477.99999999999994</ele><time>2026-04-19T11:17:34.786Z</time></trkpt><trkpt lat="42.31064293932139" lon="12.997436850754546"><ele>477.99999999999994</ele><time>2026-04-19T11:17:35.786Z</time></trkpt><trkpt lat="42.310546252386345" lon="12.997473611638068"><ele>478.0</ele><time>2026-04-19T11:17:36.786Z</time></trkpt><trkpt lat="42.31046172873823" lon="12.997533985967335"><ele>478.0</ele><time>2026-04-19T11:17:37.786Z</time></trkpt><trkpt lat="42.310398284696646" lon="12.997629588035464"><ele>481.4</ele><time>2026-04-19T11:17:38.786Z</time></trkpt><trkpt lat="42.31031529791326" lon="12.997734898740156"><ele>484.79999999999995</ele><time>2026-04-19T11:17:39.786Z</time></trkpt><trkpt lat="42.31024255965725" lon="12.99785156021445"><ele>488.2</ele><time>2026-04-19T11:17:40.786Z</time></trkpt><trkpt lat="42.31018099604218" lon="12.997953506315948"><ele>491.6</ele><time>2026-04-19T11:17:41.786Z</time></trkpt><trkpt lat="42.310130129187385" lon="12.998036092084373"><ele>495.0</ele><time>2026-04-19T11:17:42.786Z</time></trkpt><trkpt lat="42.310060287985856" lon="12.998050823221542"><ele>495.0</ele><time>2026-04-19T11:17:43.786Z</time></trkpt><trkpt lat="42.30998850320388" lon="12.998015857919892"><ele>495.0</ele><time>2026-04-19T11:17:44.786Z</time></trkpt><trkpt lat="42.309915389454225" lon="12.997938799379034"><ele>495.0</ele><time>2026-04-19T11:17:45.786Z</time></trkpt><trkpt lat="42.30981682700505" lon="12.997852551149181"><ele>495.0</ele><time>2026-04-19T11:17:46.786Z</time></trkpt><trkpt lat="42.30970606930359" lon="12.997763050999799"><ele>495.0</ele><time>2026-04-19T11:17:47.786Z</time></trkpt><trkpt lat="42.309585931242545" lon="12.99767787348706"><ele>496.0</ele><time>2026-04-19T11:17:48.786Z</time></trkpt><trkpt lat="42.30947290619112" lon="12.997602043492446"><ele>497.0</ele><time>2026-04-19T11:17:49.786Z</time></trkpt><trkpt lat="42.309363975702034" lon="12.997545729487745"><ele>498.0</ele><time>2026-04-19T11:17:50.786Z</time></trkpt><trkpt lat="42.30926135970971" lon="12.997494750110297"><ele>499.0</ele><time>2026-04-19T11:17:51.785Z</time></trkpt><trkpt lat="42.30915946913267" lon="12.997477662342549"><ele>499.0</ele><time>2026-04-19T11:17:52.785Z</time></trkpt><trkpt lat="42.309058086335504" lon="12.997517297231127"><ele>499.0</ele><time>2026-04-19T11:17:53.785Z</time></trkpt><trkpt lat="42.30896346428171" lon="12.997575699630518"><ele>499.0</ele><time>2026-04-19T11:17:54.785Z</time></trkpt><trkpt lat="42.30887081055225" lon="12.997608293853947"><ele>499.0</ele><time>2026-04-19T11:17:55.785Z</time></trkpt><trkpt lat="42.30877575492422" lon="12.997581722234726"><ele>499.0</ele><time>2026-04-19T11:17:56.785Z</time></trkpt><trkpt lat="42.30869904729161" lon="12.99750897087392"><ele>494.4</ele><time>2026-04-19T11:17:57.785Z</time></trkpt><trkpt lat="42.308620494353924" lon="12.997414338272868"><ele>489.79999999999995</ele><time>2026-04-19T11:17:58.785Z</time></trkpt><trkpt lat="42.30853796832381" lon="12.997322740912574"><ele>485.20000000000005</ele><time>2026-04-19T11:17:59.785Z</time></trkpt><trkpt lat="42.30846413676333" lon="12.997242457564889"><ele>480.6</ele><time>2026-04-19T11:18:00.785Z</time></trkpt><trkpt lat="42.30838594848593" lon="12.99716163471903"><ele>476.0</ele><time>2026-04-19T11:18:01.785Z</time></trkpt><trkpt lat="42.30830837460465" lon="12.99706696175318"><ele>476.0</ele><time>2026-04-19T11:18:02.785Z</time></trkpt><trkpt lat="42.30823639455932" lon="12.996958921169822"><ele>476.0</ele><time>2026-04-19T11:18:03.785Z</time></trkpt><trkpt lat="42.30815374614653" lon="12.996846206636128"><ele>476.0</ele><time>2026-04-19T11:18:04.785Z</time></trkpt><trkpt lat="42.30806621197274" lon="12.996727499641576"><ele>476.0</ele><time>2026-04-19T11:18:05.785Z</time></trkpt><trkpt lat="42.30797810880809" lon="12.996588465543386"><ele>475.5</ele><time>2026-04-19T11:18:06.785Z</time></trkpt><trkpt lat="42.3078839357969" lon="12.99644250559"><ele>475.0</ele><time>2026-04-19T11:18:07.785Z</time></trkpt><trkpt lat="42.307783044303804" lon="12.996298283273141"><ele>474.5</ele><time>2026-04-19T11:18:08.785Z</time></trkpt><trkpt lat="42.30768423294241" lon="12.99614734880401"><ele>474.0</ele><time>2026-04-19T11:18:09.785Z</time></trkpt><trkpt lat="42.307591885720115" lon="12.995999480588093"><ele>474.0</ele><time>2026-04-19T11:18:10.785Z</time></trkpt><trkpt lat="42.30749181704304" lon="12.995861050754517"><ele>474.0</ele><time>2026-04-19T11:18:11.785Z</time></trkpt><trkpt lat="42.307394081291854" lon="12.995726247050047"><ele>474.0</ele><time>2026-04-19T11:18:12.785Z</time></trkpt><trkpt lat="42.30730346317966" lon="12.995589725367768"><ele>474.0</ele><time>2026-04-19T11:18:13.785Z</time></trkpt><trkpt lat="42.307215161452305" lon="12.995463224312745"><ele>475.25</ele><time>2026-04-19T11:18:14.785Z</time></trkpt><trkpt lat="42.30712077963827" lon="12.995346965440213"><ele>476.5</ele><time>2026-04-19T11:18:15.785Z</time></trkpt><trkpt lat="42.30701314888171" lon="12.99523933739061"><ele>477.75</ele><time>2026-04-19T11:18:16.785Z</time></trkpt><trkpt lat="42.306894699761116" lon="12.995140827026079"><ele>479.0</ele><time>2026-04-19T11:18:17.785Z</time></trkpt><trkpt lat="42.306775985301186" lon="12.995045271822052"><ele>474.5</ele><time>2026-04-19T11:18:18.785Z</time></trkpt><trkpt lat="42.306663035960796" lon="12.994955060201686"><ele>470.0</ele><time>2026-04-19T11:18:19.785Z</time></trkpt><trkpt lat="42.3065500763145" lon="12.994875367829652"><ele>465.5</ele><time>2026-04-19T11:18:20.785Z</time></trkpt><trkpt lat="42.3064514062067" lon="12.994825524213967"><ele>461.0</ele><time>2026-04-19T11:18:21.785Z</time></trkpt><trkpt lat="42.30635641998645" lon="12.994797598154449"><ele>460.8</ele><time>2026-04-19T11:18:22.785Z</time></trkpt><trkpt lat="42.30625899407667" lon="12.994817278375825"><ele>460.6</ele><time>2026-04-19T11:18:23.785Z</time></trkpt><trkpt lat="42.306156717987115" lon="12.99486663595929"><ele>460.4</ele><time>2026-04-19T11:18:24.785Z</time></trkpt><trkpt lat="42.306054929829905" lon="12.99492269407811"><ele>460.2</ele><time>2026-04-19T11:18:25.784Z</time></trkpt><trkpt lat="42.30595417031548" lon="12.994948108634013"><ele>460.0</ele><time>2026-04-19T11:18:26.784Z</time></trkpt><trkpt lat="42.30586916425465" lon="12.99491699958767"><ele>460.00000000000006</ele><time>2026-04-19T11:18:27.784Z</time></trkpt><trkpt lat="42.30579904601528" lon="12.994853594696712"><ele>460.0</ele><time>2026-04-19T11:18:28.784Z</time></trkpt><trkpt lat="42.30573060383567" lon="12.994795728691109"><ele>460.0</ele><time>2026-04-19T11:18:29.784Z</time></trkpt><trkpt lat="42.30565565729873" lon="12.99478561209057"><ele>460.0</ele><time>2026-04-19T11:18:30.784Z</time></trkpt><trkpt lat="42.30558136614013" lon="12.994808188259848"><ele>460.00000000000006</ele><time>2026-04-19T11:18:31.784Z</time></trkpt><trkpt lat="42.3055234823544" lon="12.994891219861696"><ele>460.0</ele><time>2026-04-19T11:18:32.784Z</time></trkpt><trkpt lat="42.305527885740915" lon="12.995022295656634"><ele>461.2</ele><time>2026-04-19T11:18:33.784Z</time></trkpt><trkpt lat="42.305528145648516" lon="12.99514339752473"><ele>462.4</ele><time>2026-04-19T11:18:34.784Z</time></trkpt><trkpt lat="42.30555896104048" lon="12.995264257229106"><ele>463.6</ele><time>2026-04-19T11:18:35.784Z</time></trkpt><trkpt lat="42.3055664641783" lon="12.995415501011877"><ele>464.8</ele><time>2026-04-19T11:18:36.784Z</time></trkpt><trkpt lat="42.305587997327606" lon="12.99557484247617"><ele>466.0</ele><time>2026-04-19T11:18:37.784Z</time></trkpt><trkpt lat="42.30560505262729" lon="12.995732332864792"><ele>466.75</ele><time>2026-04-19T11:18:38.784Z</time></trkpt><trkpt lat="42.30563305115355" lon="12.995894445357752"><ele>467.5</ele><time>2026-04-19T11:18:39.784Z</time></trkpt><trkpt lat="42.30563678448845" lon="12.996074997028467"><ele>468.25</ele><time>2026-04-19T11:18:40.784Z</time></trkpt><trkpt lat="42.30563954676379" lon="12.996259138733926"><ele>469.0</ele><time>2026-04-19T11:18:41.784Z</time></trkpt><trkpt lat="42.30562609406836" lon="12.99644661575656"><ele>469.0</ele><time>2026-04-19T11:18:42.784Z</time></trkpt><trkpt lat="42.30560442890185" lon="12.99664673294815"><ele>469.0</ele><time>2026-04-19T11:18:43.784Z</time></trkpt><trkpt lat="42.305579903359586" lon="12.996842831900164"><ele>469.0</ele><time>2026-04-19T11:18:44.784Z</time></trkpt><trkpt lat="42.305547240037164" lon="12.997037944368572"><ele>469.0</ele><time>2026-04-19T11:18:45.784Z</time></trkpt><trkpt lat="42.305506231050984" lon="12.997235830498383"><ele>464.75</ele><time>2026-04-19T11:18:46.784Z</time></trkpt><trkpt lat="42.30546178609629" lon="12.997434022241956"><ele>460.5</ele><time>2026-04-19T11:18:47.784Z</time></trkpt><trkpt lat="42.30541866850232" lon="12.997626174428335"><ele>456.25</ele><time>2026-04-19T11:18:48.784Z</time></trkpt><trkpt lat="42.3053748962716" lon="12.997808337034563"><ele>452.0</ele><time>2026-04-19T11:18:49.784Z</time></trkpt><trkpt lat="42.30532376291098" lon="12.997984382022596"><ele>452.0</ele><time>2026-04-19T11:18:50.784Z</time></trkpt><trkpt lat="42.30526212593472" lon="12.998154112276461"><ele>452.0</ele><time>2026-04-19T11:18:51.784Z</time></trkpt><trkpt lat="42.30520444242783" lon="12.998318037533322"><ele>452.0</ele><time>2026-04-19T11:18:52.784Z</time></trkpt><trkpt lat="42.30514275115263" lon="12.998449168718317"><ele>452.0</ele><time>2026-04-19T11:18:53.784Z</time></trkpt><trkpt lat="42.3050698408919" lon="12.998562172913687"><ele>453.5</ele><time>2026-04-19T11:18:54.784Z</time></trkpt><trkpt lat="42.304979000977234" lon="12.99866323173733"><ele>455.0</ele><time>2026-04-19T11:18:55.784Z</time></trkpt><trkpt lat="42.304865862842504" lon="12.998755167467094"><ele>456.5</ele><time>2026-04-19T11:18:56.784Z</time></trkpt><trkpt lat="42.30474563172714" lon="12.998847491439513"><ele>458.0</ele><time>2026-04-19T11:18:57.784Z</time></trkpt><trkpt lat="42.30461783106886" lon="12.998945202160787"><ele>458.0</ele><time>2026-04-19T11:18:58.784Z</time></trkpt><trkpt lat="42.30448927882156" lon="12.9990503484118"><ele>458.0</ele><time>2026-04-19T11:18:59.783Z</time></trkpt><trkpt lat="42.304371779557904" lon="12.99915236669851"><ele>458.0</ele><time>2026-04-19T11:19:00.783Z</time></trkpt><trkpt lat="42.30426021267271" lon="12.999246331084118"><ele>458.0</ele><time>2026-04-19T11:19:01.783Z</time></trkpt><trkpt lat="42.30414736575621" lon="12.999322117674872"><ele>467.5</ele><time>2026-04-19T11:19:02.783Z</time></trkpt><trkpt lat="42.30403238616414" lon="12.999383624116332"><ele>477.0</ele><time>2026-04-19T11:19:03.783Z</time></trkpt><trkpt lat="42.303917001288184" lon="12.999423754381024"><ele>486.5</ele><time>2026-04-19T11:19:04.783Z</time></trkpt><trkpt lat="42.30379810593269" lon="12.999431938867755"><ele>496.0</ele><time>2026-04-19T11:19:05.783Z</time></trkpt><trkpt lat="42.30367356150929" lon="12.999410568161503"><ele>497.5</ele><time>2026-04-19T11:19:06.783Z</time></trkpt><trkpt lat="42.303548405777605" lon="12.999371956381346"><ele>499.0</ele><time>2026-04-19T11:19:07.783Z</time></trkpt><trkpt lat="42.30342550421848" lon="12.999317499231717"><ele>500.5</ele><time>2026-04-19T11:19:08.783Z</time></trkpt><trkpt lat="42.30331140526889" lon="12.999241892289705"><ele>502.0</ele><time>2026-04-19T11:19:09.783Z</time></trkpt><trkpt lat="42.30320897008866" lon="12.999142141730756"><ele>498.20000000000005</ele><time>2026-04-19T11:19:10.783Z</time></trkpt><trkpt lat="42.30311266132515" lon="12.99902666104502"><ele>494.40000000000003</ele><time>2026-04-19T11:19:11.783Z</time></trkpt><trkpt lat="42.303025700202085" lon="12.998914180938856"><ele>490.59999999999997</ele><time>2026-04-19T11:19:12.784Z</time></trkpt><trkpt lat="42.302951926967346" lon="12.998831179928262"><ele>486.79999999999995</ele><time>2026-04-19T11:19:13.783Z</time></trkpt><trkpt lat="42.302894862999324" lon="12.998758485439062"><ele>483.0</ele><time>2026-04-19T11:19:14.783Z</time></trkpt><trkpt lat="42.30283334796156" lon="12.99869159473701"><ele>483.0</ele><time>2026-04-19T11:19:15.783Z</time></trkpt><trkpt lat="42.30277589083784" lon="12.998645222324546"><ele>483.0</ele><time>2026-04-19T11:19:16.783Z</time></trkpt><trkpt lat="42.30268115812367" lon="12.998541905697858"><ele>483.0</ele><time>2026-04-19T11:19:18.784Z</time></trkpt><trkpt lat="42.302621888100845" lon="12.998487926085257"><ele>483.0</ele><time>2026-04-19T11:19:19.783Z</time></trkpt><trkpt lat="42.302556614316565" lon="12.998424985084618"><ele>483.0</ele><time>2026-04-19T11:19:20.783Z</time></trkpt><trkpt lat="42.30248347109276" lon="12.998351722947183"><ele>483.0</ele><time>2026-04-19T11:19:21.783Z</time></trkpt><trkpt lat="42.302396386548224" lon="12.998266447855153"><ele>476.5</ele><time>2026-04-19T11:19:22.783Z</time></trkpt><trkpt lat="42.3022975200212" lon="12.998148715921339"><ele>470.0</ele><time>2026-04-19T11:19:23.783Z</time></trkpt><trkpt lat="42.3021919956775" lon="12.998027195655437"><ele>463.5</ele><time>2026-04-19T11:19:24.783Z</time></trkpt><trkpt lat="42.302078691142434" lon="12.997908343458228"><ele>457.0</ele><time>2026-04-19T11:19:25.783Z</time></trkpt><trkpt lat="42.30195875829048" lon="12.997801220541549"><ele>457.0</ele><time>2026-04-19T11:19:26.783Z</time></trkpt><trkpt lat="42.3018483621666" lon="12.997689072402267"><ele>457.0</ele><time>2026-04-19T11:19:27.783Z</time></trkpt><trkpt lat="42.301725178556076" lon="12.997609338216867"><ele>457.0</ele><time>2026-04-19T11:19:28.783Z</time></trkpt><trkpt lat="42.301620786073876" lon="12.997502564236548"><ele>457.0</ele><time>2026-04-19T11:19:29.783Z</time></trkpt><trkpt lat="42.30150998467553" lon="12.997422622859093"><ele>455.1666666666667</ele><time>2026-04-19T11:19:30.783Z</time></trkpt><trkpt lat="42.301410970864" lon="12.99734415932878"><ele>453.33333333333337</ele><time>2026-04-19T11:19:31.783Z</time></trkpt><trkpt lat="42.301325672304735" lon="12.997295349328475"><ele>451.5</ele><time>2026-04-19T11:19:32.783Z</time></trkpt><trkpt lat="42.30124785792494" lon="12.997274426238386"><ele>449.66666666666663</ele><time>2026-04-19T11:19:33.783Z</time></trkpt><trkpt lat="42.30117626745073" lon="12.997296727098199"><ele>447.8333333333333</ele><time>2026-04-19T11:19:34.783Z</time></trkpt><trkpt lat="42.30111155995684" lon="12.997343163460798"><ele>446.0</ele><time>2026-04-19T11:19:35.783Z</time></trkpt><trkpt lat="42.301071871622824" lon="12.997442350522686"><ele>445.6</ele><time>2026-04-19T11:19:36.783Z</time></trkpt><trkpt lat="42.30107648826055" lon="12.997574645385654"><ele>445.20000000000005</ele><time>2026-04-19T11:19:37.783Z</time></trkpt><trkpt lat="42.30113757121405" lon="12.997694847034014"><ele>444.79999999999995</ele><time>2026-04-19T11:19:38.783Z</time></trkpt><trkpt lat="42.30120086795145" lon="12.997804469431957"><ele>444.4</ele><time>2026-04-19T11:19:39.783Z</time></trkpt><trkpt lat="42.30127782156827" lon="12.99793777495974"><ele>444.0</ele><time>2026-04-19T11:19:40.783Z</time></trkpt><trkpt lat="42.30135896186445" lon="12.998087429740668"><ele>447.25</ele><time>2026-04-19T11:19:41.783Z</time></trkpt><trkpt lat="42.30143137159448" lon="12.998238031470965"><ele>450.5</ele><time>2026-04-19T11:19:42.783Z</time></trkpt><trkpt lat="42.301486837048905" lon="12.998390473924818"><ele>453.75</ele><time>2026-04-19T11:19:43.783Z</time></trkpt><trkpt lat="42.30152421144701" lon="12.998544999411623"><ele>457.0</ele><time>2026-04-19T11:19:44.783Z</time></trkpt><trkpt lat="42.301549749901575" lon="12.998706949812865"><ele>458.25</ele><time>2026-04-19T11:19:45.783Z</time></trkpt><trkpt lat="42.301560004515665" lon="12.998876538694446"><ele>459.5</ele><time>2026-04-19T11:19:46.782Z</time></trkpt><trkpt lat="42.30155820444047" lon="12.999058371164454"><ele>460.75</ele><time>2026-04-19T11:19:47.782Z</time></trkpt><trkpt lat="42.30154894453756" lon="12.99923632782872"><ele>462.0</ele><time>2026-04-19T11:19:48.782Z</time></trkpt><trkpt lat="42.30153785549564" lon="12.999409765317596"><ele>463.25</ele><time>2026-04-19T11:19:49.782Z</time></trkpt><trkpt lat="42.301509212562394" lon="12.999573484861209"><ele>464.5</ele><time>2026-04-19T11:19:50.782Z</time></trkpt><trkpt lat="42.30147161416509" lon="12.999714188920516"><ele>465.75</ele><time>2026-04-19T11:19:51.782Z</time></trkpt><trkpt lat="42.30141413161274" lon="12.999852178483694"><ele>467.0</ele><time>2026-04-19T11:19:52.782Z</time></trkpt><trkpt lat="42.30134372475175" lon="12.999988829065423"><ele>462.75</ele><time>2026-04-19T11:19:53.782Z</time></trkpt><trkpt lat="42.301242795193296" lon="13.000091244422888"><ele>458.5</ele><time>2026-04-19T11:19:54.782Z</time></trkpt><trkpt lat="42.301130153101596" lon="13.000160873817912"><ele>454.25</ele><time>2026-04-19T11:19:55.782Z</time></trkpt><trkpt lat="42.301009213597546" lon="13.000208956930884"><ele>450.0</ele><time>2026-04-19T11:19:56.782Z</time></trkpt><trkpt lat="42.30088310027261" lon="13.000248336723034"><ele>450.0</ele><time>2026-04-19T11:19:57.782Z</time></trkpt><trkpt lat="42.30075074229503" lon="13.000301311391663"><ele>450.0</ele><time>2026-04-19T11:19:58.782Z</time></trkpt><trkpt lat="42.300618609694396" lon="13.000388659878489"><ele>450.0</ele><time>2026-04-19T11:19:59.782Z</time></trkpt><trkpt lat="42.300495551585435" lon="13.00049158850993"><ele>450.0</ele><time>2026-04-19T11:20:00.782Z</time></trkpt><trkpt lat="42.30037176364865" lon="13.000594499597463"><ele>450.25</ele><time>2026-04-19T11:20:01.782Z</time></trkpt><trkpt lat="42.30025127518247" lon="13.000663631193756"><ele>450.5</ele><time>2026-04-19T11:20:02.782Z</time></trkpt><trkpt lat="42.300126813477654" lon="13.000695250817534"><ele>450.75</ele><time>2026-04-19T11:20:03.782Z</time></trkpt><trkpt lat="42.299996441661285" lon="13.000698515953498"><ele>451.0</ele><time>2026-04-19T11:20:04.782Z</time></trkpt><trkpt lat="42.29986898389754" lon="13.000682902657664"><ele>451.75</ele><time>2026-04-19T11:20:05.782Z</time></trkpt><trkpt lat="42.299747865854336" lon="13.000643557342672"><ele>452.5</ele><time>2026-04-19T11:20:06.782Z</time></trkpt><trkpt lat="42.29961884535609" lon="13.000590735237537"><ele>453.25</ele><time>2026-04-19T11:20:07.782Z</time></trkpt><trkpt lat="42.29949849790269" lon="13.000521959823002"><ele>454.0</ele><time>2026-04-19T11:20:08.782Z</time></trkpt><trkpt lat="42.2993702492916" lon="13.000471624471633"><ele>454.0</ele><time>2026-04-19T11:20:09.782Z</time></trkpt><trkpt lat="42.29923237783944" lon="13.000448213859785"><ele>454.0</ele><time>2026-04-19T11:20:10.782Z</time></trkpt><trkpt lat="42.299086080999516" lon="13.000427226707718"><ele>454.0</ele><time>2026-04-19T11:20:11.782Z</time></trkpt><trkpt lat="42.298929019184165" lon="13.000410934300126"><ele>454.0</ele><time>2026-04-19T11:20:12.782Z</time></trkpt><trkpt lat="42.29877839555441" lon="13.000403895216067"><ele>453.6666666666667</ele><time>2026-04-19T11:20:13.782Z</time></trkpt><trkpt lat="42.298623602864" lon="13.000404255090027"><ele>453.33333333333337</ele><time>2026-04-19T11:20:14.782Z</time></trkpt><trkpt lat="42.29846862807045" lon="13.000411033506428"><ele>453.0</ele><time>2026-04-19T11:20:15.782Z</time></trkpt><trkpt lat="42.29831199344988" lon="13.000437504933755"><ele>453.0</ele><time>2026-04-19T11:20:16.782Z</time></trkpt><trkpt lat="42.298150973052614" lon="13.000485241560073"><ele>453.0</ele><time>2026-04-19T11:20:17.782Z</time></trkpt><trkpt lat="42.29798968178199" lon="13.00053827158732"><ele>453.0</ele><time>2026-04-19T11:20:18.782Z</time></trkpt><trkpt lat="42.29782429621355" lon="13.00059742758487"><ele>452.66666666666663</ele><time>2026-04-19T11:20:19.781Z</time></trkpt><trkpt lat="42.29765829714731" lon="13.000652798825705"><ele>452.3333333333333</ele><time>2026-04-19T11:20:20.781Z</time></trkpt><trkpt lat="42.29749008599273" lon="13.000704380125113"><ele>452.0</ele><time>2026-04-19T11:20:21.781Z</time></trkpt><trkpt lat="42.297327730584996" lon="13.000762665445489"><ele>451.66666666666663</ele><time>2026-04-19T11:20:22.781Z</time></trkpt><trkpt lat="42.297169576021446" lon="13.000813880128996"><ele>451.33333333333337</ele><time>2026-04-19T11:20:23.781Z</time></trkpt><trkpt lat="42.29700867079829" lon="13.000848366011109"><ele>451.0</ele><time>2026-04-19T11:20:24.781Z</time></trkpt><trkpt lat="42.29684602753073" lon="13.000865381842708"><ele>452.6666666666667</ele><time>2026-04-19T11:20:25.781Z</time></trkpt><trkpt lat="42.29667839063774" lon="13.000876906903141"><ele>454.33333333333337</ele><time>2026-04-19T11:20:26.781Z</time></trkpt><trkpt lat="42.296510439847125" lon="13.000888839403684"><ele>456.0</ele><time>2026-04-19T11:20:27.781Z</time></trkpt><trkpt lat="42.296353647032724" lon="13.000864539314293"><ele>456.0</ele><time>2026-04-19T11:20:28.781Z</time></trkpt><trkpt lat="42.296199191128544" lon="13.000859711505393"><ele>456.0</ele><time>2026-04-19T11:20:29.781Z</time></trkpt><trkpt lat="42.29604736417442" lon="13.00089488797871"><ele>456.0</ele><time>2026-04-19T11:20:30.781Z</time></trkpt><trkpt lat="42.29590229968927" lon="13.000936275781466"><ele>456.0</ele><time>2026-04-19T11:20:31.781Z</time></trkpt><trkpt lat="42.29577229048497" lon="13.000984069032052"><ele>456.0</ele><time>2026-04-19T11:20:32.781Z</time></trkpt><trkpt lat="42.29564750857789" lon="13.001074578535526"><ele>456.0</ele><time>2026-04-19T11:20:33.781Z</time></trkpt><trkpt lat="42.29554864340506" lon="13.001173835816132"><ele>456.0</ele><time>2026-04-19T11:20:34.781Z</time></trkpt><trkpt lat="42.29546937014227" lon="13.001292298935219"><ele>455.0</ele><time>2026-04-19T11:20:35.781Z</time></trkpt><trkpt lat="42.29541577028238" lon="13.001442184936446"><ele>454.0</ele><time>2026-04-19T11:20:36.781Z</time></trkpt><trkpt lat="42.29538654658297" lon="13.00161370081886"><ele>453.0</ele><time>2026-04-19T11:20:37.781Z</time></trkpt><trkpt lat="42.29536657073099" lon="13.001793422215602"><ele>452.0</ele><time>2026-04-19T11:20:38.781Z</time></trkpt><trkpt lat="42.29536193830563" lon="13.00197396160939"><ele>452.0</ele><time>2026-04-19T11:20:39.781Z</time></trkpt><trkpt lat="42.29537815537611" lon="13.002158132641762"><ele>452.0</ele><time>2026-04-19T11:20:40.781Z</time></trkpt><trkpt lat="42.295412108937434" lon="13.002349586125508"><ele>452.0</ele><time>2026-04-19T11:20:41.781Z</time></trkpt><trkpt lat="42.29543262169831" lon="13.002551072790636"><ele>452.0</ele><time>2026-04-19T11:20:42.781Z</time></trkpt><trkpt lat="42.29547436359911" lon="13.002739313972123"><ele>452.25</ele><time>2026-04-19T11:20:43.781Z</time></trkpt><trkpt lat="42.295504537517864" lon="13.002920208588193"><ele>452.5</ele><time>2026-04-19T11:20:44.781Z</time></trkpt><trkpt lat="42.29552961332154" lon="13.003096183009498"><ele>452.75</ele><time>2026-04-19T11:20:45.781Z</time></trkpt><trkpt lat="42.29554992727097" lon="13.003270177744296"><ele>453.0</ele><time>2026-04-19T11:20:46.781Z</time></trkpt><trkpt lat="42.29556495473749" lon="13.003438611508834"><ele>452.25</ele><time>2026-04-19T11:20:47.781Z</time></trkpt><trkpt lat="42.29557268166202" lon="13.003603325979542"><ele>451.5</ele><time>2026-04-19T11:20:48.781Z</time></trkpt><trkpt lat="42.29555849981928" lon="13.003763749963476"><ele>450.75</ele><time>2026-04-19T11:20:49.781Z</time></trkpt><trkpt lat="42.29552078270479" lon="13.003933992825706"><ele>450.0</ele><time>2026-04-19T11:20:50.781Z</time></trkpt><trkpt lat="42.29545250000071" lon="13.00409291255815"><ele>449.5</ele><time>2026-04-19T11:20:51.781Z</time></trkpt><trkpt lat="42.29537332558303" lon="13.004249708209953"><ele>449.0</ele><time>2026-04-19T11:20:52.781Z</time></trkpt><trkpt lat="42.29529183700726" lon="13.004419929011654"><ele>448.5</ele><time>2026-04-19T11:20:53.78Z</time></trkpt><trkpt lat="42.29520460241635" lon="13.004597525659625"><ele>448.0</ele><time>2026-04-19T11:20:54.78Z</time></trkpt><trkpt lat="42.29512411199918" lon="13.004778007095634"><ele>448.0</ele><time>2026-04-19T11:20:55.78Z</time></trkpt><trkpt lat="42.295040886161324" lon="13.004948278965768"><ele>448.0</ele><time>2026-04-19T11:20:56.78Z</time></trkpt><trkpt lat="42.29496541082939" lon="13.005100060776503"><ele>448.0</ele><time>2026-04-19T11:20:57.78Z</time></trkpt><trkpt lat="42.29490193554921" lon="13.005229965045881"><ele>448.0</ele><time>2026-04-19T11:20:58.78Z</time></trkpt><trkpt lat="42.294837250451046" lon="13.005338353319262"><ele>448.4</ele><time>2026-04-19T11:20:59.78Z</time></trkpt><trkpt lat="42.294764011640034" lon="13.005428978021659"><ele>448.79999999999995</ele><time>2026-04-19T11:21:00.78Z</time></trkpt><trkpt lat="42.29467432734454" lon="13.005483519909042"><ele>449.2</ele><time>2026-04-19T11:21:01.78Z</time></trkpt><trkpt lat="42.294568585937775" lon="13.005511053862811"><ele>449.6</ele><time>2026-04-19T11:21:02.78Z</time></trkpt><trkpt lat="42.294461871265376" lon="13.005477633672546"><ele>450.0</ele><time>2026-04-19T11:21:03.78Z</time></trkpt><trkpt lat="42.2943338056236" lon="13.005465852312572"><ele>450.0</ele><time>2026-04-19T11:21:04.78Z</time></trkpt><trkpt lat="42.29420226876701" lon="13.005441506620455"><ele>450.0</ele><time>2026-04-19T11:21:05.78Z</time></trkpt><trkpt lat="42.29408053427646" lon="13.00544006523066"><ele>450.0</ele><time>2026-04-19T11:21:06.78Z</time></trkpt><trkpt lat="42.293964140168754" lon="13.005465488657123"><ele>450.0</ele><time>2026-04-19T11:21:07.78Z</time></trkpt><trkpt lat="42.29385389369106" lon="13.005522889977044"><ele>451.25</ele><time>2026-04-19T11:21:08.78Z</time></trkpt><trkpt lat="42.29374949280482" lon="13.005604943620243"><ele>452.5</ele><time>2026-04-19T11:21:09.78Z</time></trkpt><trkpt lat="42.293634971909" lon="13.005690577587297"><ele>453.75</ele><time>2026-04-19T11:21:10.78Z</time></trkpt><trkpt lat="42.29352685449278" lon="13.005773808488335"><ele>455.0</ele><time>2026-04-19T11:21:11.78Z</time></trkpt><trkpt lat="42.293422590463635" lon="13.005852481274015"><ele>455.2</ele><time>2026-04-19T11:21:12.78Z</time></trkpt><trkpt lat="42.293320069858794" lon="13.005918066234731"><ele>455.4</ele><time>2026-04-19T11:21:13.78Z</time></trkpt><trkpt lat="42.293225273360356" lon="13.005989385333544"><ele>455.6</ele><time>2026-04-19T11:21:14.78Z</time></trkpt><trkpt lat="42.29313521541524" lon="13.006051229120471"><ele>455.8</ele><time>2026-04-19T11:21:15.78Z</time></trkpt><trkpt lat="42.2930627016744" lon="13.006115324552255"><ele>456.0</ele><time>2026-04-19T11:21:16.78Z</time></trkpt><trkpt lat="42.29299825063495" lon="13.006160905843398"><ele>456.0</ele><time>2026-04-19T11:21:17.78Z</time></trkpt><trkpt lat="42.2929337811149" lon="13.00618251990695"><ele>456.0</ele><time>2026-04-19T11:21:18.781Z</time></trkpt><trkpt lat="42.29285945488431" lon="13.006198536464968"><ele>456.0</ele><time>2026-04-19T11:21:19.78Z</time></trkpt><trkpt lat="42.2927755383661" lon="13.006213856727118"><ele>456.0</ele><time>2026-04-19T11:21:20.78Z</time></trkpt><trkpt lat="42.29268244013868" lon="13.0062330821533"><ele>456.0</ele><time>2026-04-19T11:21:21.781Z</time></trkpt><trkpt lat="42.292577737960514" lon="13.006246269828399"><ele>456.0</ele><time>2026-04-19T11:21:22.781Z</time></trkpt><trkpt lat="42.29246897537853" lon="13.006283441290773"><ele>456.0</ele><time>2026-04-19T11:21:23.781Z</time></trkpt><trkpt lat="42.29235370409076" lon="13.006343316918295"><ele>456.0</ele><time>2026-04-19T11:21:24.78Z</time></trkpt><trkpt lat="42.292249933509744" lon="13.006410818448346"><ele>456.0</ele><time>2026-04-19T11:21:25.781Z</time></trkpt><trkpt lat="42.2921519840161" lon="13.006478842919227"><ele>456.0</ele><time>2026-04-19T11:21:26.781Z</time></trkpt><trkpt lat="42.29205262754672" lon="13.006544337511503"><ele>455.8</ele><time>2026-04-19T11:21:27.78Z</time></trkpt><trkpt lat="42.291949760380675" lon="13.006558928757105"><ele>455.6</ele><time>2026-04-19T11:21:28.78Z</time></trkpt><trkpt lat="42.291855292342774" lon="13.006510799310698"><ele>455.4</ele><time>2026-04-19T11:21:29.78Z</time></trkpt><trkpt lat="42.291773910087365" lon="13.006445723214714"><ele>455.2</ele><time>2026-04-19T11:21:30.78Z</time></trkpt><trkpt lat="42.291687894448" lon="13.006371713615353"><ele>455.0</ele><time>2026-04-19T11:21:31.78Z</time></trkpt><trkpt lat="42.29159109882192" lon="13.00628766091086"><ele>455.0</ele><time>2026-04-19T11:21:32.78Z</time></trkpt><trkpt lat="42.291482533295095" lon="13.006204095845776"><ele>455.0</ele><time>2026-04-19T11:21:33.78Z</time></trkpt><trkpt lat="42.29136770414983" lon="13.006148156907411"><ele>455.0</ele><time>2026-04-19T11:21:34.78Z</time></trkpt><trkpt lat="42.291249580639274" lon="13.00608378487052"><ele>455.0</ele><time>2026-04-19T11:21:35.78Z</time></trkpt><trkpt lat="42.291127509364706" lon="13.006021567790613"><ele>455.25</ele><time>2026-04-19T11:21:36.78Z</time></trkpt><trkpt lat="42.29100456377161" lon="13.005967083768512"><ele>455.5</ele><time>2026-04-19T11:21:37.78Z</time></trkpt><trkpt lat="42.290881184272294" lon="13.005932186583452"><ele>455.75</ele><time>2026-04-19T11:21:38.78Z</time></trkpt><trkpt lat="42.290749096898615" lon="13.00591702657902"><ele>456.0</ele><time>2026-04-19T11:21:39.78Z</time></trkpt><trkpt lat="42.290615043011876" lon="13.00592437958068"><ele>456.0</ele><time>2026-04-19T11:21:40.78Z</time></trkpt><trkpt lat="42.29047169000488" lon="13.005919876396842"><ele>456.0</ele><time>2026-04-19T11:21:41.78Z</time></trkpt><trkpt lat="42.29032491009764" lon="13.005935943110675"><ele>456.0</ele><time>2026-04-19T11:21:42.78Z</time></trkpt><trkpt lat="42.2901762724403" lon="13.00597312672136"><ele>456.0</ele><time>2026-04-19T11:21:43.78Z</time></trkpt><trkpt lat="42.290027216018764" lon="13.005994479235143"><ele>456.0</ele><time>2026-04-19T11:21:44.78Z</time></trkpt><trkpt lat="42.28988514868232" lon="13.006016536536098"><ele>456.0</ele><time>2026-04-19T11:21:45.78Z</time></trkpt><trkpt lat="42.28974991124661" lon="13.006047520083008"><ele>456.0</ele><time>2026-04-19T11:21:46.78Z</time></trkpt><trkpt lat="42.28962615610992" lon="13.006116242142548"><ele>456.0</ele><time>2026-04-19T11:21:47.78Z</time></trkpt><trkpt lat="42.28951056607669" lon="13.006213669933798"><ele>455.75</ele><time>2026-04-19T11:21:48.78Z</time></trkpt><trkpt lat="42.28940630264133" lon="13.006331849924125"><ele>455.5</ele><time>2026-04-19T11:21:49.78Z</time></trkpt><trkpt lat="42.28932018576152" lon="13.006475814787864"><ele>455.25</ele><time>2026-04-19T11:21:50.78Z</time></trkpt><trkpt lat="42.28925608703222" lon="13.006631985683253"><ele>455.0</ele><time>2026-04-19T11:21:51.78Z</time></trkpt><trkpt lat="42.28919223974363" lon="13.006806772242742"><ele>455.0</ele><time>2026-04-19T11:21:52.78Z</time></trkpt><trkpt lat="42.289132213234645" lon="13.006982364016144"><ele>455.0</ele><time>2026-04-19T11:21:53.78Z</time></trkpt><trkpt lat="42.28908213837936" lon="13.007153154932698"><ele>455.0</ele><time>2026-04-19T11:21:54.78Z</time></trkpt><trkpt lat="42.28903166486388" lon="13.007335045262826"><ele>455.0</ele><time>2026-04-19T11:21:55.78Z</time></trkpt><trkpt lat="42.289008046075416" lon="13.007526145872605"><ele>457.0</ele><time>2026-04-19T11:21:56.78Z</time></trkpt><trkpt lat="42.288998322133764" lon="13.007732684072435"><ele>459.0</ele><time>2026-04-19T11:21:57.78Z</time></trkpt><trkpt lat="42.288956421932525" lon="13.007932927079027"><ele>461.0</ele><time>2026-04-19T11:21:58.78Z</time></trkpt><trkpt lat="42.288921855094934" lon="13.008129285091089"><ele>461.0</ele><time>2026-04-19T11:21:59.78Z</time></trkpt><trkpt lat="42.2888940254842" lon="13.008319813331747"><ele>461.0</ele><time>2026-04-19T11:22:00.78Z</time></trkpt><trkpt lat="42.28885861418566" lon="13.008513499889446"><ele>461.0</ele><time>2026-04-19T11:22:01.78Z</time></trkpt><trkpt lat="42.28884586748188" lon="13.008713512948393"><ele>461.0</ele><time>2026-04-19T11:22:02.78Z</time></trkpt><trkpt lat="42.288836822041375" lon="13.008918984322662"><ele>460.0</ele><time>2026-04-19T11:22:03.779Z</time></trkpt><trkpt lat="42.28882356577628" lon="13.00911456877273"><ele>459.0</ele><time>2026-04-19T11:22:04.779Z</time></trkpt><trkpt lat="42.28880769810237" lon="13.00929948940906"><ele>458.0</ele><time>2026-04-19T11:22:05.779Z</time></trkpt><trkpt lat="42.28878406021106" lon="13.009466629492128"><ele>457.0</ele><time>2026-04-19T11:22:06.779Z</time></trkpt><trkpt lat="42.288753351000445" lon="13.009617173657748"><ele>457.25</ele><time>2026-04-19T11:22:07.779Z</time></trkpt><trkpt lat="42.28871202154278" lon="13.009757194796684"><ele>457.5</ele><time>2026-04-19T11:22:08.779Z</time></trkpt><trkpt lat="42.28864723691853" lon="13.009875680299132"><ele>457.75</ele><time>2026-04-19T11:22:09.779Z</time></trkpt><trkpt lat="42.288563536294994" lon="13.0099998629872"><ele>458.0</ele><time>2026-04-19T11:22:10.779Z</time></trkpt><trkpt lat="42.288485209201454" lon="13.010139192215174"><ele>458.0</ele><time>2026-04-19T11:22:11.779Z</time></trkpt><trkpt lat="42.28839268992511" lon="13.010262432542188"><ele>458.0</ele><time>2026-04-19T11:22:12.779Z</time></trkpt><trkpt lat="42.28830078073173" lon="13.010391639915449"><ele>458.0</ele><time>2026-04-19T11:22:13.779Z</time></trkpt><trkpt lat="42.28821181534501" lon="13.010519100267727"><ele>458.0</ele><time>2026-04-19T11:22:14.779Z</time></trkpt><trkpt lat="42.28811764767471" lon="13.010627450062614"><ele>458.25</ele><time>2026-04-19T11:22:15.779Z</time></trkpt><trkpt lat="42.28801550088395" lon="13.010701779753548"><ele>458.5</ele><time>2026-04-19T11:22:16.779Z</time></trkpt><trkpt lat="42.28790144430832" lon="13.01077559415568"><ele>458.75</ele><time>2026-04-19T11:22:17.779Z</time></trkpt><trkpt lat="42.28777444903254" lon="13.01084036682939"><ele>459.0</ele><time>2026-04-19T11:22:18.779Z</time></trkpt><trkpt lat="42.28764188005534" lon="13.01090552279079"><ele>460.75</ele><time>2026-04-19T11:22:19.779Z</time></trkpt><trkpt lat="42.28751095104919" lon="13.01095753027641"><ele>462.5</ele><time>2026-04-19T11:22:20.779Z</time></trkpt><trkpt lat="42.28738548852538" lon="13.010991775669712"><ele>464.25</ele><time>2026-04-19T11:22:21.779Z</time></trkpt><trkpt lat="42.28725585548439" lon="13.011002391103974"><ele>466.0</ele><time>2026-04-19T11:22:22.779Z</time></trkpt><trkpt lat="42.28712218857992" lon="13.011004711660965"><ele>466.0</ele><time>2026-04-19T11:22:23.779Z</time></trkpt><trkpt lat="42.28697644931276" lon="13.010998289809987"><ele>466.0</ele><time>2026-04-19T11:22:24.779Z</time></trkpt><trkpt lat="42.28682815136599" lon="13.010975015367132"><ele>466.0</ele><time>2026-04-19T11:22:25.779Z</time></trkpt><trkpt lat="42.28667661486216" lon="13.010964980418555"><ele>466.0</ele><time>2026-04-19T11:22:26.779Z</time></trkpt><trkpt lat="42.286516868759854" lon="13.01095691986551"><ele>467.33333333333337</ele><time>2026-04-19T11:22:27.779Z</time></trkpt><trkpt lat="42.28635778268698" lon="13.010967209348866"><ele>468.66666666666663</ele><time>2026-04-19T11:22:28.779Z</time></trkpt><trkpt lat="42.28619768928869" lon="13.010985610903715"><ele>470.0</ele><time>2026-04-19T11:22:29.779Z</time></trkpt><trkpt lat="42.28604328516756" lon="13.011007849624137"><ele>470.0</ele><time>2026-04-19T11:22:30.779Z</time></trkpt><trkpt lat="42.28588473770146" lon="13.011034336331791"><ele>470.0</ele><time>2026-04-19T11:22:31.779Z</time></trkpt><trkpt lat="42.285737752659415" lon="13.011061737174009"><ele>470.0</ele><time>2026-04-19T11:22:32.779Z</time></trkpt><trkpt lat="42.2855992939487" lon="13.011090172110105"><ele>470.0</ele><time>2026-04-19T11:22:33.779Z</time></trkpt><trkpt lat="42.2854669538426" lon="13.011127105434316"><ele>468.0</ele><time>2026-04-19T11:22:34.779Z</time></trkpt><trkpt lat="42.285343884713676" lon="13.011179482192464"><ele>466.0</ele><time>2026-04-19T11:22:35.779Z</time></trkpt><trkpt lat="42.285244837321045" lon="13.011257498394054"><ele>464.0</ele><time>2026-04-19T11:22:36.779Z</time></trkpt><trkpt lat="42.285195974934716" lon="13.011388822565506"><ele>462.0</ele><time>2026-04-19T11:22:37.778Z</time></trkpt><trkpt lat="42.28516235213201" lon="13.01152229481099"><ele>464.25</ele><time>2026-04-19T11:22:38.778Z</time></trkpt><trkpt lat="42.28514595792295" lon="13.01167426463582"><ele>466.5</ele><time>2026-04-19T11:22:39.778Z</time></trkpt><trkpt lat="42.28513298477642" lon="13.011830529351139"><ele>468.75</ele><time>2026-04-19T11:22:40.778Z</time></trkpt><trkpt lat="42.285110220756785" lon="13.012000217394295"><ele>471.0</ele><time>2026-04-19T11:22:41.778Z</time></trkpt><trkpt lat="42.285077295051344" lon="13.012183785305309"><ele>471.0</ele><time>2026-04-19T11:22:42.778Z</time></trkpt><trkpt lat="42.28503097104925" lon="13.012374029292621"><ele>471.0</ele><time>2026-04-19T11:22:43.778Z</time></trkpt><trkpt lat="42.284967239328466" lon="13.01257137079646"><ele>471.0</ele><time>2026-04-19T11:22:44.778Z</time></trkpt><trkpt lat="42.284900654549425" lon="13.01278049839513"><ele>471.0</ele><time>2026-04-19T11:22:45.778Z</time></trkpt><trkpt lat="42.284819963201784" lon="13.012993640626117"><ele>471.0</ele><time>2026-04-19T11:22:46.778Z</time></trkpt><trkpt lat="42.28475561394404" lon="13.013214714755678"><ele>471.0</ele><time>2026-04-19T11:22:47.778Z</time></trkpt><trkpt lat="42.2846937746916" lon="13.013428602433251"><ele>471.0</ele><time>2026-04-19T11:22:48.778Z</time></trkpt><trkpt lat="42.28463618866942" lon="13.013634292393164"><ele>471.0</ele><time>2026-04-19T11:22:49.778Z</time></trkpt><trkpt lat="42.28459028832316" lon="13.013843334869849"><ele>471.0</ele><time>2026-04-19T11:22:50.778Z</time></trkpt><trkpt lat="42.284559991840155" lon="13.014057398703054"><ele>472.33333333333337</ele><time>2026-04-19T11:22:51.778Z</time></trkpt><trkpt lat="42.2845432235906" lon="13.014251145142964"><ele>473.6666666666667</ele><time>2026-04-19T11:22:52.778Z</time></trkpt><trkpt lat="42.28453331519879" lon="13.01445249986905"><ele>475.0</ele><time>2026-04-19T11:22:53.778Z</time></trkpt><trkpt lat="42.28453438492112" lon="13.01469005146714"><ele>475.0</ele><time>2026-04-19T11:22:54.778Z</time></trkpt><trkpt lat="42.28455051220001" lon="13.014919599393611"><ele>475.0</ele><time>2026-04-19T11:22:55.778Z</time></trkpt><trkpt lat="42.28457936023719" lon="13.015132200686837"><ele>475.0</ele><time>2026-04-19T11:22:56.778Z</time></trkpt><trkpt lat="42.284578712443114" lon="13.01534557219604"><ele>475.6666666666667</ele><time>2026-04-19T11:22:57.778Z</time></trkpt><trkpt lat="42.284556579673314" lon="13.015566957098333"><ele>476.33333333333337</ele><time>2026-04-19T11:22:58.778Z</time></trkpt><trkpt lat="42.28448750812501" lon="13.015751742175148"><ele>477.0</ele><time>2026-04-19T11:22:59.778Z</time></trkpt><trkpt lat="42.28441953426275" lon="13.01595483146016"><ele>480.33333333333337</ele><time>2026-04-19T11:23:00.778Z</time></trkpt><trkpt lat="42.28432614728939" lon="13.016136889261722"><ele>483.6666666666667</ele><time>2026-04-19T11:23:01.778Z</time></trkpt><trkpt lat="42.28425235847277" lon="13.016319727769329"><ele>487.0</ele><time>2026-04-19T11:23:02.778Z</time></trkpt><trkpt lat="42.284176863903056" lon="13.016490929236472"><ele>484.6666666666667</ele><time>2026-04-19T11:23:03.778Z</time></trkpt><trkpt lat="42.28405916642446" lon="13.016683781786087"><ele>482.33333333333337</ele><time>2026-04-19T11:23:04.778Z</time></trkpt><trkpt lat="42.28392729986038" lon="13.016847370878393"><ele>480.0</ele><time>2026-04-19T11:23:05.778Z</time></trkpt><trkpt lat="42.28378801057896" lon="13.016999503204104"><ele>480.0</ele><time>2026-04-19T11:23:06.778Z</time></trkpt><trkpt lat="42.28363345293128" lon="13.017160183992411"><ele>480.0</ele><time>2026-04-19T11:23:07.778Z</time></trkpt><trkpt lat="42.28357732759081" lon="13.017219246101815"><ele>480.0</ele><time>2026-04-19T11:23:09.778Z</time></trkpt><trkpt lat="42.283487917601036" lon="13.017315709855179"><ele>480.0</ele><time>2026-04-19T11:23:10.778Z</time></trkpt><trkpt lat="42.28340625146245" lon="13.017429268239797"><ele>485.2</ele><time>2026-04-19T11:23:11.777Z</time></trkpt><trkpt lat="42.2833632297838" lon="13.017563323202316"><ele>490.4</ele><time>2026-04-19T11:23:12.777Z</time></trkpt><trkpt lat="42.28330625292636" lon="13.017674403323225"><ele>495.6</ele><time>2026-04-19T11:23:13.777Z</time></trkpt><trkpt lat="42.28327222500437" lon="13.017786695905835"><ele>500.8</ele><time>2026-04-19T11:23:14.777Z</time></trkpt><trkpt lat="42.28327803142177" lon="13.01795362554193"><ele>506.0</ele><time>2026-04-19T11:23:15.777Z</time></trkpt><trkpt lat="42.28330341117067" lon="13.018100247704801"><ele>505.99999999999994</ele><time>2026-04-19T11:23:16.777Z</time></trkpt><trkpt lat="42.28332690275129" lon="13.018240246949059"><ele>506.0</ele><time>2026-04-19T11:23:17.777Z</time></trkpt><trkpt lat="42.283372426187746" lon="13.018342685997801"><ele>506.0</ele><time>2026-04-19T11:23:18.777Z</time></trkpt><trkpt lat="42.283437277865566" lon="13.018414045887774"><ele>506.0</ele><time>2026-04-19T11:23:19.777Z</time></trkpt><trkpt lat="42.283496894656345" lon="13.018477054939638"><ele>505.99999999999994</ele><time>2026-04-19T11:23:20.777Z</time></trkpt><trkpt lat="42.28355889702815" lon="13.018549378106067"><ele>506.0</ele><time>2026-04-19T11:23:21.777Z</time></trkpt><trkpt lat="42.28360696587185" lon="13.018605916745619"><ele>506.16666666666663</ele><time>2026-04-19T11:23:22.777Z</time></trkpt><trkpt lat="42.28366063611891" lon="13.018675142025597"><ele>506.3333333333333</ele><time>2026-04-19T11:23:23.777Z</time></trkpt><trkpt lat="42.28371212315184" lon="13.018746326533194"><ele>506.5</ele><time>2026-04-19T11:23:24.777Z</time></trkpt><trkpt lat="42.28376262973672" lon="13.0188252713365"><ele>506.66666666666663</ele><time>2026-04-19T11:23:25.777Z</time></trkpt><trkpt lat="42.28380406199572" lon="13.018915669276904"><ele>506.8333333333333</ele><time>2026-04-19T11:23:26.777Z</time></trkpt><trkpt lat="42.28382945029339" lon="13.019017376313235"><ele>507.0</ele><time>2026-04-19T11:23:27.777Z</time></trkpt><trkpt lat="42.28384415878676" lon="13.019136550158683"><ele>504.0</ele><time>2026-04-19T11:23:28.777Z</time></trkpt><trkpt lat="42.2838373665749" lon="13.019236112883588"><ele>501.0</ele><time>2026-04-19T11:23:29.777Z</time></trkpt><trkpt lat="42.28385100677427" lon="13.019331103763601"><ele>498.0</ele><time>2026-04-19T11:23:30.777Z</time></trkpt><trkpt lat="42.283861784452014" lon="13.019445873683546"><ele>495.0</ele><time>2026-04-19T11:23:31.777Z</time></trkpt><trkpt lat="42.283871014624154" lon="13.019565168226341"><ele>492.0</ele><time>2026-04-19T11:23:32.777Z</time></trkpt><trkpt lat="42.28388277167868" lon="13.01969873269365"><ele>489.0</ele><time>2026-04-19T11:23:33.777Z</time></trkpt><trkpt lat="42.28390163355383" lon="13.019843044101622"><ele>487.75</ele><time>2026-04-19T11:23:34.777Z</time></trkpt><trkpt lat="42.28390833752199" lon="13.019992222723353"><ele>486.5</ele><time>2026-04-19T11:23:35.777Z</time></trkpt><trkpt lat="42.28389503574283" lon="13.020148838345655"><ele>485.25</ele><time>2026-04-19T11:23:36.777Z</time></trkpt><trkpt lat="42.283863476399375" lon="13.020303255233387"><ele>484.0</ele><time>2026-04-19T11:23:37.777Z</time></trkpt><trkpt lat="42.283830828816534" lon="13.020463195515136"><ele>484.0</ele><time>2026-04-19T11:23:38.777Z</time></trkpt><trkpt lat="42.28378533430082" lon="13.020626618110095"><ele>484.0</ele><time>2026-04-19T11:23:39.777Z</time></trkpt><trkpt lat="42.28374498624311" lon="13.02078543035479"><ele>484.0</ele><time>2026-04-19T11:23:40.777Z</time></trkpt><trkpt lat="42.283688338764115" lon="13.020937188375056"><ele>484.0</ele><time>2026-04-19T11:23:41.776Z</time></trkpt><trkpt lat="42.283613858919644" lon="13.02107920981547"><ele>488.75</ele><time>2026-04-19T11:23:42.776Z</time></trkpt><trkpt lat="42.2835341703092" lon="13.021221487713845"><ele>493.5</ele><time>2026-04-19T11:23:43.776Z</time></trkpt><trkpt lat="42.28344846464735" lon="13.021364878489319"><ele>498.25</ele><time>2026-04-19T11:23:44.776Z</time></trkpt><trkpt lat="42.28336128912638" lon="13.021508151311133"><ele>503.0</ele><time>2026-04-19T11:23:45.776Z</time></trkpt><trkpt lat="42.28327117221834" lon="13.021653547956817"><ele>497.75</ele><time>2026-04-19T11:23:46.776Z</time></trkpt><trkpt lat="42.28318284046525" lon="13.021800021450822"><ele>492.5</ele><time>2026-04-19T11:23:47.776Z</time></trkpt><trkpt lat="42.28309134187296" lon="13.021952648680069"><ele>487.25</ele><time>2026-04-19T11:23:48.776Z</time></trkpt><trkpt lat="42.283000985365256" lon="13.022107557156916"><ele>482.0</ele><time>2026-04-19T11:23:49.776Z</time></trkpt><trkpt lat="42.2829130287148" lon="13.022265113101087"><ele>482.0</ele><time>2026-04-19T11:23:50.776Z</time></trkpt><trkpt lat="42.2828216289402" lon="13.022416045479705"><ele>482.0</ele><time>2026-04-19T11:23:51.776Z</time></trkpt><trkpt lat="42.28272603760037" lon="13.022562053684219"><ele>482.0</ele><time>2026-04-19T11:23:52.776Z</time></trkpt><trkpt lat="42.28262558013882" lon="13.022713838064433"><ele>482.0</ele><time>2026-04-19T11:23:53.776Z</time></trkpt><trkpt lat="42.2825263525207" lon="13.022861585364586"><ele>480.0</ele><time>2026-04-19T11:23:54.776Z</time></trkpt><trkpt lat="42.282424726643804" lon="13.023002231255122"><ele>478.0</ele><time>2026-04-19T11:23:55.776Z</time></trkpt><trkpt lat="42.282328577090304" lon="13.023124965559784"><ele>476.0</ele><time>2026-04-19T11:23:56.776Z</time></trkpt><trkpt lat="42.28225211184969" lon="13.023223790743605"><ele>474.0</ele><time>2026-04-19T11:23:57.776Z</time></trkpt><trkpt lat="42.28218203163288" lon="13.023314772090451"><ele>482.0</ele><time>2026-04-19T11:23:58.776Z</time></trkpt><trkpt lat="42.28210237896882" lon="13.0234164706581"><ele>490.0</ele><time>2026-04-19T11:23:59.776Z</time></trkpt><trkpt lat="42.2820247506824" lon="13.023535843671604"><ele>498.0</ele><time>2026-04-19T11:24:00.776Z</time></trkpt><trkpt lat="42.281928424264066" lon="13.023645189591567"><ele>506.0</ele><time>2026-04-19T11:24:01.776Z</time></trkpt><trkpt lat="42.28182504550264" lon="13.023762288950326"><ele>506.0</ele><time>2026-04-19T11:24:02.776Z</time></trkpt><trkpt lat="42.28171718941743" lon="13.02388228393299"><ele>506.0</ele><time>2026-04-19T11:24:03.776Z</time></trkpt><trkpt lat="42.28161114903869" lon="13.024004030413543"><ele>506.0</ele><time>2026-04-19T11:24:04.776Z</time></trkpt><trkpt lat="42.281515832363034" lon="13.024102984968692"><ele>506.0</ele><time>2026-04-19T11:24:05.776Z</time></trkpt><trkpt lat="42.2814337832801" lon="13.024174770381736"><ele>504.8333333333333</ele><time>2026-04-19T11:24:06.776Z</time></trkpt><trkpt lat="42.281361797198514" lon="13.024234220723205"><ele>503.66666666666663</ele><time>2026-04-19T11:24:07.776Z</time></trkpt><trkpt lat="42.28129817747035" lon="13.024290656476976"><ele>502.5</ele><time>2026-04-19T11:24:08.776Z</time></trkpt><trkpt lat="42.28124443507462" lon="13.02434690470039"><ele>501.33333333333337</ele><time>2026-04-19T11:24:09.776Z</time></trkpt><trkpt lat="42.281165599233326" lon="13.024447404235719"><ele>500.1666666666667</ele><time>2026-04-19T11:24:11.776Z</time></trkpt><trkpt lat="42.28111540492228" lon="13.024546510458888"><ele>499.0</ele><time>2026-04-19T11:26:11.773Z</time></trkpt><trkpt lat="42.28108358364054" lon="13.024655720372639"><ele>499.0</ele><time>2026-04-19T11:30:33.796Z</time></trkpt><trkpt lat="42.28103855129541" lon="13.024740376428497"><ele>499.0</ele><time>2026-04-19T11:30:34.796Z</time></trkpt><trkpt lat="42.280990932949024" lon="13.024893867611217"><ele>499.0</ele><time>2026-04-19T11:30:36.796Z</time></trkpt><trkpt lat="42.280956714416114" lon="13.025019926968508"><ele>499.0</ele><time>2026-04-19T11:30:38.796Z</time></trkpt><trkpt lat="42.28086110029646" lon="13.025086609590806"><ele>499.0</ele><time>2026-04-19T11:30:40.796Z</time></trkpt><trkpt lat="42.28077816245646" lon="13.025088864542347"><ele>505.0</ele><time>2026-04-19T11:30:42.796Z</time></trkpt><trkpt lat="42.280690710327036" lon="13.02508842508695"><ele>511.0</ele><time>2026-04-19T11:30:45.796Z</time></trkpt><trkpt lat="42.28062162498222" lon="13.02510453736987"><ele>517.0</ele><time>2026-04-19T11:30:47.796Z</time></trkpt><trkpt lat="42.28052816758501" lon="13.025131345231525"><ele>523.0</ele><time>2026-04-19T11:31:27.795Z</time></trkpt><trkpt lat="42.28040508304218" lon="13.025129019533162"><ele>529.0</ele><time>2026-04-19T11:34:17.792Z</time></trkpt><trkpt lat="42.280289157999746" lon="13.025139462668767"><ele>529.0</ele><time>2026-04-19T11:34:19.792Z</time></trkpt><trkpt lat="42.28020427430679" lon="13.025133219141644"><ele>529.0</ele><time>2026-04-19T11:34:21.792Z</time></trkpt><trkpt lat="42.280092306029026" lon="13.025028488404539"><ele>529.0</ele><time>2026-04-19T11:34:23.792Z</time></trkpt><trkpt lat="42.280028426530535" lon="13.024965733151594"><ele>529.0</ele><time>2026-04-19T11:34:24.792Z</time></trkpt><trkpt lat="42.279969197767485" lon="13.024902280354253"><ele>529.0</ele><time>2026-04-19T11:34:25.792Z</time></trkpt><trkpt lat="42.27990807450965" lon="13.024826743262002"><ele>529.4</ele><time>2026-04-19T11:34:26.792Z</time></trkpt><trkpt lat="42.279853468993366" lon="13.024746915887244"><ele>529.8</ele><time>2026-04-19T11:34:27.792Z</time></trkpt><trkpt lat="42.27979866499465" lon="13.02465771317528"><ele>530.2</ele><time>2026-04-19T11:34:28.792Z</time></trkpt><trkpt lat="42.27974490926744" lon="13.024556274544262"><ele>530.6</ele><time>2026-04-19T11:34:29.792Z</time></trkpt><trkpt lat="42.27969702871799" lon="13.024447270989052"><ele>531.0</ele><time>2026-04-19T11:34:30.792Z</time></trkpt><trkpt lat="42.279653161053886" lon="13.024326459168183"><ele>531.0</ele><time>2026-04-19T11:34:31.792Z</time></trkpt><trkpt lat="42.279615403526655" lon="13.024210904225843"><ele>531.0</ele><time>2026-04-19T11:34:32.792Z</time></trkpt><trkpt lat="42.27958284759985" lon="13.024082817933458"><ele>531.0</ele><time>2026-04-19T11:34:33.792Z</time></trkpt><trkpt lat="42.27955549153362" lon="13.02395213221168"><ele>531.0</ele><time>2026-04-19T11:34:34.792Z</time></trkpt><trkpt lat="42.27953508190903" lon="13.023810713926958"><ele>531.0</ele><time>2026-04-19T11:34:35.792Z</time></trkpt><trkpt lat="42.27952627448189" lon="13.023690644208088"><ele>536.5</ele><time>2026-04-19T11:34:36.792Z</time></trkpt><trkpt lat="42.27952703927407" lon="13.023568966595004"><ele>542.0</ele><time>2026-04-19T11:34:37.792Z</time></trkpt><trkpt lat="42.27952793375037" lon="13.023453802843791"><ele>547.5</ele><time>2026-04-19T11:34:38.792Z</time></trkpt><trkpt lat="42.279528465934185" lon="13.023366897468046"><ele>553.0</ele><time>2026-04-19T11:34:39.792Z</time></trkpt><trkpt lat="42.27952717920282" lon="13.023266789640948"><ele>558.5</ele><time>2026-04-19T11:34:41.792Z</time></trkpt><trkpt lat="42.27942525924147" lon="13.02319765680344"><ele>564.0</ele><time>2026-04-19T11:34:42.792Z</time></trkpt><trkpt lat="42.279355854470715" lon="13.023202247706848"><ele>572.0</ele><time>2026-04-19T11:34:43.792Z</time></trkpt><trkpt lat="42.27928411341933" lon="13.023212728773272"><ele>580.0</ele><time>2026-04-19T11:34:44.792Z</time></trkpt><trkpt lat="42.27915358466563" lon="13.02321050242833"><ele>588.0</ele><time>2026-04-19T11:34:46.792Z</time></trkpt><trkpt lat="42.27907928162609" lon="13.023193842816076"><ele>596.0</ele><time>2026-04-19T11:34:47.792Z</time></trkpt><trkpt lat="42.278979376112964" lon="13.023176040734075"><ele>604.0</ele><time>2026-04-19T11:34:48.792Z</time></trkpt><trkpt lat="42.278874182184104" lon="13.02318246638266"><ele>603.0</ele><time>2026-04-19T11:34:49.792Z</time></trkpt><trkpt lat="42.27877364083607" lon="13.023206219656256"><ele>602.0</ele><time>2026-04-19T11:34:50.792Z</time></trkpt><trkpt lat="42.27868085039276" lon="13.023240597080964"><ele>601.0</ele><time>2026-04-19T11:34:51.791Z</time></trkpt><trkpt lat="42.27859234736977" lon="13.023281178557166"><ele>600.0</ele><time>2026-04-19T11:34:52.791Z</time></trkpt><trkpt lat="42.27850965295859" lon="13.023320468682087"><ele>599.0</ele><time>2026-04-19T11:34:53.791Z</time></trkpt><trkpt lat="42.2784315621535" lon="13.023367653771007"><ele>599.0</ele><time>2026-04-19T11:34:54.791Z</time></trkpt><trkpt lat="42.27836546805444" lon="13.0234403586776"><ele>599.0</ele><time>2026-04-19T11:34:55.791Z</time></trkpt><trkpt lat="42.27834246932981" lon="13.023555993904786"><ele>599.0</ele><time>2026-04-19T11:34:56.791Z</time></trkpt><trkpt lat="42.27831482148816" lon="13.023740853261772"><ele>599.0</ele><time>2026-04-19T11:34:58.791Z</time></trkpt><trkpt lat="42.27828738132094" lon="13.023845619573164"><ele>599.0</ele><time>2026-04-19T11:34:59.791Z</time></trkpt><trkpt lat="42.27826662132376" lon="13.023960102460066"><ele>599.0</ele><time>2026-04-19T11:35:00.791Z</time></trkpt><trkpt lat="42.27824874792472" lon="13.024056504397585"><ele>599.0</ele><time>2026-04-19T11:35:01.791Z</time></trkpt><trkpt lat="42.278230331856335" lon="13.024150831768914"><ele>599.0</ele><time>2026-04-19T11:35:02.791Z</time></trkpt><trkpt lat="42.27820321493051" lon="13.024285442669981"><ele>599.0</ele><time>2026-04-19T11:35:04.791Z</time></trkpt><trkpt lat="42.2781726224919" lon="13.024423600648195"><ele>599.0</ele><time>2026-04-19T11:35:06.791Z</time></trkpt><trkpt lat="42.27812532647365" lon="13.024559384446757"><ele>602.2</ele><time>2026-04-19T11:35:08.791Z</time></trkpt><trkpt lat="42.27805133663521" lon="13.024684735001827"><ele>605.4</ele><time>2026-04-19T11:35:10.791Z</time></trkpt><trkpt lat="42.2779968205366" lon="13.024728260283517"><ele>608.6</ele><time>2026-04-19T11:35:11.791Z</time></trkpt><trkpt lat="42.2778813756317" lon="13.024789529414818"><ele>611.8</ele><time>2026-04-19T11:35:13.791Z</time></trkpt><trkpt lat="42.27782776417365" lon="13.024836163645372"><ele>615.0</ele><time>2026-04-19T11:35:14.791Z</time></trkpt><trkpt lat="42.277779356104084" lon="13.02493110897776"><ele>603.8</ele><time>2026-04-19T11:35:15.791Z</time></trkpt><trkpt lat="42.27772384900683" lon="13.025033379331264"><ele>592.6</ele><time>2026-04-19T11:35:17.791Z</time></trkpt><trkpt lat="42.27764563693532" lon="13.025088730005864"><ele>581.4</ele><time>2026-04-19T11:35:19.791Z</time></trkpt><trkpt lat="42.277533689359146" lon="13.025122147373054"><ele>570.2</ele><time>2026-04-19T11:35:21.791Z</time></trkpt><trkpt lat="42.277449559719244" lon="13.025153549202678"><ele>559.0</ele><time>2026-04-19T11:35:22.791Z</time></trkpt><trkpt lat="42.277364105827274" lon="13.025215081082406"><ele>559.0</ele><time>2026-04-19T11:35:23.791Z</time></trkpt><trkpt lat="42.27729635358522" lon="13.025271970598915"><ele>559.0</ele><time>2026-04-19T11:35:24.791Z</time></trkpt><trkpt lat="42.277235444950094" lon="13.025325950995255"><ele>559.0</ele><time>2026-04-19T11:35:25.791Z</time></trkpt><trkpt lat="42.27717772775275" lon="13.025369002610216"><ele>559.0</ele><time>2026-04-19T11:35:26.791Z</time></trkpt><trkpt lat="42.27710589439371" lon="13.025415680845194"><ele>559.0</ele><time>2026-04-19T11:35:27.791Z</time></trkpt><trkpt lat="42.2770365381987" lon="13.025453750157517"><ele>559.0</ele><time>2026-04-19T11:35:28.791Z</time></trkpt><trkpt lat="42.27697385896589" lon="13.02548115728022"><ele>559.0</ele><time>2026-04-19T11:35:29.791Z</time></trkpt><trkpt lat="42.276911431004464" lon="13.025498220837417"><ele>562.3333333333334</ele><time>2026-04-19T11:35:30.79Z</time></trkpt><trkpt lat="42.27683745253091" lon="13.02551402917785"><ele>565.6666666666667</ele><time>2026-04-19T11:35:31.79Z</time></trkpt><trkpt lat="42.27676641002738" lon="13.025518028032998"><ele>569.0</ele><time>2026-04-19T11:35:32.79Z</time></trkpt><trkpt lat="42.27668808921016" lon="13.025519289012015"><ele>572.3333333333334</ele><time>2026-04-19T11:35:33.79Z</time></trkpt><trkpt lat="42.276605114615755" lon="13.02552154650794"><ele>575.6666666666666</ele><time>2026-04-19T11:35:34.79Z</time></trkpt><trkpt lat="42.27653648670913" lon="13.02552560407461"><ele>579.0</ele><time>2026-04-19T11:35:35.79Z</time></trkpt><trkpt lat="42.276426796104516" lon="13.025532979073157"><ele>580.3333333333334</ele><time>2026-04-19T11:35:37.79Z</time></trkpt><trkpt lat="42.27632045890396" lon="13.02554844689492"><ele>581.6666666666666</ele><time>2026-04-19T11:35:39.79Z</time></trkpt><trkpt lat="42.27625124547842" lon="13.025566980948744"><ele>583.0</ele><time>2026-04-19T11:35:41.79Z</time></trkpt><trkpt lat="42.27617658364093" lon="13.02559609016141"><ele>584.3333333333333</ele><time>2026-04-19T11:35:44.79Z</time></trkpt><trkpt lat="42.27609746810297" lon="13.025534449107283"><ele>585.6666666666666</ele><time>2026-04-19T11:35:54.79Z</time></trkpt><trkpt lat="42.27605490212855" lon="13.025660250243337"><ele>587.0</ele><time>2026-04-19T11:35:56.79Z</time></trkpt><trkpt lat="42.27595596031279" lon="13.025709611010363"><ele>587.0</ele><time>2026-04-19T11:35:58.79Z</time></trkpt><trkpt lat="42.27590730306813" lon="13.025767448146008"><ele>587.0</ele><time>2026-04-19T11:35:59.79Z</time></trkpt><trkpt lat="42.2757690807231" lon="13.025817355484227"><ele>587.0</ele><time>2026-04-19T11:36:01.791Z</time></trkpt><trkpt lat="42.27571979185795" lon="13.025886861044503"><ele>587.0</ele><time>2026-04-19T11:36:02.791Z</time></trkpt><trkpt lat="42.27566529579984" lon="13.025968709052012"><ele>587.0</ele><time>2026-04-19T11:36:03.791Z</time></trkpt><trkpt lat="42.275608844400175" lon="13.026058412899687"><ele>587.0</ele><time>2026-04-19T11:36:04.791Z</time></trkpt><trkpt lat="42.275555382587775" lon="13.026147029029062"><ele>584.8333333333333</ele><time>2026-04-19T11:36:05.791Z</time></trkpt><trkpt lat="42.275503803473654" lon="13.026234289826677"><ele>582.6666666666666</ele><time>2026-04-19T11:36:06.791Z</time></trkpt><trkpt lat="42.275455855561944" lon="13.026316110652186"><ele>580.5</ele><time>2026-04-19T11:36:07.791Z</time></trkpt><trkpt lat="42.275409671803374" lon="13.026397553962498"><ele>578.3333333333334</ele><time>2026-04-19T11:36:08.791Z</time></trkpt><trkpt lat="42.275363530223245" lon="13.0264789229027"><ele>576.1666666666667</ele><time>2026-04-19T11:36:09.791Z</time></trkpt><trkpt lat="42.27531345687435" lon="13.02656722537098"><ele>574.0</ele><time>2026-04-19T11:36:10.791Z</time></trkpt><trkpt lat="42.27526241648681" lon="13.026657233185409"><ele>572.3333333333334</ele><time>2026-04-19T11:36:11.791Z</time></trkpt><trkpt lat="42.27521593024695" lon="13.026739209918011"><ele>570.6666666666667</ele><time>2026-04-19T11:36:12.791Z</time></trkpt><trkpt lat="42.275166515851836" lon="13.026826164518974"><ele>569.0</ele><time>2026-04-19T11:36:13.791Z</time></trkpt><trkpt lat="42.275110472767324" lon="13.02693020869015"><ele>567.3333333333334</ele><time>2026-04-19T11:36:14.791Z</time></trkpt><trkpt lat="42.2750591966783" lon="13.027040162558336"><ele>565.6666666666666</ele><time>2026-04-19T11:36:15.791Z</time></trkpt><trkpt lat="42.275010830069746" lon="13.027151163769158"><ele>564.0</ele><time>2026-04-19T11:36:16.791Z</time></trkpt><trkpt lat="42.27496348422193" lon="13.027259824487752"><ele>564.0</ele><time>2026-04-19T11:36:17.791Z</time></trkpt><trkpt lat="42.2749275082611" lon="13.027329721169476"><ele>564.0</ele><time>2026-04-19T11:36:18.791Z</time></trkpt><trkpt lat="42.27488060075008" lon="13.027415981959246"><ele>564.0</ele><time>2026-04-19T11:36:20.791Z</time></trkpt><trkpt lat="42.274822212302674" lon="13.027474440068358"><ele>564.0</ele><time>2026-04-19T11:36:22.791Z</time></trkpt><trkpt lat="42.274722472161166" lon="13.027472265425862"><ele>564.0</ele><time>2026-04-19T11:36:24.791Z</time></trkpt><trkpt lat="42.274687290379" lon="13.027385210551179"><ele>564.0</ele><time>2026-04-19T11:36:25.791Z</time></trkpt><trkpt lat="42.27468375257436" lon="13.027285087382333"><ele>567.6666666666666</ele><time>2026-04-19T11:36:26.791Z</time></trkpt><trkpt lat="42.27469444387377" lon="13.027175739374707"><ele>571.3333333333334</ele><time>2026-04-19T11:36:27.791Z</time></trkpt><trkpt lat="42.27469661702301" lon="13.027051071947183"><ele>575.0</ele><time>2026-04-19T11:36:28.791Z</time></trkpt><trkpt lat="42.27471917760611" lon="13.026942663412623"><ele>578.6666666666667</ele><time>2026-04-19T11:36:29.791Z</time></trkpt><trkpt lat="42.274728061290844" lon="13.026836059174752"><ele>582.3333333333334</ele><time>2026-04-19T11:36:30.791Z</time></trkpt><trkpt lat="42.27473938414634" lon="13.026724613289128"><ele>586.0</ele><time>2026-04-19T11:36:31.791Z</time></trkpt><trkpt lat="42.274738672704075" lon="13.02662860848712"><ele>593.0</ele><time>2026-04-19T11:36:32.791Z</time></trkpt><trkpt lat="42.2747231916426" lon="13.02649554086532"><ele>600.0</ele><time>2026-04-19T11:36:34.791Z</time></trkpt><trkpt lat="42.27466236281121" lon="13.026290963288304"><ele>607.0</ele><time>2026-04-19T11:36:36.79Z</time></trkpt><trkpt lat="42.274528391994004" lon="13.026234917678565"><ele>614.0</ele><time>2026-04-19T11:36:38.79Z</time></trkpt><trkpt lat="42.27444250470253" lon="13.026294951686436"><ele>614.0</ele><time>2026-04-19T11:36:40.79Z</time></trkpt><trkpt lat="42.27439968961621" lon="13.026402633386311"><ele>614.0</ele><time>2026-04-19T11:36:41.79Z</time></trkpt><trkpt lat="42.27435996668968" lon="13.026502744192392"><ele>614.0</ele><time>2026-04-19T11:36:42.79Z</time></trkpt><trkpt lat="42.27430716436279" lon="13.026587874569135"><ele>614.0</ele><time>2026-04-19T11:36:43.79Z</time></trkpt><trkpt lat="42.27423006107965" lon="13.02669131665012"><ele>614.0</ele><time>2026-04-19T11:36:44.79Z</time></trkpt><trkpt lat="42.2741545861931" lon="13.026780756212336"><ele>611.6666666666666</ele><time>2026-04-19T11:36:45.79Z</time></trkpt><trkpt lat="42.274085644812374" lon="13.026853830394264"><ele>609.3333333333333</ele><time>2026-04-19T11:36:46.79Z</time></trkpt><trkpt lat="42.27402057427328" lon="13.026914041203618"><ele>607.0</ele><time>2026-04-19T11:36:47.79Z</time></trkpt><trkpt lat="42.2739326675254" lon="13.026983370775968"><ele>604.6666666666666</ele><time>2026-04-19T11:36:49.79Z</time></trkpt><trkpt lat="42.273868322658956" lon="13.027024751205506"><ele>602.3333333333334</ele><time>2026-04-19T11:36:53.79Z</time></trkpt><trkpt lat="42.27379600762186" lon="13.027067104840368"><ele>600.0</ele><time>2026-04-19T11:39:55.787Z</time></trkpt><trkpt lat="42.27370710669904" lon="13.027113691403098"><ele>600.0</ele><time>2026-04-19T11:39:58.787Z</time></trkpt><trkpt lat="42.27361766460229" lon="13.027155453399475"><ele>600.0</ele><time>2026-04-19T11:40:00.787Z</time></trkpt><trkpt lat="42.27355608503156" lon="13.027178985282234"><ele>600.0</ele><time>2026-04-19T11:40:01.787Z</time></trkpt><trkpt lat="42.27344680793294" lon="13.027210177264648"><ele>600.0</ele><time>2026-04-19T11:40:03.787Z</time></trkpt><trkpt lat="42.27333063756173" lon="13.027227605274033"><ele>600.0</ele><time>2026-04-19T11:40:05.787Z</time></trkpt><trkpt lat="42.27322768987826" lon="13.027231920538053"><ele>600.0</ele><time>2026-04-19T11:40:07.787Z</time></trkpt><trkpt lat="42.27312680309163" lon="13.027228112880424"><ele>600.0</ele><time>2026-04-19T11:40:09.787Z</time></trkpt><trkpt lat="42.272996696567276" lon="13.027224023929458"><ele>600.0</ele><time>2026-04-19T11:40:11.787Z</time></trkpt><trkpt lat="42.27287700791222" lon="13.027196918308434"><ele>600.0</ele><time>2026-04-19T11:40:13.787Z</time></trkpt><trkpt lat="42.27275171508104" lon="13.027177027301835"><ele>601.0</ele><time>2026-04-19T11:40:15.788Z</time></trkpt><trkpt lat="42.272635837306886" lon="13.027171900896548"><ele>602.0</ele><time>2026-04-19T11:40:17.787Z</time></trkpt><trkpt lat="42.27253950227533" lon="13.027165887149339"><ele>603.0</ele><time>2026-04-19T11:40:19.788Z</time></trkpt><trkpt lat="42.27242459919828" lon="13.02715028564369"><ele>604.0</ele><time>2026-04-19T11:40:21.787Z</time></trkpt><trkpt lat="42.27230585672317" lon="13.027171695642672"><ele>605.0</ele><time>2026-04-19T11:40:23.788Z</time></trkpt><trkpt lat="42.272194589418966" lon="13.027265941558033"><ele>605.3333333333333</ele><time>2026-04-19T11:40:25.787Z</time></trkpt><trkpt lat="42.272139442778204" lon="13.027343254901309"><ele>605.6666666666666</ele><time>2026-04-19T11:40:26.787Z</time></trkpt><trkpt lat="42.27209957193695" lon="13.027418683535101"><ele>606.0</ele><time>2026-04-19T11:40:27.787Z</time></trkpt><trkpt lat="42.272060819775746" lon="13.027512716766163"><ele>606.3333333333334</ele><time>2026-04-19T11:40:28.787Z</time></trkpt><trkpt lat="42.27203038924601" lon="13.027597575883677"><ele>606.6666666666667</ele><time>2026-04-19T11:40:29.787Z</time></trkpt><trkpt lat="42.27198404529854" lon="13.027755283592683"><ele>607.0</ele><time>2026-04-19T11:40:31.787Z</time></trkpt><trkpt lat="42.27194149487804" lon="13.027926866745668"><ele>607.0</ele><time>2026-04-19T11:40:33.787Z</time></trkpt><trkpt lat="42.271927352929886" lon="13.02804414327534"><ele>607.0</ele><time>2026-04-19T11:40:34.787Z</time></trkpt><trkpt lat="42.27192619403545" lon="13.0281420710364"><ele>607.0</ele><time>2026-04-19T11:40:35.787Z</time></trkpt><trkpt lat="42.27193409350463" lon="13.028233899668704"><ele>607.0</ele><time>2026-04-19T11:40:36.787Z</time></trkpt><trkpt lat="42.271944446172284" lon="13.028318742982073"><ele>607.0</ele><time>2026-04-19T11:40:37.787Z</time></trkpt><trkpt lat="42.271960199776395" lon="13.02845454079163"><ele>607.0</ele><time>2026-04-19T11:40:39.787Z</time></trkpt><trkpt lat="42.27196857497549" lon="13.02859225941353"><ele>608.6</ele><time>2026-04-19T11:40:41.787Z</time></trkpt><trkpt lat="42.271959677491296" lon="13.028689648244413"><ele>610.2</ele><time>2026-04-19T11:40:43.787Z</time></trkpt><trkpt lat="42.27193694995772" lon="13.028783910258761"><ele>611.8</ele><time>2026-04-19T11:40:44.787Z</time></trkpt><trkpt lat="42.271883028290524" lon="13.028928795770149"><ele>613.4</ele><time>2026-04-19T11:40:46.787Z</time></trkpt><trkpt lat="42.271857406606394" lon="13.029052324833913"><ele>615.0</ele><time>2026-04-19T11:40:47.787Z</time></trkpt><trkpt lat="42.27185697234179" lon="13.029177302603678"><ele>615.1666666666666</ele><time>2026-04-19T11:40:48.787Z</time></trkpt><trkpt lat="42.27185917199139" lon="13.029277857968802"><ele>615.3333333333334</ele><time>2026-04-19T11:40:49.787Z</time></trkpt><trkpt lat="42.27185997826895" lon="13.029373626834388"><ele>615.5</ele><time>2026-04-19T11:40:50.787Z</time></trkpt><trkpt lat="42.27185883808979" lon="13.029466152416989"><ele>615.6666666666667</ele><time>2026-04-19T11:40:51.787Z</time></trkpt><trkpt lat="42.27185939982632" lon="13.029554534537027"><ele>615.8333333333334</ele><time>2026-04-19T11:40:52.787Z</time></trkpt><trkpt lat="42.271835088130985" lon="13.029664739386964"><ele>616.0</ele><time>2026-04-19T11:40:53.787Z</time></trkpt><trkpt lat="42.2717966978295" lon="13.029772609837632"><ele>616.0</ele><time>2026-04-19T11:40:54.787Z</time></trkpt><trkpt lat="42.271746060683384" lon="13.02988000411416"><ele>616.0</ele><time>2026-04-19T11:40:55.787Z</time></trkpt><trkpt lat="42.27168441507918" lon="13.02998877869787"><ele>616.0</ele><time>2026-04-19T11:40:56.787Z</time></trkpt><trkpt lat="42.27161900980786" lon="13.030083010800594"><ele>616.0</ele><time>2026-04-19T11:40:57.787Z</time></trkpt><trkpt lat="42.27154186400834" lon="13.030173278833157"><ele>616.0</ele><time>2026-04-19T11:40:58.787Z</time></trkpt><trkpt lat="42.27146669179787" lon="13.030241230454536"><ele>617.2</ele><time>2026-04-19T11:40:59.787Z</time></trkpt><trkpt lat="42.2713863732921" lon="13.03029228123954"><ele>618.4000000000001</ele><time>2026-04-19T11:41:00.787Z</time></trkpt><trkpt lat="42.27128405625313" lon="13.030325611978643"><ele>619.6</ele><time>2026-04-19T11:41:01.787Z</time></trkpt><trkpt lat="42.27116707709725" lon="13.030330545284748"><ele>620.8000000000001</ele><time>2026-04-19T11:41:02.787Z</time></trkpt><trkpt lat="42.27104639678604" lon="13.030320589650698"><ele>622.0</ele><time>2026-04-19T11:41:03.786Z</time></trkpt><trkpt lat="42.270896162491695" lon="13.030316865815958"><ele>622.0</ele><time>2026-04-19T11:41:04.786Z</time></trkpt><trkpt lat="42.27075015186872" lon="13.030340182600744"><ele>622.0</ele><time>2026-04-19T11:41:05.786Z</time></trkpt><trkpt lat="42.270584450248194" lon="13.030371203490025"><ele>622.0</ele><time>2026-04-19T11:41:06.786Z</time></trkpt><trkpt lat="42.27043181318784" lon="13.030395804267377"><ele>624.25</ele><time>2026-04-19T11:41:07.786Z</time></trkpt><trkpt lat="42.27027981411767" lon="13.030416485501155"><ele>626.5</ele><time>2026-04-19T11:41:08.786Z</time></trkpt><trkpt lat="42.27013969203046" lon="13.030440282691208"><ele>628.75</ele><time>2026-04-19T11:41:09.786Z</time></trkpt><trkpt lat="42.27000248750018" lon="13.030486430365917"><ele>631.0</ele><time>2026-04-19T11:41:10.786Z</time></trkpt><trkpt lat="42.269877591424795" lon="13.030572602305847"><ele>629.8</ele><time>2026-04-19T11:41:11.786Z</time></trkpt><trkpt lat="42.26976223379776" lon="13.030673935741829"><ele>628.6</ele><time>2026-04-19T11:41:12.786Z</time></trkpt><trkpt lat="42.269663721716306" lon="13.030755241376507"><ele>627.4</ele><time>2026-04-19T11:41:13.786Z</time></trkpt><trkpt lat="42.26958579399647" lon="13.03080970485582"><ele>626.2</ele><time>2026-04-19T11:41:14.786Z</time></trkpt><trkpt lat="42.26949283199862" lon="13.030789459559058"><ele>625.0</ele><time>2026-04-19T11:41:16.786Z</time></trkpt><trkpt lat="42.26947417350393" lon="13.030635459187852"><ele>626.2</ele><time>2026-04-19T11:41:18.786Z</time></trkpt><trkpt lat="42.269517003188724" lon="13.03056680720902"><ele>627.4</ele><time>2026-04-19T11:41:19.786Z</time></trkpt><trkpt lat="42.269578597844315" lon="13.030487163000297"><ele>628.6</ele><time>2026-04-19T11:41:20.786Z</time></trkpt><trkpt lat="42.269645422235044" lon="13.030388558808214"><ele>629.8</ele><time>2026-04-19T11:41:21.786Z</time></trkpt><trkpt lat="42.26974300636231" lon="13.030304642122562"><ele>631.0</ele><time>2026-04-19T11:41:22.786Z</time></trkpt><trkpt lat="42.2698448405151" lon="13.030201868889193"><ele>631.0</ele><time>2026-04-19T11:41:23.786Z</time></trkpt><trkpt lat="42.26994643991463" lon="13.0301112445008"><ele>631.0</ele><time>2026-04-19T11:41:24.786Z</time></trkpt><trkpt lat="42.27005725719225" lon="13.030029970996807"><ele>631.0</ele><time>2026-04-19T11:41:25.786Z</time></trkpt><trkpt lat="42.270175359816655" lon="13.02996635470985"><ele>631.0</ele><time>2026-04-19T11:41:26.786Z</time></trkpt><trkpt lat="42.27030399202488" lon="13.02990182788968"><ele>634.25</ele><time>2026-04-19T11:41:27.786Z</time></trkpt><trkpt lat="42.27041712393091" lon="13.029833355652624"><ele>637.5</ele><time>2026-04-19T11:41:28.786Z</time></trkpt><trkpt lat="42.27052305737118" lon="13.029770298700294"><ele>640.75</ele><time>2026-04-19T11:41:29.786Z</time></trkpt><trkpt lat="42.27062954374169" lon="13.029726582100931"><ele>644.0</ele><time>2026-04-19T11:41:30.786Z</time></trkpt><trkpt lat="42.27074740135804" lon="13.029706438855314"><ele>644.0</ele><time>2026-04-19T11:41:31.786Z</time></trkpt><trkpt lat="42.27086346125463" lon="13.029690147578943"><ele>644.0</ele><time>2026-04-19T11:41:32.786Z</time></trkpt><trkpt lat="42.270980351312545" lon="13.029667800452849"><ele>644.0</ele><time>2026-04-19T11:41:33.786Z</time></trkpt><trkpt lat="42.271100173090026" lon="13.029628250232129"><ele>644.0</ele><time>2026-04-19T11:41:34.786Z</time></trkpt><trkpt lat="42.27117981384022" lon="13.029578639153796"><ele>644.0</ele><time>2026-04-19T11:41:35.786Z</time></trkpt><trkpt lat="42.27124414922627" lon="13.029472064337178"><ele>644.0</ele><time>2026-04-19T11:41:36.786Z</time></trkpt><trkpt lat="42.27125579857791" lon="13.029326075818982"><ele>644.0</ele><time>2026-04-19T11:41:37.786Z</time></trkpt><trkpt lat="42.271244168833725" lon="13.029173443815385"><ele>644.0</ele><time>2026-04-19T11:41:38.786Z</time></trkpt><trkpt lat="42.27120823941197" lon="13.029063524993973"><ele>644.0</ele><time>2026-04-19T11:41:39.786Z</time></trkpt><trkpt lat="42.27117407169609" lon="13.02898386884126"><ele>644.0</ele><time>2026-04-19T11:41:40.786Z</time></trkpt><trkpt lat="42.27112587293715" lon="13.028874651206065"><ele>643.0</ele><time>2026-04-19T11:41:41.786Z</time></trkpt><trkpt lat="42.27106939567995" lon="13.028760548580921"><ele>642.0</ele><time>2026-04-19T11:41:42.786Z</time></trkpt><trkpt lat="42.270992206857336" lon="13.028626141526374"><ele>641.0</ele><time>2026-04-19T11:41:43.785Z</time></trkpt><trkpt lat="42.27090061515462" lon="13.028517706461773"><ele>640.0</ele><time>2026-04-19T11:41:44.785Z</time></trkpt><trkpt lat="42.270797685685984" lon="13.028430924320666"><ele>640.0</ele><time>2026-04-19T11:41:45.785Z</time></trkpt><trkpt lat="42.2707000753053" lon="13.02835782289263"><ele>640.0</ele><time>2026-04-19T11:41:46.785Z</time></trkpt><trkpt lat="42.27062673536255" lon="13.028286268253757"><ele>640.0</ele><time>2026-04-19T11:41:47.785Z</time></trkpt><trkpt lat="42.27056149008252" lon="13.028179028501372"><ele>640.0</ele><time>2026-04-19T11:41:48.785Z</time></trkpt><trkpt lat="42.27051875624245" lon="13.028063637243402"><ele>640.0</ele><time>2026-04-19T11:41:49.785Z</time></trkpt><trkpt lat="42.27048732335321" lon="13.027926989065952"><ele>644.0</ele><time>2026-04-19T11:41:50.785Z</time></trkpt><trkpt lat="42.27046442062237" lon="13.027787428176204"><ele>648.0</ele><time>2026-04-19T11:41:51.785Z</time></trkpt><trkpt lat="42.27043672548944" lon="13.027632829340591"><ele>652.0</ele><time>2026-04-19T11:41:52.785Z</time></trkpt><trkpt lat="42.270413345449136" lon="13.027479010079068"><ele>656.0</ele><time>2026-04-19T11:41:53.785Z</time></trkpt><trkpt lat="42.27041285812759" lon="13.02731823498632"><ele>658.0</ele><time>2026-04-19T11:41:54.785Z</time></trkpt><trkpt lat="42.270434341758346" lon="13.027152037330717"><ele>660.0</ele><time>2026-04-19T11:41:55.785Z</time></trkpt><trkpt lat="42.27045922292732" lon="13.026983664302904"><ele>662.0</ele><time>2026-04-19T11:41:56.785Z</time></trkpt><trkpt lat="42.27048280574589" lon="13.026847992205155"><ele>664.0</ele><time>2026-04-19T11:41:57.785Z</time></trkpt><trkpt lat="42.27050912779998" lon="13.026708443647406"><ele>664.4000000000001</ele><time>2026-04-19T11:41:58.785Z</time></trkpt><trkpt lat="42.270534497393875" lon="13.026575916915395"><ele>664.8</ele><time>2026-04-19T11:41:59.785Z</time></trkpt><trkpt lat="42.27055918475083" lon="13.026446954060747"><ele>665.2</ele><time>2026-04-19T11:42:00.785Z</time></trkpt><trkpt lat="42.27058413943711" lon="13.02631197288064"><ele>665.5999999999999</ele><time>2026-04-19T11:42:01.785Z</time></trkpt><trkpt lat="42.27060970366372" lon="13.026174590859426"><ele>666.0</ele><time>2026-04-19T11:42:02.785Z</time></trkpt><trkpt lat="42.27063132567272" lon="13.026046547002792"><ele>666.0</ele><time>2026-04-19T11:42:03.785Z</time></trkpt><trkpt lat="42.27064856640738" lon="13.02594504674376"><ele>666.0</ele><time>2026-04-19T11:42:04.785Z</time></trkpt><trkpt lat="42.27066278474401" lon="13.02586125932481"><ele>666.0</ele><time>2026-04-19T11:42:05.785Z</time></trkpt><trkpt lat="42.27068171088597" lon="13.025749729168458"><ele>666.0</ele><time>2026-04-19T11:42:07.785Z</time></trkpt><trkpt lat="42.27039659004628" lon="13.025769041185432"><ele>670.4</ele><time>2026-04-19T11:42:19.786Z</time></trkpt><trkpt lat="42.27034061160607" lon="13.025828032801002"><ele>674.8</ele><time>2026-04-19T11:42:20.786Z</time></trkpt><trkpt lat="42.270279602082375" lon="13.025894684337972"><ele>679.1999999999999</ele><time>2026-04-19T11:42:21.786Z</time></trkpt><trkpt lat="42.27020752392775" lon="13.025973442333884"><ele>683.5999999999999</ele><time>2026-04-19T11:42:22.787Z</time></trkpt><trkpt lat="42.270116701027646" lon="13.026072759464752"><ele>688.0</ele><time>2026-04-19T11:42:23.787Z</time></trkpt><trkpt lat="42.270017092478135" lon="13.026180499554789"><ele>688.0</ele><time>2026-04-19T11:42:24.786Z</time></trkpt><trkpt lat="42.269905362414256" lon="13.026301003142027"><ele>688.0</ele><time>2026-04-19T11:42:25.786Z</time></trkpt><trkpt lat="42.269791409964945" lon="13.026419546182641"><ele>688.0</ele><time>2026-04-19T11:42:26.786Z</time></trkpt><trkpt lat="42.2696745454488" lon="13.026540136333947"><ele>688.0</ele><time>2026-04-19T11:42:27.786Z</time></trkpt><trkpt lat="42.26955696054771" lon="13.026661376236813"><ele>688.25</ele><time>2026-04-19T11:42:28.785Z</time></trkpt><trkpt lat="42.2694381184967" lon="13.02678380518739"><ele>688.5</ele><time>2026-04-19T11:42:29.784Z</time></trkpt><trkpt lat="42.269321002719586" lon="13.02690606913339"><ele>688.75</ele><time>2026-04-19T11:42:30.783Z</time></trkpt><trkpt lat="42.26920699089204" lon="13.027026321722671"><ele>689.0</ele><time>2026-04-19T11:42:31.782Z</time></trkpt><trkpt lat="42.26909730673204" lon="13.02714385330265"><ele>689.0</ele><time>2026-04-19T11:42:32.781Z</time></trkpt><trkpt lat="42.268985222748995" lon="13.027270405415432"><ele>689.0</ele><time>2026-04-19T11:42:33.78Z</time></trkpt><trkpt lat="42.268876054261206" lon="13.02740072255695"><ele>689.0</ele><time>2026-04-19T11:42:34.78Z</time></trkpt><trkpt lat="42.26877057726953" lon="13.027543474981162"><ele>689.0</ele><time>2026-04-19T11:42:35.779Z</time></trkpt><trkpt lat="42.26868403732072" lon="13.027674087287513"><ele>697.25</ele><time>2026-04-19T11:42:36.778Z</time></trkpt><trkpt lat="42.26860624946613" lon="13.027815214422644"><ele>705.5</ele><time>2026-04-19T11:42:37.777Z</time></trkpt><trkpt lat="42.26854340630684" lon="13.027974403535135"><ele>713.75</ele><time>2026-04-19T11:42:38.777Z</time></trkpt><trkpt lat="42.26848556730138" lon="13.02812042930447"><ele>722.0</ele><time>2026-04-19T11:42:39.776Z</time></trkpt><trkpt lat="42.268423092676635" lon="13.028245008454604"><ele>724.75</ele><time>2026-04-19T11:42:40.776Z</time></trkpt><trkpt lat="42.26835021571467" lon="13.028371749177204"><ele>727.5</ele><time>2026-04-19T11:42:41.775Z</time></trkpt><trkpt lat="42.26827230387965" lon="13.028493382742251"><ele>730.25</ele><time>2026-04-19T11:42:42.775Z</time></trkpt><trkpt lat="42.268193214182865" lon="13.028598953143415"><ele>733.0</ele><time>2026-04-19T11:42:43.774Z</time></trkpt><trkpt lat="42.268106605683634" lon="13.028693083966074"><ele>733.0</ele><time>2026-04-19T11:42:44.774Z</time></trkpt><trkpt lat="42.26798834162002" lon="13.028796258869189"><ele>733.0</ele><time>2026-04-19T11:42:45.773Z</time></trkpt><trkpt lat="42.26786861801786" lon="13.02890438037945"><ele>733.0</ele><time>2026-04-19T11:42:46.773Z</time></trkpt><trkpt lat="42.267759301921096" lon="13.029036572489094"><ele>733.0</ele><time>2026-04-19T11:42:47.773Z</time></trkpt><trkpt lat="42.267666420677344" lon="13.029193717607257"><ele>731.4</ele><time>2026-04-19T11:42:48.772Z</time></trkpt><trkpt lat="42.26759707198073" lon="13.029332388381846"><ele>729.8</ele><time>2026-04-19T11:42:49.772Z</time></trkpt><trkpt lat="42.26752555226529" lon="13.029446080773143"><ele>728.2</ele><time>2026-04-19T11:42:50.772Z</time></trkpt><trkpt lat="42.26745879685969" lon="13.02952738324679"><ele>726.6</ele><time>2026-04-19T11:42:51.771Z</time></trkpt><trkpt lat="42.26736665597945" lon="13.029587423630334"><ele>725.0</ele><time>2026-04-19T11:42:52.771Z</time></trkpt><trkpt lat="42.26726508861732" lon="13.02963000309709"><ele>725.0</ele><time>2026-04-19T11:42:53.771Z</time></trkpt><trkpt lat="42.26715685852961" lon="13.029664051154011"><ele>725.0</ele><time>2026-04-19T11:42:54.771Z</time></trkpt><trkpt lat="42.267028674628264" lon="13.02963260134405"><ele>725.0</ele><time>2026-04-19T11:42:55.77Z</time></trkpt><trkpt lat="42.266912824548676" lon="13.0295896905348"><ele>725.0</ele><time>2026-04-19T11:42:56.77Z</time></trkpt><trkpt lat="42.26680647542911" lon="13.029548978453642"><ele>725.0</ele><time>2026-04-19T11:42:57.77Z</time></trkpt><trkpt lat="42.26671417377199" lon="13.029517978585158"><ele>725.0</ele><time>2026-04-19T11:42:58.77Z</time></trkpt><trkpt lat="42.266633001687374" lon="13.029488906403216"><ele>725.0</ele><time>2026-04-19T11:42:59.77Z</time></trkpt><trkpt lat="42.26654131280123" lon="13.029516087423913"><ele>725.0</ele><time>2026-04-19T11:43:00.769Z</time></trkpt><trkpt lat="42.266440557067384" lon="13.029560065710037"><ele>725.0</ele><time>2026-04-19T11:43:01.769Z</time></trkpt><trkpt lat="42.26634438298772" lon="13.02961451956557"><ele>725.0</ele><time>2026-04-19T11:43:02.769Z</time></trkpt><trkpt lat="42.26622371218225" lon="13.029692941365537"><ele>725.0</ele><time>2026-04-19T11:43:03.769Z</time></trkpt><trkpt lat="42.266116055034736" lon="13.029795584864976"><ele>725.0</ele><time>2026-04-19T11:43:04.769Z</time></trkpt><trkpt lat="42.266025025950306" lon="13.029915705615554"><ele>725.0</ele><time>2026-04-19T11:43:05.769Z</time></trkpt><trkpt lat="42.2659393903852" lon="13.030008263887561"><ele>725.0</ele><time>2026-04-19T11:43:06.769Z</time></trkpt><trkpt lat="42.26584656360176" lon="13.030106269875963"><ele>725.0</ele><time>2026-04-19T11:43:07.768Z</time></trkpt><trkpt lat="42.26574786164446" lon="13.030210586953514"><ele>725.0</ele><time>2026-04-19T11:43:08.768Z</time></trkpt><trkpt lat="42.26562369711758" lon="13.030325085082533"><ele>725.0</ele><time>2026-04-19T11:43:09.768Z</time></trkpt><trkpt lat="42.26552267075774" lon="13.03046938953585"><ele>728.2</ele><time>2026-04-19T11:43:10.768Z</time></trkpt><trkpt lat="42.265461442182314" lon="13.030623192990685"><ele>731.4</ele><time>2026-04-19T11:43:11.768Z</time></trkpt><trkpt lat="42.265414329792534" lon="13.030783155789054"><ele>734.5999999999999</ele><time>2026-04-19T11:43:12.768Z</time></trkpt><trkpt lat="42.265355920637546" lon="13.03090618688609"><ele>737.8</ele><time>2026-04-19T11:43:13.768Z</time></trkpt><trkpt lat="42.26529854914592" lon="13.030984710584798"><ele>741.0</ele><time>2026-04-19T11:43:14.768Z</time></trkpt><trkpt lat="42.265221357623396" lon="13.031079216579348"><ele>741.0</ele><time>2026-04-19T11:43:15.768Z</time></trkpt><trkpt lat="42.26512593718633" lon="13.031179832614042"><ele>741.0</ele><time>2026-04-19T11:43:16.768Z</time></trkpt><trkpt lat="42.265031213966154" lon="13.031268675624892"><ele>741.0</ele><time>2026-04-19T11:43:17.767Z</time></trkpt><trkpt lat="42.264929153408254" lon="13.031352675879011"><ele>741.0</ele><time>2026-04-19T11:43:18.767Z</time></trkpt><trkpt lat="42.2648126657122" lon="13.031437780379019"><ele>740.1999999999999</ele><time>2026-04-19T11:43:19.767Z</time></trkpt><trkpt lat="42.26470651092324" lon="13.031503429169637"><ele>739.4</ele><time>2026-04-19T11:43:20.767Z</time></trkpt><trkpt lat="42.264607431405224" lon="13.031553105817059"><ele>738.6</ele><time>2026-04-19T11:43:21.767Z</time></trkpt><trkpt lat="42.26450127966903" lon="13.031600930441918"><ele>737.8</ele><time>2026-04-19T11:43:22.767Z</time></trkpt><trkpt lat="42.26439381747421" lon="13.031635309802901"><ele>737.0</ele><time>2026-04-19T11:43:23.767Z</time></trkpt><trkpt lat="42.2642803320032" lon="13.031665808274257"><ele>737.0</ele><time>2026-04-19T11:43:24.767Z</time></trkpt><trkpt lat="42.264152769280564" lon="13.031700640137334"><ele>737.0</ele><time>2026-04-19T11:43:25.767Z</time></trkpt><trkpt lat="42.26403264335716" lon="13.031735512515409"><ele>737.0</ele><time>2026-04-19T11:43:26.767Z</time></trkpt><trkpt lat="42.26389805931185" lon="13.031773883588922"><ele>737.0</ele><time>2026-04-19T11:43:27.767Z</time></trkpt><trkpt lat="42.26377451787093" lon="13.031807120453221"><ele>737.6</ele><time>2026-04-19T11:43:28.767Z</time></trkpt><trkpt lat="42.263652019765765" lon="13.031835800182767"><ele>738.2</ele><time>2026-04-19T11:43:29.767Z</time></trkpt><trkpt lat="42.26352837101654" lon="13.031861849742507"><ele>738.8</ele><time>2026-04-19T11:43:30.767Z</time></trkpt><trkpt lat="42.26342842297282" lon="13.031876607910863"><ele>739.4</ele><time>2026-04-19T11:43:31.767Z</time></trkpt><trkpt lat="42.26333979346758" lon="13.031891312706877"><ele>740.0</ele><time>2026-04-19T11:43:32.767Z</time></trkpt><trkpt lat="42.26325070124411" lon="13.031925057538873"><ele>740.0</ele><time>2026-04-19T11:43:33.767Z</time></trkpt><trkpt lat="42.26320646221218" lon="13.032033283832007"><ele>740.0</ele><time>2026-04-19T11:43:34.767Z</time></trkpt><trkpt lat="42.26316288575997" lon="13.032100453494376"><ele>740.0</ele><time>2026-04-19T11:43:35.766Z</time></trkpt><trkpt lat="42.26313751504286" lon="13.03218365439823"><ele>740.0</ele><time>2026-04-19T11:43:36.766Z</time></trkpt><trkpt lat="42.263130898171354" lon="13.032269692412713"><ele>740.0</ele><time>2026-04-19T11:43:37.766Z</time></trkpt><trkpt lat="42.26306229986116" lon="13.032344106759853"><ele>740.0</ele><time>2026-04-19T11:43:38.766Z</time></trkpt><trkpt lat="42.263050474109626" lon="13.03244743852151"><ele>743.0</ele><time>2026-04-19T11:43:39.766Z</time></trkpt><trkpt lat="42.26303903816286" lon="13.032558177334057"><ele>746.0</ele><time>2026-04-19T11:43:40.766Z</time></trkpt><trkpt lat="42.26302691035028" lon="13.03268527155286"><ele>749.0</ele><time>2026-04-19T11:43:41.766Z</time></trkpt><trkpt lat="42.263008580087835" lon="13.032789720098569"><ele>752.0</ele><time>2026-04-19T11:43:42.766Z</time></trkpt><trkpt lat="42.262972211099424" lon="13.032895943844691"><ele>755.0</ele><time>2026-04-19T11:43:43.766Z</time></trkpt><trkpt lat="42.262917242201844" lon="13.033018116286602"><ele>758.0</ele><time>2026-04-19T11:43:44.766Z</time></trkpt><trkpt lat="42.26285691435622" lon="13.033150048642012"><ele>753.75</ele><time>2026-04-19T11:43:45.766Z</time></trkpt><trkpt lat="42.26280028679149" lon="13.033307720090189"><ele>749.5</ele><time>2026-04-19T11:43:46.766Z</time></trkpt><trkpt lat="42.26279544926344" lon="13.033494184494137"><ele>745.25</ele><time>2026-04-19T11:43:47.766Z</time></trkpt><trkpt lat="42.262820144380335" lon="13.033659452716593"><ele>741.0</ele><time>2026-04-19T11:43:48.766Z</time></trkpt><trkpt lat="42.26286251127453" lon="13.03380342496389"><ele>741.0</ele><time>2026-04-19T11:43:49.766Z</time></trkpt><trkpt lat="42.26290810604804" lon="13.033934315450638"><ele>741.0</ele><time>2026-04-19T11:43:50.766Z</time></trkpt><trkpt lat="42.26295169632221" lon="13.03405836081234"><ele>741.0</ele><time>2026-04-19T11:43:51.766Z</time></trkpt><trkpt lat="42.26299011496884" lon="13.034179392244376"><ele>741.0</ele><time>2026-04-19T11:43:52.766Z</time></trkpt><trkpt lat="42.26301782165671" lon="13.034298496830178"><ele>741.0</ele><time>2026-04-19T11:43:53.766Z</time></trkpt><trkpt lat="42.26302174699281" lon="13.034416193225193"><ele>740.4</ele><time>2026-04-19T11:43:54.766Z</time></trkpt><trkpt lat="42.26300140258346" lon="13.034530940420177"><ele>739.8</ele><time>2026-04-19T11:43:55.766Z</time></trkpt><trkpt lat="42.26297437796461" lon="13.034655499238195"><ele>739.1999999999999</ele><time>2026-04-19T11:43:56.766Z</time></trkpt><trkpt lat="42.2629602469887" lon="13.03479358894439"><ele>738.5999999999999</ele><time>2026-04-19T11:43:57.766Z</time></trkpt><trkpt lat="42.26297234001051" lon="13.034923410921376"><ele>738.0</ele><time>2026-04-19T11:43:58.766Z</time></trkpt><trkpt lat="42.26300764452359" lon="13.035061451883657"><ele>735.0</ele><time>2026-04-19T11:43:59.766Z</time></trkpt><trkpt lat="42.2630528694204" lon="13.03518052750837"><ele>732.0</ele><time>2026-04-19T11:44:00.766Z</time></trkpt><trkpt lat="42.263089718855106" lon="13.035290038890516"><ele>729.0</ele><time>2026-04-19T11:44:01.766Z</time></trkpt><trkpt lat="42.263118008543145" lon="13.035390258610422"><ele>726.0</ele><time>2026-04-19T11:44:02.766Z</time></trkpt><trkpt lat="42.26313565002762" lon="13.035548626585253"><ele>723.0</ele><time>2026-04-19T11:44:04.765Z</time></trkpt><trkpt lat="42.26313763309118" lon="13.03568036167864"><ele>723.0</ele><time>2026-04-19T11:44:06.765Z</time></trkpt><trkpt lat="42.26307327559361" lon="13.035734629185038"><ele>723.0</ele><time>2026-04-19T11:44:08.765Z</time></trkpt><trkpt lat="42.262979781604685" lon="13.035720435258463"><ele>723.0</ele><time>2026-04-19T11:44:10.765Z</time></trkpt><trkpt lat="42.262869069373686" lon="13.035585082901237"><ele>723.0</ele><time>2026-04-19T11:44:12.765Z</time></trkpt><trkpt lat="42.262832234549876" lon="13.03547135018118"><ele>723.0</ele><time>2026-04-19T11:44:13.765Z</time></trkpt><trkpt lat="42.2627664693329" lon="13.035379520364527"><ele>723.0</ele><time>2026-04-19T11:44:14.765Z</time></trkpt><trkpt lat="42.26271695080468" lon="13.035283646968395"><ele>723.0</ele><time>2026-04-19T11:44:15.765Z</time></trkpt><trkpt lat="42.262647971189" lon="13.035198726931407"><ele>723.0</ele><time>2026-04-19T11:44:16.765Z</time></trkpt><trkpt lat="42.262582248370265" lon="13.0351117854292"><ele>723.0</ele><time>2026-04-19T11:44:17.765Z</time></trkpt><trkpt lat="42.26249053622196" lon="13.035097679620417"><ele>723.0</ele><time>2026-04-19T11:44:18.765Z</time></trkpt><trkpt lat="42.2623994667508" lon="13.035065881781039"><ele>723.0</ele><time>2026-04-19T11:44:19.765Z</time></trkpt><trkpt lat="42.26231047653127" lon="13.035051748613347"><ele>723.0</ele><time>2026-04-19T11:44:20.765Z</time></trkpt><trkpt lat="42.2622243174454" lon="13.035013423036784"><ele>723.0</ele><time>2026-04-19T11:44:21.765Z</time></trkpt><trkpt lat="42.26213851200163" lon="13.034997268083057"><ele>723.0</ele><time>2026-04-19T11:44:22.765Z</time></trkpt><trkpt lat="42.2620447815222" lon="13.034975392463933"><ele>723.0</ele><time>2026-04-19T11:44:23.765Z</time></trkpt><trkpt lat="42.26195630421142" lon="13.034943608650297"><ele>723.5999999999999</ele><time>2026-04-19T11:44:24.766Z</time></trkpt><trkpt lat="42.26187024226861" lon="13.034898698143458"><ele>724.1999999999999</ele><time>2026-04-19T11:44:25.766Z</time></trkpt><trkpt lat="42.26177345556441" lon="13.034839990707994"><ele>724.8</ele><time>2026-04-19T11:44:26.766Z</time></trkpt><trkpt lat="42.261668377799204" lon="13.034775808763857"><ele>725.4</ele><time>2026-04-19T11:44:27.766Z</time></trkpt><trkpt lat="42.26155726780081" lon="13.034711488181888"><ele>726.0</ele><time>2026-04-19T11:44:28.766Z</time></trkpt><trkpt lat="42.261444497666254" lon="13.034644561826111"><ele>722.0</ele><time>2026-04-19T11:44:29.766Z</time></trkpt><trkpt lat="42.261333885936004" lon="13.034576509525772"><ele>718.0</ele><time>2026-04-19T11:44:30.766Z</time></trkpt><trkpt lat="42.26121862534661" lon="13.03450628357941"><ele>714.0</ele><time>2026-04-19T11:44:31.766Z</time></trkpt><trkpt lat="42.26110933604886" lon="13.03443656326045"><ele>710.0</ele><time>2026-04-19T11:44:32.766Z</time></trkpt><trkpt lat="42.261005821823204" lon="13.034371031067169"><ele>710.0</ele><time>2026-04-19T11:44:33.766Z</time></trkpt><trkpt lat="42.260895343692354" lon="13.034315345225545"><ele>710.0</ele><time>2026-04-19T11:44:34.765Z</time></trkpt><trkpt lat="42.260761507153205" lon="13.03431199060099"><ele>710.0</ele><time>2026-04-19T11:44:35.765Z</time></trkpt><trkpt lat="42.26063144560104" lon="13.034330633714472"><ele>710.0</ele><time>2026-04-19T11:44:36.766Z</time></trkpt><trkpt lat="42.26050947630198" lon="13.034372667171999"><ele>712.75</ele><time>2026-04-19T11:44:37.765Z</time></trkpt><trkpt lat="42.260386740200225" lon="13.03441275427257"><ele>715.5</ele><time>2026-04-19T11:44:38.765Z</time></trkpt><trkpt lat="42.26027051840685" lon="13.034454105019664"><ele>718.25</ele><time>2026-04-19T11:44:39.765Z</time></trkpt><trkpt lat="42.260172576425845" lon="13.034510327771681"><ele>721.0</ele><time>2026-04-19T11:44:40.765Z</time></trkpt><trkpt lat="42.26009997375434" lon="13.03460142912596"><ele>721.0</ele><time>2026-04-19T11:44:41.765Z</time></trkpt><trkpt lat="42.26006685256178" lon="13.034739168672607"><ele>721.0</ele><time>2026-04-19T11:44:42.765Z</time></trkpt><trkpt lat="42.26001822110103" lon="13.034850634511999"><ele>721.0</ele><time>2026-04-19T11:44:43.765Z</time></trkpt><trkpt lat="42.25997051843473" lon="13.034947764552482"><ele>721.0</ele><time>2026-04-19T11:44:44.765Z</time></trkpt><trkpt lat="42.259932489341516" lon="13.035064038231647"><ele>721.0</ele><time>2026-04-19T11:44:45.765Z</time></trkpt><trkpt lat="42.259901179912454" lon="13.035180959738923"><ele>718.1999999999999</ele><time>2026-04-19T11:44:46.765Z</time></trkpt><trkpt lat="42.259866261159345" lon="13.035309170908894"><ele>715.4</ele><time>2026-04-19T11:44:47.765Z</time></trkpt><trkpt lat="42.259823014229724" lon="13.035426809109694"><ele>712.6</ele><time>2026-04-19T11:44:48.765Z</time></trkpt><trkpt lat="42.25976552255396" lon="13.035528091081655"><ele>709.8</ele><time>2026-04-19T11:44:49.765Z</time></trkpt><trkpt lat="42.25969925445413" lon="13.035600757234954"><ele>707.0</ele><time>2026-04-19T11:44:50.765Z</time></trkpt><trkpt lat="42.259621209381955" lon="13.035682463741207"><ele>707.6</ele><time>2026-04-19T11:44:51.765Z</time></trkpt><trkpt lat="42.25952497336988" lon="13.035745286996944"><ele>708.2</ele><time>2026-04-19T11:44:52.765Z</time></trkpt><trkpt lat="42.25943068689449" lon="13.035795037316543"><ele>708.8</ele><time>2026-04-19T11:44:53.765Z</time></trkpt><trkpt lat="42.259330468305" lon="13.035819905489616"><ele>709.4</ele><time>2026-04-19T11:44:54.765Z</time></trkpt><trkpt lat="42.25924462028407" lon="13.035855576774289"><ele>710.0</ele><time>2026-04-19T11:44:55.765Z</time></trkpt><trkpt lat="42.2591549438358" lon="13.035952869962713"><ele>710.0</ele><time>2026-04-19T11:44:56.765Z</time></trkpt><trkpt lat="42.25910329488048" lon="13.036083254825087"><ele>710.0</ele><time>2026-04-19T11:44:57.765Z</time></trkpt><trkpt lat="42.25907524618611" lon="13.036222388363658"><ele>710.0</ele><time>2026-04-19T11:44:58.765Z</time></trkpt><trkpt lat="42.25905770462103" lon="13.036312259970158"><ele>710.0</ele><time>2026-04-19T11:44:59.765Z</time></trkpt><trkpt lat="42.259002211401665" lon="13.036434873058544"><ele>710.0</ele><time>2026-04-19T11:45:01.765Z</time></trkpt><trkpt lat="42.25894521702048" lon="13.03648119967121"><ele>710.2</ele><time>2026-04-19T11:45:02.765Z</time></trkpt><trkpt lat="42.25886798291349" lon="13.036493929368493"><ele>710.4</ele><time>2026-04-19T11:45:03.765Z</time></trkpt><trkpt lat="42.258769896835034" lon="13.036442888679076"><ele>710.5999999999999</ele><time>2026-04-19T11:45:04.765Z</time></trkpt><trkpt lat="42.25867660388717" lon="13.036370637348611"><ele>710.8</ele><time>2026-04-19T11:45:05.765Z</time></trkpt><trkpt lat="42.258588387356184" lon="13.036309783023878"><ele>711.0</ele><time>2026-04-19T11:45:06.765Z</time></trkpt><trkpt lat="42.25850116581195" lon="13.036230068215113"><ele>711.0</ele><time>2026-04-19T11:45:07.765Z</time></trkpt><trkpt lat="42.258396109668205" lon="13.036196221875516"><ele>711.0</ele><time>2026-04-19T11:45:08.765Z</time></trkpt><trkpt lat="42.25829626242997" lon="13.036199900027517"><ele>711.0</ele><time>2026-04-19T11:45:09.765Z</time></trkpt><trkpt lat="42.25819382707737" lon="13.03620496241608"><ele>711.0</ele><time>2026-04-19T11:45:10.765Z</time></trkpt><trkpt lat="42.258102181496774" lon="13.036195258768613"><ele>711.0</ele><time>2026-04-19T11:45:11.764Z</time></trkpt><trkpt lat="42.25801941443562" lon="13.036162539463094"><ele>707.5999999999999</ele><time>2026-04-19T11:45:12.764Z</time></trkpt><trkpt lat="42.25795538411274" lon="13.036106124603284"><ele>704.2</ele><time>2026-04-19T11:45:13.764Z</time></trkpt><trkpt lat="42.25789413132135" lon="13.036006772808152"><ele>700.8</ele><time>2026-04-19T11:45:14.764Z</time></trkpt><trkpt lat="42.257851405987324" lon="13.035880237871865"><ele>697.4000000000001</ele><time>2026-04-19T11:45:15.764Z</time></trkpt><trkpt lat="42.257804878466125" lon="13.03576363890912"><ele>694.0</ele><time>2026-04-19T11:45:16.764Z</time></trkpt><trkpt lat="42.25773298120022" lon="13.035667140706245"><ele>698.8000000000001</ele><time>2026-04-19T11:45:17.764Z</time></trkpt><trkpt lat="42.257640931628906" lon="13.035605044793424"><ele>703.6</ele><time>2026-04-19T11:45:18.764Z</time></trkpt><trkpt lat="42.25753328231204" lon="13.035581351444545"><ele>708.4</ele><time>2026-04-19T11:45:19.764Z</time></trkpt><trkpt lat="42.257427349749165" lon="13.035580535324971"><ele>713.2</ele><time>2026-04-19T11:45:20.764Z</time></trkpt><trkpt lat="42.25731999170635" lon="13.035588983453954"><ele>718.0</ele><time>2026-04-19T11:45:21.764Z</time></trkpt><trkpt lat="42.2572113108787" lon="13.035601185648767"><ele>718.0</ele><time>2026-04-19T11:45:22.764Z</time></trkpt><trkpt lat="42.25711005197323" lon="13.035617748388145"><ele>718.0</ele><time>2026-04-19T11:45:23.764Z</time></trkpt><trkpt lat="42.257027691310654" lon="13.035631265019957"><ele>718.0</ele><time>2026-04-19T11:45:24.764Z</time></trkpt><trkpt lat="42.25694970513176" lon="13.035644063731695"><ele>718.0</ele><time>2026-04-19T11:45:25.764Z</time></trkpt><trkpt lat="42.25688190164959" lon="13.035655200579095"><ele>718.0</ele><time>2026-04-19T11:45:26.764Z</time></trkpt><trkpt lat="42.25680033419728" lon="13.035669515632177"><ele>718.0</ele><time>2026-04-19T11:45:29.764Z</time></trkpt><trkpt lat="42.25673174044373" lon="13.035681553868244"><ele>718.0</ele><time>2026-04-19T11:46:15.763Z</time></trkpt><trkpt lat="42.25666154381987" lon="13.03566656236347"><ele>718.0</ele><time>2026-04-19T11:46:17.763Z</time></trkpt><trkpt lat="42.25658991502305" lon="13.035717010459278"><ele>718.0</ele><time>2026-04-19T11:46:18.763Z</time></trkpt><trkpt lat="42.256525689194326" lon="13.03567281629647"><ele>718.0</ele><time>2026-04-19T11:46:19.763Z</time></trkpt><trkpt lat="42.25643651044349" lon="13.035638823694379"><ele>718.0</ele><time>2026-04-19T11:46:20.763Z</time></trkpt><trkpt lat="42.25633043540813" lon="13.035581103168353"><ele>718.0</ele><time>2026-04-19T11:46:21.763Z</time></trkpt><trkpt lat="42.25626104127584" lon="13.035446547779502"><ele>713.4</ele><time>2026-04-19T11:46:22.762Z</time></trkpt><trkpt lat="42.25616540635077" lon="13.03538923559894"><ele>708.8</ele><time>2026-04-19T11:46:23.762Z</time></trkpt><trkpt lat="42.25606631738801" lon="13.035337898651436"><ele>704.2</ele><time>2026-04-19T11:46:24.762Z</time></trkpt><trkpt lat="42.25596867005479" lon="13.035296833677291"><ele>699.6</ele><time>2026-04-19T11:46:25.762Z</time></trkpt><trkpt lat="42.25585728999181" lon="13.035273993133496"><ele>695.0</ele><time>2026-04-19T11:46:26.762Z</time></trkpt><trkpt lat="42.25574727319323" lon="13.035270279222441"><ele>695.0</ele><time>2026-04-19T11:46:27.762Z</time></trkpt><trkpt lat="42.2556437365638" lon="13.035285037742275"><ele>695.0</ele><time>2026-04-19T11:46:28.762Z</time></trkpt><trkpt lat="42.25554267120818" lon="13.03532044136638"><ele>695.0</ele><time>2026-04-19T11:46:29.762Z</time></trkpt><trkpt lat="42.25545578510653" lon="13.03534505261067"><ele>695.0</ele><time>2026-04-19T11:46:30.763Z</time></trkpt><trkpt lat="42.255368799519665" lon="13.035357016014755"><ele>695.0</ele><time>2026-04-19T11:46:31.764Z</time></trkpt><trkpt lat="42.25527998716793" lon="13.035351313764206"><ele>692.8333333333333</ele><time>2026-04-19T11:46:32.764Z</time></trkpt><trkpt lat="42.25520737548456" lon="13.03531932470796"><ele>690.6666666666666</ele><time>2026-04-19T11:46:33.764Z</time></trkpt><trkpt lat="42.25512750688831" lon="13.035266186789562"><ele>688.5</ele><time>2026-04-19T11:46:34.763Z</time></trkpt><trkpt lat="42.255054341085405" lon="13.03520040823291"><ele>686.3333333333334</ele><time>2026-04-19T11:46:35.763Z</time></trkpt><trkpt lat="42.25498230826062" lon="13.035117896789426"><ele>684.1666666666667</ele><time>2026-04-19T11:46:36.764Z</time></trkpt><trkpt lat="42.25492673557915" lon="13.035036239385297"><ele>682.0</ele><time>2026-04-19T11:46:37.763Z</time></trkpt><trkpt lat="42.254887953138315" lon="13.034953915813901"><ele>682.0</ele><time>2026-04-19T11:46:38.763Z</time></trkpt><trkpt lat="42.2548637524124" lon="13.034863028888179"><ele>682.0</ele><time>2026-04-19T11:46:39.764Z</time></trkpt><trkpt lat="42.254854230871395" lon="13.034762661169514"><ele>682.0</ele><time>2026-04-19T11:46:40.764Z</time></trkpt><trkpt lat="42.25486085425222" lon="13.034663084757762"><ele>682.0</ele><time>2026-04-19T11:46:41.764Z</time></trkpt><trkpt lat="42.254868955358454" lon="13.034519418178805"><ele>682.0</ele><time>2026-04-19T11:46:43.764Z</time></trkpt><trkpt lat="42.25483621537666" lon="13.034377375957298"><ele>682.0</ele><time>2026-04-19T11:46:57.763Z</time></trkpt><trkpt lat="42.25473076369763" lon="13.034262237307155"><ele>683.5</ele><time>2026-04-19T11:46:59.763Z</time></trkpt><trkpt lat="42.25467398124319" lon="13.034145988246637"><ele>685.0</ele><time>2026-04-19T11:47:00.763Z</time></trkpt><trkpt lat="42.25457577354271" lon="13.034071903544586"><ele>686.5</ele><time>2026-04-19T11:47:01.763Z</time></trkpt><trkpt lat="42.25445212937992" lon="13.034002537078576"><ele>688.0</ele><time>2026-04-19T11:47:02.763Z</time></trkpt><trkpt lat="42.254329963175074" lon="13.033939068415744"><ele>688.0</ele><time>2026-04-19T11:47:03.763Z</time></trkpt><trkpt lat="42.254211841092825" lon="13.033877867829053"><ele>688.0</ele><time>2026-04-19T11:47:04.763Z</time></trkpt><trkpt lat="42.254069703605076" lon="13.033844618110328"><ele>688.0</ele><time>2026-04-19T11:47:05.763Z</time></trkpt><trkpt lat="42.25394766378519" lon="13.033830309989273"><ele>688.0</ele><time>2026-04-19T11:47:06.763Z</time></trkpt><trkpt lat="42.25381261702251" lon="13.033817271335424"><ele>684.0</ele><time>2026-04-19T11:47:07.763Z</time></trkpt><trkpt lat="42.2537021191209" lon="13.033806497740303"><ele>680.0</ele><time>2026-04-19T11:47:08.763Z</time></trkpt><trkpt lat="42.253617979084716" lon="13.03378806162558"><ele>676.0</ele><time>2026-04-19T11:47:09.763Z</time></trkpt><trkpt lat="42.25355807072523" lon="13.033721153317344"><ele>672.0</ele><time>2026-04-19T11:47:11.763Z</time></trkpt><trkpt lat="42.25350813772225" lon="13.033598662321232"><ele>668.0</ele><time>2026-04-19T11:47:13.763Z</time></trkpt><trkpt lat="42.253469037301656" lon="13.033499786947365"><ele>668.0</ele><time>2026-04-19T11:47:14.763Z</time></trkpt><trkpt lat="42.25342960650333" lon="13.033394387211652"><ele>668.0</ele><time>2026-04-19T11:47:15.763Z</time></trkpt><trkpt lat="42.253380068248546" lon="13.033261086393267"><ele>668.0</ele><time>2026-04-19T11:47:16.763Z</time></trkpt><trkpt lat="42.253329353913585" lon="13.033125712716032"><ele>668.0</ele><time>2026-04-19T11:47:17.763Z</time></trkpt><trkpt lat="42.25326779976485" lon="13.032983278746732"><ele>668.0</ele><time>2026-04-19T11:47:18.763Z</time></trkpt><trkpt lat="42.25321248474877" lon="13.032866064945626"><ele>666.5999999999999</ele><time>2026-04-19T11:47:19.763Z</time></trkpt><trkpt lat="42.25316285912918" lon="13.032736343428422"><ele>665.1999999999999</ele><time>2026-04-19T11:47:20.763Z</time></trkpt><trkpt lat="42.253120760722645" lon="13.032607903475554"><ele>663.8</ele><time>2026-04-19T11:47:21.763Z</time></trkpt><trkpt lat="42.253084553373746" lon="13.032484304367378"><ele>662.4</ele><time>2026-04-19T11:47:22.763Z</time></trkpt><trkpt lat="42.253051107992114" lon="13.03236679250187"><ele>661.0</ele><time>2026-04-19T11:47:23.763Z</time></trkpt><trkpt lat="42.2530198841129" lon="13.032257318943458"><ele>665.8</ele><time>2026-04-19T11:47:24.763Z</time></trkpt><trkpt lat="42.25298600419486" lon="13.032155387167892"><ele>670.5999999999999</ele><time>2026-04-19T11:47:25.763Z</time></trkpt><trkpt lat="42.252908191132725" lon="13.031983914368096"><ele>675.4</ele><time>2026-04-19T11:47:27.762Z</time></trkpt><trkpt lat="42.25285635384429" lon="13.031919432670785"><ele>680.2</ele><time>2026-04-19T11:47:28.762Z</time></trkpt><trkpt lat="42.25279370833206" lon="13.031857074665764"><ele>685.0</ele><time>2026-04-19T11:47:29.762Z</time></trkpt><trkpt lat="42.25272173135469" lon="13.031800416567132"><ele>685.0</ele><time>2026-04-19T11:47:30.762Z</time></trkpt><trkpt lat="42.25263923625415" lon="13.03175008937277"><ele>685.0</ele><time>2026-04-19T11:47:31.762Z</time></trkpt><trkpt lat="42.252569391946516" lon="13.031710354653171"><ele>685.0</ele><time>2026-04-19T11:47:32.762Z</time></trkpt><trkpt lat="42.252495198481334" lon="13.031669811658888"><ele>685.0</ele><time>2026-04-19T11:47:33.762Z</time></trkpt><trkpt lat="42.25242302006252" lon="13.031630528835178"><ele>685.0</ele><time>2026-04-19T11:47:34.762Z</time></trkpt><trkpt lat="42.25234501527124" lon="13.031588075006447"><ele>685.0</ele><time>2026-04-19T11:47:35.762Z</time></trkpt><trkpt lat="42.252252311635736" lon="13.03153902965126"><ele>687.0</ele><time>2026-04-19T11:47:36.762Z</time></trkpt><trkpt lat="42.25218248777563" lon="13.031500672911891"><ele>689.0</ele><time>2026-04-19T11:47:37.762Z</time></trkpt><trkpt lat="42.25211551885787" lon="13.031441325836239"><ele>691.0</ele><time>2026-04-19T11:47:38.762Z</time></trkpt><trkpt lat="42.25203271629073" lon="13.031333520046168"><ele>693.0</ele><time>2026-04-19T11:47:39.762Z</time></trkpt><trkpt lat="42.251925335645375" lon="13.031216701155886"><ele>695.0</ele><time>2026-04-19T11:47:40.762Z</time></trkpt><trkpt lat="42.25178078858919" lon="13.03112517563953"><ele>695.0</ele><time>2026-04-19T11:47:41.762Z</time></trkpt><trkpt lat="42.251643471254596" lon="13.031069252201203"><ele>695.0</ele><time>2026-04-19T11:47:42.762Z</time></trkpt><trkpt lat="42.25151458539965" lon="13.031008427756294"><ele>695.0</ele><time>2026-04-19T11:47:43.762Z</time></trkpt><trkpt lat="42.251385082691485" lon="13.030945154955825"><ele>695.0</ele><time>2026-04-19T11:47:44.762Z</time></trkpt><trkpt lat="42.25126639491443" lon="13.030868109164171"><ele>699.25</ele><time>2026-04-19T11:47:45.762Z</time></trkpt><trkpt lat="42.25114350285417" lon="13.030768530250905"><ele>703.5</ele><time>2026-04-19T11:47:46.762Z</time></trkpt><trkpt lat="42.25102123547075" lon="13.030666906619569"><ele>707.75</ele><time>2026-04-19T11:47:47.762Z</time></trkpt><trkpt lat="42.25089297260083" lon="13.030569582966933"><ele>712.0</ele><time>2026-04-19T11:47:48.762Z</time></trkpt><trkpt lat="42.2507675975564" lon="13.030508298305628"><ele>712.0</ele><time>2026-04-19T11:47:49.762Z</time></trkpt><trkpt lat="42.25064192763755" lon="13.030476324313563"><ele>712.0</ele><time>2026-04-19T11:47:50.762Z</time></trkpt><trkpt lat="42.250527661343355" lon="13.030443387382462"><ele>712.0</ele><time>2026-04-19T11:47:51.762Z</time></trkpt><trkpt lat="42.25042270767204" lon="13.030399486171508"><ele>712.0</ele><time>2026-04-19T11:47:52.762Z</time></trkpt><trkpt lat="42.250341627719756" lon="13.030328497767531"><ele>712.8</ele><time>2026-04-19T11:47:53.762Z</time></trkpt><trkpt lat="42.250256708920475" lon="13.030233143313461"><ele>713.6</ele><time>2026-04-19T11:47:54.762Z</time></trkpt><trkpt lat="42.250192528682184" lon="13.030138686482418"><ele>714.4</ele><time>2026-04-19T11:47:55.762Z</time></trkpt><trkpt lat="42.25014621020323" lon="13.03002830406285"><ele>715.1999999999999</ele><time>2026-04-19T11:47:56.762Z</time></trkpt><trkpt lat="42.25011867380987" lon="13.029908885897921"><ele>716.0</ele><time>2026-04-19T11:47:57.762Z</time></trkpt><trkpt lat="42.25009364198503" lon="13.02977991085673"><ele>716.0</ele><time>2026-04-19T11:47:58.762Z</time></trkpt><trkpt lat="42.250048524157066" lon="13.029625320754398"><ele>716.0</ele><time>2026-04-19T11:47:59.762Z</time></trkpt><trkpt lat="42.249982850200695" lon="13.02950140144971"><ele>716.0</ele><time>2026-04-19T11:48:00.762Z</time></trkpt><trkpt lat="42.24992078805624" lon="13.029400785525704"><ele>716.0</ele><time>2026-04-19T11:48:01.762Z</time></trkpt><trkpt lat="42.249864851160325" lon="13.029310098841885"><ele>716.0</ele><time>2026-04-19T11:48:02.762Z</time></trkpt><trkpt lat="42.2497957071988" lon="13.02920404973083"><ele>713.5</ele><time>2026-04-19T11:48:03.761Z</time></trkpt><trkpt lat="42.24973249039774" lon="13.029146835069433"><ele>711.0</ele><time>2026-04-19T11:48:04.761Z</time></trkpt><trkpt lat="42.24963259449683" lon="13.029104488781176"><ele>708.5</ele><time>2026-04-19T11:48:05.761Z</time></trkpt><trkpt lat="42.24953968920419" lon="13.029100100172839"><ele>706.0</ele><time>2026-04-19T11:48:06.761Z</time></trkpt><trkpt lat="42.24945462243443" lon="13.029096241240463"><ele>703.5</ele><time>2026-04-19T11:48:07.761Z</time></trkpt><trkpt lat="42.249392064950854" lon="13.029081194771198"><ele>701.0</ele><time>2026-04-19T11:48:08.761Z</time></trkpt><trkpt lat="42.249318660185786" lon="13.029044368573377"><ele>702.5999999999999</ele><time>2026-04-19T11:48:09.761Z</time></trkpt><trkpt lat="42.249268691299406" lon="13.028987712211347"><ele>704.2</ele><time>2026-04-19T11:48:10.761Z</time></trkpt><trkpt lat="42.24918798171405" lon="13.028897478275098"><ele>705.8</ele><time>2026-04-19T11:48:11.761Z</time></trkpt><trkpt lat="42.249087308150926" lon="13.028789246130552"><ele>707.4000000000001</ele><time>2026-04-19T11:48:12.761Z</time></trkpt><trkpt lat="42.24897850292812" lon="13.028691187792592"><ele>709.0</ele><time>2026-04-19T11:48:13.761Z</time></trkpt><trkpt lat="42.24884570757716" lon="13.028599960272079"><ele>709.0</ele><time>2026-04-19T11:48:14.761Z</time></trkpt><trkpt lat="42.2487321248497" lon="13.028520113440967"><ele>709.0</ele><time>2026-04-19T11:48:15.761Z</time></trkpt><trkpt lat="42.24862745027438" lon="13.028425281082159"><ele>709.0</ele><time>2026-04-19T11:48:16.761Z</time></trkpt><trkpt lat="42.24852777594708" lon="13.028311754448083"><ele>709.0</ele><time>2026-04-19T11:48:17.761Z</time></trkpt><trkpt lat="42.24843851649844" lon="13.028183617549265"><ele>709.0</ele><time>2026-04-19T11:48:18.761Z</time></trkpt><trkpt lat="42.24833743503171" lon="13.028053516770838"><ele>709.0</ele><time>2026-04-19T11:48:19.761Z</time></trkpt><trkpt lat="42.2482449398286" lon="13.027945950548114"><ele>709.0</ele><time>2026-04-19T11:48:20.761Z</time></trkpt><trkpt lat="42.248164771516954" lon="13.02783081300464"><ele>709.0</ele><time>2026-04-19T11:48:21.761Z</time></trkpt><trkpt lat="42.24809199618506" lon="13.02769920488446"><ele>709.0</ele><time>2026-04-19T11:48:22.761Z</time></trkpt><trkpt lat="42.24801617363815" lon="13.027564487263625"><ele>709.0</ele><time>2026-04-19T11:48:23.761Z</time></trkpt><trkpt lat="42.247922716671106" lon="13.027423963545951"><ele>709.0</ele><time>2026-04-19T11:48:24.761Z</time></trkpt><trkpt lat="42.24781300160084" lon="13.02732278796645"><ele>709.0</ele><time>2026-04-19T11:48:25.761Z</time></trkpt><trkpt lat="42.24769822335706" lon="13.027248715875"><ele>712.5</ele><time>2026-04-19T11:48:26.761Z</time></trkpt><trkpt lat="42.24757570678618" lon="13.027181255454275"><ele>716.0</ele><time>2026-04-19T11:48:27.761Z</time></trkpt><trkpt lat="42.2474674685807" lon="13.02711832105449"><ele>719.5</ele><time>2026-04-19T11:48:28.761Z</time></trkpt><trkpt lat="42.24736103547401" lon="13.027036345855288"><ele>723.0</ele><time>2026-04-19T11:48:29.761Z</time></trkpt><trkpt lat="42.24727475547442" lon="13.02694516314232"><ele>723.0</ele><time>2026-04-19T11:48:30.761Z</time></trkpt><trkpt lat="42.247174784654625" lon="13.026827302062186"><ele>723.0</ele><time>2026-04-19T11:48:31.761Z</time></trkpt><trkpt lat="42.24707015829029" lon="13.026709623555377"><ele>723.0</ele><time>2026-04-19T11:48:32.761Z</time></trkpt><trkpt lat="42.246935903002594" lon="13.026620559906561"><ele>723.0</ele><time>2026-04-19T11:48:33.761Z</time></trkpt><trkpt lat="42.24679816580835" lon="13.026595379013754"><ele>726.25</ele><time>2026-04-19T11:48:34.761Z</time></trkpt><trkpt lat="42.246689730766995" lon="13.026578440129951"><ele>729.5</ele><time>2026-04-19T11:48:35.761Z</time></trkpt><trkpt lat="42.24658191152731" lon="13.026541807166032"><ele>732.75</ele><time>2026-04-19T11:48:36.762Z</time></trkpt><trkpt lat="42.246476989011676" lon="13.026480512766545"><ele>736.0</ele><time>2026-04-19T11:48:37.761Z</time></trkpt><trkpt lat="42.246375276633934" lon="13.026393441419048"><ele>736.0</ele><time>2026-04-19T11:48:38.761Z</time></trkpt><trkpt lat="42.246284066645366" lon="13.026281460475488"><ele>736.0</ele><time>2026-04-19T11:48:39.761Z</time></trkpt><trkpt lat="42.24618593084073" lon="13.026133497572777"><ele>736.0</ele><time>2026-04-19T11:48:40.762Z</time></trkpt><trkpt lat="42.246086070007465" lon="13.025997114056514"><ele>736.0</ele><time>2026-04-19T11:48:41.762Z</time></trkpt><trkpt lat="42.24595731615567" lon="13.02588937414589"><ele>740.0</ele><time>2026-04-19T11:48:42.762Z</time></trkpt><trkpt lat="42.245835889346374" lon="13.025798735369658"><ele>744.0</ele><time>2026-04-19T11:48:43.762Z</time></trkpt><trkpt lat="42.245717419070296" lon="13.025710829676513"><ele>748.0</ele><time>2026-04-19T11:48:44.762Z</time></trkpt><trkpt lat="42.245591979860876" lon="13.025614735853777"><ele>752.0</ele><time>2026-04-19T11:48:45.762Z</time></trkpt><trkpt lat="42.24547660764714" lon="13.02552635577159"><ele>752.0</ele><time>2026-04-19T11:48:46.762Z</time></trkpt><trkpt lat="42.24536179591224" lon="13.025448414583957"><ele>752.0</ele><time>2026-04-19T11:48:47.762Z</time></trkpt><trkpt lat="42.24523075823969" lon="13.025406838416702"><ele>752.0</ele><time>2026-04-19T11:48:48.761Z</time></trkpt><trkpt lat="42.24511211026714" lon="13.02540334553049"><ele>752.0</ele><time>2026-04-19T11:48:49.762Z</time></trkpt><trkpt lat="42.24500348945721" lon="13.025407200987637"><ele>752.0</ele><time>2026-04-19T11:48:50.762Z</time></trkpt><trkpt lat="42.24490195566729" lon="13.025407494167068"><ele>752.0</ele><time>2026-04-19T11:48:51.762Z</time></trkpt><trkpt lat="42.24481059848343" lon="13.02540442621021"><ele>752.0</ele><time>2026-04-19T11:48:52.762Z</time></trkpt><trkpt lat="42.244726589539134" lon="13.025401231731044"><ele>752.0</ele><time>2026-04-19T11:48:53.762Z</time></trkpt><trkpt lat="42.244656136875115" lon="13.025396571139854"><ele>752.0</ele><time>2026-04-19T11:48:54.762Z</time></trkpt><trkpt lat="42.24455309763137" lon="13.025382498774283"><ele>752.3333333333333</ele><time>2026-04-19T11:48:56.762Z</time></trkpt><trkpt lat="42.24449139855111" lon="13.025359852414903"><ele>752.6666666666666</ele><time>2026-04-19T11:48:59.762Z</time></trkpt><trkpt lat="42.24439201868957" lon="13.025296578475432"><ele>753.0</ele><time>2026-04-19T11:49:11.761Z</time></trkpt><trkpt lat="42.24433513676028" lon="13.025220291223269"><ele>753.3333333333334</ele><time>2026-04-19T11:49:13.761Z</time></trkpt><trkpt lat="42.24428662464005" lon="13.025129477062057"><ele>753.6666666666667</ele><time>2026-04-19T11:49:15.761Z</time></trkpt><trkpt lat="42.24424199837893" lon="13.025004560776772"><ele>754.0</ele><time>2026-04-19T11:49:17.761Z</time></trkpt><trkpt lat="42.244207547157" lon="13.024838998026576"><ele>754.0</ele><time>2026-04-19T11:49:19.761Z</time></trkpt><trkpt lat="42.24420075038613" lon="13.024752665729926"><ele>754.0</ele><time>2026-04-19T11:49:20.761Z</time></trkpt><trkpt lat="42.244185654488824" lon="13.024645324314452"><ele>754.0</ele><time>2026-04-19T11:49:21.761Z</time></trkpt><trkpt lat="42.244157810751105" lon="13.024529955328036"><ele>754.0</ele><time>2026-04-19T11:49:22.761Z</time></trkpt><trkpt lat="42.24412067454553" lon="13.024425538640212"><ele>754.0</ele><time>2026-04-19T11:49:23.761Z</time></trkpt><trkpt lat="42.244083542991774" lon="13.024326571661929"><ele>754.0</ele><time>2026-04-19T11:49:24.761Z</time></trkpt><trkpt lat="42.24404172365331" lon="13.02421265685519"><ele>756.5</ele><time>2026-04-19T11:49:25.761Z</time></trkpt><trkpt lat="42.2439981126869" lon="13.024089211722059"><ele>759.0</ele><time>2026-04-19T11:49:26.761Z</time></trkpt><trkpt lat="42.24395727605937" lon="13.023985757989298"><ele>761.5</ele><time>2026-04-19T11:49:27.761Z</time></trkpt><trkpt lat="42.24390850863123" lon="13.023885407473257"><ele>764.0</ele><time>2026-04-19T11:49:28.761Z</time></trkpt><trkpt lat="42.243852417175695" lon="13.023807118128422"><ele>766.4999999999999</ele><time>2026-04-19T11:49:29.761Z</time></trkpt><trkpt lat="42.243779911904795" lon="13.023744064194084"><ele>769.0</ele><time>2026-04-19T11:49:30.761Z</time></trkpt><trkpt lat="42.24370383721252" lon="13.02370354901562"><ele>769.0</ele><time>2026-04-19T11:49:32.761Z</time></trkpt><trkpt lat="42.243560693671" lon="13.023688541878412"><ele>769.0</ele><time>2026-04-19T11:49:48.76Z</time></trkpt><trkpt lat="42.243495234110334" lon="13.023720099510255"><ele>769.0</ele><time>2026-04-19T11:49:49.76Z</time></trkpt><trkpt lat="42.243402179143075" lon="13.023714089086106"><ele>769.0</ele><time>2026-04-19T11:49:50.76Z</time></trkpt><trkpt lat="42.243293251965284" lon="13.023691363485996"><ele>769.0</ele><time>2026-04-19T11:49:51.76Z</time></trkpt><trkpt lat="42.24317385003109" lon="13.023636494381057"><ele>763.75</ele><time>2026-04-19T11:49:52.76Z</time></trkpt><trkpt lat="42.24306021568387" lon="13.023573516893112"><ele>758.5</ele><time>2026-04-19T11:49:53.76Z</time></trkpt><trkpt lat="42.24294763271725" lon="13.02350548714263"><ele>753.25</ele><time>2026-04-19T11:49:54.76Z</time></trkpt><trkpt lat="42.242845369933825" lon="13.023441183443127"><ele>748.0</ele><time>2026-04-19T11:49:55.76Z</time></trkpt><trkpt lat="42.24277021219449" lon="13.023324814936641"><ele>749.2</ele><time>2026-04-19T11:49:56.76Z</time></trkpt><trkpt lat="42.24267521177388" lon="13.023284898104556"><ele>750.4</ele><time>2026-04-19T11:49:57.76Z</time></trkpt><trkpt lat="42.24256818509628" lon="13.023289283061127"><ele>751.6</ele><time>2026-04-19T11:49:58.76Z</time></trkpt><trkpt lat="42.24248016692509" lon="13.023310061166255"><ele>752.8000000000001</ele><time>2026-04-19T11:49:59.76Z</time></trkpt><trkpt lat="42.24239026021912" lon="13.023313468159996"><ele>754.0</ele><time>2026-04-19T11:50:00.76Z</time></trkpt><trkpt lat="42.24229508098883" lon="13.02330197858709"><ele>754.0</ele><time>2026-04-19T11:50:01.76Z</time></trkpt><trkpt lat="42.24221301978549" lon="13.023262843371562"><ele>754.0</ele><time>2026-04-19T11:50:02.76Z</time></trkpt><trkpt lat="42.24211809804025" lon="13.02319840111749"><ele>754.0</ele><time>2026-04-19T11:50:03.76Z</time></trkpt><trkpt lat="42.24200616330349" lon="13.023109322631857"><ele>754.0</ele><time>2026-04-19T11:50:04.76Z</time></trkpt><trkpt lat="42.24190071382097" lon="13.023009080064655"><ele>754.0</ele><time>2026-04-19T11:50:05.76Z</time></trkpt><trkpt lat="42.24177816359703" lon="13.022903738539082"><ele>754.0</ele><time>2026-04-19T11:50:06.76Z</time></trkpt><trkpt lat="42.24164804082794" lon="13.02280491203986"><ele>754.0</ele><time>2026-04-19T11:50:07.76Z</time></trkpt><trkpt lat="42.241514300581436" lon="13.022727172939371"><ele>754.0</ele><time>2026-04-19T11:50:08.76Z</time></trkpt><trkpt lat="42.24138521572303" lon="13.022646205209128"><ele>756.2</ele><time>2026-04-19T11:50:09.76Z</time></trkpt><trkpt lat="42.24128544030249" lon="13.022578775068917"><ele>758.4000000000001</ele><time>2026-04-19T11:50:10.76Z</time></trkpt><trkpt lat="42.241212112961996" lon="13.022526723044464"><ele>760.6</ele><time>2026-04-19T11:50:11.76Z</time></trkpt><trkpt lat="42.24112828457158" lon="13.022461436936288"><ele>762.8</ele><time>2026-04-19T11:50:13.759Z</time></trkpt><trkpt lat="42.24110519805914" lon="13.022619659960867"><ele>765.0</ele><time>2026-04-19T11:50:38.759Z</time></trkpt><trkpt lat="42.24115293432637" lon="13.022684956509504"><ele>758.5</ele><time>2026-04-19T11:50:39.759Z</time></trkpt><trkpt lat="42.241226352985365" lon="13.022748513045572"><ele>752.0</ele><time>2026-04-19T11:50:41.759Z</time></trkpt><trkpt lat="42.24126184400452" lon="13.022839993151148"><ele>745.5</ele><time>2026-04-19T11:50:46.759Z</time></trkpt><trkpt lat="42.241272693724746" lon="13.022946839992397"><ele>739.0</ele><time>2026-04-19T11:50:51.759Z</time></trkpt><trkpt lat="42.24124210042009" lon="13.023026593912896"><ele>732.5</ele><time>2026-04-19T11:50:53.759Z</time></trkpt><trkpt lat="42.241209966790656" lon="13.023156193682112"><ele>726.0</ele><time>2026-04-19T11:50:55.76Z</time></trkpt><trkpt lat="42.241068721440605" lon="13.023127229262332"><ele>726.0</ele><time>2026-04-19T11:50:56.76Z</time></trkpt><trkpt lat="42.24102815292539" lon="13.023197268220807"><ele>726.0</ele><time>2026-04-19T11:50:57.76Z</time></trkpt><trkpt lat="42.240998184650245" lon="13.02328067939311"><ele>726.0</ele><time>2026-04-19T11:50:59.76Z</time></trkpt><trkpt lat="42.24096986144894" lon="13.023388723781228"><ele>726.0</ele><time>2026-04-19T11:51:02.76Z</time></trkpt><trkpt lat="42.2409485486992" lon="13.023499058115569"><ele>726.0</ele><time>2026-04-19T11:51:06.76Z</time></trkpt><trkpt lat="42.240943846883866" lon="13.02359176842891"><ele>726.0</ele><time>2026-04-19T11:51:08.76Z</time></trkpt><trkpt lat="42.24095228872013" lon="13.023698752749926"><ele>723.2857142857142</ele><time>2026-04-19T11:51:10.759Z</time></trkpt><trkpt lat="42.24096782260313" lon="13.023802610962536"><ele>720.5714285714286</ele><time>2026-04-19T11:51:14.759Z</time></trkpt><trkpt lat="42.24098678113415" lon="13.023891843513422"><ele>717.8571428571429</ele><time>2026-04-19T11:51:19.759Z</time></trkpt><trkpt lat="42.241010954605365" lon="13.023970975720005"><ele>715.1428571428571</ele><time>2026-04-19T11:51:29.759Z</time></trkpt><trkpt lat="42.24097894706902" lon="13.023854970567609"><ele>712.4285714285714</ele><time>2026-04-19T11:51:35.759Z</time></trkpt><trkpt lat="42.240977887430915" lon="13.023946982059137"><ele>709.7142857142857</ele><time>2026-04-19T11:55:10.755Z</time></trkpt><trkpt lat="42.24090615859315" lon="13.023966561690282"><ele>707.0</ele><time>2026-04-19T11:55:14.755Z</time></trkpt><trkpt lat="42.24085413336933" lon="13.023907772983703"><ele>707.0</ele><time>2026-04-19T11:55:22.755Z</time></trkpt><trkpt lat="42.240791201209525" lon="13.023928353345072"><ele>707.0</ele><time>2026-04-19T11:55:45.754Z</time></trkpt></trkseg><trkseg><trkpt lat="42.24099071317421" lon="13.023767680863266"><ele>707.0</ele><time>2026-04-19T13:26:06.998Z</time></trkpt><trkpt lat="42.24092685620762" lon="13.023624901105741"><ele>707.0</ele><time>2026-04-19T13:26:41.997Z</time></trkpt><trkpt lat="42.240910849823855" lon="13.023530100599118"><ele>707.0</ele><time>2026-04-19T13:26:55.997Z</time></trkpt><trkpt lat="42.24089759583308" lon="13.02339626189757"><ele>707.0</ele><time>2026-04-19T13:26:58.997Z</time></trkpt><trkpt lat="42.240895311593576" lon="13.02327164044932"><ele>707.0</ele><time>2026-04-19T13:27:00.997Z</time></trkpt><trkpt lat="42.24097278637379" lon="13.023158134787986"><ele>710.8</ele><time>2026-04-19T13:27:03.997Z</time></trkpt><trkpt lat="42.24105773475112" lon="13.02310212359232"><ele>714.6</ele><time>2026-04-19T13:27:04.997Z</time></trkpt><trkpt lat="42.2411208412179" lon="13.02303102443117"><ele>718.4</ele><time>2026-04-19T13:27:06.997Z</time></trkpt><trkpt lat="42.24110464517731" lon="13.02291231309507"><ele>722.1999999999999</ele><time>2026-04-19T13:27:09.997Z</time></trkpt><trkpt lat="42.24105493533493" lon="13.022812840756698"><ele>726.0</ele><time>2026-04-19T13:27:11.996Z</time></trkpt><trkpt lat="42.240999781663035" lon="13.02269162091814"><ele>726.0</ele><time>2026-04-19T13:27:13.996Z</time></trkpt><trkpt lat="42.24099836639826" lon="13.022594944307738"><ele>726.0</ele><time>2026-04-19T13:27:16.996Z</time></trkpt><trkpt lat="42.240981717807266" lon="13.022505695233427"><ele>726.0</ele><time>2026-04-19T13:27:18.996Z</time></trkpt><trkpt lat="42.24089401947636" lon="13.022442013947837"><ele>726.0</ele><time>2026-04-19T13:27:20.996Z</time></trkpt><trkpt lat="42.24082321925344" lon="13.022395201843388"><ele>726.0</ele><time>2026-04-19T13:27:21.996Z</time></trkpt><trkpt lat="42.24077537438301" lon="13.022222919869787"><ele>726.4</ele><time>2026-04-19T13:27:22.996Z</time></trkpt><trkpt lat="42.24065877593542" lon="13.02218223400435"><ele>726.8</ele><time>2026-04-19T13:27:23.996Z</time></trkpt><trkpt lat="42.24054216507991" lon="13.022155540271958"><ele>727.1999999999999</ele><time>2026-04-19T13:27:24.996Z</time></trkpt><trkpt lat="42.240456827352936" lon="13.02212822145438"><ele>727.5999999999999</ele><time>2026-04-19T13:27:25.996Z</time></trkpt><trkpt lat="42.240370978282286" lon="13.022073964383463"><ele>728.0</ele><time>2026-04-19T13:27:26.996Z</time></trkpt><trkpt lat="42.240301330867155" lon="13.022011997620591"><ele>728.0</ele><time>2026-04-19T13:27:27.996Z</time></trkpt><trkpt lat="42.24023547528158" lon="13.021937275344925"><ele>728.0</ele><time>2026-04-19T13:27:28.996Z</time></trkpt><trkpt lat="42.24016788362658" lon="13.021836233130367"><ele>728.0</ele><time>2026-04-19T13:27:29.996Z</time></trkpt><trkpt lat="42.24010342541932" lon="13.021721139275007"><ele>728.0</ele><time>2026-04-19T13:27:30.996Z</time></trkpt><trkpt lat="42.24001645344639" lon="13.021574590166463"><ele>728.0</ele><time>2026-04-19T13:27:31.996Z</time></trkpt><trkpt lat="42.23991981259144" lon="13.021418518638521"><ele>725.5</ele><time>2026-04-19T13:27:32.996Z</time></trkpt><trkpt lat="42.23981933244826" lon="13.021298568198945"><ele>723.0</ele><time>2026-04-19T13:27:33.996Z</time></trkpt><trkpt lat="42.239740088759014" lon="13.021143880254149"><ele>720.5</ele><time>2026-04-19T13:27:34.996Z</time></trkpt><trkpt lat="42.239665954909206" lon="13.021033912055572"><ele>718.0</ele><time>2026-04-19T13:27:35.996Z</time></trkpt><trkpt lat="42.23961431461474" lon="13.020926645688604"><ele>718.0</ele><time>2026-04-19T13:27:36.996Z</time></trkpt><trkpt lat="42.239566366000005" lon="13.020846232237655"><ele>718.0</ele><time>2026-04-19T13:27:37.996Z</time></trkpt><trkpt lat="42.2395110798394" lon="13.020763327167694"><ele>718.0</ele><time>2026-04-19T13:27:38.996Z</time></trkpt><trkpt lat="42.23944140380485" lon="13.020701343030435"><ele>718.0</ele><time>2026-04-19T13:27:39.996Z</time></trkpt><trkpt lat="42.23937715878644" lon="13.02063486588175"><ele>718.0</ele><time>2026-04-19T13:27:40.996Z</time></trkpt><trkpt lat="42.23929846920751" lon="13.020573202379472"><ele>718.0</ele><time>2026-04-19T13:27:41.996Z</time></trkpt><trkpt lat="42.23921205133113" lon="13.020522290088916"><ele>717.5999999999999</ele><time>2026-04-19T13:27:42.996Z</time></trkpt><trkpt lat="42.23912358693586" lon="13.020460346711689"><ele>717.1999999999999</ele><time>2026-04-19T13:27:43.996Z</time></trkpt><trkpt lat="42.23903183653308" lon="13.02039659766196"><ele>716.8</ele><time>2026-04-19T13:27:44.996Z</time></trkpt><trkpt lat="42.23893570552869" lon="13.02032150771788"><ele>716.4</ele><time>2026-04-19T13:27:45.996Z</time></trkpt><trkpt lat="42.238834180298966" lon="13.020235234088538"><ele>716.0</ele><time>2026-04-19T13:27:46.996Z</time></trkpt><trkpt lat="42.238749189634625" lon="13.020128969744302"><ele>716.0</ele><time>2026-04-19T13:27:47.996Z</time></trkpt><trkpt lat="42.238647589554304" lon="13.020027184047128"><ele>716.0</ele><time>2026-04-19T13:27:48.996Z</time></trkpt><trkpt lat="42.23856542180441" lon="13.019925769182668"><ele>716.0</ele><time>2026-04-19T13:27:49.996Z</time></trkpt><trkpt lat="42.23848654293589" lon="13.019807837119174"><ele>716.0</ele><time>2026-04-19T13:27:50.996Z</time></trkpt><trkpt lat="42.23842331181328" lon="13.019690623545689"><ele>718.0</ele><time>2026-04-19T13:27:51.996Z</time></trkpt><trkpt lat="42.23837934995897" lon="13.019589809138449"><ele>720.0</ele><time>2026-04-19T13:27:52.996Z</time></trkpt><trkpt lat="42.23833986945844" lon="13.01949659214232"><ele>722.0</ele><time>2026-04-19T13:27:53.996Z</time></trkpt><trkpt lat="42.238276561964646" lon="13.019356572574088"><ele>724.0</ele><time>2026-04-19T13:27:55.996Z</time></trkpt><trkpt lat="42.238276493086694" lon="13.019269806868024"><ele>726.0</ele><time>2026-04-19T13:27:56.996Z</time></trkpt><trkpt lat="42.23828490956672" lon="13.019165094056468"><ele>728.0</ele><time>2026-04-19T13:27:57.996Z</time></trkpt><trkpt lat="42.23829109385354" lon="13.019031470679598"><ele>729.5</ele><time>2026-04-19T13:27:58.996Z</time></trkpt><trkpt lat="42.23829766154215" lon="13.018885090566503"><ele>731.0</ele><time>2026-04-19T13:27:59.996Z</time></trkpt><trkpt lat="42.23830967246717" lon="13.018720056180484"><ele>732.5</ele><time>2026-04-19T13:28:00.996Z</time></trkpt><trkpt lat="42.23831077535242" lon="13.018543870638672"><ele>734.0</ele><time>2026-04-19T13:28:01.996Z</time></trkpt><trkpt lat="42.238309124502194" lon="13.01836115555329"><ele>737.0</ele><time>2026-04-19T13:28:02.995Z</time></trkpt><trkpt lat="42.238320484939806" lon="13.01816808021054"><ele>740.0</ele><time>2026-04-19T13:28:03.995Z</time></trkpt><trkpt lat="42.23833341391635" lon="13.017969683003633"><ele>743.0</ele><time>2026-04-19T13:28:04.995Z</time></trkpt><trkpt lat="42.23833986307645" lon="13.017775799711403"><ele>746.0</ele><time>2026-04-19T13:28:05.995Z</time></trkpt><trkpt lat="42.23834775164611" lon="13.017604151113696"><ele>749.5</ele><time>2026-04-19T13:28:06.995Z</time></trkpt><trkpt lat="42.23834924632018" lon="13.017433407370511"><ele>753.0</ele><time>2026-04-19T13:28:07.995Z</time></trkpt><trkpt lat="42.238332883087445" lon="13.017267435370066"><ele>756.5</ele><time>2026-04-19T13:28:08.995Z</time></trkpt><trkpt lat="42.23830648051599" lon="13.017096695653242"><ele>760.0</ele><time>2026-04-19T13:28:09.995Z</time></trkpt><trkpt lat="42.238273477922036" lon="13.01690950749563"><ele>760.0</ele><time>2026-04-19T13:28:10.995Z</time></trkpt><trkpt lat="42.2382262469375" lon="13.016722272262342"><ele>760.0</ele><time>2026-04-19T13:28:11.995Z</time></trkpt><trkpt lat="42.23816197016648" lon="13.016545549823405"><ele>760.0</ele><time>2026-04-19T13:28:12.995Z</time></trkpt><trkpt lat="42.23810309538576" lon="13.016394289904525"><ele>760.0</ele><time>2026-04-19T13:28:13.995Z</time></trkpt><trkpt lat="42.23805885876005" lon="13.016261706562124"><ele>760.8</ele><time>2026-04-19T13:28:14.995Z</time></trkpt><trkpt lat="42.23803337582351" lon="13.016146365078225"><ele>761.6</ele><time>2026-04-19T13:28:15.995Z</time></trkpt><trkpt lat="42.23801830002991" lon="13.016018390696521"><ele>762.4000000000001</ele><time>2026-04-19T13:28:16.995Z</time></trkpt><trkpt lat="42.23803099167259" lon="13.015869250885833"><ele>763.2</ele><time>2026-04-19T13:28:17.995Z</time></trkpt><trkpt lat="42.23805995254543" lon="13.015709550982608"><ele>764.0</ele><time>2026-04-19T13:28:18.995Z</time></trkpt><trkpt lat="42.23810936146792" lon="13.01554730925363"><ele>766.75</ele><time>2026-04-19T13:28:19.995Z</time></trkpt><trkpt lat="42.23816134697424" lon="13.015368102238513"><ele>769.5</ele><time>2026-04-19T13:28:20.995Z</time></trkpt><trkpt lat="42.238198660863496" lon="13.015175284996637"><ele>772.25</ele><time>2026-04-19T13:28:21.995Z</time></trkpt><trkpt lat="42.23821899470659" lon="13.015000489515105"><ele>775.0</ele><time>2026-04-19T13:28:22.995Z</time></trkpt><trkpt lat="42.23823602795631" lon="13.014823856230066"><ele>776.0</ele><time>2026-04-19T13:28:23.995Z</time></trkpt><trkpt lat="42.238255021118746" lon="13.014642683687624"><ele>777.0</ele><time>2026-04-19T13:28:24.995Z</time></trkpt><trkpt lat="42.23828353947354" lon="13.014489948070445"><ele>778.0</ele><time>2026-04-19T13:28:25.995Z</time></trkpt><trkpt lat="42.23832181199984" lon="13.014339448312079"><ele>779.0</ele><time>2026-04-19T13:28:26.995Z</time></trkpt><trkpt lat="42.238374936897316" lon="13.014213842772325"><ele>782.5</ele><time>2026-04-19T13:28:27.995Z</time></trkpt><trkpt lat="42.23843856935558" lon="13.014106198633481"><ele>786.0</ele><time>2026-04-19T13:28:28.995Z</time></trkpt><trkpt lat="42.23850789007903" lon="13.014005524531079"><ele>789.5</ele><time>2026-04-19T13:28:29.995Z</time></trkpt><trkpt lat="42.23858855129067" lon="13.013891748162358"><ele>793.0</ele><time>2026-04-19T13:28:30.995Z</time></trkpt><trkpt lat="42.238688371163015" lon="13.013779638214892"><ele>793.0</ele><time>2026-04-19T13:28:31.995Z</time></trkpt><trkpt lat="42.23878715690081" lon="13.013644421524901"><ele>793.0</ele><time>2026-04-19T13:28:32.995Z</time></trkpt><trkpt lat="42.238883647061144" lon="13.013511466339624"><ele>793.0</ele><time>2026-04-19T13:28:33.995Z</time></trkpt><trkpt lat="42.23898247062363" lon="13.013364197820273"><ele>793.0</ele><time>2026-04-19T13:28:34.995Z</time></trkpt><trkpt lat="42.23907672039593" lon="13.01322152165227"><ele>793.5</ele><time>2026-04-19T13:28:35.995Z</time></trkpt><trkpt lat="42.239171744829925" lon="13.013084414864561"><ele>794.0</ele><time>2026-04-19T13:28:36.995Z</time></trkpt><trkpt lat="42.239256094788935" lon="13.012959015977147"><ele>794.5</ele><time>2026-04-19T13:28:37.995Z</time></trkpt><trkpt lat="42.239333522878475" lon="13.012867768874065"><ele>795.0</ele><time>2026-04-19T13:28:38.995Z</time></trkpt><trkpt lat="42.23942911447294" lon="13.01279472517768"><ele>795.0</ele><time>2026-04-19T13:28:40.995Z</time></trkpt><trkpt lat="42.23949332207035" lon="13.012877945093846"><ele>795.0</ele><time>2026-04-19T13:28:43.995Z</time></trkpt><trkpt lat="42.23950228330512" lon="13.01306377750136"><ele>795.0</ele><time>2026-04-19T13:28:45.995Z</time></trkpt><trkpt lat="42.239460735334056" lon="13.013200395353612"><ele>795.0</ele><time>2026-04-19T13:28:46.995Z</time></trkpt><trkpt lat="42.23939537760794" lon="13.013304386899595"><ele>795.0</ele><time>2026-04-19T13:28:47.995Z</time></trkpt><trkpt lat="42.239320611522224" lon="13.013415985474781"><ele>793.0</ele><time>2026-04-19T13:28:48.995Z</time></trkpt><trkpt lat="42.23923795073443" lon="13.013532922384218"><ele>791.0</ele><time>2026-04-19T13:28:49.995Z</time></trkpt><trkpt lat="42.23915433502798" lon="13.013660989307253"><ele>789.0</ele><time>2026-04-19T13:28:50.995Z</time></trkpt><trkpt lat="42.23908019121415" lon="13.013799331537266"><ele>787.0</ele><time>2026-04-19T13:28:51.995Z</time></trkpt><trkpt lat="42.23902639408219" lon="13.013933019133642"><ele>787.0</ele><time>2026-04-19T13:28:52.995Z</time></trkpt><trkpt lat="42.23899296184526" lon="13.014065318422695"><ele>787.0</ele><time>2026-04-19T13:28:53.994Z</time></trkpt><trkpt lat="42.23899211446695" lon="13.014176865163291"><ele>787.0</ele><time>2026-04-19T13:28:54.994Z</time></trkpt><trkpt lat="42.239020866233915" lon="13.014255069859283"><ele>787.0</ele><time>2026-04-19T13:28:55.994Z</time></trkpt><trkpt lat="42.23910193978792" lon="13.014369442096019"><ele>787.0</ele><time>2026-04-19T13:28:57.994Z</time></trkpt><trkpt lat="42.239185173848746" lon="13.014366047661861"><ele>787.0</ele><time>2026-04-19T13:28:58.994Z</time></trkpt><trkpt lat="42.23926885972455" lon="13.014314871184157"><ele>787.0</ele><time>2026-04-19T13:28:59.994Z</time></trkpt><trkpt lat="42.23934891965793" lon="13.014203404867558"><ele>787.0</ele><time>2026-04-19T13:29:00.994Z</time></trkpt><trkpt lat="42.23941455320182" lon="13.014084907894318"><ele>787.0</ele><time>2026-04-19T13:29:01.994Z</time></trkpt><trkpt lat="42.239476958454084" lon="13.013964205379413"><ele>787.0</ele><time>2026-04-19T13:29:02.994Z</time></trkpt><trkpt lat="42.23954498702892" lon="13.013828028717743"><ele>786.9999999999999</ele><time>2026-04-19T13:29:03.994Z</time></trkpt><trkpt lat="42.23960333155777" lon="13.013716770756204"><ele>787.0</ele><time>2026-04-19T13:29:04.994Z</time></trkpt><trkpt lat="42.239664859285305" lon="13.013622757350747"><ele>787.0</ele><time>2026-04-19T13:29:05.994Z</time></trkpt><trkpt lat="42.23975296846263" lon="13.01357515678497"><ele>787.0</ele><time>2026-04-19T13:29:07.994Z</time></trkpt><trkpt lat="42.23980443342554" lon="13.013630168237121"><ele>786.9999999999999</ele><time>2026-04-19T13:29:09.994Z</time></trkpt><trkpt lat="42.23983322278741" lon="13.013713544233632"><ele>787.0</ele><time>2026-04-19T13:29:10.994Z</time></trkpt><trkpt lat="42.23983876613377" lon="13.013845215615252"><ele>787.0</ele><time>2026-04-19T13:29:11.994Z</time></trkpt><trkpt lat="42.23979696110749" lon="13.013981275432593"><ele>787.0</ele><time>2026-04-19T13:29:12.994Z</time></trkpt><trkpt lat="42.239730037023755" lon="13.014113184572599"><ele>787.0</ele><time>2026-04-19T13:29:13.994Z</time></trkpt><trkpt lat="42.239635220679084" lon="13.014243996457356"><ele>787.0</ele><time>2026-04-19T13:29:14.994Z</time></trkpt><trkpt lat="42.23953135701391" lon="13.014351694908472"><ele>790.0</ele><time>2026-04-19T13:29:15.994Z</time></trkpt><trkpt lat="42.23944471299051" lon="13.014485265463033"><ele>793.0</ele><time>2026-04-19T13:29:16.994Z</time></trkpt><trkpt lat="42.23935040485645" lon="13.01461650182616"><ele>796.0</ele><time>2026-04-19T13:29:17.994Z</time></trkpt><trkpt lat="42.23927102066278" lon="13.01475520757823"><ele>799.0</ele><time>2026-04-19T13:29:18.994Z</time></trkpt><trkpt lat="42.23920853508672" lon="13.014906030077737"><ele>802.5</ele><time>2026-04-19T13:29:19.994Z</time></trkpt><trkpt lat="42.23916604563401" lon="13.015079212982378"><ele>806.0</ele><time>2026-04-19T13:29:20.994Z</time></trkpt><trkpt lat="42.23913700014628" lon="13.015260782463855"><ele>809.5</ele><time>2026-04-19T13:29:21.994Z</time></trkpt><trkpt lat="42.23911494669194" lon="13.015423574045354"><ele>813.0</ele><time>2026-04-19T13:29:22.994Z</time></trkpt><trkpt lat="42.23911501941948" lon="13.01558239874697"><ele>813.0</ele><time>2026-04-19T13:29:23.994Z</time></trkpt><trkpt lat="42.23912766310968" lon="13.015710226109125"><ele>813.0</ele><time>2026-04-19T13:29:24.994Z</time></trkpt><trkpt lat="42.23913705736278" lon="13.015814126556439"><ele>813.0</ele><time>2026-04-19T13:29:25.994Z</time></trkpt><trkpt lat="42.23918668104693" lon="13.015895249108942"><ele>813.0</ele><time>2026-04-19T13:29:26.994Z</time></trkpt><trkpt lat="42.23926520751196" lon="13.01592223730922"><ele>813.0</ele><time>2026-04-19T13:29:27.994Z</time></trkpt><trkpt lat="42.2393428913297" lon="13.015897010751287"><ele>813.0</ele><time>2026-04-19T13:29:28.994Z</time></trkpt><trkpt lat="42.23939889488556" lon="13.015816142321786"><ele>813.0</ele><time>2026-04-19T13:29:29.994Z</time></trkpt><trkpt lat="42.23943157504683" lon="13.015708811469972"><ele>813.0</ele><time>2026-04-19T13:29:30.994Z</time></trkpt><trkpt lat="42.239453250889866" lon="13.015585217553035"><ele>813.0</ele><time>2026-04-19T13:29:31.994Z</time></trkpt><trkpt lat="42.239477848340975" lon="13.015442304224552"><ele>813.0</ele><time>2026-04-19T13:29:32.994Z</time></trkpt><trkpt lat="42.23950830245665" lon="13.015285730012524"><ele>813.0</ele><time>2026-04-19T13:29:33.994Z</time></trkpt><trkpt lat="42.239564586434085" lon="13.015125309986788"><ele>809.5</ele><time>2026-04-19T13:29:34.994Z</time></trkpt><trkpt lat="42.23964114763006" lon="13.014965594419497"><ele>806.0</ele><time>2026-04-19T13:29:35.994Z</time></trkpt><trkpt lat="42.239735684452796" lon="13.014821825238046"><ele>802.5</ele><time>2026-04-19T13:29:36.994Z</time></trkpt><trkpt lat="42.23983835055202" lon="13.01466874697276"><ele>799.0</ele><time>2026-04-19T13:29:37.994Z</time></trkpt><trkpt lat="42.239941588527934" lon="13.014518261178313"><ele>805.3333333333333</ele><time>2026-04-19T13:29:38.994Z</time></trkpt><trkpt lat="42.24004426090753" lon="13.014370044055156"><ele>811.6666666666667</ele><time>2026-04-19T13:29:39.994Z</time></trkpt><trkpt lat="42.24015122462252" lon="13.014216678293693"><ele>818.0</ele><time>2026-04-19T13:29:40.994Z</time></trkpt><trkpt lat="42.24025664553702" lon="13.014063041553129"><ele>818.0</ele><time>2026-04-19T13:29:41.994Z</time></trkpt><trkpt lat="42.240360161683576" lon="13.013911065169918"><ele>818.0</ele><time>2026-04-19T13:29:42.994Z</time></trkpt><trkpt lat="42.240468367294355" lon="13.013759018908207"><ele>818.0</ele><time>2026-04-19T13:29:43.994Z</time></trkpt><trkpt lat="42.240581052973326" lon="13.013614350378818"><ele>823.6666666666667</ele><time>2026-04-19T13:29:44.994Z</time></trkpt><trkpt lat="42.240697733831645" lon="13.013457242316912"><ele>829.3333333333333</ele><time>2026-04-19T13:29:45.993Z</time></trkpt><trkpt lat="42.240828147929626" lon="13.013314329955417"><ele>835.0</ele><time>2026-04-19T13:29:46.993Z</time></trkpt><trkpt lat="42.24095345126023" lon="13.013172970983788"><ele>835.0</ele><time>2026-04-19T13:29:47.993Z</time></trkpt><trkpt lat="42.24107022547618" lon="13.013035380694456"><ele>835.0</ele><time>2026-04-19T13:29:48.993Z</time></trkpt><trkpt lat="42.24119178433165" lon="13.01291170450441"><ele>835.0</ele><time>2026-04-19T13:29:49.993Z</time></trkpt><trkpt lat="42.24131048028157" lon="13.012788214227978"><ele>835.0</ele><time>2026-04-19T13:29:50.993Z</time></trkpt><trkpt lat="42.2414336347808" lon="13.012683583062714"><ele>835.0</ele><time>2026-04-19T13:29:51.993Z</time></trkpt><trkpt lat="42.24156043573545" lon="13.012579889980254"><ele>835.0</ele><time>2026-04-19T13:29:52.993Z</time></trkpt><trkpt lat="42.24170296868809" lon="13.01249366545015"><ele>837.3333333333333</ele><time>2026-04-19T13:29:53.993Z</time></trkpt><trkpt lat="42.24184802030492" lon="13.012422352017264"><ele>839.6666666666667</ele><time>2026-04-19T13:29:54.993Z</time></trkpt><trkpt lat="42.241994317871146" lon="13.012349598657467"><ele>842.0</ele><time>2026-04-19T13:29:55.993Z</time></trkpt><trkpt lat="42.2421255908422" lon="13.012280402237666"><ele>842.0</ele><time>2026-04-19T13:29:56.993Z</time></trkpt><trkpt lat="42.242253776251715" lon="13.012227348188144"><ele>842.0</ele><time>2026-04-19T13:29:57.993Z</time></trkpt><trkpt lat="42.24237106488327" lon="13.012169264402663"><ele>842.0</ele><time>2026-04-19T13:29:58.993Z</time></trkpt><trkpt lat="42.24247501575332" lon="13.012094734571727"><ele>842.0</ele><time>2026-04-19T13:29:59.993Z</time></trkpt><trkpt lat="42.2425604527619" lon="13.01200203197451"><ele>845.2</ele><time>2026-04-19T13:30:00.993Z</time></trkpt><trkpt lat="42.24261297743421" lon="13.011886449310538"><ele>848.4000000000001</ele><time>2026-04-19T13:30:01.993Z</time></trkpt><trkpt lat="42.242655650913576" lon="13.01175913049498"><ele>851.5999999999999</ele><time>2026-04-19T13:30:02.993Z</time></trkpt><trkpt lat="42.24270441605554" lon="13.01163345293902"><ele>854.8</ele><time>2026-04-19T13:30:03.993Z</time></trkpt><trkpt lat="42.242732144669255" lon="13.011494133839001"><ele>858.0</ele><time>2026-04-19T13:30:04.993Z</time></trkpt><trkpt lat="42.242791393785666" lon="13.01136046016297"><ele>858.0</ele><time>2026-04-19T13:30:05.993Z</time></trkpt><trkpt lat="42.242837739530266" lon="13.011212510264437"><ele>858.0</ele><time>2026-04-19T13:30:06.993Z</time></trkpt><trkpt lat="42.2429172385629" lon="13.011057195881689"><ele>858.0</ele><time>2026-04-19T13:30:07.993Z</time></trkpt><trkpt lat="42.243014187989715" lon="13.010907230571709"><ele>858.0</ele><time>2026-04-19T13:30:08.993Z</time></trkpt><trkpt lat="42.24310438760529" lon="13.01076458953466"><ele>861.75</ele><time>2026-04-19T13:30:09.993Z</time></trkpt><trkpt lat="42.24319397532128" lon="13.010622342308798"><ele>865.5</ele><time>2026-04-19T13:30:10.993Z</time></trkpt><trkpt lat="42.243275520174265" lon="13.010486352876816"><ele>869.25</ele><time>2026-04-19T13:30:11.993Z</time></trkpt><trkpt lat="42.243368045907225" lon="13.010384770733957"><ele>873.0</ele><time>2026-04-19T13:30:12.993Z</time></trkpt><trkpt lat="42.243439186794205" lon="13.010287686207072"><ele>873.0</ele><time>2026-04-19T13:30:13.993Z</time></trkpt><trkpt lat="42.24349494154966" lon="13.010230106857346"><ele>873.0</ele><time>2026-04-19T13:30:14.993Z</time></trkpt><trkpt lat="42.243613113241125" lon="13.010247719151366"><ele>873.0</ele><time>2026-04-19T13:30:16.993Z</time></trkpt><trkpt lat="42.24366243582397" lon="13.01033455005984"><ele>873.0</ele><time>2026-04-19T13:30:18.993Z</time></trkpt><trkpt lat="42.24370232992908" lon="13.010428067163266"><ele>873.0</ele><time>2026-04-19T13:30:19.993Z</time></trkpt><trkpt lat="42.24368995793442" lon="13.010524311446847"><ele>873.0</ele><time>2026-04-19T13:30:20.993Z</time></trkpt><trkpt lat="42.2436348313473" lon="13.01063361707365"><ele>873.0</ele><time>2026-04-19T13:30:21.993Z</time></trkpt><trkpt lat="42.24360539101644" lon="13.01071715860805"><ele>873.0</ele><time>2026-04-19T13:30:22.993Z</time></trkpt><trkpt lat="42.243565192634414" lon="13.010804677316548"><ele>873.0</ele><time>2026-04-19T13:30:23.993Z</time></trkpt><trkpt lat="42.243519822334655" lon="13.010906520234824"><ele>873.0</ele><time>2026-04-19T13:30:24.993Z</time></trkpt><trkpt lat="42.243467812094906" lon="13.011025083583712"><ele>873.0</ele><time>2026-04-19T13:30:25.993Z</time></trkpt><trkpt lat="42.24341749389312" lon="13.01115892325928"><ele>873.0</ele><time>2026-04-19T13:30:26.993Z</time></trkpt><trkpt lat="42.24338076294492" lon="13.01130835314109"><ele>877.0</ele><time>2026-04-19T13:30:27.993Z</time></trkpt><trkpt lat="42.243357628156986" lon="13.011467350007601"><ele>881.0</ele><time>2026-04-19T13:30:28.993Z</time></trkpt><trkpt lat="42.24334809724193" lon="13.011635154743828"><ele>885.0</ele><time>2026-04-19T13:30:29.993Z</time></trkpt><trkpt lat="42.24334127290747" lon="13.011786512899416"><ele>889.0</ele><time>2026-04-19T13:30:30.993Z</time></trkpt><trkpt lat="42.24331269179959" lon="13.011920100054404"><ele>887.6</ele><time>2026-04-19T13:30:31.993Z</time></trkpt><trkpt lat="42.2432589204045" lon="13.012029905352646"><ele>886.2</ele><time>2026-04-19T13:30:32.993Z</time></trkpt><trkpt lat="42.24318994984483" lon="13.012151842691047"><ele>884.8000000000001</ele><time>2026-04-19T13:30:33.993Z</time></trkpt><trkpt lat="42.243127340564776" lon="13.012287685307765"><ele>883.4000000000001</ele><time>2026-04-19T13:30:34.993Z</time></trkpt><trkpt lat="42.24308903145033" lon="13.012424769447692"><ele>882.0</ele><time>2026-04-19T13:30:35.993Z</time></trkpt><trkpt lat="42.24308345627226" lon="13.012556312298951"><ele>882.0</ele><time>2026-04-19T13:30:36.993Z</time></trkpt><trkpt lat="42.243100743743426" lon="13.012678844200043"><ele>882.0</ele><time>2026-04-19T13:30:37.992Z</time></trkpt><trkpt lat="42.24314927180495" lon="13.01280342912458"><ele>882.0</ele><time>2026-04-19T13:30:38.992Z</time></trkpt><trkpt lat="42.24321277319677" lon="13.012912745266304"><ele>882.0</ele><time>2026-04-19T13:30:39.992Z</time></trkpt><trkpt lat="42.24329209751203" lon="13.0130072699891"><ele>882.0</ele><time>2026-04-19T13:30:40.992Z</time></trkpt><trkpt lat="42.24337532043" lon="13.013095717882392"><ele>887.5</ele><time>2026-04-19T13:30:41.992Z</time></trkpt><trkpt lat="42.24347469896971" lon="13.013165113359152"><ele>893.0</ele><time>2026-04-19T13:30:42.992Z</time></trkpt><trkpt lat="42.243574822806316" lon="13.013276532709597"><ele>898.5</ele><time>2026-04-19T13:30:43.992Z</time></trkpt><trkpt lat="42.24369598519115" lon="13.013386854108314"><ele>904.0</ele><time>2026-04-19T13:30:44.992Z</time></trkpt><trkpt lat="42.24381637448081" lon="13.013487207043793"><ele>904.0</ele><time>2026-04-19T13:30:45.992Z</time></trkpt><trkpt lat="42.24393213737271" lon="13.013576264510336"><ele>904.0</ele><time>2026-04-19T13:30:46.992Z</time></trkpt><trkpt lat="42.244053562877035" lon="13.013643418423444"><ele>904.0</ele><time>2026-04-19T13:30:47.992Z</time></trkpt><trkpt lat="42.24417108593694" lon="13.013671722127446"><ele>904.0</ele><time>2026-04-19T13:30:48.992Z</time></trkpt><trkpt lat="42.24427799100444" lon="13.013676809052344"><ele>907.2</ele><time>2026-04-19T13:30:49.992Z</time></trkpt><trkpt lat="42.244383040848746" lon="13.013640898984857"><ele>910.4000000000001</ele><time>2026-04-19T13:30:50.992Z</time></trkpt><trkpt lat="42.244481221384234" lon="13.01359431854974"><ele>913.6</ele><time>2026-04-19T13:30:51.992Z</time></trkpt><trkpt lat="42.2445675543726" lon="13.013522688931465"><ele>916.8</ele><time>2026-04-19T13:30:52.992Z</time></trkpt><trkpt lat="42.24464722518236" lon="13.0134139111047"><ele>920.0</ele><time>2026-04-19T13:30:53.992Z</time></trkpt><trkpt lat="42.24470672956756" lon="13.013293146834355"><ele>921.0</ele><time>2026-04-19T13:30:54.992Z</time></trkpt><trkpt lat="42.24475580912053" lon="13.013162056780601"><ele>922.0</ele><time>2026-04-19T13:30:55.992Z</time></trkpt><trkpt lat="42.24479464471376" lon="13.013026410763349"><ele>923.0</ele><time>2026-04-19T13:30:56.992Z</time></trkpt><trkpt lat="42.244823069695784" lon="13.012885422501592"><ele>924.0</ele><time>2026-04-19T13:30:57.992Z</time></trkpt><trkpt lat="42.244851952768784" lon="13.012731971901307"><ele>925.0</ele><time>2026-04-19T13:30:58.992Z</time></trkpt><trkpt lat="42.24487915192794" lon="13.012563776053732"><ele>926.5</ele><time>2026-04-19T13:30:59.992Z</time></trkpt><trkpt lat="42.24490405398638" lon="13.012390087067214"><ele>928.0</ele><time>2026-04-19T13:31:00.992Z</time></trkpt><trkpt lat="42.24492234842672" lon="13.012208801926512"><ele>929.5</ele><time>2026-04-19T13:31:01.992Z</time></trkpt><trkpt lat="42.24493941468788" lon="13.012022628706458"><ele>931.0</ele><time>2026-04-19T13:31:02.992Z</time></trkpt><trkpt lat="42.24496297636582" lon="13.011833117825358"><ele>931.5</ele><time>2026-04-19T13:31:03.992Z</time></trkpt><trkpt lat="42.24499363821357" lon="13.01164757511523"><ele>932.0</ele><time>2026-04-19T13:31:04.992Z</time></trkpt><trkpt lat="42.2450247096033" lon="13.011469380040772"><ele>932.5</ele><time>2026-04-19T13:31:05.992Z</time></trkpt><trkpt lat="42.24506521543583" lon="13.011294379950906"><ele>933.0</ele><time>2026-04-19T13:31:06.992Z</time></trkpt><trkpt lat="42.24511569512302" lon="13.01112223219912"><ele>933.0</ele><time>2026-04-19T13:31:07.992Z</time></trkpt><trkpt lat="42.245181937118076" lon="13.010961566176857"><ele>933.0</ele><time>2026-04-19T13:31:08.992Z</time></trkpt><trkpt lat="42.24526484278913" lon="13.010811960660222"><ele>933.0</ele><time>2026-04-19T13:31:09.992Z</time></trkpt><trkpt lat="42.245347743846125" lon="13.01067093459521"><ele>933.0</ele><time>2026-04-19T13:31:10.992Z</time></trkpt><trkpt lat="42.2454435917886" lon="13.010534172780485"><ele>932.0</ele><time>2026-04-19T13:31:11.992Z</time></trkpt><trkpt lat="42.24554041291368" lon="13.010409513653954"><ele>931.0</ele><time>2026-04-19T13:31:12.992Z</time></trkpt><trkpt lat="42.245643923896786" lon="13.010309090857222"><ele>930.0</ele><time>2026-04-19T13:31:13.992Z</time></trkpt><trkpt lat="42.24575054480826" lon="13.010225121591407"><ele>929.0</ele><time>2026-04-19T13:31:14.992Z</time></trkpt><trkpt lat="42.24585852175518" lon="13.01015249557307"><ele>930.25</ele><time>2026-04-19T13:31:15.992Z</time></trkpt><trkpt lat="42.2459770545179" lon="13.010100754189025"><ele>931.5</ele><time>2026-04-19T13:31:16.992Z</time></trkpt><trkpt lat="42.24610358726372" lon="13.01007345923465"><ele>932.75</ele><time>2026-04-19T13:31:17.992Z</time></trkpt><trkpt lat="42.246230987164104" lon="13.010025890550416"><ele>934.0</ele><time>2026-04-19T13:31:18.992Z</time></trkpt><trkpt lat="42.24636073004608" lon="13.009957528469531"><ele>939.75</ele><time>2026-04-19T13:31:19.992Z</time></trkpt><trkpt lat="42.24649536754545" lon="13.009907343399524"><ele>945.5</ele><time>2026-04-19T13:31:20.992Z</time></trkpt><trkpt lat="42.246634177916334" lon="13.00984600527395"><ele>951.25</ele><time>2026-04-19T13:31:21.992Z</time></trkpt><trkpt lat="42.246772011633226" lon="13.009778584773205"><ele>957.0</ele><time>2026-04-19T13:31:22.992Z</time></trkpt><trkpt lat="42.24691239046442" lon="13.009715070482548"><ele>957.0</ele><time>2026-04-19T13:31:23.992Z</time></trkpt><trkpt lat="42.247048454200765" lon="13.009662243687876"><ele>957.0</ele><time>2026-04-19T13:31:24.992Z</time></trkpt><trkpt lat="42.24717735831681" lon="13.009639110141993"><ele>957.0</ele><time>2026-04-19T13:31:25.992Z</time></trkpt><trkpt lat="42.24731108966167" lon="13.009632269441768"><ele>957.0</ele><time>2026-04-19T13:31:26.992Z</time></trkpt><trkpt lat="42.247440982434526" lon="13.009660382356145"><ele>958.75</ele><time>2026-04-19T13:31:27.992Z</time></trkpt><trkpt lat="42.24757197773209" lon="13.009694110411457"><ele>960.5</ele><time>2026-04-19T13:31:28.991Z</time></trkpt><trkpt lat="42.24770099506834" lon="13.009726251369358"><ele>962.25</ele><time>2026-04-19T13:31:29.991Z</time></trkpt><trkpt lat="42.247830881627024" lon="13.009758170502943"><ele>964.0</ele><time>2026-04-19T13:31:30.991Z</time></trkpt><trkpt lat="42.24795843024756" lon="13.00977296691352"><ele>964.0</ele><time>2026-04-19T13:31:31.991Z</time></trkpt><trkpt lat="42.248079770039" lon="13.009754471126522"><ele>964.0000000000001</ele><time>2026-04-19T13:31:32.991Z</time></trkpt><trkpt lat="42.24818375474844" lon="13.009711675040057"><ele>964.0000000000001</ele><time>2026-04-19T13:31:33.991Z</time></trkpt><trkpt lat="42.248265247524934" lon="13.009635658492504"><ele>964.0</ele><time>2026-04-19T13:31:34.991Z</time></trkpt><trkpt lat="42.24834958050722" lon="13.009550808080062"><ele>964.0</ele><time>2026-04-19T13:31:35.991Z</time></trkpt><trkpt lat="42.24844134180112" lon="13.00944300140996"><ele>964.25</ele><time>2026-04-19T13:31:36.991Z</time></trkpt><trkpt lat="42.24853245943888" lon="13.009320964051327"><ele>964.5</ele><time>2026-04-19T13:31:37.991Z</time></trkpt><trkpt lat="42.24862628821757" lon="13.00920120585238"><ele>964.75</ele><time>2026-04-19T13:31:38.991Z</time></trkpt><trkpt lat="42.248725260020954" lon="13.009083270124927"><ele>965.0</ele><time>2026-04-19T13:31:39.991Z</time></trkpt><trkpt lat="42.24883263784178" lon="13.008967652150686"><ele>965.5</ele><time>2026-04-19T13:31:40.991Z</time></trkpt><trkpt lat="42.24893482078407" lon="13.008840156635694"><ele>966.0</ele><time>2026-04-19T13:31:41.991Z</time></trkpt><trkpt lat="42.249040051876285" lon="13.008706716365788"><ele>966.5</ele><time>2026-04-19T13:31:42.991Z</time></trkpt><trkpt lat="42.24914145503173" lon="13.008575956943053"><ele>967.0</ele><time>2026-04-19T13:31:43.991Z</time></trkpt><trkpt lat="42.24924070766213" lon="13.00844474096811"><ele>967.75</ele><time>2026-04-19T13:31:44.991Z</time></trkpt><trkpt lat="42.24934029948858" lon="13.008332239029842"><ele>968.5</ele><time>2026-04-19T13:31:45.991Z</time></trkpt><trkpt lat="42.24942938267375" lon="13.00822602587998"><ele>969.25</ele><time>2026-04-19T13:31:46.991Z</time></trkpt><trkpt lat="42.24952175423015" lon="13.00812423210483"><ele>970.0</ele><time>2026-04-19T13:31:47.991Z</time></trkpt><trkpt lat="42.24961632497566" lon="13.0080289588057"><ele>970.25</ele><time>2026-04-19T13:31:48.991Z</time></trkpt><trkpt lat="42.24971984111294" lon="13.007941779917504"><ele>970.5</ele><time>2026-04-19T13:31:49.991Z</time></trkpt><trkpt lat="42.24982156781139" lon="13.007866106852626"><ele>970.75</ele><time>2026-04-19T13:31:50.991Z</time></trkpt><trkpt lat="42.24991508240701" lon="13.00778287428459"><ele>971.0</ele><time>2026-04-19T13:31:51.991Z</time></trkpt><trkpt lat="42.250008479905304" lon="13.007694706429351"><ele>971.5</ele><time>2026-04-19T13:31:52.991Z</time></trkpt><trkpt lat="42.25010703684885" lon="13.0076068139804"><ele>972.0</ele><time>2026-04-19T13:31:53.991Z</time></trkpt><trkpt lat="42.2502070305344" lon="13.0075154237719"><ele>972.5</ele><time>2026-04-19T13:31:54.991Z</time></trkpt><trkpt lat="42.25031277308584" lon="13.00742545314988"><ele>973.0</ele><time>2026-04-19T13:31:55.991Z</time></trkpt><trkpt lat="42.25041628595588" lon="13.00733014716011"><ele>973.75</ele><time>2026-04-19T13:31:56.991Z</time></trkpt><trkpt lat="42.250519852652154" lon="13.007236532311584"><ele>974.5</ele><time>2026-04-19T13:31:57.991Z</time></trkpt><trkpt lat="42.250628107664674" lon="13.00714489136311"><ele>975.25</ele><time>2026-04-19T13:31:58.991Z</time></trkpt><trkpt lat="42.25074181400661" lon="13.007058524693365"><ele>976.0</ele><time>2026-04-19T13:31:59.991Z</time></trkpt><trkpt lat="42.25085667381472" lon="13.006974867742485"><ele>976.8</ele><time>2026-04-19T13:32:00.991Z</time></trkpt><trkpt lat="42.2509629283728" lon="13.006889808853279"><ele>977.5999999999999</ele><time>2026-04-19T13:32:01.991Z</time></trkpt><trkpt lat="42.251049969777355" lon="13.006802970397786"><ele>978.4</ele><time>2026-04-19T13:32:02.991Z</time></trkpt><trkpt lat="42.25112603591389" lon="13.006708657025415"><ele>979.2</ele><time>2026-04-19T13:32:03.991Z</time></trkpt><trkpt lat="42.251186957896714" lon="13.006606330345983"><ele>980.0</ele><time>2026-04-19T13:32:04.991Z</time></trkpt><trkpt lat="42.25123738807711" lon="13.006499678549586"><ele>982.2</ele><time>2026-04-19T13:32:05.991Z</time></trkpt><trkpt lat="42.25128395603573" lon="13.006388447290306"><ele>984.4</ele><time>2026-04-19T13:32:06.991Z</time></trkpt><trkpt lat="42.25131923352149" lon="13.006272177186895"><ele>986.5999999999999</ele><time>2026-04-19T13:32:07.991Z</time></trkpt><trkpt lat="42.25136697850367" lon="13.006158132185792"><ele>988.8</ele><time>2026-04-19T13:32:08.991Z</time></trkpt><trkpt lat="42.25141444163406" lon="13.006046957043687"><ele>991.0</ele><time>2026-04-19T13:32:09.991Z</time></trkpt><trkpt lat="42.251364020644914" lon="13.00586461759359"><ele>989.8333333333333</ele><time>2026-04-19T13:32:10.991Z</time></trkpt><trkpt lat="42.25136406155942" lon="13.005737400608785"><ele>988.6666666666666</ele><time>2026-04-19T13:32:11.991Z</time></trkpt><trkpt lat="42.251363057570636" lon="13.005618538737334"><ele>987.5</ele><time>2026-04-19T13:32:12.991Z</time></trkpt><trkpt lat="42.2513507918557" lon="13.00550831230835"><ele>986.3333333333333</ele><time>2026-04-19T13:32:13.991Z</time></trkpt><trkpt lat="42.251331583387866" lon="13.00541357046138"><ele>985.1666666666666</ele><time>2026-04-19T13:32:14.991Z</time></trkpt><trkpt lat="42.25132883628438" lon="13.005323155803962"><ele>984.0</ele><time>2026-04-19T13:32:15.991Z</time></trkpt><trkpt lat="42.251334551535436" lon="13.005228383754465"><ele>984.0</ele><time>2026-04-19T13:32:16.991Z</time></trkpt><trkpt lat="42.25133628645396" lon="13.00513960984169"><ele>984.0</ele><time>2026-04-19T13:32:17.991Z</time></trkpt><trkpt lat="42.25133833803035" lon="13.004971653745715"><ele>984.0</ele><time>2026-04-19T13:32:19.991Z</time></trkpt><trkpt lat="42.25135830658981" lon="13.004874384115782"><ele>984.0</ele><time>2026-04-19T13:32:20.99Z</time></trkpt><trkpt lat="42.2513741756343" lon="13.004780384074927"><ele>984.0</ele><time>2026-04-19T13:32:21.99Z</time></trkpt><trkpt lat="42.25140665488462" lon="13.004682609024412"><ele>984.0</ele><time>2026-04-19T13:32:22.99Z</time></trkpt><trkpt lat="42.25143653373293" lon="13.004584277954269"><ele>983.6</ele><time>2026-04-19T13:32:23.99Z</time></trkpt><trkpt lat="42.2514749554079" lon="13.004481133094558"><ele>983.2</ele><time>2026-04-19T13:32:24.99Z</time></trkpt><trkpt lat="42.251522007892234" lon="13.004380345334875"><ele>982.8000000000001</ele><time>2026-04-19T13:32:25.99Z</time></trkpt><trkpt lat="42.25158994628069" lon="13.004289907787117"><ele>982.4000000000001</ele><time>2026-04-19T13:32:26.99Z</time></trkpt><trkpt lat="42.25166678635366" lon="13.004213785001332"><ele>982.0</ele><time>2026-04-19T13:32:27.99Z</time></trkpt><trkpt lat="42.25176553344235" lon="13.004158373788057"><ele>979.4000000000001</ele><time>2026-04-19T13:32:28.99Z</time></trkpt><trkpt lat="42.251871816436164" lon="13.004116399302092"><ele>976.8000000000001</ele><time>2026-04-19T13:32:29.99Z</time></trkpt><trkpt lat="42.25196098830014" lon="13.004069953708925"><ele>974.2</ele><time>2026-04-19T13:32:30.99Z</time></trkpt><trkpt lat="42.25204293256186" lon="13.004028070960022"><ele>971.6</ele><time>2026-04-19T13:32:31.99Z</time></trkpt><trkpt lat="42.25212180222897" lon="13.003990172368107"><ele>969.0</ele><time>2026-04-19T13:32:32.99Z</time></trkpt><trkpt lat="42.25220259476767" lon="13.003962484561761"><ele>969.0</ele><time>2026-04-19T13:32:33.99Z</time></trkpt><trkpt lat="42.252270627636086" lon="13.003916356578554"><ele>969.0</ele><time>2026-04-19T13:32:34.99Z</time></trkpt><trkpt lat="42.25233278294552" lon="13.003851942069891"><ele>969.0</ele><time>2026-04-19T13:32:35.99Z</time></trkpt><trkpt lat="42.252400511059065" lon="13.003772586670848"><ele>969.0</ele><time>2026-04-19T13:32:36.99Z</time></trkpt><trkpt lat="42.252462387419754" lon="13.003663325040337"><ele>969.0</ele><time>2026-04-19T13:32:37.99Z</time></trkpt><trkpt lat="42.252533583904054" lon="13.003569083761613"><ele>969.0</ele><time>2026-04-19T13:32:38.99Z</time></trkpt><trkpt lat="42.25261940695707" lon="13.003480660669632"><ele>972.0</ele><time>2026-04-19T13:32:39.99Z</time></trkpt><trkpt lat="42.252712406411895" lon="13.003411578433468"><ele>975.0</ele><time>2026-04-19T13:32:40.99Z</time></trkpt><trkpt lat="42.25280193389101" lon="13.003330657331983"><ele>978.0</ele><time>2026-04-19T13:32:41.99Z</time></trkpt><trkpt lat="42.252915407169226" lon="13.003272191603484"><ele>981.0</ele><time>2026-04-19T13:32:42.99Z</time></trkpt><trkpt lat="42.253041993163954" lon="13.00323286720695"><ele>984.25</ele><time>2026-04-19T13:32:43.99Z</time></trkpt><trkpt lat="42.25316001316409" lon="13.003191600993409"><ele>987.5</ele><time>2026-04-19T13:32:44.99Z</time></trkpt><trkpt lat="42.253274550036586" lon="13.003156309285155"><ele>990.75</ele><time>2026-04-19T13:32:45.99Z</time></trkpt><trkpt lat="42.25339007520154" lon="13.003125489322015"><ele>994.0</ele><time>2026-04-19T13:32:46.99Z</time></trkpt><trkpt lat="42.253507091203396" lon="13.003086251182449"><ele>994.0</ele><time>2026-04-19T13:32:47.99Z</time></trkpt><trkpt lat="42.2536222808943" lon="13.003045274814422"><ele>994.0</ele><time>2026-04-19T13:32:48.99Z</time></trkpt><trkpt lat="42.25373323185185" lon="13.003002347838471"><ele>994.0</ele><time>2026-04-19T13:32:49.99Z</time></trkpt><trkpt lat="42.253843953941335" lon="13.002957717932011"><ele>994.0</ele><time>2026-04-19T13:32:50.99Z</time></trkpt><trkpt lat="42.25395718444763" lon="13.002915986092042"><ele>997.0</ele><time>2026-04-19T13:32:51.99Z</time></trkpt><trkpt lat="42.25407252874556" lon="13.002870224833067"><ele>1000.0</ele><time>2026-04-19T13:32:52.99Z</time></trkpt><trkpt lat="42.25417994548503" lon="13.002819360478465"><ele>1003.0</ele><time>2026-04-19T13:32:53.99Z</time></trkpt><trkpt lat="42.2542876983293" lon="13.002778967216882"><ele>1006.0</ele><time>2026-04-19T13:32:54.99Z</time></trkpt><trkpt lat="42.25440686161708" lon="13.002740119889532"><ele>1006.0</ele><time>2026-04-19T13:32:55.99Z</time></trkpt><trkpt lat="42.25453253515605" lon="13.002690899944225"><ele>1006.0</ele><time>2026-04-19T13:32:56.99Z</time></trkpt><trkpt lat="42.25466875528329" lon="13.002630865839295"><ele>1006.0</ele><time>2026-04-19T13:32:57.99Z</time></trkpt><trkpt lat="42.25480177197327" lon="13.00254994438107"><ele>1006.0</ele><time>2026-04-19T13:32:58.99Z</time></trkpt><trkpt lat="42.254941316013614" lon="13.002459891553913"><ele>1008.6666666666666</ele><time>2026-04-19T13:32:59.99Z</time></trkpt><trkpt lat="42.25508271558676" lon="13.00236755935648"><ele>1011.3333333333333</ele><time>2026-04-19T13:33:00.99Z</time></trkpt><trkpt lat="42.25522251039072" lon="13.002271448441666"><ele>1014.0</ele><time>2026-04-19T13:33:01.99Z</time></trkpt><trkpt lat="42.2553499081271" lon="13.002195278845592"><ele>1014.0</ele><time>2026-04-19T13:33:02.99Z</time></trkpt><trkpt lat="42.25542974512714" lon="13.002144996461745"><ele>1014.0</ele><time>2026-04-19T13:33:03.99Z</time></trkpt><trkpt lat="42.255503309908235" lon="13.00207294429907"><ele>1014.0</ele><time>2026-04-19T13:33:05.99Z</time></trkpt><trkpt lat="42.25544635226464" lon="13.002004321952406"><ele>1014.0</ele><time>2026-04-19T13:33:09.99Z</time></trkpt><trkpt lat="42.25533866154592" lon="13.002062470752772"><ele>1014.0</ele><time>2026-04-19T13:33:11.99Z</time></trkpt><trkpt lat="42.25527049646617" lon="13.00210614732327"><ele>1014.0</ele><time>2026-04-19T13:33:12.989Z</time></trkpt><trkpt lat="42.255196884067395" lon="13.002148049053012"><ele>1014.0</ele><time>2026-04-19T13:33:13.989Z</time></trkpt><trkpt lat="42.255126893080224" lon="13.002197819231554"><ele>1014.0</ele><time>2026-04-19T13:33:14.989Z</time></trkpt><trkpt lat="42.25504887372375" lon="13.002242640599858"><ele>1014.0</ele><time>2026-04-19T13:33:15.989Z</time></trkpt><trkpt lat="42.2549432731066" lon="13.002263423870183"><ele>1014.0</ele><time>2026-04-19T13:33:16.989Z</time></trkpt><trkpt lat="42.25486044964884" lon="13.002265687972924"><ele>1014.0</ele><time>2026-04-19T13:33:17.989Z</time></trkpt><trkpt lat="42.25477406463693" lon="13.002254942297734"><ele>1014.0</ele><time>2026-04-19T13:33:18.989Z</time></trkpt><trkpt lat="42.25468721633648" lon="13.002235316780185"><ele>1012.8333333333334</ele><time>2026-04-19T13:33:19.989Z</time></trkpt><trkpt lat="42.25459805962553" lon="13.00220343165467"><ele>1011.6666666666667</ele><time>2026-04-19T13:33:20.989Z</time></trkpt><trkpt lat="42.25451284766757" lon="13.002178371541406"><ele>1010.5</ele><time>2026-04-19T13:33:21.989Z</time></trkpt><trkpt lat="42.254432112487905" lon="13.002162457180818"><ele>1009.3333333333334</ele><time>2026-04-19T13:33:22.989Z</time></trkpt><trkpt lat="42.25434967658845" lon="13.002137902416376"><ele>1008.1666666666667</ele><time>2026-04-19T13:33:23.989Z</time></trkpt><trkpt lat="42.25426831294921" lon="13.00211471837868"><ele>1007.0</ele><time>2026-04-19T13:33:24.989Z</time></trkpt><trkpt lat="42.25418667781834" lon="13.002098755337222"><ele>1007.0000000000001</ele><time>2026-04-19T13:33:25.989Z</time></trkpt><trkpt lat="42.25411387194888" lon="13.002092565732992"><ele>1007.0</ele><time>2026-04-19T13:33:26.989Z</time></trkpt><trkpt lat="42.254050640063284" lon="13.002088280042623"><ele>1007.0</ele><time>2026-04-19T13:33:27.989Z</time></trkpt><trkpt lat="42.25393901456378" lon="13.00210110837835"><ele>1007.0</ele><time>2026-04-19T13:33:29.989Z</time></trkpt><trkpt lat="42.25386752922122" lon="13.002119939494825"><ele>1007.0000000000001</ele><time>2026-04-19T13:33:31.989Z</time></trkpt><trkpt lat="42.25379966920738" lon="13.002145879040205"><ele>1007.0</ele><time>2026-04-19T13:33:33.989Z</time></trkpt><trkpt lat="42.2537149091449" lon="13.002151164377642"><ele>1004.2</ele><time>2026-04-19T13:33:35.989Z</time></trkpt><trkpt lat="42.253634199381665" lon="13.002130476603943"><ele>1001.4000000000001</ele><time>2026-04-19T13:33:37.989Z</time></trkpt><trkpt lat="42.253545980958876" lon="13.002128437648622"><ele>998.5999999999999</ele><time>2026-04-19T13:33:39.989Z</time></trkpt><trkpt lat="42.25343707803366" lon="13.002111483233065"><ele>995.8</ele><time>2026-04-19T13:33:41.989Z</time></trkpt><trkpt lat="42.25333103427568" lon="13.002097842616495"><ele>993.0</ele><time>2026-04-19T13:33:43.989Z</time></trkpt><trkpt lat="42.25324048380687" lon="13.002084100407817"><ele>993.0</ele><time>2026-04-19T13:33:45.989Z</time></trkpt><trkpt lat="42.25315332547622" lon="13.00207873967535"><ele>993.0</ele><time>2026-04-19T13:33:47.989Z</time></trkpt><trkpt lat="42.25306817928032" lon="13.002049134944762"><ele>993.0</ele><time>2026-04-19T13:33:49.989Z</time></trkpt><trkpt lat="42.253000687876295" lon="13.0019793198435"><ele>993.0</ele><time>2026-04-19T13:33:51.989Z</time></trkpt><trkpt lat="42.252952870089" lon="13.00188557690756"><ele>993.0</ele><time>2026-04-19T13:33:53.989Z</time></trkpt><trkpt lat="42.25292316920758" lon="13.001768945662574"><ele>993.0</ele><time>2026-04-19T13:33:55.989Z</time></trkpt><trkpt lat="42.252889890663724" lon="13.001646531828927"><ele>992.2</ele><time>2026-04-19T13:33:57.989Z</time></trkpt><trkpt lat="42.25288594961047" lon="13.001488729157856"><ele>991.4</ele><time>2026-04-19T13:33:59.989Z</time></trkpt><trkpt lat="42.25287701244242" lon="13.001338537151016"><ele>990.6000000000001</ele><time>2026-04-19T13:34:01.989Z</time></trkpt><trkpt lat="42.252864512584665" lon="13.001203588106776"><ele>989.8000000000001</ele><time>2026-04-19T13:34:03.989Z</time></trkpt><trkpt lat="42.252840651605744" lon="13.001064960610755"><ele>989.0</ele><time>2026-04-19T13:34:05.988Z</time></trkpt><trkpt lat="42.25279128948729" lon="13.000970736316784"><ele>989.0</ele><time>2026-04-19T13:34:07.988Z</time></trkpt><trkpt lat="42.252716200836794" lon="13.000891881180284"><ele>989.0000000000001</ele><time>2026-04-19T13:34:09.988Z</time></trkpt><trkpt lat="42.25262901117677" lon="13.000825362306124"><ele>989.0000000000001</ele><time>2026-04-19T13:34:11.988Z</time></trkpt><trkpt lat="42.25253699763427" lon="13.000728006234425"><ele>989.0</ele><time>2026-04-19T13:34:13.988Z</time></trkpt><trkpt lat="42.25244719231889" lon="13.000616431886485"><ele>989.0</ele><time>2026-04-19T13:34:15.988Z</time></trkpt><trkpt lat="42.25240102569812" lon="13.000557864610872"><ele>989.0000000000001</ele><time>2026-04-19T13:34:16.988Z</time></trkpt><trkpt lat="42.25235707030429" lon="13.000491110996334"><ele>989.0</ele><time>2026-04-19T13:34:17.988Z</time></trkpt><trkpt lat="42.25231187046611" lon="13.000421528941404"><ele>989.0</ele><time>2026-04-19T13:34:18.988Z</time></trkpt><trkpt lat="42.25227605650918" lon="13.000346629624982"><ele>989.0</ele><time>2026-04-19T13:34:19.988Z</time></trkpt><trkpt lat="42.25220472456877" lon="13.000200057920797"><ele>989.0000000000001</ele><time>2026-04-19T13:34:21.988Z</time></trkpt><trkpt lat="42.252169405052044" lon="13.000121957513619"><ele>989.0</ele><time>2026-04-19T13:34:22.988Z</time></trkpt><trkpt lat="42.252136320893385" lon="13.000034777300524"><ele>989.0</ele><time>2026-04-19T13:34:23.988Z</time></trkpt><trkpt lat="42.25210711381567" lon="12.999949590926523"><ele>988.9999999999999</ele><time>2026-04-19T13:34:24.988Z</time></trkpt><trkpt lat="42.25207948967319" lon="12.999861548019574"><ele>989.0</ele><time>2026-04-19T13:34:25.988Z</time></trkpt><trkpt lat="42.25205229237049" lon="12.999774020462525"><ele>989.0</ele><time>2026-04-19T13:34:26.988Z</time></trkpt><trkpt lat="42.252026127329664" lon="12.999684053058147"><ele>988.9999999999999</ele><time>2026-04-19T13:34:27.988Z</time></trkpt><trkpt lat="42.25200691676023" lon="12.999597614581408"><ele>989.0</ele><time>2026-04-19T13:34:28.988Z</time></trkpt><trkpt lat="42.251982151479304" lon="12.999505896986125"><ele>989.0</ele><time>2026-04-19T13:34:29.988Z</time></trkpt><trkpt lat="42.25195800922376" lon="12.99941611197422"><ele>989.0000000000001</ele><time>2026-04-19T13:34:30.988Z</time></trkpt><trkpt lat="42.251938087282745" lon="12.999323658589029"><ele>989.0</ele><time>2026-04-19T13:34:31.988Z</time></trkpt><trkpt lat="42.25191854205719" lon="12.999230246836936"><ele>989.0</ele><time>2026-04-19T13:34:32.988Z</time></trkpt><trkpt lat="42.2518968274231" lon="12.999134396382697"><ele>989.0</ele><time>2026-04-19T13:34:33.988Z</time></trkpt><trkpt lat="42.251838715006414" lon="12.99899520167308"><ele>989.0000000000001</ele><time>2026-04-19T13:34:35.988Z</time></trkpt><trkpt lat="42.251798264001835" lon="12.998865585126977"><ele>989.0</ele><time>2026-04-19T13:34:37.988Z</time></trkpt><trkpt lat="42.25176084386794" lon="12.998741015490268"><ele>990.2</ele><time>2026-04-19T13:34:39.988Z</time></trkpt><trkpt lat="42.25171285765744" lon="12.99862748358054"><ele>991.4000000000001</ele><time>2026-04-19T13:34:41.988Z</time></trkpt><trkpt lat="42.251672664003884" lon="12.998491921347153"><ele>992.6</ele><time>2026-04-19T13:34:43.988Z</time></trkpt><trkpt lat="42.25162746028682" lon="12.998378026504055"><ele>993.8</ele><time>2026-04-19T13:34:45.988Z</time></trkpt><trkpt lat="42.25156583354551" lon="12.998270855266112"><ele>995.0</ele><time>2026-04-19T13:34:47.988Z</time></trkpt><trkpt lat="42.251489342711636" lon="12.998160153938473"><ele>994.2857142857143</ele><time>2026-04-19T13:34:49.988Z</time></trkpt><trkpt lat="42.251449039716476" lon="12.99809107181069"><ele>993.5714285714284</ele><time>2026-04-19T13:34:50.988Z</time></trkpt><trkpt lat="42.2514089808234" lon="12.998022525032193"><ele>992.8571428571428</ele><time>2026-04-19T13:34:51.988Z</time></trkpt><trkpt lat="42.251372517393285" lon="12.997931696573485"><ele>992.1428571428571</ele><time>2026-04-19T13:34:52.988Z</time></trkpt><trkpt lat="42.25133550923688" lon="12.997842082880078"><ele>991.4285714285713</ele><time>2026-04-19T13:34:53.988Z</time></trkpt><trkpt lat="42.25129739501413" lon="12.997744398965906"><ele>990.7142857142856</ele><time>2026-04-19T13:34:54.988Z</time></trkpt><trkpt lat="42.25125279792538" lon="12.99765669519195"><ele>989.9999999999999</ele><time>2026-04-19T13:34:55.988Z</time></trkpt><trkpt lat="42.2512098283834" lon="12.99756082596751"><ele>991.6666666666666</ele><time>2026-04-19T13:34:56.988Z</time></trkpt><trkpt lat="42.25116646487311" lon="12.997452610025757"><ele>993.3333333333333</ele><time>2026-04-19T13:34:57.988Z</time></trkpt><trkpt lat="42.251122185206775" lon="12.997344033163358"><ele>995.0</ele><time>2026-04-19T13:34:58.987Z</time></trkpt><trkpt lat="42.251077736785675" lon="12.997238329280965"><ele>996.6666666666666</ele><time>2026-04-19T13:34:59.987Z</time></trkpt><trkpt lat="42.25103649265926" lon="12.997132454343134"><ele>998.3333333333333</ele><time>2026-04-19T13:35:00.987Z</time></trkpt><trkpt lat="42.25099792928366" lon="12.997027678776329"><ele>1000.0</ele><time>2026-04-19T13:35:01.987Z</time></trkpt><trkpt lat="42.25095639458475" lon="12.99693757445862"><ele>1000.0</ele><time>2026-04-19T13:35:02.987Z</time></trkpt><trkpt lat="42.25091400252158" lon="12.996862657244426"><ele>1000.0</ele><time>2026-04-19T13:35:03.987Z</time></trkpt><trkpt lat="42.25083788506968" lon="12.996762922468701"><ele>1000.0</ele><time>2026-04-19T13:35:05.987Z</time></trkpt><trkpt lat="42.2507546496591" lon="12.996717264462124"><ele>1000.0</ele><time>2026-04-19T13:35:07.987Z</time></trkpt><trkpt lat="42.250692326137994" lon="12.996635210346426"><ele>1000.0</ele><time>2026-04-19T13:35:09.987Z</time></trkpt><trkpt lat="42.250657707764255" lon="12.996507858362495"><ele>999.8</ele><time>2026-04-19T13:35:11.987Z</time></trkpt><trkpt lat="42.25063343114136" lon="12.996359398024559"><ele>999.6</ele><time>2026-04-19T13:35:13.987Z</time></trkpt><trkpt lat="42.25058402681617" lon="12.99622506614801"><ele>999.4000000000001</ele><time>2026-04-19T13:35:15.987Z</time></trkpt><trkpt lat="42.25051999487928" lon="12.996076908747723"><ele>999.2</ele><time>2026-04-19T13:35:17.987Z</time></trkpt><trkpt lat="42.25048142011479" lon="12.996008052313329"><ele>999.0</ele><time>2026-04-19T13:35:18.987Z</time></trkpt><trkpt lat="42.25042985742224" lon="12.995948784499868"><ele>999.0</ele><time>2026-04-19T13:35:19.987Z</time></trkpt><trkpt lat="42.25036837388403" lon="12.995898099976799"><ele>999.0000000000001</ele><time>2026-04-19T13:35:20.987Z</time></trkpt><trkpt lat="42.25030921699911" lon="12.995857756903254"><ele>999.0</ele><time>2026-04-19T13:35:21.987Z</time></trkpt><trkpt lat="42.25024501441758" lon="12.995821508614146"><ele>999.0</ele><time>2026-04-19T13:35:22.987Z</time></trkpt><trkpt lat="42.25018278521743" lon="12.995778651886873"><ele>999.0000000000001</ele><time>2026-04-19T13:35:23.987Z</time></trkpt><trkpt lat="42.25011474496328" lon="12.995736131415038"><ele>999.0</ele><time>2026-04-19T13:35:24.987Z</time></trkpt><trkpt lat="42.25004918107305" lon="12.995671080208862"><ele>999.0</ele><time>2026-04-19T13:35:25.987Z</time></trkpt><trkpt lat="42.24998459802752" lon="12.99559208967205"><ele>999.6</ele><time>2026-04-19T13:35:26.987Z</time></trkpt><trkpt lat="42.24992848243272" lon="12.995503743137462"><ele>1000.2</ele><time>2026-04-19T13:35:27.987Z</time></trkpt><trkpt lat="42.24987730363982" lon="12.995412257550917"><ele>1000.8000000000001</ele><time>2026-04-19T13:35:28.987Z</time></trkpt><trkpt lat="42.249821103839736" lon="12.995319385431301"><ele>1001.4000000000001</ele><time>2026-04-19T13:35:29.987Z</time></trkpt><trkpt lat="42.24976334541131" lon="12.995221448306719"><ele>1002.0</ele><time>2026-04-19T13:35:30.987Z</time></trkpt><trkpt lat="42.24970305002527" lon="12.995117623568488"><ele>1002.0</ele><time>2026-04-19T13:35:31.987Z</time></trkpt><trkpt lat="42.24964663931418" lon="12.995011000772001"><ele>1002.0</ele><time>2026-04-19T13:35:32.987Z</time></trkpt><trkpt lat="42.24958989464115" lon="12.99491158282546"><ele>1002.0</ele><time>2026-04-19T13:35:33.987Z</time></trkpt><trkpt lat="42.249527794660786" lon="12.994806504082252"><ele>1002.0</ele><time>2026-04-19T13:35:34.987Z</time></trkpt><trkpt lat="42.24946799011299" lon="12.994698715184116"><ele>1002.0</ele><time>2026-04-19T13:35:35.987Z</time></trkpt><trkpt lat="42.24940893635839" lon="12.994589581663233"><ele>1004.2</ele><time>2026-04-19T13:35:36.987Z</time></trkpt><trkpt lat="42.249348963878596" lon="12.994492115144112"><ele>1006.4000000000001</ele><time>2026-04-19T13:35:37.987Z</time></trkpt><trkpt lat="42.24928530153556" lon="12.994378402423303"><ele>1008.5999999999999</ele><time>2026-04-19T13:35:38.987Z</time></trkpt><trkpt lat="42.249222422517605" lon="12.99427027121675"><ele>1010.8</ele><time>2026-04-19T13:35:39.987Z</time></trkpt><trkpt lat="42.24916112886773" lon="12.99415369276907"><ele>1013.0</ele><time>2026-04-19T13:35:40.987Z</time></trkpt><trkpt lat="42.24909949433956" lon="12.994042613493361"><ele>1013.2</ele><time>2026-04-19T13:35:41.987Z</time></trkpt><trkpt lat="42.249037765992064" lon="12.993930670609416"><ele>1013.4</ele><time>2026-04-19T13:35:42.987Z</time></trkpt><trkpt lat="42.24898036022429" lon="12.993813512970847"><ele>1013.6000000000001</ele><time>2026-04-19T13:35:43.987Z</time></trkpt><trkpt lat="42.248918756068036" lon="12.993701440284585"><ele>1013.8000000000001</ele><time>2026-04-19T13:35:44.987Z</time></trkpt><trkpt lat="42.24885474226389" lon="12.993591893492738"><ele>1014.0</ele><time>2026-04-19T13:35:45.987Z</time></trkpt><trkpt lat="42.24879593277051" lon="12.993482137236692"><ele>1014.0</ele><time>2026-04-19T13:35:46.987Z</time></trkpt><trkpt lat="42.248736675577156" lon="12.993379894838801"><ele>1014.0000000000001</ele><time>2026-04-19T13:35:47.987Z</time></trkpt><trkpt lat="42.24868101419056" lon="12.993272733536406"><ele>1014.0000000000001</ele><time>2026-04-19T13:35:48.987Z</time></trkpt><trkpt lat="42.24862908668884" lon="12.993165600512475"><ele>1014.0</ele><time>2026-04-19T13:35:49.987Z</time></trkpt><trkpt lat="42.248576174392184" lon="12.99305768051567"><ele>1014.0</ele><time>2026-04-19T13:35:50.986Z</time></trkpt><trkpt lat="42.24851802104332" lon="12.992963302561332"><ele>1015.6</ele><time>2026-04-19T13:35:51.986Z</time></trkpt><trkpt lat="42.248467475059016" lon="12.992854999977123"><ele>1017.2</ele><time>2026-04-19T13:35:52.986Z</time></trkpt><trkpt lat="42.24841803289725" lon="12.992739672023301"><ele>1018.8000000000001</ele><time>2026-04-19T13:35:53.986Z</time></trkpt><trkpt lat="42.24836782535822" lon="12.992614750267679"><ele>1020.4000000000001</ele><time>2026-04-19T13:35:54.986Z</time></trkpt><trkpt lat="42.24830920551369" lon="12.992497057193058"><ele>1022.0</ele><time>2026-04-19T13:35:55.986Z</time></trkpt><trkpt lat="42.248248177935714" lon="12.992384825308308"><ele>1022.2</ele><time>2026-04-19T13:35:56.986Z</time></trkpt><trkpt lat="42.24818585772079" lon="12.992284270725188"><ele>1022.4000000000001</ele><time>2026-04-19T13:35:57.986Z</time></trkpt><trkpt lat="42.24812063322412" lon="12.99218941627635"><ele>1022.5999999999999</ele><time>2026-04-19T13:35:58.986Z</time></trkpt><trkpt lat="42.2480494386239" lon="12.99209120983647"><ele>1022.8</ele><time>2026-04-19T13:35:59.986Z</time></trkpt><trkpt lat="42.24797690036932" lon="12.992003959250653"><ele>1023.0</ele><time>2026-04-19T13:36:00.986Z</time></trkpt><trkpt lat="42.247899919163274" lon="12.991915637812175"><ele>1023.0</ele><time>2026-04-19T13:36:01.986Z</time></trkpt><trkpt lat="42.24782195115947" lon="12.991829401151993"><ele>1023.0</ele><time>2026-04-19T13:36:02.986Z</time></trkpt><trkpt lat="42.24774774064954" lon="12.991728569938084"><ele>1023.0</ele><time>2026-04-19T13:36:03.986Z</time></trkpt><trkpt lat="42.24767741767604" lon="12.99162954248091"><ele>1023.0</ele><time>2026-04-19T13:36:04.986Z</time></trkpt><trkpt lat="42.24761110109171" lon="12.991527779448155"><ele>1023.0</ele><time>2026-04-19T13:36:05.986Z</time></trkpt><trkpt lat="42.24753854457431" lon="12.99143788921584"><ele>1024.8</ele><time>2026-04-19T13:36:06.986Z</time></trkpt><trkpt lat="42.24746333361758" lon="12.991365398955464"><ele>1026.6</ele><time>2026-04-19T13:36:07.986Z</time></trkpt><trkpt lat="42.24738081283689" lon="12.991307434469471"><ele>1028.4</ele><time>2026-04-19T13:36:08.986Z</time></trkpt><trkpt lat="42.24729359092124" lon="12.991266265900133"><ele>1030.2</ele><time>2026-04-19T13:36:09.986Z</time></trkpt><trkpt lat="42.24719943511256" lon="12.991228955858169"><ele>1032.0</ele><time>2026-04-19T13:36:10.986Z</time></trkpt><trkpt lat="42.247103406829694" lon="12.991176355195043"><ele>1032.6</ele><time>2026-04-19T13:36:11.986Z</time></trkpt><trkpt lat="42.24700074969988" lon="12.991118585694363"><ele>1033.2</ele><time>2026-04-19T13:36:12.986Z</time></trkpt><trkpt lat="42.246899355671644" lon="12.99107604589922"><ele>1033.8</ele><time>2026-04-19T13:36:13.986Z</time></trkpt><trkpt lat="42.24679522112434" lon="12.991029355579007"><ele>1034.4</ele><time>2026-04-19T13:36:14.986Z</time></trkpt><trkpt lat="42.2466883275625" lon="12.990995989798385"><ele>1035.0</ele><time>2026-04-19T13:36:15.986Z</time></trkpt><trkpt lat="42.2465814183216" lon="12.990962162409675"><ele>1035.0</ele><time>2026-04-19T13:36:16.986Z</time></trkpt><trkpt lat="42.246471518872994" lon="12.990934704591588"><ele>1035.0</ele><time>2026-04-19T13:36:17.986Z</time></trkpt><trkpt lat="42.24635921049347" lon="12.990895682178445"><ele>1035.0</ele><time>2026-04-19T13:36:18.986Z</time></trkpt><trkpt lat="42.246250629286344" lon="12.99086054518102"><ele>1035.0</ele><time>2026-04-19T13:36:19.986Z</time></trkpt><trkpt lat="42.246141823230815" lon="12.990823638820741"><ele>1038.6</ele><time>2026-04-19T13:36:20.986Z</time></trkpt><trkpt lat="42.24603620061144" lon="12.990798630763893"><ele>1042.2</ele><time>2026-04-19T13:36:21.986Z</time></trkpt><trkpt lat="42.245928453820625" lon="12.990779090787434"><ele>1045.8</ele><time>2026-04-19T13:36:22.986Z</time></trkpt><trkpt lat="42.245817283635354" lon="12.990759361486909"><ele>1049.4</ele><time>2026-04-19T13:36:23.986Z</time></trkpt><trkpt lat="42.245708610399824" lon="12.990756154574356"><ele>1053.0</ele><time>2026-04-19T13:36:24.986Z</time></trkpt><trkpt lat="42.245597776052" lon="12.990743119960095"><ele>1053.25</ele><time>2026-04-19T13:36:25.986Z</time></trkpt><trkpt lat="42.245485110277784" lon="12.990728335043915"><ele>1053.5</ele><time>2026-04-19T13:36:26.986Z</time></trkpt><trkpt lat="42.24536825749927" lon="12.990710636920452"><ele>1053.75</ele><time>2026-04-19T13:36:27.986Z</time></trkpt><trkpt lat="42.245256120773746" lon="12.990691679481808"><ele>1054.0</ele><time>2026-04-19T13:36:28.986Z</time></trkpt><trkpt lat="42.24514103605458" lon="12.990663327632777"><ele>1054.0</ele><time>2026-04-19T13:36:29.986Z</time></trkpt><trkpt lat="42.2450269733625" lon="12.990637753640245"><ele>1054.0</ele><time>2026-04-19T13:36:30.986Z</time></trkpt><trkpt lat="42.24491584281765" lon="12.990616381803196"><ele>1054.0</ele><time>2026-04-19T13:36:31.986Z</time></trkpt><trkpt lat="42.244812983586705" lon="12.990609424326273"><ele>1054.0</ele><time>2026-04-19T13:36:32.986Z</time></trkpt><trkpt lat="42.244707089015215" lon="12.990602750130329"><ele>1054.0</ele><time>2026-04-19T13:36:33.986Z</time></trkpt><trkpt lat="42.24459844858855" lon="12.990600293956515"><ele>1056.6000000000001</ele><time>2026-04-19T13:36:34.986Z</time></trkpt><trkpt lat="42.24448971129985" lon="12.990596793807645"><ele>1059.2</ele><time>2026-04-19T13:36:35.986Z</time></trkpt><trkpt lat="42.24438686997096" lon="12.99059725062681"><ele>1061.8000000000002</ele><time>2026-04-19T13:36:36.986Z</time></trkpt><trkpt lat="42.24428173753422" lon="12.990595086993523"><ele>1064.4</ele><time>2026-04-19T13:36:37.986Z</time></trkpt><trkpt lat="42.244179668163646" lon="12.990590211714453"><ele>1067.0</ele><time>2026-04-19T13:36:38.986Z</time></trkpt><trkpt lat="42.244076606105565" lon="12.99057431603084"><ele>1067.0</ele><time>2026-04-19T13:36:39.986Z</time></trkpt><trkpt lat="42.24397327120857" lon="12.990549390672667"><ele>1067.0</ele><time>2026-04-19T13:36:40.986Z</time></trkpt><trkpt lat="42.2438656420076" lon="12.99051412824474"><ele>1067.0</ele><time>2026-04-19T13:36:41.986Z</time></trkpt><trkpt lat="42.243752803873186" lon="12.990465309256376"><ele>1067.0</ele><time>2026-04-19T13:36:42.985Z</time></trkpt><trkpt lat="42.243643247451395" lon="12.990428336063228"><ele>1067.0</ele><time>2026-04-19T13:36:43.985Z</time></trkpt><trkpt lat="42.243541070298114" lon="12.990347813939225"><ele>1068.25</ele><time>2026-04-19T13:36:44.985Z</time></trkpt><trkpt lat="42.2434335225651" lon="12.99028061973969"><ele>1069.5</ele><time>2026-04-19T13:36:45.985Z</time></trkpt><trkpt lat="42.243328839050875" lon="12.990215408300458"><ele>1070.75</ele><time>2026-04-19T13:36:46.985Z</time></trkpt><trkpt lat="42.2432206298492" lon="12.990155079938674"><ele>1072.0</ele><time>2026-04-19T13:36:47.985Z</time></trkpt><trkpt lat="42.24310653666525" lon="12.990092234062326"><ele>1072.0</ele><time>2026-04-19T13:36:48.985Z</time></trkpt><trkpt lat="42.242992994189386" lon="12.990040077866087"><ele>1072.0</ele><time>2026-04-19T13:36:49.985Z</time></trkpt><trkpt lat="42.242875241299515" lon="12.989974673741443"><ele>1072.0</ele><time>2026-04-19T13:36:50.985Z</time></trkpt><trkpt lat="42.24276788511439" lon="12.989913099353702"><ele>1072.0</ele><time>2026-04-19T13:36:51.985Z</time></trkpt><trkpt lat="42.24266481942076" lon="12.989840218414539"><ele>1074.0</ele><time>2026-04-19T13:36:52.985Z</time></trkpt><trkpt lat="42.24255950932227" lon="12.989782393275998"><ele>1076.0</ele><time>2026-04-19T13:36:53.985Z</time></trkpt><trkpt lat="42.242458318192774" lon="12.989731918966609"><ele>1078.0</ele><time>2026-04-19T13:36:54.985Z</time></trkpt><trkpt lat="42.242356264033674" lon="12.98967589261467"><ele>1080.0</ele><time>2026-04-19T13:36:55.985Z</time></trkpt><trkpt lat="42.24224231125588" lon="12.98964013718902"><ele>1082.0</ele><time>2026-04-19T13:36:56.985Z</time></trkpt><trkpt lat="42.24211960849862" lon="12.98960834552539"><ele>1082.0</ele><time>2026-04-19T13:36:57.985Z</time></trkpt><trkpt lat="42.242004533359484" lon="12.989581817676838"><ele>1082.0</ele><time>2026-04-19T13:36:58.985Z</time></trkpt><trkpt lat="42.241897162257104" lon="12.989557065828981"><ele>1082.0</ele><time>2026-04-19T13:36:59.985Z</time></trkpt><trkpt lat="42.24179982773891" lon="12.989531130451079"><ele>1082.0</ele><time>2026-04-19T13:37:00.985Z</time></trkpt><trkpt lat="42.24170906621679" lon="12.98950995837001"><ele>1082.0</ele><time>2026-04-19T13:37:01.985Z</time></trkpt><trkpt lat="42.241635706736666" lon="12.989479902839735"><ele>1082.0</ele><time>2026-04-19T13:37:02.985Z</time></trkpt><trkpt lat="42.241560265268085" lon="12.989467051536678"><ele>1082.0</ele><time>2026-04-19T13:37:03.985Z</time></trkpt><trkpt lat="42.241491347806324" lon="12.989429241013688"><ele>1082.0</ele><time>2026-04-19T13:37:04.985Z</time></trkpt><trkpt lat="42.24142580286373" lon="12.98939583717503"><ele>1082.0</ele><time>2026-04-19T13:37:05.985Z</time></trkpt><trkpt lat="42.24137616278189" lon="12.989338487877067"><ele>1082.0</ele><time>2026-04-19T13:37:06.985Z</time></trkpt><trkpt lat="42.24127545273324" lon="12.989267087326642"><ele>1082.0</ele><time>2026-04-19T13:37:08.985Z</time></trkpt><trkpt lat="42.241184233491275" lon="12.989195866451155"><ele>1083.6666666666667</ele><time>2026-04-19T13:37:10.985Z</time></trkpt><trkpt lat="42.24112229617967" lon="12.989141307851371"><ele>1085.3333333333335</ele><time>2026-04-19T13:37:12.985Z</time></trkpt><trkpt lat="42.24106453372425" lon="12.989085097763041"><ele>1087.0</ele><time>2026-04-19T13:37:14.985Z</time></trkpt><trkpt lat="42.2409938618793" lon="12.98900675686764"><ele>1088.6666666666667</ele><time>2026-04-19T13:37:17.985Z</time></trkpt><trkpt lat="42.24093331247926" lon="12.988932250182492"><ele>1090.3333333333333</ele><time>2026-04-19T13:37:19.985Z</time></trkpt><trkpt lat="42.240871164298404" lon="12.988840380725366"><ele>1092.0</ele><time>2026-04-19T13:37:21.985Z</time></trkpt><trkpt lat="42.240805847405916" lon="12.988728733166239"><ele>1092.0</ele><time>2026-04-19T13:37:23.985Z</time></trkpt><trkpt lat="42.24075841067436" lon="12.988560967485585"><ele>1092.0</ele><time>2026-04-19T13:37:25.985Z</time></trkpt><trkpt lat="42.24074372130333" lon="12.98847227711412"><ele>1092.0</ele><time>2026-04-19T13:37:26.985Z</time></trkpt><trkpt lat="42.24073098030692" lon="12.98837398661403"><ele>1092.0</ele><time>2026-04-19T13:37:27.985Z</time></trkpt><trkpt lat="42.240719379557596" lon="12.988281837168712"><ele>1092.0</ele><time>2026-04-19T13:37:28.985Z</time></trkpt><trkpt lat="42.24071644507195" lon="12.988176310174177"><ele>1092.0</ele><time>2026-04-19T13:37:29.985Z</time></trkpt><trkpt lat="42.240725935176485" lon="12.988060994750551"><ele>1091.5</ele><time>2026-04-19T13:37:30.985Z</time></trkpt><trkpt lat="42.240732105676216" lon="12.987943040124904"><ele>1091.0</ele><time>2026-04-19T13:37:31.985Z</time></trkpt><trkpt lat="42.24074762040762" lon="12.987824701672798"><ele>1090.5</ele><time>2026-04-19T13:37:32.985Z</time></trkpt><trkpt lat="42.24077090063076" lon="12.987710928880887"><ele>1090.0</ele><time>2026-04-19T13:37:33.984Z</time></trkpt><trkpt lat="42.24080515712852" lon="12.987602089290684"><ele>1089.5</ele><time>2026-04-19T13:37:34.984Z</time></trkpt><trkpt lat="42.240842461040984" lon="12.98749490868472"><ele>1089.0</ele><time>2026-04-19T13:37:35.984Z</time></trkpt><trkpt lat="42.24089042645347" lon="12.98739111034827"><ele>1089.0</ele><time>2026-04-19T13:37:36.984Z</time></trkpt><trkpt lat="42.240951942942544" lon="12.987289060431184"><ele>1089.0</ele><time>2026-04-19T13:37:37.984Z</time></trkpt><trkpt lat="42.24102224792379" lon="12.98718731514876"><ele>1089.0</ele><time>2026-04-19T13:37:38.984Z</time></trkpt><trkpt lat="42.24109547750679" lon="12.987082273511831"><ele>1089.0</ele><time>2026-04-19T13:37:39.984Z</time></trkpt><trkpt lat="42.24116605580258" lon="12.986977700363484"><ele>1089.0</ele><time>2026-04-19T13:37:40.984Z</time></trkpt><trkpt lat="42.24122543563621" lon="12.986875717321425"><ele>1089.0</ele><time>2026-04-19T13:37:41.984Z</time></trkpt><trkpt lat="42.24128033566758" lon="12.98675850531376"><ele>1089.0</ele><time>2026-04-19T13:37:42.984Z</time></trkpt><trkpt lat="42.24132829061139" lon="12.986618299263707"><ele>1089.0</ele><time>2026-04-19T13:37:43.984Z</time></trkpt><trkpt lat="42.24137797230077" lon="12.986487344390218"><ele>1089.0</ele><time>2026-04-19T13:37:44.984Z</time></trkpt><trkpt lat="42.24141326437422" lon="12.986345051534414"><ele>1089.0</ele><time>2026-04-19T13:37:45.984Z</time></trkpt><trkpt lat="42.24144061094675" lon="12.986192992528935"><ele>1087.0</ele><time>2026-04-19T13:37:46.984Z</time></trkpt><trkpt lat="42.24145937818625" lon="12.98603601231826"><ele>1085.0</ele><time>2026-04-19T13:37:47.984Z</time></trkpt><trkpt lat="42.241489163416546" lon="12.985886377306093"><ele>1083.0</ele><time>2026-04-19T13:37:48.984Z</time></trkpt><trkpt lat="42.241521129253094" lon="12.985740738984275"><ele>1081.0</ele><time>2026-04-19T13:37:49.984Z</time></trkpt><trkpt lat="42.241559205706665" lon="12.985593902195902"><ele>1081.0</ele><time>2026-04-19T13:37:50.984Z</time></trkpt><trkpt lat="42.24160185486486" lon="12.985451470946147"><ele>1081.0</ele><time>2026-04-19T13:37:51.984Z</time></trkpt><trkpt lat="42.24163264668428" lon="12.985326805534157"><ele>1081.0</ele><time>2026-04-19T13:37:52.984Z</time></trkpt><trkpt lat="42.24166568548013" lon="12.985209765530474"><ele>1081.0</ele><time>2026-04-19T13:37:53.984Z</time></trkpt><trkpt lat="42.24168746347929" lon="12.985100499497074"><ele>1081.0</ele><time>2026-04-19T13:37:54.984Z</time></trkpt><trkpt lat="42.241703530695744" lon="12.984992013924886"><ele>1078.3333333333333</ele><time>2026-04-19T13:37:55.984Z</time></trkpt><trkpt lat="42.241724555751624" lon="12.984892951340852"><ele>1075.6666666666665</ele><time>2026-04-19T13:37:56.984Z</time></trkpt><trkpt lat="42.24173537357534" lon="12.98480906109705"><ele>1073.0</ele><time>2026-04-19T13:37:57.984Z</time></trkpt><trkpt lat="42.241733102896525" lon="12.984698061341298"><ele>1070.3333333333333</ele><time>2026-04-19T13:37:59.984Z</time></trkpt><trkpt lat="42.24170981626795" lon="12.984585670939508"><ele>1067.6666666666667</ele><time>2026-04-19T13:38:02.984Z</time></trkpt><trkpt lat="42.24169628388084" lon="12.98448447669917"><ele>1065.0</ele><time>2026-04-19T13:38:05.984Z</time></trkpt><trkpt lat="42.24166289319743" lon="12.984396791843098"><ele>1065.0</ele><time>2026-04-19T13:38:08.984Z</time></trkpt><trkpt lat="42.24162233450621" lon="12.984286607673596"><ele>1065.0</ele><time>2026-04-19T13:38:11.984Z</time></trkpt><trkpt lat="42.24159183786696" lon="12.984158252257295"><ele>1065.0</ele><time>2026-04-19T13:38:13.984Z</time></trkpt><trkpt lat="42.24153506397984" lon="12.983994311735193"><ele>1065.0</ele><time>2026-04-19T13:38:15.984Z</time></trkpt><trkpt lat="42.24150618097601" lon="12.983889716400864"><ele>1065.0</ele><time>2026-04-19T13:38:16.984Z</time></trkpt><trkpt lat="42.24147575778074" lon="12.983773198728212"><ele>1064.6</ele><time>2026-04-19T13:38:17.984Z</time></trkpt><trkpt lat="42.241449439724946" lon="12.9836439393163"><ele>1064.2</ele><time>2026-04-19T13:38:18.984Z</time></trkpt><trkpt lat="42.241421488949236" lon="12.98350819993845"><ele>1063.8</ele><time>2026-04-19T13:38:19.984Z</time></trkpt><trkpt lat="42.241390463056696" lon="12.983383856321872"><ele>1063.4</ele><time>2026-04-19T13:38:20.984Z</time></trkpt><trkpt lat="42.241353420480536" lon="12.983278096720637"><ele>1063.0</ele><time>2026-04-19T13:38:21.984Z</time></trkpt><trkpt lat="42.24129191619941" lon="12.983173759440117"><ele>1063.0</ele><time>2026-04-19T13:38:22.984Z</time></trkpt><trkpt lat="42.2412051949082" lon="12.983080802532516"><ele>1063.0</ele><time>2026-04-19T13:38:23.984Z</time></trkpt><trkpt lat="42.24110133752946" lon="12.98300414399137"><ele>1063.0</ele><time>2026-04-19T13:38:24.984Z</time></trkpt><trkpt lat="42.240992189635904" lon="12.982940373728487"><ele>1063.0</ele><time>2026-04-19T13:38:25.983Z</time></trkpt><trkpt lat="42.240871312039644" lon="12.98290310372022"><ele>1063.0</ele><time>2026-04-19T13:38:26.983Z</time></trkpt><trkpt lat="42.24074423215351" lon="12.982905083391573"><ele>1063.0</ele><time>2026-04-19T13:38:27.983Z</time></trkpt><trkpt lat="42.24062582230541" lon="12.982913875965302"><ele>1063.0</ele><time>2026-04-19T13:38:28.983Z</time></trkpt><trkpt lat="42.24050681512956" lon="12.982923017423259"><ele>1063.0</ele><time>2026-04-19T13:38:29.983Z</time></trkpt><trkpt lat="42.24039648473942" lon="12.98292746203071"><ele>1062.4</ele><time>2026-04-19T13:38:30.983Z</time></trkpt><trkpt lat="42.24029215112889" lon="12.982922205137267"><ele>1061.8</ele><time>2026-04-19T13:38:31.983Z</time></trkpt><trkpt lat="42.240192949292634" lon="12.982877134771144"><ele>1061.2</ele><time>2026-04-19T13:38:32.983Z</time></trkpt><trkpt lat="42.240078983310255" lon="12.982860117965446"><ele>1060.6</ele><time>2026-04-19T13:38:33.983Z</time></trkpt><trkpt lat="42.23997279194629" lon="12.982807598133094"><ele>1060.0</ele><time>2026-04-19T13:38:34.983Z</time></trkpt><trkpt lat="42.23986565369761" lon="12.982767544353797"><ele>1057.75</ele><time>2026-04-19T13:38:35.983Z</time></trkpt><trkpt lat="42.23975809401661" lon="12.982720905752954"><ele>1055.5</ele><time>2026-04-19T13:38:36.983Z</time></trkpt><trkpt lat="42.239654872476585" lon="12.982656565918893"><ele>1053.25</ele><time>2026-04-19T13:38:37.983Z</time></trkpt><trkpt lat="42.239546653464416" lon="12.98258663365827"><ele>1051.0</ele><time>2026-04-19T13:38:38.983Z</time></trkpt><trkpt lat="42.2394365619804" lon="12.982504205880948"><ele>1056.75</ele><time>2026-04-19T13:38:39.983Z</time></trkpt><trkpt lat="42.23932273015695" lon="12.982431706115289"><ele>1062.5</ele><time>2026-04-19T13:38:40.983Z</time></trkpt><trkpt lat="42.23920920151231" lon="12.982376995339619"><ele>1068.25</ele><time>2026-04-19T13:38:41.983Z</time></trkpt><trkpt lat="42.23910454961802" lon="12.982305249996319"><ele>1074.0</ele><time>2026-04-19T13:38:42.983Z</time></trkpt><trkpt lat="42.2390044177772" lon="12.982242644383446"><ele>1073.6000000000001</ele><time>2026-04-19T13:38:43.983Z</time></trkpt><trkpt lat="42.23890778084025" lon="12.982210226307505"><ele>1073.2</ele><time>2026-04-19T13:38:44.983Z</time></trkpt><trkpt lat="42.238812963366776" lon="12.982195152018548"><ele>1072.8000000000002</ele><time>2026-04-19T13:38:45.983Z</time></trkpt><trkpt lat="42.2387214051113" lon="12.982167195126237"><ele>1072.4</ele><time>2026-04-19T13:38:46.983Z</time></trkpt><trkpt lat="42.238633872197475" lon="12.982182124328773"><ele>1072.0</ele><time>2026-04-19T13:38:47.983Z</time></trkpt><trkpt lat="42.23854277554875" lon="12.982213414092428"><ele>1072.0</ele><time>2026-04-19T13:38:48.983Z</time></trkpt><trkpt lat="42.23844747375251" lon="12.982254043747853"><ele>1072.0</ele><time>2026-04-19T13:38:49.983Z</time></trkpt><trkpt lat="42.23836074413231" lon="12.982298690792119"><ele>1072.0</ele><time>2026-04-19T13:38:50.983Z</time></trkpt><trkpt lat="42.238287134034145" lon="12.98234231717162"><ele>1072.0</ele><time>2026-04-19T13:38:51.983Z</time></trkpt><trkpt lat="42.23822483595575" lon="12.982390649115505"><ele>1072.0</ele><time>2026-04-19T13:38:52.983Z</time></trkpt><trkpt lat="42.23813870296219" lon="12.982447857381304"><ele>1072.0</ele><time>2026-04-19T13:38:54.983Z</time></trkpt><trkpt lat="42.23805731743363" lon="12.982465069561055"><ele>1069.4</ele><time>2026-04-19T13:38:56.983Z</time></trkpt><trkpt lat="42.23797434545069" lon="12.982424052030048"><ele>1066.8000000000002</ele><time>2026-04-19T13:38:58.983Z</time></trkpt><trkpt lat="42.23790534019638" lon="12.982302503837005"><ele>1064.2</ele><time>2026-04-19T13:39:00.983Z</time></trkpt><trkpt lat="42.23786775211006" lon="12.982214392054448"><ele>1061.6000000000001</ele><time>2026-04-19T13:39:01.983Z</time></trkpt><trkpt lat="42.23783212457674" lon="12.982106073704417"><ele>1059.0</ele><time>2026-04-19T13:39:02.983Z</time></trkpt><trkpt lat="42.23779916987297" lon="12.98197128768449"><ele>1059.0</ele><time>2026-04-19T13:39:03.983Z</time></trkpt><trkpt lat="42.23776592477281" lon="12.981826221675169"><ele>1059.0</ele><time>2026-04-19T13:39:04.983Z</time></trkpt><trkpt lat="42.23773029105735" lon="12.981670035385518"><ele>1059.0</ele><time>2026-04-19T13:39:05.983Z</time></trkpt><trkpt lat="42.23769316248507" lon="12.981507296974375"><ele>1059.0</ele><time>2026-04-19T13:39:06.983Z</time></trkpt><trkpt lat="42.23765560001888" lon="12.981347240819796"><ele>1059.5</ele><time>2026-04-19T13:39:07.983Z</time></trkpt><trkpt lat="42.237620769223064" lon="12.981206908011512"><ele>1060.0</ele><time>2026-04-19T13:39:08.983Z</time></trkpt><trkpt lat="42.237588058221235" lon="12.98107771256718"><ele>1060.5</ele><time>2026-04-19T13:39:09.983Z</time></trkpt><trkpt lat="42.23754708745326" lon="12.98097460633448"><ele>1061.0</ele><time>2026-04-19T13:39:10.983Z</time></trkpt><trkpt lat="42.23753874435417" lon="12.980872479427298"><ele>1061.5</ele><time>2026-04-19T13:39:11.983Z</time></trkpt><trkpt lat="42.23753158412757" lon="12.980787647283085"><ele>1062.0</ele><time>2026-04-19T13:39:12.983Z</time></trkpt><trkpt lat="42.23751600469355" lon="12.980649493330224"><ele>1062.3333333333333</ele><time>2026-04-19T13:39:14.983Z</time></trkpt><trkpt lat="42.23749634259203" lon="12.980544311964206"><ele>1062.6666666666667</ele><time>2026-04-19T13:39:16.982Z</time></trkpt><trkpt lat="42.237477788504265" lon="12.980444025318311"><ele>1063.0</ele><time>2026-04-19T13:39:18.982Z</time></trkpt><trkpt lat="42.2374534636986" lon="12.980346440536378"><ele>1063.3333333333335</ele><time>2026-04-19T13:39:20.982Z</time></trkpt><trkpt lat="42.237419412045696" lon="12.980212998653464"><ele>1063.6666666666667</ele><time>2026-04-19T13:39:22.982Z</time></trkpt><trkpt lat="42.23738593875633" lon="12.980128704280247"><ele>1064.0</ele><time>2026-04-19T13:39:23.982Z</time></trkpt><trkpt lat="42.23737021351001" lon="12.980018971641433"><ele>1064.8</ele><time>2026-04-19T13:39:24.982Z</time></trkpt><trkpt lat="42.23733813996386" lon="12.979914776587524"><ele>1065.6000000000001</ele><time>2026-04-19T13:39:25.982Z</time></trkpt><trkpt lat="42.23730464929339" lon="12.979791228875564"><ele>1066.4</ele><time>2026-04-19T13:39:26.982Z</time></trkpt><trkpt lat="42.23727693601761" lon="12.979654953596354"><ele>1067.2</ele><time>2026-04-19T13:39:27.982Z</time></trkpt><trkpt lat="42.23725304473207" lon="12.97951461162903"><ele>1068.0</ele><time>2026-04-19T13:39:28.982Z</time></trkpt><trkpt lat="42.23723228313466" lon="12.979367670157835"><ele>1058.25</ele><time>2026-04-19T13:39:29.982Z</time></trkpt><trkpt lat="42.23722183068941" lon="12.979210958341806"><ele>1048.5</ele><time>2026-04-19T13:39:30.982Z</time></trkpt><trkpt lat="42.23721090332838" lon="12.979054073489003"><ele>1038.75</ele><time>2026-04-19T13:39:31.982Z</time></trkpt><trkpt lat="42.237196940503445" lon="12.97890577203339"><ele>1029.0</ele><time>2026-04-19T13:39:32.982Z</time></trkpt><trkpt lat="42.23717990171754" lon="12.978764035947078"><ele>1029.0</ele><time>2026-04-19T13:39:33.982Z</time></trkpt><trkpt lat="42.23716464550334" lon="12.978649146081949"><ele>1029.0</ele><time>2026-04-19T13:39:34.982Z</time></trkpt><trkpt lat="42.2371402506579" lon="12.978544912990822"><ele>1029.0</ele><time>2026-04-19T13:39:35.982Z</time></trkpt><trkpt lat="42.237110821425475" lon="12.978438878129415"><ele>1029.0</ele><time>2026-04-19T13:39:36.982Z</time></trkpt><trkpt lat="42.23706837417999" lon="12.978335093934609"><ele>1029.0</ele><time>2026-04-19T13:39:37.982Z</time></trkpt><trkpt lat="42.23702086837272" lon="12.978229040212522"><ele>1029.0</ele><time>2026-04-19T13:39:38.982Z</time></trkpt><trkpt lat="42.23695765959244" lon="12.978129867387423"><ele>1029.2</ele><time>2026-04-19T13:39:39.982Z</time></trkpt><trkpt lat="42.23690246898661" lon="12.978011706039135"><ele>1029.4</ele><time>2026-04-19T13:39:40.982Z</time></trkpt><trkpt lat="42.23683338857706" lon="12.977904800666442"><ele>1029.6</ele><time>2026-04-19T13:39:41.982Z</time></trkpt><trkpt lat="42.23676165836421" lon="12.977787654100833"><ele>1029.8</ele><time>2026-04-19T13:39:42.982Z</time></trkpt><trkpt lat="42.23667724938005" lon="12.977683733212473"><ele>1030.0</ele><time>2026-04-19T13:39:43.982Z</time></trkpt><trkpt lat="42.23661169346753" lon="12.97755261353528"><ele>1032.75</ele><time>2026-04-19T13:39:44.982Z</time></trkpt><trkpt lat="42.23653858827063" lon="12.977429361862459"><ele>1035.5</ele><time>2026-04-19T13:39:45.982Z</time></trkpt><trkpt lat="42.236458313316334" lon="12.977313065755855"><ele>1038.25</ele><time>2026-04-19T13:39:46.982Z</time></trkpt><trkpt lat="42.236372107547005" lon="12.977210452808288"><ele>1041.0</ele><time>2026-04-19T13:39:47.982Z</time></trkpt><trkpt lat="42.23628443251649" lon="12.977114391912666"><ele>1037.8</ele><time>2026-04-19T13:39:48.982Z</time></trkpt><trkpt lat="42.23619300222314" lon="12.977016012451491"><ele>1034.6</ele><time>2026-04-19T13:39:49.982Z</time></trkpt><trkpt lat="42.23610330365512" lon="12.976927430722036"><ele>1031.4</ele><time>2026-04-19T13:39:50.982Z</time></trkpt><trkpt lat="42.23603280573622" lon="12.976831610433647"><ele>1028.2</ele><time>2026-04-19T13:39:51.982Z</time></trkpt><trkpt lat="42.23597510251051" lon="12.976761564859952"><ele>1025.0</ele><time>2026-04-19T13:39:52.982Z</time></trkpt><trkpt lat="42.235927525163525" lon="12.976632880373995"><ele>1025.0</ele><time>2026-04-19T13:39:54.982Z</time></trkpt><trkpt lat="42.235905679185564" lon="12.976504262741061"><ele>1025.0</ele><time>2026-04-19T13:39:56.982Z</time></trkpt><trkpt lat="42.235917780723994" lon="12.976417023583156"><ele>1025.0</ele><time>2026-04-19T13:39:57.982Z</time></trkpt><trkpt lat="42.235956129151184" lon="12.976326908040134"><ele>1025.0</ele><time>2026-04-19T13:39:58.982Z</time></trkpt><trkpt lat="42.235977090283015" lon="12.976239708015484"><ele>1025.0</ele><time>2026-04-19T13:39:59.982Z</time></trkpt><trkpt lat="42.236003248862026" lon="12.976096921437398"><ele>1025.0</ele><time>2026-04-19T13:40:01.982Z</time></trkpt><trkpt lat="42.23598154629629" lon="12.975930017277385"><ele>1025.0</ele><time>2026-04-19T13:40:03.982Z</time></trkpt><trkpt lat="42.235939896740106" lon="12.975864054480393"><ele>1025.0</ele><time>2026-04-19T13:40:04.982Z</time></trkpt><trkpt lat="42.23587841011245" lon="12.975814219786026"><ele>1025.0</ele><time>2026-04-19T13:40:05.982Z</time></trkpt><trkpt lat="42.235764168188496" lon="12.975739004045316"><ele>1025.0</ele><time>2026-04-19T13:40:07.982Z</time></trkpt><trkpt lat="42.23570038938553" lon="12.975706200087709"><ele>1025.0</ele><time>2026-04-19T13:40:08.981Z</time></trkpt><trkpt lat="42.23561739365114" lon="12.975675813558283"><ele>1025.0</ele><time>2026-04-19T13:40:09.981Z</time></trkpt><trkpt lat="42.23552932246715" lon="12.975676694092705"><ele>1022.1666666666667</ele><time>2026-04-19T13:40:10.981Z</time></trkpt><trkpt lat="42.2354373471673" lon="12.975730003647424"><ele>1019.3333333333334</ele><time>2026-04-19T13:40:11.981Z</time></trkpt><trkpt lat="42.23536858450564" lon="12.975816044015323"><ele>1016.5</ele><time>2026-04-19T13:40:12.981Z</time></trkpt><trkpt lat="42.235331934818866" lon="12.975910410794647"><ele>1013.6666666666667</ele><time>2026-04-19T13:40:13.981Z</time></trkpt><trkpt lat="42.23531898771109" lon="12.976007567082263"><ele>1010.8333333333334</ele><time>2026-04-19T13:40:15.981Z</time></trkpt><trkpt lat="42.23534805454131" lon="12.976115741943822"><ele>1008.0</ele><time>2026-04-19T13:40:18.981Z</time></trkpt><trkpt lat="42.23538578151619" lon="12.976244622203717"><ele>1006.5</ele><time>2026-04-19T13:40:20.981Z</time></trkpt><trkpt lat="42.23541450972749" lon="12.976328382049607"><ele>1005.0</ele><time>2026-04-19T13:40:21.981Z</time></trkpt><trkpt lat="42.235443019543425" lon="12.97642261252044"><ele>1003.5</ele><time>2026-04-19T13:40:22.981Z</time></trkpt><trkpt lat="42.235471099206556" lon="12.976521094958215"><ele>1002.0</ele><time>2026-04-19T13:40:23.981Z</time></trkpt><trkpt lat="42.23548999111321" lon="12.976619568108665"><ele>1000.5</ele><time>2026-04-19T13:40:24.981Z</time></trkpt><trkpt lat="42.23550240972478" lon="12.976740958236801"><ele>999.0</ele><time>2026-04-19T13:40:25.981Z</time></trkpt><trkpt lat="42.23551252914078" lon="12.976861823998599"><ele>996.6</ele><time>2026-04-19T13:40:26.981Z</time></trkpt><trkpt lat="42.235527881374274" lon="12.97701067597347"><ele>994.2</ele><time>2026-04-19T13:40:27.981Z</time></trkpt><trkpt lat="42.23557161893163" lon="12.97713284267276"><ele>991.8000000000001</ele><time>2026-04-19T13:40:28.981Z</time></trkpt><trkpt lat="42.235644735183186" lon="12.977205312267627"><ele>989.4000000000001</ele><time>2026-04-19T13:40:29.981Z</time></trkpt><trkpt lat="42.2357053840328" lon="12.977298910452085"><ele>987.0</ele><time>2026-04-19T13:40:30.981Z</time></trkpt><trkpt lat="42.23575908412509" lon="12.977393986807161"><ele>989.0</ele><time>2026-04-19T13:40:31.981Z</time></trkpt><trkpt lat="42.2358009378567" lon="12.97749390496767"><ele>991.0</ele><time>2026-04-19T13:40:32.981Z</time></trkpt><trkpt lat="42.23584722650484" lon="12.977619706966784"><ele>993.0</ele><time>2026-04-19T13:40:33.981Z</time></trkpt><trkpt lat="42.23588369338648" lon="12.977747116072505"><ele>995.0</ele><time>2026-04-19T13:40:34.981Z</time></trkpt><trkpt lat="42.23591212557249" lon="12.977882701630923"><ele>997.0</ele><time>2026-04-19T13:40:35.981Z</time></trkpt><trkpt lat="42.23593564274329" lon="12.978018447434165"><ele>997.0</ele><time>2026-04-19T13:40:36.981Z</time></trkpt><trkpt lat="42.235955426359325" lon="12.978165135940928"><ele>997.0</ele><time>2026-04-19T13:40:37.981Z</time></trkpt><trkpt lat="42.235963675299246" lon="12.978308937834885"><ele>997.0</ele><time>2026-04-19T13:40:38.981Z</time></trkpt><trkpt lat="42.23596382558077" lon="12.978460563286944"><ele>997.0</ele><time>2026-04-19T13:40:39.981Z</time></trkpt><trkpt lat="42.23595691318049" lon="12.978619233182275"><ele>997.0</ele><time>2026-04-19T13:40:40.981Z</time></trkpt><trkpt lat="42.23595909456994" lon="12.978784622186842"><ele>997.25</ele><time>2026-04-19T13:40:41.981Z</time></trkpt><trkpt lat="42.23592002467796" lon="12.978942734968307"><ele>997.5</ele><time>2026-04-19T13:40:42.981Z</time></trkpt><trkpt lat="42.23588320006054" lon="12.979089689573886"><ele>997.75</ele><time>2026-04-19T13:40:43.981Z</time></trkpt><trkpt lat="42.23582243077091" lon="12.979224213547887"><ele>998.0</ele><time>2026-04-19T13:40:44.981Z</time></trkpt><trkpt lat="42.235762723277915" lon="12.979346567725946"><ele>998.0</ele><time>2026-04-19T13:40:45.981Z</time></trkpt><trkpt lat="42.23571615139768" lon="12.979451813483335"><ele>998.0</ele><time>2026-04-19T13:40:46.981Z</time></trkpt><trkpt lat="42.23567788081124" lon="12.979571525093224"><ele>998.0</ele><time>2026-04-19T13:40:47.981Z</time></trkpt><trkpt lat="42.235669947609736" lon="12.979695898334446"><ele>998.0</ele><time>2026-04-19T13:40:48.981Z</time></trkpt><trkpt lat="42.23567386202411" lon="12.979796097918483"><ele>998.0</ele><time>2026-04-19T13:40:49.981Z</time></trkpt><trkpt lat="42.235684863030905" lon="12.979953740968353"><ele>997.8333333333334</ele><time>2026-04-19T13:40:51.981Z</time></trkpt><trkpt lat="42.23564785832703" lon="12.980035274759949"><ele>997.6666666666667</ele><time>2026-04-19T13:40:53.981Z</time></trkpt><trkpt lat="42.2355574930798" lon="12.979984760476228"><ele>997.5</ele><time>2026-04-19T13:40:56.981Z</time></trkpt><trkpt lat="42.2355091743657" lon="12.979824386163724"><ele>997.3333333333333</ele><time>2026-04-19T13:40:58.981Z</time></trkpt><trkpt lat="42.235484628613726" lon="12.97973955994371"><ele>997.1666666666666</ele><time>2026-04-19T13:40:59.98Z</time></trkpt><trkpt lat="42.235459974550196" lon="12.979638814319227"><ele>997.0</ele><time>2026-04-19T13:41:00.98Z</time></trkpt><trkpt lat="42.23544179783087" lon="12.97954238797654"><ele>992.6666666666666</ele><time>2026-04-19T13:41:01.98Z</time></trkpt><trkpt lat="42.23542629906399" lon="12.979447653440188"><ele>988.3333333333333</ele><time>2026-04-19T13:41:02.98Z</time></trkpt><trkpt lat="42.23541084880904" lon="12.979341694188369"><ele>984.0</ele><time>2026-04-19T13:41:03.98Z</time></trkpt><trkpt lat="42.23539344160023" lon="12.979233288689008"><ele>979.6666666666667</ele><time>2026-04-19T13:41:04.98Z</time></trkpt><trkpt lat="42.23536953030496" lon="12.97913677410861"><ele>975.3333333333334</ele><time>2026-04-19T13:41:05.98Z</time></trkpt><trkpt lat="42.23536457278042" lon="12.979027136436502"><ele>971.0</ele><time>2026-04-19T13:41:06.98Z</time></trkpt><trkpt lat="42.23533004895494" lon="12.978940601641762"><ele>970.1666666666667</ele><time>2026-04-19T13:41:07.98Z</time></trkpt><trkpt lat="42.235284456096686" lon="12.97886737017846"><ele>969.3333333333334</ele><time>2026-04-19T13:41:08.98Z</time></trkpt><trkpt lat="42.235232120714215" lon="12.978792292850622"><ele>968.5</ele><time>2026-04-19T13:41:09.98Z</time></trkpt><trkpt lat="42.23517536925927" lon="12.978721057257411"><ele>967.6666666666667</ele><time>2026-04-19T13:41:10.98Z</time></trkpt><trkpt lat="42.23511160798946" lon="12.978650408846363"><ele>966.8333333333334</ele><time>2026-04-19T13:41:11.98Z</time></trkpt><trkpt lat="42.23504338159442" lon="12.978578667889058"><ele>966.0</ele><time>2026-04-19T13:41:12.98Z</time></trkpt><trkpt lat="42.23497536564864" lon="12.978507313506578"><ele>966.0</ele><time>2026-04-19T13:41:13.98Z</time></trkpt><trkpt lat="42.23489194294629" lon="12.978445028710455"><ele>965.9999999999999</ele><time>2026-04-19T13:41:14.98Z</time></trkpt><trkpt lat="42.2347980944709" lon="12.978376934278556"><ele>965.9999999999999</ele><time>2026-04-19T13:41:15.98Z</time></trkpt><trkpt lat="42.23470767031607" lon="12.978311271603898"><ele>966.0</ele><time>2026-04-19T13:41:16.98Z</time></trkpt><trkpt lat="42.23462750072813" lon="12.97825202569261"><ele>966.0</ele><time>2026-04-19T13:41:17.98Z</time></trkpt><trkpt lat="42.23455442968539" lon="12.978193783039345"><ele>963.3333333333334</ele><time>2026-04-19T13:41:18.98Z</time></trkpt><trkpt lat="42.234498757837876" lon="12.978129562703211"><ele>960.6666666666667</ele><time>2026-04-19T13:41:19.98Z</time></trkpt><trkpt lat="42.234456706027686" lon="12.978062019797923"><ele>958.0</ele><time>2026-04-19T13:41:20.98Z</time></trkpt><trkpt lat="42.234366080855075" lon="12.97796626741041"><ele>955.3333333333334</ele><time>2026-04-19T13:41:22.98Z</time></trkpt><trkpt lat="42.2343121709078" lon="12.977914335101909"><ele>952.6666666666667</ele><time>2026-04-19T13:41:24.98Z</time></trkpt><trkpt lat="42.23425894502496" lon="12.977965044574157"><ele>950.0</ele><time>2026-04-19T13:41:32.98Z</time></trkpt><trkpt lat="42.23429980445126" lon="12.97824567290593"><ele>948.4</ele><time>2026-04-19T13:41:55.979Z</time></trkpt><trkpt lat="42.234360886521074" lon="12.978395611314799"><ele>946.8</ele><time>2026-04-19T13:41:56.979Z</time></trkpt><trkpt lat="42.234421817524115" lon="12.978494538399875"><ele>945.2</ele><time>2026-04-19T13:41:57.979Z</time></trkpt><trkpt lat="42.23449738960178" lon="12.978560639852244"><ele>943.6</ele><time>2026-04-19T13:41:58.979Z</time></trkpt><trkpt lat="42.234550302716386" lon="12.978660068203757"><ele>942.0</ele><time>2026-04-19T13:41:59.979Z</time></trkpt><trkpt lat="42.23460574173678" lon="12.978747974913027"><ele>942.0</ele><time>2026-04-19T13:42:00.979Z</time></trkpt><trkpt lat="42.23466468439183" lon="12.978846770146522"><ele>942.0</ele><time>2026-04-19T13:42:01.979Z</time></trkpt><trkpt lat="42.234717136767706" lon="12.978929283720701"><ele>942.0</ele><time>2026-04-19T13:42:02.979Z</time></trkpt><trkpt lat="42.234761501957045" lon="12.979000505835126"><ele>942.0</ele><time>2026-04-19T13:42:03.979Z</time></trkpt><trkpt lat="42.234780648287725" lon="12.97913259631528"><ele>942.0</ele><time>2026-04-19T13:42:05.979Z</time></trkpt><trkpt lat="42.234761786449425" lon="12.979224078021451"><ele>942.0</ele><time>2026-04-19T13:42:07.979Z</time></trkpt><trkpt lat="42.23470560045447" lon="12.979270262318822"><ele>942.0</ele><time>2026-04-19T13:42:10.979Z</time></trkpt><trkpt lat="42.23465134838769" lon="12.979216470715752"><ele>942.0</ele><time>2026-04-19T13:42:11.979Z</time></trkpt><trkpt lat="42.23459161294584" lon="12.97915372321236"><ele>942.0</ele><time>2026-04-19T13:42:12.979Z</time></trkpt><trkpt lat="42.23454268743487" lon="12.979050700683489"><ele>942.0</ele><time>2026-04-19T13:42:13.979Z</time></trkpt><trkpt lat="42.23446701330345" lon="12.978949861478998"><ele>942.0</ele><time>2026-04-19T13:42:14.979Z</time></trkpt><trkpt lat="42.23439249300871" lon="12.978872821057124"><ele>942.0</ele><time>2026-04-19T13:42:15.979Z</time></trkpt><trkpt lat="42.23432980513662" lon="12.978811596642654"><ele>942.0</ele><time>2026-04-19T13:42:16.979Z</time></trkpt><trkpt lat="42.234276582813806" lon="12.978761598636753"><ele>942.0</ele><time>2026-04-19T13:42:17.979Z</time></trkpt><trkpt lat="42.23419494622823" lon="12.978681649922876"><ele>942.0</ele><time>2026-04-19T13:42:19.979Z</time></trkpt><trkpt lat="42.23414229990217" lon="12.978624651718322"><ele>942.0</ele><time>2026-04-19T13:42:21.979Z</time></trkpt><trkpt lat="42.23408159515128" lon="12.978550876783263"><ele>942.0</ele><time>2026-04-19T13:42:24.979Z</time></trkpt><trkpt lat="42.23401961665605" lon="12.978461951353154"><ele>942.0</ele><time>2026-04-19T13:42:27.979Z</time></trkpt><trkpt lat="42.23395971803393" lon="12.978318048996632"><ele>939.0</ele><time>2026-04-19T13:42:29.979Z</time></trkpt><trkpt lat="42.233934566450074" lon="12.978232651334725"><ele>936.0</ele><time>2026-04-19T13:42:30.979Z</time></trkpt><trkpt lat="42.233913807585274" lon="12.978134217828524"><ele>933.0</ele><time>2026-04-19T13:42:31.979Z</time></trkpt><trkpt lat="42.23390760018603" lon="12.978024013783433"><ele>930.0</ele><time>2026-04-19T13:42:32.979Z</time></trkpt><trkpt lat="42.23390988809916" lon="12.977898117711867"><ele>927.0</ele><time>2026-04-19T13:42:33.979Z</time></trkpt><trkpt lat="42.2339147525222" lon="12.97776934428997"><ele>924.0</ele><time>2026-04-19T13:42:34.979Z</time></trkpt><trkpt lat="42.233907211741254" lon="12.977652615893946"><ele>924.0</ele><time>2026-04-19T13:42:35.979Z</time></trkpt><trkpt lat="42.233885639846974" lon="12.977544273640557"><ele>924.0</ele><time>2026-04-19T13:42:36.979Z</time></trkpt><trkpt lat="42.233841890785996" lon="12.977443304718545"><ele>924.0</ele><time>2026-04-19T13:42:37.979Z</time></trkpt><trkpt lat="42.23378110544627" lon="12.977356812012813"><ele>924.0</ele><time>2026-04-19T13:42:38.979Z</time></trkpt><trkpt lat="42.23370657567514" lon="12.977293802507424"><ele>924.0</ele><time>2026-04-19T13:42:39.979Z</time></trkpt><trkpt lat="42.23362281400485" lon="12.97724947804362"><ele>924.0</ele><time>2026-04-19T13:42:40.979Z</time></trkpt><trkpt lat="42.23353377219767" lon="12.97722124687618"><ele>923.0</ele><time>2026-04-19T13:42:41.979Z</time></trkpt><trkpt lat="42.23344075817689" lon="12.977211410593325"><ele>922.0000000000001</ele><time>2026-04-19T13:42:42.978Z</time></trkpt><trkpt lat="42.23334346645656" lon="12.97721611216368"><ele>921.0000000000001</ele><time>2026-04-19T13:42:43.978Z</time></trkpt><trkpt lat="42.23325583586289" lon="12.977228789194188"><ele>920.0</ele><time>2026-04-19T13:42:44.978Z</time></trkpt><trkpt lat="42.233168628108835" lon="12.977254213431813"><ele>919.0</ele><time>2026-04-19T13:42:45.978Z</time></trkpt><trkpt lat="42.23307831965525" lon="12.977302156920356"><ele>919.0</ele><time>2026-04-19T13:42:46.978Z</time></trkpt><trkpt lat="42.2329908016101" lon="12.977355943200259"><ele>919.0000000000001</ele><time>2026-04-19T13:42:47.978Z</time></trkpt><trkpt lat="42.23290497220211" lon="12.977407181461073"><ele>919.0000000000001</ele><time>2026-04-19T13:42:48.978Z</time></trkpt><trkpt lat="42.232821948399696" lon="12.977453201526759"><ele>919.0</ele><time>2026-04-19T13:42:49.978Z</time></trkpt><trkpt lat="42.23273476711823" lon="12.97748445579287"><ele>919.0</ele><time>2026-04-19T13:42:50.978Z</time></trkpt><trkpt lat="42.232639562773294" lon="12.97750757808908"><ele>916.4000000000001</ele><time>2026-04-19T13:42:51.978Z</time></trkpt><trkpt lat="42.23254052939099" lon="12.977524149619853"><ele>913.8000000000001</ele><time>2026-04-19T13:42:52.978Z</time></trkpt><trkpt lat="42.23244616880102" lon="12.977525691136186"><ele>911.1999999999999</ele><time>2026-04-19T13:42:53.978Z</time></trkpt><trkpt lat="42.2323520911764" lon="12.97752217641361"><ele>908.5999999999999</ele><time>2026-04-19T13:42:54.978Z</time></trkpt><trkpt lat="42.232252336515444" lon="12.977513985395545"><ele>906.0</ele><time>2026-04-19T13:42:55.978Z</time></trkpt><trkpt lat="42.23215375743753" lon="12.977502827541066"><ele>906.0</ele><time>2026-04-19T13:42:56.978Z</time></trkpt><trkpt lat="42.23204710175025" lon="12.977501990717494"><ele>906.0</ele><time>2026-04-19T13:42:57.978Z</time></trkpt><trkpt lat="42.231934848556705" lon="12.97747395897185"><ele>906.0</ele><time>2026-04-19T13:42:58.978Z</time></trkpt><trkpt lat="42.23182331729986" lon="12.977429843583614"><ele>906.0</ele><time>2026-04-19T13:42:59.978Z</time></trkpt><trkpt lat="42.231705304097325" lon="12.977404326230781"><ele>906.0</ele><time>2026-04-19T13:43:00.978Z</time></trkpt><trkpt lat="42.231592842043135" lon="12.977389573726784"><ele>906.0</ele><time>2026-04-19T13:43:01.978Z</time></trkpt><trkpt lat="42.23147321515589" lon="12.97737758176848"><ele>906.0</ele><time>2026-04-19T13:43:02.978Z</time></trkpt><trkpt lat="42.231346593180454" lon="12.977358434315928"><ele>906.0</ele><time>2026-04-19T13:43:03.978Z</time></trkpt><trkpt lat="42.23122141440275" lon="12.97733757532733"><ele>902.5</ele><time>2026-04-19T13:43:04.978Z</time></trkpt><trkpt lat="42.231104350934395" lon="12.97729587461301"><ele>899.0</ele><time>2026-04-19T13:43:05.978Z</time></trkpt><trkpt lat="42.23098537597127" lon="12.97727366866953"><ele>895.5</ele><time>2026-04-19T13:43:06.978Z</time></trkpt><trkpt lat="42.230873148922655" lon="12.977248854598848"><ele>892.0</ele><time>2026-04-19T13:43:07.978Z</time></trkpt><trkpt lat="42.23077708329892" lon="12.977216862099487"><ele>892.0</ele><time>2026-04-19T13:43:08.978Z</time></trkpt><trkpt lat="42.23069587107298" lon="12.97717086509019"><ele>892.0</ele><time>2026-04-19T13:43:09.978Z</time></trkpt><trkpt lat="42.23063253545393" lon="12.977115556839733"><ele>892.0</ele><time>2026-04-19T13:43:10.978Z</time></trkpt><trkpt lat="42.23058143278135" lon="12.97705681160188"><ele>892.0</ele><time>2026-04-19T13:43:11.978Z</time></trkpt><trkpt lat="42.23055032428985" lon="12.976908885548168"><ele>892.0</ele><time>2026-04-19T13:43:13.978Z</time></trkpt><trkpt lat="42.23059666788564" lon="12.97676033743167"><ele>891.1666666666666</ele><time>2026-04-19T13:43:15.978Z</time></trkpt><trkpt lat="42.23064467008496" lon="12.976685462878676"><ele>890.3333333333333</ele><time>2026-04-19T13:43:16.978Z</time></trkpt><trkpt lat="42.230704184233375" lon="12.976614344400481"><ele>889.5</ele><time>2026-04-19T13:43:17.978Z</time></trkpt><trkpt lat="42.230768831677906" lon="12.976534206147903"><ele>888.6666666666667</ele><time>2026-04-19T13:43:18.978Z</time></trkpt><trkpt lat="42.23083824426596" lon="12.97645872497979"><ele>887.8333333333334</ele><time>2026-04-19T13:43:19.978Z</time></trkpt><trkpt lat="42.23092942248983" lon="12.976403651144153"><ele>887.0</ele><time>2026-04-19T13:43:20.978Z</time></trkpt><trkpt lat="42.231014917487556" lon="12.97632379054149"><ele>887.0</ele><time>2026-04-19T13:43:21.978Z</time></trkpt><trkpt lat="42.231099712073714" lon="12.97623897961168"><ele>887.0</ele><time>2026-04-19T13:43:22.978Z</time></trkpt><trkpt lat="42.23118374215939" lon="12.976155052742898"><ele>887.0</ele><time>2026-04-19T13:43:23.978Z</time></trkpt><trkpt lat="42.23125701963115" lon="12.976070838217565"><ele>887.0</ele><time>2026-04-19T13:43:24.978Z</time></trkpt><trkpt lat="42.23131753969143" lon="12.975993096224904"><ele>887.0</ele><time>2026-04-19T13:43:25.978Z</time></trkpt><trkpt lat="42.23136244371953" lon="12.975920122442322"><ele>884.0000000000001</ele><time>2026-04-19T13:43:26.978Z</time></trkpt><trkpt lat="42.231403965134845" lon="12.97584078606834"><ele>881.0</ele><time>2026-04-19T13:43:27.978Z</time></trkpt><trkpt lat="42.231415092565214" lon="12.97574433640741"><ele>878.0</ele><time>2026-04-19T13:43:28.978Z</time></trkpt><trkpt lat="42.23138978378934" lon="12.975656574190904"><ele>875.0</ele><time>2026-04-19T13:43:29.978Z</time></trkpt><trkpt lat="42.23137585377822" lon="12.975550675345627"><ele>872.0000000000001</ele><time>2026-04-19T13:43:30.978Z</time></trkpt><trkpt lat="42.23133865621281" lon="12.975454283004373"><ele>869.0</ele><time>2026-04-19T13:43:31.978Z</time></trkpt><trkpt lat="42.23128677321962" lon="12.975354566242796"><ele>869.0</ele><time>2026-04-19T13:43:32.978Z</time></trkpt><trkpt lat="42.23122853986486" lon="12.975262757592724"><ele>869.0000000000001</ele><time>2026-04-19T13:43:33.978Z</time></trkpt><trkpt lat="42.23116529160819" lon="12.975177212500729"><ele>869.0000000000001</ele><time>2026-04-19T13:43:34.977Z</time></trkpt><trkpt lat="42.23109439841556" lon="12.975092205663358"><ele>869.0</ele><time>2026-04-19T13:43:35.977Z</time></trkpt><trkpt lat="42.23101872030239" lon="12.975010267345247"><ele>869.0</ele><time>2026-04-19T13:43:36.977Z</time></trkpt><trkpt lat="42.23093581150505" lon="12.974927162897188"><ele>867.0</ele><time>2026-04-19T13:43:37.991Z</time></trkpt><trkpt lat="42.23084148726754" lon="12.974859092702257"><ele>865.0000000000001</ele><time>2026-04-19T13:43:38.991Z</time></trkpt><trkpt lat="42.23077216004776" lon="12.974753485168517"><ele>863.0000000000001</ele><time>2026-04-19T13:43:39.991Z</time></trkpt><trkpt lat="42.23069036810155" lon="12.974661832815485"><ele>861.0</ele><time>2026-04-19T13:43:40.991Z</time></trkpt><trkpt lat="42.23060645984848" lon="12.974566642735082"><ele>859.0</ele><time>2026-04-19T13:43:41.991Z</time></trkpt><trkpt lat="42.23052662036322" lon="12.974472627654505"><ele>855.4999999999999</ele><time>2026-04-19T13:43:42.991Z</time></trkpt><trkpt lat="42.23045274913841" lon="12.974386595878132"><ele>852.0</ele><time>2026-04-19T13:43:43.991Z</time></trkpt><trkpt lat="42.230375941731154" lon="12.974304053659832"><ele>848.5</ele><time>2026-04-19T13:43:44.991Z</time></trkpt><trkpt lat="42.23030189207639" lon="12.974231914861141"><ele>845.0</ele><time>2026-04-19T13:43:45.991Z</time></trkpt><trkpt lat="42.230232868554815" lon="12.97417416087872"><ele>841.4999999999999</ele><time>2026-04-19T13:43:46.991Z</time></trkpt><trkpt lat="42.23015970340375" lon="12.974143567559269"><ele>838.0</ele><time>2026-04-19T13:43:47.991Z</time></trkpt><trkpt lat="42.23008792907872" lon="12.974068460836527"><ele>838.0</ele><time>2026-04-19T13:43:49.991Z</time></trkpt><trkpt lat="42.23001647478282" lon="12.973998693187829"><ele>838.0</ele><time>2026-04-19T13:44:16.99Z</time></trkpt><trkpt lat="42.2299331114911" lon="12.97394808626247"><ele>838.0</ele><time>2026-04-19T13:44:19.99Z</time></trkpt><trkpt lat="42.22985420653985" lon="12.973998689197394"><ele>838.0</ele><time>2026-04-19T13:44:21.99Z</time></trkpt><trkpt lat="42.229775187703" lon="12.973955860517377"><ele>838.0</ele><time>2026-04-19T13:44:23.992Z</time></trkpt><trkpt lat="42.22964763791553" lon="12.973877779972687"><ele>835.0</ele><time>2026-04-19T13:44:25.992Z</time></trkpt><trkpt lat="42.229564520975586" lon="12.973834611812306"><ele>832.0</ele><time>2026-04-19T13:44:26.991Z</time></trkpt><trkpt lat="42.229504676100305" lon="12.973707820237195"><ele>829.0</ele><time>2026-04-19T13:44:27.992Z</time></trkpt><trkpt lat="42.22942298473953" lon="12.973679036098048"><ele>826.0</ele><time>2026-04-19T13:44:28.992Z</time></trkpt><trkpt lat="42.22934281630091" lon="12.973655441631191"><ele>823.0</ele><time>2026-04-19T13:44:29.992Z</time></trkpt><trkpt lat="42.22926132751856" lon="12.973633209702149"><ele>822.9999999999999</ele><time>2026-04-19T13:44:30.991Z</time></trkpt><trkpt lat="42.22918378726719" lon="12.973614130164384"><ele>823.0</ele><time>2026-04-19T13:44:31.991Z</time></trkpt><trkpt lat="42.22911041628376" lon="12.973616367375914"><ele>823.0</ele><time>2026-04-19T13:44:32.992Z</time></trkpt><trkpt lat="42.229049742397585" lon="12.973577984593705"><ele>823.0</ele><time>2026-04-19T13:44:33.992Z</time></trkpt><trkpt lat="42.22898178478918" lon="12.973480949408314"><ele>822.9999999999999</ele><time>2026-04-19T13:44:35.992Z</time></trkpt><trkpt lat="42.2289816527393" lon="12.973378129021311"><ele>823.0</ele><time>2026-04-19T13:44:37.992Z</time></trkpt><trkpt lat="42.22905560457319" lon="12.973297852308418"><ele>824.0</ele><time>2026-04-19T13:44:39.992Z</time></trkpt><trkpt lat="42.22918182696308" lon="12.973317754787432"><ele>825.0</ele><time>2026-04-19T13:44:41.992Z</time></trkpt><trkpt lat="42.22925468077025" lon="12.973311992826755"><ele>826.0</ele><time>2026-04-19T13:44:42.992Z</time></trkpt><trkpt lat="42.22934069715446" lon="12.973298373972625"><ele>827.0</ele><time>2026-04-19T13:44:43.992Z</time></trkpt><trkpt lat="42.229425114339016" lon="12.973275542571297"><ele>828.0</ele><time>2026-04-19T13:44:44.992Z</time></trkpt><trkpt lat="42.22951156336327" lon="12.973237189939745"><ele>828.0</ele><time>2026-04-19T13:44:45.992Z</time></trkpt><trkpt lat="42.22959786258194" lon="12.97319227229458"><ele>828.0</ele><time>2026-04-19T13:44:46.992Z</time></trkpt><trkpt lat="42.2296833841972" lon="12.973148801023072"><ele>828.0</ele><time>2026-04-19T13:44:47.992Z</time></trkpt><trkpt lat="42.22977088859826" lon="12.973099257990185"><ele>828.0</ele><time>2026-04-19T13:44:48.992Z</time></trkpt><trkpt lat="42.22986037777662" lon="12.97306102250904"><ele>828.0</ele><time>2026-04-19T13:44:49.992Z</time></trkpt><trkpt lat="42.22995370125694" lon="12.973027038842273"><ele>828.2</ele><time>2026-04-19T13:44:50.992Z</time></trkpt><trkpt lat="42.23004762151595" lon="12.972991489129413"><ele>828.4</ele><time>2026-04-19T13:44:51.992Z</time></trkpt><trkpt lat="42.23013754649642" lon="12.972952398543615"><ele>828.6</ele><time>2026-04-19T13:44:52.992Z</time></trkpt><trkpt lat="42.23022906967312" lon="12.972908585040498"><ele>828.8000000000001</ele><time>2026-04-19T13:44:53.992Z</time></trkpt><trkpt lat="42.230317891414686" lon="12.972859130390962"><ele>829.0</ele><time>2026-04-19T13:44:54.992Z</time></trkpt><trkpt lat="42.230411185845924" lon="12.972820642721718"><ele>829.0</ele><time>2026-04-19T13:44:55.992Z</time></trkpt><trkpt lat="42.23050883383345" lon="12.972783117188106"><ele>829.0</ele><time>2026-04-19T13:44:56.992Z</time></trkpt><trkpt lat="42.230618445903175" lon="12.972762756305665"><ele>829.0</ele><time>2026-04-19T13:44:57.992Z</time></trkpt><trkpt lat="42.23072933757189" lon="12.972732014675474"><ele>829.0</ele><time>2026-04-19T13:44:58.992Z</time></trkpt><trkpt lat="42.23084107770851" lon="12.972700380157704"><ele>829.0</ele><time>2026-04-19T13:44:59.992Z</time></trkpt><trkpt lat="42.23095003259067" lon="12.972655131719204"><ele>830.25</ele><time>2026-04-19T13:45:00.992Z</time></trkpt><trkpt lat="42.231057981311594" lon="12.972594306129519"><ele>831.5</ele><time>2026-04-19T13:45:01.992Z</time></trkpt><trkpt lat="42.231164122273384" lon="12.972529384300094"><ele>832.75</ele><time>2026-04-19T13:45:02.992Z</time></trkpt><trkpt lat="42.23127957905427" lon="12.972476187352688"><ele>834.0</ele><time>2026-04-19T13:45:03.992Z</time></trkpt><trkpt lat="42.23139058364032" lon="12.972422038437605"><ele>828.4000000000001</ele><time>2026-04-19T13:45:04.992Z</time></trkpt><trkpt lat="42.231496082443684" lon="12.972379599526752"><ele>822.8</ele><time>2026-04-19T13:45:05.992Z</time></trkpt><trkpt lat="42.231595103393005" lon="12.972332129362334"><ele>817.2</ele><time>2026-04-19T13:45:06.992Z</time></trkpt><trkpt lat="42.23168245373168" lon="12.97228470901027"><ele>811.5999999999999</ele><time>2026-04-19T13:45:07.991Z</time></trkpt><trkpt lat="42.23176988591984" lon="12.9722147986905"><ele>806.0</ele><time>2026-04-19T13:45:08.991Z</time></trkpt><trkpt lat="42.23185929588206" lon="12.97213128909801"><ele>806.0</ele><time>2026-04-19T13:45:09.991Z</time></trkpt><trkpt lat="42.23194864000049" lon="12.972047868331467"><ele>806.0</ele><time>2026-04-19T13:45:10.991Z</time></trkpt><trkpt lat="42.23205250639482" lon="12.971972160233577"><ele>806.0</ele><time>2026-04-19T13:45:11.991Z</time></trkpt><trkpt lat="42.23215868609126" lon="12.971905977667499"><ele>806.0</ele><time>2026-04-19T13:45:12.991Z</time></trkpt><trkpt lat="42.23226313512308" lon="12.971848654099364"><ele>807.5999999999999</ele><time>2026-04-19T13:45:13.991Z</time></trkpt><trkpt lat="42.232360612287025" lon="12.971786951140489"><ele>809.2</ele><time>2026-04-19T13:45:14.991Z</time></trkpt><trkpt lat="42.23247017467327" lon="12.971743345052666"><ele>810.8</ele><time>2026-04-19T13:45:15.991Z</time></trkpt><trkpt lat="42.232574177285976" lon="12.971678876495691"><ele>812.4000000000001</ele><time>2026-04-19T13:45:16.991Z</time></trkpt><trkpt lat="42.23266292054772" lon="12.97161064589282"><ele>814.0</ele><time>2026-04-19T13:45:17.991Z</time></trkpt><trkpt lat="42.232728239934495" lon="12.97151864256398"><ele>807.6666666666666</ele><time>2026-04-19T13:45:18.991Z</time></trkpt><trkpt lat="42.23277487894072" lon="12.971452211672752"><ele>801.3333333333333</ele><time>2026-04-19T13:45:19.991Z</time></trkpt><trkpt lat="42.23282577429414" lon="12.971391667712105"><ele>795.0</ele><time>2026-04-19T13:45:20.991Z</time></trkpt><trkpt lat="42.23285113384239" lon="12.971259135558812"><ele>788.6666666666667</ele><time>2026-04-19T13:45:22.991Z</time></trkpt><trkpt lat="42.232859087442634" lon="12.971166838634291"><ele>782.3333333333334</ele><time>2026-04-19T13:45:25.991Z</time></trkpt><trkpt lat="42.23284276740222" lon="12.971081744163401"><ele>776.0</ele><time>2026-04-19T13:45:27.991Z</time></trkpt><trkpt lat="42.23277925401733" lon="12.970966674511882"><ele>776.0000000000001</ele><time>2026-04-19T13:45:29.991Z</time></trkpt><trkpt lat="42.23273062687143" lon="12.97089720110927"><ele>776.0</ele><time>2026-04-19T13:45:30.991Z</time></trkpt><trkpt lat="42.23268331992955" lon="12.970812529368754"><ele>776.0</ele><time>2026-04-19T13:45:31.991Z</time></trkpt><trkpt lat="42.23261840724579" lon="12.970735896726806"><ele>776.0</ele><time>2026-04-19T13:45:32.991Z</time></trkpt><trkpt lat="42.23254698638888" lon="12.970658795098993"><ele>776.0000000000001</ele><time>2026-04-19T13:45:33.991Z</time></trkpt><trkpt lat="42.23245366045038" lon="12.97059715199841"><ele>776.0</ele><time>2026-04-19T13:45:34.991Z</time></trkpt><trkpt lat="42.23237393637475" lon="12.97049691628142"><ele>768.25</ele><time>2026-04-19T13:45:35.991Z</time></trkpt><trkpt lat="42.23227945772537" lon="12.970410163099164"><ele>760.5</ele><time>2026-04-19T13:45:36.991Z</time></trkpt><trkpt lat="42.23218403546594" lon="12.970318439748524"><ele>752.75</ele><time>2026-04-19T13:45:37.991Z</time></trkpt><trkpt lat="42.23209794968539" lon="12.97021404843393"><ele>745.0</ele><time>2026-04-19T13:45:38.991Z</time></trkpt><trkpt lat="42.23200569469607" lon="12.970089023890086"><ele>744.0</ele><time>2026-04-19T13:45:39.991Z</time></trkpt><trkpt lat="42.23189389711903" lon="12.970024643268818"><ele>743.0</ele><time>2026-04-19T13:45:40.991Z</time></trkpt><trkpt lat="42.23180149684092" lon="12.969959202317868"><ele>742.0</ele><time>2026-04-19T13:45:41.991Z</time></trkpt><trkpt lat="42.23170735710114" lon="12.969892385910384"><ele>741.0</ele><time>2026-04-19T13:45:42.991Z</time></trkpt><trkpt lat="42.231645767523354" lon="12.969831966623193"><ele>740.0</ele><time>2026-04-19T13:45:43.991Z</time></trkpt><trkpt lat="42.23160535593941" lon="12.969762209912748"><ele>740.0</ele><time>2026-04-19T13:45:44.991Z</time></trkpt><trkpt lat="42.23157408147408" lon="12.969572001592189"><ele>740.0</ele><time>2026-04-19T13:45:46.991Z</time></trkpt><trkpt lat="42.23157725988251" lon="12.969452589847418"><ele>740.0</ele><time>2026-04-19T13:45:47.991Z</time></trkpt><trkpt lat="42.23158333639114" lon="12.96933698456769"><ele>740.0</ele><time>2026-04-19T13:45:48.991Z</time></trkpt><trkpt lat="42.23158673508103" lon="12.969239373823985"><ele>740.0</ele><time>2026-04-19T13:45:49.991Z</time></trkpt><trkpt lat="42.23155081191796" lon="12.969068264165157"><ele>741.6</ele><time>2026-04-19T13:45:51.991Z</time></trkpt><trkpt lat="42.231482454635184" lon="12.969000957007447"><ele>743.2</ele><time>2026-04-19T13:45:52.991Z</time></trkpt><trkpt lat="42.231390707570455" lon="12.968973312965042"><ele>744.8</ele><time>2026-04-19T13:45:53.991Z</time></trkpt><trkpt lat="42.231300720732555" lon="12.968939598259265"><ele>746.4</ele><time>2026-04-19T13:45:54.991Z</time></trkpt><trkpt lat="42.23121503440352" lon="12.96889134811669"><ele>748.0</ele><time>2026-04-19T13:45:55.991Z</time></trkpt><trkpt lat="42.231135219663614" lon="12.968794153642705"><ele>743.0</ele><time>2026-04-19T13:45:56.991Z</time></trkpt><trkpt lat="42.23106193730858" lon="12.96871356684923"><ele>738.0</ele><time>2026-04-19T13:45:57.991Z</time></trkpt><trkpt lat="42.23099858550912" lon="12.968625286928644"><ele>733.0</ele><time>2026-04-19T13:45:58.991Z</time></trkpt><trkpt lat="42.230943185185886" lon="12.968529357086389"><ele>728.0</ele><time>2026-04-19T13:45:59.99Z</time></trkpt><trkpt lat="42.230930712895095" lon="12.968393310946336"><ele>723.0</ele><time>2026-04-19T13:46:00.99Z</time></trkpt><trkpt lat="42.23092147076164" lon="12.968253700579782"><ele>723.0</ele><time>2026-04-19T13:46:01.99Z</time></trkpt><trkpt lat="42.23091545114777" lon="12.96811033175478"><ele>723.0</ele><time>2026-04-19T13:46:02.99Z</time></trkpt><trkpt lat="42.230910161747936" lon="12.967963658133142"><ele>723.0</ele><time>2026-04-19T13:46:03.99Z</time></trkpt><trkpt lat="42.230897568513925" lon="12.967829730147816"><ele>723.0</ele><time>2026-04-19T13:46:04.99Z</time></trkpt><trkpt lat="42.23091622258546" lon="12.967697998134234"><ele>723.0</ele><time>2026-04-19T13:46:05.99Z</time></trkpt><trkpt lat="42.23094740822521" lon="12.967575637248576"><ele>721.8</ele><time>2026-04-19T13:46:06.99Z</time></trkpt><trkpt lat="42.230988578070445" lon="12.967466205140445"><ele>720.5999999999999</ele><time>2026-04-19T13:46:07.99Z</time></trkpt><trkpt lat="42.231059464143776" lon="12.967369510637443"><ele>719.4000000000001</ele><time>2026-04-19T13:46:08.99Z</time></trkpt><trkpt lat="42.231124086120715" lon="12.96726570878701"><ele>718.2</ele><time>2026-04-19T13:46:09.99Z</time></trkpt><trkpt lat="42.231181949580154" lon="12.967144118772984"><ele>717.0</ele><time>2026-04-19T13:46:10.99Z</time></trkpt><trkpt lat="42.23125183501377" lon="12.967035574142143"><ele>717.0</ele><time>2026-04-19T13:46:11.99Z</time></trkpt><trkpt lat="42.23131408561914" lon="12.96691156224668"><ele>717.0</ele><time>2026-04-19T13:46:12.99Z</time></trkpt><trkpt lat="42.23136813146956" lon="12.966783609524422"><ele>717.0</ele><time>2026-04-19T13:46:13.99Z</time></trkpt><trkpt lat="42.231435195446494" lon="12.966659355227936"><ele>717.0</ele><time>2026-04-19T13:46:14.99Z</time></trkpt><trkpt lat="42.23148695842964" lon="12.96652142232408"><ele>717.0</ele><time>2026-04-19T13:46:15.99Z</time></trkpt><trkpt lat="42.23154867943873" lon="12.9664020561137"><ele>718.8</ele><time>2026-04-19T13:46:16.99Z</time></trkpt><trkpt lat="42.23160821336833" lon="12.966289272636425"><ele>720.6</ele><time>2026-04-19T13:46:17.99Z</time></trkpt><trkpt lat="42.23165362486309" lon="12.966181564269524"><ele>722.4</ele><time>2026-04-19T13:46:18.99Z</time></trkpt><trkpt lat="42.23169703640977" lon="12.966081162772607"><ele>724.1999999999999</ele><time>2026-04-19T13:46:19.99Z</time></trkpt><trkpt lat="42.23176301167194" lon="12.965988437046326"><ele>726.0</ele><time>2026-04-19T13:46:20.99Z</time></trkpt><trkpt lat="42.231844934402496" lon="12.965899639215925"><ele>720.5999999999999</ele><time>2026-04-19T13:46:21.99Z</time></trkpt><trkpt lat="42.23193315658815" lon="12.96580617727286"><ele>715.2</ele><time>2026-04-19T13:46:22.99Z</time></trkpt><trkpt lat="42.23201048592914" lon="12.96572446594565"><ele>709.8</ele><time>2026-04-19T13:46:23.99Z</time></trkpt><trkpt lat="42.232085697311334" lon="12.96564485634523"><ele>704.4000000000001</ele><time>2026-04-19T13:46:24.99Z</time></trkpt><trkpt lat="42.23215550251392" lon="12.965582079699647"><ele>699.0</ele><time>2026-04-19T13:46:25.99Z</time></trkpt><trkpt lat="42.23222410771666" lon="12.965531526156528"><ele>700.0</ele><time>2026-04-19T13:46:26.99Z</time></trkpt><trkpt lat="42.232309577123154" lon="12.965531933689887"><ele>701.0</ele><time>2026-04-19T13:46:27.99Z</time></trkpt><trkpt lat="42.23238828136698" lon="12.965527908658961"><ele>702.0</ele><time>2026-04-19T13:46:28.99Z</time></trkpt><trkpt lat="42.23247339769733" lon="12.96553021772777"><ele>703.0</ele><time>2026-04-19T13:46:29.991Z</time></trkpt><trkpt lat="42.232555836014654" lon="12.965540760435461"><ele>704.0</ele><time>2026-04-19T13:46:30.991Z</time></trkpt><trkpt lat="42.23262489964765" lon="12.965559414143438"><ele>705.0</ele><time>2026-04-19T13:46:31.991Z</time></trkpt><trkpt lat="42.23269792864607" lon="12.965605765508474"><ele>705.0</ele><time>2026-04-19T13:46:32.991Z</time></trkpt><trkpt lat="42.232761193365896" lon="12.965670459350713"><ele>705.0</ele><time>2026-04-19T13:46:33.991Z</time></trkpt><trkpt lat="42.23280874207654" lon="12.965727134566404"><ele>705.0</ele><time>2026-04-19T13:46:34.991Z</time></trkpt><trkpt lat="42.23287517898079" lon="12.96581285404258"><ele>705.0</ele><time>2026-04-19T13:46:35.991Z</time></trkpt><trkpt lat="42.23292931804035" lon="12.965889105190893"><ele>705.0</ele><time>2026-04-19T13:46:36.991Z</time></trkpt><trkpt lat="42.233005816981304" lon="12.965949866216377"><ele>705.0</ele><time>2026-04-19T13:46:37.991Z</time></trkpt><trkpt lat="42.23309785720737" lon="12.965975550000262"><ele>703.8333333333334</ele><time>2026-04-19T13:46:38.991Z</time></trkpt><trkpt lat="42.233172264993364" lon="12.965964550022242"><ele>702.6666666666666</ele><time>2026-04-19T13:46:39.99Z</time></trkpt><trkpt lat="42.233246319171585" lon="12.965930224978374"><ele>701.5</ele><time>2026-04-19T13:46:40.99Z</time></trkpt><trkpt lat="42.23334914139421" lon="12.965860705113183"><ele>700.3333333333333</ele><time>2026-04-19T13:46:42.991Z</time></trkpt><trkpt lat="42.233428915568936" lon="12.965788749143353"><ele>699.1666666666666</ele><time>2026-04-19T13:46:44.991Z</time></trkpt><trkpt lat="42.23347580572648" lon="12.965724298163936"><ele>698.0</ele><time>2026-04-19T13:46:46.99Z</time></trkpt><trkpt lat="42.23351137515042" lon="12.965647899139016"><ele>698.0</ele><time>2026-04-19T13:46:48.99Z</time></trkpt><trkpt lat="42.233520336523725" lon="12.965533784025792"><ele>698.0</ele><time>2026-04-19T13:46:50.99Z</time></trkpt><trkpt lat="42.23346983817705" lon="12.965464876959691"><ele>698.0</ele><time>2026-04-19T13:46:52.99Z</time></trkpt><trkpt lat="42.23335926370186" lon="12.965452156256712"><ele>698.0</ele><time>2026-04-19T13:46:54.99Z</time></trkpt><trkpt lat="42.23328372655807" lon="12.965463631395425"><ele>698.0</ele><time>2026-04-19T13:46:56.99Z</time></trkpt><trkpt lat="42.233240778329645" lon="12.965397912258567"><ele>698.0</ele><time>2026-04-19T13:46:57.99Z</time></trkpt><trkpt lat="42.23320561183123" lon="12.965324298103175"><ele>698.0</ele><time>2026-04-19T13:46:58.99Z</time></trkpt><trkpt lat="42.2331721408441" lon="12.96521690884557"><ele>698.0</ele><time>2026-04-19T13:46:59.99Z</time></trkpt><trkpt lat="42.23310185672777" lon="12.965139992901099"><ele>698.0</ele><time>2026-04-19T13:47:00.99Z</time></trkpt><trkpt lat="42.23302110091527" lon="12.965092698045753"><ele>698.0</ele><time>2026-04-19T13:47:01.99Z</time></trkpt><trkpt lat="42.23294397299882" lon="12.965012849146609"><ele>698.0</ele><time>2026-04-19T13:47:02.99Z</time></trkpt><trkpt lat="42.2328709830644" lon="12.964894409318644"><ele>694.2</ele><time>2026-04-19T13:47:03.99Z</time></trkpt><trkpt lat="42.23279381270997" lon="12.964806825531637"><ele>690.4</ele><time>2026-04-19T13:47:04.99Z</time></trkpt><trkpt lat="42.23271381179893" lon="12.964723827427628"><ele>686.6</ele><time>2026-04-19T13:47:05.99Z</time></trkpt><trkpt lat="42.23263841080945" lon="12.964648680028288"><ele>682.8000000000001</ele><time>2026-04-19T13:47:06.99Z</time></trkpt><trkpt lat="42.232535594162385" lon="12.964575282838862"><ele>679.0</ele><time>2026-04-19T13:47:07.99Z</time></trkpt><trkpt lat="42.23245669475179" lon="12.964501580798263"><ele>679.0</ele><time>2026-04-19T13:47:08.99Z</time></trkpt><trkpt lat="42.232394781778815" lon="12.964421755332948"><ele>679.0</ele><time>2026-04-19T13:47:09.99Z</time></trkpt><trkpt lat="42.23230925390795" lon="12.964382754987097"><ele>679.0</ele><time>2026-04-19T13:47:10.99Z</time></trkpt><trkpt lat="42.23221398406276" lon="12.9643687580342"><ele>679.0</ele><time>2026-04-19T13:47:11.99Z</time></trkpt><trkpt lat="42.232105687083525" lon="12.964357154320238"><ele>679.0</ele><time>2026-04-19T13:47:12.99Z</time></trkpt><trkpt lat="42.23198748624668" lon="12.964349297707534"><ele>677.25</ele><time>2026-04-19T13:47:13.99Z</time></trkpt><trkpt lat="42.231873915478644" lon="12.964358623586469"><ele>675.5</ele><time>2026-04-19T13:47:14.99Z</time></trkpt><trkpt lat="42.2317589704276" lon="12.96435652052589"><ele>673.75</ele><time>2026-04-19T13:47:15.99Z</time></trkpt><trkpt lat="42.231639989699154" lon="12.964337041883397"><ele>672.0</ele><time>2026-04-19T13:47:16.99Z</time></trkpt><trkpt lat="42.231522062791534" lon="12.964329915582537"><ele>669.5</ele><time>2026-04-19T13:47:17.99Z</time></trkpt><trkpt lat="42.23140505398812" lon="12.964335276528434"><ele>667.0</ele><time>2026-04-19T13:47:18.99Z</time></trkpt><trkpt lat="42.23128167170436" lon="12.964358190693288"><ele>664.5</ele><time>2026-04-19T13:47:19.99Z</time></trkpt><trkpt lat="42.231158491778906" lon="12.964345549257754"><ele>662.0</ele><time>2026-04-19T13:47:20.99Z</time></trkpt><trkpt lat="42.23102889729266" lon="12.964364195089827"><ele>662.0</ele><time>2026-04-19T13:47:21.99Z</time></trkpt><trkpt lat="42.230903196101636" lon="12.964396683614085"><ele>662.0</ele><time>2026-04-19T13:47:22.99Z</time></trkpt><trkpt lat="42.230790060624" lon="12.964428173646763"><ele>662.0</ele><time>2026-04-19T13:47:23.99Z</time></trkpt><trkpt lat="42.230680363073326" lon="12.964451923269175"><ele>662.0</ele><time>2026-04-19T13:47:24.99Z</time></trkpt><trkpt lat="42.2305702172272" lon="12.964462231576881"><ele>659.6</ele><time>2026-04-19T13:47:25.99Z</time></trkpt><trkpt lat="42.23045309445036" lon="12.964472706655858"><ele>657.2</ele><time>2026-04-19T13:47:26.99Z</time></trkpt><trkpt lat="42.23034590440152" lon="12.964483784315208"><ele>654.8</ele><time>2026-04-19T13:47:27.99Z</time></trkpt><trkpt lat="42.230241261357726" lon="12.964503954527524"><ele>652.4</ele><time>2026-04-19T13:47:28.99Z</time></trkpt><trkpt lat="42.23014121670628" lon="12.96453694342696"><ele>650.0</ele><time>2026-04-19T13:47:29.99Z</time></trkpt><trkpt lat="42.23004419778788" lon="12.964592655245132"><ele>650.0</ele><time>2026-04-19T13:47:30.99Z</time></trkpt><trkpt lat="42.2299718624277" lon="12.964639413302564"><ele>650.0</ele><time>2026-04-19T13:47:31.99Z</time></trkpt><trkpt lat="42.229895546013246" lon="12.96466177480809"><ele>650.0</ele><time>2026-04-19T13:47:32.99Z</time></trkpt><trkpt lat="42.22981918611583" lon="12.964651200233973"><ele>650.0</ele><time>2026-04-19T13:47:33.99Z</time></trkpt><trkpt lat="42.22973398002026" lon="12.964637615048556"><ele>650.0</ele><time>2026-04-19T13:47:34.99Z</time></trkpt><trkpt lat="42.229656937012216" lon="12.96463652016153"><ele>650.0</ele><time>2026-04-19T13:47:35.99Z</time></trkpt><trkpt lat="42.22956751445489" lon="12.9646655286645"><ele>648.0</ele><time>2026-04-19T13:47:36.99Z</time></trkpt><trkpt lat="42.22949635778734" lon="12.964711609625535"><ele>646.0</ele><time>2026-04-19T13:47:37.989Z</time></trkpt><trkpt lat="42.229431004310825" lon="12.964758940158495"><ele>644.0</ele><time>2026-04-19T13:47:38.989Z</time></trkpt><trkpt lat="42.22936865250621" lon="12.964794689371702"><ele>642.0</ele><time>2026-04-19T13:47:39.989Z</time></trkpt><trkpt lat="42.229273823137625" lon="12.964813954689799"><ele>640.0</ele><time>2026-04-19T13:47:40.989Z</time></trkpt><trkpt lat="42.22919298806202" lon="12.964785531879324"><ele>638.0</ele><time>2026-04-19T13:47:41.989Z</time></trkpt><trkpt lat="42.22908985300608" lon="12.964731018780782"><ele>638.0</ele><time>2026-04-19T13:47:42.989Z</time></trkpt><trkpt lat="42.228981504205805" lon="12.964684263183019"><ele>638.0</ele><time>2026-04-19T13:47:43.989Z</time></trkpt><trkpt lat="42.22887426099447" lon="12.964649526997851"><ele>638.0</ele><time>2026-04-19T13:47:44.989Z</time></trkpt><trkpt lat="42.228754176734014" lon="12.964622674845986"><ele>638.0</ele><time>2026-04-19T13:47:45.989Z</time></trkpt><trkpt lat="42.228649479641334" lon="12.964625376350751"><ele>636.8333333333333</ele><time>2026-04-19T13:47:46.989Z</time></trkpt><trkpt lat="42.228554136682554" lon="12.964606624536437"><ele>635.6666666666666</ele><time>2026-04-19T13:47:47.989Z</time></trkpt><trkpt lat="42.228469741760755" lon="12.964601813527736"><ele>634.5</ele><time>2026-04-19T13:47:48.989Z</time></trkpt><trkpt lat="42.22839631325879" lon="12.96460200934367"><ele>633.3333333333334</ele><time>2026-04-19T13:47:49.989Z</time></trkpt><trkpt lat="42.22833079281531" lon="12.964599474856296"><ele>632.1666666666667</ele><time>2026-04-19T13:47:50.989Z</time></trkpt><trkpt lat="42.22826643959656" lon="12.964572510995701"><ele>631.0</ele><time>2026-04-19T13:47:51.989Z</time></trkpt><trkpt lat="42.22820168748195" lon="12.964522659697959"><ele>630.0</ele><time>2026-04-19T13:47:52.989Z</time></trkpt><trkpt lat="42.228127717407986" lon="12.964462303966561"><ele>629.0</ele><time>2026-04-19T13:47:53.989Z</time></trkpt><trkpt lat="42.22804196399574" lon="12.964392101990434"><ele>628.0</ele><time>2026-04-19T13:47:54.989Z</time></trkpt><trkpt lat="42.22795095674136" lon="12.964305200630863"><ele>627.0</ele><time>2026-04-19T13:47:55.989Z</time></trkpt><trkpt lat="42.227862079856045" lon="12.964210518216102"><ele>626.0</ele><time>2026-04-19T13:47:56.989Z</time></trkpt><trkpt lat="42.22779254568613" lon="12.964092460338183"><ele>626.0</ele><time>2026-04-19T13:47:57.989Z</time></trkpt><trkpt lat="42.22772004638123" lon="12.96397548751562"><ele>626.0</ele><time>2026-04-19T13:47:58.989Z</time></trkpt><trkpt lat="42.227646701364186" lon="12.963875015968469"><ele>626.0</ele><time>2026-04-19T13:47:59.989Z</time></trkpt><trkpt lat="42.22756322889597" lon="12.963767133724996"><ele>626.0</ele><time>2026-04-19T13:48:00.989Z</time></trkpt><trkpt lat="42.22749233116358" lon="12.963639358190786"><ele>626.0</ele><time>2026-04-19T13:48:01.989Z</time></trkpt><trkpt lat="42.22738344354414" lon="12.963571357080225"><ele>626.0</ele><time>2026-04-19T13:48:02.989Z</time></trkpt><trkpt lat="42.22728027888102" lon="12.963481742748858"><ele>626.0</ele><time>2026-04-19T13:48:03.989Z</time></trkpt><trkpt lat="42.227176473658766" lon="12.963379029211518"><ele>626.0</ele><time>2026-04-19T13:48:04.989Z</time></trkpt><trkpt lat="42.227085908890004" lon="12.963279334444312"><ele>623.25</ele><time>2026-04-19T13:48:05.989Z</time></trkpt><trkpt lat="42.227010640214765" lon="12.963153874031022"><ele>620.5</ele><time>2026-04-19T13:48:06.989Z</time></trkpt><trkpt lat="42.226928381977004" lon="12.963040008743853"><ele>617.75</ele><time>2026-04-19T13:48:07.989Z</time></trkpt><trkpt lat="42.226837584882304" lon="12.962924983718883"><ele>615.0</ele><time>2026-04-19T13:48:08.989Z</time></trkpt><trkpt lat="42.226745956100665" lon="12.962844696842511"><ele>615.0</ele><time>2026-04-19T13:48:09.989Z</time></trkpt><trkpt lat="42.22665370513066" lon="12.962772752949608"><ele>615.0</ele><time>2026-04-19T13:48:10.989Z</time></trkpt><trkpt lat="42.22654881911157" lon="12.962684399265575"><ele>615.0</ele><time>2026-04-19T13:48:11.989Z</time></trkpt><trkpt lat="42.22645275244036" lon="12.962609822239209"><ele>615.0</ele><time>2026-04-19T13:48:12.989Z</time></trkpt><trkpt lat="42.226356811707724" lon="12.962516045585161"><ele>614.0</ele><time>2026-04-19T13:48:13.989Z</time></trkpt><trkpt lat="42.226270274573714" lon="12.962429453646703"><ele>613.0</ele><time>2026-04-19T13:48:14.989Z</time></trkpt><trkpt lat="42.226190780284085" lon="12.962343888727338"><ele>612.0</ele><time>2026-04-19T13:48:15.989Z</time></trkpt><trkpt lat="42.22611679724723" lon="12.962264799601753"><ele>611.0</ele><time>2026-04-19T13:48:16.989Z</time></trkpt><trkpt lat="42.22603910116478" lon="12.96219947757885"><ele>610.0</ele><time>2026-04-19T13:48:17.989Z</time></trkpt><trkpt lat="42.22596058020632" lon="12.962139604394459"><ele>610.0</ele><time>2026-04-19T13:48:18.989Z</time></trkpt><trkpt lat="42.22588704009712" lon="12.962092626222098"><ele>610.0</ele><time>2026-04-19T13:48:19.989Z</time></trkpt><trkpt lat="42.22580731473059" lon="12.96206853611736"><ele>610.0</ele><time>2026-04-19T13:48:20.989Z</time></trkpt><trkpt lat="42.22574139484492" lon="12.96203710380845"><ele>610.0</ele><time>2026-04-19T13:48:21.989Z</time></trkpt><trkpt lat="42.225675180009375" lon="12.961994297794107"><ele>610.0</ele><time>2026-04-19T13:48:22.989Z</time></trkpt><trkpt lat="42.225607805858125" lon="12.961981858596511"><ele>610.0</ele><time>2026-04-19T13:48:23.989Z</time></trkpt><trkpt lat="42.225525561628494" lon="12.961971515228923"><ele>609.5714285714286</ele><time>2026-04-19T13:48:24.989Z</time></trkpt><trkpt lat="42.22545446937522" lon="12.96194606372921"><ele>609.1428571428571</ele><time>2026-04-19T13:48:25.989Z</time></trkpt><trkpt lat="42.22538629436336" lon="12.961912672821954"><ele>608.7142857142857</ele><time>2026-04-19T13:48:26.989Z</time></trkpt><trkpt lat="42.22532831170337" lon="12.961869535693978"><ele>608.2857142857142</ele><time>2026-04-19T13:48:27.989Z</time></trkpt><trkpt lat="42.22527151502308" lon="12.961821686356084"><ele>607.8571428571429</ele><time>2026-04-19T13:48:28.989Z</time></trkpt><trkpt lat="42.22522311783281" lon="12.961758265863502"><ele>607.4285714285713</ele><time>2026-04-19T13:48:29.988Z</time></trkpt><trkpt lat="42.22518604196798" lon="12.961686370424319"><ele>607.0</ele><time>2026-04-19T13:48:30.988Z</time></trkpt><trkpt lat="42.225147610109936" lon="12.961593935788102"><ele>607.0</ele><time>2026-04-19T13:48:31.988Z</time></trkpt><trkpt lat="42.22509918892297" lon="12.96151044976312"><ele>607.0</ele><time>2026-04-19T13:48:32.988Z</time></trkpt><trkpt lat="42.22506003171064" lon="12.96142253471964"><ele>607.0</ele><time>2026-04-19T13:48:33.988Z</time></trkpt><trkpt lat="42.225007268071714" lon="12.961350189951256"><ele>607.0</ele><time>2026-04-19T13:48:34.988Z</time></trkpt><trkpt lat="42.22494900614401" lon="12.961275116781144"><ele>607.0</ele><time>2026-04-19T13:48:35.99Z</time></trkpt><trkpt lat="42.22488693877535" lon="12.961198261427816"><ele>607.0</ele><time>2026-04-19T13:48:36.99Z</time></trkpt><trkpt lat="42.22481457456613" lon="12.961137201239142"><ele>607.3333333333334</ele><time>2026-04-19T13:48:37.99Z</time></trkpt><trkpt lat="42.22475617753144" lon="12.961040745038353"><ele>607.6666666666667</ele><time>2026-04-19T13:48:38.99Z</time></trkpt><trkpt lat="42.2246925237854" lon="12.96096184341909"><ele>608.0</ele><time>2026-04-19T13:48:39.99Z</time></trkpt><trkpt lat="42.22462924452657" lon="12.96088653806601"><ele>608.3333333333334</ele><time>2026-04-19T13:48:40.99Z</time></trkpt><trkpt lat="42.224569113968066" lon="12.96081432191719"><ele>608.6666666666666</ele><time>2026-04-19T13:48:41.991Z</time></trkpt><trkpt lat="42.224510048461994" lon="12.96074513020574"><ele>609.0</ele><time>2026-04-19T13:48:42.99Z</time></trkpt><trkpt lat="42.224463408372664" lon="12.96068520498088"><ele>609.0</ele><time>2026-04-19T13:48:43.99Z</time></trkpt><trkpt lat="42.22438500676506" lon="12.960595877437555"><ele>609.0</ele><time>2026-04-19T13:48:45.99Z</time></trkpt><trkpt lat="42.22432943096263" lon="12.96055319479523"><ele>609.0</ele><time>2026-04-19T13:48:46.99Z</time></trkpt><trkpt lat="42.22427992600576" lon="12.96049018891453"><ele>609.0</ele><time>2026-04-19T13:48:47.99Z</time></trkpt><trkpt lat="42.22422089291897" lon="12.960426765566751"><ele>609.0</ele><time>2026-04-19T13:48:48.99Z</time></trkpt><trkpt lat="42.22416095191481" lon="12.96036400474838"><ele>609.0</ele><time>2026-04-19T13:48:49.99Z</time></trkpt><trkpt lat="42.2240906436644" lon="12.960293273093427"><ele>609.0</ele><time>2026-04-19T13:48:50.99Z</time></trkpt><trkpt lat="42.224010480218325" lon="12.960220311092275"><ele>609.0</ele><time>2026-04-19T13:48:51.99Z</time></trkpt><trkpt lat="42.22394403259441" lon="12.960160596415088"><ele>609.0</ele><time>2026-04-19T13:48:52.99Z</time></trkpt><trkpt lat="42.22387868358589" lon="12.960071761503384"><ele>609.0</ele><time>2026-04-19T13:48:53.989Z</time></trkpt><trkpt lat="42.22379892410409" lon="12.960013209575136"><ele>609.0</ele><time>2026-04-19T13:48:54.989Z</time></trkpt><trkpt lat="42.22371316090192" lon="12.959931656897849"><ele>609.2</ele><time>2026-04-19T13:48:55.989Z</time></trkpt><trkpt lat="42.22362400846507" lon="12.95983162208084"><ele>609.4</ele><time>2026-04-19T13:48:56.989Z</time></trkpt><trkpt lat="42.223531751833455" lon="12.959723187555333"><ele>609.6</ele><time>2026-04-19T13:48:57.989Z</time></trkpt><trkpt lat="42.22345275493118" lon="12.959623672824002"><ele>609.8</ele><time>2026-04-19T13:48:58.989Z</time></trkpt><trkpt lat="42.22338538618222" lon="12.959542812292694"><ele>610.0</ele><time>2026-04-19T13:48:59.989Z</time></trkpt><trkpt lat="42.22333726586026" lon="12.95946292880981"><ele>610.0</ele><time>2026-04-19T13:49:00.989Z</time></trkpt><trkpt lat="42.22324461955167" lon="12.959373649487029"><ele>610.0</ele><time>2026-04-19T13:49:02.989Z</time></trkpt><trkpt lat="42.22318300560202" lon="12.959347881419754"><ele>610.0</ele><time>2026-04-19T13:49:04.989Z</time></trkpt><trkpt lat="42.22309911904283" lon="12.959319852992667"><ele>610.0</ele><time>2026-04-19T13:49:11.989Z</time></trkpt><trkpt lat="42.22299393050302" lon="12.959293604871682"><ele>610.0</ele><time>2026-04-19T13:49:13.989Z</time></trkpt><trkpt lat="42.222920981959156" lon="12.959283286267675"><ele>610.0</ele><time>2026-04-19T13:49:14.989Z</time></trkpt><trkpt lat="42.2228419425254" lon="12.959272048241765"><ele>610.2</ele><time>2026-04-19T13:49:15.989Z</time></trkpt><trkpt lat="42.22274897426151" lon="12.959256145353528"><ele>610.4</ele><time>2026-04-19T13:49:16.989Z</time></trkpt><trkpt lat="42.222653022974804" lon="12.959226033167266"><ele>610.6</ele><time>2026-04-19T13:49:17.989Z</time></trkpt><trkpt lat="42.22255582845748" lon="12.959193695653063"><ele>610.8</ele><time>2026-04-19T13:49:18.989Z</time></trkpt><trkpt lat="42.22246791504861" lon="12.959103392687576"><ele>611.0</ele><time>2026-04-19T13:49:19.989Z</time></trkpt><trkpt lat="42.222385273716256" lon="12.95902802952351"><ele>608.6</ele><time>2026-04-19T13:49:20.989Z</time></trkpt><trkpt lat="42.22229593574205" lon="12.958960520838872"><ele>606.2</ele><time>2026-04-19T13:49:21.989Z</time></trkpt><trkpt lat="42.2222272868762" lon="12.958874447529437"><ele>603.8</ele><time>2026-04-19T13:49:22.989Z</time></trkpt><trkpt lat="42.22216023202448" lon="12.958779520338846"><ele>601.4</ele><time>2026-04-19T13:49:23.989Z</time></trkpt><trkpt lat="42.22210430106455" lon="12.958669242511153"><ele>599.0</ele><time>2026-04-19T13:49:24.989Z</time></trkpt><trkpt lat="42.22204662679646" lon="12.958563256300863"><ele>599.0</ele><time>2026-04-19T13:49:25.989Z</time></trkpt><trkpt lat="42.22197871710676" lon="12.958497111121853"><ele>599.0</ele><time>2026-04-19T13:49:26.989Z</time></trkpt><trkpt lat="42.22191222400102" lon="12.958434030258196"><ele>599.0</ele><time>2026-04-19T13:49:27.989Z</time></trkpt><trkpt lat="42.22181283592023" lon="12.958425836358229"><ele>599.0</ele><time>2026-04-19T13:49:28.989Z</time></trkpt><trkpt lat="42.2217208880017" lon="12.958434218969463"><ele>599.0</ele><time>2026-04-19T13:49:29.989Z</time></trkpt><trkpt lat="42.22160887049852" lon="12.958448838653089"><ele>599.0</ele><time>2026-04-19T13:49:30.989Z</time></trkpt><trkpt lat="42.22148970280559" lon="12.958470156983456"><ele>599.0</ele><time>2026-04-19T13:49:31.989Z</time></trkpt><trkpt lat="42.22135791014455" lon="12.958495812339924"><ele>599.0</ele><time>2026-04-19T13:49:32.989Z</time></trkpt><trkpt lat="42.22123156093287" lon="12.958522695123397"><ele>599.0</ele><time>2026-04-19T13:49:33.989Z</time></trkpt><trkpt lat="42.22111264351177" lon="12.958547996707694"><ele>600.6666666666666</ele><time>2026-04-19T13:49:34.989Z</time></trkpt><trkpt lat="42.22100582823627" lon="12.958592185837746"><ele>602.3333333333333</ele><time>2026-04-19T13:49:35.989Z</time></trkpt><trkpt lat="42.2209108234493" lon="12.95859185025594"><ele>604.0</ele><time>2026-04-19T13:49:36.989Z</time></trkpt><trkpt lat="42.22083480861729" lon="12.958581631353123"><ele>605.6666666666666</ele><time>2026-04-19T13:49:37.989Z</time></trkpt><trkpt lat="42.220769067760095" lon="12.958556504305683"><ele>607.3333333333334</ele><time>2026-04-19T13:49:38.989Z</time></trkpt><trkpt lat="42.22071330781663" lon="12.958510150487667"><ele>609.0</ele><time>2026-04-19T13:49:39.989Z</time></trkpt><trkpt lat="42.22066203544758" lon="12.958443528827106"><ele>610.0</ele><time>2026-04-19T13:49:40.989Z</time></trkpt><trkpt lat="42.2206227566818" lon="12.95835220232432"><ele>611.0</ele><time>2026-04-19T13:49:41.989Z</time></trkpt><trkpt lat="42.22058192229472" lon="12.958257039532114"><ele>612.0</ele><time>2026-04-19T13:49:42.989Z</time></trkpt><trkpt lat="42.220533538970734" lon="12.958179384243433"><ele>613.0</ele><time>2026-04-19T13:49:43.989Z</time></trkpt><trkpt lat="42.22049841527674" lon="12.958079832963609"><ele>614.0</ele><time>2026-04-19T13:49:44.989Z</time></trkpt><trkpt lat="42.22042648565483" lon="12.957973041049026"><ele>615.0</ele><time>2026-04-19T13:49:45.988Z</time></trkpt><trkpt lat="42.220327577497756" lon="12.957881191718009"><ele>615.0</ele><time>2026-04-19T13:49:46.988Z</time></trkpt><trkpt lat="42.22020203690929" lon="12.95784751271543"><ele>615.0</ele><time>2026-04-19T13:49:47.988Z</time></trkpt><trkpt lat="42.22009205999603" lon="12.95785608445051"><ele>615.0</ele><time>2026-04-19T13:49:48.988Z</time></trkpt><trkpt lat="42.21997933624505" lon="12.957880846861402"><ele>615.0</ele><time>2026-04-19T13:49:49.988Z</time></trkpt><trkpt lat="42.21988218833595" lon="12.957912327908025"><ele>612.6</ele><time>2026-04-19T13:49:50.988Z</time></trkpt><trkpt lat="42.21978684889239" lon="12.957955385681847"><ele>610.2</ele><time>2026-04-19T13:49:51.988Z</time></trkpt><trkpt lat="42.21969199627248" lon="12.958038379935676"><ele>607.8</ele><time>2026-04-19T13:49:52.988Z</time></trkpt><trkpt lat="42.219614436581004" lon="12.958112513521787"><ele>605.4</ele><time>2026-04-19T13:49:53.988Z</time></trkpt><trkpt lat="42.21953833270573" lon="12.958187887759928"><ele>603.0</ele><time>2026-04-19T13:49:54.988Z</time></trkpt><trkpt lat="42.2194702168175" lon="12.95825064747116"><ele>603.0</ele><time>2026-04-19T13:49:55.988Z</time></trkpt><trkpt lat="42.21941649958332" lon="12.958297948840043"><ele>603.0</ele><time>2026-04-19T13:49:56.988Z</time></trkpt><trkpt lat="42.21934289442532" lon="12.958354887492009"><ele>603.0</ele><time>2026-04-19T13:49:59.988Z</time></trkpt><trkpt lat="42.21925730016193" lon="12.958400893571195"><ele>603.0</ele><time>2026-04-19T13:50:02.988Z</time></trkpt><trkpt lat="42.219190989620714" lon="12.958428774588834"><ele>603.0</ele><time>2026-04-19T13:50:04.988Z</time></trkpt><trkpt lat="42.219123058276914" lon="12.958473250814224"><ele>603.0</ele><time>2026-04-19T13:50:06.988Z</time></trkpt><trkpt lat="42.219034731274995" lon="12.95846431134863"><ele>604.4</ele><time>2026-04-19T13:50:08.988Z</time></trkpt><trkpt lat="42.218922263275765" lon="12.95850034555835"><ele>605.8</ele><time>2026-04-19T13:50:26.988Z</time></trkpt><trkpt lat="42.21886013997766" lon="12.95851706104888"><ele>607.2</ele><time>2026-04-19T13:50:58.989Z</time></trkpt><trkpt lat="42.21882910203747" lon="12.958633525106777"><ele>608.6</ele><time>2026-04-19T13:55:18.987Z</time></trkpt><trkpt lat="42.218733762844714" lon="12.958715461217128"><ele>610.0</ele><time>2026-04-19T13:55:20.987Z</time></trkpt><trkpt lat="42.218632815290285" lon="12.958779838069956"><ele>610.0</ele><time>2026-04-19T13:55:22.987Z</time></trkpt><trkpt lat="42.21857272612561" lon="12.958809737984115"><ele>610.0</ele><time>2026-04-19T13:55:23.986Z</time></trkpt><trkpt lat="42.218503658157495" lon="12.958830303509302"><ele>610.0</ele><time>2026-04-19T13:55:24.986Z</time></trkpt><trkpt lat="42.21840520565988" lon="12.95884849351345"><ele>610.0</ele><time>2026-04-19T13:55:26.986Z</time></trkpt><trkpt lat="42.218307292744775" lon="12.958865852794144"><ele>610.0</ele><time>2026-04-19T13:55:28.986Z</time></trkpt><trkpt lat="42.21820590512406" lon="12.958873207809443"><ele>610.0</ele><time>2026-04-19T13:55:30.986Z</time></trkpt><trkpt lat="42.21813228702615" lon="12.958866763061105"><ele>606.8333333333334</ele><time>2026-04-19T13:55:31.986Z</time></trkpt><trkpt lat="42.2180564073926" lon="12.958861366357157"><ele>603.6666666666667</ele><time>2026-04-19T13:55:32.986Z</time></trkpt><trkpt lat="42.21799305774701" lon="12.958869889731497"><ele>600.5</ele><time>2026-04-19T13:55:33.986Z</time></trkpt><trkpt lat="42.217869647240896" lon="12.958858076427335"><ele>597.3333333333334</ele><time>2026-04-19T13:55:35.986Z</time></trkpt><trkpt lat="42.21780307171167" lon="12.9588710422091"><ele>594.1666666666666</ele><time>2026-04-19T13:55:36.986Z</time></trkpt><trkpt lat="42.217739120368336" lon="12.958865386828023"><ele>591.0</ele><time>2026-04-19T13:55:37.986Z</time></trkpt><trkpt lat="42.21763817910722" lon="12.958883166626439"><ele>591.0</ele><time>2026-04-19T13:55:39.986Z</time></trkpt><trkpt lat="42.21755529132227" lon="12.958889322636276"><ele>591.0</ele><time>2026-04-19T13:55:41.986Z</time></trkpt><trkpt lat="42.21747558468147" lon="12.958933736079201"><ele>591.0</ele><time>2026-04-19T13:55:44.986Z</time></trkpt><trkpt lat="42.21743374973949" lon="12.959025132233378"><ele>591.0</ele><time>2026-04-19T13:55:46.986Z</time></trkpt><trkpt lat="42.21735270164521" lon="12.959120295046858"><ele>591.0</ele><time>2026-04-19T13:56:02.986Z</time></trkpt><trkpt lat="42.217301360141064" lon="12.959217204739359"><ele>591.0</ele><time>2026-04-19T13:56:04.986Z</time></trkpt><trkpt lat="42.21722286479583" lon="12.959217567635642"><ele>587.8333333333334</ele><time>2026-04-19T13:56:06.986Z</time></trkpt><trkpt lat="42.2171879961722" lon="12.959296600681553"><ele>584.6666666666666</ele><time>2026-04-19T13:56:37.985Z</time></trkpt><trkpt lat="42.217126430229435" lon="12.959417835930134"><ele>581.5</ele><time>2026-04-19T13:56:41.985Z</time></trkpt><trkpt lat="42.21707015099019" lon="12.959506363346799"><ele>578.3333333333333</ele><time>2026-04-19T13:56:44.985Z</time></trkpt><trkpt lat="42.217016891090374" lon="12.959616973796935"><ele>575.1666666666666</ele><time>2026-04-19T13:57:21.986Z</time></trkpt><trkpt lat="42.21697368239633" lon="12.959688407454932"><ele>572.0</ele><time>2026-04-19T13:57:22.986Z</time></trkpt><trkpt lat="42.21692267096743" lon="12.959768764349757"><ele>572.0</ele><time>2026-04-19T13:57:23.986Z</time></trkpt><trkpt lat="42.21686242801289" lon="12.959858016819329"><ele>572.0</ele><time>2026-04-19T13:57:24.986Z</time></trkpt><trkpt lat="42.21679761741435" lon="12.959952901380799"><ele>572.0</ele><time>2026-04-19T13:57:25.986Z</time></trkpt><trkpt lat="42.21673694959511" lon="12.960034683359888"><ele>572.0</ele><time>2026-04-19T13:57:26.986Z</time></trkpt><trkpt lat="42.21667769691064" lon="12.960115289982452"><ele>572.0</ele><time>2026-04-19T13:57:27.986Z</time></trkpt><trkpt lat="42.21663076328027" lon="12.960206871728984"><ele>572.0</ele><time>2026-04-19T13:57:28.986Z</time></trkpt><trkpt lat="42.21660310554369" lon="12.96029455583163"><ele>571.2</ele><time>2026-04-19T13:57:29.986Z</time></trkpt><trkpt lat="42.21659013071376" lon="12.960405057696464"><ele>570.4000000000001</ele><time>2026-04-19T13:57:30.986Z</time></trkpt><trkpt lat="42.21659167360776" lon="12.96053019367181"><ele>569.5999999999999</ele><time>2026-04-19T13:57:31.986Z</time></trkpt><trkpt lat="42.216598072405525" lon="12.960644635083742"><ele>568.8</ele><time>2026-04-19T13:57:32.986Z</time></trkpt><trkpt lat="42.21661162434773" lon="12.960776037461091"><ele>568.0</ele><time>2026-04-19T13:57:33.986Z</time></trkpt><trkpt lat="42.216638668235824" lon="12.960895347729817"><ele>565.6666666666667</ele><time>2026-04-19T13:57:34.986Z</time></trkpt><trkpt lat="42.2166712434128" lon="12.961008554950272"><ele>563.3333333333334</ele><time>2026-04-19T13:57:35.986Z</time></trkpt><trkpt lat="42.21670297936082" lon="12.961118845810676"><ele>561.0</ele><time>2026-04-19T13:57:36.986Z</time></trkpt><trkpt lat="42.21672821285598" lon="12.961220433258045"><ele>558.6666666666666</ele><time>2026-04-19T13:57:37.986Z</time></trkpt><trkpt lat="42.21674829572505" lon="12.961316538893897"><ele>556.3333333333333</ele><time>2026-04-19T13:57:38.986Z</time></trkpt><trkpt lat="42.2167691699437" lon="12.96141423905607"><ele>554.0</ele><time>2026-04-19T13:57:39.986Z</time></trkpt><trkpt lat="42.21678807564358" lon="12.961516904474644"><ele>554.0</ele><time>2026-04-19T13:57:40.986Z</time></trkpt><trkpt lat="42.21681391300062" lon="12.961623267745777"><ele>554.0</ele><time>2026-04-19T13:57:41.986Z</time></trkpt><trkpt lat="42.21682846967152" lon="12.961727925655826"><ele>554.0</ele><time>2026-04-19T13:57:42.986Z</time></trkpt><trkpt lat="42.216857169308625" lon="12.961821060110951"><ele>554.0</ele><time>2026-04-19T13:57:43.986Z</time></trkpt><trkpt lat="42.21691019812175" lon="12.961962080114839"><ele>554.0</ele><time>2026-04-19T13:57:45.986Z</time></trkpt><trkpt lat="42.216955795714064" lon="12.96204525105161"><ele>554.0</ele><time>2026-04-19T13:57:46.986Z</time></trkpt><trkpt lat="42.21701545943476" lon="12.962114805930069"><ele>552.3333333333333</ele><time>2026-04-19T13:57:47.986Z</time></trkpt><trkpt lat="42.21707434522935" lon="12.962177027104316"><ele>550.6666666666666</ele><time>2026-04-19T13:57:48.986Z</time></trkpt><trkpt lat="42.21713679856148" lon="12.962239878919997"><ele>549.0</ele><time>2026-04-19T13:57:49.986Z</time></trkpt><trkpt lat="42.217189718905416" lon="12.9622957745357"><ele>547.3333333333334</ele><time>2026-04-19T13:57:50.985Z</time></trkpt><trkpt lat="42.21726840981151" lon="12.962395625911368"><ele>545.6666666666667</ele><time>2026-04-19T13:57:52.985Z</time></trkpt><trkpt lat="42.21730578022107" lon="12.962483685062036"><ele>544.0</ele><time>2026-04-19T13:57:55.985Z</time></trkpt><trkpt lat="42.21730540433695" lon="12.96257254039971"><ele>543.8</ele><time>2026-04-19T13:57:58.985Z</time></trkpt><trkpt lat="42.21725356308081" lon="12.962629845699793"><ele>543.5999999999999</ele><time>2026-04-19T13:58:00.985Z</time></trkpt><trkpt lat="42.21717578836548" lon="12.962755286935055"><ele>543.4</ele><time>2026-04-19T13:58:02.985Z</time></trkpt><trkpt lat="42.217113790817415" lon="12.962912230270598"><ele>543.1999999999999</ele><time>2026-04-19T13:58:04.985Z</time></trkpt><trkpt lat="42.21708789131105" lon="12.963026030408246"><ele>543.0</ele><time>2026-04-19T13:58:05.985Z</time></trkpt><trkpt lat="42.217092103355235" lon="12.963153380549455"><ele>543.0</ele><time>2026-04-19T13:58:06.985Z</time></trkpt><trkpt lat="42.21712715412133" lon="12.963277667448832"><ele>543.0</ele><time>2026-04-19T13:58:07.985Z</time></trkpt><trkpt lat="42.217190944329644" lon="12.96338413772311"><ele>543.0</ele><time>2026-04-19T13:58:08.985Z</time></trkpt><trkpt lat="42.21724030159456" lon="12.963453070234813"><ele>543.0</ele><time>2026-04-19T13:58:09.985Z</time></trkpt><trkpt lat="42.21729886238435" lon="12.96353060767697"><ele>543.0</ele><time>2026-04-19T13:58:10.985Z</time></trkpt><trkpt lat="42.21735018201729" lon="12.963621778106493"><ele>543.0</ele><time>2026-04-19T13:58:11.985Z</time></trkpt><trkpt lat="42.21739381323005" lon="12.96373063903281"><ele>544.4</ele><time>2026-04-19T13:58:12.985Z</time></trkpt><trkpt lat="42.21743929654259" lon="12.963854620500278"><ele>545.8</ele><time>2026-04-19T13:58:13.985Z</time></trkpt><trkpt lat="42.21748319485742" lon="12.963984277682775"><ele>547.2</ele><time>2026-04-19T13:58:14.985Z</time></trkpt><trkpt lat="42.21753711488017" lon="12.964131499900503"><ele>548.6</ele><time>2026-04-19T13:58:15.985Z</time></trkpt><trkpt lat="42.217596356546245" lon="12.964254853701977"><ele>550.0</ele><time>2026-04-19T13:58:16.985Z</time></trkpt><trkpt lat="42.217660926441894" lon="12.964373336867126"><ele>550.1666666666667</ele><time>2026-04-19T13:58:17.985Z</time></trkpt><trkpt lat="42.21771662364375" lon="12.964473657235155"><ele>550.3333333333334</ele><time>2026-04-19T13:58:18.985Z</time></trkpt><trkpt lat="42.21776433740133" lon="12.964571837801902"><ele>550.5</ele><time>2026-04-19T13:58:19.985Z</time></trkpt><trkpt lat="42.21780067849799" lon="12.964674842937317"><ele>550.6666666666666</ele><time>2026-04-19T13:58:20.985Z</time></trkpt><trkpt lat="42.21782041699948" lon="12.96477201024453"><ele>550.8333333333333</ele><time>2026-04-19T13:58:21.985Z</time></trkpt><trkpt lat="42.21783627815175" lon="12.964868358517958"><ele>551.0</ele><time>2026-04-19T13:58:22.985Z</time></trkpt><trkpt lat="42.21785030021175" lon="12.964962740114524"><ele>550.8571428571428</ele><time>2026-04-19T13:58:23.985Z</time></trkpt><trkpt lat="42.217861851610685" lon="12.965057934545918"><ele>550.7142857142857</ele><time>2026-04-19T13:58:24.985Z</time></trkpt><trkpt lat="42.21786311601286" lon="12.965159974632712"><ele>550.5714285714286</ele><time>2026-04-19T13:58:25.985Z</time></trkpt><trkpt lat="42.21786071058271" lon="12.965262155281318"><ele>550.4285714285713</ele><time>2026-04-19T13:58:26.985Z</time></trkpt><trkpt lat="42.21785615018166" lon="12.965352082099905"><ele>550.2857142857142</ele><time>2026-04-19T13:58:27.985Z</time></trkpt><trkpt lat="42.21784930929084" lon="12.965441679785865"><ele>550.1428571428571</ele><time>2026-04-19T13:58:28.985Z</time></trkpt><trkpt lat="42.217838680485855" lon="12.965531109235512"><ele>550.0</ele><time>2026-04-19T13:58:29.985Z</time></trkpt><trkpt lat="42.21782054585212" lon="12.965631702071972"><ele>550.0</ele><time>2026-04-19T13:58:30.985Z</time></trkpt><trkpt lat="42.217797616535016" lon="12.965739985793121"><ele>550.0</ele><time>2026-04-19T13:58:31.985Z</time></trkpt><trkpt lat="42.217772059445764" lon="12.965851507921492"><ele>550.0</ele><time>2026-04-19T13:58:32.985Z</time></trkpt><trkpt lat="42.21774198480386" lon="12.96596709714509"><ele>550.0</ele><time>2026-04-19T13:58:33.985Z</time></trkpt><trkpt lat="42.217709524869896" lon="12.966090118591287"><ele>550.0</ele><time>2026-04-19T13:58:34.985Z</time></trkpt><trkpt lat="42.21767669578264" lon="12.966209666811936"><ele>551.0</ele><time>2026-04-19T13:58:35.985Z</time></trkpt><trkpt lat="42.21764205006244" lon="12.966334043365954"><ele>552.0</ele><time>2026-04-19T13:58:36.985Z</time></trkpt><trkpt lat="42.21760704956979" lon="12.966459739776585"><ele>553.0</ele><time>2026-04-19T13:58:37.985Z</time></trkpt><trkpt lat="42.217575378279214" lon="12.966577379788916"><ele>554.0</ele><time>2026-04-19T13:58:38.985Z</time></trkpt><trkpt lat="42.217544845424946" lon="12.966697676349984"><ele>555.0</ele><time>2026-04-19T13:58:39.985Z</time></trkpt><trkpt lat="42.21752695939584" lon="12.96682568615086"><ele>555.4</ele><time>2026-04-19T13:58:40.985Z</time></trkpt><trkpt lat="42.2175280670837" lon="12.966954403321814"><ele>555.8</ele><time>2026-04-19T13:58:41.985Z</time></trkpt><trkpt lat="42.21752722500609" lon="12.967070366421222"><ele>556.2</ele><time>2026-04-19T13:58:42.984Z</time></trkpt><trkpt lat="42.217512358282065" lon="12.96718635621635"><ele>556.6</ele><time>2026-04-19T13:58:43.984Z</time></trkpt><trkpt lat="42.21749082729496" lon="12.967301937228239"><ele>557.0</ele><time>2026-04-19T13:58:44.984Z</time></trkpt><trkpt lat="42.217462909239295" lon="12.967423465148348"><ele>556.8333333333333</ele><time>2026-04-19T13:58:45.984Z</time></trkpt><trkpt lat="42.21743902483804" lon="12.967545144086909"><ele>556.6666666666666</ele><time>2026-04-19T13:58:46.984Z</time></trkpt><trkpt lat="42.21742779543988" lon="12.967662356605645"><ele>556.5</ele><time>2026-04-19T13:58:47.984Z</time></trkpt><trkpt lat="42.217425835624766" lon="12.967761877700939"><ele>556.3333333333334</ele><time>2026-04-19T13:58:48.984Z</time></trkpt><trkpt lat="42.21743832567069" lon="12.967858266219539"><ele>556.1666666666667</ele><time>2026-04-19T13:58:49.984Z</time></trkpt><trkpt lat="42.21746562768437" lon="12.967954273135334"><ele>556.0</ele><time>2026-04-19T13:58:50.984Z</time></trkpt><trkpt lat="42.21750472691274" lon="12.968043866489865"><ele>556.0</ele><time>2026-04-19T13:58:51.984Z</time></trkpt><trkpt lat="42.2175328678916" lon="12.968125602456505"><ele>556.0</ele><time>2026-04-19T13:58:52.984Z</time></trkpt><trkpt lat="42.217560562212064" lon="12.968214757885093"><ele>556.0</ele><time>2026-04-19T13:58:53.984Z</time></trkpt><trkpt lat="42.217579880774736" lon="12.9683104186403"><ele>556.0</ele><time>2026-04-19T13:58:54.984Z</time></trkpt><trkpt lat="42.21758966991121" lon="12.96840840417456"><ele>556.0</ele><time>2026-04-19T13:58:55.984Z</time></trkpt><trkpt lat="42.2175940597076" lon="12.968513972580729"><ele>556.0</ele><time>2026-04-19T13:58:56.984Z</time></trkpt><trkpt lat="42.21759850933143" lon="12.968617328317288"><ele>556.0</ele><time>2026-04-19T13:58:57.984Z</time></trkpt><trkpt lat="42.2176007463953" lon="12.968706665830044"><ele>555.6666666666667</ele><time>2026-04-19T13:58:58.984Z</time></trkpt><trkpt lat="42.217600366866925" lon="12.968796998003066"><ele>555.3333333333334</ele><time>2026-04-19T13:58:59.984Z</time></trkpt><trkpt lat="42.21760412137716" lon="12.968952255403059"><ele>555.0</ele><time>2026-04-19T13:59:01.984Z</time></trkpt><trkpt lat="42.21758402021213" lon="12.969059088453003"><ele>554.6666666666666</ele><time>2026-04-19T13:59:03.984Z</time></trkpt><trkpt lat="42.217534004430114" lon="12.96911509964419"><ele>554.3333333333333</ele><time>2026-04-19T13:59:06.985Z</time></trkpt><trkpt lat="42.217454441045625" lon="12.969086210049714"><ele>554.0</ele><time>2026-04-19T13:59:08.985Z</time></trkpt><trkpt lat="42.217403818310984" lon="12.969028301030594"><ele>555.2</ele><time>2026-04-19T13:59:10.985Z</time></trkpt><trkpt lat="42.21731676764068" lon="12.968927916019835"><ele>556.4</ele><time>2026-04-19T13:59:13.986Z</time></trkpt><trkpt lat="42.217226459300484" lon="12.968834775522454"><ele>557.6</ele><time>2026-04-19T13:59:15.985Z</time></trkpt><trkpt lat="42.217175377407116" lon="12.968782091708567"><ele>558.8</ele><time>2026-04-19T13:59:16.985Z</time></trkpt><trkpt lat="42.2171142628948" lon="12.968741776901682"><ele>560.0</ele><time>2026-04-19T13:59:17.986Z</time></trkpt><trkpt lat="42.21703859750723" lon="12.968625497609155"><ele>560.0</ele><time>2026-04-19T13:59:19.985Z</time></trkpt><trkpt lat="42.21702066707603" lon="12.968540363590614"><ele>560.0</ele><time>2026-04-19T13:59:20.985Z</time></trkpt><trkpt lat="42.21702082897593" lon="12.968441650326039"><ele>560.0</ele><time>2026-04-19T13:59:21.985Z</time></trkpt><trkpt lat="42.2170317405449" lon="12.968355383554897"><ele>560.0</ele><time>2026-04-19T13:59:22.985Z</time></trkpt><trkpt lat="42.21703862209607" lon="12.9682628900021"><ele>560.0</ele><time>2026-04-19T13:59:23.985Z</time></trkpt><trkpt lat="42.21705777832016" lon="12.968158737892297"><ele>560.0</ele><time>2026-04-19T13:59:24.985Z</time></trkpt><trkpt lat="42.217062639074335" lon="12.968031405855692"><ele>560.0</ele><time>2026-04-19T13:59:25.985Z</time></trkpt><trkpt lat="42.21705316778867" lon="12.96791443495249"><ele>560.0</ele><time>2026-04-19T13:59:26.985Z</time></trkpt><trkpt lat="42.21703737863771" lon="12.967792545021245"><ele>560.0</ele><time>2026-04-19T13:59:27.985Z</time></trkpt><trkpt lat="42.217013000434896" lon="12.967668828716596"><ele>560.0</ele><time>2026-04-19T13:59:28.985Z</time></trkpt><trkpt lat="42.216988834560674" lon="12.967556132132929"><ele>560.0</ele><time>2026-04-19T13:59:29.985Z</time></trkpt><trkpt lat="42.2169705213926" lon="12.967451923297425"><ele>560.0</ele><time>2026-04-19T13:59:30.985Z</time></trkpt><trkpt lat="42.21696326824441" lon="12.967353345909494"><ele>560.0</ele><time>2026-04-19T13:59:31.985Z</time></trkpt><trkpt lat="42.216969277169675" lon="12.967264229516825"><ele>560.2857142857143</ele><time>2026-04-19T13:59:32.985Z</time></trkpt><trkpt lat="42.2169684716006" lon="12.967169677072697"><ele>560.5714285714286</ele><time>2026-04-19T13:59:33.985Z</time></trkpt><trkpt lat="42.21696370041052" lon="12.967082603744045"><ele>560.8571428571429</ele><time>2026-04-19T13:59:34.985Z</time></trkpt><trkpt lat="42.21694689010757" lon="12.966997300499557"><ele>561.1428571428571</ele><time>2026-04-19T13:59:35.985Z</time></trkpt><trkpt lat="42.216891712455414" lon="12.966926800950887"><ele>561.4285714285714</ele><time>2026-04-19T13:59:36.985Z</time></trkpt><trkpt lat="42.216828369452294" lon="12.966897340403644"><ele>561.7142857142858</ele><time>2026-04-19T13:59:37.985Z</time></trkpt><trkpt lat="42.2167288165794" lon="12.966867145343961"><ele>562.0</ele><time>2026-04-19T13:59:39.985Z</time></trkpt><trkpt lat="42.21667023272735" lon="12.966732752852778"><ele>562.2</ele><time>2026-04-19T13:59:42.985Z</time></trkpt><trkpt lat="42.21661303795778" lon="12.966575700778412"><ele>562.4000000000001</ele><time>2026-04-19T13:59:44.985Z</time></trkpt><trkpt lat="42.216576360720964" lon="12.966469721212363"><ele>562.5999999999999</ele><time>2026-04-19T13:59:45.985Z</time></trkpt><trkpt lat="42.21654307501312" lon="12.966366693982259"><ele>562.8</ele><time>2026-04-19T13:59:46.985Z</time></trkpt><trkpt lat="42.2165079046464" lon="12.96626644805419"><ele>563.0</ele><time>2026-04-19T13:59:47.985Z</time></trkpt><trkpt lat="42.21646918756896" lon="12.966178097868408"><ele>563.0</ele><time>2026-04-19T13:59:48.985Z</time></trkpt><trkpt lat="42.21641381990673" lon="12.966063544449169"><ele>563.0</ele><time>2026-04-19T13:59:50.985Z</time></trkpt><trkpt lat="42.21638277169413" lon="12.965974152634633"><ele>563.0</ele><time>2026-04-19T13:59:52.985Z</time></trkpt><trkpt lat="42.21640332836399" lon="12.96582618893694"><ele>563.0</ele><time>2026-04-19T13:59:54.985Z</time></trkpt><trkpt lat="42.216419471359615" lon="12.965740021901368"><ele>563.0</ele><time>2026-04-19T13:59:55.985Z</time></trkpt><trkpt lat="42.216437586348825" lon="12.965652581858802"><ele>563.0</ele><time>2026-04-19T13:59:56.985Z</time></trkpt><trkpt lat="42.21644995624874" lon="12.965560132438194"><ele>563.6666666666666</ele><time>2026-04-19T13:59:57.985Z</time></trkpt><trkpt lat="42.21646580484067" lon="12.965461999595636"><ele>564.3333333333333</ele><time>2026-04-19T13:59:58.985Z</time></trkpt><trkpt lat="42.21648476387421" lon="12.96536350767575"><ele>565.0</ele><time>2026-04-19T13:59:59.985Z</time></trkpt><trkpt lat="42.2165059841841" lon="12.965270298363993"><ele>565.6666666666666</ele><time>2026-04-19T14:00:00.985Z</time></trkpt><trkpt lat="42.21651824291499" lon="12.96518086420463"><ele>566.3333333333334</ele><time>2026-04-19T14:00:01.985Z</time></trkpt><trkpt lat="42.21652500624302" lon="12.96509473022405"><ele>567.0</ele><time>2026-04-19T14:00:02.985Z</time></trkpt><trkpt lat="42.21651405440868" lon="12.964958831980294"><ele>567.3333333333334</ele><time>2026-04-19T14:00:04.985Z</time></trkpt><trkpt lat="42.21648886592888" lon="12.964860811705103"><ele>567.6666666666666</ele><time>2026-04-19T14:00:06.985Z</time></trkpt><trkpt lat="42.21645241933005" lon="12.964775475643748"><ele>568.0</ele><time>2026-04-19T14:00:08.985Z</time></trkpt><trkpt lat="42.21640580463468" lon="12.964665294127155"><ele>568.3333333333333</ele><time>2026-04-19T14:00:28.984Z</time></trkpt><trkpt lat="42.216354447807404" lon="12.964590894127191"><ele>568.6666666666666</ele><time>2026-04-19T14:00:29.984Z</time></trkpt><trkpt lat="42.21631722630456" lon="12.964496470305418"><ele>569.0</ele><time>2026-04-19T14:00:30.984Z</time></trkpt><trkpt lat="42.21628242665885" lon="12.964409962044487"><ele>574.1666666666666</ele><time>2026-04-19T14:00:31.984Z</time></trkpt><trkpt lat="42.21624973397918" lon="12.964321137674304"><ele>579.3333333333333</ele><time>2026-04-19T14:00:33.984Z</time></trkpt><trkpt lat="42.21630032127614" lon="12.964463928157818"><ele>584.5</ele><time>2026-04-19T14:00:42.984Z</time></trkpt><trkpt lat="42.21633932463844" lon="12.964539799163667"><ele>589.6666666666666</ele><time>2026-04-19T14:00:43.984Z</time></trkpt><trkpt lat="42.216380185609914" lon="12.964617135875136"><ele>594.8333333333334</ele><time>2026-04-19T14:00:44.984Z</time></trkpt><trkpt lat="42.21641717263262" lon="12.964694517960611"><ele>600.0</ele><time>2026-04-19T14:00:45.984Z</time></trkpt><trkpt lat="42.21645218703239" lon="12.964772679898093"><ele>595.4</ele><time>2026-04-19T14:00:46.984Z</time></trkpt><trkpt lat="42.21650259707436" lon="12.964904473465237"><ele>590.8</ele><time>2026-04-19T14:00:48.984Z</time></trkpt><trkpt lat="42.21653015171465" lon="12.965062082794551"><ele>586.2</ele><time>2026-04-19T14:00:50.984Z</time></trkpt><trkpt lat="42.21652230541778" lon="12.965225117045462"><ele>581.6</ele><time>2026-04-19T14:00:52.984Z</time></trkpt><trkpt lat="42.216495128680144" lon="12.965314669557076"><ele>577.0</ele><time>2026-04-19T14:00:53.984Z</time></trkpt><trkpt lat="42.216475414653765" lon="12.965412687105962"><ele>577.0</ele><time>2026-04-19T14:00:54.984Z</time></trkpt><trkpt lat="42.21646464211269" lon="12.965498846112828"><ele>577.0</ele><time>2026-04-19T14:00:55.984Z</time></trkpt><trkpt lat="42.21644292666657" lon="12.965654134111114"><ele>577.0</ele><time>2026-04-19T14:00:57.984Z</time></trkpt><trkpt lat="42.216421121164814" lon="12.965783229824858"><ele>577.0</ele><time>2026-04-19T14:00:59.984Z</time></trkpt><trkpt lat="42.21641681288733" lon="12.965883758482574"><ele>577.0</ele><time>2026-04-19T14:01:01.984Z</time></trkpt><trkpt lat="42.21636570341159" lon="12.96594998174829"><ele>577.0</ele><time>2026-04-19T14:01:04.983Z</time></trkpt><trkpt lat="42.21639718341826" lon="12.966028633021574"><ele>575.0</ele><time>2026-04-19T14:01:43.984Z</time></trkpt><trkpt lat="42.216446127840626" lon="12.966083702639832"><ele>573.0</ele><time>2026-04-19T14:01:45.984Z</time></trkpt><trkpt lat="42.21648538524863" lon="12.966213140546369"><ele>571.0</ele><time>2026-04-19T14:01:47.984Z</time></trkpt><trkpt lat="42.21653257435687" lon="12.966345105634035"><ele>569.0</ele><time>2026-04-19T14:01:49.984Z</time></trkpt><trkpt lat="42.216562496769185" lon="12.966421625436874"><ele>567.0</ele><time>2026-04-19T14:01:50.984Z</time></trkpt><trkpt lat="42.21659220000315" lon="12.966503359683061"><ele>565.0</ele><time>2026-04-19T14:01:51.984Z</time></trkpt><trkpt lat="42.216625174805664" lon="12.96658347369948"><ele>565.0</ele><time>2026-04-19T14:01:52.984Z</time></trkpt><trkpt lat="42.216649926103095" lon="12.966662260439383"><ele>565.0</ele><time>2026-04-19T14:01:53.984Z</time></trkpt><trkpt lat="42.216699837842796" lon="12.96678155030224"><ele>565.0</ele><time>2026-04-19T14:01:55.984Z</time></trkpt><trkpt lat="42.21674610341941" lon="12.966863108411712"><ele>565.0</ele><time>2026-04-19T14:01:59.984Z</time></trkpt><trkpt lat="42.21676361718262" lon="12.966961036731018"><ele>565.0</ele><time>2026-04-19T14:02:03.984Z</time></trkpt><trkpt lat="42.216797512913246" lon="12.967123043272442"><ele>565.0</ele><time>2026-04-19T14:02:06.984Z</time></trkpt><trkpt lat="42.21681929943317" lon="12.967227173088649"><ele>564.0</ele><time>2026-04-19T14:02:07.984Z</time></trkpt><trkpt lat="42.21684295561088" lon="12.967340239031785"><ele>563.0</ele><time>2026-04-19T14:02:08.984Z</time></trkpt><trkpt lat="42.21707289045077" lon="12.967044931013453"><ele>562.0</ele><time>2026-04-19T14:02:09.983Z</time></trkpt><trkpt lat="42.2166742648471" lon="12.967547540674145"><ele>561.6666666666667</ele><time>2026-04-19T14:02:10.983Z</time></trkpt><trkpt lat="42.21666636887144" lon="12.967675171922412"><ele>561.3333333333334</ele><time>2026-04-19T14:02:11.983Z</time></trkpt><trkpt lat="42.21665871216402" lon="12.96779893563999"><ele>561.0</ele><time>2026-04-19T14:02:12.983Z</time></trkpt><trkpt lat="42.2166503426126" lon="12.967895224098562"><ele>560.6666666666666</ele><time>2026-04-19T14:02:13.983Z</time></trkpt><trkpt lat="42.216639943009945" lon="12.968007429770507"><ele>560.3333333333333</ele><time>2026-04-19T14:02:14.983Z</time></trkpt><trkpt lat="42.2166296927145" lon="12.968103023136495"><ele>560.0</ele><time>2026-04-19T14:02:15.983Z</time></trkpt><trkpt lat="42.21660822440854" lon="12.968216755022011"><ele>560.0</ele><time>2026-04-19T14:02:17.983Z</time></trkpt><trkpt lat="42.216590370361224" lon="12.968356503361575"><ele>560.0</ele><time>2026-04-19T14:02:19.983Z</time></trkpt><trkpt lat="42.21686873662109" lon="12.969335686399155"><ele>559.0</ele><time>2026-04-19T14:02:22.983Z</time></trkpt><trkpt lat="42.2169387725788" lon="12.969362583323095"><ele>558.0</ele><time>2026-04-19T14:02:23.983Z</time></trkpt><trkpt lat="42.2170458562113" lon="12.969421876845896"><ele>557.0</ele><time>2026-04-19T14:02:24.983Z</time></trkpt><trkpt lat="42.21712287226752" lon="12.969447799719209"><ele>556.0</ele><time>2026-04-19T14:02:25.983Z</time></trkpt><trkpt lat="42.21720267710064" lon="12.969475263022074"><ele>555.0</ele><time>2026-04-19T14:02:26.983Z</time></trkpt><trkpt lat="42.21727031480798" lon="12.969489959555174"><ele>554.0</ele><time>2026-04-19T14:02:27.983Z</time></trkpt><trkpt lat="42.2176008246636" lon="12.96906225528756"><ele>554.0</ele><time>2026-04-19T14:02:31.983Z</time></trkpt><trkpt lat="42.2176270383737" lon="12.96896577706712"><ele>554.0</ele><time>2026-04-19T14:02:36.983Z</time></trkpt><trkpt lat="42.21763192984528" lon="12.968877610425796"><ele>554.0</ele><time>2026-04-19T14:02:41.983Z</time></trkpt><trkpt lat="42.21762298055937" lon="12.96878618066114"><ele>554.0</ele><time>2026-04-19T14:03:13.982Z</time></trkpt><trkpt lat="42.21763124974511" lon="12.968600646148401"><ele>554.0</ele><time>2026-04-19T14:03:15.982Z</time></trkpt><trkpt lat="42.21762624266209" lon="12.968489462459367"><ele>554.0</ele><time>2026-04-19T14:03:16.982Z</time></trkpt><trkpt lat="42.217620963064995" lon="12.968381260562245"><ele>554.3333333333333</ele><time>2026-04-19T14:03:17.984Z</time></trkpt><trkpt lat="42.21760723795844" lon="12.968270922035487"><ele>554.6666666666666</ele><time>2026-04-19T14:03:18.984Z</time></trkpt><trkpt lat="42.217567500857214" lon="12.96817337886746"><ele>555.0</ele><time>2026-04-19T14:03:19.984Z</time></trkpt><trkpt lat="42.21755224636775" lon="12.968073524159678"><ele>555.3333333333334</ele><time>2026-04-19T14:03:20.984Z</time></trkpt><trkpt lat="42.217517295865086" lon="12.967981539551225"><ele>555.6666666666667</ele><time>2026-04-19T14:03:21.984Z</time></trkpt><trkpt lat="42.217483152464936" lon="12.967894710363169"><ele>556.0</ele><time>2026-04-19T14:03:22.983Z</time></trkpt><trkpt lat="42.21746226253711" lon="12.967807143329699"><ele>556.0</ele><time>2026-04-19T14:03:23.983Z</time></trkpt><trkpt lat="42.21745915361252" lon="12.96772124952184"><ele>556.0</ele><time>2026-04-19T14:03:24.984Z</time></trkpt><trkpt lat="42.217462756468215" lon="12.96763469711846"><ele>556.0</ele><time>2026-04-19T14:03:25.984Z</time></trkpt><trkpt lat="42.217474894887125" lon="12.967531684329664"><ele>556.0</ele><time>2026-04-19T14:03:26.983Z</time></trkpt><trkpt lat="42.2174952990006" lon="12.967434435802723"><ele>556.0</ele><time>2026-04-19T14:03:27.983Z</time></trkpt><trkpt lat="42.2175215131677" lon="12.967321051507588"><ele>556.0</ele><time>2026-04-19T14:03:28.983Z</time></trkpt><trkpt lat="42.21754255986463" lon="12.967209828576923"><ele>556.1666666666667</ele><time>2026-04-19T14:03:29.984Z</time></trkpt><trkpt lat="42.21755776442151" lon="12.967098767046158"><ele>556.3333333333334</ele><time>2026-04-19T14:03:30.983Z</time></trkpt><trkpt lat="42.217563059260335" lon="12.966986610915809"><ele>556.5</ele><time>2026-04-19T14:03:31.983Z</time></trkpt><trkpt lat="42.21755955361302" lon="12.966888104828072"><ele>556.6666666666666</ele><time>2026-04-19T14:03:32.983Z</time></trkpt><trkpt lat="42.217549500820276" lon="12.966783286554781"><ele>556.8333333333333</ele><time>2026-04-19T14:03:33.983Z</time></trkpt><trkpt lat="42.21758354624245" lon="12.966679874175268"><ele>557.0</ele><time>2026-04-19T14:03:34.983Z</time></trkpt><trkpt lat="42.217599129910504" lon="12.966564485266655"><ele>556.6</ele><time>2026-04-19T14:03:35.983Z</time></trkpt><trkpt lat="42.21763150616086" lon="12.96644189276144"><ele>556.2</ele><time>2026-04-19T14:03:36.983Z</time></trkpt><trkpt lat="42.2176803313762" lon="12.966328702353518"><ele>555.8</ele><time>2026-04-19T14:03:37.983Z</time></trkpt><trkpt lat="42.21771099149111" lon="12.966215588084106"><ele>555.4</ele><time>2026-04-19T14:03:38.983Z</time></trkpt><trkpt lat="42.217740865602046" lon="12.966104433567935"><ele>555.0</ele><time>2026-04-19T14:03:39.983Z</time></trkpt><trkpt lat="42.21776637278591" lon="12.965997323830033"><ele>555.0</ele><time>2026-04-19T14:03:40.983Z</time></trkpt><trkpt lat="42.217795352740936" lon="12.965884054598524"><ele>555.0</ele><time>2026-04-19T14:03:41.983Z</time></trkpt><trkpt lat="42.21782133884966" lon="12.965766252394907"><ele>555.0</ele><time>2026-04-19T14:03:42.983Z</time></trkpt><trkpt lat="42.217843118755155" lon="12.965655113795886"><ele>555.0</ele><time>2026-04-19T14:03:43.983Z</time></trkpt><trkpt lat="42.21788271403391" lon="12.96555374079764"><ele>555.0</ele><time>2026-04-19T14:03:44.983Z</time></trkpt><trkpt lat="42.21789727415831" lon="12.965443323538857"><ele>555.0</ele><time>2026-04-19T14:03:45.983Z</time></trkpt><trkpt lat="42.21790575949814" lon="12.9653191825834"><ele>554.2</ele><time>2026-04-19T14:03:46.983Z</time></trkpt><trkpt lat="42.217907991028895" lon="12.965196248614056"><ele>553.4</ele><time>2026-04-19T14:03:47.983Z</time></trkpt><trkpt lat="42.21790236208108" lon="12.965072768776976"><ele>552.6</ele><time>2026-04-19T14:03:48.983Z</time></trkpt><trkpt lat="42.2178900965637" lon="12.964949359087589"><ele>551.8</ele><time>2026-04-19T14:03:49.983Z</time></trkpt><trkpt lat="42.217866269859414" lon="12.964824116862642"><ele>551.0</ele><time>2026-04-19T14:03:50.983Z</time></trkpt><trkpt lat="42.21783504982919" lon="12.96470565198963"><ele>551.0</ele><time>2026-04-19T14:03:51.983Z</time></trkpt><trkpt lat="42.21780649620159" lon="12.96457884234323"><ele>551.0</ele><time>2026-04-19T14:03:52.983Z</time></trkpt><trkpt lat="42.21775284571" lon="12.964465189636439"><ele>551.0</ele><time>2026-04-19T14:03:53.983Z</time></trkpt><trkpt lat="42.217679904455615" lon="12.964369644061428"><ele>551.0</ele><time>2026-04-19T14:03:54.983Z</time></trkpt><trkpt lat="42.21762168114905" lon="12.964261713477919"><ele>551.0</ele><time>2026-04-19T14:03:55.983Z</time></trkpt><trkpt lat="42.21758190522277" lon="12.964144466750625"><ele>550.8</ele><time>2026-04-19T14:03:56.983Z</time></trkpt><trkpt lat="42.21753610615849" lon="12.964033433362136"><ele>550.6</ele><time>2026-04-19T14:03:57.983Z</time></trkpt><trkpt lat="42.217497550443646" lon="12.963917863204838"><ele>550.4</ele><time>2026-04-19T14:03:58.983Z</time></trkpt><trkpt lat="42.217454335834226" lon="12.963793957165043"><ele>550.2</ele><time>2026-04-19T14:03:59.983Z</time></trkpt><trkpt lat="42.21739580437029" lon="12.963681579097427"><ele>550.0</ele><time>2026-04-19T14:04:00.983Z</time></trkpt><trkpt lat="42.21735630807742" lon="12.963555184424182"><ele>551.1666666666667</ele><time>2026-04-19T14:04:01.983Z</time></trkpt><trkpt lat="42.21727957140859" lon="12.96344255674094"><ele>552.3333333333334</ele><time>2026-04-19T14:04:02.983Z</time></trkpt><trkpt lat="42.21720137421351" lon="12.963366400010697"><ele>553.5</ele><time>2026-04-19T14:04:03.983Z</time></trkpt><trkpt lat="42.21715485442923" lon="12.963271797958626"><ele>554.6666666666666</ele><time>2026-04-19T14:04:04.983Z</time></trkpt><trkpt lat="42.217126792727406" lon="12.96317450496583"><ele>555.8333333333333</ele><time>2026-04-19T14:04:05.983Z</time></trkpt><trkpt lat="42.21711917699049" lon="12.963084146685366"><ele>557.0</ele><time>2026-04-19T14:04:06.983Z</time></trkpt><trkpt lat="42.21712293224826" lon="12.962993204450736"><ele>559.25</ele><time>2026-04-19T14:04:07.983Z</time></trkpt><trkpt lat="42.217172670885546" lon="12.962850723568407"><ele>561.5</ele><time>2026-04-19T14:04:09.983Z</time></trkpt><trkpt lat="42.217210163178684" lon="12.962730984754497"><ele>563.75</ele><time>2026-04-19T14:04:11.983Z</time></trkpt><trkpt lat="42.21725954094492" lon="12.962673036027315"><ele>566.0</ele><time>2026-04-19T14:04:14.983Z</time></trkpt><trkpt lat="42.2173295797094" lon="12.962441474307061"><ele>560.5</ele><time>2026-04-19T14:04:57.982Z</time></trkpt><trkpt lat="42.217257429536765" lon="12.962319550414938"><ele>555.0</ele><time>2026-04-19T14:04:59.982Z</time></trkpt><trkpt lat="42.21719685740076" lon="12.9622459173285"><ele>549.5</ele><time>2026-04-19T14:05:01.982Z</time></trkpt><trkpt lat="42.217075392488155" lon="12.96235309826742"><ele>544.0</ele><time>2026-04-19T14:05:02.982Z</time></trkpt><trkpt lat="42.21695820473499" lon="12.962381621418546"><ele>544.0</ele><time>2026-04-19T14:05:04.982Z</time></trkpt><trkpt lat="42.216846534484304" lon="12.962298663697796"><ele>544.0</ele><time>2026-04-19T14:05:06.982Z</time></trkpt><trkpt lat="42.216744003872314" lon="12.962207812741513"><ele>544.0</ele><time>2026-04-19T14:05:08.982Z</time></trkpt><trkpt lat="42.21670028296749" lon="12.962128913535805"><ele>544.0</ele><time>2026-04-19T14:05:09.982Z</time></trkpt><trkpt lat="42.2166621755124" lon="12.962040189362979"><ele>544.0</ele><time>2026-04-19T14:05:10.982Z</time></trkpt><trkpt lat="42.2166298930947" lon="12.961958250310984"><ele>544.0</ele><time>2026-04-19T14:05:11.982Z</time></trkpt><trkpt lat="42.21659762910584" lon="12.961869424265089"><ele>544.0</ele><time>2026-04-19T14:05:12.981Z</time></trkpt><trkpt lat="42.21656474164447" lon="12.961774249037047"><ele>544.0</ele><time>2026-04-19T14:05:13.981Z</time></trkpt><trkpt lat="42.21653239146221" lon="12.961674002011078"><ele>544.0</ele><time>2026-04-19T14:05:14.981Z</time></trkpt><trkpt lat="42.21649850446939" lon="12.961568524829996"><ele>544.0</ele><time>2026-04-19T14:05:15.981Z</time></trkpt><trkpt lat="42.21646696751436" lon="12.961459881623803"><ele>544.0</ele><time>2026-04-19T14:05:16.981Z</time></trkpt><trkpt lat="42.216432900668686" lon="12.961339473293103"><ele>543.5</ele><time>2026-04-19T14:05:17.981Z</time></trkpt><trkpt lat="42.216385991650824" lon="12.961222820683188"><ele>543.0</ele><time>2026-04-19T14:05:18.981Z</time></trkpt><trkpt lat="42.216368115991564" lon="12.961107342630545"><ele>542.5</ele><time>2026-04-19T14:05:19.981Z</time></trkpt><trkpt lat="42.2163414442764" lon="12.961005402863357"><ele>542.0</ele><time>2026-04-19T14:05:20.981Z</time></trkpt><trkpt lat="42.21631255833551" lon="12.960914245711932"><ele>541.5</ele><time>2026-04-19T14:05:21.981Z</time></trkpt><trkpt lat="42.21628885483622" lon="12.96082312273264"><ele>541.0</ele><time>2026-04-19T14:05:22.981Z</time></trkpt><trkpt lat="42.216263950283235" lon="12.960728556559022"><ele>541.0</ele><time>2026-04-19T14:05:23.983Z</time></trkpt><trkpt lat="42.21623742556576" lon="12.960631777267777"><ele>541.0</ele><time>2026-04-19T14:05:24.982Z</time></trkpt><trkpt lat="42.216214349125494" lon="12.96053823726669"><ele>541.0</ele><time>2026-04-19T14:05:25.982Z</time></trkpt><trkpt lat="42.21620020903918" lon="12.960443517161872"><ele>541.0</ele><time>2026-04-19T14:05:26.983Z</time></trkpt><trkpt lat="42.21618474412761" lon="12.960357074553709"><ele>541.0</ele><time>2026-04-19T14:05:27.983Z</time></trkpt><trkpt lat="42.21614467201828" lon="12.960196120644325"><ele>541.0</ele><time>2026-04-19T14:05:29.982Z</time></trkpt><trkpt lat="42.21611749505246" lon="12.960016448613853"><ele>542.0000000000001</ele><time>2026-04-19T14:05:31.983Z</time></trkpt><trkpt lat="42.216096560126466" lon="12.959928004320286"><ele>543.0</ele><time>2026-04-19T14:05:32.983Z</time></trkpt><trkpt lat="42.21607278095957" lon="12.959835661904618"><ele>544.0</ele><time>2026-04-19T14:05:33.983Z</time></trkpt><trkpt lat="42.216068593779525" lon="12.959735615667983"><ele>545.0</ele><time>2026-04-19T14:05:34.983Z</time></trkpt><trkpt lat="42.21605121114595" lon="12.959636309407527"><ele>546.0</ele><time>2026-04-19T14:05:35.983Z</time></trkpt><trkpt lat="42.21603390356603" lon="12.959536273744902"><ele>547.0000000000001</ele><time>2026-04-19T14:05:36.983Z</time></trkpt><trkpt lat="42.21601733313357" lon="12.9594392325988"><ele>548.0</ele><time>2026-04-19T14:05:37.983Z</time></trkpt><trkpt lat="42.2160029962497" lon="12.959341907245127"><ele>548.0</ele><time>2026-04-19T14:05:38.983Z</time></trkpt><trkpt lat="42.21598955032903" lon="12.959240339788533"><ele>548.0</ele><time>2026-04-19T14:05:39.983Z</time></trkpt><trkpt lat="42.215980647039494" lon="12.959139383478183"><ele>548.0</ele><time>2026-04-19T14:05:40.983Z</time></trkpt><trkpt lat="42.21597062967607" lon="12.959033562963608"><ele>548.0</ele><time>2026-04-19T14:05:41.983Z</time></trkpt><trkpt lat="42.2159602792752" lon="12.958927713753969"><ele>548.0</ele><time>2026-04-19T14:05:42.983Z</time></trkpt><trkpt lat="42.21594575217641" lon="12.95881095734588"><ele>548.0</ele><time>2026-04-19T14:05:43.983Z</time></trkpt><trkpt lat="42.21592798479489" lon="12.958694006705414"><ele>547.5</ele><time>2026-04-19T14:05:44.983Z</time></trkpt><trkpt lat="42.21589592203236" lon="12.958584928122068"><ele>547.0</ele><time>2026-04-19T14:05:45.983Z</time></trkpt><trkpt lat="42.21589516343293" lon="12.958474437267169"><ele>546.5</ele><time>2026-04-19T14:05:46.983Z</time></trkpt><trkpt lat="42.215895681925865" lon="12.958368311363758"><ele>546.0</ele><time>2026-04-19T14:05:47.983Z</time></trkpt><trkpt lat="42.21590226695138" lon="12.958272585793143"><ele>545.5</ele><time>2026-04-19T14:05:48.983Z</time></trkpt><trkpt lat="42.215926853823404" lon="12.958149666146891"><ele>545.0</ele><time>2026-04-19T14:05:50.983Z</time></trkpt><trkpt lat="42.215981707463264" lon="12.958081816430886"><ele>544.2</ele><time>2026-04-19T14:05:52.983Z</time></trkpt><trkpt lat="42.21605931914981" lon="12.958097396811212"><ele>543.4</ele><time>2026-04-19T14:05:54.983Z</time></trkpt><trkpt lat="42.21614048921676" lon="12.958147851708429"><ele>542.6</ele><time>2026-04-19T14:05:56.983Z</time></trkpt><trkpt lat="42.21622049041739" lon="12.958177492907451"><ele>541.8</ele><time>2026-04-19T14:05:58.983Z</time></trkpt><trkpt lat="42.21632721711763" lon="12.958167451661097"><ele>541.0</ele><time>2026-04-19T14:06:00.983Z</time></trkpt><trkpt lat="42.21640528964455" lon="12.958080986102235"><ele>541.0</ele><time>2026-04-19T14:06:02.983Z</time></trkpt><trkpt lat="42.21646882118171" lon="12.957996736984734"><ele>541.0</ele><time>2026-04-19T14:06:04.983Z</time></trkpt><trkpt lat="42.21655252643456" lon="12.957887223161435"><ele>541.0</ele><time>2026-04-19T14:06:06.983Z</time></trkpt><trkpt lat="42.21661571944046" lon="12.95783685538826"><ele>541.0</ele><time>2026-04-19T14:06:07.983Z</time></trkpt><trkpt lat="42.216667832462655" lon="12.957760179765318"><ele>541.0</ele><time>2026-04-19T14:06:08.983Z</time></trkpt><trkpt lat="42.21671992469812" lon="12.957677661639739"><ele>541.0</ele><time>2026-04-19T14:06:09.983Z</time></trkpt><trkpt lat="42.21676760221374" lon="12.957599608737844"><ele>541.5</ele><time>2026-04-19T14:06:10.983Z</time></trkpt><trkpt lat="42.216826102079004" lon="12.957530674540411"><ele>542.0</ele><time>2026-04-19T14:06:11.982Z</time></trkpt><trkpt lat="42.21689105989421" lon="12.957477055289813"><ele>542.5</ele><time>2026-04-19T14:06:12.982Z</time></trkpt><trkpt lat="42.21696518649581" lon="12.957441657278435"><ele>543.0</ele><time>2026-04-19T14:06:13.982Z</time></trkpt><trkpt lat="42.21703664028463" lon="12.95741372799826"><ele>543.5</ele><time>2026-04-19T14:06:14.982Z</time></trkpt><trkpt lat="42.217114430277114" lon="12.957405072023665"><ele>544.0</ele><time>2026-04-19T14:06:15.982Z</time></trkpt><trkpt lat="42.2171827148787" lon="12.957413432112958"><ele>543.9999999999999</ele><time>2026-04-19T14:06:16.982Z</time></trkpt><trkpt lat="42.217261289235374" lon="12.957404154808762"><ele>544.0</ele><time>2026-04-19T14:06:17.982Z</time></trkpt><trkpt lat="42.217337304001106" lon="12.957394162736225"><ele>544.0</ele><time>2026-04-19T14:06:18.982Z</time></trkpt><trkpt lat="42.21741160868966" lon="12.957378057290162"><ele>544.0</ele><time>2026-04-19T14:06:19.982Z</time></trkpt><trkpt lat="42.21748049406121" lon="12.957356879554293"><ele>544.0</ele><time>2026-04-19T14:06:20.982Z</time></trkpt><trkpt lat="42.21754760447984" lon="12.95733448640614"><ele>543.9999999999999</ele><time>2026-04-19T14:06:21.982Z</time></trkpt><trkpt lat="42.2176142154245" lon="12.95730129826949"><ele>544.0</ele><time>2026-04-19T14:06:22.982Z</time></trkpt><trkpt lat="42.21768542515797" lon="12.95727568282107"><ele>545.1428571428571</ele><time>2026-04-19T14:06:23.982Z</time></trkpt><trkpt lat="42.21775011080524" lon="12.957251247784441"><ele>546.2857142857142</ele><time>2026-04-19T14:06:24.982Z</time></trkpt><trkpt lat="42.217815485152094" lon="12.957213171097392"><ele>547.4285714285714</ele><time>2026-04-19T14:06:25.982Z</time></trkpt><trkpt lat="42.21788023660289" lon="12.957168502151584"><ele>548.5714285714286</ele><time>2026-04-19T14:06:26.982Z</time></trkpt><trkpt lat="42.21794713913627" lon="12.95712850461953"><ele>549.7142857142858</ele><time>2026-04-19T14:06:27.982Z</time></trkpt><trkpt lat="42.21801445686422" lon="12.957087078569186"><ele>550.8571428571429</ele><time>2026-04-19T14:06:28.982Z</time></trkpt><trkpt lat="42.2180819601865" lon="12.957061365886878"><ele>552.0</ele><time>2026-04-19T14:06:29.982Z</time></trkpt><trkpt lat="42.21814745663901" lon="12.957041389890279"><ele>554.1666666666666</ele><time>2026-04-19T14:06:30.982Z</time></trkpt><trkpt lat="42.218212860115244" lon="12.957022378015353"><ele>556.3333333333334</ele><time>2026-04-19T14:06:31.982Z</time></trkpt><trkpt lat="42.21832315011468" lon="12.956998915416095"><ele>558.5</ele><time>2026-04-19T14:06:33.982Z</time></trkpt><trkpt lat="42.218386900355405" lon="12.957000217518653"><ele>560.6666666666667</ele><time>2026-04-19T14:06:35.982Z</time></trkpt><trkpt lat="42.218291621752066" lon="12.957037387786716"><ele>562.8333333333334</ele><time>2026-04-19T14:07:38.982Z</time></trkpt><trkpt lat="42.21822552542621" lon="12.957045021797043"><ele>565.0</ele><time>2026-04-19T14:07:39.982Z</time></trkpt><trkpt lat="42.218162771674436" lon="12.957061830776832"><ele>562.4</ele><time>2026-04-19T14:07:40.982Z</time></trkpt><trkpt lat="42.21808897066802" lon="12.95708118625977"><ele>559.8</ele><time>2026-04-19T14:07:41.982Z</time></trkpt><trkpt lat="42.2180080890206" lon="12.95711742214742"><ele>557.2</ele><time>2026-04-19T14:07:42.982Z</time></trkpt><trkpt lat="42.21788106208636" lon="12.957190522472313"><ele>554.6</ele><time>2026-04-19T14:07:43.982Z</time></trkpt><trkpt lat="42.21776367344064" lon="12.957172318559703"><ele>552.0</ele><time>2026-04-19T14:07:44.982Z</time></trkpt><trkpt lat="42.217637070681434" lon="12.957227245226695"><ele>552.0</ele><time>2026-04-19T14:07:45.982Z</time></trkpt><trkpt lat="42.217530537529605" lon="12.95730134754545"><ele>552.0</ele><time>2026-04-19T14:07:46.982Z</time></trkpt><trkpt lat="42.217432244621826" lon="12.95734567797647"><ele>552.0</ele><time>2026-04-19T14:07:47.982Z</time></trkpt><trkpt lat="42.217348386299484" lon="12.957364748069505"><ele>552.0</ele><time>2026-04-19T14:07:48.982Z</time></trkpt><trkpt lat="42.21724200947515" lon="12.957368967502745"><ele>552.0</ele><time>2026-04-19T14:07:49.982Z</time></trkpt><trkpt lat="42.21712696352082" lon="12.95738315481591"><ele>552.7142857142858</ele><time>2026-04-19T14:07:50.982Z</time></trkpt><trkpt lat="42.21703074569865" lon="12.957394491374545"><ele>553.4285714285714</ele><time>2026-04-19T14:07:51.982Z</time></trkpt><trkpt lat="42.21695586822094" lon="12.95740115414845"><ele>554.1428571428571</ele><time>2026-04-19T14:07:52.982Z</time></trkpt><trkpt lat="42.216888158641254" lon="12.957420085888826"><ele>554.8571428571429</ele><time>2026-04-19T14:07:53.982Z</time></trkpt><trkpt lat="42.21682892978016" lon="12.957452918878563"><ele>555.5714285714286</ele><time>2026-04-19T14:07:54.982Z</time></trkpt><trkpt lat="42.2167800913013" lon="12.957514857364934"><ele>556.2857142857143</ele><time>2026-04-19T14:07:55.982Z</time></trkpt><trkpt lat="42.21673756457011" lon="12.95758506179208"><ele>557.0</ele><time>2026-04-19T14:07:56.982Z</time></trkpt><trkpt lat="42.21667981791632" lon="12.957646508388859"><ele>557.0</ele><time>2026-04-19T14:07:57.982Z</time></trkpt><trkpt lat="42.21663339897506" lon="12.957723800535094"><ele>557.0</ele><time>2026-04-19T14:07:58.982Z</time></trkpt><trkpt lat="42.21658158730492" lon="12.957805335613838"><ele>557.0</ele><time>2026-04-19T14:07:59.982Z</time></trkpt><trkpt lat="42.21652935230166" lon="12.95787924120258"><ele>557.0</ele><time>2026-04-19T14:08:00.982Z</time></trkpt><trkpt lat="42.21647635557171" lon="12.95795255073767"><ele>557.0</ele><time>2026-04-19T14:08:01.982Z</time></trkpt><trkpt lat="42.21642591635754" lon="12.958016230024974"><ele>557.0</ele><time>2026-04-19T14:08:02.982Z</time></trkpt><trkpt lat="42.216374057535994" lon="12.9580784404073"><ele>557.0</ele><time>2026-04-19T14:08:03.982Z</time></trkpt><trkpt lat="42.2163138249191" lon="12.958128374899381"><ele>553.8000000000001</ele><time>2026-04-19T14:08:04.982Z</time></trkpt><trkpt lat="42.216204601544156" lon="12.958130235741278"><ele>550.6</ele><time>2026-04-19T14:08:06.982Z</time></trkpt><trkpt lat="42.21612073419743" lon="12.958072080937638"><ele>547.4000000000001</ele><time>2026-04-19T14:08:08.982Z</time></trkpt><trkpt lat="42.21602791682241" lon="12.958028332423137"><ele>544.2</ele><time>2026-04-19T14:08:10.982Z</time></trkpt><trkpt lat="42.215925398435644" lon="12.958051270156206"><ele>541.0</ele><time>2026-04-19T14:08:12.982Z</time></trkpt><trkpt lat="42.215879151396734" lon="12.958129551525222"><ele>541.0</ele><time>2026-04-19T14:08:13.982Z</time></trkpt><trkpt lat="42.215857615841315" lon="12.958261913803096"><ele>541.0</ele><time>2026-04-19T14:08:15.982Z</time></trkpt><trkpt lat="42.21585834638552" lon="12.958414242209995"><ele>541.0</ele><time>2026-04-19T14:08:17.982Z</time></trkpt><trkpt lat="42.21587735173691" lon="12.958581395596008"><ele>541.0</ele><time>2026-04-19T14:08:19.982Z</time></trkpt><trkpt lat="42.21590929594075" lon="12.958722720294885"><ele>541.0</ele><time>2026-04-19T14:08:21.982Z</time></trkpt><trkpt lat="42.21591552576924" lon="12.958835697738936"><ele>541.6666666666667</ele><time>2026-04-19T14:08:23.982Z</time></trkpt><trkpt lat="42.21592813436877" lon="12.958932255217041"><ele>542.3333333333334</ele><time>2026-04-19T14:08:24.982Z</time></trkpt><trkpt lat="42.215944020055154" lon="12.959107156180915"><ele>543.0</ele><time>2026-04-19T14:08:26.981Z</time></trkpt><trkpt lat="42.21595392275036" lon="12.959211765328892"><ele>543.6666666666666</ele><time>2026-04-19T14:08:27.981Z</time></trkpt><trkpt lat="42.215964927444894" lon="12.959310159784541"><ele>544.3333333333333</ele><time>2026-04-19T14:08:28.981Z</time></trkpt><trkpt lat="42.2159920628178" lon="12.959390899067609"><ele>545.0</ele><time>2026-04-19T14:08:29.981Z</time></trkpt><trkpt lat="42.21600768686432" lon="12.959507360465047"><ele>545.5</ele><time>2026-04-19T14:08:30.981Z</time></trkpt><trkpt lat="42.216023318957554" lon="12.959629249010764"><ele>546.0</ele><time>2026-04-19T14:08:31.981Z</time></trkpt><trkpt lat="42.21604552661696" lon="12.959740567675253"><ele>546.5</ele><time>2026-04-19T14:08:32.981Z</time></trkpt><trkpt lat="42.21606418249862" lon="12.959842413317906"><ele>547.0</ele><time>2026-04-19T14:08:33.981Z</time></trkpt><trkpt lat="42.216080832277754" lon="12.959929684026667"><ele>547.5</ele><time>2026-04-19T14:08:34.981Z</time></trkpt><trkpt lat="42.216094324260915" lon="12.960030394824297"><ele>548.0</ele><time>2026-04-19T14:08:35.981Z</time></trkpt><trkpt lat="42.216105577782656" lon="12.960135313166655"><ele>546.6</ele><time>2026-04-19T14:08:36.981Z</time></trkpt><trkpt lat="42.21613330417006" lon="12.960292841437296"><ele>545.1999999999999</ele><time>2026-04-19T14:08:38.981Z</time></trkpt><trkpt lat="42.2161565662581" lon="12.960418520565133"><ele>543.8</ele><time>2026-04-19T14:08:39.981Z</time></trkpt><trkpt lat="42.21617959168874" lon="12.960541653377485"><ele>542.4</ele><time>2026-04-19T14:08:40.981Z</time></trkpt><trkpt lat="42.21620056039025" lon="12.960645479752241"><ele>541.0</ele><time>2026-04-19T14:08:41.981Z</time></trkpt><trkpt lat="42.216234684278035" lon="12.96073300001455"><ele>541.0</ele><time>2026-04-19T14:08:42.981Z</time></trkpt><trkpt lat="42.216246109131774" lon="12.960845681799876"><ele>541.0</ele><time>2026-04-19T14:08:43.981Z</time></trkpt><trkpt lat="42.21629667983266" lon="12.960983255737093"><ele>541.0</ele><time>2026-04-19T14:08:44.981Z</time></trkpt><trkpt lat="42.21633694902753" lon="12.961097974930697"><ele>541.0</ele><time>2026-04-19T14:08:45.981Z</time></trkpt><trkpt lat="42.216376116907746" lon="12.961205194952312"><ele>541.0</ele><time>2026-04-19T14:08:46.981Z</time></trkpt><trkpt lat="42.21638611246279" lon="12.961330225464344"><ele>540.4</ele><time>2026-04-19T14:08:47.981Z</time></trkpt><trkpt lat="42.21641741983179" lon="12.961440822754223"><ele>539.8</ele><time>2026-04-19T14:08:48.981Z</time></trkpt><trkpt lat="42.21645223011978" lon="12.961556476748244"><ele>539.1999999999999</ele><time>2026-04-19T14:08:49.981Z</time></trkpt><trkpt lat="42.21649441841236" lon="12.961673406282651"><ele>538.6</ele><time>2026-04-19T14:08:50.981Z</time></trkpt><trkpt lat="42.216543451580996" lon="12.961788296288544"><ele>538.0</ele><time>2026-04-19T14:08:51.981Z</time></trkpt><trkpt lat="42.216583210073594" lon="12.961885481862156"><ele>539.0</ele><time>2026-04-19T14:08:52.981Z</time></trkpt><trkpt lat="42.216607418497944" lon="12.961996885717586"><ele>540.0</ele><time>2026-04-19T14:08:53.981Z</time></trkpt><trkpt lat="42.216660649706085" lon="12.96208556249027"><ele>541.0</ele><time>2026-04-19T14:08:54.981Z</time></trkpt><trkpt lat="42.21669221701929" lon="12.962193421516565"><ele>542.0</ele><time>2026-04-19T14:08:55.981Z</time></trkpt><trkpt lat="42.21675025333823" lon="12.962281450196457"><ele>543.0</ele><time>2026-04-19T14:08:56.981Z</time></trkpt><trkpt lat="42.216806052426215" lon="12.96233731134342"><ele>544.0</ele><time>2026-04-19T14:08:57.981Z</time></trkpt><trkpt lat="42.21686684315558" lon="12.96236093808932"><ele>544.0</ele><time>2026-04-19T14:08:58.981Z</time></trkpt><trkpt lat="42.21699907301646" lon="12.962352503630665"><ele>544.0</ele><time>2026-04-19T14:09:00.981Z</time></trkpt><trkpt lat="42.21706315429957" lon="12.962354870884322"><ele>544.0</ele><time>2026-04-19T14:09:01.981Z</time></trkpt><trkpt lat="42.217165597141744" lon="12.962404228034929"><ele>544.0</ele><time>2026-04-19T14:09:03.981Z</time></trkpt><trkpt lat="42.21722081874662" lon="12.96248237509536"><ele>544.0</ele><time>2026-04-19T14:09:05.981Z</time></trkpt><trkpt lat="42.21723933731397" lon="12.962593241055686"><ele>543.8333333333334</ele><time>2026-04-19T14:09:07.981Z</time></trkpt><trkpt lat="42.21723601128288" lon="12.962719445902591"><ele>543.6666666666667</ele><time>2026-04-19T14:09:09.981Z</time></trkpt><trkpt lat="42.21716773516086" lon="12.962777788664305"><ele>543.5</ele><time>2026-04-19T14:09:10.981Z</time></trkpt><trkpt lat="42.21713992145782" lon="12.962855501480886"><ele>543.3333333333334</ele><time>2026-04-19T14:09:11.981Z</time></trkpt><trkpt lat="42.21710598335495" lon="12.962939092410029"><ele>543.1666666666666</ele><time>2026-04-19T14:09:12.981Z</time></trkpt><trkpt lat="42.21708679823286" lon="12.9630293320028"><ele>543.0</ele><time>2026-04-19T14:09:13.981Z</time></trkpt><trkpt lat="42.21709844446119" lon="12.963194687447265"><ele>543.0</ele><time>2026-04-19T14:09:15.981Z</time></trkpt><trkpt lat="42.21715910906552" lon="12.963343978615963"><ele>543.0</ele><time>2026-04-19T14:09:17.98Z</time></trkpt><trkpt lat="42.217210747013866" lon="12.963411557499617"><ele>543.0</ele><time>2026-04-19T14:09:18.98Z</time></trkpt><trkpt lat="42.21728825034564" lon="12.96351655569104"><ele>543.0</ele><time>2026-04-19T14:09:20.98Z</time></trkpt><trkpt lat="42.21734517774602" lon="12.963612104279765"><ele>543.0</ele><time>2026-04-19T14:09:22.98Z</time></trkpt><trkpt lat="42.21739567158472" lon="12.963735292767597"><ele>544.4</ele><time>2026-04-19T14:09:24.98Z</time></trkpt><trkpt lat="42.21744808091604" lon="12.963878995339293"><ele>545.8</ele><time>2026-04-19T14:09:26.98Z</time></trkpt><trkpt lat="42.217494916411084" lon="12.964019421918422"><ele>547.2</ele><time>2026-04-19T14:09:28.98Z</time></trkpt><trkpt lat="42.21755448768665" lon="12.964169962706066"><ele>548.6</ele><time>2026-04-19T14:09:30.98Z</time></trkpt><trkpt lat="42.21759016997494" lon="12.964243077608401"><ele>550.0</ele><time>2026-04-19T14:09:31.98Z</time></trkpt><trkpt lat="42.21762963821267" lon="12.964318199586112"><ele>550.2</ele><time>2026-04-19T14:09:32.98Z</time></trkpt><trkpt lat="42.21767348063618" lon="12.964395391381533"><ele>550.4</ele><time>2026-04-19T14:09:33.98Z</time></trkpt><trkpt lat="42.21774522538804" lon="12.96453079318341"><ele>550.6</ele><time>2026-04-19T14:09:35.981Z</time></trkpt><trkpt lat="42.21779738157398" lon="12.96466442361075"><ele>550.8</ele><time>2026-04-19T14:09:37.981Z</time></trkpt><trkpt lat="42.21782542056674" lon="12.964801275415121"><ele>551.0</ele><time>2026-04-19T14:09:39.981Z</time></trkpt><trkpt lat="42.217851698100404" lon="12.96497214907858"><ele>550.8333333333333</ele><time>2026-04-19T14:09:41.981Z</time></trkpt><trkpt lat="42.21786230565101" lon="12.96506474361808"><ele>550.6666666666666</ele><time>2026-04-19T14:09:42.981Z</time></trkpt><trkpt lat="42.21786270788189" lon="12.965185686033736"><ele>550.5</ele><time>2026-04-19T14:09:43.981Z</time></trkpt><trkpt lat="42.21785920444264" lon="12.96529737533689"><ele>550.3333333333334</ele><time>2026-04-19T14:09:44.981Z</time></trkpt><trkpt lat="42.217853190826524" lon="12.965395781992994"><ele>550.1666666666667</ele><time>2026-04-19T14:09:45.98Z</time></trkpt><trkpt lat="42.21784212362593" lon="12.965505394777058"><ele>550.0</ele><time>2026-04-19T14:09:46.98Z</time></trkpt><trkpt lat="42.21782421398519" lon="12.96561142626585"><ele>550.0</ele><time>2026-04-19T14:09:47.981Z</time></trkpt><trkpt lat="42.217805952224154" lon="12.96570117308124"><ele>550.0</ele><time>2026-04-19T14:09:48.981Z</time></trkpt><trkpt lat="42.21778723784869" lon="12.965788311398832"><ele>550.0</ele><time>2026-04-19T14:09:49.981Z</time></trkpt><trkpt lat="42.21774330321948" lon="12.965962100891403"><ele>550.0</ele><time>2026-04-19T14:09:51.981Z</time></trkpt><trkpt lat="42.21771785392598" lon="12.966058552221233"><ele>550.0</ele><time>2026-04-19T14:09:52.981Z</time></trkpt><trkpt lat="42.217692127465604" lon="12.966154268539464"><ele>550.0</ele><time>2026-04-19T14:09:53.981Z</time></trkpt><trkpt lat="42.21767606226277" lon="12.96626888071855"><ele>550.8333333333334</ele><time>2026-04-19T14:09:54.981Z</time></trkpt><trkpt lat="42.217630016948874" lon="12.966368690675017"><ele>551.6666666666667</ele><time>2026-04-19T14:09:55.981Z</time></trkpt><trkpt lat="42.21759902332309" lon="12.966483498340587"><ele>552.5</ele><time>2026-04-19T14:09:56.981Z</time></trkpt><trkpt lat="42.21757644858811" lon="12.966581812973441"><ele>553.3333333333334</ele><time>2026-04-19T14:09:57.981Z</time></trkpt><trkpt lat="42.21755341111383" lon="12.966673242863168"><ele>554.1666666666666</ele><time>2026-04-19T14:09:58.981Z</time></trkpt><trkpt lat="42.217533631208035" lon="12.966767492902553"><ele>555.0</ele><time>2026-04-19T14:09:59.981Z</time></trkpt><trkpt lat="42.21752897637884" lon="12.966868260461267"><ele>555.3333333333334</ele><time>2026-04-19T14:10:00.981Z</time></trkpt><trkpt lat="42.21752239536438" lon="12.96696559265215"><ele>555.6666666666666</ele><time>2026-04-19T14:10:01.981Z</time></trkpt><trkpt lat="42.217514415876984" lon="12.96706832672499"><ele>556.0</ele><time>2026-04-19T14:10:02.981Z</time></trkpt><trkpt lat="42.21750105824147" lon="12.967180626241513"><ele>556.3333333333333</ele><time>2026-04-19T14:10:03.981Z</time></trkpt><trkpt lat="42.21749862131125" lon="12.967292124555437"><ele>556.6666666666666</ele><time>2026-04-19T14:10:04.981Z</time></trkpt><trkpt lat="42.21747002510193" lon="12.967394715911182"><ele>557.0</ele><time>2026-04-19T14:10:05.981Z</time></trkpt><trkpt lat="42.217441955177335" lon="12.967524829351392"><ele>556.8333333333333</ele><time>2026-04-19T14:10:06.981Z</time></trkpt><trkpt lat="42.217428322331095" lon="12.967644053636347"><ele>556.6666666666666</ele><time>2026-04-19T14:10:07.981Z</time></trkpt><trkpt lat="42.217425846385176" lon="12.967760620894964"><ele>556.5</ele><time>2026-04-19T14:10:08.98Z</time></trkpt><trkpt lat="42.21743376185511" lon="12.967868087894969"><ele>556.3333333333334</ele><time>2026-04-19T14:10:09.98Z</time></trkpt><trkpt lat="42.21747221195326" lon="12.967975354383102"><ele>556.1666666666667</ele><time>2026-04-19T14:10:10.98Z</time></trkpt><trkpt lat="42.21751331638002" lon="12.968065701333634"><ele>556.0</ele><time>2026-04-19T14:10:11.98Z</time></trkpt><trkpt lat="42.21754362305667" lon="12.968158553453447"><ele>556.0</ele><time>2026-04-19T14:10:12.98Z</time></trkpt><trkpt lat="42.21756862507667" lon="12.968248976137467"><ele>556.0</ele><time>2026-04-19T14:10:13.98Z</time></trkpt><trkpt lat="42.217583741722784" lon="12.968332704116229"><ele>556.0</ele><time>2026-04-19T14:10:14.98Z</time></trkpt><trkpt lat="42.21759373610626" lon="12.968507340601679"><ele>556.0</ele><time>2026-04-19T14:10:16.98Z</time></trkpt><trkpt lat="42.217597771583485" lon="12.968597040575384"><ele>556.0</ele><time>2026-04-19T14:10:17.98Z</time></trkpt><trkpt lat="42.21760074639082" lon="12.968683294742641"><ele>556.0</ele><time>2026-04-19T14:10:18.98Z</time></trkpt><trkpt lat="42.21760074639099" lon="12.968777679137153"><ele>555.6666666666667</ele><time>2026-04-19T14:10:19.98Z</time></trkpt><trkpt lat="42.217598102659906" lon="12.968867867627214"><ele>555.3333333333334</ele><time>2026-04-19T14:10:20.98Z</time></trkpt><trkpt lat="42.21758804491852" lon="12.968983415781114"><ele>555.0</ele><time>2026-04-19T14:10:22.98Z</time></trkpt><trkpt lat="42.21757283084836" lon="12.969068962760376"><ele>554.6666666666666</ele><time>2026-04-19T14:10:25.98Z</time></trkpt><trkpt lat="42.21750870051305" lon="12.969111902095753"><ele>554.3333333333333</ele><time>2026-04-19T14:10:27.98Z</time></trkpt><trkpt lat="42.21743663312176" lon="12.969048724916384"><ele>554.0</ele><time>2026-04-19T14:10:28.98Z</time></trkpt><trkpt lat="42.21737114923494" lon="12.968975960071898"><ele>555.0</ele><time>2026-04-19T14:10:29.98Z</time></trkpt><trkpt lat="42.21729749841923" lon="12.96890182281481"><ele>556.0</ele><time>2026-04-19T14:10:30.98Z</time></trkpt><trkpt lat="42.217225127664136" lon="12.968820578523168"><ele>557.0</ele><time>2026-04-19T14:10:31.98Z</time></trkpt><trkpt lat="42.21716259252566" lon="12.968740589088052"><ele>558.0</ele><time>2026-04-19T14:10:32.98Z</time></trkpt><trkpt lat="42.21710302094735" lon="12.96866865695602"><ele>559.0</ele><time>2026-04-19T14:10:33.98Z</time></trkpt><trkpt lat="42.217057190626115" lon="12.968593311310057"><ele>560.0</ele><time>2026-04-19T14:10:34.98Z</time></trkpt><trkpt lat="42.21703181875013" lon="12.968500101342505"><ele>560.0</ele><time>2026-04-19T14:10:35.98Z</time></trkpt><trkpt lat="42.217032533177004" lon="12.96840750259441"><ele>560.0</ele><time>2026-04-19T14:10:36.98Z</time></trkpt><trkpt lat="42.21704303143889" lon="12.968321111709377"><ele>560.0</ele><time>2026-04-19T14:10:37.98Z</time></trkpt><trkpt lat="42.21704930689189" lon="12.968214853871633"><ele>560.0</ele><time>2026-04-19T14:10:38.98Z</time></trkpt><trkpt lat="42.21704908400556" lon="12.968099521692062"><ele>560.0</ele><time>2026-04-19T14:10:39.98Z</time></trkpt><trkpt lat="42.217042705992824" lon="12.967990631753395"><ele>560.0</ele><time>2026-04-19T14:10:40.98Z</time></trkpt><trkpt lat="42.21703131447555" lon="12.967870683190707"><ele>560.0</ele><time>2026-04-19T14:10:41.98Z</time></trkpt><trkpt lat="42.21703629007919" lon="12.967750110639404"><ele>560.0</ele><time>2026-04-19T14:10:42.98Z</time></trkpt><trkpt lat="42.21701043693669" lon="12.967635581332901"><ele>560.0</ele><time>2026-04-19T14:10:43.98Z</time></trkpt><trkpt lat="42.216992453902556" lon="12.967518414594466"><ele>560.0</ele><time>2026-04-19T14:10:44.98Z</time></trkpt><trkpt lat="42.21698420661311" lon="12.967406003143331"><ele>560.0</ele><time>2026-04-19T14:10:45.98Z</time></trkpt><trkpt lat="42.21697995765508" lon="12.967307007077487"><ele>560.0</ele><time>2026-04-19T14:10:46.98Z</time></trkpt><trkpt lat="42.216979426196175" lon="12.967212501460763"><ele>560.3333333333333</ele><time>2026-04-19T14:10:47.98Z</time></trkpt><trkpt lat="42.21698107596777" lon="12.967125904380255"><ele>560.6666666666666</ele><time>2026-04-19T14:10:48.98Z</time></trkpt><trkpt lat="42.216947625575514" lon="12.967011315287913"><ele>561.0</ele><time>2026-04-19T14:10:51.98Z</time></trkpt><trkpt lat="42.21685589780392" lon="12.966907485326018"><ele>561.3333333333334</ele><time>2026-04-19T14:10:53.98Z</time></trkpt><trkpt lat="42.21677417638429" lon="12.96687811412743"><ele>561.6666666666667</ele><time>2026-04-19T14:10:55.98Z</time></trkpt><trkpt lat="42.21669292769062" lon="12.966842551709751"><ele>562.0</ele><time>2026-04-19T14:11:02.979Z</time></trkpt><trkpt lat="42.2166772460725" lon="12.966745606647288"><ele>562.2</ele><time>2026-04-19T14:11:03.979Z</time></trkpt><trkpt lat="42.216645167652246" lon="12.966662761725992"><ele>562.4000000000001</ele><time>2026-04-19T14:11:04.979Z</time></trkpt><trkpt lat="42.216618458392986" lon="12.966572871022343"><ele>562.5999999999999</ele><time>2026-04-19T14:11:05.979Z</time></trkpt><trkpt lat="42.216563928397676" lon="12.966419521278482"><ele>562.8</ele><time>2026-04-19T14:11:07.979Z</time></trkpt><trkpt lat="42.216501878636656" lon="12.966296352936213"><ele>563.0</ele><time>2026-04-19T14:11:09.979Z</time></trkpt><trkpt lat="42.21646254714464" lon="12.966157457354775"><ele>563.0</ele><time>2026-04-19T14:11:11.979Z</time></trkpt><trkpt lat="42.21641689253434" lon="12.966077705258066"><ele>563.0</ele><time>2026-04-19T14:11:13.979Z</time></trkpt><trkpt lat="42.21636267669507" lon="12.966007549872641"><ele>563.0</ele><time>2026-04-19T14:11:33.979Z</time></trkpt><trkpt lat="42.21638627967216" lon="12.965853635024382"><ele>563.0</ele><time>2026-04-19T14:11:35.979Z</time></trkpt><trkpt lat="42.21640074398073" lon="12.965762702366558"><ele>563.0</ele><time>2026-04-19T14:11:36.979Z</time></trkpt><trkpt lat="42.216422466664106" lon="12.965662871579422"><ele>563.0</ele><time>2026-04-19T14:11:37.979Z</time></trkpt><trkpt lat="42.216444043565126" lon="12.965555750569541"><ele>563.6666666666666</ele><time>2026-04-19T14:11:38.979Z</time></trkpt><trkpt lat="42.21646267290445" lon="12.96545308477514"><ele>564.3333333333333</ele><time>2026-04-19T14:11:39.979Z</time></trkpt><trkpt lat="42.21648779392325" lon="12.965344899218215"><ele>565.0</ele><time>2026-04-19T14:11:40.979Z</time></trkpt><trkpt lat="42.216508606942334" lon="12.965237184825497"><ele>565.6666666666666</ele><time>2026-04-19T14:11:41.979Z</time></trkpt><trkpt lat="42.21651353758679" lon="12.965149542936649"><ele>566.3333333333334</ele><time>2026-04-19T14:11:42.979Z</time></trkpt><trkpt lat="42.21650122464788" lon="12.964971125791028"><ele>567.0</ele><time>2026-04-19T14:11:44.98Z</time></trkpt><trkpt lat="42.21647474524101" lon="12.96487527608863"><ele>572.5</ele><time>2026-04-19T14:11:45.98Z</time></trkpt><trkpt lat="42.21643971905458" lon="12.964749506074824"><ele>578.0</ele><time>2026-04-19T14:11:47.979Z</time></trkpt><trkpt lat="42.21637516211485" lon="12.964640353686029"><ele>583.5</ele><time>2026-04-19T14:11:49.98Z</time></trkpt><trkpt lat="42.21635563725871" lon="12.964555290200451"><ele>589.0</ele><time>2026-04-19T14:11:50.98Z</time></trkpt><trkpt lat="42.21631849231142" lon="12.964453170379466"><ele>594.5</ele><time>2026-04-19T14:11:51.98Z</time></trkpt><trkpt lat="42.21627514281237" lon="12.964337152347484"><ele>600.0</ele><time>2026-04-19T14:11:52.98Z</time></trkpt><trkpt lat="42.21623582505917" lon="12.964234254783117"><ele>599.8571428571428</ele><time>2026-04-19T14:11:53.98Z</time></trkpt><trkpt lat="42.2161979493737" lon="12.96413913535435"><ele>599.7142857142857</ele><time>2026-04-19T14:11:54.98Z</time></trkpt><trkpt lat="42.21615500205105" lon="12.964064627001235"><ele>599.5714285714286</ele><time>2026-04-19T14:11:55.98Z</time></trkpt><trkpt lat="42.216100014504526" lon="12.964015709820583"><ele>599.4285714285713</ele><time>2026-04-19T14:11:56.98Z</time></trkpt><trkpt lat="42.21605819132992" lon="12.963944307915417"><ele>599.2857142857142</ele><time>2026-04-19T14:11:57.98Z</time></trkpt><trkpt lat="42.21600099978715" lon="12.96389328841802"><ele>599.1428571428571</ele><time>2026-04-19T14:11:58.98Z</time></trkpt><trkpt lat="42.215924946834754" lon="12.963830911935093"><ele>599.0</ele><time>2026-04-19T14:12:00.979Z</time></trkpt><trkpt lat="42.215853073664" lon="12.963775696326366"><ele>599.0</ele><time>2026-04-19T14:12:02.979Z</time></trkpt><trkpt lat="42.21579417021876" lon="12.96373587246447"><ele>599.0</ele><time>2026-04-19T14:12:04.979Z</time></trkpt><trkpt lat="42.21573210849787" lon="12.96370360052033"><ele>599.0</ele><time>2026-04-19T14:12:06.979Z</time></trkpt><trkpt lat="42.215654218449274" lon="12.96369354786078"><ele>599.0</ele><time>2026-04-19T14:12:08.979Z</time></trkpt><trkpt lat="42.215582200758014" lon="12.963641846737298"><ele>599.0</ele><time>2026-04-19T14:12:11.979Z</time></trkpt><trkpt lat="42.215509518986906" lon="12.963615647664362"><ele>599.0</ele><time>2026-04-19T14:12:15.979Z</time></trkpt><trkpt lat="42.21543152833103" lon="12.963553639297936"><ele>598.8333333333333</ele><time>2026-04-19T14:12:18.979Z</time></trkpt><trkpt lat="42.21536778521562" lon="12.963485876749013"><ele>598.6666666666666</ele><time>2026-04-19T14:12:20.979Z</time></trkpt><trkpt lat="42.21529065543342" lon="12.963416331130535"><ele>598.5</ele><time>2026-04-19T14:12:23.979Z</time></trkpt><trkpt lat="42.215251272231704" lon="12.963339440803836"><ele>598.3333333333334</ele><time>2026-04-19T14:12:25.979Z</time></trkpt><trkpt lat="42.21518664219187" lon="12.963330382770886"><ele>598.1666666666667</ele><time>2026-04-19T14:12:32.979Z</time></trkpt><trkpt lat="42.21514611763085" lon="12.963258143052261"><ele>598.0</ele><time>2026-04-19T14:12:46.979Z</time></trkpt><trkpt lat="42.2150726817903" lon="12.963210001106756"><ele>598.0</ele><time>2026-04-19T14:18:28.977Z</time></trkpt><trkpt lat="42.21501944528497" lon="12.963152031280936"><ele>598.0</ele><time>2026-04-19T14:18:31.977Z</time></trkpt><trkpt lat="42.21495272526978" lon="12.9631741669392"><ele>598.0</ele><time>2026-04-19T14:21:39.967Z</time></trkpt><trkpt lat="42.21487989548916" lon="12.963123438921135"><ele>598.0</ele><time>2026-04-19T14:22:00.967Z</time></trkpt><trkpt lat="42.21480712998144" lon="12.963115442512754"><ele>598.0</ele><time>2026-04-19T14:22:36.968Z</time></trkpt><trkpt lat="42.214740937967925" lon="12.963077466498605"><ele>598.0</ele><time>2026-04-19T14:22:42.968Z</time></trkpt><trkpt lat="42.21469046801853" lon="12.96302523714539"><ele>598.0</ele><time>2026-04-19T14:22:49.968Z</time></trkpt><trkpt lat="42.21463672907809" lon="12.962977524361941"><ele>597.0</ele><time>2026-04-19T14:22:54.967Z</time></trkpt><trkpt lat="42.21457621861022" lon="12.96291400437616"><ele>596.0</ele><time>2026-04-19T14:23:01.967Z</time></trkpt><trkpt lat="42.214529814538444" lon="12.96283591137816"><ele>595.0</ele><time>2026-04-19T14:23:09.967Z</time></trkpt><trkpt lat="42.21446702112617" lon="12.962784792095807"><ele>594.0</ele><time>2026-04-19T14:23:15.967Z</time></trkpt><trkpt lat="42.214406809737405" lon="12.96274785890472"><ele>593.0</ele><time>2026-04-19T14:23:23.967Z</time></trkpt><trkpt lat="42.21434326625996" lon="12.962793092641284"><ele>592.0</ele><time>2026-04-19T14:23:30.967Z</time></trkpt><trkpt lat="42.21430058434358" lon="12.962872257379487"><ele>591.0</ele><time>2026-04-19T14:23:37.967Z</time></trkpt><trkpt lat="42.21423977110799" lon="12.962908365431403"><ele>591.0</ele><time>2026-04-19T14:23:48.966Z</time></trkpt><trkpt lat="42.21419926418064" lon="12.962999218396034"><ele>591.0</ele><time>2026-04-19T14:24:03.966Z</time></trkpt><trkpt lat="42.2142051858828" lon="12.963084178885659"><ele>591.0</ele><time>2026-04-19T14:24:09.966Z</time></trkpt><trkpt lat="42.21418576657183" lon="12.963181257066564"><ele>591.0</ele><time>2026-04-19T14:24:31.967Z</time></trkpt><trkpt lat="42.21425166101191" lon="12.963153473599576"><ele>591.0</ele><time>2026-04-19T14:24:44.967Z</time></trkpt><trkpt lat="42.21431680554161" lon="12.963145687031705"><ele>591.0</ele><time>2026-04-19T14:24:53.967Z</time></trkpt><trkpt lat="42.21438770038151" lon="12.963159178768027"><ele>591.0</ele><time>2026-04-19T14:25:04.967Z</time></trkpt><trkpt lat="42.214443213613606" lon="12.963212535170047"><ele>591.0</ele><time>2026-04-19T14:25:11.966Z</time></trkpt><trkpt lat="42.21449482110035" lon="12.963263122141134"><ele>591.0</ele><time>2026-04-19T14:25:32.966Z</time></trkpt><trkpt lat="42.21454074011423" lon="12.963338484595507"><ele>591.0</ele><time>2026-04-19T14:25:39.966Z</time></trkpt><trkpt lat="42.21455498344251" lon="12.963425782133731"><ele>591.0</ele><time>2026-04-19T14:25:45.966Z</time></trkpt><trkpt lat="42.21457667081534" lon="12.963524872734261"><ele>591.0</ele><time>2026-04-19T14:25:52.965Z</time></trkpt><trkpt lat="42.214630492994594" lon="12.963582616068306"><ele>591.0</ele><time>2026-04-19T14:26:00.965Z</time></trkpt><trkpt lat="42.21468834724687" lon="12.963617205026633"><ele>591.0</ele><time>2026-04-19T14:26:08.965Z</time></trkpt><trkpt lat="42.21470824597634" lon="12.963703396023528"><ele>593.0</ele><time>2026-04-19T14:26:14.965Z</time></trkpt><trkpt lat="42.21478210677928" lon="12.963742345359792"><ele>595.0</ele><time>2026-04-19T14:26:29.967Z</time></trkpt><trkpt lat="42.21483823395942" lon="12.963702837142844"><ele>597.0</ele><time>2026-04-19T14:26:33.968Z</time></trkpt><trkpt lat="42.2148904780208" lon="12.96364511565804"><ele>599.0</ele><time>2026-04-19T14:26:38.967Z</time></trkpt><trkpt lat="42.21493067181418" lon="12.963764910501888"><ele>601.0</ele><time>2026-04-19T14:26:47.967Z</time></trkpt><trkpt lat="42.21495419514146" lon="12.963849870832124"><ele>603.0</ele><time>2026-04-19T14:26:49.967Z</time></trkpt><trkpt lat="42.21500365804006" lon="12.963913315574422"><ele>605.0</ele><time>2026-04-19T14:26:54.967Z</time></trkpt><trkpt lat="42.21505493839054" lon="12.96397444323376"><ele>605.0</ele><time>2026-04-19T14:26:59.967Z</time></trkpt><trkpt lat="42.21510959687139" lon="12.964035988088403"><ele>605.0</ele><time>2026-04-19T14:27:06.966Z</time></trkpt><trkpt lat="42.215169340686515" lon="12.964077616744975"><ele>605.0</ele><time>2026-04-19T14:27:12.966Z</time></trkpt><trkpt lat="42.21522625921766" lon="12.964134277150384"><ele>605.0</ele><time>2026-04-19T14:27:19.966Z</time></trkpt><trkpt lat="42.21523779137969" lon="12.964237788853035"><ele>605.0</ele><time>2026-04-19T14:27:26.966Z</time></trkpt><trkpt lat="42.21531049733597" lon="12.964201673090617"><ele>605.0</ele><time>2026-04-19T14:27:29.966Z</time></trkpt><trkpt lat="42.21532475378181" lon="12.964106909341432"><ele>605.0</ele><time>2026-04-19T14:28:06.965Z</time></trkpt><trkpt lat="42.21537939942583" lon="12.964159629302506"><ele>602.2857142857142</ele><time>2026-04-19T14:28:20.965Z</time></trkpt><trkpt lat="42.215402259267044" lon="12.964244116634655"><ele>599.5714285714286</ele><time>2026-04-19T14:28:32.966Z</time></trkpt><trkpt lat="42.21544201161291" lon="12.964319644030768"><ele>596.8571428571429</ele><time>2026-04-19T14:28:39.967Z</time></trkpt><trkpt lat="42.215493275720284" lon="12.964378461292071"><ele>594.1428571428571</ele><time>2026-04-19T14:29:00.966Z</time></trkpt><trkpt lat="42.215546391041684" lon="12.964424641083015"><ele>591.4285714285714</ele><time>2026-04-19T14:29:08.966Z</time></trkpt><trkpt lat="42.215601371667184" lon="12.964483547083717"><ele>588.7142857142857</ele><time>2026-04-19T14:29:15.966Z</time></trkpt><trkpt lat="42.21561995308836" lon="12.964572218786152"><ele>586.0</ele><time>2026-04-19T14:29:23.966Z</time></trkpt><trkpt lat="42.21563077477056" lon="12.96465897665044"><ele>586.0</ele><time>2026-04-19T14:29:27.965Z</time></trkpt><trkpt lat="42.21563820620796" lon="12.964746280992488"><ele>586.0</ele><time>2026-04-19T14:29:33.965Z</time></trkpt><trkpt lat="42.21567212308136" lon="12.964825772879038"><ele>600.0</ele><time>2026-04-19T14:29:41.965Z</time></trkpt><trkpt lat="42.21568260140953" lon="12.964931393923662"><ele>600.0</ele><time>2026-04-19T14:29:56.965Z</time></trkpt><trkpt lat="42.215654963012874" lon="12.965044482817195"><ele>577.0</ele><time>2026-04-19T14:30:56.966Z</time></trkpt></trkseg><trkseg><trkpt lat="42.21497862388966" lon="12.963098673079468"><ele>598.0</ele><time>2026-04-19T15:01:54.001Z</time></trkpt><trkpt lat="42.214931224172624" lon="12.963192058243534"><ele>598.0</ele><time>2026-04-19T15:04:18.999Z</time></trkpt><trkpt lat="42.21497477854169" lon="12.963254030542204"><ele>598.0</ele><time>2026-04-19T15:04:20.999Z</time></trkpt><trkpt lat="42.215066502835036" lon="12.963287209428792"><ele>598.0</ele><time>2026-04-19T15:04:22.999Z</time></trkpt><trkpt lat="42.21515267505754" lon="12.963340975475544"><ele>598.0</ele><time>2026-04-19T15:04:24.999Z</time></trkpt><trkpt lat="42.215241706479524" lon="12.963414729704217"><ele>598.0</ele><time>2026-04-19T15:04:26.999Z</time></trkpt><trkpt lat="42.21535206124804" lon="12.963523714674693"><ele>598.1428571428571</ele><time>2026-04-19T15:04:28.999Z</time></trkpt><trkpt lat="42.21540263714163" lon="12.963582525353743"><ele>598.2857142857143</ele><time>2026-04-19T15:04:29.999Z</time></trkpt><trkpt lat="42.21546382913574" lon="12.96363485390338"><ele>598.4285714285714</ele><time>2026-04-19T15:04:30.999Z</time></trkpt><trkpt lat="42.215532209246106" lon="12.96367131780807"><ele>598.5714285714286</ele><time>2026-04-19T15:04:31.999Z</time></trkpt><trkpt lat="42.215611230413884" lon="12.963696152753407"><ele>598.7142857142857</ele><time>2026-04-19T15:04:32.999Z</time></trkpt><trkpt lat="42.215686123640424" lon="12.963721136931943"><ele>598.8571428571429</ele><time>2026-04-19T15:04:33.999Z</time></trkpt><trkpt lat="42.21575831531708" lon="12.96375586523151"><ele>599.0</ele><time>2026-04-19T15:04:34.999Z</time></trkpt><trkpt lat="42.215827381365166" lon="12.963802277236246"><ele>599.0</ele><time>2026-04-19T15:04:35.999Z</time></trkpt><trkpt lat="42.21589294511802" lon="12.963858760360107"><ele>599.0</ele><time>2026-04-19T15:04:36.999Z</time></trkpt><trkpt lat="42.21595935991674" lon="12.963916791613476"><ele>599.0</ele><time>2026-04-19T15:04:37.999Z</time></trkpt><trkpt lat="42.21602386886689" lon="12.96397315951001"><ele>599.0</ele><time>2026-04-19T15:04:38.999Z</time></trkpt><trkpt lat="42.21608011086759" lon="12.964029079023577"><ele>599.0</ele><time>2026-04-19T15:04:39.999Z</time></trkpt><trkpt lat="42.21612248067515" lon="12.96409402860571"><ele>599.0</ele><time>2026-04-19T15:04:40.999Z</time></trkpt><trkpt lat="42.216158340402394" lon="12.964171745450985"><ele>599.0</ele><time>2026-04-19T15:04:41.998Z</time></trkpt><trkpt lat="42.21618838679251" lon="12.964259993328325"><ele>599.1428571428571</ele><time>2026-04-19T15:04:42.998Z</time></trkpt><trkpt lat="42.2162158501384" lon="12.96434480725856"><ele>599.2857142857142</ele><time>2026-04-19T15:04:43.998Z</time></trkpt><trkpt lat="42.21624976686014" lon="12.964428728704492"><ele>599.4285714285713</ele><time>2026-04-19T15:04:44.998Z</time></trkpt><trkpt lat="42.21628858127281" lon="12.96451758145411"><ele>599.5714285714286</ele><time>2026-04-19T15:04:45.998Z</time></trkpt><trkpt lat="42.216325814409196" lon="12.964602422423502"><ele>599.7142857142857</ele><time>2026-04-19T15:04:46.998Z</time></trkpt><trkpt lat="42.2163598236182" lon="12.964679163871127"><ele>599.8571428571428</ele><time>2026-04-19T15:04:47.998Z</time></trkpt><trkpt lat="42.216392765932284" lon="12.964755206855383"><ele>600.0</ele><time>2026-04-19T15:04:48.998Z</time></trkpt><trkpt lat="42.21643042416768" lon="12.964832957996515"><ele>599.9999999999999</ele><time>2026-04-19T15:04:49.998Z</time></trkpt><trkpt lat="42.21645308218755" lon="12.964921473094662"><ele>600.0</ele><time>2026-04-19T15:04:50.998Z</time></trkpt><trkpt lat="42.216473038168225" lon="12.965011806321531"><ele>600.0</ele><time>2026-04-19T15:04:51.998Z</time></trkpt><trkpt lat="42.21647774737247" lon="12.96510912639788"><ele>600.0</ele><time>2026-04-19T15:04:52.998Z</time></trkpt><trkpt lat="42.216477479065496" lon="12.96520362678104"><ele>600.0</ele><time>2026-04-19T15:04:53.998Z</time></trkpt><trkpt lat="42.216472825653966" lon="12.965290951934202"><ele>599.9999999999999</ele><time>2026-04-19T15:04:54.998Z</time></trkpt><trkpt lat="42.21645985351242" lon="12.965377496088912"><ele>600.0</ele><time>2026-04-19T15:04:55.998Z</time></trkpt><trkpt lat="42.21644467710563" lon="12.965464621687168"><ele>596.1666666666666</ele><time>2026-04-19T15:04:56.998Z</time></trkpt><trkpt lat="42.2163994976295" lon="12.96562956055387"><ele>592.3333333333334</ele><time>2026-04-19T15:04:58.998Z</time></trkpt><trkpt lat="42.21638213026275" lon="12.96571590448359"><ele>588.5</ele><time>2026-04-19T15:04:59.998Z</time></trkpt><trkpt lat="42.21637745582788" lon="12.965806045856416"><ele>584.6666666666667</ele><time>2026-04-19T15:05:00.998Z</time></trkpt><trkpt lat="42.21635314590661" lon="12.9658851191922"><ele>580.8333333333334</ele><time>2026-04-19T15:05:01.998Z</time></trkpt><trkpt lat="42.2162947151116" lon="12.966014598878468"><ele>577.0</ele><time>2026-04-19T15:05:03.998Z</time></trkpt><trkpt lat="42.2162441721282" lon="12.966132266117455"><ele>574.6666666666667</ele><time>2026-04-19T15:05:05.998Z</time></trkpt><trkpt lat="42.21617003277224" lon="12.966155191673494"><ele>572.3333333333334</ele><time>2026-04-19T15:05:06.998Z</time></trkpt><trkpt lat="42.216059370145175" lon="12.966255786742165"><ele>570.0</ele><time>2026-04-19T15:05:08.998Z</time></trkpt><trkpt lat="42.2159951677338" lon="12.966312786913708"><ele>567.6666666666666</ele><time>2026-04-19T15:05:09.998Z</time></trkpt><trkpt lat="42.21593028759171" lon="12.9663675142401"><ele>565.3333333333333</ele><time>2026-04-19T15:05:10.998Z</time></trkpt><trkpt lat="42.21586199406845" lon="12.96642724616946"><ele>563.0</ele><time>2026-04-19T15:05:11.998Z</time></trkpt><trkpt lat="42.2158053248711" lon="12.966501243406219"><ele>563.0</ele><time>2026-04-19T15:05:12.998Z</time></trkpt><trkpt lat="42.21575494126659" lon="12.966591432885954"><ele>563.0</ele><time>2026-04-19T15:05:13.998Z</time></trkpt><trkpt lat="42.215718858532504" lon="12.966688340334144"><ele>563.0</ele><time>2026-04-19T15:05:14.998Z</time></trkpt><trkpt lat="42.21567628709544" lon="12.966780357723577"><ele>563.0</ele><time>2026-04-19T15:05:15.998Z</time></trkpt><trkpt lat="42.215667941282035" lon="12.966891677777532"><ele>563.0</ele><time>2026-04-19T15:05:16.998Z</time></trkpt><trkpt lat="42.215650761443996" lon="12.967004347295694"><ele>563.0</ele><time>2026-04-19T15:05:17.998Z</time></trkpt><trkpt lat="42.215644919379265" lon="12.967122088685066"><ele>561.8333333333333</ele><time>2026-04-19T15:05:18.998Z</time></trkpt><trkpt lat="42.21564688251811" lon="12.967242175660425"><ele>560.6666666666666</ele><time>2026-04-19T15:05:19.998Z</time></trkpt><trkpt lat="42.21565474455252" lon="12.967357383292176"><ele>559.5</ele><time>2026-04-19T15:05:20.998Z</time></trkpt><trkpt lat="42.215665633457" lon="12.967469785489154"><ele>558.3333333333334</ele><time>2026-04-19T15:05:21.998Z</time></trkpt><trkpt lat="42.21566764241757" lon="12.967582276197664"><ele>557.1666666666667</ele><time>2026-04-19T15:05:22.998Z</time></trkpt><trkpt lat="42.21568236204627" lon="12.96769763007597"><ele>556.0</ele><time>2026-04-19T15:05:23.998Z</time></trkpt><trkpt lat="42.215688467199776" lon="12.967808627461313"><ele>555.8333333333334</ele><time>2026-04-19T15:05:24.998Z</time></trkpt><trkpt lat="42.21569336261759" lon="12.967918635184144"><ele>555.6666666666667</ele><time>2026-04-19T15:05:25.998Z</time></trkpt><trkpt lat="42.215688312076715" lon="12.968028477638205"><ele>555.5</ele><time>2026-04-19T15:05:26.998Z</time></trkpt><trkpt lat="42.2156624914292" lon="12.968134375101183"><ele>555.3333333333334</ele><time>2026-04-19T15:05:27.998Z</time></trkpt><trkpt lat="42.21561905600689" lon="12.968226869043583"><ele>555.1666666666666</ele><time>2026-04-19T15:05:28.998Z</time></trkpt><trkpt lat="42.21556086245696" lon="12.968308348082543"><ele>555.0</ele><time>2026-04-19T15:05:29.998Z</time></trkpt><trkpt lat="42.21549735866022" lon="12.968377311115507"><ele>555.0</ele><time>2026-04-19T15:05:30.998Z</time></trkpt><trkpt lat="42.21542963792512" lon="12.968437456957052"><ele>555.0</ele><time>2026-04-19T15:05:31.998Z</time></trkpt><trkpt lat="42.21535759186998" lon="12.968487327276781"><ele>555.0</ele><time>2026-04-19T15:05:32.998Z</time></trkpt><trkpt lat="42.2152820242686" lon="12.968511456471587"><ele>555.0</ele><time>2026-04-19T15:05:33.998Z</time></trkpt><trkpt lat="42.215201564750394" lon="12.968526553627843"><ele>555.0</ele><time>2026-04-19T15:05:34.998Z</time></trkpt><trkpt lat="42.21512690119141" lon="12.968532314654611"><ele>555.0</ele><time>2026-04-19T15:05:35.998Z</time></trkpt><trkpt lat="42.215051549971065" lon="12.968531055346153"><ele>555.0000000000001</ele><time>2026-04-19T15:05:36.998Z</time></trkpt><trkpt lat="42.21497176051568" lon="12.968533608014607"><ele>555.0</ele><time>2026-04-19T15:05:37.998Z</time></trkpt><trkpt lat="42.214890666381976" lon="12.968521385577597"><ele>555.0</ele><time>2026-04-19T15:05:38.998Z</time></trkpt><trkpt lat="42.21481741073832" lon="12.968521145554561"><ele>555.0</ele><time>2026-04-19T15:05:39.998Z</time></trkpt><trkpt lat="42.21474740201932" lon="12.968519612836195"><ele>555.0</ele><time>2026-04-19T15:05:40.998Z</time></trkpt><trkpt lat="42.214679287430734" lon="12.968518990154928"><ele>555.0000000000001</ele><time>2026-04-19T15:05:41.998Z</time></trkpt><trkpt lat="42.21461527516464" lon="12.968518109080913"><ele>555.0</ele><time>2026-04-19T15:05:42.998Z</time></trkpt><trkpt lat="42.214502240451274" lon="12.968519801688284"><ele>553.8333333333334</ele><time>2026-04-19T15:05:44.998Z</time></trkpt><trkpt lat="42.21440869351943" lon="12.968507502624224"><ele>552.6666666666666</ele><time>2026-04-19T15:05:46.998Z</time></trkpt><trkpt lat="42.21433878448579" lon="12.968466425864701"><ele>551.5</ele><time>2026-04-19T15:05:48.998Z</time></trkpt><trkpt lat="42.21428088397065" lon="12.968405435381419"><ele>550.3333333333333</ele><time>2026-04-19T15:05:50.998Z</time></trkpt><trkpt lat="42.21422844268041" lon="12.968328966342526"><ele>549.1666666666666</ele><time>2026-04-19T15:05:53.998Z</time></trkpt><trkpt lat="42.21416820047043" lon="12.968273615531226"><ele>548.0</ele><time>2026-04-19T15:06:01.998Z</time></trkpt><trkpt lat="42.21421798814929" lon="12.968115907017708"><ele>548.1666666666666</ele><time>2026-04-19T15:06:02.997Z</time></trkpt><trkpt lat="42.214223267751066" lon="12.96794334196852"><ele>548.3333333333333</ele><time>2026-04-19T15:06:04.997Z</time></trkpt><trkpt lat="42.21422903803652" lon="12.967849310515707"><ele>548.5</ele><time>2026-04-19T15:06:05.997Z</time></trkpt><trkpt lat="42.21418962017105" lon="12.967761111460408"><ele>548.6666666666666</ele><time>2026-04-19T15:06:06.997Z</time></trkpt><trkpt lat="42.21415313477128" lon="12.967667104610088"><ele>548.8333333333334</ele><time>2026-04-19T15:06:07.997Z</time></trkpt><trkpt lat="42.21411224782312" lon="12.967585295246703"><ele>549.0</ele><time>2026-04-19T15:06:08.997Z</time></trkpt><trkpt lat="42.21406735492729" lon="12.967496790005992"><ele>549.0</ele><time>2026-04-19T15:06:09.997Z</time></trkpt><trkpt lat="42.21402198392286" lon="12.96741214261693"><ele>549.0</ele><time>2026-04-19T15:06:10.997Z</time></trkpt><trkpt lat="42.213974853218595" lon="12.967319221295885"><ele>549.0</ele><time>2026-04-19T15:06:11.997Z</time></trkpt><trkpt lat="42.2139203394302" lon="12.967224359118704"><ele>549.0</ele><time>2026-04-19T15:06:12.997Z</time></trkpt><trkpt lat="42.213873015968446" lon="12.967124377459783"><ele>549.0</ele><time>2026-04-19T15:06:13.997Z</time></trkpt><trkpt lat="42.21381924919443" lon="12.967034657345103"><ele>549.0</ele><time>2026-04-19T15:06:14.997Z</time></trkpt><trkpt lat="42.21376764497232" lon="12.966938834316442"><ele>548.3333333333334</ele><time>2026-04-19T15:06:15.997Z</time></trkpt><trkpt lat="42.2137213855114" lon="12.966840849835828"><ele>547.6666666666666</ele><time>2026-04-19T15:06:16.997Z</time></trkpt><trkpt lat="42.21368618120234" lon="12.966746194201935"><ele>547.0</ele><time>2026-04-19T15:06:17.997Z</time></trkpt><trkpt lat="42.21365048517024" lon="12.966657007751216"><ele>546.3333333333333</ele><time>2026-04-19T15:06:18.997Z</time></trkpt><trkpt lat="42.21362368771776" lon="12.966562110277836"><ele>545.6666666666666</ele><time>2026-04-19T15:06:19.997Z</time></trkpt><trkpt lat="42.213601918691964" lon="12.966454652796498"><ele>545.0</ele><time>2026-04-19T15:06:20.997Z</time></trkpt><trkpt lat="42.21357720914179" lon="12.966341684562305"><ele>545.0</ele><time>2026-04-19T15:06:21.997Z</time></trkpt><trkpt lat="42.213557698037285" lon="12.966217479233197"><ele>545.0</ele><time>2026-04-19T15:06:22.997Z</time></trkpt><trkpt lat="42.21353627266601" lon="12.966090592830101"><ele>545.0</ele><time>2026-04-19T15:06:23.997Z</time></trkpt><trkpt lat="42.21351521583019" lon="12.965964196189109"><ele>545.0</ele><time>2026-04-19T15:06:24.997Z</time></trkpt><trkpt lat="42.21350575554403" lon="12.965837690585035"><ele>545.0</ele><time>2026-04-19T15:06:25.997Z</time></trkpt><trkpt lat="42.21351421644774" lon="12.965718839498232"><ele>544.4</ele><time>2026-04-19T15:06:26.997Z</time></trkpt><trkpt lat="42.21353700000309" lon="12.965608508702541"><ele>543.8</ele><time>2026-04-19T15:06:27.997Z</time></trkpt><trkpt lat="42.21358144913252" lon="12.965504394205203"><ele>543.2</ele><time>2026-04-19T15:06:28.997Z</time></trkpt><trkpt lat="42.213645354412144" lon="12.96541007899316"><ele>542.6</ele><time>2026-04-19T15:06:29.997Z</time></trkpt><trkpt lat="42.21371854474283" lon="12.965317528502299"><ele>542.0</ele><time>2026-04-19T15:06:30.997Z</time></trkpt><trkpt lat="42.21379561593631" lon="12.965231097978366"><ele>542.0</ele><time>2026-04-19T15:06:31.997Z</time></trkpt><trkpt lat="42.21387843526082" lon="12.965147388613293"><ele>542.0</ele><time>2026-04-19T15:06:32.997Z</time></trkpt><trkpt lat="42.21395355064761" lon="12.96505555646982"><ele>542.0</ele><time>2026-04-19T15:06:33.997Z</time></trkpt><trkpt lat="42.21402021263522" lon="12.964955944240154"><ele>542.0</ele><time>2026-04-19T15:06:34.997Z</time></trkpt><trkpt lat="42.21406724891213" lon="12.96484947353406"><ele>542.0</ele><time>2026-04-19T15:06:35.997Z</time></trkpt><trkpt lat="42.21409743974941" lon="12.964725930909385"><ele>543.4</ele><time>2026-04-19T15:06:36.997Z</time></trkpt><trkpt lat="42.214106027099994" lon="12.96460275414212"><ele>544.8000000000001</ele><time>2026-04-19T15:06:37.997Z</time></trkpt><trkpt lat="42.214097970495544" lon="12.964478946715538"><ele>546.2</ele><time>2026-04-19T15:06:38.997Z</time></trkpt><trkpt lat="42.21406837805544" lon="12.964358849758876"><ele>547.6</ele><time>2026-04-19T15:06:39.997Z</time></trkpt><trkpt lat="42.214027212035745" lon="12.96423761857641"><ele>549.0</ele><time>2026-04-19T15:06:40.997Z</time></trkpt><trkpt lat="42.21396742853048" lon="12.964125958842436"><ele>549.0</ele><time>2026-04-19T15:06:41.997Z</time></trkpt><trkpt lat="42.21390925286235" lon="12.964010843875455"><ele>549.0</ele><time>2026-04-19T15:06:42.997Z</time></trkpt><trkpt lat="42.213849317561795" lon="12.963890821687139"><ele>549.0</ele><time>2026-04-19T15:06:43.997Z</time></trkpt><trkpt lat="42.21378033958371" lon="12.963780120671567"><ele>549.0</ele><time>2026-04-19T15:06:44.997Z</time></trkpt><trkpt lat="42.213718765995054" lon="12.96367649630097"><ele>549.0</ele><time>2026-04-19T15:06:45.997Z</time></trkpt><trkpt lat="42.21366544860183" lon="12.963580848972253"><ele>549.0</ele><time>2026-04-19T15:06:46.997Z</time></trkpt><trkpt lat="42.21362341545835" lon="12.963482650948466"><ele>549.0</ele><time>2026-04-19T15:06:47.997Z</time></trkpt><trkpt lat="42.21358121812183" lon="12.963399333712479"><ele>549.0</ele><time>2026-04-19T15:06:48.997Z</time></trkpt><trkpt lat="42.21355331747311" lon="12.963306859555587"><ele>549.0</ele><time>2026-04-19T15:06:49.997Z</time></trkpt><trkpt lat="42.213535399395916" lon="12.96321637742537"><ele>549.0</ele><time>2026-04-19T15:06:50.997Z</time></trkpt><trkpt lat="42.21351655983337" lon="12.963134253421492"><ele>549.0</ele><time>2026-04-19T15:06:51.997Z</time></trkpt><trkpt lat="42.21346309167597" lon="12.962995386543845"><ele>549.5</ele><time>2026-04-19T15:06:53.997Z</time></trkpt><trkpt lat="42.213401788445324" lon="12.96290232714714"><ele>550.0</ele><time>2026-04-19T15:06:55.997Z</time></trkpt><trkpt lat="42.21334155970961" lon="12.96284417737469"><ele>550.5</ele><time>2026-04-19T15:06:57.997Z</time></trkpt><trkpt lat="42.21328035417611" lon="12.962793141430556"><ele>551.0</ele><time>2026-04-19T15:06:59.997Z</time></trkpt><trkpt lat="42.213204025044554" lon="12.962722568979768"><ele>551.5</ele><time>2026-04-19T15:07:01.997Z</time></trkpt><trkpt lat="42.213123433516294" lon="12.962655853112969"><ele>552.0</ele><time>2026-04-19T15:07:03.997Z</time></trkpt><trkpt lat="42.213035560717366" lon="12.962590329342792"><ele>549.2</ele><time>2026-04-19T15:07:05.997Z</time></trkpt><trkpt lat="42.21294441853765" lon="12.962522302946086"><ele>546.4000000000001</ele><time>2026-04-19T15:07:07.997Z</time></trkpt><trkpt lat="42.21283972192645" lon="12.962438963074156"><ele>543.5999999999999</ele><time>2026-04-19T15:07:09.997Z</time></trkpt><trkpt lat="42.21272779808266" lon="12.962350345327376"><ele>540.8</ele><time>2026-04-19T15:07:11.997Z</time></trkpt><trkpt lat="42.2126692117837" lon="12.96230859417004"><ele>538.0</ele><time>2026-04-19T15:07:12.997Z</time></trkpt><trkpt lat="42.212603807827556" lon="12.962253837737215"><ele>538.0</ele><time>2026-04-19T15:07:13.997Z</time></trkpt><trkpt lat="42.21254029200206" lon="12.962206021637057"><ele>538.0</ele><time>2026-04-19T15:07:14.997Z</time></trkpt><trkpt lat="42.212481135245845" lon="12.962156906983907"><ele>538.0</ele><time>2026-04-19T15:07:15.997Z</time></trkpt><trkpt lat="42.21241702916607" lon="12.962105471983868"><ele>538.0</ele><time>2026-04-19T15:07:16.997Z</time></trkpt><trkpt lat="42.21235055621842" lon="12.962057037444035"><ele>538.0</ele><time>2026-04-19T15:07:17.997Z</time></trkpt><trkpt lat="42.212288076970275" lon="12.9620094820578"><ele>538.0</ele><time>2026-04-19T15:07:18.997Z</time></trkpt><trkpt lat="42.212222733018194" lon="12.961956186289527"><ele>538.0</ele><time>2026-04-19T15:07:19.997Z</time></trkpt><trkpt lat="42.21215332330455" lon="12.96190108421557"><ele>538.0</ele><time>2026-04-19T15:07:20.997Z</time></trkpt><trkpt lat="42.212086994291006" lon="12.96183343573143"><ele>538.0</ele><time>2026-04-19T15:07:21.997Z</time></trkpt><trkpt lat="42.212012402271405" lon="12.961777469730666"><ele>538.0</ele><time>2026-04-19T15:07:22.997Z</time></trkpt><trkpt lat="42.21193646898581" lon="12.961719444309413"><ele>538.0</ele><time>2026-04-19T15:07:23.996Z</time></trkpt><trkpt lat="42.21185795808727" lon="12.961655455480733"><ele>538.0</ele><time>2026-04-19T15:07:24.996Z</time></trkpt><trkpt lat="42.21177804957919" lon="12.961592670763375"><ele>538.0</ele><time>2026-04-19T15:07:25.996Z</time></trkpt><trkpt lat="42.21169919878254" lon="12.961527935367652"><ele>538.0</ele><time>2026-04-19T15:07:26.996Z</time></trkpt><trkpt lat="42.211615798889795" lon="12.96146672814712"><ele>538.0</ele><time>2026-04-19T15:07:27.996Z</time></trkpt><trkpt lat="42.211541582324784" lon="12.961390974735242"><ele>538.0</ele><time>2026-04-19T15:07:28.996Z</time></trkpt><trkpt lat="42.21145970280487" lon="12.96132683578563"><ele>538.0</ele><time>2026-04-19T15:07:29.996Z</time></trkpt><trkpt lat="42.21137829871833" lon="12.961258369227759"><ele>538.0</ele><time>2026-04-19T15:07:30.996Z</time></trkpt><trkpt lat="42.211289404841615" lon="12.961193047171328"><ele>538.6</ele><time>2026-04-19T15:07:31.996Z</time></trkpt><trkpt lat="42.21120212134228" lon="12.961132431171416"><ele>539.1999999999999</ele><time>2026-04-19T15:07:32.996Z</time></trkpt><trkpt lat="42.211116255480874" lon="12.961080469901788"><ele>539.8</ele><time>2026-04-19T15:07:33.996Z</time></trkpt><trkpt lat="42.21103450415841" lon="12.961041444153448"><ele>540.4</ele><time>2026-04-19T15:07:34.996Z</time></trkpt><trkpt lat="42.21094389694925" lon="12.961006731973193"><ele>541.0</ele><time>2026-04-19T15:07:35.996Z</time></trkpt><trkpt lat="42.21084536791883" lon="12.960978332520039"><ele>541.0</ele><time>2026-04-19T15:07:36.996Z</time></trkpt><trkpt lat="42.21075112355378" lon="12.960929881311136"><ele>541.0</ele><time>2026-04-19T15:07:37.996Z</time></trkpt><trkpt lat="42.21065952388375" lon="12.960852946883087"><ele>541.0</ele><time>2026-04-19T15:07:38.996Z</time></trkpt><trkpt lat="42.21057015963589" lon="12.96077414253813"><ele>541.0</ele><time>2026-04-19T15:07:39.996Z</time></trkpt><trkpt lat="42.21047903291543" lon="12.960705602200568"><ele>541.0</ele><time>2026-04-19T15:07:40.996Z</time></trkpt><trkpt lat="42.21038940824791" lon="12.960637146827786"><ele>544.8</ele><time>2026-04-19T15:07:41.996Z</time></trkpt><trkpt lat="42.21030492324857" lon="12.960559487730613"><ele>548.6</ele><time>2026-04-19T15:07:42.996Z</time></trkpt><trkpt lat="42.21022686519827" lon="12.960470734921776"><ele>552.4</ele><time>2026-04-19T15:07:43.996Z</time></trkpt><trkpt lat="42.21017147594515" lon="12.960365478613783"><ele>556.2</ele><time>2026-04-19T15:07:44.996Z</time></trkpt><trkpt lat="42.210134297267146" lon="12.960254561419795"><ele>560.0</ele><time>2026-04-19T15:07:45.996Z</time></trkpt><trkpt lat="42.21012841289158" lon="12.960122204135965"><ele>558.4</ele><time>2026-04-19T15:07:46.996Z</time></trkpt><trkpt lat="42.210127035850576" lon="12.96000255626434"><ele>556.8</ele><time>2026-04-19T15:07:47.996Z</time></trkpt><trkpt lat="42.21010759265086" lon="12.959883601996166"><ele>555.2</ele><time>2026-04-19T15:07:48.996Z</time></trkpt><trkpt lat="42.21007153440312" lon="12.959766444925682"><ele>553.6</ele><time>2026-04-19T15:07:49.996Z</time></trkpt><trkpt lat="42.21001942422798" lon="12.959663581490862"><ele>552.0</ele><time>2026-04-19T15:07:50.996Z</time></trkpt><trkpt lat="42.209943901469735" lon="12.959585207794126"><ele>552.0</ele><time>2026-04-19T15:07:51.996Z</time></trkpt><trkpt lat="42.209856177380026" lon="12.95952552502703"><ele>552.0</ele><time>2026-04-19T15:07:52.996Z</time></trkpt><trkpt lat="42.209762741375286" lon="12.959486571506261"><ele>552.0</ele><time>2026-04-19T15:07:53.996Z</time></trkpt><trkpt lat="42.209667634006344" lon="12.95946157061038"><ele>552.0</ele><time>2026-04-19T15:07:54.996Z</time></trkpt><trkpt lat="42.20957653932543" lon="12.959441241390525"><ele>552.0</ele><time>2026-04-19T15:07:55.996Z</time></trkpt><trkpt lat="42.20948973663158" lon="12.959416142755876"><ele>552.5714285714286</ele><time>2026-04-19T15:07:56.996Z</time></trkpt><trkpt lat="42.20942094446607" lon="12.95935764070899"><ele>553.1428571428572</ele><time>2026-04-19T15:07:57.996Z</time></trkpt><trkpt lat="42.209375348731186" lon="12.959282086182794"><ele>553.7142857142858</ele><time>2026-04-19T15:07:58.996Z</time></trkpt><trkpt lat="42.2093462606358" lon="12.959190942549858"><ele>554.2857142857143</ele><time>2026-04-19T15:07:59.996Z</time></trkpt><trkpt lat="42.20932856545926" lon="12.959091974073457"><ele>554.8571428571429</ele><time>2026-04-19T15:08:00.996Z</time></trkpt><trkpt lat="42.20933662895699" lon="12.958991918995094"><ele>555.4285714285714</ele><time>2026-04-19T15:08:01.996Z</time></trkpt><trkpt lat="42.20933363074902" lon="12.958896793567058"><ele>556.0</ele><time>2026-04-19T15:08:02.996Z</time></trkpt><trkpt lat="42.20932681910314" lon="12.958800325260704"><ele>556.0</ele><time>2026-04-19T15:08:03.996Z</time></trkpt><trkpt lat="42.209309512699114" lon="12.958703938689876"><ele>556.0</ele><time>2026-04-19T15:08:04.996Z</time></trkpt><trkpt lat="42.20926897138998" lon="12.958610862927685"><ele>556.0</ele><time>2026-04-19T15:08:05.996Z</time></trkpt><trkpt lat="42.20920222235536" lon="12.95853781346522"><ele>556.0</ele><time>2026-04-19T15:08:06.996Z</time></trkpt><trkpt lat="42.20911939662668" lon="12.958507334939982"><ele>556.0</ele><time>2026-04-19T15:08:07.996Z</time></trkpt><trkpt lat="42.20904087660687" lon="12.958482589249973"><ele>556.0</ele><time>2026-04-19T15:08:08.996Z</time></trkpt><trkpt lat="42.20895584955888" lon="12.958472264995581"><ele>556.0</ele><time>2026-04-19T15:08:09.996Z</time></trkpt><trkpt lat="42.20887423417146" lon="12.958446327513844"><ele>556.0</ele><time>2026-04-19T15:08:10.996Z</time></trkpt><trkpt lat="42.2087996141519" lon="12.958396041715972"><ele>556.0</ele><time>2026-04-19T15:08:11.996Z</time></trkpt><trkpt lat="42.20874122025501" lon="12.958318186148777"><ele>556.0</ele><time>2026-04-19T15:08:12.996Z</time></trkpt><trkpt lat="42.208690377221174" lon="12.95822519245215"><ele>556.0</ele><time>2026-04-19T15:08:13.996Z</time></trkpt><trkpt lat="42.20864079003285" lon="12.95812793324174"><ele>556.0</ele><time>2026-04-19T15:08:14.996Z</time></trkpt><trkpt lat="42.2085956343214" lon="12.958018918025543"><ele>556.0</ele><time>2026-04-19T15:08:15.996Z</time></trkpt><trkpt lat="42.208511480069646" lon="12.957945055622671"><ele>556.0</ele><time>2026-04-19T15:08:16.996Z</time></trkpt><trkpt lat="42.208407664428805" lon="12.95792755473449"><ele>556.0</ele><time>2026-04-19T15:08:17.996Z</time></trkpt><trkpt lat="42.20830909313279" lon="12.957906685308135"><ele>556.0</ele><time>2026-04-19T15:08:18.996Z</time></trkpt><trkpt lat="42.208219752494685" lon="12.957884071366323"><ele>556.0</ele><time>2026-04-19T15:08:19.996Z</time></trkpt><trkpt lat="42.20811925557909" lon="12.957861483979082"><ele>557.2</ele><time>2026-04-19T15:08:20.996Z</time></trkpt><trkpt lat="42.208019884844916" lon="12.957840034826152"><ele>558.4000000000001</ele><time>2026-04-19T15:08:21.996Z</time></trkpt><trkpt lat="42.20791864870402" lon="12.957820446335692"><ele>559.6</ele><time>2026-04-19T15:08:22.996Z</time></trkpt><trkpt lat="42.20781701858622" lon="12.957799702294595"><ele>560.8000000000001</ele><time>2026-04-19T15:08:23.996Z</time></trkpt><trkpt lat="42.20771868468277" lon="12.957781979780107"><ele>562.0</ele><time>2026-04-19T15:08:24.996Z</time></trkpt><trkpt lat="42.207627749833435" lon="12.957757160523508"><ele>562.0</ele><time>2026-04-19T15:08:25.996Z</time></trkpt><trkpt lat="42.20754290172407" lon="12.957731348450167"><ele>562.0</ele><time>2026-04-19T15:08:26.996Z</time></trkpt><trkpt lat="42.20746309174135" lon="12.957702986743664"><ele>562.0</ele><time>2026-04-19T15:08:27.996Z</time></trkpt><trkpt lat="42.2073937389636" lon="12.957659601973962"><ele>562.0</ele><time>2026-04-19T15:08:28.996Z</time></trkpt><trkpt lat="42.20733028759173" lon="12.957596209240528"><ele>562.0</ele><time>2026-04-19T15:08:29.996Z</time></trkpt><trkpt lat="42.20728216905424" lon="12.95750969520582"><ele>562.0</ele><time>2026-04-19T15:08:30.996Z</time></trkpt><trkpt lat="42.20724910185355" lon="12.957408541977244"><ele>560.8333333333334</ele><time>2026-04-19T15:08:31.996Z</time></trkpt><trkpt lat="42.20723191063513" lon="12.957301532090836"><ele>559.6666666666667</ele><time>2026-04-19T15:08:32.996Z</time></trkpt><trkpt lat="42.20723335397321" lon="12.95718998002372"><ele>558.5</ele><time>2026-04-19T15:08:33.996Z</time></trkpt><trkpt lat="42.207247661923645" lon="12.957080427922161"><ele>557.3333333333334</ele><time>2026-04-19T15:08:34.996Z</time></trkpt><trkpt lat="42.20727918450172" lon="12.956978536121422"><ele>556.1666666666666</ele><time>2026-04-19T15:08:35.996Z</time></trkpt><trkpt lat="42.20727579437141" lon="12.956865475507271"><ele>555.0</ele><time>2026-04-19T15:08:36.996Z</time></trkpt><trkpt lat="42.20725008838467" lon="12.956767595561114"><ele>555.0</ele><time>2026-04-19T15:08:37.996Z</time></trkpt><trkpt lat="42.2071771719656" lon="12.95670544232166"><ele>555.0</ele><time>2026-04-19T15:08:38.996Z</time></trkpt><trkpt lat="42.20710814981237" lon="12.956660971977094"><ele>555.0</ele><time>2026-04-19T15:08:39.996Z</time></trkpt><trkpt lat="42.207029141071175" lon="12.956638957457033"><ele>555.0</ele><time>2026-04-19T15:08:40.996Z</time></trkpt><trkpt lat="42.206938028365826" lon="12.956643185273013"><ele>555.0</ele><time>2026-04-19T15:08:41.996Z</time></trkpt><trkpt lat="42.2068468148289" lon="12.956661591149537"><ele>555.0</ele><time>2026-04-19T15:08:42.996Z</time></trkpt><trkpt lat="42.20675004608326" lon="12.956688942478392"><ele>555.0</ele><time>2026-04-19T15:08:43.996Z</time></trkpt><trkpt lat="42.206651936913524" lon="12.95672381315167"><ele>555.0</ele><time>2026-04-19T15:08:44.995Z</time></trkpt><trkpt lat="42.20655405754005" lon="12.956770899997197"><ele>555.0</ele><time>2026-04-19T15:08:45.995Z</time></trkpt><trkpt lat="42.20645105836398" lon="12.956809115336346"><ele>555.0</ele><time>2026-04-19T15:08:46.995Z</time></trkpt><trkpt lat="42.206347996700764" lon="12.95684143953385"><ele>555.0</ele><time>2026-04-19T15:08:47.995Z</time></trkpt><trkpt lat="42.20624267078293" lon="12.95686551040964"><ele>555.6</ele><time>2026-04-19T15:08:48.995Z</time></trkpt><trkpt lat="42.20614144241745" lon="12.956874983968838"><ele>556.2</ele><time>2026-04-19T15:08:49.995Z</time></trkpt><trkpt lat="42.20603790804844" lon="12.956867679565766"><ele>556.8</ele><time>2026-04-19T15:08:50.995Z</time></trkpt><trkpt lat="42.20593701355785" lon="12.956835920565437"><ele>557.4</ele><time>2026-04-19T15:08:51.995Z</time></trkpt><trkpt lat="42.2058417390933" lon="12.956804806631132"><ele>558.0</ele><time>2026-04-19T15:08:52.995Z</time></trkpt><trkpt lat="42.205744840243874" lon="12.956770872128173"><ele>557.1999999999999</ele><time>2026-04-19T15:08:53.995Z</time></trkpt><trkpt lat="42.20564844372049" lon="12.956735656550723"><ele>556.4</ele><time>2026-04-19T15:08:54.995Z</time></trkpt><trkpt lat="42.20554666794338" lon="12.956701868458591"><ele>555.5999999999999</ele><time>2026-04-19T15:08:55.995Z</time></trkpt><trkpt lat="42.20544225238909" lon="12.956668292355115"><ele>554.8</ele><time>2026-04-19T15:08:56.995Z</time></trkpt><trkpt lat="42.205335695111046" lon="12.956621607501091"><ele>554.0</ele><time>2026-04-19T15:08:57.995Z</time></trkpt><trkpt lat="42.20522785482027" lon="12.956574592209641"><ele>554.0</ele><time>2026-04-19T15:08:58.995Z</time></trkpt><trkpt lat="42.20511914499125" lon="12.956527251274325"><ele>554.0</ele><time>2026-04-19T15:08:59.995Z</time></trkpt><trkpt lat="42.20500520909462" lon="12.956484601344949"><ele>554.0</ele><time>2026-04-19T15:09:00.995Z</time></trkpt><trkpt lat="42.204895246154656" lon="12.956440796902527"><ele>554.0</ele><time>2026-04-19T15:09:01.995Z</time></trkpt><trkpt lat="42.20478374175716" lon="12.956398427788303"><ele>554.75</ele><time>2026-04-19T15:09:02.995Z</time></trkpt><trkpt lat="42.204669701430376" lon="12.956353931192425"><ele>555.5</ele><time>2026-04-19T15:09:03.995Z</time></trkpt><trkpt lat="42.20455011330344" lon="12.95631474767573"><ele>556.25</ele><time>2026-04-19T15:09:04.995Z</time></trkpt><trkpt lat="42.2044313816158" lon="12.956288831247443"><ele>557.0</ele><time>2026-04-19T15:09:05.995Z</time></trkpt><trkpt lat="42.20431106333566" lon="12.956290095244386"><ele>557.0</ele><time>2026-04-19T15:09:06.995Z</time></trkpt><trkpt lat="42.2041887225159" lon="12.956315564262752"><ele>557.0</ele><time>2026-04-19T15:09:07.995Z</time></trkpt><trkpt lat="42.20407264061946" lon="12.956364593013141"><ele>557.0</ele><time>2026-04-19T15:09:08.995Z</time></trkpt><trkpt lat="42.20395516001925" lon="12.956403839859012"><ele>557.0</ele><time>2026-04-19T15:09:09.995Z</time></trkpt><trkpt lat="42.20383123781016" lon="12.956411855691407"><ele>556.0</ele><time>2026-04-19T15:09:10.995Z</time></trkpt><trkpt lat="42.20370774222709" lon="12.95642503930737"><ele>555.0</ele><time>2026-04-19T15:09:11.995Z</time></trkpt><trkpt lat="42.20358253838749" lon="12.956414245053198"><ele>554.0</ele><time>2026-04-19T15:09:12.995Z</time></trkpt><trkpt lat="42.20346134927299" lon="12.956377254589047"><ele>553.0</ele><time>2026-04-19T15:09:13.995Z</time></trkpt><trkpt lat="42.2033371987266" lon="12.956315713996228"><ele>553.0</ele><time>2026-04-19T15:09:14.995Z</time></trkpt><trkpt lat="42.203219043825364" lon="12.956254100513197"><ele>553.0</ele><time>2026-04-19T15:09:15.995Z</time></trkpt><trkpt lat="42.203106731515575" lon="12.956192334211831"><ele>553.0</ele><time>2026-04-19T15:09:16.995Z</time></trkpt><trkpt lat="42.202993518823135" lon="12.956123785290426"><ele>553.0</ele><time>2026-04-19T15:09:17.995Z</time></trkpt><trkpt lat="42.2028907351141" lon="12.956065351983169"><ele>553.8</ele><time>2026-04-19T15:09:18.995Z</time></trkpt><trkpt lat="42.20278091355421" lon="12.956010507048516"><ele>554.5999999999999</ele><time>2026-04-19T15:09:19.995Z</time></trkpt><trkpt lat="42.20268406691595" lon="12.955951642706186"><ele>555.4000000000001</ele><time>2026-04-19T15:09:20.995Z</time></trkpt><trkpt lat="42.20260556663943" lon="12.955879484264978"><ele>556.2</ele><time>2026-04-19T15:09:21.995Z</time></trkpt><trkpt lat="42.202539446162874" lon="12.955794973628855"><ele>557.0</ele><time>2026-04-19T15:09:22.995Z</time></trkpt><trkpt lat="42.20250139782647" lon="12.9556850518967"><ele>555.4</ele><time>2026-04-19T15:09:23.995Z</time></trkpt><trkpt lat="42.2024934075203" lon="12.955573676368433"><ele>553.8000000000001</ele><time>2026-04-19T15:09:24.995Z</time></trkpt><trkpt lat="42.20252464521049" lon="12.955468943353791"><ele>552.2</ele><time>2026-04-19T15:09:25.995Z</time></trkpt><trkpt lat="42.202575561695774" lon="12.955373487662536"><ele>550.6</ele><time>2026-04-19T15:09:26.995Z</time></trkpt><trkpt lat="42.20264241938114" lon="12.955278800181057"><ele>549.0</ele><time>2026-04-19T15:09:27.995Z</time></trkpt><trkpt lat="42.2027168708721" lon="12.955179975805635"><ele>549.0</ele><time>2026-04-19T15:09:28.995Z</time></trkpt><trkpt lat="42.2027889758401" lon="12.955079320435923"><ele>549.0</ele><time>2026-04-19T15:09:29.995Z</time></trkpt><trkpt lat="42.20286003814498" lon="12.95497338772567"><ele>549.0</ele><time>2026-04-19T15:09:30.995Z</time></trkpt><trkpt lat="42.202931485484186" lon="12.954866036158947"><ele>549.0</ele><time>2026-04-19T15:09:31.995Z</time></trkpt><trkpt lat="42.202952051170016" lon="12.954724045945005"><ele>549.0</ele><time>2026-04-19T15:09:32.995Z</time></trkpt><trkpt lat="42.20297562177618" lon="12.9545808409267"><ele>548.2</ele><time>2026-04-19T15:09:33.995Z</time></trkpt><trkpt lat="42.2029997181323" lon="12.954443050291797"><ele>547.4</ele><time>2026-04-19T15:09:34.995Z</time></trkpt><trkpt lat="42.20303296222859" lon="12.954310855647567"><ele>546.6</ele><time>2026-04-19T15:09:35.995Z</time></trkpt><trkpt lat="42.20308156108745" lon="12.954192507301757"><ele>545.8</ele><time>2026-04-19T15:09:36.995Z</time></trkpt><trkpt lat="42.203147921687375" lon="12.954095246898497"><ele>545.0</ele><time>2026-04-19T15:09:37.995Z</time></trkpt><trkpt lat="42.20321749922034" lon="12.954021422584509"><ele>545.0</ele><time>2026-04-19T15:09:38.995Z</time></trkpt><trkpt lat="42.2032892580471" lon="12.953969046519175"><ele>545.0</ele><time>2026-04-19T15:09:39.995Z</time></trkpt><trkpt lat="42.20336227759451" lon="12.953928544270282"><ele>545.0</ele><time>2026-04-19T15:09:40.995Z</time></trkpt><trkpt lat="42.20343496481644" lon="12.953896987420103"><ele>545.0</ele><time>2026-04-19T15:09:41.995Z</time></trkpt><trkpt lat="42.20350619329464" lon="12.953864644901627"><ele>545.0</ele><time>2026-04-19T15:09:42.995Z</time></trkpt><trkpt lat="42.20357607286139" lon="12.953830182283092"><ele>545.0</ele><time>2026-04-19T15:09:43.995Z</time></trkpt><trkpt lat="42.203648058007644" lon="12.95380274841279"><ele>545.0</ele><time>2026-04-19T15:09:44.995Z</time></trkpt><trkpt lat="42.20372668936597" lon="12.953774928669947"><ele>545.0</ele><time>2026-04-19T15:09:45.995Z</time></trkpt><trkpt lat="42.203805657824745" lon="12.953738413992149"><ele>545.0</ele><time>2026-04-19T15:09:46.995Z</time></trkpt><trkpt lat="42.20388024316108" lon="12.953695061607421"><ele>545.0</ele><time>2026-04-19T15:09:47.995Z</time></trkpt><trkpt lat="42.20395627864042" lon="12.953647887246076"><ele>545.0</ele><time>2026-04-19T15:09:48.995Z</time></trkpt><trkpt lat="42.20404212289976" lon="12.953618490705937"><ele>545.0</ele><time>2026-04-19T15:09:49.995Z</time></trkpt><trkpt lat="42.20412370702818" lon="12.953568375579453"><ele>544.1666666666666</ele><time>2026-04-19T15:09:50.995Z</time></trkpt><trkpt lat="42.204207767091674" lon="12.95351214153748"><ele>543.3333333333333</ele><time>2026-04-19T15:09:51.995Z</time></trkpt><trkpt lat="42.20427930541585" lon="12.95346428429243"><ele>542.5</ele><time>2026-04-19T15:09:52.995Z</time></trkpt><trkpt lat="42.20435119132385" lon="12.953415533824565"><ele>541.6666666666666</ele><time>2026-04-19T15:09:53.995Z</time></trkpt><trkpt lat="42.20441718099718" lon="12.953369156362637"><ele>540.8333333333334</ele><time>2026-04-19T15:09:54.995Z</time></trkpt><trkpt lat="42.20448218343155" lon="12.95332347270786"><ele>540.0</ele><time>2026-04-19T15:09:55.995Z</time></trkpt><trkpt lat="42.20454463496623" lon="12.95327101079125"><ele>540.8571428571429</ele><time>2026-04-19T15:09:56.995Z</time></trkpt><trkpt lat="42.20461518460412" lon="12.953230567818524"><ele>541.7142857142857</ele><time>2026-04-19T15:09:57.995Z</time></trkpt><trkpt lat="42.204686966509016" lon="12.95319484370323"><ele>542.5714285714286</ele><time>2026-04-19T15:09:58.995Z</time></trkpt><trkpt lat="42.204756917367966" lon="12.953169964149996"><ele>543.4285714285714</ele><time>2026-04-19T15:09:59.995Z</time></trkpt><trkpt lat="42.2048260866432" lon="12.953156383626405"><ele>544.2857142857142</ele><time>2026-04-19T15:10:00.995Z</time></trkpt><trkpt lat="42.20489725521628" lon="12.953143411839834"><ele>545.1428571428571</ele><time>2026-04-19T15:10:01.995Z</time></trkpt><trkpt lat="42.204970203079206" lon="12.953140841225789"><ele>546.0</ele><time>2026-04-19T15:10:02.995Z</time></trkpt><trkpt lat="42.20504519803499" lon="12.953142357736944"><ele>546.0</ele><time>2026-04-19T15:10:03.995Z</time></trkpt><trkpt lat="42.20511427459647" lon="12.95315080434587"><ele>546.0</ele><time>2026-04-19T15:10:04.995Z</time></trkpt><trkpt lat="42.205183630619665" lon="12.953155965184624"><ele>546.0</ele><time>2026-04-19T15:10:05.995Z</time></trkpt><trkpt lat="42.20525988795107" lon="12.953155461281872"><ele>546.0</ele><time>2026-04-19T15:10:06.994Z</time></trkpt><trkpt lat="42.20533727074818" lon="12.953152812474508"><ele>546.0</ele><time>2026-04-19T15:10:07.994Z</time></trkpt><trkpt lat="42.20541985496308" lon="12.953152268889049"><ele>546.0</ele><time>2026-04-19T15:10:08.994Z</time></trkpt><trkpt lat="42.20550857517183" lon="12.953146888848844"><ele>546.0</ele><time>2026-04-19T15:10:09.994Z</time></trkpt><trkpt lat="42.205603073977976" lon="12.953150080640178"><ele>546.0</ele><time>2026-04-19T15:10:10.994Z</time></trkpt><trkpt lat="42.20570521682697" lon="12.953156087944015"><ele>546.0</ele><time>2026-04-19T15:10:11.994Z</time></trkpt><trkpt lat="42.20580675363565" lon="12.953159438866733"><ele>546.0</ele><time>2026-04-19T15:10:12.994Z</time></trkpt><trkpt lat="42.20590563913198" lon="12.953162985750055"><ele>546.0</ele><time>2026-04-19T15:10:13.994Z</time></trkpt><trkpt lat="42.20600538139544" lon="12.953166286662015"><ele>545.6666666666666</ele><time>2026-04-19T15:10:14.994Z</time></trkpt><trkpt lat="42.20609088893326" lon="12.953169287907187"><ele>545.3333333333334</ele><time>2026-04-19T15:10:15.994Z</time></trkpt><trkpt lat="42.20617025684727" lon="12.953150623603879"><ele>545.0</ele><time>2026-04-19T15:10:16.994Z</time></trkpt><trkpt lat="42.206243870506135" lon="12.953118770993045"><ele>544.6666666666667</ele><time>2026-04-19T15:10:17.994Z</time></trkpt><trkpt lat="42.206308448815626" lon="12.953061275176855"><ele>544.3333333333334</ele><time>2026-04-19T15:10:18.994Z</time></trkpt><trkpt lat="42.20635105102478" lon="12.952991684383633"><ele>544.0</ele><time>2026-04-19T15:10:19.994Z</time></trkpt><trkpt lat="42.20638517101719" lon="12.95291026193905"><ele>544.0</ele><time>2026-04-19T15:10:20.994Z</time></trkpt><trkpt lat="42.206407092110105" lon="12.952819577653251"><ele>544.0</ele><time>2026-04-19T15:10:21.994Z</time></trkpt><trkpt lat="42.206410264522894" lon="12.952715655932522"><ele>544.0</ele><time>2026-04-19T15:10:22.994Z</time></trkpt><trkpt lat="42.20640202021295" lon="12.952610019594623"><ele>544.0</ele><time>2026-04-19T15:10:23.994Z</time></trkpt><trkpt lat="42.2063795980206" lon="12.952496673616553"><ele>544.0</ele><time>2026-04-19T15:10:24.994Z</time></trkpt><trkpt lat="42.20635236684301" lon="12.95237219140869"><ele>544.0</ele><time>2026-04-19T15:10:25.994Z</time></trkpt><trkpt lat="42.20634012614048" lon="12.952242225807877"><ele>547.6</ele><time>2026-04-19T15:10:26.994Z</time></trkpt><trkpt lat="42.2063413138586" lon="12.952100048900371"><ele>551.2</ele><time>2026-04-19T15:10:27.994Z</time></trkpt><trkpt lat="42.206352933557916" lon="12.951959064182962"><ele>554.8000000000001</ele><time>2026-04-19T15:10:28.994Z</time></trkpt><trkpt lat="42.20637133130772" lon="12.95181300768839"><ele>558.4</ele><time>2026-04-19T15:10:29.994Z</time></trkpt><trkpt lat="42.206392348483924" lon="12.951662423346177"><ele>562.0</ele><time>2026-04-19T15:10:30.994Z</time></trkpt><trkpt lat="42.20641234302829" lon="12.951514658191769"><ele>562.0</ele><time>2026-04-19T15:10:31.994Z</time></trkpt><trkpt lat="42.20643316587345" lon="12.951373473023866"><ele>562.0</ele><time>2026-04-19T15:10:32.994Z</time></trkpt><trkpt lat="42.206440893692076" lon="12.951232123932694"><ele>562.0</ele><time>2026-04-19T15:10:33.994Z</time></trkpt><trkpt lat="42.20642324621105" lon="12.951094535618358"><ele>562.0</ele><time>2026-04-19T15:10:34.994Z</time></trkpt><trkpt lat="42.20638309728706" lon="12.95097023182316"><ele>562.0</ele><time>2026-04-19T15:10:35.994Z</time></trkpt><trkpt lat="42.20632343422677" lon="12.950860554779544"><ele>562.0</ele><time>2026-04-19T15:10:36.994Z</time></trkpt><trkpt lat="42.20624609159676" lon="12.950748913365041"><ele>562.0</ele><time>2026-04-19T15:10:37.994Z</time></trkpt><trkpt lat="42.20616083152545" lon="12.950637207443735"><ele>562.0</ele><time>2026-04-19T15:10:38.994Z</time></trkpt><trkpt lat="42.20607870685452" lon="12.950527833827602"><ele>562.0</ele><time>2026-04-19T15:10:39.994Z</time></trkpt><trkpt lat="42.20600635942287" lon="12.950422209084843"><ele>562.0</ele><time>2026-04-19T15:10:40.994Z</time></trkpt><trkpt lat="42.205947087584015" lon="12.95030985124985"><ele>562.0</ele><time>2026-04-19T15:10:41.994Z</time></trkpt><trkpt lat="42.20590920483857" lon="12.950194476265649"><ele>562.0</ele><time>2026-04-19T15:10:42.994Z</time></trkpt><trkpt lat="42.20592754603192" lon="12.950092502877608"><ele>562.0</ele><time>2026-04-19T15:10:43.994Z</time></trkpt><trkpt lat="42.205939490846944" lon="12.949993582592128"><ele>562.0</ele><time>2026-04-19T15:10:44.994Z</time></trkpt><trkpt lat="42.205987325590726" lon="12.9499238542915"><ele>562.0</ele><time>2026-04-19T15:10:45.994Z</time></trkpt><trkpt lat="42.20606203142017" lon="12.949872548199275"><ele>560.4</ele><time>2026-04-19T15:10:46.994Z</time></trkpt><trkpt lat="42.20615044629498" lon="12.949852615257777"><ele>558.8000000000001</ele><time>2026-04-19T15:10:47.994Z</time></trkpt><trkpt lat="42.20623952791755" lon="12.94987203853978"><ele>557.2</ele><time>2026-04-19T15:10:48.994Z</time></trkpt><trkpt lat="42.20633212312742" lon="12.949912573436313"><ele>555.6</ele><time>2026-04-19T15:10:49.994Z</time></trkpt><trkpt lat="42.20642965968614" lon="12.949960646127696"><ele>554.0</ele><time>2026-04-19T15:10:50.994Z</time></trkpt><trkpt lat="42.20653330713545" lon="12.950006254308468"><ele>554.0</ele><time>2026-04-19T15:10:51.994Z</time></trkpt><trkpt lat="42.206642724800005" lon="12.95004062676791"><ele>554.0</ele><time>2026-04-19T15:10:52.994Z</time></trkpt><trkpt lat="42.206748456330224" lon="12.95007537905426"><ele>554.0</ele><time>2026-04-19T15:10:53.994Z</time></trkpt><trkpt lat="42.206847651406605" lon="12.950111243337346"><ele>554.0</ele><time>2026-04-19T15:10:54.994Z</time></trkpt><trkpt lat="42.206949042286844" lon="12.950150661419201"><ele>554.0</ele><time>2026-04-19T15:10:55.994Z</time></trkpt><trkpt lat="42.207056270162774" lon="12.95019044274177"><ele>551.8</ele><time>2026-04-19T15:10:56.994Z</time></trkpt><trkpt lat="42.20715661113838" lon="12.95023235011116"><ele>549.5999999999999</ele><time>2026-04-19T15:10:57.994Z</time></trkpt><trkpt lat="42.20725670265873" lon="12.950264345467394"><ele>547.4</ele><time>2026-04-19T15:10:58.994Z</time></trkpt><trkpt lat="42.20735995985403" lon="12.95028528106"><ele>545.1999999999999</ele><time>2026-04-19T15:10:59.994Z</time></trkpt><trkpt lat="42.20746027217256" lon="12.950299115687542"><ele>543.0</ele><time>2026-04-19T15:11:00.994Z</time></trkpt><trkpt lat="42.20755448253227" lon="12.95030650070312"><ele>543.0</ele><time>2026-04-19T15:11:01.994Z</time></trkpt><trkpt lat="42.207643539570924" lon="12.95030519007663"><ele>543.0</ele><time>2026-04-19T15:11:02.994Z</time></trkpt><trkpt lat="42.2077237839912" lon="12.950282695961"><ele>543.0</ele><time>2026-04-19T15:11:03.994Z</time></trkpt><trkpt lat="42.207797567264336" lon="12.95025309698466"><ele>543.0</ele><time>2026-04-19T15:11:04.994Z</time></trkpt><trkpt lat="42.20785702019155" lon="12.950210110499334"><ele>543.0</ele><time>2026-04-19T15:11:05.994Z</time></trkpt><trkpt lat="42.20791472381156" lon="12.950145403067031"><ele>543.0</ele><time>2026-04-19T15:11:06.994Z</time></trkpt><trkpt lat="42.20796940542446" lon="12.9500683082598"><ele>545.4</ele><time>2026-04-19T15:11:07.994Z</time></trkpt><trkpt lat="42.208015530677876" lon="12.949974103267106"><ele>547.8</ele><time>2026-04-19T15:11:08.994Z</time></trkpt><trkpt lat="42.20804935668742" lon="12.949862771207714"><ele>550.2</ele><time>2026-04-19T15:11:09.994Z</time></trkpt><trkpt lat="42.20807320108879" lon="12.949741931011614"><ele>552.6</ele><time>2026-04-19T15:11:10.994Z</time></trkpt><trkpt lat="42.20809054803993" lon="12.949611087511961"><ele>555.0</ele><time>2026-04-19T15:11:11.994Z</time></trkpt><trkpt lat="42.20810652978193" lon="12.949477116269401"><ele>555.0</ele><time>2026-04-19T15:11:12.994Z</time></trkpt><trkpt lat="42.20811890581798" lon="12.949355646522475"><ele>555.0</ele><time>2026-04-19T15:11:13.994Z</time></trkpt><trkpt lat="42.208131452785395" lon="12.9492330295289"><ele>555.0</ele><time>2026-04-19T15:11:14.994Z</time></trkpt><trkpt lat="42.20814724975436" lon="12.94911371708383"><ele>555.0</ele><time>2026-04-19T15:11:15.994Z</time></trkpt><trkpt lat="42.208160256234976" lon="12.948988164246416"><ele>555.0</ele><time>2026-04-19T15:11:16.994Z</time></trkpt><trkpt lat="42.208175283852476" lon="12.948867171469463"><ele>555.1666666666666</ele><time>2026-04-19T15:11:17.994Z</time></trkpt><trkpt lat="42.2081858757009" lon="12.948762337773935"><ele>555.3333333333334</ele><time>2026-04-19T15:11:18.994Z</time></trkpt><trkpt lat="42.20819360280621" lon="12.948667359357117"><ele>555.5</ele><time>2026-04-19T15:11:19.994Z</time></trkpt><trkpt lat="42.20821513088157" lon="12.94851199491971"><ele>555.6666666666667</ele><time>2026-04-19T15:11:21.994Z</time></trkpt><trkpt lat="42.20822879695281" lon="12.948395371275643"><ele>555.8333333333334</ele><time>2026-04-19T15:11:23.994Z</time></trkpt><trkpt lat="42.20829380617026" lon="12.948371756407097"><ele>556.0</ele><time>2026-04-19T15:11:26.994Z</time></trkpt><trkpt lat="42.208350119401864" lon="12.948459581577001"><ele>555.5</ele><time>2026-04-19T15:11:28.993Z</time></trkpt><trkpt lat="42.20842925596823" lon="12.948535101766101"><ele>555.0</ele><time>2026-04-19T15:11:30.993Z</time></trkpt><trkpt lat="42.208502358810975" lon="12.94864295667818"><ele>554.5</ele><time>2026-04-19T15:11:32.993Z</time></trkpt><trkpt lat="42.2085793268" lon="12.948746022874039"><ele>554.0</ele><time>2026-04-19T15:11:34.993Z</time></trkpt><trkpt lat="42.20863068909852" lon="12.948799583495012"><ele>553.5</ele><time>2026-04-19T15:11:35.993Z</time></trkpt><trkpt lat="42.20866891161808" lon="12.948870281634532"><ele>553.0</ele><time>2026-04-19T15:11:36.993Z</time></trkpt><trkpt lat="42.208720933302054" lon="12.948932092902298"><ele>553.0</ele><time>2026-04-19T15:11:37.993Z</time></trkpt><trkpt lat="42.2087731465277" lon="12.948990202930702"><ele>553.0</ele><time>2026-04-19T15:11:38.993Z</time></trkpt><trkpt lat="42.20882850644495" lon="12.949049279347951"><ele>553.0</ele><time>2026-04-19T15:11:39.993Z</time></trkpt><trkpt lat="42.20888124948782" lon="12.949111501907884"><ele>553.0</ele><time>2026-04-19T15:11:40.993Z</time></trkpt><trkpt lat="42.20892556676971" lon="12.94917720730039"><ele>553.0</ele><time>2026-04-19T15:11:41.993Z</time></trkpt><trkpt lat="42.2090117519947" lon="12.949281348012716"><ele>553.0</ele><time>2026-04-19T15:11:43.993Z</time></trkpt><trkpt lat="42.209087748820025" lon="12.949365822939955"><ele>551.1666666666667</ele><time>2026-04-19T15:11:45.993Z</time></trkpt><trkpt lat="42.20914379780132" lon="12.949447910803272"><ele>549.3333333333334</ele><time>2026-04-19T15:11:47.993Z</time></trkpt><trkpt lat="42.209188388618415" lon="12.949527164787314"><ele>547.5</ele><time>2026-04-19T15:11:49.993Z</time></trkpt><trkpt lat="42.20922739351763" lon="12.949619388854707"><ele>545.6666666666666</ele><time>2026-04-19T15:11:52.993Z</time></trkpt><trkpt lat="42.20928448497429" lon="12.949696935112005"><ele>543.8333333333333</ele><time>2026-04-19T15:11:56.993Z</time></trkpt><trkpt lat="42.209350337777686" lon="12.949772231211254"><ele>542.0</ele><time>2026-04-19T15:11:59.993Z</time></trkpt><trkpt lat="42.209418539291576" lon="12.949844222060937"><ele>542.0</ele><time>2026-04-19T15:12:02.993Z</time></trkpt><trkpt lat="42.20951070562434" lon="12.949888597760298"><ele>542.0</ele><time>2026-04-19T15:12:05.993Z</time></trkpt><trkpt lat="42.209566770508" lon="12.949938102059406"><ele>542.0</ele><time>2026-04-19T15:12:07.993Z</time></trkpt><trkpt lat="42.20963384768827" lon="12.950000216150157"><ele>542.0</ele><time>2026-04-19T15:12:10.993Z</time></trkpt><trkpt lat="42.2096873356088" lon="12.950099650604926"><ele>542.0</ele><time>2026-04-19T15:12:35.993Z</time></trkpt><trkpt lat="42.20972992047222" lon="12.950179228884418"><ele>542.0</ele><time>2026-04-19T15:12:40.993Z</time></trkpt><trkpt lat="42.20968747612471" lon="12.950268751514162"><ele>541.6666666666666</ele><time>2026-04-19T15:12:44.993Z</time></trkpt><trkpt lat="42.20961290115197" lon="12.950306914815434"><ele>541.3333333333333</ele><time>2026-04-19T15:12:46.993Z</time></trkpt><trkpt lat="42.20954581190883" lon="12.950286151744718"><ele>541.0</ele><time>2026-04-19T15:12:48.992Z</time></trkpt><trkpt lat="42.20947008977734" lon="12.950276847348205"><ele>540.6666666666666</ele><time>2026-04-19T15:12:51.992Z</time></trkpt><trkpt lat="42.20939908596609" lon="12.950207752674402"><ele>540.3333333333334</ele><time>2026-04-19T15:12:54.992Z</time></trkpt><trkpt lat="42.209325014325024" lon="12.950154941855242"><ele>540.0</ele><time>2026-04-19T15:12:57.992Z</time></trkpt><trkpt lat="42.20926388285321" lon="12.950133676830173"><ele>540.0</ele><time>2026-04-19T15:12:59.992Z</time></trkpt><trkpt lat="42.20918797252257" lon="12.950087439858539"><ele>540.0</ele><time>2026-04-19T15:13:02.992Z</time></trkpt><trkpt lat="42.20910929896649" lon="12.950066945251507"><ele>540.0</ele><time>2026-04-19T15:13:05.992Z</time></trkpt><trkpt lat="42.2090736616943" lon="12.95017375947849"><ele>540.0</ele><time>2026-04-19T15:15:39.988Z</time></trkpt><trkpt lat="42.20916233887038" lon="12.950178602718077"><ele>540.0</ele><time>2026-04-19T15:20:44.997Z</time></trkpt><trkpt lat="42.20922786394502" lon="12.950181567700543"><ele>540.0</ele><time>2026-04-19T15:20:47.997Z</time></trkpt><trkpt lat="42.209298039289216" lon="12.950205107477577"><ele>540.0</ele><time>2026-04-19T15:20:50.997Z</time></trkpt><trkpt lat="42.2093771797717" lon="12.950271740300918"><ele>540.0</ele><time>2026-04-19T15:20:52.997Z</time></trkpt><trkpt lat="42.209466632837355" lon="12.95032769824385"><ele>540.0</ele><time>2026-04-19T15:20:54.997Z</time></trkpt><trkpt lat="42.20956372097807" lon="12.950339372521016"><ele>540.0</ele><time>2026-04-19T15:20:56.997Z</time></trkpt><trkpt lat="42.20963071289276" lon="12.950298230340582"><ele>540.0</ele><time>2026-04-19T15:20:58.997Z</time></trkpt><trkpt lat="42.20969107659424" lon="12.950218199994515"><ele>540.0</ele><time>2026-04-19T15:21:01.997Z</time></trkpt><trkpt lat="42.20972244993542" lon="12.950115981982941"><ele>540.4</ele><time>2026-04-19T15:21:03.997Z</time></trkpt><trkpt lat="42.20968121043497" lon="12.949999046910431"><ele>540.8</ele><time>2026-04-19T15:21:05.999Z</time></trkpt><trkpt lat="42.20958994638654" lon="12.949941468553892"><ele>541.2</ele><time>2026-04-19T15:21:07.999Z</time></trkpt><trkpt lat="42.20948667863368" lon="12.949860915620613"><ele>541.6</ele><time>2026-04-19T15:21:09.999Z</time></trkpt><trkpt lat="42.20939307617983" lon="12.949771354929315"><ele>542.0</ele><time>2026-04-19T15:21:11.999Z</time></trkpt><trkpt lat="42.20931705744439" lon="12.94968893482949"><ele>542.0</ele><time>2026-04-19T15:21:13.999Z</time></trkpt><trkpt lat="42.20927030183655" lon="12.949593684017804"><ele>542.0</ele><time>2026-04-19T15:21:15.999Z</time></trkpt><trkpt lat="42.20921277895106" lon="12.949509134961223"><ele>542.0</ele><time>2026-04-19T15:21:17.999Z</time></trkpt><trkpt lat="42.20915822026524" lon="12.949434756499118"><ele>542.0</ele><time>2026-04-19T15:21:19.999Z</time></trkpt><trkpt lat="42.20910552721701" lon="12.94934724544823"><ele>542.0</ele><time>2026-04-19T15:21:21.999Z</time></trkpt><trkpt lat="42.20903499006526" lon="12.949261544464548"><ele>542.0</ele><time>2026-04-19T15:21:23.999Z</time></trkpt><trkpt lat="42.208951894179776" lon="12.94917989596204"><ele>544.2</ele><time>2026-04-19T15:21:25.999Z</time></trkpt><trkpt lat="42.20887114127863" lon="12.949059597373799"><ele>546.4000000000001</ele><time>2026-04-19T15:21:27.999Z</time></trkpt><trkpt lat="42.208826291536376" lon="12.948984963437663"><ele>548.5999999999999</ele><time>2026-04-19T15:21:28.999Z</time></trkpt><trkpt lat="42.20873228519634" lon="12.948874602554822"><ele>550.8</ele><time>2026-04-19T15:21:30.999Z</time></trkpt><trkpt lat="42.20863194144889" lon="12.948757935008038"><ele>553.0</ele><time>2026-04-19T15:21:32.999Z</time></trkpt><trkpt lat="42.20857147685547" lon="12.948691955557434"><ele>553.0</ele><time>2026-04-19T15:21:33.999Z</time></trkpt><trkpt lat="42.2085147415559" lon="12.948621377764566"><ele>553.0</ele><time>2026-04-19T15:21:34.999Z</time></trkpt><trkpt lat="42.208464378571605" lon="12.948560631503096"><ele>553.0</ele><time>2026-04-19T15:21:35.999Z</time></trkpt><trkpt lat="42.208408603500075" lon="12.948505381391664"><ele>553.0</ele><time>2026-04-19T15:21:36.999Z</time></trkpt><trkpt lat="42.208370030485426" lon="12.948421743300347"><ele>553.0</ele><time>2026-04-19T15:21:37.999Z</time></trkpt><trkpt lat="42.208301693977624" lon="12.948332936196259"><ele>553.0</ele><time>2026-04-19T15:21:39.999Z</time></trkpt><trkpt lat="42.20826006408075" lon="12.948261276249346"><ele>553.0</ele><time>2026-04-19T15:21:44.998Z</time></trkpt><trkpt lat="42.208204471662356" lon="12.948190466658973"><ele>553.5</ele><time>2026-04-19T15:21:50.998Z</time></trkpt><trkpt lat="42.2082188730598" lon="12.948075418068022"><ele>554.0</ele><time>2026-04-19T15:21:51.998Z</time></trkpt><trkpt lat="42.20820484976979" lon="12.94797825947498"><ele>554.5</ele><time>2026-04-19T15:21:52.998Z</time></trkpt><trkpt lat="42.20818411870785" lon="12.947863418078082"><ele>555.0</ele><time>2026-04-19T15:21:53.998Z</time></trkpt><trkpt lat="42.208164564171035" lon="12.947740407850855"><ele>555.5</ele><time>2026-04-19T15:21:54.998Z</time></trkpt><trkpt lat="42.20814643474842" lon="12.94761509466861"><ele>556.0</ele><time>2026-04-19T15:21:55.998Z</time></trkpt><trkpt lat="42.20812799224705" lon="12.94749724815779"><ele>557.1666666666667</ele><time>2026-04-19T15:21:56.998Z</time></trkpt><trkpt lat="42.20811016627709" lon="12.947378877996341"><ele>558.3333333333334</ele><time>2026-04-19T15:21:57.998Z</time></trkpt><trkpt lat="42.20809341285253" lon="12.947275599609057"><ele>559.5</ele><time>2026-04-19T15:21:58.998Z</time></trkpt><trkpt lat="42.20807711955043" lon="12.947188931830317"><ele>560.6666666666666</ele><time>2026-04-19T15:21:59.998Z</time></trkpt><trkpt lat="42.208050786368766" lon="12.947044474805084"><ele>561.8333333333333</ele><time>2026-04-19T15:22:01.998Z</time></trkpt><trkpt lat="42.208032675635636" lon="12.946915783584716"><ele>563.0</ele><time>2026-04-19T15:22:03.998Z</time></trkpt><trkpt lat="42.20799364455649" lon="12.946741954878567"><ele>562.8</ele><time>2026-04-19T15:22:05.998Z</time></trkpt><trkpt lat="42.20795718083676" lon="12.946642854704688"><ele>562.5999999999999</ele><time>2026-04-19T15:22:06.998Z</time></trkpt><trkpt lat="42.20790273823907" lon="12.946542800377957"><ele>562.4000000000001</ele><time>2026-04-19T15:22:07.998Z</time></trkpt><trkpt lat="42.20784238777121" lon="12.946438691428204"><ele>562.2</ele><time>2026-04-19T15:22:08.998Z</time></trkpt><trkpt lat="42.207763131829935" lon="12.946351331145676"><ele>562.0</ele><time>2026-04-19T15:22:09.998Z</time></trkpt><trkpt lat="42.20766954210281" lon="12.94626543489763"><ele>562.0</ele><time>2026-04-19T15:22:10.998Z</time></trkpt><trkpt lat="42.20756374270858" lon="12.946195207735748"><ele>562.0</ele><time>2026-04-19T15:22:11.998Z</time></trkpt><trkpt lat="42.20747007959327" lon="12.946102777247408"><ele>562.0</ele><time>2026-04-19T15:22:12.998Z</time></trkpt><trkpt lat="42.20738091424157" lon="12.946011744354166"><ele>562.0</ele><time>2026-04-19T15:22:13.998Z</time></trkpt><trkpt lat="42.207308063755654" lon="12.945921915731619"><ele>562.0</ele><time>2026-04-19T15:22:14.998Z</time></trkpt><trkpt lat="42.20726079072059" lon="12.945832540469217"><ele>562.1666666666667</ele><time>2026-04-19T15:22:15.998Z</time></trkpt><trkpt lat="42.207242362899606" lon="12.945738452159208"><ele>562.3333333333334</ele><time>2026-04-19T15:22:16.998Z</time></trkpt><trkpt lat="42.20725898321889" lon="12.945629676826377"><ele>562.5</ele><time>2026-04-19T15:22:17.998Z</time></trkpt><trkpt lat="42.207298019616175" lon="12.945528768647527"><ele>562.6666666666666</ele><time>2026-04-19T15:22:18.998Z</time></trkpt><trkpt lat="42.20735915756941" lon="12.945430158418333"><ele>562.8333333333333</ele><time>2026-04-19T15:22:19.998Z</time></trkpt><trkpt lat="42.207444663095835" lon="12.945334851648555"><ele>563.0</ele><time>2026-04-19T15:22:20.998Z</time></trkpt><trkpt lat="42.207546730965454" lon="12.945241525779132"><ele>562.5</ele><time>2026-04-19T15:22:21.998Z</time></trkpt><trkpt lat="42.20765696488259" lon="12.945142721473395"><ele>562.0</ele><time>2026-04-19T15:22:22.998Z</time></trkpt><trkpt lat="42.20777113816014" lon="12.945052812878957"><ele>561.5</ele><time>2026-04-19T15:22:23.998Z</time></trkpt><trkpt lat="42.207883749554384" lon="12.944951969554692"><ele>561.0</ele><time>2026-04-19T15:22:24.998Z</time></trkpt><trkpt lat="42.20800045737901" lon="12.944880538189043"><ele>561.0</ele><time>2026-04-19T15:22:25.998Z</time></trkpt><trkpt lat="42.20812515994773" lon="12.944844303447185"><ele>561.0</ele><time>2026-04-19T15:22:26.998Z</time></trkpt><trkpt lat="42.20825392413852" lon="12.944825143390462"><ele>561.0</ele><time>2026-04-19T15:22:27.998Z</time></trkpt><trkpt lat="42.208373667286196" lon="12.944832728245672"><ele>561.0</ele><time>2026-04-19T15:22:28.998Z</time></trkpt><trkpt lat="42.208487086895886" lon="12.944872559107688"><ele>559.6</ele><time>2026-04-19T15:22:29.998Z</time></trkpt><trkpt lat="42.20858963392743" lon="12.94493526843936"><ele>558.2</ele><time>2026-04-19T15:22:30.998Z</time></trkpt><trkpt lat="42.20868811712466" lon="12.944997194669487"><ele>556.8</ele><time>2026-04-19T15:22:31.998Z</time></trkpt><trkpt lat="42.20878561198566" lon="12.945027525962074"><ele>555.4</ele><time>2026-04-19T15:22:32.998Z</time></trkpt><trkpt lat="42.20887145368561" lon="12.94500929154876"><ele>554.0</ele><time>2026-04-19T15:22:33.998Z</time></trkpt><trkpt lat="42.20894721113506" lon="12.944981546388604"><ele>553.2</ele><time>2026-04-19T15:22:34.998Z</time></trkpt><trkpt lat="42.20900299787255" lon="12.944877990114225"><ele>552.4</ele><time>2026-04-19T15:22:35.998Z</time></trkpt><trkpt lat="42.209048023582874" lon="12.944773192649741"><ele>551.6</ele><time>2026-04-19T15:22:36.998Z</time></trkpt><trkpt lat="42.20907851357962" lon="12.94465234357926"><ele>550.8</ele><time>2026-04-19T15:22:37.998Z</time></trkpt><trkpt lat="42.209131122002276" lon="12.944531047566027"><ele>550.0</ele><time>2026-04-19T15:22:38.998Z</time></trkpt><trkpt lat="42.20915279647945" lon="12.944377528594703"><ele>550.0</ele><time>2026-04-19T15:22:39.998Z</time></trkpt><trkpt lat="42.209201309685504" lon="12.944240342766461"><ele>550.0</ele><time>2026-04-19T15:22:40.998Z</time></trkpt><trkpt lat="42.20923771911196" lon="12.944113335764817"><ele>550.0</ele><time>2026-04-19T15:22:41.998Z</time></trkpt><trkpt lat="42.209279494808186" lon="12.943995636772176"><ele>550.0</ele><time>2026-04-19T15:22:42.998Z</time></trkpt><trkpt lat="42.209333078795005" lon="12.943881399947262"><ele>550.0</ele><time>2026-04-19T15:22:43.998Z</time></trkpt><trkpt lat="42.209396252331025" lon="12.943759946328102"><ele>552.0</ele><time>2026-04-19T15:22:44.998Z</time></trkpt><trkpt lat="42.20944816897948" lon="12.94364643440103"><ele>554.0</ele><time>2026-04-19T15:22:45.998Z</time></trkpt><trkpt lat="42.20950813203539" lon="12.94353416990025"><ele>556.0</ele><time>2026-04-19T15:22:46.998Z</time></trkpt><trkpt lat="42.209565741243914" lon="12.94343497204694"><ele>558.0</ele><time>2026-04-19T15:22:47.998Z</time></trkpt><trkpt lat="42.20964241244588" lon="12.943364240802893"><ele>560.0</ele><time>2026-04-19T15:22:48.998Z</time></trkpt><trkpt lat="42.20973106046814" lon="12.943359180722895"><ele>560.0</ele><time>2026-04-19T15:22:49.998Z</time></trkpt><trkpt lat="42.20981864629156" lon="12.94334188679858"><ele>560.0</ele><time>2026-04-19T15:22:50.998Z</time></trkpt><trkpt lat="42.209907544717446" lon="12.943314391706796"><ele>560.0</ele><time>2026-04-19T15:22:51.998Z</time></trkpt><trkpt lat="42.20998706562787" lon="12.943301175637218"><ele>560.0</ele><time>2026-04-19T15:22:52.998Z</time></trkpt><trkpt lat="42.210065593828006" lon="12.943260170298363"><ele>560.0</ele><time>2026-04-19T15:22:53.998Z</time></trkpt><trkpt lat="42.21013582410443" lon="12.943195945934939"><ele>560.0</ele><time>2026-04-19T15:22:54.998Z</time></trkpt><trkpt lat="42.21019188577385" lon="12.943105306843593"><ele>560.0</ele><time>2026-04-19T15:22:55.998Z</time></trkpt><trkpt lat="42.210237742195126" lon="12.942997088932211"><ele>560.0</ele><time>2026-04-19T15:22:56.998Z</time></trkpt><trkpt lat="42.210280187796585" lon="12.94287795727539"><ele>560.0</ele><time>2026-04-19T15:22:57.998Z</time></trkpt><trkpt lat="42.210333278117865" lon="12.942763014614744"><ele>560.0</ele><time>2026-04-19T15:22:58.998Z</time></trkpt><trkpt lat="42.21039137155064" lon="12.942644823737155"><ele>560.0</ele><time>2026-04-19T15:22:59.997Z</time></trkpt><trkpt lat="42.21045228627689" lon="12.94252840430514"><ele>559.0</ele><time>2026-04-19T15:23:00.997Z</time></trkpt><trkpt lat="42.21052654803989" lon="12.94243341937222"><ele>558.0</ele><time>2026-04-19T15:23:01.997Z</time></trkpt><trkpt lat="42.2106135903582" lon="12.942363166134083"><ele>557.0</ele><time>2026-04-19T15:23:02.997Z</time></trkpt><trkpt lat="42.21071210533227" lon="12.942327612312058"><ele>556.0</ele><time>2026-04-19T15:23:03.997Z</time></trkpt><trkpt lat="42.21082222587559" lon="12.942319540890653"><ele>555.0</ele><time>2026-04-19T15:23:04.997Z</time></trkpt><trkpt lat="42.210931890647096" lon="12.942317136526576"><ele>555.0</ele><time>2026-04-19T15:23:05.997Z</time></trkpt><trkpt lat="42.21104114355588" lon="12.942309347595561"><ele>555.0</ele><time>2026-04-19T15:23:06.997Z</time></trkpt><trkpt lat="42.21115554363198" lon="12.9422995895604"><ele>555.0</ele><time>2026-04-19T15:23:07.997Z</time></trkpt><trkpt lat="42.21127809466604" lon="12.94228491495857"><ele>555.0</ele><time>2026-04-19T15:23:08.997Z</time></trkpt><trkpt lat="42.211395665053665" lon="12.942262180362698"><ele>554.0</ele><time>2026-04-19T15:23:09.997Z</time></trkpt><trkpt lat="42.211512458485394" lon="12.9422509241656"><ele>553.0</ele><time>2026-04-19T15:23:10.999Z</time></trkpt><trkpt lat="42.21161173527905" lon="12.942168474180853"><ele>552.0</ele><time>2026-04-19T15:23:12Z</time></trkpt><trkpt lat="42.21170733768748" lon="12.942080315196332"><ele>551.0</ele><time>2026-04-19T15:23:13Z</time></trkpt><trkpt lat="42.2117904481976" lon="12.941979602837685"><ele>551.0</ele><time>2026-04-19T15:23:14Z</time></trkpt><trkpt lat="42.21186449358276" lon="12.941868210818013"><ele>551.0</ele><time>2026-04-19T15:23:14.999Z</time></trkpt><trkpt lat="42.21194096832206" lon="12.941753365087994"><ele>551.0</ele><time>2026-04-19T15:23:15.999Z</time></trkpt><trkpt lat="42.21202411071357" lon="12.941659212792397"><ele>551.0</ele><time>2026-04-19T15:23:17Z</time></trkpt><trkpt lat="42.21211572367778" lon="12.941593371240982"><ele>551.0</ele><time>2026-04-19T15:23:17.999Z</time></trkpt><trkpt lat="42.21222213819257" lon="12.941561237519442"><ele>550.2</ele><time>2026-04-19T15:23:18.999Z</time></trkpt><trkpt lat="42.21232860882242" lon="12.941592429322757"><ele>549.4000000000001</ele><time>2026-04-19T15:23:20Z</time></trkpt><trkpt lat="42.212433282732356" lon="12.941617836793881"><ele>548.6</ele><time>2026-04-19T15:23:21Z</time></trkpt><trkpt lat="42.212525806096366" lon="12.941685067992458"><ele>547.8000000000001</ele><time>2026-04-19T15:23:22Z</time></trkpt><trkpt lat="42.212621772584605" lon="12.941752531035057"><ele>547.0</ele><time>2026-04-19T15:23:23Z</time></trkpt><trkpt lat="42.21271788156959" lon="12.941828508619576"><ele>547.0</ele><time>2026-04-19T15:23:24Z</time></trkpt><trkpt lat="42.21280292923917" lon="12.94192753736965"><ele>547.0</ele><time>2026-04-19T15:23:25Z</time></trkpt><trkpt lat="42.21290053520034" lon="12.942012667106974"><ele>547.0</ele><time>2026-04-19T15:23:26Z</time></trkpt><trkpt lat="42.212994167806066" lon="12.942102564405197"><ele>547.0</ele><time>2026-04-19T15:23:27Z</time></trkpt><trkpt lat="42.21309308858207" lon="12.942177065164339"><ele>548.75</ele><time>2026-04-19T15:23:28Z</time></trkpt><trkpt lat="42.213199495534724" lon="12.942244728098723"><ele>550.5</ele><time>2026-04-19T15:23:29Z</time></trkpt><trkpt lat="42.21330955358277" lon="12.942296647940077"><ele>552.25</ele><time>2026-04-19T15:23:30Z</time></trkpt><trkpt lat="42.213429410946894" lon="12.942326596192384"><ele>554.0</ele><time>2026-04-19T15:23:31Z</time></trkpt><trkpt lat="42.21355555773604" lon="12.942322053402991"><ele>554.0</ele><time>2026-04-19T15:23:32Z</time></trkpt><trkpt lat="42.213682517313465" lon="12.942286848425882"><ele>554.0</ele><time>2026-04-19T15:23:33Z</time></trkpt><trkpt lat="42.213805163314305" lon="12.942223956832782"><ele>554.0</ele><time>2026-04-19T15:23:34Z</time></trkpt><trkpt lat="42.21392365222606" lon="12.942148358813421"><ele>554.0</ele><time>2026-04-19T15:23:35Z</time></trkpt><trkpt lat="42.214051861217676" lon="12.942083984244668"><ele>552.75</ele><time>2026-04-19T15:23:36Z</time></trkpt><trkpt lat="42.2141817166942" lon="12.942043285718944"><ele>551.5</ele><time>2026-04-19T15:23:37Z</time></trkpt><trkpt lat="42.21431132044795" lon="12.942010446508995"><ele>550.25</ele><time>2026-04-19T15:23:38Z</time></trkpt><trkpt lat="42.214432091297915" lon="12.941984599476806"><ele>549.0</ele><time>2026-04-19T15:23:39Z</time></trkpt><trkpt lat="42.214544761261514" lon="12.941964565303172"><ele>549.0</ele><time>2026-04-19T15:23:40Z</time></trkpt><trkpt lat="42.21463444316801" lon="12.941915468796395"><ele>549.0</ele><time>2026-04-19T15:23:41Z</time></trkpt><trkpt lat="42.2147085500126" lon="12.941835517526574"><ele>549.0</ele><time>2026-04-19T15:23:42Z</time></trkpt><trkpt lat="42.214765078533084" lon="12.941733093264896"><ele>549.0</ele><time>2026-04-19T15:23:43Z</time></trkpt><trkpt lat="42.21480551113515" lon="12.941612530392858"><ele>549.0</ele><time>2026-04-19T15:23:44Z</time></trkpt><trkpt lat="42.2148334941637" lon="12.941482018852604"><ele>549.8</ele><time>2026-04-19T15:23:45Z</time></trkpt><trkpt lat="42.214842910423386" lon="12.941351134233669"><ele>550.5999999999999</ele><time>2026-04-19T15:23:46Z</time></trkpt><trkpt lat="42.21483302331712" lon="12.941220014003935"><ele>551.4</ele><time>2026-04-19T15:23:47Z</time></trkpt><trkpt lat="42.214804214277244" lon="12.941096489854472"><ele>552.1999999999999</ele><time>2026-04-19T15:23:48Z</time></trkpt><trkpt lat="42.21476230472894" lon="12.940976176808071"><ele>553.0</ele><time>2026-04-19T15:23:49Z</time></trkpt><trkpt lat="42.21471428197833" lon="12.940856579489761"><ele>560.4</ele><time>2026-04-19T15:23:50Z</time></trkpt><trkpt lat="42.214677250707645" lon="12.940726268865816"><ele>567.8</ele><time>2026-04-19T15:23:51Z</time></trkpt><trkpt lat="42.21465697457669" lon="12.940581972130932"><ele>575.2</ele><time>2026-04-19T15:23:51.999Z</time></trkpt><trkpt lat="42.2146445322195" lon="12.940434117705559"><ele>582.6</ele><time>2026-04-19T15:23:52.999Z</time></trkpt><trkpt lat="42.21463159100835" lon="12.94028904421097"><ele>590.0</ele><time>2026-04-19T15:23:53.999Z</time></trkpt><trkpt lat="42.21461770973698" lon="12.94014969199227"><ele>590.0</ele><time>2026-04-19T15:23:54.999Z</time></trkpt><trkpt lat="42.21459875802262" lon="12.940011001718878"><ele>590.0</ele><time>2026-04-19T15:23:55.999Z</time></trkpt><trkpt lat="42.21457062849241" lon="12.939881787968321"><ele>590.0</ele><time>2026-04-19T15:23:56.999Z</time></trkpt><trkpt lat="42.21453795742396" lon="12.93975708406862"><ele>590.0</ele><time>2026-04-19T15:23:57.999Z</time></trkpt><trkpt lat="42.21448947156871" lon="12.939650028997542"><ele>590.0</ele><time>2026-04-19T15:23:58.999Z</time></trkpt><trkpt lat="42.214428463072394" lon="12.93954775842651"><ele>590.0</ele><time>2026-04-19T15:23:59.999Z</time></trkpt><trkpt lat="42.214353649112724" lon="12.939455757327806"><ele>590.0</ele><time>2026-04-19T15:24:00.999Z</time></trkpt><trkpt lat="42.21426759192717" lon="12.93936848356789"><ele>590.0</ele><time>2026-04-19T15:24:01.999Z</time></trkpt><trkpt lat="42.21418140601607" lon="12.939280927451232"><ele>590.0</ele><time>2026-04-19T15:24:02.999Z</time></trkpt><trkpt lat="42.21408745070486" lon="12.939190228447547"><ele>590.0</ele><time>2026-04-19T15:24:03.999Z</time></trkpt><trkpt lat="42.21400145598609" lon="12.9390783962273"><ele>589.6</ele><time>2026-04-19T15:24:04.999Z</time></trkpt><trkpt lat="42.21390704035524" lon="12.938994812966463"><ele>589.2</ele><time>2026-04-19T15:24:05.999Z</time></trkpt><trkpt lat="42.21380390969653" lon="12.93895497973557"><ele>588.8</ele><time>2026-04-19T15:24:06.999Z</time></trkpt><trkpt lat="42.21370623582359" lon="12.938911641958567"><ele>588.4</ele><time>2026-04-19T15:24:07.999Z</time></trkpt><trkpt lat="42.21360486850135" lon="12.938886519516567"><ele>588.0</ele><time>2026-04-19T15:24:08.999Z</time></trkpt><trkpt lat="42.2135046236724" lon="12.938865505195585"><ele>588.0</ele><time>2026-04-19T15:24:09.999Z</time></trkpt><trkpt lat="42.21340402927057" lon="12.938841710314486"><ele>588.0</ele><time>2026-04-19T15:24:10.999Z</time></trkpt><trkpt lat="42.213312530088366" lon="12.938780568740992"><ele>588.0</ele><time>2026-04-19T15:24:11.999Z</time></trkpt><trkpt lat="42.21323737649774" lon="12.938704822518183"><ele>588.0</ele><time>2026-04-19T15:24:12.999Z</time></trkpt><trkpt lat="42.21316734263877" lon="12.938612125057665"><ele>588.0</ele><time>2026-04-19T15:24:13.999Z</time></trkpt><trkpt lat="42.21310426768947" lon="12.938513414533944"><ele>588.4</ele><time>2026-04-19T15:24:14.999Z</time></trkpt><trkpt lat="42.21304303156188" lon="12.938404283618839"><ele>588.8</ele><time>2026-04-19T15:24:15.999Z</time></trkpt><trkpt lat="42.21298244280505" lon="12.938297772159096"><ele>589.2</ele><time>2026-04-19T15:24:16.999Z</time></trkpt><trkpt lat="42.21296405909318" lon="12.938175391586176"><ele>589.6</ele><time>2026-04-19T15:24:17.999Z</time></trkpt><trkpt lat="42.212967713710555" lon="12.938059394555275"><ele>590.0</ele><time>2026-04-19T15:24:18.999Z</time></trkpt><trkpt lat="42.21300958683924" lon="12.93795644734317"><ele>590.0</ele><time>2026-04-19T15:24:19.999Z</time></trkpt><trkpt lat="42.21306858877521" lon="12.937873312892831"><ele>590.0</ele><time>2026-04-19T15:24:20.999Z</time></trkpt><trkpt lat="42.21313976585203" lon="12.937821085794338"><ele>590.0</ele><time>2026-04-19T15:24:21.999Z</time></trkpt><trkpt lat="42.21321982310373" lon="12.937804966871319"><ele>590.0</ele><time>2026-04-19T15:24:22.999Z</time></trkpt><trkpt lat="42.21329636919376" lon="12.937818677932095"><ele>590.0</ele><time>2026-04-19T15:24:23.999Z</time></trkpt><trkpt lat="42.21337642438079" lon="12.937821298101744"><ele>590.0</ele><time>2026-04-19T15:24:24.999Z</time></trkpt><trkpt lat="42.213460754589" lon="12.937833721356457"><ele>586.2</ele><time>2026-04-19T15:24:25.999Z</time></trkpt><trkpt lat="42.21355262950934" lon="12.937841579447907"><ele>582.4</ele><time>2026-04-19T15:24:26.999Z</time></trkpt><trkpt lat="42.213653465231545" lon="12.937843648570242"><ele>578.6</ele><time>2026-04-19T15:24:27.999Z</time></trkpt><trkpt lat="42.21376673119532" lon="12.937829898985605"><ele>574.8</ele><time>2026-04-19T15:24:28.999Z</time></trkpt><trkpt lat="42.21390585460029" lon="12.937846148571484"><ele>571.0</ele><time>2026-04-19T15:24:29.999Z</time></trkpt><trkpt lat="42.214075187099" lon="12.937861772403501"><ele>568.6666666666667</ele><time>2026-04-19T15:24:30.999Z</time></trkpt><trkpt lat="42.21424905007339" lon="12.937866637317605"><ele>566.3333333333334</ele><time>2026-04-19T15:24:31.999Z</time></trkpt><trkpt lat="42.21442901584203" lon="12.937851136443019"><ele>564.0</ele><time>2026-04-19T15:24:32.999Z</time></trkpt><trkpt lat="42.214600381105264" lon="12.93782929304584"><ele>564.0</ele><time>2026-04-19T15:24:33.999Z</time></trkpt><trkpt lat="42.21476076142122" lon="12.93780379177754"><ele>564.0</ele><time>2026-04-19T15:24:34.999Z</time></trkpt><trkpt lat="42.214907856195445" lon="12.937773513283217"><ele>564.0</ele><time>2026-04-19T15:24:35.999Z</time></trkpt><trkpt lat="42.21504187872498" lon="12.937729648451732"><ele>564.0</ele><time>2026-04-19T15:24:36.999Z</time></trkpt><trkpt lat="42.21515744644438" lon="12.937670580413688"><ele>565.25</ele><time>2026-04-19T15:24:37.999Z</time></trkpt><trkpt lat="42.21524781451946" lon="12.937585825528782"><ele>566.5</ele><time>2026-04-19T15:24:38.999Z</time></trkpt><trkpt lat="42.215328875967636" lon="12.937466726752332"><ele>567.75</ele><time>2026-04-19T15:24:39.999Z</time></trkpt><trkpt lat="42.215402443783944" lon="12.937353879141956"><ele>569.0</ele><time>2026-04-19T15:24:40.999Z</time></trkpt><trkpt lat="42.21548138633016" lon="12.93723800202834"><ele>570.3333333333333</ele><time>2026-04-19T15:24:41.999Z</time></trkpt><trkpt lat="42.21555711465455" lon="12.93718904947392"><ele>571.6666666666666</ele><time>2026-04-19T15:24:42.999Z</time></trkpt><trkpt lat="42.21562745947554" lon="12.937187492469059"><ele>573.0</ele><time>2026-04-19T15:24:43.999Z</time></trkpt><trkpt lat="42.215690446595815" lon="12.937231492823155"><ele>574.3333333333334</ele><time>2026-04-19T15:24:44.999Z</time></trkpt><trkpt lat="42.2157506467705" lon="12.937318958086912"><ele>575.6666666666667</ele><time>2026-04-19T15:24:45.999Z</time></trkpt><trkpt lat="42.215788278983936" lon="12.937428047992793"><ele>577.0</ele><time>2026-04-19T15:24:46.999Z</time></trkpt><trkpt lat="42.215821514705766" lon="12.937566562705234"><ele>577.0</ele><time>2026-04-19T15:24:47.999Z</time></trkpt><trkpt lat="42.215865356638304" lon="12.937716529215022"><ele>577.0</ele><time>2026-04-19T15:24:48.999Z</time></trkpt><trkpt lat="42.21591812587209" lon="12.937873716178876"><ele>577.0</ele><time>2026-04-19T15:24:49.999Z</time></trkpt><trkpt lat="42.215939861703006" lon="12.93803920551001"><ele>577.0</ele><time>2026-04-19T15:24:50.999Z</time></trkpt><trkpt lat="42.21595149037954" lon="12.938193621074458"><ele>577.0</ele><time>2026-04-19T15:24:51.999Z</time></trkpt><trkpt lat="42.21597222972438" lon="12.938340145466624"><ele>577.0</ele><time>2026-04-19T15:24:52.999Z</time></trkpt><trkpt lat="42.21602103621455" lon="12.938482975955354"><ele>577.0</ele><time>2026-04-19T15:24:53.999Z</time></trkpt><trkpt lat="42.216097311111476" lon="12.93861850467609"><ele>577.0</ele><time>2026-04-19T15:24:54.999Z</time></trkpt><trkpt lat="42.2161956670275" lon="12.938749276476559"><ele>575.25</ele><time>2026-04-19T15:24:55.999Z</time></trkpt><trkpt lat="42.2163039296703" lon="12.938870636133224"><ele>573.5</ele><time>2026-04-19T15:24:56.999Z</time></trkpt><trkpt lat="42.21643196893065" lon="12.938980802589176"><ele>571.75</ele><time>2026-04-19T15:24:57.999Z</time></trkpt><trkpt lat="42.216548546620245" lon="12.939116001455057"><ele>570.0</ele><time>2026-04-19T15:24:58.999Z</time></trkpt><trkpt lat="42.216671657098296" lon="12.939221103290674"><ele>570.0</ele><time>2026-04-19T15:24:59.999Z</time></trkpt><trkpt lat="42.21680537475343" lon="12.939313374636983"><ele>570.0</ele><time>2026-04-19T15:25:00.999Z</time></trkpt><trkpt lat="42.2169349028745" lon="12.939392425400293"><ele>570.0</ele><time>2026-04-19T15:25:01.999Z</time></trkpt><trkpt lat="42.217063211058296" lon="12.939490704583916"><ele>570.0</ele><time>2026-04-19T15:25:02.999Z</time></trkpt><trkpt lat="42.21717625193898" lon="12.939601475931637"><ele>570.0</ele><time>2026-04-19T15:25:03.999Z</time></trkpt><trkpt lat="42.2172907066792" lon="12.939688397486687"><ele>570.0</ele><time>2026-04-19T15:25:04.999Z</time></trkpt><trkpt lat="42.217411857306345" lon="12.939761805222926"><ele>570.0</ele><time>2026-04-19T15:25:05.998Z</time></trkpt><trkpt lat="42.21754775912622" lon="12.939784244535959"><ele>570.0</ele><time>2026-04-19T15:25:06.998Z</time></trkpt><trkpt lat="42.217683877233405" lon="12.939730802351649"><ele>573.75</ele><time>2026-04-19T15:25:07.998Z</time></trkpt><trkpt lat="42.21782455750372" lon="12.939713852484621"><ele>577.5</ele><time>2026-04-19T15:25:08.998Z</time></trkpt><trkpt lat="42.21796972139726" lon="12.939701452961751"><ele>581.25</ele><time>2026-04-19T15:25:09.998Z</time></trkpt><trkpt lat="42.218113879541235" lon="12.939713232515533"><ele>585.0</ele><time>2026-04-19T15:25:10.998Z</time></trkpt><trkpt lat="42.2182556711817" lon="12.939786441512927"><ele>585.3333333333334</ele><time>2026-04-19T15:25:11.998Z</time></trkpt><trkpt lat="42.21840272569695" lon="12.939824336036505"><ele>585.6666666666667</ele><time>2026-04-19T15:25:12.998Z</time></trkpt><trkpt lat="42.21855482362472" lon="12.939866635105282"><ele>586.0</ele><time>2026-04-19T15:25:13.998Z</time></trkpt><trkpt lat="42.218706413916834" lon="12.939913651301104"><ele>586.0</ele><time>2026-04-19T15:25:14.998Z</time></trkpt><trkpt lat="42.21885628976866" lon="12.93995905962682"><ele>586.0</ele><time>2026-04-19T15:25:15.998Z</time></trkpt><trkpt lat="42.218991545541265" lon="12.939990962493853"><ele>586.0</ele><time>2026-04-19T15:25:17Z</time></trkpt><trkpt lat="42.219125162738344" lon="12.939991947267282"><ele>586.0</ele><time>2026-04-19T15:25:18Z</time></trkpt><trkpt lat="42.21926003872469" lon="12.939926730338373"><ele>588.5</ele><time>2026-04-19T15:25:19Z</time></trkpt><trkpt lat="42.219374189787494" lon="12.93984179669594"><ele>591.0</ele><time>2026-04-19T15:25:20Z</time></trkpt><trkpt lat="42.21950884466913" lon="12.939797887090581"><ele>593.5</ele><time>2026-04-19T15:25:21Z</time></trkpt><trkpt lat="42.219653590837034" lon="12.939728020347845"><ele>596.0</ele><time>2026-04-19T15:25:22Z</time></trkpt><trkpt lat="42.21979470620628" lon="12.939644571929872"><ele>595.6666666666666</ele><time>2026-04-19T15:25:23Z</time></trkpt><trkpt lat="42.219951056012555" lon="12.939593569812628"><ele>595.3333333333334</ele><time>2026-04-19T15:25:24Z</time></trkpt><trkpt lat="42.220113104707785" lon="12.939583379043196"><ele>595.0</ele><time>2026-04-19T15:25:25Z</time></trkpt><trkpt lat="42.220269607339155" lon="12.939573529328158"><ele>595.0</ele><time>2026-04-19T15:25:26Z</time></trkpt><trkpt lat="42.22042332367951" lon="12.93953767113083"><ele>595.0</ele><time>2026-04-19T15:25:27Z</time></trkpt><trkpt lat="42.2205778609471" lon="12.939496218586818"><ele>595.0</ele><time>2026-04-19T15:25:28Z</time></trkpt><trkpt lat="42.2207182585274" lon="12.939453546855592"><ele>598.75</ele><time>2026-04-19T15:25:29Z</time></trkpt><trkpt lat="42.22084868614172" lon="12.939414648371004"><ele>602.5</ele><time>2026-04-19T15:25:30Z</time></trkpt><trkpt lat="42.22096137845722" lon="12.9393546493997"><ele>606.25</ele><time>2026-04-19T15:25:31Z</time></trkpt><trkpt lat="42.22105367614438" lon="12.939271913877084"><ele>610.0</ele><time>2026-04-19T15:25:32Z</time></trkpt><trkpt lat="42.221132689531196" lon="12.939172300737377"><ele>610.6</ele><time>2026-04-19T15:25:33Z</time></trkpt><trkpt lat="42.22120198087639" lon="12.939064391929346"><ele>611.2</ele><time>2026-04-19T15:25:34Z</time></trkpt><trkpt lat="42.22126005774166" lon="12.938956750942376"><ele>611.8</ele><time>2026-04-19T15:25:35Z</time></trkpt><trkpt lat="42.22131743392672" lon="12.938845028962017"><ele>612.4</ele><time>2026-04-19T15:25:36Z</time></trkpt><trkpt lat="42.22137629242592" lon="12.93873471519971"><ele>613.0</ele><time>2026-04-19T15:25:37Z</time></trkpt><trkpt lat="42.22143668824925" lon="12.938624776840252"><ele>612.8</ele><time>2026-04-19T15:25:38Z</time></trkpt><trkpt lat="42.22149484063123" lon="12.938513060857115"><ele>612.5999999999999</ele><time>2026-04-19T15:25:39Z</time></trkpt><trkpt lat="42.22154775402218" lon="12.938399925653938"><ele>612.4000000000001</ele><time>2026-04-19T15:25:40Z</time></trkpt><trkpt lat="42.22158861215449" lon="12.938278576199119"><ele>612.2</ele><time>2026-04-19T15:25:41Z</time></trkpt><trkpt lat="42.221628966951386" lon="12.938157888742863"><ele>612.0</ele><time>2026-04-19T15:25:42Z</time></trkpt><trkpt lat="42.22165056982165" lon="12.938022076374203"><ele>611.1666666666666</ele><time>2026-04-19T15:25:43Z</time></trkpt><trkpt lat="42.221655107718114" lon="12.937893207025198"><ele>610.3333333333334</ele><time>2026-04-19T15:25:44Z</time></trkpt><trkpt lat="42.22165541752101" lon="12.93777058510755"><ele>609.5</ele><time>2026-04-19T15:25:45Z</time></trkpt><trkpt lat="42.22166250397164" lon="12.93766276100979"><ele>608.6666666666667</ele><time>2026-04-19T15:25:46Z</time></trkpt><trkpt lat="42.22168303521297" lon="12.93757738652033"><ele>607.8333333333334</ele><time>2026-04-19T15:25:47Z</time></trkpt><trkpt lat="42.2217334004079" lon="12.937521849893693"><ele>607.0</ele><time>2026-04-19T15:25:48Z</time></trkpt><trkpt lat="42.22180675517838" lon="12.937492300103942"><ele>607.0</ele><time>2026-04-19T15:25:49Z</time></trkpt><trkpt lat="42.22188602907088" lon="12.937511371338315"><ele>607.0</ele><time>2026-04-19T15:25:50Z</time></trkpt><trkpt lat="42.221961597670315" lon="12.937557065021572"><ele>607.0</ele><time>2026-04-19T15:25:51Z</time></trkpt><trkpt lat="42.22203938893779" lon="12.937639866998442"><ele>607.0</ele><time>2026-04-19T15:25:52Z</time></trkpt><trkpt lat="42.222121997882894" lon="12.937739307547396"><ele>607.0</ele><time>2026-04-19T15:25:53Z</time></trkpt><trkpt lat="42.22221634278453" lon="12.937810515630417"><ele>605.4</ele><time>2026-04-19T15:25:54Z</time></trkpt><trkpt lat="42.22231762892387" lon="12.937867359304335"><ele>603.8000000000001</ele><time>2026-04-19T15:25:55Z</time></trkpt><trkpt lat="42.22242261648729" lon="12.937875266321234"><ele>602.2</ele><time>2026-04-19T15:25:56Z</time></trkpt><trkpt lat="42.22252557162721" lon="12.937840263360046"><ele>600.6</ele><time>2026-04-19T15:25:57Z</time></trkpt><trkpt lat="42.22261336199731" lon="12.937760840444037"><ele>599.0</ele><time>2026-04-19T15:25:58Z</time></trkpt><trkpt lat="42.222686359600345" lon="12.93767035048916"><ele>599.0</ele><time>2026-04-19T15:25:59Z</time></trkpt><trkpt lat="42.22274981817537" lon="12.937591709442893"><ele>599.0</ele><time>2026-04-19T15:26:00Z</time></trkpt><trkpt lat="42.222864643742575" lon="12.93757317485853"><ele>599.0</ele><time>2026-04-19T15:26:02Z</time></trkpt><trkpt lat="42.22291971655553" lon="12.937622586303492"><ele>599.0</ele><time>2026-04-19T15:26:03Z</time></trkpt><trkpt lat="42.222969020308355" lon="12.937689286085746"><ele>599.0</ele><time>2026-04-19T15:26:04Z</time></trkpt><trkpt lat="42.22298754839099" lon="12.93778038362075"><ele>599.0</ele><time>2026-04-19T15:26:05Z</time></trkpt><trkpt lat="42.22298071523389" lon="12.937902738689134"><ele>599.0</ele><time>2026-04-19T15:26:06Z</time></trkpt><trkpt lat="42.22298141486619" lon="12.938040021554674"><ele>599.0</ele><time>2026-04-19T15:26:07Z</time></trkpt><trkpt lat="42.22298240978974" lon="12.93818666570752"><ele>599.0</ele><time>2026-04-19T15:26:08Z</time></trkpt><trkpt lat="42.222985627400774" lon="12.93833726243142"><ele>599.0</ele><time>2026-04-19T15:26:09Z</time></trkpt><trkpt lat="42.222993190521464" lon="12.938481407050963"><ele>599.0</ele><time>2026-04-19T15:26:10Z</time></trkpt><trkpt lat="42.223020664917826" lon="12.938617031484004"><ele>598.5</ele><time>2026-04-19T15:26:11Z</time></trkpt><trkpt lat="42.22307690525749" lon="12.938744894927847"><ele>598.0</ele><time>2026-04-19T15:26:12Z</time></trkpt><trkpt lat="42.223154903984316" lon="12.93885052521308"><ele>597.5</ele><time>2026-04-19T15:26:13Z</time></trkpt><trkpt lat="42.22325002183566" lon="12.938936690295415"><ele>597.0</ele><time>2026-04-19T15:26:14Z</time></trkpt><trkpt lat="42.22335819087467" lon="12.939010904734"><ele>596.0</ele><time>2026-04-19T15:26:15Z</time></trkpt><trkpt lat="42.22347708140057" lon="12.939071549948263"><ele>595.0</ele><time>2026-04-19T15:26:16Z</time></trkpt><trkpt lat="42.22359115792864" lon="12.93915023170968"><ele>594.0</ele><time>2026-04-19T15:26:17Z</time></trkpt><trkpt lat="42.223720606774165" lon="12.939187271428866"><ele>593.0</ele><time>2026-04-19T15:26:18Z</time></trkpt><trkpt lat="42.22384505091474" lon="12.939258670431315"><ele>592.0</ele><time>2026-04-19T15:26:19Z</time></trkpt><trkpt lat="42.2239753240498" lon="12.939317921171783"><ele>591.0</ele><time>2026-04-19T15:26:20Z</time></trkpt><trkpt lat="42.22409607870347" lon="12.939397844974907"><ele>590.0</ele><time>2026-04-19T15:26:21Z</time></trkpt><trkpt lat="42.224212501959315" lon="12.939493448511934"><ele>589.0</ele><time>2026-04-19T15:26:22Z</time></trkpt><trkpt lat="42.22433397613456" lon="12.939581858599263"><ele>587.5</ele><time>2026-04-19T15:26:23Z</time></trkpt><trkpt lat="42.22445848070594" lon="12.939641700886858"><ele>586.0</ele><time>2026-04-19T15:26:24Z</time></trkpt><trkpt lat="42.224593915571475" lon="12.93968214976577"><ele>584.5</ele><time>2026-04-19T15:26:24.999Z</time></trkpt><trkpt lat="42.22472404423093" lon="12.93972434144828"><ele>583.0</ele><time>2026-04-19T15:26:25.999Z</time></trkpt><trkpt lat="42.22485440242949" lon="12.939768601742594"><ele>583.0</ele><time>2026-04-19T15:26:26.999Z</time></trkpt><trkpt lat="42.22498318784415" lon="12.939809409597615"><ele>583.0</ele><time>2026-04-19T15:26:27.999Z</time></trkpt><trkpt lat="42.22509647510503" lon="12.939838348595005"><ele>583.0</ele><time>2026-04-19T15:26:28.999Z</time></trkpt><trkpt lat="42.22519660937192" lon="12.939875723495033"><ele>583.0</ele><time>2026-04-19T15:26:29.999Z</time></trkpt><trkpt lat="42.22529265741924" lon="12.939930969915139"><ele>583.0</ele><time>2026-04-19T15:26:30.999Z</time></trkpt><trkpt lat="42.22536204189902" lon="12.940036528926491"><ele>583.0</ele><time>2026-04-19T15:26:31.999Z</time></trkpt><trkpt lat="42.225439203074416" lon="12.940147946227121"><ele>583.0</ele><time>2026-04-19T15:26:32.999Z</time></trkpt><trkpt lat="42.22553489185501" lon="12.940235943078468"><ele>583.0</ele><time>2026-04-19T15:26:33.999Z</time></trkpt><trkpt lat="42.22561322747003" lon="12.94034398531707"><ele>583.0</ele><time>2026-04-19T15:26:34.999Z</time></trkpt><trkpt lat="42.2256948697569" lon="12.940444007695444"><ele>580.75</ele><time>2026-04-19T15:26:35.999Z</time></trkpt><trkpt lat="42.22577076950529" lon="12.940558930747853"><ele>578.5</ele><time>2026-04-19T15:26:36.999Z</time></trkpt><trkpt lat="42.2258454124782" lon="12.94067590109218"><ele>576.25</ele><time>2026-04-19T15:26:37.999Z</time></trkpt><trkpt lat="42.22593887869349" lon="12.940776149206668"><ele>574.0</ele><time>2026-04-19T15:26:38.999Z</time></trkpt><trkpt lat="42.22604269463648" lon="12.940869464856274"><ele>570.75</ele><time>2026-04-19T15:26:39.999Z</time></trkpt><trkpt lat="42.22615551462584" lon="12.94095443515854"><ele>567.5</ele><time>2026-04-19T15:26:40.999Z</time></trkpt><trkpt lat="42.22628062506386" lon="12.94101993608381"><ele>564.25</ele><time>2026-04-19T15:26:41.999Z</time></trkpt><trkpt lat="42.2264133778162" lon="12.941068460659608"><ele>561.0</ele><time>2026-04-19T15:26:42.999Z</time></trkpt><trkpt lat="42.22655229792952" lon="12.941102667051036"><ele>561.0</ele><time>2026-04-19T15:26:43.999Z</time></trkpt><trkpt lat="42.226695660769" lon="12.941138088441544"><ele>561.0</ele><time>2026-04-19T15:26:44.999Z</time></trkpt><trkpt lat="42.22684236441285" lon="12.941181959607833"><ele>561.0</ele><time>2026-04-19T15:26:45.999Z</time></trkpt><trkpt lat="42.226986829025456" lon="12.941234765991222"><ele>561.0</ele><time>2026-04-19T15:26:46.999Z</time></trkpt><trkpt lat="42.22712296980785" lon="12.941279620178113"><ele>561.0</ele><time>2026-04-19T15:26:47.999Z</time></trkpt><trkpt lat="42.22723690393649" lon="12.941301873246605"><ele>561.0</ele><time>2026-04-19T15:26:48.999Z</time></trkpt><trkpt lat="42.22734710333419" lon="12.941324107242785"><ele>561.0</ele><time>2026-04-19T15:26:49.999Z</time></trkpt><trkpt lat="42.227453938287" lon="12.94126592749412"><ele>561.0</ele><time>2026-04-19T15:26:50.999Z</time></trkpt><trkpt lat="42.22755879924955" lon="12.941199062343141"><ele>559.25</ele><time>2026-04-19T15:26:51.999Z</time></trkpt><trkpt lat="42.22766242626295" lon="12.941111861153122"><ele>557.5</ele><time>2026-04-19T15:26:52.999Z</time></trkpt><trkpt lat="42.22775708326526" lon="12.941014637734538"><ele>555.75</ele><time>2026-04-19T15:26:53.999Z</time></trkpt><trkpt lat="42.227849735171795" lon="12.940895974221137"><ele>554.0</ele><time>2026-04-19T15:26:54.999Z</time></trkpt><trkpt lat="42.22794547877175" lon="12.940786804590646"><ele>554.8333333333333</ele><time>2026-04-19T15:26:55.999Z</time></trkpt><trkpt lat="42.228022185569955" lon="12.940710820450628"><ele>555.6666666666666</ele><time>2026-04-19T15:26:56.999Z</time></trkpt><trkpt lat="42.22808345543468" lon="12.94068381749695"><ele>556.5</ele><time>2026-04-19T15:26:57.999Z</time></trkpt><trkpt lat="42.22815506703077" lon="12.940691919045937"><ele>557.3333333333334</ele><time>2026-04-19T15:26:58.999Z</time></trkpt><trkpt lat="42.228233693056225" lon="12.940735304594542"><ele>558.1666666666667</ele><time>2026-04-19T15:26:59.999Z</time></trkpt><trkpt lat="42.22831220189813" lon="12.94079830315872"><ele>559.0</ele><time>2026-04-19T15:27:00.999Z</time></trkpt><trkpt lat="42.22840908227364" lon="12.940833466435796"><ele>559.0</ele><time>2026-04-19T15:27:01.999Z</time></trkpt><trkpt lat="42.228506198068494" lon="12.940841207275858"><ele>559.0</ele><time>2026-04-19T15:27:02.999Z</time></trkpt><trkpt lat="42.22859851511851" lon="12.940793979308207"><ele>559.0</ele><time>2026-04-19T15:27:03.999Z</time></trkpt><trkpt lat="42.228675530611355" lon="12.940734076511118"><ele>559.0</ele><time>2026-04-19T15:27:04.999Z</time></trkpt><trkpt lat="42.22872452421285" lon="12.940652339134115"><ele>559.0</ele><time>2026-04-19T15:27:05.999Z</time></trkpt><trkpt lat="42.228760362960486" lon="12.940538026058755"><ele>559.0</ele><time>2026-04-19T15:27:06.999Z</time></trkpt><trkpt lat="42.22880385778894" lon="12.940406793340351"><ele>559.0</ele><time>2026-04-19T15:27:07.999Z</time></trkpt><trkpt lat="42.228845670869006" lon="12.940263350985076"><ele>559.0</ele><time>2026-04-19T15:27:08.999Z</time></trkpt><trkpt lat="42.22888471523391" lon="12.940149434677332"><ele>559.0</ele><time>2026-04-19T15:27:09.999Z</time></trkpt><trkpt lat="42.22893498726949" lon="12.940073352793375"><ele>559.0</ele><time>2026-04-19T15:27:10.999Z</time></trkpt><trkpt lat="42.229005559936255" lon="12.940023805438745"><ele>557.6666666666667</ele><time>2026-04-19T15:27:11.999Z</time></trkpt><trkpt lat="42.22907830919835" lon="12.940006417978214"><ele>556.3333333333334</ele><time>2026-04-19T15:27:12.999Z</time></trkpt><trkpt lat="42.22914662359965" lon="12.940015156063602"><ele>555.0</ele><time>2026-04-19T15:27:13.999Z</time></trkpt><trkpt lat="42.22920435568824" lon="12.940058230663702"><ele>553.6666666666666</ele><time>2026-04-19T15:27:14.999Z</time></trkpt><trkpt lat="42.22924502358491" lon="12.940158793559775"><ele>552.3333333333333</ele><time>2026-04-19T15:27:15.999Z</time></trkpt><trkpt lat="42.2292795535937" lon="12.9402503076024"><ele>551.0</ele><time>2026-04-19T15:27:16.999Z</time></trkpt><trkpt lat="42.22930271638711" lon="12.94035529098751"><ele>551.0</ele><time>2026-04-19T15:27:17.999Z</time></trkpt><trkpt lat="42.22932852955258" lon="12.940484999668666"><ele>551.0</ele><time>2026-04-19T15:27:18.999Z</time></trkpt><trkpt lat="42.22935278381094" lon="12.940619049111385"><ele>551.0</ele><time>2026-04-19T15:27:19.999Z</time></trkpt><trkpt lat="42.22938386094266" lon="12.940748249697444"><ele>551.0</ele><time>2026-04-19T15:27:20.999Z</time></trkpt><trkpt lat="42.229419756091694" lon="12.94087342057752"><ele>551.0</ele><time>2026-04-19T15:27:21.999Z</time></trkpt><trkpt lat="42.22945780031396" lon="12.94099811417599"><ele>548.8</ele><time>2026-04-19T15:27:23.001Z</time></trkpt><trkpt lat="42.229497834562586" lon="12.941125873185008"><ele>546.6</ele><time>2026-04-19T15:27:24.001Z</time></trkpt><trkpt lat="42.229543038719164" lon="12.941262648337494"><ele>544.4</ele><time>2026-04-19T15:27:25.001Z</time></trkpt><trkpt lat="42.229597067021466" lon="12.941390182332519"><ele>542.2</ele><time>2026-04-19T15:27:26.001Z</time></trkpt><trkpt lat="42.22968568147323" lon="12.941491450881507"><ele>540.0</ele><time>2026-04-19T15:27:27.001Z</time></trkpt><trkpt lat="42.229776336546486" lon="12.941589529215209"><ele>539.5</ele><time>2026-04-19T15:27:28.001Z</time></trkpt><trkpt lat="42.2298777680683" lon="12.941676338185673"><ele>539.0</ele><time>2026-04-19T15:27:29.001Z</time></trkpt><trkpt lat="42.22998628797133" lon="12.941746972111066"><ele>538.5</ele><time>2026-04-19T15:27:30.001Z</time></trkpt><trkpt lat="42.230100909735306" lon="12.941794490326897"><ele>538.0</ele><time>2026-04-19T15:27:31.001Z</time></trkpt><trkpt lat="42.23022218862015" lon="12.941818277915596"><ele>538.0</ele><time>2026-04-19T15:27:32Z</time></trkpt><trkpt lat="42.230336631860744" lon="12.941830976619507"><ele>538.0</ele><time>2026-04-19T15:27:33.001Z</time></trkpt><trkpt lat="42.23044754516255" lon="12.94182621657511"><ele>538.0</ele><time>2026-04-19T15:27:34.001Z</time></trkpt><trkpt lat="42.23054529546734" lon="12.94179351811496"><ele>538.0</ele><time>2026-04-19T15:27:35.001Z</time></trkpt><trkpt lat="42.23063078377984" lon="12.941730976070975"><ele>538.0</ele><time>2026-04-19T15:27:36.001Z</time></trkpt><trkpt lat="42.23071561478689" lon="12.941638220756838"><ele>540.6</ele><time>2026-04-19T15:27:37.001Z</time></trkpt><trkpt lat="42.23078403799734" lon="12.941536643879141"><ele>543.1999999999999</ele><time>2026-04-19T15:27:38.001Z</time></trkpt><trkpt lat="42.230843751664324" lon="12.941423168538053"><ele>545.8</ele><time>2026-04-19T15:27:39.001Z</time></trkpt><trkpt lat="42.23090135216554" lon="12.941288731639492"><ele>548.4</ele><time>2026-04-19T15:27:40.001Z</time></trkpt><trkpt lat="42.23096282866537" lon="12.941152430064399"><ele>551.0</ele><time>2026-04-19T15:27:41.001Z</time></trkpt><trkpt lat="42.231038362815724" lon="12.941029736888167"><ele>551.0</ele><time>2026-04-19T15:27:42.001Z</time></trkpt><trkpt lat="42.231123589304374" lon="12.940928172668054"><ele>551.0</ele><time>2026-04-19T15:27:43.001Z</time></trkpt><trkpt lat="42.23120486031619" lon="12.940837095171233"><ele>551.0</ele><time>2026-04-19T15:27:44.001Z</time></trkpt><trkpt lat="42.231285332147465" lon="12.940735229580728"><ele>551.0</ele><time>2026-04-19T15:27:45.001Z</time></trkpt><trkpt lat="42.23135861612438" lon="12.94061338321244"><ele>551.0</ele><time>2026-04-19T15:27:46.001Z</time></trkpt><trkpt lat="42.231418815530645" lon="12.940476667818979"><ele>549.4</ele><time>2026-04-19T15:27:47.001Z</time></trkpt><trkpt lat="42.23147107122696" lon="12.940345383199455"><ele>547.8</ele><time>2026-04-19T15:27:48.001Z</time></trkpt><trkpt lat="42.231520974680585" lon="12.940246760471183"><ele>546.1999999999999</ele><time>2026-04-19T15:27:49.001Z</time></trkpt><trkpt lat="42.23157809816775" lon="12.940185352878906"><ele>544.6</ele><time>2026-04-19T15:27:50.001Z</time></trkpt><trkpt lat="42.23164051608432" lon="12.940155093937413"><ele>543.0</ele><time>2026-04-19T15:27:51.001Z</time></trkpt><trkpt lat="42.23175954018809" lon="12.940130953480848"><ele>543.0</ele><time>2026-04-19T15:27:53.001Z</time></trkpt><trkpt lat="42.23183263762267" lon="12.940117007110487"><ele>543.0</ele><time>2026-04-19T15:27:56.001Z</time></trkpt><trkpt lat="42.231906191096655" lon="12.940037031277376"><ele>543.0</ele><time>2026-04-19T15:28:11Z</time></trkpt><trkpt lat="42.231975144253944" lon="12.939982287452358"><ele>543.0</ele><time>2026-04-19T15:28:13Z</time></trkpt><trkpt lat="42.232065122849384" lon="12.939947621210324"><ele>543.0</ele><time>2026-04-19T15:28:15Z</time></trkpt><trkpt lat="42.232125802524514" lon="12.93991998873109"><ele>543.0</ele><time>2026-04-19T15:28:16Z</time></trkpt><trkpt lat="42.23218845195864" lon="12.93989344623283"><ele>540.5</ele><time>2026-04-19T15:28:17Z</time></trkpt><trkpt lat="42.232254779700455" lon="12.939856660370731"><ele>538.0</ele><time>2026-04-19T15:28:18Z</time></trkpt><trkpt lat="42.2323185940184" lon="12.93981720457429"><ele>535.5</ele><time>2026-04-19T15:28:19Z</time></trkpt><trkpt lat="42.23238667060166" lon="12.939781502836405"><ele>533.0</ele><time>2026-04-19T15:28:20Z</time></trkpt><trkpt lat="42.23246672463265" lon="12.939728078207562"><ele>530.5</ele><time>2026-04-19T15:28:21Z</time></trkpt><trkpt lat="42.23255884868945" lon="12.939658349039158"><ele>528.0</ele><time>2026-04-19T15:28:22Z</time></trkpt><trkpt lat="42.23264904019528" lon="12.939566757935207"><ele>528.0</ele><time>2026-04-19T15:28:23Z</time></trkpt><trkpt lat="42.23275237518964" lon="12.939455292438076"><ele>528.0</ele><time>2026-04-19T15:28:24Z</time></trkpt><trkpt lat="42.232831352674005" lon="12.939331595885887"><ele>528.0</ele><time>2026-04-19T15:28:25Z</time></trkpt><trkpt lat="42.23294506433893" lon="12.939275544943557"><ele>528.0</ele><time>2026-04-19T15:28:26Z</time></trkpt><trkpt lat="42.233050870946656" lon="12.939203833926763"><ele>525.75</ele><time>2026-04-19T15:28:27Z</time></trkpt><trkpt lat="42.23315475991763" lon="12.939115739118943"><ele>523.5</ele><time>2026-04-19T15:28:28Z</time></trkpt><trkpt lat="42.23325288055821" lon="12.938999599793977"><ele>521.25</ele><time>2026-04-19T15:28:29Z</time></trkpt><trkpt lat="42.23333619924724" lon="12.938866156125272"><ele>519.0</ele><time>2026-04-19T15:28:30Z</time></trkpt><trkpt lat="42.23340192715277" lon="12.93870781776166"><ele>519.0</ele><time>2026-04-19T15:28:31Z</time></trkpt><trkpt lat="42.23344383907452" lon="12.938533471348892"><ele>519.0</ele><time>2026-04-19T15:28:32Z</time></trkpt><trkpt lat="42.23352483834467" lon="12.938390950810788"><ele>519.0</ele><time>2026-04-19T15:28:33Z</time></trkpt><trkpt lat="42.233612139998336" lon="12.938249204837454"><ele>519.0</ele><time>2026-04-19T15:28:34Z</time></trkpt><trkpt lat="42.23369205901367" lon="12.938086072251513"><ele>519.5</ele><time>2026-04-19T15:28:35Z</time></trkpt><trkpt lat="42.233756983585735" lon="12.937921624502168"><ele>520.0</ele><time>2026-04-19T15:28:36Z</time></trkpt><trkpt lat="42.23384222409733" lon="12.937775569595203"><ele>520.5</ele><time>2026-04-19T15:28:37Z</time></trkpt><trkpt lat="42.23393492861175" lon="12.937635522455139"><ele>521.0</ele><time>2026-04-19T15:28:38Z</time></trkpt><trkpt lat="42.234052060759694" lon="12.93752147958422"><ele>521.0</ele><time>2026-04-19T15:28:39Z</time></trkpt><trkpt lat="42.23416996695653" lon="12.937383370642062"><ele>521.0</ele><time>2026-04-19T15:28:40Z</time></trkpt><trkpt lat="42.23429028858776" lon="12.937241750630154"><ele>521.0</ele><time>2026-04-19T15:28:41Z</time></trkpt><trkpt lat="42.234413928036965" lon="12.937091675774024"><ele>521.0</ele><time>2026-04-19T15:28:42Z</time></trkpt><trkpt lat="42.23452390306603" lon="12.93692503231777"><ele>521.0</ele><time>2026-04-19T15:28:43Z</time></trkpt><trkpt lat="42.234634096057356" lon="12.936778832514273"><ele>521.0</ele><time>2026-04-19T15:28:44Z</time></trkpt><trkpt lat="42.23475035885608" lon="12.936627701043486"><ele>520.3333333333333</ele><time>2026-04-19T15:28:45Z</time></trkpt><trkpt lat="42.23487370457718" lon="12.936488253711632"><ele>519.6666666666666</ele><time>2026-04-19T15:28:46Z</time></trkpt><trkpt lat="42.23501734621198" lon="12.936359121996606"><ele>519.0</ele><time>2026-04-19T15:28:47Z</time></trkpt><trkpt lat="42.23516379234047" lon="12.936241430071803"><ele>519.0</ele><time>2026-04-19T15:28:48Z</time></trkpt><trkpt lat="42.23532227916814" lon="12.936131183551632"><ele>519.0</ele><time>2026-04-19T15:28:49Z</time></trkpt><trkpt lat="42.23547041698371" lon="12.936006801558593"><ele>519.0</ele><time>2026-04-19T15:28:50Z</time></trkpt><trkpt lat="42.235615616158654" lon="12.935884809385092"><ele>522.0</ele><time>2026-04-19T15:28:51Z</time></trkpt><trkpt lat="42.235753390794414" lon="12.93578280342623"><ele>525.0</ele><time>2026-04-19T15:28:52Z</time></trkpt><trkpt lat="42.235889984461814" lon="12.935700942561287"><ele>528.0</ele><time>2026-04-19T15:28:53Z</time></trkpt><trkpt lat="42.2360283990133" lon="12.93563576267869"><ele>528.0</ele><time>2026-04-19T15:28:54Z</time></trkpt><trkpt lat="42.236174610017365" lon="12.935593811291163"><ele>528.0</ele><time>2026-04-19T15:28:55Z</time></trkpt><trkpt lat="42.236323573106944" lon="12.935514733555296"><ele>528.0</ele><time>2026-04-19T15:28:56Z</time></trkpt><trkpt lat="42.23646698494045" lon="12.935436938774142"><ele>518.6666666666666</ele><time>2026-04-19T15:28:57Z</time></trkpt><trkpt lat="42.23661962289367" lon="12.935366716070646"><ele>509.3333333333333</ele><time>2026-04-19T15:28:58Z</time></trkpt><trkpt lat="42.236774774443674" lon="12.935297544413473"><ele>500.0</ele><time>2026-04-19T15:28:59Z</time></trkpt><trkpt lat="42.23692165189081" lon="12.935228394235706"><ele>500.0</ele><time>2026-04-19T15:29:00Z</time></trkpt><trkpt lat="42.237069127612344" lon="12.935173117048091"><ele>500.0</ele><time>2026-04-19T15:29:01Z</time></trkpt><trkpt lat="42.237203162840665" lon="12.935113311131317"><ele>500.0</ele><time>2026-04-19T15:29:02Z</time></trkpt><trkpt lat="42.23733305158418" lon="12.935065242409943"><ele>500.0</ele><time>2026-04-19T15:29:03Z</time></trkpt><trkpt lat="42.23745819543909" lon="12.935016635216881"><ele>506.75</ele><time>2026-04-19T15:29:04Z</time></trkpt><trkpt lat="42.23757365534397" lon="12.934963341736637"><ele>513.5</ele><time>2026-04-19T15:29:05Z</time></trkpt><trkpt lat="42.237672344543576" lon="12.934899171103496"><ele>520.25</ele><time>2026-04-19T15:29:06Z</time></trkpt><trkpt lat="42.23775847938184" lon="12.934801906401436"><ele>527.0</ele><time>2026-04-19T15:29:07Z</time></trkpt><trkpt lat="42.23782242604794" lon="12.93467114151182"><ele>527.0</ele><time>2026-04-19T15:29:08Z</time></trkpt><trkpt lat="42.23788040631606" lon="12.934532856454409"><ele>527.0</ele><time>2026-04-19T15:29:09Z</time></trkpt><trkpt lat="42.237948365345595" lon="12.934412231481478"><ele>527.0</ele><time>2026-04-19T15:29:10Z</time></trkpt><trkpt lat="42.23803321839459" lon="12.934366184028363"><ele>527.0</ele><time>2026-04-19T15:29:11Z</time></trkpt><trkpt lat="42.23812740817558" lon="12.934336196172916"><ele>527.0</ele><time>2026-04-19T15:29:12Z</time></trkpt><trkpt lat="42.2382338600811" lon="12.934304302568613"><ele>529.25</ele><time>2026-04-19T15:29:13Z</time></trkpt><trkpt lat="42.23834994880665" lon="12.93425982018243"><ele>531.5</ele><time>2026-04-19T15:29:14Z</time></trkpt><trkpt lat="42.238448273839275" lon="12.934190238823858"><ele>533.75</ele><time>2026-04-19T15:29:15Z</time></trkpt><trkpt lat="42.23852615871855" lon="12.9340908236122"><ele>536.0</ele><time>2026-04-19T15:29:16Z</time></trkpt><trkpt lat="42.23858099893988" lon="12.933956053324511"><ele>536.0</ele><time>2026-04-19T15:29:17Z</time></trkpt><trkpt lat="42.23860575780786" lon="12.933805271940509"><ele>536.0</ele><time>2026-04-19T15:29:18Z</time></trkpt><trkpt lat="42.23863755290891" lon="12.9336561768275"><ele>536.0</ele><time>2026-04-19T15:29:19Z</time></trkpt><trkpt lat="42.23868181169892" lon="12.933511012702672"><ele>536.0</ele><time>2026-04-19T15:29:20Z</time></trkpt><trkpt lat="42.2387190005381" lon="12.9333603435048"><ele>541.4</ele><time>2026-04-19T15:29:21Z</time></trkpt><trkpt lat="42.238758102607534" lon="12.933217406896823"><ele>546.8</ele><time>2026-04-19T15:29:22Z</time></trkpt><trkpt lat="42.23879170578811" lon="12.93307919827846"><ele>552.1999999999999</ele><time>2026-04-19T15:29:23Z</time></trkpt><trkpt lat="42.238819891908946" lon="12.932937308714612"><ele>557.6</ele><time>2026-04-19T15:29:24Z</time></trkpt><trkpt lat="42.23884983442909" lon="12.932791186555317"><ele>563.0</ele><time>2026-04-19T15:29:24.999Z</time></trkpt><trkpt lat="42.23886516562797" lon="12.932631729588428"><ele>567.5</ele><time>2026-04-19T15:29:25.999Z</time></trkpt><trkpt lat="42.23885248894926" lon="12.932462767754734"><ele>572.0</ele><time>2026-04-19T15:29:26.999Z</time></trkpt><trkpt lat="42.23883996690769" lon="12.932297833361275"><ele>576.5</ele><time>2026-04-19T15:29:27.999Z</time></trkpt><trkpt lat="42.23882747303679" lon="12.932143616819012"><ele>581.0</ele><time>2026-04-19T15:29:29.001Z</time></trkpt><trkpt lat="42.238809527374094" lon="12.932001371965642"><ele>581.0</ele><time>2026-04-19T15:29:30.002Z</time></trkpt><trkpt lat="42.23879787466438" lon="12.931880636838613"><ele>581.0</ele><time>2026-04-19T15:29:31.002Z</time></trkpt><trkpt lat="42.23879775883551" lon="12.93178345914581"><ele>581.0</ele><time>2026-04-19T15:29:32.001Z</time></trkpt><trkpt lat="42.23886283746333" lon="12.931639640044"><ele>581.0</ele><time>2026-04-19T15:29:34.002Z</time></trkpt><trkpt lat="42.23892459656271" lon="12.931620642375428"><ele>581.0</ele><time>2026-04-19T15:29:35.001Z</time></trkpt><trkpt lat="42.23899516244506" lon="12.931626717626646"><ele>581.0</ele><time>2026-04-19T15:29:36.001Z</time></trkpt><trkpt lat="42.239080196563805" lon="12.931667492401788"><ele>575.6</ele><time>2026-04-19T15:29:37.001Z</time></trkpt><trkpt lat="42.239167190295255" lon="12.9317152793054"><ele>570.2</ele><time>2026-04-19T15:29:38.002Z</time></trkpt><trkpt lat="42.2392567945605" lon="12.931756514894118"><ele>564.8</ele><time>2026-04-19T15:29:39.001Z</time></trkpt><trkpt lat="42.23935466884571" lon="12.931762442788266"><ele>559.4</ele><time>2026-04-19T15:29:40.001Z</time></trkpt><trkpt lat="42.23944286577409" lon="12.931729609353386"><ele>554.0</ele><time>2026-04-19T15:29:41.001Z</time></trkpt><trkpt lat="42.23952179814928" lon="12.931664088312557"><ele>554.0</ele><time>2026-04-19T15:29:42.001Z</time></trkpt><trkpt lat="42.23958922473165" lon="12.93156377643072"><ele>554.0</ele><time>2026-04-19T15:29:43.001Z</time></trkpt><trkpt lat="42.239648422126244" lon="12.93145180742812"><ele>554.0</ele><time>2026-04-19T15:29:44.001Z</time></trkpt><trkpt lat="42.23969837907569" lon="12.93132431130946"><ele>554.0</ele><time>2026-04-19T15:29:45.001Z</time></trkpt><trkpt lat="42.239740171500166" lon="12.931185009051777"><ele>554.0</ele><time>2026-04-19T15:29:46.001Z</time></trkpt><trkpt lat="42.23977778742328" lon="12.931042658983992"><ele>554.0</ele><time>2026-04-19T15:29:47.001Z</time></trkpt><trkpt lat="42.239815472861736" lon="12.930919159873037"><ele>554.0</ele><time>2026-04-19T15:29:48.001Z</time></trkpt><trkpt lat="42.239849491633564" lon="12.930815711539354"><ele>554.0</ele><time>2026-04-19T15:29:49.001Z</time></trkpt><trkpt lat="42.23990097863712" lon="12.93074758481222"><ele>554.0</ele><time>2026-04-19T15:29:50.001Z</time></trkpt><trkpt lat="42.2400200541206" lon="12.930700662937891"><ele>554.0</ele><time>2026-04-19T15:29:52.001Z</time></trkpt><trkpt lat="42.240096131286776" lon="12.930721965788303"><ele>554.0</ele><time>2026-04-19T15:29:53.001Z</time></trkpt><trkpt lat="42.240164349929024" lon="12.930754388421832"><ele>554.0</ele><time>2026-04-19T15:29:54.001Z</time></trkpt><trkpt lat="42.24021864754551" lon="12.930802694593146"><ele>554.0</ele><time>2026-04-19T15:29:55.001Z</time></trkpt><trkpt lat="42.24025734044146" lon="12.930959854081934"><ele>554.0</ele><time>2026-04-19T15:29:57.001Z</time></trkpt><trkpt lat="42.24025616058137" lon="12.931059924857834"><ele>554.0</ele><time>2026-04-19T15:29:58.001Z</time></trkpt><trkpt lat="42.24025341967961" lon="12.931159037528271"><ele>554.0</ele><time>2026-04-19T15:29:59.001Z</time></trkpt><trkpt lat="42.24024896451255" lon="12.93126685629789"><ele>554.0</ele><time>2026-04-19T15:30:00.001Z</time></trkpt><trkpt lat="42.24024741005727" lon="12.931376091490426"><ele>554.0</ele><time>2026-04-19T15:30:01.001Z</time></trkpt><trkpt lat="42.24025292330377" lon="12.931473587309076"><ele>554.0</ele><time>2026-04-19T15:30:02.001Z</time></trkpt><trkpt lat="42.24025170964611" lon="12.931565571764406"><ele>554.0</ele><time>2026-04-19T15:30:03.001Z</time></trkpt><trkpt lat="42.24029292874591" lon="12.931635751501933"><ele>554.0</ele><time>2026-04-19T15:30:04.001Z</time></trkpt><trkpt lat="42.240382158449805" lon="12.9317286742145"><ele>554.0</ele><time>2026-04-19T15:30:06.001Z</time></trkpt><trkpt lat="42.240494053466506" lon="12.931640314118358"><ele>554.0</ele><time>2026-04-19T15:30:07.001Z</time></trkpt><trkpt lat="42.240539399960205" lon="12.931543478047397"><ele>554.0</ele><time>2026-04-19T15:30:08.001Z</time></trkpt><trkpt lat="42.24057484978423" lon="12.931443486468421"><ele>554.0</ele><time>2026-04-19T15:30:09.001Z</time></trkpt><trkpt lat="42.2406181290084" lon="12.931342358606749"><ele>554.0</ele><time>2026-04-19T15:30:10.001Z</time></trkpt><trkpt lat="42.240672253923215" lon="12.931232523427562"><ele>554.0</ele><time>2026-04-19T15:30:11.001Z</time></trkpt><trkpt lat="42.24073861806264" lon="12.931134508773729"><ele>554.0</ele><time>2026-04-19T15:30:12.001Z</time></trkpt><trkpt lat="42.2408261698499" lon="12.931064273849572"><ele>553.2</ele><time>2026-04-19T15:30:13.001Z</time></trkpt><trkpt lat="42.24092642852782" lon="12.931025785097878"><ele>552.4</ele><time>2026-04-19T15:30:14.001Z</time></trkpt><trkpt lat="42.24103104390298" lon="12.93098380114449"><ele>551.6</ele><time>2026-04-19T15:30:15.001Z</time></trkpt><trkpt lat="42.24114655355958" lon="12.930961909314021"><ele>550.8</ele><time>2026-04-19T15:30:16.001Z</time></trkpt><trkpt lat="42.24125889735762" lon="12.930919524106757"><ele>550.0</ele><time>2026-04-19T15:30:17.001Z</time></trkpt><trkpt lat="42.241367883903244" lon="12.9308740277534"><ele>553.0</ele><time>2026-04-19T15:30:18.001Z</time></trkpt><trkpt lat="42.241475969386975" lon="12.930819219773786"><ele>556.0</ele><time>2026-04-19T15:30:19.001Z</time></trkpt><trkpt lat="42.241579356902136" lon="12.930749412171904"><ele>559.0</ele><time>2026-04-19T15:30:20.001Z</time></trkpt><trkpt lat="42.24168106362399" lon="12.930666864113507"><ele>562.0</ele><time>2026-04-19T15:30:21.001Z</time></trkpt><trkpt lat="42.24178011487121" lon="12.930588885069085"><ele>562.0</ele><time>2026-04-19T15:30:22.001Z</time></trkpt><trkpt lat="42.24187437036711" lon="12.93050224870616"><ele>562.0</ele><time>2026-04-19T15:30:23.001Z</time></trkpt><trkpt lat="42.24196411211068" lon="12.93041828335483"><ele>562.0</ele><time>2026-04-19T15:30:24.001Z</time></trkpt><trkpt lat="42.24205296848895" lon="12.930325914147003"><ele>562.0</ele><time>2026-04-19T15:30:25.001Z</time></trkpt><trkpt lat="42.24213239253436" lon="12.930228945511084"><ele>562.0</ele><time>2026-04-19T15:30:26.001Z</time></trkpt><trkpt lat="42.242225262132216" lon="12.93013530431881"><ele>565.25</ele><time>2026-04-19T15:30:27.001Z</time></trkpt><trkpt lat="42.242313393196476" lon="12.930030015026984"><ele>568.5</ele><time>2026-04-19T15:30:28.001Z</time></trkpt><trkpt lat="42.242409144416406" lon="12.929937208071918"><ele>571.75</ele><time>2026-04-19T15:30:29.001Z</time></trkpt><trkpt lat="42.24251773622954" lon="12.92985778618729"><ele>575.0</ele><time>2026-04-19T15:30:30.001Z</time></trkpt><trkpt lat="42.24262695619172" lon="12.929795913399806"><ele>575.0</ele><time>2026-04-19T15:30:31.001Z</time></trkpt><trkpt lat="42.242730073379974" lon="12.929722713404228"><ele>575.0</ele><time>2026-04-19T15:30:32.001Z</time></trkpt><trkpt lat="42.24281954472518" lon="12.92962362084945"><ele>575.0</ele><time>2026-04-19T15:30:33.001Z</time></trkpt><trkpt lat="42.242897040373734" lon="12.929515366970005"><ele>575.0</ele><time>2026-04-19T15:30:34.001Z</time></trkpt><trkpt lat="42.242974223326165" lon="12.92942181275395"><ele>575.0</ele><time>2026-04-19T15:30:35.001Z</time></trkpt><trkpt lat="42.24306801198049" lon="12.929365224387293"><ele>574.0</ele><time>2026-04-19T15:30:36.001Z</time></trkpt><trkpt lat="42.24315669613496" lon="12.92936223738753"><ele>573.0</ele><time>2026-04-19T15:30:37.001Z</time></trkpt><trkpt lat="42.243245783379905" lon="12.929419019729615"><ele>572.0</ele><time>2026-04-19T15:30:38.001Z</time></trkpt><trkpt lat="42.24333655515198" lon="12.929498132895494"><ele>571.0</ele><time>2026-04-19T15:30:39.001Z</time></trkpt><trkpt lat="42.24342413095477" lon="12.929588947381948"><ele>570.0</ele><time>2026-04-19T15:30:40.001Z</time></trkpt><trkpt lat="42.24352609926081" lon="12.929660702998088"><ele>570.0</ele><time>2026-04-19T15:30:41.001Z</time></trkpt><trkpt lat="42.24364636329944" lon="12.929698295830395"><ele>570.0</ele><time>2026-04-19T15:30:42.001Z</time></trkpt><trkpt lat="42.24377702138241" lon="12.929709984640372"><ele>570.0</ele><time>2026-04-19T15:30:43.001Z</time></trkpt><trkpt lat="42.24391632708156" lon="12.929725566798549"><ele>570.0</ele><time>2026-04-19T15:30:44.001Z</time></trkpt><trkpt lat="42.24405251201787" lon="12.929738413083319"><ele>572.75</ele><time>2026-04-19T15:30:45.001Z</time></trkpt><trkpt lat="42.244191930126085" lon="12.929751766130872"><ele>575.5</ele><time>2026-04-19T15:30:46.001Z</time></trkpt><trkpt lat="42.244315004367735" lon="12.929761885660533"><ele>578.25</ele><time>2026-04-19T15:30:47.001Z</time></trkpt><trkpt lat="42.24443062432681" lon="12.929767761419598"><ele>581.0</ele><time>2026-04-19T15:30:48.001Z</time></trkpt><trkpt lat="42.244546263098776" lon="12.929755000045102"><ele>581.0</ele><time>2026-04-19T15:30:49.001Z</time></trkpt><trkpt lat="42.24463310393463" lon="12.92970727761316"><ele>581.0</ele><time>2026-04-19T15:30:50.001Z</time></trkpt><trkpt lat="42.24470088812284" lon="12.929631751068788"><ele>581.0</ele><time>2026-04-19T15:30:51.001Z</time></trkpt><trkpt lat="42.244733081431825" lon="12.929526277084516"><ele>581.0</ele><time>2026-04-19T15:30:52.001Z</time></trkpt><trkpt lat="42.24473262064217" lon="12.929407966305162"><ele>581.0</ele><time>2026-04-19T15:30:53.001Z</time></trkpt><trkpt lat="42.24471288154984" lon="12.929288107331562"><ele>581.0</ele><time>2026-04-19T15:30:54Z</time></trkpt><trkpt lat="42.2446759310132" lon="12.9291539519642"><ele>585.25</ele><time>2026-04-19T15:30:55Z</time></trkpt><trkpt lat="42.244623912047935" lon="12.92901214093881"><ele>589.5</ele><time>2026-04-19T15:30:56Z</time></trkpt><trkpt lat="42.24456978658666" lon="12.928851538607688"><ele>593.75</ele><time>2026-04-19T15:30:57Z</time></trkpt><trkpt lat="42.244509524198776" lon="12.92868720714223"><ele>598.0</ele><time>2026-04-19T15:30:58Z</time></trkpt><trkpt lat="42.24445538008725" lon="12.928516176191353"><ele>599.25</ele><time>2026-04-19T15:30:59Z</time></trkpt><trkpt lat="42.24439952295902" lon="12.928342859513776"><ele>600.5</ele><time>2026-04-19T15:31:00Z</time></trkpt><trkpt lat="42.244347000957134" lon="12.928169476562775"><ele>601.75</ele><time>2026-04-19T15:31:01Z</time></trkpt><trkpt lat="42.24430901627527" lon="12.927988789347996"><ele>603.0</ele><time>2026-04-19T15:31:02Z</time></trkpt><trkpt lat="42.24429486647284" lon="12.927802625096653"><ele>603.0</ele><time>2026-04-19T15:31:03Z</time></trkpt><trkpt lat="42.244294842109" lon="12.927618017930444"><ele>603.0</ele><time>2026-04-19T15:31:04Z</time></trkpt><trkpt lat="42.244297997007585" lon="12.927428332636829"><ele>603.0</ele><time>2026-04-19T15:31:05Z</time></trkpt><trkpt lat="42.24427592155758" lon="12.92724350639201"><ele>603.0</ele><time>2026-04-19T15:31:06Z</time></trkpt><trkpt lat="42.24425541831109" lon="12.927067948180124"><ele>603.25</ele><time>2026-04-19T15:31:07Z</time></trkpt><trkpt lat="42.244249296826354" lon="12.9269052800021"><ele>603.5</ele><time>2026-04-19T15:31:08Z</time></trkpt><trkpt lat="42.2442669192932" lon="12.926754789886624"><ele>603.75</ele><time>2026-04-19T15:31:09Z</time></trkpt><trkpt lat="42.244300175498466" lon="12.926615795455058"><ele>604.0</ele><time>2026-04-19T15:31:10Z</time></trkpt><trkpt lat="42.24435781171689" lon="12.926474311454214"><ele>604.0</ele><time>2026-04-19T15:31:11Z</time></trkpt><trkpt lat="42.24441715139829" lon="12.92631432298363"><ele>604.0</ele><time>2026-04-19T15:31:12Z</time></trkpt><trkpt lat="42.24447463732958" lon="12.926140500885419"><ele>604.0</ele><time>2026-04-19T15:31:13Z</time></trkpt><trkpt lat="42.2445394503922" lon="12.925968261013256"><ele>604.0</ele><time>2026-04-19T15:31:14Z</time></trkpt><trkpt lat="42.24460006149683" lon="12.925787346130617"><ele>606.75</ele><time>2026-04-19T15:31:15Z</time></trkpt><trkpt lat="42.24466198774736" lon="12.92560697307777"><ele>609.5</ele><time>2026-04-19T15:31:16Z</time></trkpt><trkpt lat="42.24471560668767" lon="12.925443062252192"><ele>612.25</ele><time>2026-04-19T15:31:17Z</time></trkpt><trkpt lat="42.244775271247725" lon="12.925294028282607"><ele>615.0</ele><time>2026-04-19T15:31:18Z</time></trkpt><trkpt lat="42.24482487493154" lon="12.925144416624676"><ele>614.0</ele><time>2026-04-19T15:31:19Z</time></trkpt><trkpt lat="42.24488765154992" lon="12.925023257578298"><ele>613.0</ele><time>2026-04-19T15:31:20Z</time></trkpt><trkpt lat="42.24497803393841" lon="12.924936488775048"><ele>612.0</ele><time>2026-04-19T15:31:21Z</time></trkpt><trkpt lat="42.24508388970459" lon="12.924862237386469"><ele>611.0</ele><time>2026-04-19T15:31:22Z</time></trkpt><trkpt lat="42.24517615336274" lon="12.924808459479223"><ele>610.0</ele><time>2026-04-19T15:31:23Z</time></trkpt><trkpt lat="42.245254771086096" lon="12.924791059690158"><ele>610.0</ele><time>2026-04-19T15:31:24Z</time></trkpt><trkpt lat="42.24532456044217" lon="12.924817348032484"><ele>610.0</ele><time>2026-04-19T15:31:25Z</time></trkpt><trkpt lat="42.24538502611383" lon="12.92487773187374"><ele>610.0</ele><time>2026-04-19T15:31:26Z</time></trkpt><trkpt lat="42.245439433594726" lon="12.924968160812043"><ele>610.0</ele><time>2026-04-19T15:31:27Z</time></trkpt><trkpt lat="42.245494830126084" lon="12.92507423393606"><ele>610.0</ele><time>2026-04-19T15:31:28Z</time></trkpt><trkpt lat="42.24556093972146" lon="12.925170162616054"><ele>610.0</ele><time>2026-04-19T15:31:29Z</time></trkpt><trkpt lat="42.245638449492304" lon="12.925231779402305"><ele>603.0</ele><time>2026-04-19T15:31:30Z</time></trkpt><trkpt lat="42.245725041613184" lon="12.925259845558829"><ele>596.0</ele><time>2026-04-19T15:31:31Z</time></trkpt><trkpt lat="42.245811091056666" lon="12.925241275791574"><ele>589.0</ele><time>2026-04-19T15:31:32Z</time></trkpt><trkpt lat="42.245890951282526" lon="12.925197080686281"><ele>582.0</ele><time>2026-04-19T15:31:33Z</time></trkpt><trkpt lat="42.24597696305757" lon="12.925133922451375"><ele>575.0</ele><time>2026-04-19T15:31:34Z</time></trkpt><trkpt lat="42.24608889785958" lon="12.925062609908398"><ele>580.0</ele><time>2026-04-19T15:31:35.002Z</time></trkpt><trkpt lat="42.246205256981995" lon="12.925000358138632"><ele>585.0</ele><time>2026-04-19T15:31:36.001Z</time></trkpt><trkpt lat="42.246326414610536" lon="12.92493869540658"><ele>590.0</ele><time>2026-04-19T15:31:37.001Z</time></trkpt><trkpt lat="42.24644709285755" lon="12.92486461595629"><ele>595.0</ele><time>2026-04-19T15:31:38.002Z</time></trkpt><trkpt lat="42.246572568021996" lon="12.924788099157738"><ele>595.0</ele><time>2026-04-19T15:31:39.002Z</time></trkpt><trkpt lat="42.24669799266749" lon="12.924711612947158"><ele>595.0</ele><time>2026-04-19T15:31:40.002Z</time></trkpt><trkpt lat="42.24681624428512" lon="12.924640019882622"><ele>595.0</ele><time>2026-04-19T15:31:41.002Z</time></trkpt><trkpt lat="42.24693079235801" lon="12.924567285993113"><ele>595.0</ele><time>2026-04-19T15:31:42.002Z</time></trkpt><trkpt lat="42.24704286807944" lon="12.92449432687954"><ele>595.0</ele><time>2026-04-19T15:31:43.002Z</time></trkpt><trkpt lat="42.24715766461716" lon="12.924422177079089"><ele>595.0</ele><time>2026-04-19T15:31:44.001Z</time></trkpt><trkpt lat="42.247278363854136" lon="12.924354489039995"><ele>595.0</ele><time>2026-04-19T15:31:45.002Z</time></trkpt><trkpt lat="42.24739345312473" lon="12.924285758061439"><ele>595.0</ele><time>2026-04-19T15:31:46.002Z</time></trkpt><trkpt lat="42.2475067902059" lon="12.924216564026777"><ele>599.75</ele><time>2026-04-19T15:31:47.002Z</time></trkpt><trkpt lat="42.24761789109872" lon="12.92415260921148"><ele>604.5</ele><time>2026-04-19T15:31:48.002Z</time></trkpt><trkpt lat="42.247718803110985" lon="12.924081366614082"><ele>609.25</ele><time>2026-04-19T15:31:49.002Z</time></trkpt><trkpt lat="42.24782478718316" lon="12.92403083655154"><ele>614.0</ele><time>2026-04-19T15:31:50.002Z</time></trkpt><trkpt lat="42.24793622781186" lon="12.924009221844422"><ele>614.0</ele><time>2026-04-19T15:31:51.002Z</time></trkpt><trkpt lat="42.24804749537655" lon="12.9240306152378"><ele>614.0</ele><time>2026-04-19T15:31:52.002Z</time></trkpt><trkpt lat="42.248152355327875" lon="12.924080185567359"><ele>614.0</ele><time>2026-04-19T15:31:53.002Z</time></trkpt><trkpt lat="42.248256183166674" lon="12.924156928758986"><ele>614.0</ele><time>2026-04-19T15:31:54.002Z</time></trkpt><trkpt lat="42.24835017698433" lon="12.92425197052444"><ele>605.5</ele><time>2026-04-19T15:31:55.002Z</time></trkpt><trkpt lat="42.24845252110706" lon="12.924347964906403"><ele>597.0</ele><time>2026-04-19T15:31:56.002Z</time></trkpt><trkpt lat="42.24855742075517" lon="12.924427591138928"><ele>588.5</ele><time>2026-04-19T15:31:57.002Z</time></trkpt><trkpt lat="42.24866430832071" lon="12.92448013135542"><ele>580.0</ele><time>2026-04-19T15:31:58.002Z</time></trkpt><trkpt lat="42.248780359259044" lon="12.924493317820149"><ele>580.0</ele><time>2026-04-19T15:31:59.002Z</time></trkpt><trkpt lat="42.2488871306169" lon="12.924474705105757"><ele>580.0</ele><time>2026-04-19T15:32:00.002Z</time></trkpt><trkpt lat="42.24899185778484" lon="12.924422858624657"><ele>580.0</ele><time>2026-04-19T15:32:01.002Z</time></trkpt><trkpt lat="42.24909853696779" lon="12.924336105014053"><ele>580.0</ele><time>2026-04-19T15:32:02.002Z</time></trkpt><trkpt lat="42.24920755606374" lon="12.924234405206734"><ele>588.0</ele><time>2026-04-19T15:32:03.002Z</time></trkpt><trkpt lat="42.24931689911456" lon="12.924139250472365"><ele>596.0</ele><time>2026-04-19T15:32:04.002Z</time></trkpt><trkpt lat="42.24941420652225" lon="12.924045666624398"><ele>604.0</ele><time>2026-04-19T15:32:05.002Z</time></trkpt><trkpt lat="42.24949700905928" lon="12.923947458086317"><ele>612.0</ele><time>2026-04-19T15:32:06.002Z</time></trkpt><trkpt lat="42.249551256414605" lon="12.923834731560452"><ele>612.0</ele><time>2026-04-19T15:32:07.002Z</time></trkpt><trkpt lat="42.24958229826892" lon="12.923707842621576"><ele>612.0</ele><time>2026-04-19T15:32:08.002Z</time></trkpt><trkpt lat="42.249583566894714" lon="12.923568455015005"><ele>612.0</ele><time>2026-04-19T15:32:09.002Z</time></trkpt><trkpt lat="42.24956545539578" lon="12.923423456530513"><ele>612.0</ele><time>2026-04-19T15:32:10.002Z</time></trkpt><trkpt lat="42.24954135615951" lon="12.923279993335212"><ele>612.0</ele><time>2026-04-19T15:32:11.002Z</time></trkpt><trkpt lat="42.249526217305345" lon="12.923143226041768"><ele>614.5</ele><time>2026-04-19T15:32:12.002Z</time></trkpt><trkpt lat="42.24951430159613" lon="12.923017179818796"><ele>617.0</ele><time>2026-04-19T15:32:13.002Z</time></trkpt><trkpt lat="42.24951648478214" lon="12.922890533641121"><ele>619.5</ele><time>2026-04-19T15:32:14.002Z</time></trkpt><trkpt lat="42.24953998031967" lon="12.922778487398123"><ele>622.0</ele><time>2026-04-19T15:32:15.002Z</time></trkpt><trkpt lat="42.24958972710708" lon="12.922689740156887"><ele>624.5</ele><time>2026-04-19T15:32:16.002Z</time></trkpt><trkpt lat="42.249661439697554" lon="12.922623253211093"><ele>627.0</ele><time>2026-04-19T15:32:17.002Z</time></trkpt><trkpt lat="42.24975309476624" lon="12.922598103039867"><ele>624.4</ele><time>2026-04-19T15:32:18.002Z</time></trkpt><trkpt lat="42.24984304786038" lon="12.922618131448514"><ele>621.8000000000001</ele><time>2026-04-19T15:32:19.002Z</time></trkpt><trkpt lat="42.24992905768926" lon="12.92267676169537"><ele>619.2</ele><time>2026-04-19T15:32:20.001Z</time></trkpt><trkpt lat="42.25001688112897" lon="12.92276186977141"><ele>616.6</ele><time>2026-04-19T15:32:21.001Z</time></trkpt><trkpt lat="42.2501008698249" lon="12.922855264298162"><ele>614.0</ele><time>2026-04-19T15:32:22.001Z</time></trkpt><trkpt lat="42.25016669612333" lon="12.922950628886648"><ele>614.0</ele><time>2026-04-19T15:32:23.001Z</time></trkpt><trkpt lat="42.25024714631484" lon="12.923023490929003"><ele>614.0</ele><time>2026-04-19T15:32:24.001Z</time></trkpt><trkpt lat="42.25032844285524" lon="12.923105400912434"><ele>614.0</ele><time>2026-04-19T15:32:25.001Z</time></trkpt><trkpt lat="42.250392864180576" lon="12.923198334720565"><ele>614.0</ele><time>2026-04-19T15:32:26.001Z</time></trkpt><trkpt lat="42.25047870388165" lon="12.923259910746328"><ele>614.0</ele><time>2026-04-19T15:32:27.001Z</time></trkpt><trkpt lat="42.25056677975458" lon="12.923294342379162"><ele>614.6</ele><time>2026-04-19T15:32:28.001Z</time></trkpt><trkpt lat="42.2506477006034" lon="12.923279424557524"><ele>615.2</ele><time>2026-04-19T15:32:29.001Z</time></trkpt><trkpt lat="42.25074861747566" lon="12.923241128392013"><ele>615.8000000000001</ele><time>2026-04-19T15:32:30.001Z</time></trkpt><trkpt lat="42.25084952419388" lon="12.923177038517613"><ele>616.4</ele><time>2026-04-19T15:32:31.001Z</time></trkpt><trkpt lat="42.25096490504691" lon="12.92313172831202"><ele>617.0</ele><time>2026-04-19T15:32:32.001Z</time></trkpt><trkpt lat="42.25106859288846" lon="12.92307544868421"><ele>617.0</ele><time>2026-04-19T15:32:33.001Z</time></trkpt><trkpt lat="42.251169795543674" lon="12.923021687343192"><ele>617.0</ele><time>2026-04-19T15:32:34.001Z</time></trkpt><trkpt lat="42.25127165342564" lon="12.923027740249335"><ele>617.0</ele><time>2026-04-19T15:32:35.001Z</time></trkpt><trkpt lat="42.25136167278332" lon="12.923080232231465"><ele>617.0</ele><time>2026-04-19T15:32:36.001Z</time></trkpt><trkpt lat="42.25144152974453" lon="12.923163349950542"><ele>617.0</ele><time>2026-04-19T15:32:37.001Z</time></trkpt><trkpt lat="42.25149975014302" lon="12.92327913102772"><ele>617.2</ele><time>2026-04-19T15:32:38.001Z</time></trkpt><trkpt lat="42.25153197753499" lon="12.923417114782124"><ele>617.4000000000001</ele><time>2026-04-19T15:32:39.001Z</time></trkpt><trkpt lat="42.25153674615502" lon="12.92356510359452"><ele>617.5999999999999</ele><time>2026-04-19T15:32:40.001Z</time></trkpt><trkpt lat="42.25154934110496" lon="12.923703538285201"><ele>617.8</ele><time>2026-04-19T15:32:41.001Z</time></trkpt><trkpt lat="42.25155910968431" lon="12.923837227125382"><ele>618.0</ele><time>2026-04-19T15:32:42.001Z</time></trkpt><trkpt lat="42.25157210571574" lon="12.92396001912849"><ele>618.0</ele><time>2026-04-19T15:32:43.001Z</time></trkpt><trkpt lat="42.25159179011571" lon="12.92406993765056"><ele>618.0</ele><time>2026-04-19T15:32:44.001Z</time></trkpt><trkpt lat="42.25164126319209" lon="12.924162786312671"><ele>618.0</ele><time>2026-04-19T15:32:45.001Z</time></trkpt><trkpt lat="42.25171337532147" lon="12.924236311593882"><ele>618.0</ele><time>2026-04-19T15:32:46.001Z</time></trkpt><trkpt lat="42.25180749016217" lon="12.924269448152966"><ele>618.0</ele><time>2026-04-19T15:32:47.001Z</time></trkpt><trkpt lat="42.25191339168978" lon="12.924310627681997"><ele>615.0</ele><time>2026-04-19T15:32:48.001Z</time></trkpt><trkpt lat="42.25204220057491" lon="12.924332294535743"><ele>612.0</ele><time>2026-04-19T15:32:49.001Z</time></trkpt><trkpt lat="42.25221912521365" lon="12.924366693181979"><ele>609.0</ele><time>2026-04-19T15:32:50.001Z</time></trkpt><trkpt lat="42.25241738697114" lon="12.92438972507011"><ele>609.0</ele><time>2026-04-19T15:32:51.001Z</time></trkpt><trkpt lat="42.2526087956793" lon="12.924442519290176"><ele>609.0</ele><time>2026-04-19T15:32:52.001Z</time></trkpt><trkpt lat="42.25279612281826" lon="12.924483216883784"><ele>609.0</ele><time>2026-04-19T15:32:53.001Z</time></trkpt><trkpt lat="42.25297277510695" lon="12.92451837625384"><ele>610.0</ele><time>2026-04-19T15:32:54.001Z</time></trkpt><trkpt lat="42.253130785378545" lon="12.92454962489335"><ele>611.0</ele><time>2026-04-19T15:32:55.001Z</time></trkpt><trkpt lat="42.25327788955523" lon="12.924587364569154"><ele>612.0</ele><time>2026-04-19T15:32:56.001Z</time></trkpt><trkpt lat="42.25340694796973" lon="12.924597411866316"><ele>613.0</ele><time>2026-04-19T15:32:57.001Z</time></trkpt><trkpt lat="42.25352639435777" lon="12.924568757284314"><ele>613.0</ele><time>2026-04-19T15:32:58.001Z</time></trkpt><trkpt lat="42.253628293128536" lon="12.92449372405493"><ele>613.0</ele><time>2026-04-19T15:32:59.001Z</time></trkpt><trkpt lat="42.25372098852898" lon="12.924374853161016"><ele>613.0</ele><time>2026-04-19T15:33:00.001Z</time></trkpt><trkpt lat="42.25380985722749" lon="12.924254796214859"><ele>613.0</ele><time>2026-04-19T15:33:01.001Z</time></trkpt><trkpt lat="42.25390212610364" lon="12.924118546075968"><ele>614.75</ele><time>2026-04-19T15:33:02.001Z</time></trkpt><trkpt lat="42.25399691161106" lon="12.92398725639155"><ele>616.5</ele><time>2026-04-19T15:33:03.001Z</time></trkpt><trkpt lat="42.254102746685014" lon="12.92384216510876"><ele>618.25</ele><time>2026-04-19T15:33:04.001Z</time></trkpt><trkpt lat="42.254210315997355" lon="12.923697132453455"><ele>620.0</ele><time>2026-04-19T15:33:05.001Z</time></trkpt><trkpt lat="42.254323941393885" lon="12.923581956593774"><ele>620.0</ele><time>2026-04-19T15:33:06.001Z</time></trkpt><trkpt lat="42.25445188142759" lon="12.923515506413116"><ele>620.0</ele><time>2026-04-19T15:33:07.001Z</time></trkpt><trkpt lat="42.25457737932529" lon="12.923485255592695"><ele>620.0</ele><time>2026-04-19T15:33:08.001Z</time></trkpt><trkpt lat="42.254722990037" lon="12.923492753836367"><ele>620.0</ele><time>2026-04-19T15:33:09.001Z</time></trkpt><trkpt lat="42.25486571831575" lon="12.92351005771707"><ele>618.5</ele><time>2026-04-19T15:33:10.001Z</time></trkpt><trkpt lat="42.25499763349631" lon="12.923515309088527"><ele>617.0</ele><time>2026-04-19T15:33:11.001Z</time></trkpt><trkpt lat="42.255117300146914" lon="12.923497176957673"><ele>615.5</ele><time>2026-04-19T15:33:12.001Z</time></trkpt><trkpt lat="42.255221046116304" lon="12.923450339108081"><ele>614.0</ele><time>2026-04-19T15:33:13.001Z</time></trkpt><trkpt lat="42.255306051770134" lon="12.923375873492974"><ele>617.0</ele><time>2026-04-19T15:33:14.001Z</time></trkpt><trkpt lat="42.25537337023967" lon="12.923263585964458"><ele>620.0</ele><time>2026-04-19T15:33:15.001Z</time></trkpt><trkpt lat="42.25542226059351" lon="12.923123690010167"><ele>623.0</ele><time>2026-04-19T15:33:16.001Z</time></trkpt><trkpt lat="42.25547386034877" lon="12.922971807848892"><ele>626.0</ele><time>2026-04-19T15:33:17.001Z</time></trkpt><trkpt lat="42.25553976187047" lon="12.922819677777937"><ele>626.0</ele><time>2026-04-19T15:33:18.001Z</time></trkpt><trkpt lat="42.25558864649074" lon="12.922665940775088"><ele>626.0</ele><time>2026-04-19T15:33:19.001Z</time></trkpt><trkpt lat="42.25563035406985" lon="12.92251717847125"><ele>626.0</ele><time>2026-04-19T15:33:20.001Z</time></trkpt><trkpt lat="42.25564232869585" lon="12.922355359276171"><ele>626.0</ele><time>2026-04-19T15:33:21.001Z</time></trkpt><trkpt lat="42.25562684010504" lon="12.922190576158822"><ele>628.25</ele><time>2026-04-19T15:33:22.001Z</time></trkpt><trkpt lat="42.255590136815606" lon="12.922021696745489"><ele>630.5</ele><time>2026-04-19T15:33:23.001Z</time></trkpt><trkpt lat="42.255544760965144" lon="12.921839361181565"><ele>632.75</ele><time>2026-04-19T15:33:24.001Z</time></trkpt><trkpt lat="42.255491985246756" lon="12.92164969910845"><ele>635.0</ele><time>2026-04-19T15:33:25.001Z</time></trkpt><trkpt lat="42.255443675261" lon="12.921456977811001"><ele>635.0</ele><time>2026-04-19T15:33:26.001Z</time></trkpt><trkpt lat="42.2553959775808" lon="12.92126219633156"><ele>635.0</ele><time>2026-04-19T15:33:27.001Z</time></trkpt><trkpt lat="42.25534985612404" lon="12.921077023932646"><ele>635.0</ele><time>2026-04-19T15:33:28.001Z</time></trkpt><trkpt lat="42.25531835604764" lon="12.920881719224877"><ele>635.0</ele><time>2026-04-19T15:33:29.001Z</time></trkpt><trkpt lat="42.255296772414454" lon="12.920675138628594"><ele>631.6666666666666</ele><time>2026-04-19T15:33:30.001Z</time></trkpt><trkpt lat="42.25527076995547" lon="12.92045912793864"><ele>628.3333333333334</ele><time>2026-04-19T15:33:31.001Z</time></trkpt><trkpt lat="42.25524843591956" lon="12.920234081396385"><ele>625.0</ele><time>2026-04-19T15:33:32.001Z</time></trkpt><trkpt lat="42.2552221791059" lon="12.920007073942248"><ele>622.6666666666667</ele><time>2026-04-19T15:33:33.001Z</time></trkpt><trkpt lat="42.255213110284366" lon="12.919781357280119"><ele>620.3333333333334</ele><time>2026-04-19T15:33:34.001Z</time></trkpt><trkpt lat="42.255176536272984" lon="12.919569179537861"><ele>618.0</ele><time>2026-04-19T15:33:35Z</time></trkpt><trkpt lat="42.255165224053414" lon="12.919373252290184"><ele>616.0</ele><time>2026-04-19T15:33:36Z</time></trkpt><trkpt lat="42.25516236252097" lon="12.919205459206314"><ele>614.0</ele><time>2026-04-19T15:33:37Z</time></trkpt><trkpt lat="42.255183911768405" lon="12.919049858494475"><ele>612.0</ele><time>2026-04-19T15:33:38Z</time></trkpt><trkpt lat="42.255245283587264" lon="12.918917149967257"><ele>610.0</ele><time>2026-04-19T15:33:39Z</time></trkpt><trkpt lat="42.25533023857507" lon="12.918797298520921"><ele>610.0</ele><time>2026-04-19T15:33:40Z</time></trkpt><trkpt lat="42.255435780361935" lon="12.91871237171106"><ele>610.0</ele><time>2026-04-19T15:33:41.003Z</time></trkpt><trkpt lat="42.25555833898393" lon="12.918656139190912"><ele>610.0</ele><time>2026-04-19T15:33:42.003Z</time></trkpt><trkpt lat="42.25569652355565" lon="12.91862983451001"><ele>610.0</ele><time>2026-04-19T15:33:43.003Z</time></trkpt><trkpt lat="42.25584319282666" lon="12.918613311432795"><ele>617.0</ele><time>2026-04-19T15:33:44.002Z</time></trkpt><trkpt lat="42.255999797952434" lon="12.918590689746338"><ele>624.0</ele><time>2026-04-19T15:33:45.003Z</time></trkpt><trkpt lat="42.256155377275846" lon="12.918571336304234"><ele>631.0</ele><time>2026-04-19T15:33:46.003Z</time></trkpt><trkpt lat="42.25630775310097" lon="12.918543298429363"><ele>628.5</ele><time>2026-04-19T15:33:47.003Z</time></trkpt><trkpt lat="42.25646549444422" lon="12.918546032830154"><ele>626.0</ele><time>2026-04-19T15:33:48.003Z</time></trkpt><trkpt lat="42.25660466071233" lon="12.918521690163354"><ele>623.5</ele><time>2026-04-19T15:33:49.003Z</time></trkpt><trkpt lat="42.25672692041653" lon="12.918528494987925"><ele>621.0</ele><time>2026-04-19T15:33:50.003Z</time></trkpt><trkpt lat="42.25683651946585" lon="12.91856319360965"><ele>621.0</ele><time>2026-04-19T15:33:51.003Z</time></trkpt><trkpt lat="42.25693580498884" lon="12.918629119880567"><ele>621.0</ele><time>2026-04-19T15:33:52.003Z</time></trkpt><trkpt lat="42.25701308157075" lon="12.918743500808658"><ele>621.0</ele><time>2026-04-19T15:33:53.002Z</time></trkpt><trkpt lat="42.25705576949959" lon="12.9188757956606"><ele>621.0</ele><time>2026-04-19T15:33:54.003Z</time></trkpt><trkpt lat="42.25707051890275" lon="12.919017524675267"><ele>621.0</ele><time>2026-04-19T15:33:55.003Z</time></trkpt><trkpt lat="42.257079420203176" lon="12.91916500006999"><ele>623.6</ele><time>2026-04-19T15:33:56.003Z</time></trkpt><trkpt lat="42.25709522532497" lon="12.919308827698815"><ele>626.2</ele><time>2026-04-19T15:33:57.003Z</time></trkpt><trkpt lat="42.25713529317113" lon="12.919441894768527"><ele>628.8</ele><time>2026-04-19T15:33:58.003Z</time></trkpt><trkpt lat="42.25719501647883" lon="12.919558134511334"><ele>631.4</ele><time>2026-04-19T15:33:59.003Z</time></trkpt><trkpt lat="42.25727278901028" lon="12.919651696181823"><ele>634.0</ele><time>2026-04-19T15:34:00.003Z</time></trkpt><trkpt lat="42.25736639553991" lon="12.919715522884548"><ele>628.6</ele><time>2026-04-19T15:34:01.003Z</time></trkpt><trkpt lat="42.25747144740551" lon="12.919754347113223"><ele>623.2</ele><time>2026-04-19T15:34:02.003Z</time></trkpt><trkpt lat="42.25757755705785" lon="12.919799563039474"><ele>617.8000000000001</ele><time>2026-04-19T15:34:03.003Z</time></trkpt><trkpt lat="42.25768577310133" lon="12.919839025738932"><ele>612.4</ele><time>2026-04-19T15:34:04.002Z</time></trkpt><trkpt lat="42.25778902364958" lon="12.919877414405489"><ele>607.0</ele><time>2026-04-19T15:34:05.002Z</time></trkpt><trkpt lat="42.257893440716494" lon="12.919919106153193"><ele>607.0</ele><time>2026-04-19T15:34:06.002Z</time></trkpt><trkpt lat="42.25800830331204" lon="12.919964783944652"><ele>607.0</ele><time>2026-04-19T15:34:07.002Z</time></trkpt><trkpt lat="42.258124791064425" lon="12.92001249115477"><ele>607.0</ele><time>2026-04-19T15:34:08.002Z</time></trkpt><trkpt lat="42.258247921423525" lon="12.920056949941928"><ele>607.0</ele><time>2026-04-19T15:34:09.002Z</time></trkpt><trkpt lat="42.25835345674871" lon="12.92011582112417"><ele>601.25</ele><time>2026-04-19T15:34:10.002Z</time></trkpt><trkpt lat="42.25846955608802" lon="12.920146930942426"><ele>595.5</ele><time>2026-04-19T15:34:11.002Z</time></trkpt><trkpt lat="42.258586475610436" lon="12.920142108926603"><ele>589.75</ele><time>2026-04-19T15:34:12.002Z</time></trkpt><trkpt lat="42.25870177082638" lon="12.920105765461999"><ele>584.0</ele><time>2026-04-19T15:34:13.002Z</time></trkpt><trkpt lat="42.25882010192489" lon="12.920073276086917"><ele>582.75</ele><time>2026-04-19T15:34:14.002Z</time></trkpt><trkpt lat="42.258938388743424" lon="12.920052472343137"><ele>581.5</ele><time>2026-04-19T15:34:15.002Z</time></trkpt><trkpt lat="42.259062226684414" lon="12.920043030789923"><ele>580.25</ele><time>2026-04-19T15:34:16.002Z</time></trkpt><trkpt lat="42.25918859513884" lon="12.920054638647429"><ele>579.0</ele><time>2026-04-19T15:34:17.002Z</time></trkpt><trkpt lat="42.25931223681287" lon="12.920091527352406"><ele>579.0</ele><time>2026-04-19T15:34:18.002Z</time></trkpt><trkpt lat="42.25943677680737" lon="12.920139559554883"><ele>579.0</ele><time>2026-04-19T15:34:19.002Z</time></trkpt><trkpt lat="42.25955602805973" lon="12.920185789637818"><ele>579.0</ele><time>2026-04-19T15:34:20.002Z</time></trkpt><trkpt lat="42.25968191214571" lon="12.920235121962667"><ele>579.0</ele><time>2026-04-19T15:34:21.002Z</time></trkpt><trkpt lat="42.259800525418754" lon="12.920274329139222"><ele>581.25</ele><time>2026-04-19T15:34:22.002Z</time></trkpt><trkpt lat="42.25992231926016" lon="12.920311109678929"><ele>583.5</ele><time>2026-04-19T15:34:23.002Z</time></trkpt><trkpt lat="42.26004205931984" lon="12.920347540050528"><ele>585.75</ele><time>2026-04-19T15:34:24.002Z</time></trkpt><trkpt lat="42.26014448630598" lon="12.920413578285112"><ele>588.0</ele><time>2026-04-19T15:34:25.002Z</time></trkpt><trkpt lat="42.26025396398927" lon="12.92042993901795"><ele>588.0</ele><time>2026-04-19T15:34:26.002Z</time></trkpt><trkpt lat="42.2603546477844" lon="12.920449138960747"><ele>588.0</ele><time>2026-04-19T15:34:27.002Z</time></trkpt><trkpt lat="42.260451975069635" lon="12.920459726028993"><ele>588.0</ele><time>2026-04-19T15:34:28.002Z</time></trkpt><trkpt lat="42.26055318425038" lon="12.920459028543936"><ele>588.0</ele><time>2026-04-19T15:34:29.002Z</time></trkpt><trkpt lat="42.260658124487605" lon="12.920466409428395"><ele>588.0</ele><time>2026-04-19T15:34:30.002Z</time></trkpt><trkpt lat="42.26076661755289" lon="12.920463073663086"><ele>588.4</ele><time>2026-04-19T15:34:31.002Z</time></trkpt><trkpt lat="42.260872699097945" lon="12.920475019634527"><ele>588.8</ele><time>2026-04-19T15:34:32.002Z</time></trkpt><trkpt lat="42.26097940783499" lon="12.920489602371369"><ele>589.2</ele><time>2026-04-19T15:34:33.002Z</time></trkpt><trkpt lat="42.26108532295069" lon="12.9205019342457"><ele>589.6</ele><time>2026-04-19T15:34:34.002Z</time></trkpt><trkpt lat="42.261191390554664" lon="12.920513082473974"><ele>590.0</ele><time>2026-04-19T15:34:35.002Z</time></trkpt><trkpt lat="42.26129308768162" lon="12.920523340787938"><ele>590.0</ele><time>2026-04-19T15:34:36.002Z</time></trkpt><trkpt lat="42.2613899803819" lon="12.920537178064889"><ele>590.0</ele><time>2026-04-19T15:34:37.002Z</time></trkpt><trkpt lat="42.26148649318013" lon="12.92054722585478"><ele>590.0</ele><time>2026-04-19T15:34:38.002Z</time></trkpt><trkpt lat="42.26158127580297" lon="12.920548510332226"><ele>590.0</ele><time>2026-04-19T15:34:39.002Z</time></trkpt><trkpt lat="42.26167456161939" lon="12.920549415097188"><ele>590.0</ele><time>2026-04-19T15:34:40.002Z</time></trkpt><trkpt lat="42.261766750865725" lon="12.920550937734824"><ele>591.6</ele><time>2026-04-19T15:34:41.002Z</time></trkpt><trkpt lat="42.26186146601687" lon="12.920551031555094"><ele>593.2</ele><time>2026-04-19T15:34:42.002Z</time></trkpt><trkpt lat="42.26195701803352" lon="12.920544378051448"><ele>594.8</ele><time>2026-04-19T15:34:43.002Z</time></trkpt><trkpt lat="42.262057398937564" lon="12.92053288477811"><ele>596.4</ele><time>2026-04-19T15:34:44.002Z</time></trkpt><trkpt lat="42.26215959175416" lon="12.920522704211711"><ele>598.0</ele><time>2026-04-19T15:34:45.002Z</time></trkpt><trkpt lat="42.26226801761315" lon="12.920511498673203"><ele>599.5</ele><time>2026-04-19T15:34:46.002Z</time></trkpt><trkpt lat="42.26237718507636" lon="12.920501850384184"><ele>601.0</ele><time>2026-04-19T15:34:47.002Z</time></trkpt><trkpt lat="42.26248933499143" lon="12.920492189635207"><ele>602.5</ele><time>2026-04-19T15:34:48.002Z</time></trkpt><trkpt lat="42.26260477197992" lon="12.920479868351997"><ele>604.0</ele><time>2026-04-19T15:34:49.002Z</time></trkpt><trkpt lat="42.26272418297617" lon="12.920464714347085"><ele>604.0</ele><time>2026-04-19T15:34:50.002Z</time></trkpt><trkpt lat="42.26284556642308" lon="12.920457509779025"><ele>604.0</ele><time>2026-04-19T15:34:51.002Z</time></trkpt><trkpt lat="42.262968054266345" lon="12.920448540155327"><ele>604.0</ele><time>2026-04-19T15:34:52.002Z</time></trkpt><trkpt lat="42.26309956286168" lon="12.920444515165567"><ele>604.0</ele><time>2026-04-19T15:34:53.002Z</time></trkpt><trkpt lat="42.26322557846511" lon="12.920440203499597"><ele>602.75</ele><time>2026-04-19T15:34:54.002Z</time></trkpt><trkpt lat="42.263355609285426" lon="12.92043184924404"><ele>601.5</ele><time>2026-04-19T15:34:55.002Z</time></trkpt><trkpt lat="42.263494488386044" lon="12.920418248501003"><ele>600.25</ele><time>2026-04-19T15:34:56.002Z</time></trkpt><trkpt lat="42.26363679571147" lon="12.920406195461744"><ele>599.0</ele><time>2026-04-19T15:34:57.002Z</time></trkpt><trkpt lat="42.26377635973226" lon="12.92039362863712"><ele>599.0</ele><time>2026-04-19T15:34:58.002Z</time></trkpt><trkpt lat="42.263916937007025" lon="12.920378961888927"><ele>599.0</ele><time>2026-04-19T15:34:59.002Z</time></trkpt><trkpt lat="42.264055433820914" lon="12.920367995705181"><ele>599.0</ele><time>2026-04-19T15:35:00.002Z</time></trkpt><trkpt lat="42.26419131262114" lon="12.92035628056714"><ele>599.0</ele><time>2026-04-19T15:35:01.002Z</time></trkpt><trkpt lat="42.26432863039634" lon="12.92034118507825"><ele>599.25</ele><time>2026-04-19T15:35:02.002Z</time></trkpt><trkpt lat="42.26446391048526" lon="12.920325759311469"><ele>599.5</ele><time>2026-04-19T15:35:03.002Z</time></trkpt><trkpt lat="42.264602296224254" lon="12.92031063495666"><ele>599.75</ele><time>2026-04-19T15:35:04.002Z</time></trkpt><trkpt lat="42.26473928418122" lon="12.920296307647515"><ele>600.0</ele><time>2026-04-19T15:35:05.002Z</time></trkpt><trkpt lat="42.26487573584239" lon="12.920282918915763"><ele>601.0</ele><time>2026-04-19T15:35:06.002Z</time></trkpt><trkpt lat="42.26501275226829" lon="12.920261587597537"><ele>602.0</ele><time>2026-04-19T15:35:07.002Z</time></trkpt><trkpt lat="42.26515702416114" lon="12.920221978000832"><ele>603.0</ele><time>2026-04-19T15:35:08.002Z</time></trkpt><trkpt lat="42.26530345084962" lon="12.92017479032308"><ele>604.0</ele><time>2026-04-19T15:35:09.002Z</time></trkpt><trkpt lat="42.26544452619127" lon="12.92012999630256"><ele>604.0</ele><time>2026-04-19T15:35:10.002Z</time></trkpt><trkpt lat="42.26559080812569" lon="12.92008027988648"><ele>604.0</ele><time>2026-04-19T15:35:11.002Z</time></trkpt><trkpt lat="42.26573416065131" lon="12.920039004964758"><ele>604.0</ele><time>2026-04-19T15:35:12.002Z</time></trkpt><trkpt lat="42.265880124977095" lon="12.920005092708074"><ele>604.0</ele><time>2026-04-19T15:35:13.002Z</time></trkpt><trkpt lat="42.26602842650004" lon="12.919967488840898"><ele>597.3333333333334</ele><time>2026-04-19T15:35:14.002Z</time></trkpt><trkpt lat="42.26617157001842" lon="12.919919746628796"><ele>590.6666666666666</ele><time>2026-04-19T15:35:15.002Z</time></trkpt><trkpt lat="42.26631953249112" lon="12.919868521852305"><ele>584.0</ele><time>2026-04-19T15:35:16.002Z</time></trkpt><trkpt lat="42.26647132450928" lon="12.919816775848547"><ele>583.3333333333333</ele><time>2026-04-19T15:35:17.002Z</time></trkpt><trkpt lat="42.266620284466015" lon="12.919759903352563"><ele>582.6666666666666</ele><time>2026-04-19T15:35:18.002Z</time></trkpt><trkpt lat="42.26676738603045" lon="12.919697477943462"><ele>582.0</ele><time>2026-04-19T15:35:19.001Z</time></trkpt><trkpt lat="42.266905229659415" lon="12.919613127093216"><ele>582.0</ele><time>2026-04-19T15:35:20.001Z</time></trkpt><trkpt lat="42.2670343680383" lon="12.919500991792718"><ele>582.0</ele><time>2026-04-19T15:35:21.001Z</time></trkpt><trkpt lat="42.26716059778258" lon="12.91939496880256"><ele>582.0</ele><time>2026-04-19T15:35:22.001Z</time></trkpt><trkpt lat="42.267284543001445" lon="12.91928261260117"><ele>581.5</ele><time>2026-04-19T15:35:23.001Z</time></trkpt><trkpt lat="42.26740031528324" lon="12.919165897201712"><ele>581.0</ele><time>2026-04-19T15:35:24.001Z</time></trkpt><trkpt lat="42.26751151140133" lon="12.919051426126737"><ele>580.5</ele><time>2026-04-19T15:35:25.001Z</time></trkpt><trkpt lat="42.26762593570193" lon="12.918940555019745"><ele>580.0</ele><time>2026-04-19T15:35:26.001Z</time></trkpt><trkpt lat="42.267738070778385" lon="12.91883440502797"><ele>580.0</ele><time>2026-04-19T15:35:27.001Z</time></trkpt><trkpt lat="42.26785019024383" lon="12.918727839889256"><ele>580.0</ele><time>2026-04-19T15:35:28.001Z</time></trkpt><trkpt lat="42.26796334292646" lon="12.918613884295638"><ele>580.0</ele><time>2026-04-19T15:35:29.001Z</time></trkpt><trkpt lat="42.26807695818572" lon="12.918491931898895"><ele>580.0</ele><time>2026-04-19T15:35:30.001Z</time></trkpt><trkpt lat="42.26817970178052" lon="12.918359886762282"><ele>579.25</ele><time>2026-04-19T15:35:31.001Z</time></trkpt><trkpt lat="42.2682753923215" lon="12.91821942871268"><ele>578.5</ele><time>2026-04-19T15:35:32.001Z</time></trkpt><trkpt lat="42.26836612397495" lon="12.918079320056545"><ele>577.75</ele><time>2026-04-19T15:35:33.001Z</time></trkpt><trkpt lat="42.268458445413366" lon="12.917945506160796"><ele>577.0</ele><time>2026-04-19T15:35:34.001Z</time></trkpt><trkpt lat="42.268554800709865" lon="12.917816688826601"><ele>577.0</ele><time>2026-04-19T15:35:35.001Z</time></trkpt><trkpt lat="42.268646350110025" lon="12.917688598683515"><ele>577.0</ele><time>2026-04-19T15:35:36.001Z</time></trkpt><trkpt lat="42.26873442213588" lon="12.917560603451857"><ele>577.0</ele><time>2026-04-19T15:35:37.001Z</time></trkpt><trkpt lat="42.26881952635033" lon="12.917425934473245"><ele>577.0</ele><time>2026-04-19T15:35:38.001Z</time></trkpt><trkpt lat="42.26890465585965" lon="12.917299414957158"><ele>579.25</ele><time>2026-04-19T15:35:39.001Z</time></trkpt><trkpt lat="42.268988942425324" lon="12.91718144416065"><ele>581.5</ele><time>2026-04-19T15:35:40.001Z</time></trkpt><trkpt lat="42.269071039607596" lon="12.91706656701055"><ele>583.75</ele><time>2026-04-19T15:35:41.001Z</time></trkpt><trkpt lat="42.269148147454445" lon="12.916946647013628"><ele>586.0</ele><time>2026-04-19T15:35:42.001Z</time></trkpt><trkpt lat="42.26922525797456" lon="12.91684070527414"><ele>586.0</ele><time>2026-04-19T15:35:43.001Z</time></trkpt><trkpt lat="42.26929429362877" lon="12.91674110696421"><ele>586.0</ele><time>2026-04-19T15:35:44.001Z</time></trkpt><trkpt lat="42.269360816167456" lon="12.91665119206858"><ele>586.0</ele><time>2026-04-19T15:35:45.001Z</time></trkpt><trkpt lat="42.26942168695347" lon="12.916567913339161"><ele>586.0</ele><time>2026-04-19T15:35:46.001Z</time></trkpt><trkpt lat="42.26947779935588" lon="12.916500141976618"><ele>586.0</ele><time>2026-04-19T15:35:47.003Z</time></trkpt><trkpt lat="42.26952660548787" lon="12.91643558900313"><ele>586.0</ele><time>2026-04-19T15:35:48.003Z</time></trkpt><trkpt lat="42.26958849593399" lon="12.91631555221513"><ele>585.1666666666667</ele><time>2026-04-19T15:35:50.003Z</time></trkpt><trkpt lat="42.26959541340809" lon="12.916229786900562"><ele>584.3333333333334</ele><time>2026-04-19T15:35:52.003Z</time></trkpt><trkpt lat="42.269651346437136" lon="12.916289987393801"><ele>583.5</ele><time>2026-04-19T15:35:54.004Z</time></trkpt><trkpt lat="42.26961277730776" lon="12.916120565614634"><ele>582.6666666666666</ele><time>2026-04-19T15:35:55.004Z</time></trkpt><trkpt lat="42.26968330516869" lon="12.916107541410696"><ele>581.8333333333333</ele><time>2026-04-19T15:39:57.003Z</time></trkpt><trkpt lat="42.269776700210095" lon="12.916149073192834"><ele>581.0</ele><time>2026-04-19T15:41:19.004Z</time></trkpt><trkpt lat="42.269889458591194" lon="12.916208305166325"><ele>581.0</ele><time>2026-04-19T15:41:22.004Z</time></trkpt><trkpt lat="42.270032491316634" lon="12.916190480103957"><ele>581.0</ele><time>2026-04-19T15:41:24.004Z</time></trkpt><trkpt lat="42.270123158523994" lon="12.916176471193971"><ele>581.0</ele><time>2026-04-19T15:41:25.004Z</time></trkpt><trkpt lat="42.27022272315913" lon="12.916162836462512"><ele>581.0</ele><time>2026-04-19T15:41:26.004Z</time></trkpt><trkpt lat="42.27032415758039" lon="12.916145780708462"><ele>581.0</ele><time>2026-04-19T15:41:27.004Z</time></trkpt><trkpt lat="42.27042337004952" lon="12.916133215961532"><ele>581.0</ele><time>2026-04-19T15:41:28.004Z</time></trkpt><trkpt lat="42.27052332219317" lon="12.916125407217278"><ele>581.0</ele><time>2026-04-19T15:41:29.004Z</time></trkpt><trkpt lat="42.27062307803431" lon="12.916132375489846"><ele>581.0</ele><time>2026-04-19T15:41:30.004Z</time></trkpt><trkpt lat="42.27072376920618" lon="12.916151368928766"><ele>581.0</ele><time>2026-04-19T15:41:31.004Z</time></trkpt><trkpt lat="42.270825139439836" lon="12.916176369275385"><ele>581.0</ele><time>2026-04-19T15:41:32.004Z</time></trkpt><trkpt lat="42.27093514667512" lon="12.916210356699558"><ele>577.4</ele><time>2026-04-19T15:41:33.004Z</time></trkpt><trkpt lat="42.27104963598505" lon="12.916230218647646"><ele>573.8</ele><time>2026-04-19T15:41:34.004Z</time></trkpt><trkpt lat="42.271153799543285" lon="12.916257018748833"><ele>570.1999999999999</ele><time>2026-04-19T15:41:35.004Z</time></trkpt><trkpt lat="42.27126282610152" lon="12.916258052866697"><ele>566.6</ele><time>2026-04-19T15:41:36.004Z</time></trkpt><trkpt lat="42.27137537325924" lon="12.91625696698745"><ele>563.0</ele><time>2026-04-19T15:41:37.004Z</time></trkpt><trkpt lat="42.27149053694728" lon="12.91623722581504"><ele>565.25</ele><time>2026-04-19T15:41:38.004Z</time></trkpt><trkpt lat="42.27160977366657" lon="12.916185232500975"><ele>567.5</ele><time>2026-04-19T15:41:39.004Z</time></trkpt><trkpt lat="42.27173893928571" lon="12.91609838041616"><ele>569.75</ele><time>2026-04-19T15:41:40.004Z</time></trkpt><trkpt lat="42.27186432303832" lon="12.915985990542612"><ele>572.0</ele><time>2026-04-19T15:41:41.004Z</time></trkpt><trkpt lat="42.27199251127964" lon="12.915871537144252"><ele>572.0</ele><time>2026-04-19T15:41:42.004Z</time></trkpt><trkpt lat="42.27211731187499" lon="12.915762353447507"><ele>572.0</ele><time>2026-04-19T15:41:43.004Z</time></trkpt><trkpt lat="42.272240110772856" lon="12.915657155430717"><ele>572.0</ele><time>2026-04-19T15:41:44.004Z</time></trkpt><trkpt lat="42.27234016691539" lon="12.915511545529132"><ele>572.0</ele><time>2026-04-19T15:41:45.003Z</time></trkpt><trkpt lat="42.27242882581203" lon="12.915374382588142"><ele>565.0</ele><time>2026-04-19T15:41:46.003Z</time></trkpt><trkpt lat="42.272530709758875" lon="12.91526392338629"><ele>558.0</ele><time>2026-04-19T15:41:47.003Z</time></trkpt><trkpt lat="42.27265408734629" lon="12.915184575612455"><ele>551.0</ele><time>2026-04-19T15:41:48.003Z</time></trkpt><trkpt lat="42.2727845037642" lon="12.915129826602415"><ele>544.0</ele><time>2026-04-19T15:41:49.003Z</time></trkpt><trkpt lat="42.27292359154366" lon="12.91509539589146"><ele>544.0</ele><time>2026-04-19T15:41:50.003Z</time></trkpt><trkpt lat="42.2730708883903" lon="12.915082849777507"><ele>544.0</ele><time>2026-04-19T15:41:51.003Z</time></trkpt><trkpt lat="42.27321972521336" lon="12.915093064049342"><ele>544.0</ele><time>2026-04-19T15:41:52.003Z</time></trkpt><trkpt lat="42.27337106981763" lon="12.91512075875698"><ele>544.0</ele><time>2026-04-19T15:41:53.003Z</time></trkpt><trkpt lat="42.27352049840789" lon="12.915153419342202"><ele>536.6666666666667</ele><time>2026-04-19T15:41:54.003Z</time></trkpt><trkpt lat="42.27367113895718" lon="12.915194150649889"><ele>529.3333333333334</ele><time>2026-04-19T15:41:55.003Z</time></trkpt><trkpt lat="42.27381923185551" lon="12.915240945256647"><ele>522.0</ele><time>2026-04-19T15:41:56.003Z</time></trkpt><trkpt lat="42.27396301515697" lon="12.915294566366748"><ele>522.0</ele><time>2026-04-19T15:41:57.003Z</time></trkpt><trkpt lat="42.27411190298896" lon="12.915329511873317"><ele>522.0</ele><time>2026-04-19T15:41:58.003Z</time></trkpt><trkpt lat="42.274258314497644" lon="12.915352398536625"><ele>522.0</ele><time>2026-04-19T15:41:59.003Z</time></trkpt><trkpt lat="42.27440794040411" lon="12.91535712584928"><ele>522.0</ele><time>2026-04-19T15:42:00.003Z</time></trkpt><trkpt lat="42.27454115884961" lon="12.915364170957075"><ele>522.0</ele><time>2026-04-19T15:42:01.003Z</time></trkpt><trkpt lat="42.27466347757458" lon="12.915394939934238"><ele>522.0</ele><time>2026-04-19T15:42:02.003Z</time></trkpt><trkpt lat="42.2747799333456" lon="12.915444233793659"><ele>522.0</ele><time>2026-04-19T15:42:03.003Z</time></trkpt><trkpt lat="42.27488542143019" lon="12.91552761840358"><ele>522.0</ele><time>2026-04-19T15:42:04.003Z</time></trkpt><trkpt lat="42.27498022417762" lon="12.9156444983418"><ele>524.5</ele><time>2026-04-19T15:42:05.006Z</time></trkpt><trkpt lat="42.27506206661356" lon="12.915779354186103"><ele>527.0</ele><time>2026-04-19T15:42:06.005Z</time></trkpt><trkpt lat="42.27514808283305" lon="12.915917536780762"><ele>529.5</ele><time>2026-04-19T15:42:07.005Z</time></trkpt><trkpt lat="42.27523781755492" lon="12.916060899206578"><ele>532.0</ele><time>2026-04-19T15:42:08.005Z</time></trkpt><trkpt lat="42.27534545903658" lon="12.916195974415077"><ele>528.0</ele><time>2026-04-19T15:42:09.005Z</time></trkpt><trkpt lat="42.275468352601955" lon="12.916312365814752"><ele>524.0</ele><time>2026-04-19T15:42:10.005Z</time></trkpt><trkpt lat="42.275593327264886" lon="12.916420607029897"><ele>520.0</ele><time>2026-04-19T15:42:11.005Z</time></trkpt><trkpt lat="42.275726253999125" lon="12.916508661764228"><ele>516.0</ele><time>2026-04-19T15:42:12.006Z</time></trkpt><trkpt lat="42.275855538822185" lon="12.916566482829444"><ele>516.0</ele><time>2026-04-19T15:42:13.006Z</time></trkpt><trkpt lat="42.275985516204976" lon="12.916596345482379"><ele>516.0</ele><time>2026-04-19T15:42:14.006Z</time></trkpt><trkpt lat="42.27611495646281" lon="12.916601667944086"><ele>516.0</ele><time>2026-04-19T15:42:15.006Z</time></trkpt><trkpt lat="42.27624739169753" lon="12.916582666472785"><ele>516.0</ele><time>2026-04-19T15:42:16.006Z</time></trkpt><trkpt lat="42.276391839712915" lon="12.916541921343878"><ele>515.75</ele><time>2026-04-19T15:42:17.006Z</time></trkpt><trkpt lat="42.27653201961341" lon="12.91651114719725"><ele>515.5</ele><time>2026-04-19T15:42:18.005Z</time></trkpt><trkpt lat="42.2766756812473" lon="12.916486094498257"><ele>515.25</ele><time>2026-04-19T15:42:19.005Z</time></trkpt><trkpt lat="42.2768158743746" lon="12.91643869118141"><ele>515.0</ele><time>2026-04-19T15:42:20.005Z</time></trkpt><trkpt lat="42.276947217801606" lon="12.916396159055594"><ele>515.0</ele><time>2026-04-19T15:42:21.005Z</time></trkpt><trkpt lat="42.27707176040926" lon="12.916296584814638"><ele>515.0</ele><time>2026-04-19T15:42:22.005Z</time></trkpt><trkpt lat="42.27718278112248" lon="12.916154254287363"><ele>515.0</ele><time>2026-04-19T15:42:23.005Z</time></trkpt><trkpt lat="42.27729315478118" lon="12.916008102795361"><ele>512.6666666666666</ele><time>2026-04-19T15:42:24.005Z</time></trkpt><trkpt lat="42.27739918548743" lon="12.915848049700788"><ele>510.33333333333337</ele><time>2026-04-19T15:42:25.005Z</time></trkpt><trkpt lat="42.27749871953089" lon="12.915691775586051"><ele>508.0</ele><time>2026-04-19T15:42:26.005Z</time></trkpt><trkpt lat="42.277596423259936" lon="12.915532112132395"><ele>508.0</ele><time>2026-04-19T15:42:27.005Z</time></trkpt><trkpt lat="42.277698458231136" lon="12.915375991991127"><ele>508.0</ele><time>2026-04-19T15:42:28.005Z</time></trkpt><trkpt lat="42.27781125251641" lon="12.91523188775565"><ele>508.0</ele><time>2026-04-19T15:42:29.005Z</time></trkpt><trkpt lat="42.277927895054994" lon="12.915085679353483"><ele>504.33333333333337</ele><time>2026-04-19T15:42:30.005Z</time></trkpt><trkpt lat="42.278052468412305" lon="12.914949526812913"><ele>500.66666666666663</ele><time>2026-04-19T15:42:31.005Z</time></trkpt><trkpt lat="42.27817875681001" lon="12.914820349313864"><ele>497.0</ele><time>2026-04-19T15:42:32.005Z</time></trkpt><trkpt lat="42.27830811492064" lon="12.914703395630859"><ele>497.0</ele><time>2026-04-19T15:42:33.005Z</time></trkpt><trkpt lat="42.278455839430585" lon="12.914610247953464"><ele>497.0</ele><time>2026-04-19T15:42:34.005Z</time></trkpt><trkpt lat="42.27860564230727" lon="12.914533915197508"><ele>497.0</ele><time>2026-04-19T15:42:35.005Z</time></trkpt><trkpt lat="42.27876039793849" lon="12.914473412630993"><ele>497.0</ele><time>2026-04-19T15:42:36.005Z</time></trkpt><trkpt lat="42.27891373718275" lon="12.914416399352854"><ele>497.0</ele><time>2026-04-19T15:42:37.005Z</time></trkpt><trkpt lat="42.27906879047967" lon="12.91436482205958"><ele>497.0</ele><time>2026-04-19T15:42:38.005Z</time></trkpt><trkpt lat="42.27922968894899" lon="12.914320598858518"><ele>492.0</ele><time>2026-04-19T15:42:39.005Z</time></trkpt><trkpt lat="42.27937793331897" lon="12.914280985217916"><ele>487.0</ele><time>2026-04-19T15:42:40.005Z</time></trkpt><trkpt lat="42.27951732824627" lon="12.914260375800705"><ele>482.0</ele><time>2026-04-19T15:42:41.005Z</time></trkpt><trkpt lat="42.27965597091324" lon="12.914269294298704"><ele>477.0</ele><time>2026-04-19T15:42:42.005Z</time></trkpt><trkpt lat="42.279782934901334" lon="12.914322349561422"><ele>476.5</ele><time>2026-04-19T15:42:43.005Z</time></trkpt><trkpt lat="42.27990628181451" lon="12.914397796013928"><ele>476.0</ele><time>2026-04-19T15:42:44.005Z</time></trkpt><trkpt lat="42.280030240884564" lon="12.914487873082967"><ele>475.5</ele><time>2026-04-19T15:42:45.005Z</time></trkpt><trkpt lat="42.28015718670524" lon="12.91458402821498"><ele>475.0</ele><time>2026-04-19T15:42:46.005Z</time></trkpt><trkpt lat="42.28029942974818" lon="12.91466752348456"><ele>475.0</ele><time>2026-04-19T15:42:47.005Z</time></trkpt><trkpt lat="42.28044769620372" lon="12.914751943725586"><ele>475.0</ele><time>2026-04-19T15:42:48.005Z</time></trkpt><trkpt lat="42.2805990584418" lon="12.914851008108425"><ele>475.0</ele><time>2026-04-19T15:42:49.005Z</time></trkpt><trkpt lat="42.28074610165303" lon="12.914949796515293"><ele>478.6666666666667</ele><time>2026-04-19T15:42:50.005Z</time></trkpt><trkpt lat="42.28089275510867" lon="12.915053252429106"><ele>482.33333333333337</ele><time>2026-04-19T15:42:51.005Z</time></trkpt><trkpt lat="42.2810433617478" lon="12.915148626820006"><ele>486.0</ele><time>2026-04-19T15:42:52.005Z</time></trkpt><trkpt lat="42.28119159999551" lon="12.915239899265758"><ele>479.0</ele><time>2026-04-19T15:42:53.005Z</time></trkpt><trkpt lat="42.28134057696755" lon="12.915325022870984"><ele>472.0</ele><time>2026-04-19T15:42:54.005Z</time></trkpt><trkpt lat="42.281490996057315" lon="12.915413857001417"><ele>465.0</ele><time>2026-04-19T15:42:55.005Z</time></trkpt><trkpt lat="42.28164190192922" lon="12.91550718248206"><ele>465.0</ele><time>2026-04-19T15:42:56.005Z</time></trkpt><trkpt lat="42.28179429646658" lon="12.915589371329274"><ele>465.0</ele><time>2026-04-19T15:42:57.005Z</time></trkpt><trkpt lat="42.281943990617954" lon="12.915661750482133"><ele>465.0</ele><time>2026-04-19T15:42:58.005Z</time></trkpt><trkpt lat="42.28210050037842" lon="12.915717623660584"><ele>465.0</ele><time>2026-04-19T15:42:59.005Z</time></trkpt><trkpt lat="42.282260940175696" lon="12.915754723379024"><ele>465.0</ele><time>2026-04-19T15:43:00.005Z</time></trkpt><trkpt lat="42.28242562340569" lon="12.915778559423943"><ele>465.0</ele><time>2026-04-19T15:43:01.005Z</time></trkpt><trkpt lat="42.28259974862461" lon="12.915789997605884"><ele>464.33333333333337</ele><time>2026-04-19T15:43:02.005Z</time></trkpt><trkpt lat="42.28277561605914" lon="12.915788455394681"><ele>463.6666666666667</ele><time>2026-04-19T15:43:03.005Z</time></trkpt><trkpt lat="42.2829488955652" lon="12.915779569497223"><ele>463.0</ele><time>2026-04-19T15:43:04.005Z</time></trkpt><trkpt lat="42.283125933513695" lon="12.915769362610712"><ele>463.0</ele><time>2026-04-19T15:43:05.005Z</time></trkpt><trkpt lat="42.28331154275259" lon="12.915743752840129"><ele>463.0</ele><time>2026-04-19T15:43:06.005Z</time></trkpt><trkpt lat="42.283493354939225" lon="12.915711151292582"><ele>463.0</ele><time>2026-04-19T15:43:07.005Z</time></trkpt><trkpt lat="42.28367773311581" lon="12.915676072830465"><ele>463.0</ele><time>2026-04-19T15:43:08.005Z</time></trkpt><trkpt lat="42.283857584364924" lon="12.915632123687562"><ele>463.0</ele><time>2026-04-19T15:43:09.005Z</time></trkpt><trkpt lat="42.284032168251" lon="12.915584257529853"><ele>463.0</ele><time>2026-04-19T15:43:10.005Z</time></trkpt><trkpt lat="42.284205846449325" lon="12.915524249739711"><ele>458.33333333333337</ele><time>2026-04-19T15:43:11.005Z</time></trkpt><trkpt lat="42.284376769240964" lon="12.915449877099531"><ele>453.66666666666663</ele><time>2026-04-19T15:43:12.005Z</time></trkpt><trkpt lat="42.28454065698555" lon="12.915359926918761"><ele>449.0</ele><time>2026-04-19T15:43:13.005Z</time></trkpt><trkpt lat="42.28469686793438" lon="12.915253340737477"><ele>450.3333333333333</ele><time>2026-04-19T15:43:14.005Z</time></trkpt><trkpt lat="42.28485107289799" lon="12.91512915232601"><ele>451.66666666666663</ele><time>2026-04-19T15:43:15.005Z</time></trkpt><trkpt lat="42.28499666923432" lon="12.914984379125954"><ele>453.0</ele><time>2026-04-19T15:43:16.005Z</time></trkpt><trkpt lat="42.2851201410407" lon="12.914817444102464"><ele>453.0</ele><time>2026-04-19T15:43:17.005Z</time></trkpt><trkpt lat="42.28525010879541" lon="12.914652109899526"><ele>453.0</ele><time>2026-04-19T15:43:18.005Z</time></trkpt><trkpt lat="42.2853709145448" lon="12.914477110694117"><ele>453.0</ele><time>2026-04-19T15:43:19.005Z</time></trkpt><trkpt lat="42.285486596492" lon="12.914299723936328"><ele>448.66666666666663</ele><time>2026-04-19T15:43:20.005Z</time></trkpt><trkpt lat="42.28560413918022" lon="12.914125017009205"><ele>444.3333333333333</ele><time>2026-04-19T15:43:21.005Z</time></trkpt><trkpt lat="42.2857249467346" lon="12.913949865492627"><ele>440.0</ele><time>2026-04-19T15:43:22.005Z</time></trkpt><trkpt lat="42.28583978564127" lon="12.913773448557487"><ele>440.0</ele><time>2026-04-19T15:43:23.005Z</time></trkpt><trkpt lat="42.285959416452556" lon="12.913603889305596"><ele>440.0</ele><time>2026-04-19T15:43:24.005Z</time></trkpt><trkpt lat="42.28607182163421" lon="12.913446939470598"><ele>440.0</ele><time>2026-04-19T15:43:25.004Z</time></trkpt><trkpt lat="42.28620761187643" lon="12.913297321841338"><ele>439.0</ele><time>2026-04-19T15:43:26.004Z</time></trkpt><trkpt lat="42.286341001134396" lon="12.913165090358145"><ele>438.0</ele><time>2026-04-19T15:43:27.004Z</time></trkpt><trkpt lat="42.28648258358187" lon="12.913046075331156"><ele>437.0</ele><time>2026-04-19T15:43:28.004Z</time></trkpt><trkpt lat="42.28662714205828" lon="12.912931624756247"><ele>437.0</ele><time>2026-04-19T15:43:29.004Z</time></trkpt><trkpt lat="42.28677666499058" lon="12.91282320893695"><ele>437.0</ele><time>2026-04-19T15:43:30.004Z</time></trkpt><trkpt lat="42.286929153436986" lon="12.912713718092514"><ele>437.0</ele><time>2026-04-19T15:43:31.004Z</time></trkpt><trkpt lat="42.28708650321833" lon="12.91261015818907"><ele>438.3333333333333</ele><time>2026-04-19T15:43:32.004Z</time></trkpt><trkpt lat="42.28724953481456" lon="12.912506814887502"><ele>439.66666666666663</ele><time>2026-04-19T15:43:33.004Z</time></trkpt><trkpt lat="42.28742306789045" lon="12.912412170472615"><ele>441.0</ele><time>2026-04-19T15:43:34.004Z</time></trkpt><trkpt lat="42.287602062419005" lon="12.91233620690969"><ele>441.0</ele><time>2026-04-19T15:43:35.004Z</time></trkpt><trkpt lat="42.28778345623717" lon="12.9122822761604"><ele>441.0</ele><time>2026-04-19T15:43:36.004Z</time></trkpt><trkpt lat="42.28795927689733" lon="12.912237083352577"><ele>441.0</ele><time>2026-04-19T15:43:37.004Z</time></trkpt><trkpt lat="42.28813963666371" lon="12.912220629801364"><ele>438.0</ele><time>2026-04-19T15:43:38.004Z</time></trkpt><trkpt lat="42.28832796784736" lon="12.912203446663995"><ele>435.0</ele><time>2026-04-19T15:43:39.004Z</time></trkpt><trkpt lat="42.288515102453744" lon="12.912203661864675"><ele>432.0</ele><time>2026-04-19T15:43:40.004Z</time></trkpt><trkpt lat="42.288703362137944" lon="12.91221136398157"><ele>432.0</ele><time>2026-04-19T15:43:41.004Z</time></trkpt><trkpt lat="42.28889666540002" lon="12.912208640326146"><ele>432.0</ele><time>2026-04-19T15:43:42.004Z</time></trkpt><trkpt lat="42.289084810621496" lon="12.91224516516769"><ele>432.0</ele><time>2026-04-19T15:43:43.004Z</time></trkpt><trkpt lat="42.28927168328" lon="12.912294138576302"><ele>432.0</ele><time>2026-04-19T15:43:44.004Z</time></trkpt><trkpt lat="42.28945810140888" lon="12.912353766622058"><ele>432.0</ele><time>2026-04-19T15:43:45.004Z</time></trkpt><trkpt lat="42.28964030453299" lon="12.912414566653066"><ele>432.0</ele><time>2026-04-19T15:43:46.004Z</time></trkpt><trkpt lat="42.2898136345285" lon="12.912479043819895"><ele>435.33333333333337</ele><time>2026-04-19T15:43:47.004Z</time></trkpt><trkpt lat="42.289988185763946" lon="12.912556113546506"><ele>438.6666666666667</ele><time>2026-04-19T15:43:48.004Z</time></trkpt><trkpt lat="42.290145757427304" lon="12.912643684521933"><ele>442.0</ele><time>2026-04-19T15:43:49.004Z</time></trkpt><trkpt lat="42.29030218881285" lon="12.912728383268032"><ele>437.33333333333337</ele><time>2026-04-19T15:43:50.004Z</time></trkpt><trkpt lat="42.29045398888874" lon="12.912816429007252"><ele>432.66666666666663</ele><time>2026-04-19T15:43:51.004Z</time></trkpt><trkpt lat="42.29060613733367" lon="12.912909868292612"><ele>428.0</ele><time>2026-04-19T15:43:52.004Z</time></trkpt><trkpt lat="42.29074700396474" lon="12.913010028119054"><ele>428.0</ele><time>2026-04-19T15:43:53.004Z</time></trkpt><trkpt lat="42.290881076311095" lon="12.913120418813918"><ele>428.0</ele><time>2026-04-19T15:43:54.004Z</time></trkpt><trkpt lat="42.29102096244722" lon="12.91320182062076"><ele>428.0</ele><time>2026-04-19T15:43:55.004Z</time></trkpt><trkpt lat="42.29116997221221" lon="12.91325784245273"><ele>428.0</ele><time>2026-04-19T15:43:56.004Z</time></trkpt><trkpt lat="42.291323451755" lon="12.913285130207571"><ele>428.0</ele><time>2026-04-19T15:43:57.004Z</time></trkpt><trkpt lat="42.29148314700496" lon="12.91328235526386"><ele>428.0</ele><time>2026-04-19T15:43:58.004Z</time></trkpt><trkpt lat="42.291642148879944" lon="12.913254442104554"><ele>430.0</ele><time>2026-04-19T15:43:59.004Z</time></trkpt><trkpt lat="42.29179458595538" lon="12.913225682193088"><ele>432.0</ele><time>2026-04-19T15:44:00.004Z</time></trkpt><trkpt lat="42.29195996164458" lon="12.91318399208055"><ele>434.0</ele><time>2026-04-19T15:44:01.004Z</time></trkpt><trkpt lat="42.29212628278322" lon="12.91311815409768"><ele>431.0</ele><time>2026-04-19T15:44:02.004Z</time></trkpt><trkpt lat="42.29228522859764" lon="12.913030096189178"><ele>428.0</ele><time>2026-04-19T15:44:03.004Z</time></trkpt><trkpt lat="42.292432211496994" lon="12.912906488196771"><ele>425.0</ele><time>2026-04-19T15:44:04.004Z</time></trkpt><trkpt lat="42.2925798540326" lon="12.912779223548808"><ele>425.0</ele><time>2026-04-19T15:44:05.004Z</time></trkpt><trkpt lat="42.29272640091696" lon="12.912645192015612"><ele>425.0</ele><time>2026-04-19T15:44:06.004Z</time></trkpt><trkpt lat="42.29287869847027" lon="12.912508148552801"><ele>425.0</ele><time>2026-04-19T15:44:07.004Z</time></trkpt><trkpt lat="42.2930290957645" lon="12.912377067209809"><ele>425.66666666666663</ele><time>2026-04-19T15:44:08.004Z</time></trkpt><trkpt lat="42.293182439150684" lon="12.912241453691875"><ele>426.33333333333337</ele><time>2026-04-19T15:44:09.004Z</time></trkpt><trkpt lat="42.2933414807455" lon="12.912103990468221"><ele>427.0</ele><time>2026-04-19T15:44:10.004Z</time></trkpt><trkpt lat="42.293500837974584" lon="12.91195289893134"><ele>427.0</ele><time>2026-04-19T15:44:11.006Z</time></trkpt><trkpt lat="42.29365643140779" lon="12.911792152334492"><ele>427.0</ele><time>2026-04-19T15:44:12.006Z</time></trkpt><trkpt lat="42.29381272383853" lon="12.911637630158747"><ele>427.0</ele><time>2026-04-19T15:44:13.006Z</time></trkpt><trkpt lat="42.29397257558356" lon="12.911482657822376"><ele>426.33333333333337</ele><time>2026-04-19T15:44:14.006Z</time></trkpt><trkpt lat="42.294136286763305" lon="12.911341658099973"><ele>425.66666666666663</ele><time>2026-04-19T15:44:15.006Z</time></trkpt><trkpt lat="42.29430577300791" lon="12.911218320204549"><ele>425.0</ele><time>2026-04-19T15:44:16.006Z</time></trkpt><trkpt lat="42.294481059456515" lon="12.911103013093443"><ele>425.0</ele><time>2026-04-19T15:44:17.007Z</time></trkpt><trkpt lat="42.2946613850749" lon="12.910987142650809"><ele>425.0</ele><time>2026-04-19T15:44:18.007Z</time></trkpt><trkpt lat="42.2948413222159" lon="12.910879041389942"><ele>425.0</ele><time>2026-04-19T15:44:19.007Z</time></trkpt><trkpt lat="42.29503425440293" lon="12.910805820790554"><ele>425.0</ele><time>2026-04-19T15:44:20.006Z</time></trkpt><trkpt lat="42.29521882878296" lon="12.910697685475576"><ele>425.0</ele><time>2026-04-19T15:44:21.006Z</time></trkpt><trkpt lat="42.295410027678194" lon="12.910658243380388"><ele>425.0</ele><time>2026-04-19T15:44:22.006Z</time></trkpt><trkpt lat="42.2955995989306" lon="12.910604816790698"><ele>422.66666666666663</ele><time>2026-04-19T15:44:23.007Z</time></trkpt><trkpt lat="42.29579419503827" lon="12.910561567160869"><ele>420.33333333333337</ele><time>2026-04-19T15:44:24.006Z</time></trkpt><trkpt lat="42.29598799997313" lon="12.910525843234591"><ele>418.0</ele><time>2026-04-19T15:44:25.006Z</time></trkpt><trkpt lat="42.29617997480923" lon="12.910501864536071"><ele>418.0</ele><time>2026-04-19T15:44:26.006Z</time></trkpt><trkpt lat="42.29637128306158" lon="12.910488699549939"><ele>418.0</ele><time>2026-04-19T15:44:27.006Z</time></trkpt><trkpt lat="42.29656014533852" lon="12.910461850001026"><ele>418.0</ele><time>2026-04-19T15:44:28.006Z</time></trkpt><trkpt lat="42.296745569123836" lon="12.910468087934145"><ele>418.0</ele><time>2026-04-19T15:44:29.006Z</time></trkpt><trkpt lat="42.29693141581235" lon="12.910483716681085"><ele>418.0</ele><time>2026-04-19T15:44:30.006Z</time></trkpt><trkpt lat="42.29711474682545" lon="12.910510852019106"><ele>418.0</ele><time>2026-04-19T15:44:31.006Z</time></trkpt><trkpt lat="42.297297272734426" lon="12.910547014307165"><ele>418.6666666666667</ele><time>2026-04-19T15:44:32.006Z</time></trkpt><trkpt lat="42.297479717378764" lon="12.9105878582283"><ele>419.33333333333337</ele><time>2026-04-19T15:44:33.006Z</time></trkpt><trkpt lat="42.297665275083325" lon="12.910636299911687"><ele>420.0</ele><time>2026-04-19T15:44:34.006Z</time></trkpt><trkpt lat="42.297841812945556" lon="12.910686742837077"><ele>420.0</ele><time>2026-04-19T15:44:35.006Z</time></trkpt><trkpt lat="42.29801388444021" lon="12.910731712934949"><ele>420.0</ele><time>2026-04-19T15:44:36.006Z</time></trkpt><trkpt lat="42.298183877878934" lon="12.910778349680857"><ele>420.0</ele><time>2026-04-19T15:44:37.006Z</time></trkpt><trkpt lat="42.29835401398167" lon="12.910820236524694"><ele>419.66666666666663</ele><time>2026-04-19T15:44:38.006Z</time></trkpt><trkpt lat="42.298524000865726" lon="12.910862194715202"><ele>419.3333333333333</ele><time>2026-04-19T15:44:39.006Z</time></trkpt><trkpt lat="42.298697745020924" lon="12.91090141209811"><ele>419.0</ele><time>2026-04-19T15:44:40.006Z</time></trkpt><trkpt lat="42.29887330838302" lon="12.910938045519888"><ele>423.66666666666663</ele><time>2026-04-19T15:44:41.006Z</time></trkpt><trkpt lat="42.29905267725529" lon="12.910969264121388"><ele>428.33333333333337</ele><time>2026-04-19T15:44:42.006Z</time></trkpt><trkpt lat="42.299233045408265" lon="12.910984672075015"><ele>433.0</ele><time>2026-04-19T15:44:43.006Z</time></trkpt><trkpt lat="42.29941974022068" lon="12.910991068901767"><ele>433.0</ele><time>2026-04-19T15:44:44.006Z</time></trkpt><trkpt lat="42.2996114012363" lon="12.910978334353604"><ele>433.0</ele><time>2026-04-19T15:44:45.006Z</time></trkpt><trkpt lat="42.29980608056841" lon="12.910938839218261"><ele>433.0</ele><time>2026-04-19T15:44:46.006Z</time></trkpt><trkpt lat="42.299999525596895" lon="12.910876921473536"><ele>430.33333333333337</ele><time>2026-04-19T15:44:47.006Z</time></trkpt><trkpt lat="42.300179494330486" lon="12.910811954637376"><ele>427.66666666666663</ele><time>2026-04-19T15:44:48.006Z</time></trkpt><trkpt lat="42.300356045468504" lon="12.91074738395528"><ele>425.0</ele><time>2026-04-19T15:44:49.006Z</time></trkpt><trkpt lat="42.300535811192454" lon="12.910682650673762"><ele>428.0</ele><time>2026-04-19T15:44:50.006Z</time></trkpt><trkpt lat="42.30072781453597" lon="12.910616184493994"><ele>431.0</ele><time>2026-04-19T15:44:51.006Z</time></trkpt><trkpt lat="42.30093473194227" lon="12.910538788968278"><ele>434.0</ele><time>2026-04-19T15:44:52.006Z</time></trkpt><trkpt lat="42.30116652164056" lon="12.910473014306588"><ele>434.0</ele><time>2026-04-19T15:44:53.006Z</time></trkpt><trkpt lat="42.301388845245235" lon="12.910359499105232"><ele>434.0</ele><time>2026-04-19T15:44:54.006Z</time></trkpt><trkpt lat="42.3016197992571" lon="12.910254044290841"><ele>438.5</ele><time>2026-04-19T15:44:55.006Z</time></trkpt><trkpt lat="42.30185148220236" lon="12.910143772297062"><ele>443.0</ele><time>2026-04-19T15:44:56.006Z</time></trkpt><trkpt lat="42.30206891652727" lon="12.910007143738943"><ele>433.5</ele><time>2026-04-19T15:44:57.006Z</time></trkpt><trkpt lat="42.30229254604066" lon="12.909881979371862"><ele>424.0</ele><time>2026-04-19T15:44:58.006Z</time></trkpt><trkpt lat="42.30248614964693" lon="12.909676635885239"><ele>424.0</ele><time>2026-04-19T15:44:59.006Z</time></trkpt><trkpt lat="42.30268809995058" lon="12.909520657662785"><ele>424.0</ele><time>2026-04-19T15:45:00.006Z</time></trkpt><trkpt lat="42.302884552665304" lon="12.909344811718237"><ele>420.0</ele><time>2026-04-19T15:45:01.006Z</time></trkpt><trkpt lat="42.3030883464617" lon="12.90917699929844"><ele>416.0</ele><time>2026-04-19T15:45:02.006Z</time></trkpt><trkpt lat="42.30328970733006" lon="12.909029717449997"><ele>416.0</ele><time>2026-04-19T15:45:03.006Z</time></trkpt><trkpt lat="42.303500071731776" lon="12.908901237794995"><ele>416.0</ele><time>2026-04-19T15:45:04.006Z</time></trkpt><trkpt lat="42.30371597504466" lon="12.90880318701776"><ele>416.3333333333333</ele><time>2026-04-19T15:45:05.006Z</time></trkpt><trkpt lat="42.30393529618234" lon="12.908740854136047"><ele>416.66666666666663</ele><time>2026-04-19T15:45:06.006Z</time></trkpt><trkpt lat="42.304152885231055" lon="12.90871075633902"><ele>417.0</ele><time>2026-04-19T15:45:07.006Z</time></trkpt><trkpt lat="42.30436809154258" lon="12.908704330814809"><ele>417.0</ele><time>2026-04-19T15:45:08.006Z</time></trkpt><trkpt lat="42.30458070920564" lon="12.908715720624945"><ele>417.0</ele><time>2026-04-19T15:45:09.006Z</time></trkpt><trkpt lat="42.30478276292856" lon="12.908750500964725"><ele>417.0</ele><time>2026-04-19T15:45:10.006Z</time></trkpt><trkpt lat="42.30499091473275" lon="12.908811388674218"><ele>417.33333333333337</ele><time>2026-04-19T15:45:11.006Z</time></trkpt><trkpt lat="42.30520162897426" lon="12.90887999371027"><ele>417.6666666666667</ele><time>2026-04-19T15:45:12.006Z</time></trkpt><trkpt lat="42.30541126059424" lon="12.90895394111672"><ele>418.0</ele><time>2026-04-19T15:45:13.006Z</time></trkpt><trkpt lat="42.30562049955291" lon="12.909041727528948"><ele>417.33333333333337</ele><time>2026-04-19T15:45:14.006Z</time></trkpt><trkpt lat="42.30582178222603" lon="12.909129247077301"><ele>416.66666666666663</ele><time>2026-04-19T15:45:15.006Z</time></trkpt><trkpt lat="42.30602562652901" lon="12.909213571864829"><ele>416.0</ele><time>2026-04-19T15:45:16.006Z</time></trkpt><trkpt lat="42.30623393693159" lon="12.909295158917654"><ele>421.3333333333333</ele><time>2026-04-19T15:45:17.006Z</time></trkpt><trkpt lat="42.30644121865709" lon="12.909370385420948"><ele>426.66666666666663</ele><time>2026-04-19T15:45:18.006Z</time></trkpt><trkpt lat="42.30664938913028" lon="12.909434014615487"><ele>432.0</ele><time>2026-04-19T15:45:19.006Z</time></trkpt><trkpt lat="42.306860596808725" lon="12.909482645275428"><ele>432.0</ele><time>2026-04-19T15:45:20.006Z</time></trkpt><trkpt lat="42.3070847077211" lon="12.90948754431735"><ele>432.0</ele><time>2026-04-19T15:45:21.006Z</time></trkpt><trkpt lat="42.307309821943456" lon="12.909464402886934"><ele>432.5</ele><time>2026-04-19T15:45:22.006Z</time></trkpt><trkpt lat="42.30753597528168" lon="12.909430968224425"><ele>433.0</ele><time>2026-04-19T15:45:23.006Z</time></trkpt><trkpt lat="42.30776407540166" lon="12.90938948987502"><ele>433.0</ele><time>2026-04-19T15:45:24.006Z</time></trkpt><trkpt lat="42.307991828415496" lon="12.909340364479384"><ele>433.0</ele><time>2026-04-19T15:45:25.005Z</time></trkpt><trkpt lat="42.30821539832259" lon="12.909281619031752"><ele>424.0</ele><time>2026-04-19T15:45:26.005Z</time></trkpt><trkpt lat="42.30843047586416" lon="12.909223083877079"><ele>415.0</ele><time>2026-04-19T15:45:27.005Z</time></trkpt><trkpt lat="42.30866569493067" lon="12.909132258680202"><ele>415.0</ele><time>2026-04-19T15:45:28.005Z</time></trkpt><trkpt lat="42.30890489914999" lon="12.909041694822914"><ele>415.0</ele><time>2026-04-19T15:45:29.005Z</time></trkpt><trkpt lat="42.309118421703985" lon="12.90898120563487"><ele>415.33333333333337</ele><time>2026-04-19T15:45:30.005Z</time></trkpt><trkpt lat="42.30931547553446" lon="12.908923779182205"><ele>415.66666666666663</ele><time>2026-04-19T15:45:31.005Z</time></trkpt><trkpt lat="42.30947509829281" lon="12.90889568329068"><ele>416.0</ele><time>2026-04-19T15:45:32.005Z</time></trkpt><trkpt lat="42.30946438287849" lon="12.909311363222338"><ele>416.0</ele><time>2026-04-19T15:45:33.005Z</time></trkpt><trkpt lat="42.3096320929818" lon="12.909233124249653"><ele>416.0</ele><time>2026-04-19T15:45:34.005Z</time></trkpt><trkpt lat="42.30979389778081" lon="12.909159543741248"><ele>416.0</ele><time>2026-04-19T15:45:35.005Z</time></trkpt><trkpt lat="42.309945096409585" lon="12.909076396913783"><ele>418.66666666666663</ele><time>2026-04-19T15:45:36.005Z</time></trkpt><trkpt lat="42.31008730170687" lon="12.908957939033245"><ele>421.33333333333337</ele><time>2026-04-19T15:45:37.005Z</time></trkpt><trkpt lat="42.31022342294905" lon="12.90882734764654"><ele>424.0</ele><time>2026-04-19T15:45:38.005Z</time></trkpt><trkpt lat="42.310354022307756" lon="12.908684489250392"><ele>424.0</ele><time>2026-04-19T15:45:39.005Z</time></trkpt><trkpt lat="42.31047193661911" lon="12.908499347084353"><ele>424.0</ele><time>2026-04-19T15:45:40.005Z</time></trkpt><trkpt lat="42.31058231388486" lon="12.908295130866744"><ele>424.0</ele><time>2026-04-19T15:45:41.005Z</time></trkpt><trkpt lat="42.31069884315839" lon="12.908088794575562"><ele>421.6666666666667</ele><time>2026-04-19T15:45:42.005Z</time></trkpt><trkpt lat="42.31082230252058" lon="12.907912047997291"><ele>419.33333333333337</ele><time>2026-04-19T15:45:43.005Z</time></trkpt><trkpt lat="42.31094058853331" lon="12.907718779553427"><ele>417.0</ele><time>2026-04-19T15:45:44.005Z</time></trkpt><trkpt lat="42.311064840898396" lon="12.907546603265573"><ele>417.0</ele><time>2026-04-19T15:45:45.005Z</time></trkpt><trkpt lat="42.31120089264382" lon="12.907398293905807"><ele>417.0</ele><time>2026-04-19T15:45:46.005Z</time></trkpt><trkpt lat="42.31135113404127" lon="12.907298714577077"><ele>417.0</ele><time>2026-04-19T15:45:47.005Z</time></trkpt><trkpt lat="42.31150910772804" lon="12.90723440655816"><ele>421.0</ele><time>2026-04-19T15:45:48.005Z</time></trkpt><trkpt lat="42.31167137077917" lon="12.907199278092392"><ele>425.0</ele><time>2026-04-19T15:45:49.005Z</time></trkpt><trkpt lat="42.31183697761374" lon="12.907172788565957"><ele>429.0</ele><time>2026-04-19T15:45:50.005Z</time></trkpt><trkpt lat="42.312001996413436" lon="12.907157330455618"><ele>429.0</ele><time>2026-04-19T15:45:51.005Z</time></trkpt><trkpt lat="42.31217386209473" lon="12.90716962624126"><ele>429.0</ele><time>2026-04-19T15:45:52.005Z</time></trkpt><trkpt lat="42.31235403728003" lon="12.90720567118185"><ele>429.0</ele><time>2026-04-19T15:45:53.005Z</time></trkpt><trkpt lat="42.31253316206251" lon="12.907259631812549"><ele>428.0</ele><time>2026-04-19T15:45:54.005Z</time></trkpt><trkpt lat="42.3127148365144" lon="12.907327776417008"><ele>427.0</ele><time>2026-04-19T15:45:55.005Z</time></trkpt><trkpt lat="42.31290304881652" lon="12.907439567123905"><ele>426.0</ele><time>2026-04-19T15:45:56.005Z</time></trkpt><trkpt lat="42.31308519595446" lon="12.907525301742705"><ele>432.66666666666663</ele><time>2026-04-19T15:45:57.005Z</time></trkpt><trkpt lat="42.31326744449199" lon="12.90761489878433"><ele>439.3333333333333</ele><time>2026-04-19T15:45:58.005Z</time></trkpt><trkpt lat="42.31344979495573" lon="12.907702212493142"><ele>446.0</ele><time>2026-04-19T15:45:59.005Z</time></trkpt><trkpt lat="42.31363197550267" lon="12.907786852052487"><ele>446.0</ele><time>2026-04-19T15:46:00.005Z</time></trkpt><trkpt lat="42.31381775232387" lon="12.907868237666381"><ele>446.0</ele><time>2026-04-19T15:46:01.005Z</time></trkpt><trkpt lat="42.314004526703364" lon="12.907943029629005"><ele>446.0</ele><time>2026-04-19T15:46:02.005Z</time></trkpt><trkpt lat="42.31418884568101" lon="12.90802469071291"><ele>443.0</ele><time>2026-04-19T15:46:03.005Z</time></trkpt><trkpt lat="42.31437157585695" lon="12.908114193085385"><ele>440.0</ele><time>2026-04-19T15:46:04.005Z</time></trkpt><trkpt lat="42.31455056352781" lon="12.908209042854308"><ele>437.0</ele><time>2026-04-19T15:46:05.005Z</time></trkpt><trkpt lat="42.31472671591963" lon="12.908301225384779"><ele>432.0</ele><time>2026-04-19T15:46:06.005Z</time></trkpt><trkpt lat="42.31491034936457" lon="12.908387944675065"><ele>427.0</ele><time>2026-04-19T15:46:07.005Z</time></trkpt><trkpt lat="42.31509001559176" lon="12.908470097152607"><ele>422.0</ele><time>2026-04-19T15:46:08.005Z</time></trkpt><trkpt lat="42.315271487376066" lon="12.908556959813149"><ele>425.66666666666663</ele><time>2026-04-19T15:46:09.005Z</time></trkpt><trkpt lat="42.3154470961318" lon="12.90865331276106"><ele>429.33333333333337</ele><time>2026-04-19T15:46:10.005Z</time></trkpt><trkpt lat="42.315615390082364" lon="12.908740784648824"><ele>433.0</ele><time>2026-04-19T15:46:11.005Z</time></trkpt><trkpt lat="42.31577753895064" lon="12.9088198047608"><ele>433.0</ele><time>2026-04-19T15:46:12.005Z</time></trkpt><trkpt lat="42.31593351703654" lon="12.908893096117538"><ele>433.0</ele><time>2026-04-19T15:46:13.005Z</time></trkpt><trkpt lat="42.31608694486724" lon="12.908952486341667"><ele>433.0</ele><time>2026-04-19T15:46:14.005Z</time></trkpt><trkpt lat="42.316232659382955" lon="12.908981765597536"><ele>433.0</ele><time>2026-04-19T15:46:15.005Z</time></trkpt><trkpt lat="42.3163765177414" lon="12.908972579472383"><ele>433.0</ele><time>2026-04-19T15:46:16.005Z</time></trkpt><trkpt lat="42.31652937816437" lon="12.908920479362818"><ele>433.0</ele><time>2026-04-19T15:46:17.007Z</time></trkpt><trkpt lat="42.316672322023194" lon="12.908833176799233"><ele>428.0</ele><time>2026-04-19T15:46:18.008Z</time></trkpt><trkpt lat="42.31679832785743" lon="12.908723265606259"><ele>423.0</ele><time>2026-04-19T15:46:19.008Z</time></trkpt><trkpt lat="42.31692174579822" lon="12.908597621197101"><ele>418.0</ele><time>2026-04-19T15:46:20.007Z</time></trkpt><trkpt lat="42.31706341659484" lon="12.908470285348656"><ele>416.33333333333337</ele><time>2026-04-19T15:46:21.007Z</time></trkpt><trkpt lat="42.31720349875145" lon="12.908333151082003"><ele>414.66666666666663</ele><time>2026-04-19T15:46:22.007Z</time></trkpt><trkpt lat="42.317351499570165" lon="12.908197644552779"><ele>413.0</ele><time>2026-04-19T15:46:23.007Z</time></trkpt><trkpt lat="42.31750676780749" lon="12.908050682581235"><ele>417.0</ele><time>2026-04-19T15:46:24.007Z</time></trkpt><trkpt lat="42.317670581204915" lon="12.907906046763236"><ele>421.0</ele><time>2026-04-19T15:46:25.007Z</time></trkpt><trkpt lat="42.317829774947825" lon="12.907757603042096"><ele>425.0</ele><time>2026-04-19T15:46:26.007Z</time></trkpt><trkpt lat="42.31798653712654" lon="12.907619871233235"><ele>425.0</ele><time>2026-04-19T15:46:27.007Z</time></trkpt><trkpt lat="42.31814181516527" lon="12.90748034701396"><ele>425.0</ele><time>2026-04-19T15:46:28.007Z</time></trkpt><trkpt lat="42.31829637510481" lon="12.907335966063734"><ele>425.0</ele><time>2026-04-19T15:46:29.008Z</time></trkpt><trkpt lat="42.31844014034436" lon="12.907183680859978"><ele>425.0</ele><time>2026-04-19T15:46:30.007Z</time></trkpt><trkpt lat="42.31857257169832" lon="12.907015968475143"><ele>425.0</ele><time>2026-04-19T15:46:31.007Z</time></trkpt><trkpt lat="42.318689222006014" lon="12.906822606639805"><ele>425.0</ele><time>2026-04-19T15:46:32.007Z</time></trkpt><trkpt lat="42.3187873057191" lon="12.90661009537683"><ele>423.66666666666663</ele><time>2026-04-19T15:46:33.007Z</time></trkpt><trkpt lat="42.31887528097035" lon="12.906378011833873"><ele>422.33333333333337</ele><time>2026-04-19T15:46:34.007Z</time></trkpt><trkpt lat="42.31895551648235" lon="12.906135761494031"><ele>421.0</ele><time>2026-04-19T15:46:35.007Z</time></trkpt><trkpt lat="42.319038208830264" lon="12.905886441545972"><ele>418.33333333333337</ele><time>2026-04-19T15:46:36.007Z</time></trkpt><trkpt lat="42.31912092094778" lon="12.905638091068669"><ele>415.66666666666663</ele><time>2026-04-19T15:46:37.007Z</time></trkpt><trkpt lat="42.319199350636566" lon="12.905389727900332"><ele>413.0</ele><time>2026-04-19T15:46:38.007Z</time></trkpt><trkpt lat="42.31927627744922" lon="12.905156135878022"><ele>412.0</ele><time>2026-04-19T15:46:39.007Z</time></trkpt><trkpt lat="42.319354872504576" lon="12.904928787184621"><ele>411.0</ele><time>2026-04-19T15:46:40.007Z</time></trkpt><trkpt lat="42.319436851264854" lon="12.90471396167368"><ele>410.0</ele><time>2026-04-19T15:46:41.007Z</time></trkpt><trkpt lat="42.31952509603666" lon="12.904522211465277"><ele>410.0</ele><time>2026-04-19T15:46:42.007Z</time></trkpt><trkpt lat="42.31963368803528" lon="12.904360024543198"><ele>410.0</ele><time>2026-04-19T15:46:43.007Z</time></trkpt><trkpt lat="42.319761159089595" lon="12.90422154362665"><ele>410.0</ele><time>2026-04-19T15:46:44.007Z</time></trkpt><trkpt lat="42.319900122755215" lon="12.904100989432697"><ele>412.3333333333333</ele><time>2026-04-19T15:46:45.007Z</time></trkpt><trkpt lat="42.3200434673646" lon="12.903997469457517"><ele>414.66666666666663</ele><time>2026-04-19T15:46:46.007Z</time></trkpt><trkpt lat="42.32020789338603" lon="12.903906382733828"><ele>417.0</ele><time>2026-04-19T15:46:47.007Z</time></trkpt><trkpt lat="42.32037717706199" lon="12.903831355318856"><ele>417.0</ele><time>2026-04-19T15:46:48.007Z</time></trkpt><trkpt lat="42.32054843252602" lon="12.9037636105921"><ele>417.0</ele><time>2026-04-19T15:46:49.007Z</time></trkpt><trkpt lat="42.32072817365553" lon="12.903704860370802"><ele>417.0</ele><time>2026-04-19T15:46:50.007Z</time></trkpt><trkpt lat="42.32090590400607" lon="12.903645541819765"><ele>420.66666666666663</ele><time>2026-04-19T15:46:51.007Z</time></trkpt><trkpt lat="42.32108402804162" lon="12.903585388803187"><ele>424.3333333333333</ele><time>2026-04-19T15:46:52.007Z</time></trkpt><trkpt lat="42.32126765181242" lon="12.903516284800867"><ele>428.0</ele><time>2026-04-19T15:46:53.007Z</time></trkpt><trkpt lat="42.32144876911734" lon="12.903447501939576"><ele>424.3333333333333</ele><time>2026-04-19T15:46:54.007Z</time></trkpt><trkpt lat="42.321628942415366" lon="12.903379872350833"><ele>420.66666666666663</ele><time>2026-04-19T15:46:55.007Z</time></trkpt><trkpt lat="42.32181066964896" lon="12.903318551420947"><ele>417.0</ele><time>2026-04-19T15:46:56.007Z</time></trkpt><trkpt lat="42.32199376695952" lon="12.903265913161052"><ele>417.0</ele><time>2026-04-19T15:46:57.007Z</time></trkpt><trkpt lat="42.322178655478595" lon="12.903226732558597"><ele>417.0</ele><time>2026-04-19T15:46:58.007Z</time></trkpt><trkpt lat="42.32235956101005" lon="12.903212818204828"><ele>417.0</ele><time>2026-04-19T15:46:59.007Z</time></trkpt><trkpt lat="42.322544403803896" lon="12.903204506910754"><ele>418.0</ele><time>2026-04-19T15:47:00.007Z</time></trkpt><trkpt lat="42.32272571984061" lon="12.903218336688916"><ele>419.0</ele><time>2026-04-19T15:47:01.007Z</time></trkpt><trkpt lat="42.32290915283409" lon="12.903234937785056"><ele>420.0</ele><time>2026-04-19T15:47:02.007Z</time></trkpt><trkpt lat="42.323100809136626" lon="12.903257650662853"><ele>420.0</ele><time>2026-04-19T15:47:03.007Z</time></trkpt><trkpt lat="42.323298492452814" lon="12.903288594972377"><ele>420.0</ele><time>2026-04-19T15:47:04.007Z</time></trkpt><trkpt lat="42.32349882081997" lon="12.903324680021932"><ele>420.0</ele><time>2026-04-19T15:47:05.007Z</time></trkpt><trkpt lat="42.32370274102724" lon="12.90336630344393"><ele>434.0</ele><time>2026-04-19T15:47:06.007Z</time></trkpt><trkpt lat="42.32390900694642" lon="12.903415285527824"><ele>448.0</ele><time>2026-04-19T15:47:07.007Z</time></trkpt><trkpt lat="42.32411547058016" lon="12.903457544576233"><ele>462.0</ele><time>2026-04-19T15:47:08.007Z</time></trkpt><trkpt lat="42.324320197274005" lon="12.903503413742447"><ele>462.0</ele><time>2026-04-19T15:47:09.007Z</time></trkpt><trkpt lat="42.324523827162736" lon="12.90354211180586"><ele>462.0</ele><time>2026-04-19T15:47:10.007Z</time></trkpt><trkpt lat="42.32472601785136" lon="12.90358514753823"><ele>462.0</ele><time>2026-04-19T15:47:11.007Z</time></trkpt><trkpt lat="42.32493129520758" lon="12.903614897092993"><ele>459.0</ele><time>2026-04-19T15:47:12.007Z</time></trkpt><trkpt lat="42.32513413710511" lon="12.903630336005715"><ele>456.0</ele><time>2026-04-19T15:47:13.007Z</time></trkpt><trkpt lat="42.325330680659725" lon="12.903632734239968"><ele>453.0</ele><time>2026-04-19T15:47:14.007Z</time></trkpt><trkpt lat="42.3255171240005" lon="12.903621305276095"><ele>450.66666666666663</ele><time>2026-04-19T15:47:15.007Z</time></trkpt><trkpt lat="42.32569458775896" lon="12.903610429930309"><ele>448.3333333333333</ele><time>2026-04-19T15:47:16.006Z</time></trkpt><trkpt lat="42.32586180377227" lon="12.903557610263555"><ele>446.0</ele><time>2026-04-19T15:47:17.006Z</time></trkpt><trkpt lat="42.326019128280755" lon="12.903484062478226"><ele>435.3333333333333</ele><time>2026-04-19T15:47:18.006Z</time></trkpt><trkpt lat="42.3261549393513" lon="12.903372087939735"><ele>424.66666666666663</ele><time>2026-04-19T15:47:19.006Z</time></trkpt><trkpt lat="42.326266780125984" lon="12.903222818838158"><ele>414.0</ele><time>2026-04-19T15:47:20.006Z</time></trkpt><trkpt lat="42.326371865889016" lon="12.90306428068976"><ele>413.66666666666663</ele><time>2026-04-19T15:47:21.006Z</time></trkpt><trkpt lat="42.32644331991367" lon="12.902868584057394"><ele>413.3333333333333</ele><time>2026-04-19T15:47:22.006Z</time></trkpt><trkpt lat="42.32648643322697" lon="12.902663754561962"><ele>413.0</ele><time>2026-04-19T15:47:23.006Z</time></trkpt><trkpt lat="42.32651670164679" lon="12.902453869935215"><ele>413.0</ele><time>2026-04-19T15:47:24.006Z</time></trkpt><trkpt lat="42.32651717705281" lon="12.902224492228212"><ele>413.0</ele><time>2026-04-19T15:47:25.006Z</time></trkpt><trkpt lat="42.326511002592994" lon="12.901980418375896"><ele>413.0</ele><time>2026-04-19T15:47:26.006Z</time></trkpt><trkpt lat="42.32651202622593" lon="12.901723564974933"><ele>413.66666666666663</ele><time>2026-04-19T15:47:27.006Z</time></trkpt><trkpt lat="42.326520718701516" lon="12.901470445795571"><ele>414.33333333333337</ele><time>2026-04-19T15:47:28.006Z</time></trkpt><trkpt lat="42.32652870666443" lon="12.901209860294365"><ele>415.0</ele><time>2026-04-19T15:47:29.006Z</time></trkpt><trkpt lat="42.32653381027998" lon="12.900942827948793"><ele>415.6666666666667</ele><time>2026-04-19T15:47:30.006Z</time></trkpt><trkpt lat="42.326536159867864" lon="12.900680007203173"><ele>416.33333333333337</ele><time>2026-04-19T15:47:31.006Z</time></trkpt><trkpt lat="42.32654081505597" lon="12.900417388616132"><ele>417.0</ele><time>2026-04-19T15:47:32.006Z</time></trkpt><trkpt lat="42.32656146089417" lon="12.900171818787921"><ele>415.66666666666663</ele><time>2026-04-19T15:47:33.006Z</time></trkpt><trkpt lat="42.32660294951713" lon="12.899966328589896"><ele>414.3333333333333</ele><time>2026-04-19T15:47:34.006Z</time></trkpt><trkpt lat="42.32666770279499" lon="12.899786487060705"><ele>413.0</ele><time>2026-04-19T15:47:35.006Z</time></trkpt><trkpt lat="42.326760119655525" lon="12.899625285501491"><ele>413.0</ele><time>2026-04-19T15:47:36.006Z</time></trkpt><trkpt lat="42.32687489780367" lon="12.899487528937989"><ele>413.0</ele><time>2026-04-19T15:47:37.006Z</time></trkpt><trkpt lat="42.326998985035985" lon="12.899361929961247"><ele>413.0</ele><time>2026-04-19T15:47:38.006Z</time></trkpt><trkpt lat="42.32713724926523" lon="12.899265764857867"><ele>413.0</ele><time>2026-04-19T15:47:39.006Z</time></trkpt><trkpt lat="42.32729054892619" lon="12.899198522748781"><ele>413.0</ele><time>2026-04-19T15:47:40.006Z</time></trkpt><trkpt lat="42.32745944990531" lon="12.899157147859924"><ele>413.0</ele><time>2026-04-19T15:47:41.006Z</time></trkpt><trkpt lat="42.32764962842008" lon="12.899126062242432"><ele>413.0</ele><time>2026-04-19T15:47:42.006Z</time></trkpt><trkpt lat="42.32782955065624" lon="12.899093022251424"><ele>413.0</ele><time>2026-04-19T15:47:43.006Z</time></trkpt><trkpt lat="42.32800643699188" lon="12.899058647316613"><ele>413.0</ele><time>2026-04-19T15:47:44.006Z</time></trkpt><trkpt lat="42.3281848492394" lon="12.899017785550944"><ele>415.66666666666663</ele><time>2026-04-19T15:47:45.006Z</time></trkpt><trkpt lat="42.32836352891057" lon="12.898979836749724"><ele>418.33333333333337</ele><time>2026-04-19T15:47:46.006Z</time></trkpt><trkpt lat="42.32854158816839" lon="12.898939294782139"><ele>421.0</ele><time>2026-04-19T15:47:47.006Z</time></trkpt><trkpt lat="42.32871723236307" lon="12.898875664403445"><ele>421.0</ele><time>2026-04-19T15:47:48.006Z</time></trkpt><trkpt lat="42.328875086111374" lon="12.898772283290722"><ele>421.0</ele><time>2026-04-19T15:47:49.006Z</time></trkpt><trkpt lat="42.329024330421674" lon="12.89864818748437"><ele>421.0</ele><time>2026-04-19T15:47:50.006Z</time></trkpt><trkpt lat="42.329157838138066" lon="12.898483739512528"><ele>420.0</ele><time>2026-04-19T15:47:51.006Z</time></trkpt><trkpt lat="42.329281810518005" lon="12.898294766160532"><ele>419.0</ele><time>2026-04-19T15:47:52.006Z</time></trkpt><trkpt lat="42.32940093376468" lon="12.898100654652799"><ele>418.0</ele><time>2026-04-19T15:47:53.006Z</time></trkpt><trkpt lat="42.329519217758474" lon="12.89792608614372"><ele>418.0</ele><time>2026-04-19T15:47:54.006Z</time></trkpt><trkpt lat="42.329616496317" lon="12.897742619004383"><ele>418.0</ele><time>2026-04-19T15:47:55.006Z</time></trkpt><trkpt lat="42.329702216893956" lon="12.897563347509024"><ele>418.0</ele><time>2026-04-19T15:47:56.006Z</time></trkpt><trkpt lat="42.32975689249463" lon="12.89735208461321"><ele>421.6666666666667</ele><time>2026-04-19T15:47:57.006Z</time></trkpt><trkpt lat="42.32978533338771" lon="12.897136002358865"><ele>425.33333333333337</ele><time>2026-04-19T15:47:58.006Z</time></trkpt><trkpt lat="42.32978672091143" lon="12.89690891120195"><ele>429.0</ele><time>2026-04-19T15:47:59.006Z</time></trkpt><trkpt lat="42.32977314426142" lon="12.89668344698337"><ele>429.0</ele><time>2026-04-19T15:48:00.006Z</time></trkpt><trkpt lat="42.32974883062605" lon="12.89644838961277"><ele>429.0</ele><time>2026-04-19T15:48:01.006Z</time></trkpt><trkpt lat="42.329732096504664" lon="12.8962265069577"><ele>429.0</ele><time>2026-04-19T15:48:02.006Z</time></trkpt><trkpt lat="42.329720903006944" lon="12.896002986904133"><ele>427.5</ele><time>2026-04-19T15:48:03.006Z</time></trkpt><trkpt lat="42.32972970851745" lon="12.89579945550938"><ele>426.0</ele><time>2026-04-19T15:48:04.006Z</time></trkpt><trkpt lat="42.3297579229485" lon="12.895606997856564"><ele>424.5</ele><time>2026-04-19T15:48:05.006Z</time></trkpt><trkpt lat="42.329826582066836" lon="12.895433085405513"><ele>423.0</ele><time>2026-04-19T15:48:06.006Z</time></trkpt><trkpt lat="42.32990142343287" lon="12.895261499151488"><ele>423.0</ele><time>2026-04-19T15:48:07.006Z</time></trkpt><trkpt lat="42.32999199846998" lon="12.89511153575403"><ele>423.0</ele><time>2026-04-19T15:48:08.006Z</time></trkpt><trkpt lat="42.3300965166574" lon="12.894986016061234"><ele>423.0</ele><time>2026-04-19T15:48:09.006Z</time></trkpt><trkpt lat="42.330216314213736" lon="12.894894337001631"><ele>423.0</ele><time>2026-04-19T15:48:10.006Z</time></trkpt><trkpt lat="42.33035184756145" lon="12.894832762363643"><ele>423.0</ele><time>2026-04-19T15:48:11.006Z</time></trkpt><trkpt lat="42.33049836453753" lon="12.894788633698399"><ele>423.0</ele><time>2026-04-19T15:48:12.006Z</time></trkpt><trkpt lat="42.33065955320464" lon="12.894720815124575"><ele>423.0</ele><time>2026-04-19T15:48:13.006Z</time></trkpt><trkpt lat="42.33084165758801" lon="12.894670119492623"><ele>423.0</ele><time>2026-04-19T15:48:14.006Z</time></trkpt><trkpt lat="42.33103266398336" lon="12.894612037406894"><ele>423.0</ele><time>2026-04-19T15:48:15.006Z</time></trkpt><trkpt lat="42.331218035722834" lon="12.894559577974135"><ele>423.0</ele><time>2026-04-19T15:48:16.006Z</time></trkpt><trkpt lat="42.33140324689647" lon="12.894498706198986"><ele>422.66666666666663</ele><time>2026-04-19T15:48:17.006Z</time></trkpt><trkpt lat="42.33158388365621" lon="12.894427493800206"><ele>422.3333333333333</ele><time>2026-04-19T15:48:18.006Z</time></trkpt><trkpt lat="42.331756542542784" lon="12.894333208150808"><ele>422.0</ele><time>2026-04-19T15:48:19.006Z</time></trkpt><trkpt lat="42.331920135486975" lon="12.894227877228461"><ele>422.66666666666663</ele><time>2026-04-19T15:48:20.006Z</time></trkpt><trkpt lat="42.332084277167326" lon="12.894115651501856"><ele>423.33333333333337</ele><time>2026-04-19T15:48:21.006Z</time></trkpt><trkpt lat="42.33224701656701" lon="12.893998559116229"><ele>424.0</ele><time>2026-04-19T15:48:22.006Z</time></trkpt><trkpt lat="42.332406043442106" lon="12.893870743039745"><ele>424.0</ele><time>2026-04-19T15:48:23.008Z</time></trkpt><trkpt lat="42.33256545368508" lon="12.893747926938275"><ele>424.0</ele><time>2026-04-19T15:48:24.008Z</time></trkpt><trkpt lat="42.332725366991994" lon="12.893627427424322"><ele>424.0</ele><time>2026-04-19T15:48:25.008Z</time></trkpt><trkpt lat="42.332874432628515" lon="12.893507235103856"><ele>423.6666666666667</ele><time>2026-04-19T15:48:26.007Z</time></trkpt><trkpt lat="42.33302891018646" lon="12.893391784987521"><ele>423.33333333333337</ele><time>2026-04-19T15:48:27.008Z</time></trkpt><trkpt lat="42.33317371075238" lon="12.893284098738995"><ele>423.0</ele><time>2026-04-19T15:48:28.008Z</time></trkpt><trkpt lat="42.33331078168758" lon="12.893168011613069"><ele>423.0</ele><time>2026-04-19T15:48:29.008Z</time></trkpt><trkpt lat="42.33343933905253" lon="12.893043744144293"><ele>423.0</ele><time>2026-04-19T15:48:30.007Z</time></trkpt><trkpt lat="42.3335608847273" lon="12.892904578489718"><ele>423.0</ele><time>2026-04-19T15:48:31.007Z</time></trkpt><trkpt lat="42.33367077742339" lon="12.89274803867825"><ele>424.66666666666663</ele><time>2026-04-19T15:48:32.008Z</time></trkpt><trkpt lat="42.333776547484874" lon="12.892576963139666"><ele>426.3333333333333</ele><time>2026-04-19T15:48:33.008Z</time></trkpt><trkpt lat="42.33388627986158" lon="12.892412748345137"><ele>428.0</ele><time>2026-04-19T15:48:34.008Z</time></trkpt><trkpt lat="42.33398621694277" lon="12.892226475016423"><ele>428.0</ele><time>2026-04-19T15:48:35.008Z</time></trkpt><trkpt lat="42.33408713510892" lon="12.892038339112455"><ele>428.0</ele><time>2026-04-19T15:48:36.008Z</time></trkpt><trkpt lat="42.33418687374591" lon="12.891866937477554"><ele>428.0</ele><time>2026-04-19T15:48:37.008Z</time></trkpt><trkpt lat="42.33428236805517" lon="12.891699292070097"><ele>423.75</ele><time>2026-04-19T15:48:38.008Z</time></trkpt><trkpt lat="42.3343764188454" lon="12.89153885125479"><ele>419.5</ele><time>2026-04-19T15:48:39.008Z</time></trkpt><trkpt lat="42.334467083475495" lon="12.891395293014135"><ele>415.25</ele><time>2026-04-19T15:48:40.008Z</time></trkpt><trkpt lat="42.33456293730788" lon="12.891245010873108"><ele>411.0</ele><time>2026-04-19T15:48:41.008Z</time></trkpt><trkpt lat="42.33467565879755" lon="12.891081284941565"><ele>412.66666666666663</ele><time>2026-04-19T15:48:42.008Z</time></trkpt><trkpt lat="42.334806264836814" lon="12.890899742591245"><ele>414.3333333333333</ele><time>2026-04-19T15:48:43.008Z</time></trkpt><trkpt lat="42.33494341228864" lon="12.890699344994681"><ele>416.0</ele><time>2026-04-19T15:48:44.008Z</time></trkpt><trkpt lat="42.33509920734541" lon="12.890492714341512"><ele>416.0</ele><time>2026-04-19T15:48:45.008Z</time></trkpt><trkpt lat="42.33526429623391" lon="12.890282400692426"><ele>416.0</ele><time>2026-04-19T15:48:46.008Z</time></trkpt><trkpt lat="42.33543403246624" lon="12.890068369483236"><ele>419.0</ele><time>2026-04-19T15:48:47.008Z</time></trkpt><trkpt lat="42.33560262035839" lon="12.889856164198196"><ele>422.0</ele><time>2026-04-19T15:48:48.008Z</time></trkpt><trkpt lat="42.335766987383344" lon="12.889642961176937"><ele>422.0</ele><time>2026-04-19T15:48:49.008Z</time></trkpt><trkpt lat="42.335930059607385" lon="12.889424387927082"><ele>422.0</ele><time>2026-04-19T15:48:50.008Z</time></trkpt><trkpt lat="42.33609137659872" lon="12.889211441054794"><ele>425.0</ele><time>2026-04-19T15:48:51.008Z</time></trkpt><trkpt lat="42.33625313736325" lon="12.88899625149158"><ele>428.0</ele><time>2026-04-19T15:48:52.008Z</time></trkpt><trkpt lat="42.336410796319264" lon="12.888787526359579"><ele>431.0</ele><time>2026-04-19T15:48:53.008Z</time></trkpt><trkpt lat="42.336560284575555" lon="12.88858978123033"><ele>423.66666666666663</ele><time>2026-04-19T15:48:54.008Z</time></trkpt><trkpt lat="42.33670657046751" lon="12.888404809636791"><ele>416.33333333333337</ele><time>2026-04-19T15:48:55.008Z</time></trkpt><trkpt lat="42.33685949861724" lon="12.888246992149032"><ele>409.0</ele><time>2026-04-19T15:48:56.008Z</time></trkpt><trkpt lat="42.337015200767794" lon="12.88811576896308"><ele>409.0</ele><time>2026-04-19T15:48:57.008Z</time></trkpt><trkpt lat="42.337173561903626" lon="12.888015017135935"><ele>409.0</ele><time>2026-04-19T15:48:58.008Z</time></trkpt><trkpt lat="42.3373537307445" lon="12.887951838255564"><ele>409.0</ele><time>2026-04-19T15:48:59.008Z</time></trkpt><trkpt lat="42.33753773084561" lon="12.88791402132069"><ele>415.6666666666667</ele><time>2026-04-19T15:49:00.008Z</time></trkpt><trkpt lat="42.33772943602129" lon="12.887897407683026"><ele>422.33333333333337</ele><time>2026-04-19T15:49:01.008Z</time></trkpt><trkpt lat="42.337929413641426" lon="12.887886893956114"><ele>429.0</ele><time>2026-04-19T15:49:02.008Z</time></trkpt><trkpt lat="42.33812476341396" lon="12.887892033842776"><ele>430.0</ele><time>2026-04-19T15:49:03.008Z</time></trkpt><trkpt lat="42.33831232209796" lon="12.887925217070524"><ele>431.0</ele><time>2026-04-19T15:49:04.008Z</time></trkpt><trkpt lat="42.338499514893606" lon="12.887986476161348"><ele>432.0</ele><time>2026-04-19T15:49:05.008Z</time></trkpt><trkpt lat="42.33868106343005" lon="12.888069005516467"><ele>432.0</ele><time>2026-04-19T15:49:06.008Z</time></trkpt><trkpt lat="42.33886271863297" lon="12.888171367270646"><ele>432.0</ele><time>2026-04-19T15:49:07.008Z</time></trkpt><trkpt lat="42.33904235962666" lon="12.888293382928227"><ele>432.0</ele><time>2026-04-19T15:49:08.008Z</time></trkpt><trkpt lat="42.33921978334703" lon="12.888425416517775"><ele>429.0</ele><time>2026-04-19T15:49:09.008Z</time></trkpt><trkpt lat="42.3393945359304" lon="12.88857572722937"><ele>426.0</ele><time>2026-04-19T15:49:10.008Z</time></trkpt><trkpt lat="42.33957302525334" lon="12.888722641628462"><ele>423.0</ele><time>2026-04-19T15:49:11.008Z</time></trkpt><trkpt lat="42.33975698176133" lon="12.888869023846581"><ele>423.0</ele><time>2026-04-19T15:49:12.008Z</time></trkpt><trkpt lat="42.339926369149985" lon="12.88900940819246"><ele>423.0</ele><time>2026-04-19T15:49:13.008Z</time></trkpt><trkpt lat="42.34009633655186" lon="12.889143866696955"><ele>423.0</ele><time>2026-04-19T15:49:14.008Z</time></trkpt><trkpt lat="42.340260144430374" lon="12.889273406122042"><ele>425.0</ele><time>2026-04-19T15:49:15.008Z</time></trkpt><trkpt lat="42.340419153311444" lon="12.889391705584657"><ele>427.0</ele><time>2026-04-19T15:49:16.008Z</time></trkpt><trkpt lat="42.34057102512958" lon="12.889507102223597"><ele>429.0</ele><time>2026-04-19T15:49:17.008Z</time></trkpt><trkpt lat="42.340722358587314" lon="12.889617997823432"><ele>429.0</ele><time>2026-04-19T15:49:18.008Z</time></trkpt><trkpt lat="42.340872452428435" lon="12.88972817570282"><ele>429.0</ele><time>2026-04-19T15:49:19.008Z</time></trkpt><trkpt lat="42.341031182792186" lon="12.889815796343848"><ele>429.0</ele><time>2026-04-19T15:49:20.008Z</time></trkpt><trkpt lat="42.34119550537078" lon="12.88989584693486"><ele>429.0</ele><time>2026-04-19T15:49:21.008Z</time></trkpt><trkpt lat="42.341364666541686" lon="12.889961660042403"><ele>429.0</ele><time>2026-04-19T15:49:22.007Z</time></trkpt><trkpt lat="42.34154271839444" lon="12.890006475582725"><ele>429.0</ele><time>2026-04-19T15:49:23.007Z</time></trkpt><trkpt lat="42.34172474681596" lon="12.890045922882745"><ele>429.0</ele><time>2026-04-19T15:49:24.007Z</time></trkpt><trkpt lat="42.341914781154365" lon="12.890097888929782"><ele>429.0</ele><time>2026-04-19T15:49:25.007Z</time></trkpt><trkpt lat="42.342103576436095" lon="12.890137958956347"><ele>429.0</ele><time>2026-04-19T15:49:26.007Z</time></trkpt><trkpt lat="42.34229043316415" lon="12.890184028592177"><ele>426.0</ele><time>2026-04-19T15:49:27.007Z</time></trkpt><trkpt lat="42.34248275271447" lon="12.890222027623043"><ele>423.0</ele><time>2026-04-19T15:49:28.007Z</time></trkpt><trkpt lat="42.34267526218373" lon="12.890246346703984"><ele>420.0</ele><time>2026-04-19T15:49:29.007Z</time></trkpt><trkpt lat="42.34287349147145" lon="12.89025826861492"><ele>426.33333333333337</ele><time>2026-04-19T15:49:30.007Z</time></trkpt><trkpt lat="42.34306733422571" lon="12.890262287857812"><ele>432.6666666666667</ele><time>2026-04-19T15:49:31.007Z</time></trkpt><trkpt lat="42.34326052208291" lon="12.890258881407872"><ele>439.0</ele><time>2026-04-19T15:49:32.007Z</time></trkpt><trkpt lat="42.34345406303916" lon="12.890257679824305"><ele>439.0</ele><time>2026-04-19T15:49:33.007Z</time></trkpt><trkpt lat="42.343650209517534" lon="12.890259368595283"><ele>439.0</ele><time>2026-04-19T15:49:34.007Z</time></trkpt><trkpt lat="42.34384599217609" lon="12.890261114239866"><ele>439.0</ele><time>2026-04-19T15:49:35.007Z</time></trkpt><trkpt lat="42.34404158844568" lon="12.890262774393664"><ele>434.33333333333337</ele><time>2026-04-19T15:49:36.007Z</time></trkpt><trkpt lat="42.3442356551574" lon="12.890260895608536"><ele>429.66666666666663</ele><time>2026-04-19T15:49:37.007Z</time></trkpt><trkpt lat="42.344432917785035" lon="12.890266218275219"><ele>425.0</ele><time>2026-04-19T15:49:38.007Z</time></trkpt><trkpt lat="42.34463017428182" lon="12.890271254858524"><ele>422.66666666666663</ele><time>2026-04-19T15:49:39.007Z</time></trkpt><trkpt lat="42.34482575362622" lon="12.8902770395852"><ele>420.33333333333337</ele><time>2026-04-19T15:49:40.007Z</time></trkpt><trkpt lat="42.3450185216035" lon="12.8902752752627"><ele>418.0</ele><time>2026-04-19T15:49:41.007Z</time></trkpt><trkpt lat="42.34520428363335" lon="12.890277021369128"><ele>418.0</ele><time>2026-04-19T15:49:42.007Z</time></trkpt><trkpt lat="42.34538285265932" lon="12.890277493082845"><ele>418.0</ele><time>2026-04-19T15:49:43.007Z</time></trkpt><trkpt lat="42.34555550735464" lon="12.89026567287214"><ele>418.0</ele><time>2026-04-19T15:49:44.007Z</time></trkpt><trkpt lat="42.34572976775714" lon="12.890252815706573"><ele>424.0</ele><time>2026-04-19T15:49:45.007Z</time></trkpt><trkpt lat="42.34590084829688" lon="12.890228071307885"><ele>430.0</ele><time>2026-04-19T15:49:46.007Z</time></trkpt><trkpt lat="42.34606865216414" lon="12.89019140076984"><ele>436.0</ele><time>2026-04-19T15:49:47.007Z</time></trkpt><trkpt lat="42.34623010508345" lon="12.89014141620866"><ele>427.0</ele><time>2026-04-19T15:49:48.007Z</time></trkpt><trkpt lat="42.34639660711016" lon="12.890068063274931"><ele>418.0</ele><time>2026-04-19T15:49:49.007Z</time></trkpt><trkpt lat="42.346563107531175" lon="12.88997219093351"><ele>409.0</ele><time>2026-04-19T15:49:50.007Z</time></trkpt><trkpt lat="42.34672043630806" lon="12.889865138952114"><ele>409.0</ele><time>2026-04-19T15:49:51.007Z</time></trkpt><trkpt lat="42.34686516965677" lon="12.889735914987517"><ele>409.0</ele><time>2026-04-19T15:49:52.007Z</time></trkpt><trkpt lat="42.34700997628852" lon="12.889626116376096"><ele>409.0</ele><time>2026-04-19T15:49:53.007Z</time></trkpt><trkpt lat="42.34716447202103" lon="12.889545014962216"><ele>414.6666666666667</ele><time>2026-04-19T15:49:54.007Z</time></trkpt><trkpt lat="42.34732936893082" lon="12.889490034950994"><ele>420.33333333333337</ele><time>2026-04-19T15:49:55.007Z</time></trkpt><trkpt lat="42.347499002905344" lon="12.889451758327688"><ele>426.0</ele><time>2026-04-19T15:49:56.007Z</time></trkpt><trkpt lat="42.34767361230399" lon="12.889429308541864"><ele>426.0</ele><time>2026-04-19T15:49:57.007Z</time></trkpt><trkpt lat="42.34785370480513" lon="12.88942667035922"><ele>426.0</ele><time>2026-04-19T15:49:58.007Z</time></trkpt><trkpt lat="42.34803389323032" lon="12.889430264220934"><ele>426.0</ele><time>2026-04-19T15:49:59.007Z</time></trkpt><trkpt lat="42.34821714046192" lon="12.88943689258747"><ele>427.66666666666663</ele><time>2026-04-19T15:50:00.007Z</time></trkpt><trkpt lat="42.348405982943014" lon="12.889450108048358"><ele>429.3333333333333</ele><time>2026-04-19T15:50:01.007Z</time></trkpt><trkpt lat="42.348592344286324" lon="12.88945991837291"><ele>431.0</ele><time>2026-04-19T15:50:02.007Z</time></trkpt><trkpt lat="42.34878287482126" lon="12.889474311884733"><ele>432.3333333333333</ele><time>2026-04-19T15:50:03.007Z</time></trkpt><trkpt lat="42.34896777238856" lon="12.889486518847779"><ele>433.66666666666663</ele><time>2026-04-19T15:50:04.007Z</time></trkpt><trkpt lat="42.349147425446745" lon="12.88949080271805"><ele>435.0</ele><time>2026-04-19T15:50:05.007Z</time></trkpt><trkpt lat="42.34932384107371" lon="12.889474636570851"><ele>435.0</ele><time>2026-04-19T15:50:06.007Z</time></trkpt><trkpt lat="42.34949861453387" lon="12.889442298405008"><ele>435.0</ele><time>2026-04-19T15:50:07.007Z</time></trkpt><trkpt lat="42.349666514262" lon="12.889385822950754"><ele>435.0</ele><time>2026-04-19T15:50:08.007Z</time></trkpt><trkpt lat="42.34982981977623" lon="12.889307315730326"><ele>426.0</ele><time>2026-04-19T15:50:09.007Z</time></trkpt><trkpt lat="42.349987997877946" lon="12.88920740001338"><ele>417.0</ele><time>2026-04-19T15:50:10.007Z</time></trkpt><trkpt lat="42.35014392481324" lon="12.88909313489386"><ele>408.0</ele><time>2026-04-19T15:50:11.007Z</time></trkpt><trkpt lat="42.35030501906845" lon="12.888968762181964"><ele>408.0</ele><time>2026-04-19T15:50:12.007Z</time></trkpt><trkpt lat="42.350466654632335" lon="12.888834730772164"><ele>408.0</ele><time>2026-04-19T15:50:13.007Z</time></trkpt><trkpt lat="42.35063693157569" lon="12.888709920632904"><ele>408.0</ele><time>2026-04-19T15:50:14.007Z</time></trkpt><trkpt lat="42.35080811328086" lon="12.888586928324672"><ele>406.66666666666663</ele><time>2026-04-19T15:50:15.007Z</time></trkpt><trkpt lat="42.35098478531633" lon="12.888462587536935"><ele>405.3333333333333</ele><time>2026-04-19T15:50:16.007Z</time></trkpt><trkpt lat="42.35115668534687" lon="12.88832727204708"><ele>404.0</ele><time>2026-04-19T15:50:17.007Z</time></trkpt><trkpt lat="42.35133102775526" lon="12.888195441923944"><ele>410.3333333333333</ele><time>2026-04-19T15:50:18.007Z</time></trkpt><trkpt lat="42.351505016390256" lon="12.888058713891201"><ele>416.66666666666663</ele><time>2026-04-19T15:50:19.007Z</time></trkpt><trkpt lat="42.35167842037769" lon="12.88792297250079"><ele>423.0</ele><time>2026-04-19T15:50:20.007Z</time></trkpt><trkpt lat="42.35185485179374" lon="12.887788431689243"><ele>423.0</ele><time>2026-04-19T15:50:21.007Z</time></trkpt><trkpt lat="42.35203377444301" lon="12.887663892340242"><ele>423.0</ele><time>2026-04-19T15:50:22.007Z</time></trkpt><trkpt lat="42.352218413122145" lon="12.887548521043684"><ele>423.0</ele><time>2026-04-19T15:50:23.007Z</time></trkpt><trkpt lat="42.35240855897479" lon="12.887450762819913"><ele>419.0</ele><time>2026-04-19T15:50:24.007Z</time></trkpt><trkpt lat="42.35259879916059" lon="12.887366001716313"><ele>415.0</ele><time>2026-04-19T15:50:25.007Z</time></trkpt><trkpt lat="42.352792447565335" lon="12.88729082890365"><ele>411.0</ele><time>2026-04-19T15:50:26.007Z</time></trkpt><trkpt lat="42.352989882906556" lon="12.887235142500389"><ele>413.33333333333337</ele><time>2026-04-19T15:50:27.007Z</time></trkpt><trkpt lat="42.353193046054514" lon="12.887192359673834"><ele>415.6666666666667</ele><time>2026-04-19T15:50:28.007Z</time></trkpt><trkpt lat="42.353393925292" lon="12.887146879472441"><ele>418.0</ele><time>2026-04-19T15:50:29.008Z</time></trkpt><trkpt lat="42.35359197598891" lon="12.887096569325312"><ele>418.0</ele><time>2026-04-19T15:50:30.009Z</time></trkpt><trkpt lat="42.35379318925671" lon="12.88704113328704"><ele>418.0</ele><time>2026-04-19T15:50:31.009Z</time></trkpt><trkpt lat="42.35399437307947" lon="12.886992005745546"><ele>418.0</ele><time>2026-04-19T15:50:32.009Z</time></trkpt><trkpt lat="42.354197611143164" lon="12.886939240217336"><ele>417.33333333333337</ele><time>2026-04-19T15:50:33.009Z</time></trkpt><trkpt lat="42.35440153366252" lon="12.886890954101808"><ele>416.66666666666663</ele><time>2026-04-19T15:50:34.009Z</time></trkpt><trkpt lat="42.35460954290816" lon="12.886845034094211"><ele>416.0</ele><time>2026-04-19T15:50:35.009Z</time></trkpt><trkpt lat="42.354814345533676" lon="12.886789665621148"><ele>411.0</ele><time>2026-04-19T15:50:36.009Z</time></trkpt><trkpt lat="42.35502428078316" lon="12.886748978087066"><ele>406.0</ele><time>2026-04-19T15:50:37.009Z</time></trkpt><trkpt lat="42.35522882800117" lon="12.88669995302929"><ele>401.0</ele><time>2026-04-19T15:50:38.009Z</time></trkpt><trkpt lat="42.35543145762338" lon="12.886648596377755"><ele>404.0</ele><time>2026-04-19T15:50:39.009Z</time></trkpt><trkpt lat="42.35563934599075" lon="12.886597219229273"><ele>407.0</ele><time>2026-04-19T15:50:40.009Z</time></trkpt><trkpt lat="42.3558498765846" lon="12.886548686098989"><ele>410.0</ele><time>2026-04-19T15:50:41.008Z</time></trkpt><trkpt lat="42.356057044736936" lon="12.886501889692283"><ele>410.0</ele><time>2026-04-19T15:50:42.009Z</time></trkpt><trkpt lat="42.356257786304425" lon="12.88644790995119"><ele>410.0</ele><time>2026-04-19T15:50:43.009Z</time></trkpt><trkpt lat="42.356451905820535" lon="12.88640512386478"><ele>410.0</ele><time>2026-04-19T15:50:44.009Z</time></trkpt><trkpt lat="42.356646016407076" lon="12.886364115103628"><ele>413.3333333333333</ele><time>2026-04-19T15:50:45.009Z</time></trkpt><trkpt lat="42.35684038714018" lon="12.88631203511034"><ele>416.66666666666663</ele><time>2026-04-19T15:50:46.009Z</time></trkpt><trkpt lat="42.3570391782562" lon="12.886256598061355"><ele>420.0</ele><time>2026-04-19T15:50:47.009Z</time></trkpt><trkpt lat="42.35723413396812" lon="12.88619249903678"><ele>422.33333333333337</ele><time>2026-04-19T15:50:48.009Z</time></trkpt><trkpt lat="42.35742632829985" lon="12.886104325730898"><ele>424.6666666666667</ele><time>2026-04-19T15:50:49.009Z</time></trkpt><trkpt lat="42.35761756737344" lon="12.886002451943707"><ele>427.0</ele><time>2026-04-19T15:50:50.009Z</time></trkpt><trkpt lat="42.357812296782456" lon="12.88590396789832"><ele>420.0</ele><time>2026-04-19T15:50:51.009Z</time></trkpt><trkpt lat="42.35800075202246" lon="12.885793087160412"><ele>413.0</ele><time>2026-04-19T15:50:52.009Z</time></trkpt><trkpt lat="42.3581941782187" lon="12.885679634785182"><ele>406.0</ele><time>2026-04-19T15:50:53.009Z</time></trkpt><trkpt lat="42.35838904604478" lon="12.885562503901483"><ele>406.0</ele><time>2026-04-19T15:50:54.009Z</time></trkpt><trkpt lat="42.35858130111971" lon="12.885448712988492"><ele>406.0</ele><time>2026-04-19T15:50:55.009Z</time></trkpt><trkpt lat="42.35877121328105" lon="12.88532739842135"><ele>406.0</ele><time>2026-04-19T15:50:56.009Z</time></trkpt><trkpt lat="42.358951592475655" lon="12.885194251840879"><ele>407.0</ele><time>2026-04-19T15:50:57.009Z</time></trkpt><trkpt lat="42.35912756671697" lon="12.885040885452755"><ele>408.0</ele><time>2026-04-19T15:50:58.009Z</time></trkpt><trkpt lat="42.359301700520795" lon="12.884877385436285"><ele>409.0</ele><time>2026-04-19T15:50:59.009Z</time></trkpt><trkpt lat="42.35947483408987" lon="12.884710443798667"><ele>409.0</ele><time>2026-04-19T15:51:00.009Z</time></trkpt><trkpt lat="42.35965427405119" lon="12.88456051694056"><ele>409.0</ele><time>2026-04-19T15:51:01.009Z</time></trkpt><trkpt lat="42.35984248219915" lon="12.884387574575562"><ele>409.0</ele><time>2026-04-19T15:51:02.009Z</time></trkpt><trkpt lat="42.36003221924784" lon="12.884211035779892"><ele>406.6666666666667</ele><time>2026-04-19T15:51:03.009Z</time></trkpt><trkpt lat="42.360207756500095" lon="12.8840508158973"><ele>404.33333333333337</ele><time>2026-04-19T15:51:04.009Z</time></trkpt><trkpt lat="42.36037845134511" lon="12.88388347052225"><ele>402.0</ele><time>2026-04-19T15:51:05.009Z</time></trkpt><trkpt lat="42.36054846273985" lon="12.88371096667941"><ele>402.33333333333337</ele><time>2026-04-19T15:51:06.009Z</time></trkpt><trkpt lat="42.360737726678224" lon="12.883590255092956"><ele>402.6666666666667</ele><time>2026-04-19T15:51:07.009Z</time></trkpt><trkpt lat="42.360903972698544" lon="12.88342705098332"><ele>403.0</ele><time>2026-04-19T15:51:08.009Z</time></trkpt><trkpt lat="42.36106666796295" lon="12.883267281703615"><ele>403.0</ele><time>2026-04-19T15:51:09.009Z</time></trkpt><trkpt lat="42.36122377516387" lon="12.883109711170906"><ele>403.0</ele><time>2026-04-19T15:51:10.009Z</time></trkpt><trkpt lat="42.36138140463488" lon="12.882951616887835"><ele>403.0</ele><time>2026-04-19T15:51:11.008Z</time></trkpt><trkpt lat="42.36154197912906" lon="12.882790515104098"><ele>403.0</ele><time>2026-04-19T15:51:12.008Z</time></trkpt><trkpt lat="42.361700035567694" lon="12.882629024948661"><ele>403.0</ele><time>2026-04-19T15:51:13.008Z</time></trkpt><trkpt lat="42.36185746107531" lon="12.882467049569321"><ele>403.0</ele><time>2026-04-19T15:51:14.008Z</time></trkpt><trkpt lat="42.3620148138505" lon="12.88230041641589"><ele>403.0</ele><time>2026-04-19T15:51:15.008Z</time></trkpt><trkpt lat="42.362171425114944" lon="12.882133470000067"><ele>403.0</ele><time>2026-04-19T15:51:16.008Z</time></trkpt><trkpt lat="42.36232728418543" lon="12.881967556789768"><ele>403.0</ele><time>2026-04-19T15:51:17.008Z</time></trkpt><trkpt lat="42.36248273632502" lon="12.881803297583545"><ele>400.6666666666667</ele><time>2026-04-19T15:51:18.008Z</time></trkpt><trkpt lat="42.3626380634509" lon="12.881639170508993"><ele>398.33333333333337</ele><time>2026-04-19T15:51:19.008Z</time></trkpt><trkpt lat="42.36279447609618" lon="12.881473896311318"><ele>396.0</ele><time>2026-04-19T15:51:20.008Z</time></trkpt><trkpt lat="42.36295061868482" lon="12.881308876235616"><ele>396.66666666666663</ele><time>2026-04-19T15:51:21.008Z</time></trkpt><trkpt lat="42.36310440535914" lon="12.881146324673562"><ele>397.3333333333333</ele><time>2026-04-19T15:51:22.008Z</time></trkpt><trkpt lat="42.36325348323118" lon="12.88098875022583"><ele>398.0</ele><time>2026-04-19T15:51:23.008Z</time></trkpt><trkpt lat="42.36339940292291" lon="12.880834513919208"><ele>398.0</ele><time>2026-04-19T15:51:24.008Z</time></trkpt><trkpt lat="42.363547462396696" lon="12.880678015907868"><ele>398.0</ele><time>2026-04-19T15:51:25.008Z</time></trkpt><trkpt lat="42.36369506314344" lon="12.880522270890943"><ele>398.0</ele><time>2026-04-19T15:51:26.008Z</time></trkpt><trkpt lat="42.3638435224354" lon="12.880365666106762"><ele>398.0</ele><time>2026-04-19T15:51:27.008Z</time></trkpt><trkpt lat="42.36398785996193" lon="12.880213409300442"><ele>398.0</ele><time>2026-04-19T15:51:28.008Z</time></trkpt><trkpt lat="42.364130722207044" lon="12.880062708604866"><ele>398.0</ele><time>2026-04-19T15:51:29.008Z</time></trkpt><trkpt lat="42.3642776972655" lon="12.879917093879296"><ele>398.0</ele><time>2026-04-19T15:51:30.008Z</time></trkpt><trkpt lat="42.36442537164961" lon="12.879781973157783"><ele>398.0</ele><time>2026-04-19T15:51:31.008Z</time></trkpt><trkpt lat="42.3645738107866" lon="12.879653784072623"><ele>398.0</ele><time>2026-04-19T15:51:32.008Z</time></trkpt><trkpt lat="42.364722852798046" lon="12.87952916389247"><ele>399.0</ele><time>2026-04-19T15:51:33.008Z</time></trkpt><trkpt lat="42.36487384310046" lon="12.879406394190758"><ele>400.0</ele><time>2026-04-19T15:51:34.008Z</time></trkpt><trkpt lat="42.365032497584494" lon="12.879279417142081"><ele>401.0</ele><time>2026-04-19T15:51:35.008Z</time></trkpt><trkpt lat="42.36519396856466" lon="12.879150649145815"><ele>401.0</ele><time>2026-04-19T15:51:36.008Z</time></trkpt><trkpt lat="42.36535882064208" lon="12.879017321364609"><ele>401.0</ele><time>2026-04-19T15:51:37.008Z</time></trkpt><trkpt lat="42.365528323610675" lon="12.878873652024714"><ele>401.0</ele><time>2026-04-19T15:51:38.008Z</time></trkpt><trkpt lat="42.36569451941581" lon="12.878724968391838"><ele>401.66666666666663</ele><time>2026-04-19T15:51:39.008Z</time></trkpt><trkpt lat="42.36586159513279" lon="12.878560867441726"><ele>402.33333333333337</ele><time>2026-04-19T15:51:40.008Z</time></trkpt><trkpt lat="42.366023080182906" lon="12.878392918788625"><ele>403.0</ele><time>2026-04-19T15:51:41.008Z</time></trkpt><trkpt lat="42.366183292960926" lon="12.878223408609365"><ele>403.0</ele><time>2026-04-19T15:51:42.008Z</time></trkpt><trkpt lat="42.36634103279416" lon="12.878055764498061"><ele>403.0</ele><time>2026-04-19T15:51:43.008Z</time></trkpt><trkpt lat="42.36649641795805" lon="12.877887470681538"><ele>403.0</ele><time>2026-04-19T15:51:44.008Z</time></trkpt><trkpt lat="42.36665061505741" lon="12.877719538509004"><ele>401.6666666666667</ele><time>2026-04-19T15:51:45.008Z</time></trkpt><trkpt lat="42.36680357188959" lon="12.877554415125108"><ele>400.33333333333337</ele><time>2026-04-19T15:51:46.008Z</time></trkpt><trkpt lat="42.36695552357791" lon="12.877390614038424"><ele>399.0</ele><time>2026-04-19T15:51:47.008Z</time></trkpt><trkpt lat="42.36710862888888" lon="12.877225569329914"><ele>399.66666666666663</ele><time>2026-04-19T15:51:48.008Z</time></trkpt><trkpt lat="42.367260759540315" lon="12.877061575251776"><ele>400.3333333333333</ele><time>2026-04-19T15:51:49.008Z</time></trkpt><trkpt lat="42.36741142408832" lon="12.876899161614467"><ele>401.0</ele><time>2026-04-19T15:51:50.008Z</time></trkpt><trkpt lat="42.36756130374289" lon="12.876737594091145"><ele>401.0</ele><time>2026-04-19T15:51:51.008Z</time></trkpt><trkpt lat="42.367712252910515" lon="12.876575063236004"><ele>401.0</ele><time>2026-04-19T15:51:52.008Z</time></trkpt><trkpt lat="42.3678652334037" lon="12.876410929016409"><ele>401.0</ele><time>2026-04-19T15:51:53.008Z</time></trkpt><trkpt lat="42.3680186825365" lon="12.876246291977463"><ele>401.0</ele><time>2026-04-19T15:51:54.008Z</time></trkpt><trkpt lat="42.3681730401069" lon="12.876080680272002"><ele>401.0</ele><time>2026-04-19T15:51:55.008Z</time></trkpt><trkpt lat="42.36832989382051" lon="12.875911633294699"><ele>401.0</ele><time>2026-04-19T15:51:56.008Z</time></trkpt><trkpt lat="42.36848573017253" lon="12.875741193505942"><ele>401.0</ele><time>2026-04-19T15:51:57.008Z</time></trkpt><trkpt lat="42.36864105213914" lon="12.875565967494941"><ele>401.0</ele><time>2026-04-19T15:51:58.008Z</time></trkpt><trkpt lat="42.36879470629052" lon="12.87538640941527"><ele>401.0</ele><time>2026-04-19T15:51:59.008Z</time></trkpt><trkpt lat="42.36894499390977" lon="12.875199960106446"><ele>401.66666666666663</ele><time>2026-04-19T15:52:00.008Z</time></trkpt><trkpt lat="42.369091463518465" lon="12.875001841993445"><ele>402.33333333333337</ele><time>2026-04-19T15:52:01.008Z</time></trkpt><trkpt lat="42.36923231948434" lon="12.874793162338094"><ele>403.0</ele><time>2026-04-19T15:52:02.008Z</time></trkpt><trkpt lat="42.36936195737693" lon="12.874579202665027"><ele>403.0</ele><time>2026-04-19T15:52:03.008Z</time></trkpt><trkpt lat="42.36948003949367" lon="12.874345945702238"><ele>403.0</ele><time>2026-04-19T15:52:04.008Z</time></trkpt><trkpt lat="42.36959185397444" lon="12.874112532822512"><ele>403.0</ele><time>2026-04-19T15:52:05.008Z</time></trkpt><trkpt lat="42.369698987916344" lon="12.873878379073242"><ele>403.6666666666667</ele><time>2026-04-19T15:52:06.008Z</time></trkpt><trkpt lat="42.36980302118109" lon="12.87364011445647"><ele>404.33333333333337</ele><time>2026-04-19T15:52:07.008Z</time></trkpt><trkpt lat="42.369903946511826" lon="12.873398350237599"><ele>405.0</ele><time>2026-04-19T15:52:08.008Z</time></trkpt><trkpt lat="42.37000073214528" lon="12.87315650318875"><ele>405.0</ele><time>2026-04-19T15:52:09.008Z</time></trkpt><trkpt lat="42.3700976294224" lon="12.872918455710218"><ele>405.0</ele><time>2026-04-19T15:52:10.008Z</time></trkpt><trkpt lat="42.37019701641538" lon="12.87268463328892"><ele>405.0</ele><time>2026-04-19T15:52:11.008Z</time></trkpt><trkpt lat="42.3702981316051" lon="12.872451099875848"><ele>404.0</ele><time>2026-04-19T15:52:12.008Z</time></trkpt><trkpt lat="42.37039898461563" lon="12.872219888870543"><ele>403.0</ele><time>2026-04-19T15:52:13.008Z</time></trkpt><trkpt lat="42.370500980913825" lon="12.87198637773708"><ele>402.0</ele><time>2026-04-19T15:52:14.008Z</time></trkpt><trkpt lat="42.37060326024867" lon="12.87175221859463"><ele>402.0</ele><time>2026-04-19T15:52:15.008Z</time></trkpt><trkpt lat="42.370702574583085" lon="12.871527444437357"><ele>402.0</ele><time>2026-04-19T15:52:16.008Z</time></trkpt><trkpt lat="42.37079962115335" lon="12.871313472699436"><ele>402.0</ele><time>2026-04-19T15:52:17.008Z</time></trkpt><trkpt lat="42.37089547557671" lon="12.871096603271031"><ele>400.33333333333337</ele><time>2026-04-19T15:52:18.008Z</time></trkpt><trkpt lat="42.37098553137352" lon="12.870892853189934"><ele>398.6666666666667</ele><time>2026-04-19T15:52:19.008Z</time></trkpt><trkpt lat="42.371084783904" lon="12.87068634539485"><ele>397.0</ele><time>2026-04-19T15:52:20.008Z</time></trkpt><trkpt lat="42.371186542455575" lon="12.870496237365305"><ele>397.0</ele><time>2026-04-19T15:52:21.008Z</time></trkpt><trkpt lat="42.37127565206464" lon="12.87030725988499"><ele>397.0</ele><time>2026-04-19T15:52:22.008Z</time></trkpt><trkpt lat="42.371398276783914" lon="12.870172105472928"><ele>397.0</ele><time>2026-04-19T15:52:23.008Z</time></trkpt><trkpt lat="42.37150806415158" lon="12.870045756702346"><ele>397.0</ele><time>2026-04-19T15:52:24.008Z</time></trkpt><trkpt lat="42.371617932969166" lon="12.869921468177965"><ele>397.0</ele><time>2026-04-19T15:52:25.008Z</time></trkpt><trkpt lat="42.3717244512219" lon="12.869786269114039"><ele>397.0</ele><time>2026-04-19T15:52:26.007Z</time></trkpt><trkpt lat="42.37181390013001" lon="12.869626270352809"><ele>397.0</ele><time>2026-04-19T15:52:27.007Z</time></trkpt><trkpt lat="42.3719033790897" lon="12.869465415009639"><ele>397.33333333333337</ele><time>2026-04-19T15:52:28.007Z</time></trkpt><trkpt lat="42.37196460092925" lon="12.869257852767698"><ele>397.66666666666663</ele><time>2026-04-19T15:52:29.007Z</time></trkpt><trkpt lat="42.372015157990745" lon="12.869045614772412"><ele>398.0</ele><time>2026-04-19T15:52:30.007Z</time></trkpt><trkpt lat="42.37204831891788" lon="12.868829909914602"><ele>398.0</ele><time>2026-04-19T15:52:31.007Z</time></trkpt><trkpt lat="42.37208302270302" lon="12.86861872266084"><ele>398.0</ele><time>2026-04-19T15:52:32.007Z</time></trkpt><trkpt lat="42.37215716906668" lon="12.868423369526555"><ele>398.0</ele><time>2026-04-19T15:52:33.007Z</time></trkpt><trkpt lat="42.37222801808606" lon="12.86822344681254"><ele>401.3333333333333</ele><time>2026-04-19T15:52:34.007Z</time></trkpt><trkpt lat="42.37229181286215" lon="12.868031107268754"><ele>404.66666666666663</ele><time>2026-04-19T15:52:35.01Z</time></trkpt><trkpt lat="42.37238633081677" lon="12.867856532094073"><ele>408.0</ele><time>2026-04-19T15:52:36.01Z</time></trkpt><trkpt lat="42.37248221974817" lon="12.867664551719937"><ele>406.0</ele><time>2026-04-19T15:52:37.01Z</time></trkpt><trkpt lat="42.37259415863384" lon="12.867494660737824"><ele>404.0</ele><time>2026-04-19T15:52:38.009Z</time></trkpt><trkpt lat="42.372700277048594" lon="12.86730080940068"><ele>402.0</ele><time>2026-04-19T15:52:39.009Z</time></trkpt><trkpt lat="42.37281177928385" lon="12.867109113344469"><ele>402.0</ele><time>2026-04-19T15:52:40.009Z</time></trkpt><trkpt lat="42.3729390225715" lon="12.866931128165605"><ele>402.0</ele><time>2026-04-19T15:52:41.009Z</time></trkpt><trkpt lat="42.37307185861466" lon="12.866762191929972"><ele>402.0</ele><time>2026-04-19T15:52:42.01Z</time></trkpt><trkpt lat="42.373200697084435" lon="12.866596731276468"><ele>402.5</ele><time>2026-04-19T15:52:43.01Z</time></trkpt><trkpt lat="42.37332576441543" lon="12.866462845288682"><ele>403.0</ele><time>2026-04-19T15:52:44.01Z</time></trkpt><trkpt lat="42.373445851254964" lon="12.866382298594592"><ele>403.5</ele><time>2026-04-19T15:52:45.01Z</time></trkpt><trkpt lat="42.37356976683659" lon="12.866331380331948"><ele>404.0</ele><time>2026-04-19T15:52:46.01Z</time></trkpt><trkpt lat="42.37368379851613" lon="12.866325758544063"><ele>404.0</ele><time>2026-04-19T15:52:47.01Z</time></trkpt><trkpt lat="42.37381371067483" lon="12.866349602603966"><ele>404.0</ele><time>2026-04-19T15:52:48.009Z</time></trkpt><trkpt lat="42.37395506943593" lon="12.866372806898063"><ele>404.0</ele><time>2026-04-19T15:52:49.009Z</time></trkpt><trkpt lat="42.37411019054775" lon="12.866361792982234"><ele>404.0</ele><time>2026-04-19T15:52:50.009Z</time></trkpt><trkpt lat="42.37426205109786" lon="12.866320516465688"><ele>407.0</ele><time>2026-04-19T15:52:51.009Z</time></trkpt><trkpt lat="42.37441766051013" lon="12.866272122436005"><ele>410.0</ele><time>2026-04-19T15:52:52.009Z</time></trkpt><trkpt lat="42.37457137114306" lon="12.866222750527491"><ele>413.0</ele><time>2026-04-19T15:52:53.009Z</time></trkpt><trkpt lat="42.37472717751341" lon="12.866171624230708"><ele>416.3333333333333</ele><time>2026-04-19T15:52:54.009Z</time></trkpt><trkpt lat="42.37488743278706" lon="12.866115435105833"><ele>419.66666666666663</ele><time>2026-04-19T15:52:55.009Z</time></trkpt><trkpt lat="42.375048072116314" lon="12.866046727382617"><ele>423.0</ele><time>2026-04-19T15:52:56.009Z</time></trkpt><trkpt lat="42.37520026555927" lon="12.865955673230037"><ele>418.25</ele><time>2026-04-19T15:52:57.009Z</time></trkpt><trkpt lat="42.37533051896463" lon="12.865850749073648"><ele>413.5</ele><time>2026-04-19T15:52:58.009Z</time></trkpt><trkpt lat="42.3754563849065" lon="12.865734444681262"><ele>408.75</ele><time>2026-04-19T15:52:59.009Z</time></trkpt><trkpt lat="42.3755715619534" lon="12.865618646168082"><ele>404.0</ele><time>2026-04-19T15:53:00.009Z</time></trkpt><trkpt lat="42.37568227179931" lon="12.865500476676935"><ele>404.0</ele><time>2026-04-19T15:53:01.009Z</time></trkpt><trkpt lat="42.375788268415306" lon="12.865383656301704"><ele>404.0</ele><time>2026-04-19T15:53:02.009Z</time></trkpt><trkpt lat="42.37589003476225" lon="12.865279009495437"><ele>404.0</ele><time>2026-04-19T15:53:03.009Z</time></trkpt><trkpt lat="42.37599875845022" lon="12.865179516777054"><ele>404.0</ele><time>2026-04-19T15:53:04.009Z</time></trkpt><trkpt lat="42.376125349165996" lon="12.865104872092251"><ele>403.5</ele><time>2026-04-19T15:53:05.009Z</time></trkpt><trkpt lat="42.3762509358104" lon="12.865020005446446"><ele>403.0</ele><time>2026-04-19T15:53:06.009Z</time></trkpt><trkpt lat="42.37637635211147" lon="12.864934052720459"><ele>402.5</ele><time>2026-04-19T15:53:07.009Z</time></trkpt><trkpt lat="42.37649738991737" lon="12.864850358563004"><ele>402.0</ele><time>2026-04-19T15:53:08.009Z</time></trkpt><trkpt lat="42.376603237369785" lon="12.864752614276226"><ele>402.0</ele><time>2026-04-19T15:53:09.009Z</time></trkpt><trkpt lat="42.376710336263" lon="12.864668928755014"><ele>402.0</ele><time>2026-04-19T15:53:10.009Z</time></trkpt><trkpt lat="42.37680969150079" lon="12.864567191608552"><ele>402.0</ele><time>2026-04-19T15:53:11.009Z</time></trkpt><trkpt lat="42.376910503786675" lon="12.864461894182826"><ele>402.0</ele><time>2026-04-19T15:53:12.009Z</time></trkpt><trkpt lat="42.37700647753174" lon="12.864365290581745"><ele>401.5</ele><time>2026-04-19T15:53:13.009Z</time></trkpt><trkpt lat="42.377116945649206" lon="12.86427572820115"><ele>401.0</ele><time>2026-04-19T15:53:14.009Z</time></trkpt><trkpt lat="42.377242566449766" lon="12.864222600386459"><ele>400.5</ele><time>2026-04-19T15:53:15.009Z</time></trkpt><trkpt lat="42.377369880619085" lon="12.864152757835457"><ele>400.0</ele><time>2026-04-19T15:53:16.009Z</time></trkpt><trkpt lat="42.37748947544986" lon="12.864073535901902"><ele>400.0</ele><time>2026-04-19T15:53:17.009Z</time></trkpt><trkpt lat="42.37761480595191" lon="12.864031427767754"><ele>400.0</ele><time>2026-04-19T15:53:18.009Z</time></trkpt><trkpt lat="42.3777417211626" lon="12.864021707736597"><ele>400.0</ele><time>2026-04-19T15:53:19.009Z</time></trkpt><trkpt lat="42.37787373621619" lon="12.864026042603214"><ele>400.0</ele><time>2026-04-19T15:53:20.009Z</time></trkpt><trkpt lat="42.37801165325754" lon="12.86406556519212"><ele>400.5</ele><time>2026-04-19T15:53:21.009Z</time></trkpt><trkpt lat="42.37815259577203" lon="12.864084087431351"><ele>401.0</ele><time>2026-04-19T15:53:22.009Z</time></trkpt><trkpt lat="42.3782887527651" lon="12.86408986025258"><ele>401.5</ele><time>2026-04-19T15:53:23.009Z</time></trkpt><trkpt lat="42.378416400456025" lon="12.864083432511617"><ele>402.0</ele><time>2026-04-19T15:53:24.009Z</time></trkpt><trkpt lat="42.37853749924895" lon="12.86406168411728"><ele>402.0</ele><time>2026-04-19T15:53:25.009Z</time></trkpt><trkpt lat="42.378655289254795" lon="12.86403543298538"><ele>402.0</ele><time>2026-04-19T15:53:26.009Z</time></trkpt><trkpt lat="42.378770036261926" lon="12.863988978245988"><ele>402.0</ele><time>2026-04-19T15:53:27.009Z</time></trkpt><trkpt lat="42.37888558044571" lon="12.863971383483136"><ele>402.0</ele><time>2026-04-19T15:53:28.009Z</time></trkpt><trkpt lat="42.37900331608997" lon="12.863956750614893"><ele>401.75</ele><time>2026-04-19T15:53:29.009Z</time></trkpt><trkpt lat="42.37912138968745" lon="12.863980138595652"><ele>401.5</ele><time>2026-04-19T15:53:30.009Z</time></trkpt><trkpt lat="42.3792422219393" lon="12.863995144485147"><ele>401.25</ele><time>2026-04-19T15:53:31.009Z</time></trkpt><trkpt lat="42.37937422338125" lon="12.864008564532716"><ele>401.0</ele><time>2026-04-19T15:53:32.009Z</time></trkpt><trkpt lat="42.37950660147727" lon="12.864043344376194"><ele>401.0</ele><time>2026-04-19T15:53:33.009Z</time></trkpt><trkpt lat="42.379655681101234" lon="12.864091715030396"><ele>401.0</ele><time>2026-04-19T15:53:34.009Z</time></trkpt><trkpt lat="42.379815060144956" lon="12.864130331968356"><ele>401.0</ele><time>2026-04-19T15:53:35.009Z</time></trkpt><trkpt lat="42.379992090197355" lon="12.864188447307942"><ele>401.0</ele><time>2026-04-19T15:53:36.009Z</time></trkpt><trkpt lat="42.38016211499004" lon="12.86421114849467"><ele>401.0</ele><time>2026-04-19T15:53:37.009Z</time></trkpt><trkpt lat="42.380322171331976" lon="12.864274756530753"><ele>401.0</ele><time>2026-04-19T15:53:38.009Z</time></trkpt><trkpt lat="42.38047986207783" lon="12.864343493500828"><ele>412.3333333333333</ele><time>2026-04-19T15:53:39.008Z</time></trkpt><trkpt lat="42.38063782365803" lon="12.86440366469734"><ele>423.66666666666663</ele><time>2026-04-19T15:53:40.008Z</time></trkpt><trkpt lat="42.38078676301342" lon="12.864445457248156"><ele>435.0</ele><time>2026-04-19T15:53:41.008Z</time></trkpt><trkpt lat="42.38092510868644" lon="12.864475872953417"><ele>435.0</ele><time>2026-04-19T15:53:42.008Z</time></trkpt><trkpt lat="42.38106269108958" lon="12.864491811588131"><ele>435.0</ele><time>2026-04-19T15:53:43.008Z</time></trkpt><trkpt lat="42.38119351004009" lon="12.86449021434025"><ele>435.0</ele><time>2026-04-19T15:53:44.008Z</time></trkpt><trkpt lat="42.38132497777205" lon="12.864493477360158"><ele>435.0</ele><time>2026-04-19T15:53:45.008Z</time></trkpt><trkpt lat="42.3814455889272" lon="12.864477972041895"><ele>433.25</ele><time>2026-04-19T15:53:46.008Z</time></trkpt><trkpt lat="42.38155745094313" lon="12.864479644450899"><ele>431.5</ele><time>2026-04-19T15:53:47.008Z</time></trkpt><trkpt lat="42.38166478653751" lon="12.864506203439834"><ele>429.75</ele><time>2026-04-19T15:53:48.008Z</time></trkpt><trkpt lat="42.38177357733944" lon="12.864549812820442"><ele>428.0</ele><time>2026-04-19T15:53:49.008Z</time></trkpt><trkpt lat="42.3818870461258" lon="12.864578145710917"><ele>428.0</ele><time>2026-04-19T15:53:50.008Z</time></trkpt><trkpt lat="42.382007066097586" lon="12.86459149491268"><ele>428.0</ele><time>2026-04-19T15:53:51.008Z</time></trkpt><trkpt lat="42.382138802379465" lon="12.86458695011498"><ele>428.0</ele><time>2026-04-19T15:53:52.008Z</time></trkpt><trkpt lat="42.3822706365396" lon="12.864531385926858"><ele>428.0</ele><time>2026-04-19T15:53:53.008Z</time></trkpt><trkpt lat="42.382404164422105" lon="12.864441390922941"><ele>425.3333333333333</ele><time>2026-04-19T15:53:54.008Z</time></trkpt><trkpt lat="42.38254878543305" lon="12.864300809453415"><ele>422.66666666666663</ele><time>2026-04-19T15:53:55.008Z</time></trkpt><trkpt lat="42.38269555962855" lon="12.864124630901603"><ele>420.0</ele><time>2026-04-19T15:53:56.008Z</time></trkpt><trkpt lat="42.38284504648276" lon="12.863915463709974"><ele>420.0</ele><time>2026-04-19T15:53:57.008Z</time></trkpt><trkpt lat="42.38299014861511" lon="12.86372308751472"><ele>420.0</ele><time>2026-04-19T15:53:58.008Z</time></trkpt><trkpt lat="42.38313360020823" lon="12.863537198396596"><ele>420.0</ele><time>2026-04-19T15:53:59.008Z</time></trkpt><trkpt lat="42.38330266104413" lon="12.863421522356445"><ele>412.33333333333337</ele><time>2026-04-19T15:54:00.008Z</time></trkpt><trkpt lat="42.38346350724677" lon="12.863311166352577"><ele>404.6666666666667</ele><time>2026-04-19T15:54:01.008Z</time></trkpt><trkpt lat="42.38363262524242" lon="12.863254025009338"><ele>397.0</ele><time>2026-04-19T15:54:02.008Z</time></trkpt><trkpt lat="42.38381573305808" lon="12.863205034471276"><ele>400.0</ele><time>2026-04-19T15:54:03.008Z</time></trkpt><trkpt lat="42.38400663705737" lon="12.863162315636476"><ele>403.0</ele><time>2026-04-19T15:54:04.008Z</time></trkpt><trkpt lat="42.38419949143323" lon="12.86311986136754"><ele>406.0</ele><time>2026-04-19T15:54:05.008Z</time></trkpt><trkpt lat="42.38439197116919" lon="12.86307646793959"><ele>406.0</ele><time>2026-04-19T15:54:06.008Z</time></trkpt><trkpt lat="42.38458470172383" lon="12.863017371446915"><ele>406.0</ele><time>2026-04-19T15:54:07.008Z</time></trkpt><trkpt lat="42.38477441725737" lon="12.862940362527153"><ele>406.0</ele><time>2026-04-19T15:54:08.008Z</time></trkpt><trkpt lat="42.384954160761296" lon="12.862834023006771"><ele>402.33333333333337</ele><time>2026-04-19T15:54:09.008Z</time></trkpt><trkpt lat="42.38511632679664" lon="12.862713051848143"><ele>398.66666666666663</ele><time>2026-04-19T15:54:10.008Z</time></trkpt><trkpt lat="42.3852824930925" lon="12.86259891577829"><ele>395.0</ele><time>2026-04-19T15:54:11.008Z</time></trkpt><trkpt lat="42.38545253013225" lon="12.862493658840949"><ele>398.66666666666663</ele><time>2026-04-19T15:54:12.008Z</time></trkpt><trkpt lat="42.38563053714869" lon="12.862398956011038"><ele>402.33333333333337</ele><time>2026-04-19T15:54:13.008Z</time></trkpt><trkpt lat="42.385807371814856" lon="12.862314802892513"><ele>406.0</ele><time>2026-04-19T15:54:14.008Z</time></trkpt><trkpt lat="42.38598138330304" lon="12.862236067401383"><ele>406.0</ele><time>2026-04-19T15:54:15.008Z</time></trkpt><trkpt lat="42.38614582434277" lon="12.862186789020045"><ele>406.0</ele><time>2026-04-19T15:54:16.008Z</time></trkpt><trkpt lat="42.3863174485271" lon="12.862168120089613"><ele>406.0</ele><time>2026-04-19T15:54:17.008Z</time></trkpt><trkpt lat="42.386501282629425" lon="12.862165463174119"><ele>409.33333333333337</ele><time>2026-04-19T15:54:18.008Z</time></trkpt><trkpt lat="42.386678747425236" lon="12.862149826978726"><ele>412.66666666666663</ele><time>2026-04-19T15:54:19.008Z</time></trkpt><trkpt lat="42.38685642092757" lon="12.862130119487315"><ele>416.0</ele><time>2026-04-19T15:54:20.008Z</time></trkpt><trkpt lat="42.3870315547387" lon="12.862113187113035"><ele>417.0</ele><time>2026-04-19T15:54:21.008Z</time></trkpt><trkpt lat="42.387204693191194" lon="12.862093836281815"><ele>418.0</ele><time>2026-04-19T15:54:22.008Z</time></trkpt><trkpt lat="42.387375640418284" lon="12.862075304703708"><ele>419.0</ele><time>2026-04-19T15:54:23.008Z</time></trkpt><trkpt lat="42.38754692498705" lon="12.86208321094468"><ele>419.0</ele><time>2026-04-19T15:54:24.008Z</time></trkpt><trkpt lat="42.387722983270265" lon="12.862105261213857"><ele>419.0</ele><time>2026-04-19T15:54:25.008Z</time></trkpt><trkpt lat="42.38790146730912" lon="12.862141764540274"><ele>419.0</ele><time>2026-04-19T15:54:26.008Z</time></trkpt><trkpt lat="42.38806684162898" lon="12.862175673641048"><ele>417.3333333333333</ele><time>2026-04-19T15:54:27.008Z</time></trkpt><trkpt lat="42.38823691549538" lon="12.86219876200518"><ele>415.66666666666663</ele><time>2026-04-19T15:54:28.008Z</time></trkpt><trkpt lat="42.38840023426179" lon="12.862201605147806"><ele>414.0</ele><time>2026-04-19T15:54:29.008Z</time></trkpt><trkpt lat="42.38854954954381" lon="12.862202855406595"><ele>414.0</ele><time>2026-04-19T15:54:30.008Z</time></trkpt><trkpt lat="42.38868819481398" lon="12.8622331786552"><ele>414.0</ele><time>2026-04-19T15:54:31.008Z</time></trkpt><trkpt lat="42.388823886272206" lon="12.862281455183572"><ele>414.0</ele><time>2026-04-19T15:54:32.008Z</time></trkpt><trkpt lat="42.38896352085498" lon="12.862330660552708"><ele>414.0</ele><time>2026-04-19T15:54:33.008Z</time></trkpt><trkpt lat="42.38910828712788" lon="12.862373744612768"><ele>410.25</ele><time>2026-04-19T15:54:34.008Z</time></trkpt><trkpt lat="42.38924013005424" lon="12.862410165900954"><ele>406.5</ele><time>2026-04-19T15:54:35.008Z</time></trkpt><trkpt lat="42.38937315898548" lon="12.862412917261004"><ele>402.75</ele><time>2026-04-19T15:54:36.008Z</time></trkpt><trkpt lat="42.389502420653464" lon="12.862447865283075"><ele>399.0</ele><time>2026-04-19T15:54:37.008Z</time></trkpt><trkpt lat="42.38962305298185" lon="12.862482445757731"><ele>398.4</ele><time>2026-04-19T15:54:38.008Z</time></trkpt><trkpt lat="42.38973550702331" lon="12.862500859265364"><ele>397.79999999999995</ele><time>2026-04-19T15:54:39.008Z</time></trkpt><trkpt lat="42.389838855598455" lon="12.862472732660573"><ele>397.20000000000005</ele><time>2026-04-19T15:54:40.008Z</time></trkpt><trkpt lat="42.38993747425654" lon="12.862412328031395"><ele>396.6</ele><time>2026-04-19T15:54:41.009Z</time></trkpt><trkpt lat="42.390040859311426" lon="12.862325415995784"><ele>396.0</ele><time>2026-04-19T15:54:42.01Z</time></trkpt><trkpt lat="42.390148763020406" lon="12.862216033413715"><ele>396.0</ele><time>2026-04-19T15:54:43.01Z</time></trkpt><trkpt lat="42.39026422230164" lon="12.862095090095748"><ele>396.0</ele><time>2026-04-19T15:54:44.01Z</time></trkpt><trkpt lat="42.390376414960244" lon="12.861975280306964"><ele>396.0</ele><time>2026-04-19T15:54:45.01Z</time></trkpt><trkpt lat="42.39047828347307" lon="12.861827205294176"><ele>396.0</ele><time>2026-04-19T15:54:46.01Z</time></trkpt><trkpt lat="42.390577708540995" lon="12.861669373313951"><ele>394.0</ele><time>2026-04-19T15:54:47.01Z</time></trkpt><trkpt lat="42.39063920656968" lon="12.861481242979233"><ele>392.0</ele><time>2026-04-19T15:54:48.01Z</time></trkpt><trkpt lat="42.390665613380875" lon="12.861276254959543"><ele>390.0</ele><time>2026-04-19T15:54:49.01Z</time></trkpt><trkpt lat="42.39069301061344" lon="12.861070181380356"><ele>389.33333333333337</ele><time>2026-04-19T15:54:50.01Z</time></trkpt><trkpt lat="42.39071641327686" lon="12.860861419986739"><ele>388.6666666666667</ele><time>2026-04-19T15:54:51.01Z</time></trkpt><trkpt lat="42.39075931096556" lon="12.860655122893824"><ele>388.0</ele><time>2026-04-19T15:54:52.01Z</time></trkpt><trkpt lat="42.39078223548494" lon="12.860447563258615"><ele>388.0</ele><time>2026-04-19T15:54:53.01Z</time></trkpt><trkpt lat="42.390787150987485" lon="12.860255362282393"><ele>388.0</ele><time>2026-04-19T15:54:54.01Z</time></trkpt><trkpt lat="42.39081269786573" lon="12.860086451188097"><ele>388.0</ele><time>2026-04-19T15:54:55.01Z</time></trkpt><trkpt lat="42.39083879852431" lon="12.85994451442774"><ele>388.0</ele><time>2026-04-19T15:54:56.01Z</time></trkpt><trkpt lat="42.39087587730329" lon="12.859835386384617"><ele>388.1666666666667</ele><time>2026-04-19T15:54:57.01Z</time></trkpt><trkpt lat="42.390918773315306" lon="12.859760036778711"><ele>388.33333333333337</ele><time>2026-04-19T15:54:58.01Z</time></trkpt><trkpt lat="42.39099236686321" lon="12.859705738482747"><ele>388.5</ele><time>2026-04-19T15:55:00.01Z</time></trkpt><trkpt lat="42.39106974600079" lon="12.859652221478616"><ele>388.66666666666663</ele><time>2026-04-19T15:55:02.01Z</time></trkpt><trkpt lat="42.391172135059826" lon="12.859565647119862"><ele>388.8333333333333</ele><time>2026-04-19T15:55:04.01Z</time></trkpt><trkpt lat="42.391217038014446" lon="12.859492460532186"><ele>389.0</ele><time>2026-04-19T15:55:05.01Z</time></trkpt><trkpt lat="42.39132261279657" lon="12.85939656043356"><ele>389.0</ele><time>2026-04-19T15:55:07.01Z</time></trkpt><trkpt lat="42.39139694873037" lon="12.859369097222622"><ele>389.0</ele><time>2026-04-19T15:55:08.01Z</time></trkpt><trkpt lat="42.391478724083115" lon="12.859347521435168"><ele>389.0</ele><time>2026-04-19T15:55:09.01Z</time></trkpt><trkpt lat="42.39157039975308" lon="12.859341252531578"><ele>389.0</ele><time>2026-04-19T15:55:10.01Z</time></trkpt><trkpt lat="42.391668362522516" lon="12.859341385953847"><ele>389.0</ele><time>2026-04-19T15:55:11.01Z</time></trkpt><trkpt lat="42.39177317104907" lon="12.859350119586267"><ele>389.0</ele><time>2026-04-19T15:55:12.01Z</time></trkpt><trkpt lat="42.39188044909921" lon="12.859359593444683"><ele>389.0</ele><time>2026-04-19T15:55:13.01Z</time></trkpt><trkpt lat="42.39199798503479" lon="12.859378582453145"><ele>389.0</ele><time>2026-04-19T15:55:14.01Z</time></trkpt><trkpt lat="42.39210863250854" lon="12.859401212055289"><ele>389.0</ele><time>2026-04-19T15:55:15.01Z</time></trkpt><trkpt lat="42.39219589069849" lon="12.85943427620213"><ele>389.0</ele><time>2026-04-19T15:55:16.01Z</time></trkpt><trkpt lat="42.39226664630912" lon="12.859478518687336"><ele>388.79999999999995</ele><time>2026-04-19T15:55:17.01Z</time></trkpt><trkpt lat="42.39232494695148" lon="12.859547087237091"><ele>388.59999999999997</ele><time>2026-04-19T15:55:18.01Z</time></trkpt><trkpt lat="42.392386582208516" lon="12.859642902590421"><ele>388.4</ele><time>2026-04-19T15:55:19.01Z</time></trkpt><trkpt lat="42.39244099545311" lon="12.859753748047913"><ele>388.2</ele><time>2026-04-19T15:55:20.01Z</time></trkpt><trkpt lat="42.39249746825496" lon="12.859886074403361"><ele>388.0</ele><time>2026-04-19T15:55:21.01Z</time></trkpt><trkpt lat="42.392550065939126" lon="12.860028113254604"><ele>388.0</ele><time>2026-04-19T15:55:22.01Z</time></trkpt><trkpt lat="42.39260862649266" lon="12.860177744900094"><ele>388.0</ele><time>2026-04-19T15:55:23.01Z</time></trkpt><trkpt lat="42.39266714937873" lon="12.86031535657583"><ele>388.0</ele><time>2026-04-19T15:55:24.01Z</time></trkpt><trkpt lat="42.392733370872705" lon="12.860449133909253"><ele>388.0</ele><time>2026-04-19T15:55:25.01Z</time></trkpt><trkpt lat="42.39280788869096" lon="12.860578582425157"><ele>388.0</ele><time>2026-04-19T15:55:26.01Z</time></trkpt><trkpt lat="42.392885861337675" lon="12.86071456941572"><ele>388.0</ele><time>2026-04-19T15:55:27.01Z</time></trkpt><trkpt lat="42.392985785009905" lon="12.8608277333597"><ele>388.0</ele><time>2026-04-19T15:55:28.009Z</time></trkpt><trkpt lat="42.393070487510286" lon="12.860962021240422"><ele>388.0</ele><time>2026-04-19T15:55:29.009Z</time></trkpt><trkpt lat="42.39316084913604" lon="12.8610689507043"><ele>388.0</ele><time>2026-04-19T15:55:30.009Z</time></trkpt><trkpt lat="42.39324891760402" lon="12.861179175479386"><ele>388.0</ele><time>2026-04-19T15:55:31.009Z</time></trkpt><trkpt lat="42.39334278854345" lon="12.861299993572132"><ele>388.0</ele><time>2026-04-19T15:55:32.009Z</time></trkpt><trkpt lat="42.39344340848519" lon="12.861430629866366"><ele>388.0</ele><time>2026-04-19T15:55:33.009Z</time></trkpt><trkpt lat="42.39354770193672" lon="12.86156895640459"><ele>388.0</ele><time>2026-04-19T15:55:34.009Z</time></trkpt><trkpt lat="42.393648598507205" lon="12.861721470467197"><ele>388.0</ele><time>2026-04-19T15:55:35.009Z</time></trkpt><trkpt lat="42.39373974295236" lon="12.861886097519292"><ele>388.0</ele><time>2026-04-19T15:55:36.009Z</time></trkpt><trkpt lat="42.393823897907126" lon="12.862055390690864"><ele>389.33333333333337</ele><time>2026-04-19T15:55:37.009Z</time></trkpt><trkpt lat="42.39389783420045" lon="12.862227535723349"><ele>390.66666666666663</ele><time>2026-04-19T15:55:38.009Z</time></trkpt><trkpt lat="42.39398785705295" lon="12.862392875155722"><ele>392.0</ele><time>2026-04-19T15:55:39.009Z</time></trkpt><trkpt lat="42.39403505742476" lon="12.862596075249632"><ele>392.0</ele><time>2026-04-19T15:55:40.009Z</time></trkpt><trkpt lat="42.39409953284907" lon="12.86278779433627"><ele>392.0</ele><time>2026-04-19T15:55:41.009Z</time></trkpt><trkpt lat="42.39415791454178" lon="12.862979103002179"><ele>392.0</ele><time>2026-04-19T15:55:42.009Z</time></trkpt><trkpt lat="42.39421327905265" lon="12.863181564291118"><ele>392.0</ele><time>2026-04-19T15:55:43.009Z</time></trkpt><trkpt lat="42.39425905447387" lon="12.86339556161688"><ele>392.0</ele><time>2026-04-19T15:55:44.009Z</time></trkpt><trkpt lat="42.39430575861362" lon="12.863616480351572"><ele>392.0</ele><time>2026-04-19T15:55:45.009Z</time></trkpt><trkpt lat="42.39434798220636" lon="12.86384470993516"><ele>391.66666666666663</ele><time>2026-04-19T15:55:46.009Z</time></trkpt><trkpt lat="42.39439030197967" lon="12.864072953380369"><ele>391.33333333333337</ele><time>2026-04-19T15:55:47.009Z</time></trkpt><trkpt lat="42.3944285451033" lon="12.8643076975237"><ele>391.0</ele><time>2026-04-19T15:55:48.009Z</time></trkpt><trkpt lat="42.39446485302608" lon="12.864537909674963"><ele>392.0</ele><time>2026-04-19T15:55:49.009Z</time></trkpt><trkpt lat="42.394499945803084" lon="12.864771561399428"><ele>393.0</ele><time>2026-04-19T15:55:50.009Z</time></trkpt><trkpt lat="42.39453215482323" lon="12.86500248908717"><ele>394.0</ele><time>2026-04-19T15:55:51.009Z</time></trkpt><trkpt lat="42.39456435205053" lon="12.86523766248662"><ele>401.33333333333337</ele><time>2026-04-19T15:55:52.009Z</time></trkpt><trkpt lat="42.394596394880175" lon="12.865473907964445"><ele>408.66666666666663</ele><time>2026-04-19T15:55:53.009Z</time></trkpt><trkpt lat="42.39463122463818" lon="12.865720824019228"><ele>416.0</ele><time>2026-04-19T15:55:54.009Z</time></trkpt><trkpt lat="42.39466526153413" lon="12.86597279564164"><ele>426.0</ele><time>2026-04-19T15:55:55.009Z</time></trkpt><trkpt lat="42.39470044854217" lon="12.866229796172624"><ele>436.0</ele><time>2026-04-19T15:55:56.009Z</time></trkpt><trkpt lat="42.39473853189879" lon="12.866494984562918"><ele>446.0</ele><time>2026-04-19T15:55:57.009Z</time></trkpt><trkpt lat="42.39477819258042" lon="12.866766936710327"><ele>445.3333333333333</ele><time>2026-04-19T15:55:58.009Z</time></trkpt><trkpt lat="42.394819869260886" lon="12.8670529741904"><ele>444.66666666666663</ele><time>2026-04-19T15:55:59.009Z</time></trkpt><trkpt lat="42.39486336422228" lon="12.867346538801979"><ele>444.0</ele><time>2026-04-19T15:56:00.009Z</time></trkpt><trkpt lat="42.39490894326542" lon="12.867648443888566"><ele>444.0</ele><time>2026-04-19T15:56:01.009Z</time></trkpt><trkpt lat="42.39496190744535" lon="12.868002719360206"><ele>444.0</ele><time>2026-04-19T15:56:02.156Z</time></trkpt><trkpt lat="42.39500995954843" lon="12.86832042594374"><ele>453.5</ele><time>2026-04-19T15:56:03.151Z</time></trkpt><trkpt lat="42.39505713677302" lon="12.868635200655875"><ele>463.0</ele><time>2026-04-19T15:56:04.151Z</time></trkpt><trkpt lat="42.39510760657689" lon="12.868971078523224"><ele>499.0</ele><time>2026-04-19T15:56:05.162Z</time></trkpt><trkpt lat="42.39549724049627" lon="12.87165014440753"><ele>440.0</ele><time>2026-04-19T15:56:08.526Z</time></trkpt><trkpt lat="42.395615358700404" lon="12.872485429204145"><ele>397.0</ele><time>2026-04-19T15:56:09.526Z</time></trkpt><trkpt lat="42.39579178159958" lon="12.873733977780358"><ele>397.0</ele><time>2026-04-19T15:56:26.009Z</time></trkpt><trkpt lat="42.395833010107495" lon="12.8739825010114"><ele>397.0</ele><time>2026-04-19T15:56:27.009Z</time></trkpt><trkpt lat="42.39586254525972" lon="12.874267332284841"><ele>397.0</ele><time>2026-04-19T15:56:28.009Z</time></trkpt><trkpt lat="42.395893168824486" lon="12.87450512594926"><ele>396.6666666666667</ele><time>2026-04-19T15:56:29.009Z</time></trkpt><trkpt lat="42.395907158928715" lon="12.874742523322363"><ele>396.33333333333337</ele><time>2026-04-19T15:56:30.009Z</time></trkpt><trkpt lat="42.39591473907785" lon="12.874972940592764"><ele>396.0</ele><time>2026-04-19T15:56:31.009Z</time></trkpt><trkpt lat="42.395922184425515" lon="12.875194542385739"><ele>395.75</ele><time>2026-04-19T15:56:32.009Z</time></trkpt><trkpt lat="42.39592619767273" lon="12.875404351768623"><ele>395.5</ele><time>2026-04-19T15:56:33.009Z</time></trkpt><trkpt lat="42.395933198679145" lon="12.875559105947012"><ele>395.25</ele><time>2026-04-19T15:56:34.009Z</time></trkpt><trkpt lat="42.39595165777899" lon="12.875701926627816"><ele>395.0</ele><time>2026-04-19T15:56:35.009Z</time></trkpt><trkpt lat="42.395958641147665" lon="12.875813503538511"><ele>394.0</ele><time>2026-04-19T15:56:36.009Z</time></trkpt><trkpt lat="42.395971866967805" lon="12.876033990854467"><ele>393.0</ele><time>2026-04-19T15:56:38.009Z</time></trkpt><trkpt lat="42.39566408879177" lon="12.876101653502673"><ele>393.0</ele><time>2026-04-19T15:56:40.009Z</time></trkpt><trkpt lat="42.3955572727374" lon="12.876120579561483"><ele>393.0</ele><time>2026-04-19T15:56:41.009Z</time></trkpt><trkpt lat="42.39546028104687" lon="12.876118931436837"><ele>393.0</ele><time>2026-04-19T15:56:42.009Z</time></trkpt><trkpt lat="42.39538638726775" lon="12.876059278134171"><ele>393.0</ele><time>2026-04-19T15:56:43.008Z</time></trkpt><trkpt lat="42.39531859560241" lon="12.876018214727777"><ele>393.0</ele><time>2026-04-19T15:56:44.008Z</time></trkpt><trkpt lat="42.3952636279981" lon="12.875947280019709"><ele>393.0</ele><time>2026-04-19T15:56:45.008Z</time></trkpt><trkpt lat="42.39522663604121" lon="12.875833617197882"><ele>395.0</ele><time>2026-04-19T15:56:46.008Z</time></trkpt><trkpt lat="42.39520346290173" lon="12.875721658380137"><ele>397.0</ele><time>2026-04-19T15:56:47.011Z</time></trkpt><trkpt lat="42.3952054777011" lon="12.87560027193243"><ele>399.0</ele><time>2026-04-19T15:56:48.01Z</time></trkpt><trkpt lat="42.3952071522032" lon="12.875454014540841"><ele>401.0</ele><time>2026-04-19T15:56:49.01Z</time></trkpt><trkpt lat="42.39529290671028" lon="12.875222120179709"><ele>403.0</ele><time>2026-04-19T15:56:50.011Z</time></trkpt><trkpt lat="42.39532945224131" lon="12.875042488071331"><ele>405.0</ele><time>2026-04-19T15:56:51.011Z</time></trkpt><trkpt lat="42.39537594160604" lon="12.87485373448908"><ele>407.0</ele><time>2026-04-19T15:56:52.011Z</time></trkpt><trkpt lat="42.395425454512946" lon="12.874664788653826"><ele>409.0</ele><time>2026-04-19T15:56:53.01Z</time></trkpt><trkpt lat="42.39547081316726" lon="12.874473318818145"><ele>405.0</ele><time>2026-04-19T15:56:54.011Z</time></trkpt><trkpt lat="42.39552683127932" lon="12.874291118158522"><ele>401.0</ele><time>2026-04-19T15:56:55.011Z</time></trkpt><trkpt lat="42.39559931993644" lon="12.874102230296572"><ele>397.0</ele><time>2026-04-19T15:56:56.011Z</time></trkpt><trkpt lat="42.395686650166695" lon="12.873921060742468"><ele>397.0</ele><time>2026-04-19T15:56:57.01Z</time></trkpt><trkpt lat="42.39578005251129" lon="12.873746231394893"><ele>397.0</ele><time>2026-04-19T15:56:58.01Z</time></trkpt><trkpt lat="42.395871154345215" lon="12.873583883987989"><ele>397.0</ele><time>2026-04-19T15:56:59.011Z</time></trkpt><trkpt lat="42.39596803618861" lon="12.873435405578705"><ele>397.0</ele><time>2026-04-19T15:57:00.01Z</time></trkpt><trkpt lat="42.39606186592906" lon="12.873309924691943"><ele>397.0</ele><time>2026-04-19T15:57:01.01Z</time></trkpt><trkpt lat="42.396183238503106" lon="12.873223416365837"><ele>397.0</ele><time>2026-04-19T15:57:02.01Z</time></trkpt><trkpt lat="42.396280945341736" lon="12.87316615074201"><ele>397.0</ele><time>2026-04-19T15:57:03.01Z</time></trkpt><trkpt lat="42.39637596615413" lon="12.873157892394635"><ele>397.00000000000006</ele><time>2026-04-19T15:57:04.01Z</time></trkpt><trkpt lat="42.39645593209045" lon="12.873176759030084"><ele>397.0</ele><time>2026-04-19T15:57:05.01Z</time></trkpt><trkpt lat="42.39653467467469" lon="12.873235569505026"><ele>397.0</ele><time>2026-04-19T15:57:06.01Z</time></trkpt><trkpt lat="42.39658541028166" lon="12.873317434967714"><ele>397.0</ele><time>2026-04-19T15:57:07.01Z</time></trkpt><trkpt lat="42.39662165337365" lon="12.873427700145513"><ele>397.00000000000006</ele><time>2026-04-19T15:57:08.01Z</time></trkpt><trkpt lat="42.396636609699534" lon="12.873570326210034"><ele>397.0</ele><time>2026-04-19T15:57:09.01Z</time></trkpt><trkpt lat="42.39665690557318" lon="12.873733849620775"><ele>396.20000000000005</ele><time>2026-04-19T15:57:10.01Z</time></trkpt><trkpt lat="42.396674965065706" lon="12.873917772592318"><ele>395.4</ele><time>2026-04-19T15:57:11.01Z</time></trkpt><trkpt lat="42.39669127689421" lon="12.874073737133937"><ele>394.6</ele><time>2026-04-19T15:57:12.01Z</time></trkpt><trkpt lat="42.39669364651849" lon="12.874208942393734"><ele>393.79999999999995</ele><time>2026-04-19T15:57:13.01Z</time></trkpt><trkpt lat="42.39668036055128" lon="12.874329816074818"><ele>393.0</ele><time>2026-04-19T15:57:14.01Z</time></trkpt><trkpt lat="42.39661795034331" lon="12.8744347051994"><ele>393.0</ele><time>2026-04-19T15:57:15.01Z</time></trkpt><trkpt lat="42.3965418953813" lon="12.874499281583386"><ele>393.0</ele><time>2026-04-19T15:57:16.01Z</time></trkpt><trkpt lat="42.39649291118647" lon="12.874577728846324"><ele>393.0</ele><time>2026-04-19T15:57:17.01Z</time></trkpt><trkpt lat="42.39639878299981" lon="12.874576415616755"><ele>393.0</ele><time>2026-04-19T15:57:18.01Z</time></trkpt><trkpt lat="42.39629825693242" lon="12.874535032987989"><ele>393.0</ele><time>2026-04-19T15:57:19.01Z</time></trkpt><trkpt lat="42.39622805735916" lon="12.874458454839305"><ele>393.59999999999997</ele><time>2026-04-19T15:57:20.01Z</time></trkpt><trkpt lat="42.396193230794594" lon="12.874379700442631"><ele>394.2</ele><time>2026-04-19T15:57:21.01Z</time></trkpt><trkpt lat="42.39615368965006" lon="12.874265486569882"><ele>394.8</ele><time>2026-04-19T15:57:23.01Z</time></trkpt><trkpt lat="42.39611963325683" lon="12.874141690994328"><ele>395.4</ele><time>2026-04-19T15:57:25.01Z</time></trkpt><trkpt lat="42.396101937829236" lon="12.874029032303863"><ele>396.0</ele><time>2026-04-19T15:57:26.01Z</time></trkpt><trkpt lat="42.39608342127633" lon="12.873875332897601"><ele>396.33333333333337</ele><time>2026-04-19T15:57:27.01Z</time></trkpt><trkpt lat="42.39605368629718" lon="12.873682643997492"><ele>396.6666666666667</ele><time>2026-04-19T15:57:28.01Z</time></trkpt><trkpt lat="42.3960186351613" lon="12.873473680270594"><ele>397.0</ele><time>2026-04-19T15:57:29.01Z</time></trkpt><trkpt lat="42.39598849737648" lon="12.873226989592553"><ele>400.33333333333337</ele><time>2026-04-19T15:57:30.01Z</time></trkpt><trkpt lat="42.395950749381065" lon="12.872968728345588"><ele>403.66666666666663</ele><time>2026-04-19T15:57:31.01Z</time></trkpt><trkpt lat="42.39591308706226" lon="12.87270783762181"><ele>407.0</ele><time>2026-04-19T15:57:32.01Z</time></trkpt><trkpt lat="42.3958747709558" lon="12.87245450270847"><ele>418.0</ele><time>2026-04-19T15:57:33.01Z</time></trkpt><trkpt lat="42.39583307926294" lon="12.872195392369408"><ele>429.0</ele><time>2026-04-19T15:57:34.01Z</time></trkpt><trkpt lat="42.39579286730744" lon="12.871936790879248"><ele>440.0</ele><time>2026-04-19T15:57:35.01Z</time></trkpt><trkpt lat="42.39575672368905" lon="12.871684527656656"><ele>452.3333333333333</ele><time>2026-04-19T15:57:36.01Z</time></trkpt><trkpt lat="42.39571916040069" lon="12.87142313312236"><ele>464.66666666666663</ele><time>2026-04-19T15:57:37.01Z</time></trkpt><trkpt lat="42.39567984293213" lon="12.871159920469733"><ele>477.0</ele><time>2026-04-19T15:57:38.01Z</time></trkpt><trkpt lat="42.39565489058058" lon="12.870903528388514"><ele>444.0</ele><time>2026-04-19T15:57:39.01Z</time></trkpt><trkpt lat="42.39516708881273" lon="12.867653950319717"><ele>437.0</ele><time>2026-04-19T15:57:44.525Z</time></trkpt><trkpt lat="42.39504691075931" lon="12.86681958366757"><ele>446.0</ele><time>2026-04-19T15:57:45.525Z</time></trkpt><trkpt lat="42.39492880415161" lon="12.865983944493337"><ele>407.0</ele><time>2026-04-19T15:57:46.526Z</time></trkpt><trkpt lat="42.39470303745787" lon="12.864422217937813"><ele>401.66666666666663</ele><time>2026-04-19T15:57:59.009Z</time></trkpt><trkpt lat="42.39465561608628" lon="12.86414647138254"><ele>396.33333333333337</ele><time>2026-04-19T15:58:00.009Z</time></trkpt><trkpt lat="42.39461032193348" lon="12.863883892299024"><ele>391.0</ele><time>2026-04-19T15:58:01.009Z</time></trkpt><trkpt lat="42.39454308573875" lon="12.863607686670187"><ele>391.33333333333337</ele><time>2026-04-19T15:58:02.009Z</time></trkpt><trkpt lat="42.39446754909656" lon="12.86333142617862"><ele>391.66666666666663</ele><time>2026-04-19T15:58:03.009Z</time></trkpt><trkpt lat="42.394397737987426" lon="12.863072470396782"><ele>392.0</ele><time>2026-04-19T15:58:04.009Z</time></trkpt><trkpt lat="42.39430987732853" lon="12.862807834945688"><ele>392.0</ele><time>2026-04-19T15:58:05.009Z</time></trkpt><trkpt lat="42.39421359420091" lon="12.862551286078745"><ele>392.0</ele><time>2026-04-19T15:58:06.009Z</time></trkpt><trkpt lat="42.394110998909234" lon="12.862305087033656"><ele>392.0</ele><time>2026-04-19T15:58:07.009Z</time></trkpt><trkpt lat="42.394012339385526" lon="12.862053115003517"><ele>392.0</ele><time>2026-04-19T15:58:08.009Z</time></trkpt><trkpt lat="42.39390953276513" lon="12.861804195520046"><ele>392.0</ele><time>2026-04-19T15:58:09.009Z</time></trkpt><trkpt lat="42.393812373673185" lon="12.861553664427635"><ele>392.0</ele><time>2026-04-19T15:58:10.009Z</time></trkpt><trkpt lat="42.393723642913464" lon="12.861298798361908"><ele>391.0</ele><time>2026-04-19T15:58:11.009Z</time></trkpt><trkpt lat="42.39364329158595" lon="12.861043568955933"><ele>390.0</ele><time>2026-04-19T15:58:12.009Z</time></trkpt><trkpt lat="42.39357058279454" lon="12.860792189026402"><ele>389.0</ele><time>2026-04-19T15:58:13.009Z</time></trkpt><trkpt lat="42.39350725922787" lon="12.860532136024021"><ele>389.0</ele><time>2026-04-19T15:58:14.009Z</time></trkpt><trkpt lat="42.393447829623234" lon="12.86026986340064"><ele>389.0</ele><time>2026-04-19T15:58:15.009Z</time></trkpt><trkpt lat="42.393397498508754" lon="12.860004215866324"><ele>389.0</ele><time>2026-04-19T15:58:16.009Z</time></trkpt><trkpt lat="42.39335107460954" lon="12.859738223432942"><ele>388.66666666666663</ele><time>2026-04-19T15:58:17.009Z</time></trkpt><trkpt lat="42.393325442850156" lon="12.85947050678494"><ele>388.33333333333337</ele><time>2026-04-19T15:58:18.009Z</time></trkpt><trkpt lat="42.39330397771526" lon="12.859205476756523"><ele>388.0</ele><time>2026-04-19T15:58:19.009Z</time></trkpt><trkpt lat="42.39329533489219" lon="12.858950031500024"><ele>388.0</ele><time>2026-04-19T15:58:20.009Z</time></trkpt><trkpt lat="42.39329686045089" lon="12.858684211073532"><ele>388.0</ele><time>2026-04-19T15:58:21.009Z</time></trkpt><trkpt lat="42.39329941942679" lon="12.8584239034509"><ele>388.0</ele><time>2026-04-19T15:58:22.009Z</time></trkpt><trkpt lat="42.39330373903352" lon="12.85816164249571"><ele>388.0</ele><time>2026-04-19T15:58:23.009Z</time></trkpt><trkpt lat="42.39331411835904" lon="12.857894941242897"><ele>388.0</ele><time>2026-04-19T15:58:24.009Z</time></trkpt><trkpt lat="42.39332923859941" lon="12.857650994117762"><ele>388.0</ele><time>2026-04-19T15:58:25.009Z</time></trkpt><trkpt lat="42.39333457824373" lon="12.857401671380954"><ele>387.6666666666667</ele><time>2026-04-19T15:58:26.009Z</time></trkpt><trkpt lat="42.39334220140821" lon="12.857162399948217"><ele>387.33333333333337</ele><time>2026-04-19T15:58:27.009Z</time></trkpt><trkpt lat="42.39335017342958" lon="12.8569342178968"><ele>387.0</ele><time>2026-04-19T15:58:28.009Z</time></trkpt><trkpt lat="42.393362312392725" lon="12.856708968217305"><ele>387.0</ele><time>2026-04-19T15:58:29.009Z</time></trkpt><trkpt lat="42.39336685836285" lon="12.856491885758876"><ele>387.0</ele><time>2026-04-19T15:58:30.009Z</time></trkpt><trkpt lat="42.39337213830813" lon="12.85628093110898"><ele>387.0</ele><time>2026-04-19T15:58:31.009Z</time></trkpt><trkpt lat="42.39338597396111" lon="12.856074646300067"><ele>387.5</ele><time>2026-04-19T15:58:32.009Z</time></trkpt><trkpt lat="42.39339810358603" lon="12.85587847795308"><ele>388.0</ele><time>2026-04-19T15:58:33.009Z</time></trkpt><trkpt lat="42.39340119861042" lon="12.855683662942855"><ele>388.5</ele><time>2026-04-19T15:58:34.009Z</time></trkpt><trkpt lat="42.39340747788975" lon="12.855490667817325"><ele>389.0</ele><time>2026-04-19T15:58:35.009Z</time></trkpt><trkpt lat="42.393416735095386" lon="12.855309836356769"><ele>389.0</ele><time>2026-04-19T15:58:36.009Z</time></trkpt><trkpt lat="42.39342091068129" lon="12.85513479571336"><ele>389.0</ele><time>2026-04-19T15:58:37.009Z</time></trkpt><trkpt lat="42.39342786665506" lon="12.85496756106846"><ele>389.0</ele><time>2026-04-19T15:58:38.009Z</time></trkpt><trkpt lat="42.393438035662726" lon="12.854795384677745"><ele>389.0</ele><time>2026-04-19T15:58:39.009Z</time></trkpt><trkpt lat="42.39343936995632" lon="12.854630265331489"><ele>388.79999999999995</ele><time>2026-04-19T15:58:40.009Z</time></trkpt><trkpt lat="42.39344155885657" lon="12.854472991334976"><ele>388.59999999999997</ele><time>2026-04-19T15:58:41.009Z</time></trkpt><trkpt lat="42.393447139369755" lon="12.854321120070038"><ele>388.4</ele><time>2026-04-19T15:58:42.009Z</time></trkpt><trkpt lat="42.39345100689849" lon="12.854177100389489"><ele>388.2</ele><time>2026-04-19T15:58:43.009Z</time></trkpt><trkpt lat="42.393447233769834" lon="12.854022471570689"><ele>388.0</ele><time>2026-04-19T15:58:44.009Z</time></trkpt><trkpt lat="42.39344149586568" lon="12.85388043466696"><ele>387.79999999999995</ele><time>2026-04-19T15:58:45.009Z</time></trkpt><trkpt lat="42.39343222761802" lon="12.853739728371847"><ele>387.6</ele><time>2026-04-19T15:58:46.009Z</time></trkpt><trkpt lat="42.393424758435316" lon="12.853600544380837"><ele>387.4</ele><time>2026-04-19T15:58:47.009Z</time></trkpt><trkpt lat="42.39341413191165" lon="12.853454414481586"><ele>387.20000000000005</ele><time>2026-04-19T15:58:48.009Z</time></trkpt><trkpt lat="42.39340356651076" lon="12.853312568097202"><ele>387.0</ele><time>2026-04-19T15:58:49.009Z</time></trkpt><trkpt lat="42.39339131725929" lon="12.853173441293523"><ele>387.0</ele><time>2026-04-19T15:58:50.009Z</time></trkpt><trkpt lat="42.39337900934245" lon="12.853037207822293"><ele>387.0</ele><time>2026-04-19T15:58:51.009Z</time></trkpt><trkpt lat="42.393360356844305" lon="12.852894261160023"><ele>387.0</ele><time>2026-04-19T15:58:52.009Z</time></trkpt><trkpt lat="42.393320227076494" lon="12.85259788985656"><ele>387.0</ele><time>2026-04-19T15:58:54.011Z</time></trkpt><trkpt lat="42.393296214189085" lon="12.852439020294348"><ele>386.75</ele><time>2026-04-19T15:58:55.011Z</time></trkpt><trkpt lat="42.39326794814033" lon="12.852282429962585"><ele>386.5</ele><time>2026-04-19T15:58:56.011Z</time></trkpt><trkpt lat="42.393237666400985" lon="12.852123711104063"><ele>386.25</ele><time>2026-04-19T15:58:57.011Z</time></trkpt><trkpt lat="42.39320441027796" lon="12.85196696384777"><ele>386.0</ele><time>2026-04-19T15:58:58.011Z</time></trkpt><trkpt lat="42.39316926055512" lon="12.851802696726255"><ele>386.0</ele><time>2026-04-19T15:58:59.011Z</time></trkpt><trkpt lat="42.39312767545652" lon="12.85164996169092"><ele>386.0</ele><time>2026-04-19T15:59:00.011Z</time></trkpt><trkpt lat="42.393083419759144" lon="12.851502968347528"><ele>386.0</ele><time>2026-04-19T15:59:01.011Z</time></trkpt><trkpt lat="42.39304135987072" lon="12.851352004996697"><ele>386.0</ele><time>2026-04-19T15:59:02.011Z</time></trkpt><trkpt lat="42.392995500497854" lon="12.851196395371511"><ele>386.0</ele><time>2026-04-19T15:59:03.011Z</time></trkpt><trkpt lat="42.39294550822952" lon="12.851039393172384"><ele>386.0</ele><time>2026-04-19T15:59:04.011Z</time></trkpt><trkpt lat="42.39289461614645" lon="12.85088335859456"><ele>386.0</ele><time>2026-04-19T15:59:05.011Z</time></trkpt><trkpt lat="42.39285635713773" lon="12.850729283923474"><ele>386.0</ele><time>2026-04-19T15:59:06.012Z</time></trkpt><trkpt lat="42.39282256374007" lon="12.850567071634359"><ele>385.75</ele><time>2026-04-19T15:59:07.012Z</time></trkpt><trkpt lat="42.39280167080583" lon="12.850409980707639"><ele>385.5</ele><time>2026-04-19T15:59:08.012Z</time></trkpt><trkpt lat="42.39277388723183" lon="12.850250537876764"><ele>385.25</ele><time>2026-04-19T15:59:09.012Z</time></trkpt><trkpt lat="42.39276003125423" lon="12.850078948219293"><ele>385.0</ele><time>2026-04-19T15:59:10.011Z</time></trkpt><trkpt lat="42.39275980673742" lon="12.84990350089848"><ele>385.5</ele><time>2026-04-19T15:59:11.011Z</time></trkpt><trkpt lat="42.39276869943453" lon="12.849730907649164"><ele>386.0</ele><time>2026-04-19T15:59:12.011Z</time></trkpt><trkpt lat="42.39278225289832" lon="12.849555239313386"><ele>386.5</ele><time>2026-04-19T15:59:13.011Z</time></trkpt><trkpt lat="42.39280578875508" lon="12.849377594947972"><ele>387.0</ele><time>2026-04-19T15:59:14.011Z</time></trkpt><trkpt lat="42.39284487128219" lon="12.849200589558238"><ele>387.0</ele><time>2026-04-19T15:59:15.011Z</time></trkpt><trkpt lat="42.392882733469136" lon="12.84903148186681"><ele>387.0</ele><time>2026-04-19T15:59:16.011Z</time></trkpt><trkpt lat="42.392908746703256" lon="12.848866334439638"><ele>387.0</ele><time>2026-04-19T15:59:17.011Z</time></trkpt><trkpt lat="42.39290980488529" lon="12.848709602665604"><ele>387.0</ele><time>2026-04-19T15:59:18.011Z</time></trkpt><trkpt lat="42.392886986954274" lon="12.848567430683438"><ele>387.25</ele><time>2026-04-19T15:59:19.011Z</time></trkpt><trkpt lat="42.39283528464472" lon="12.84843370055888"><ele>387.5</ele><time>2026-04-19T15:59:20.011Z</time></trkpt><trkpt lat="42.39276226844294" lon="12.848317105860495"><ele>387.75</ele><time>2026-04-19T15:59:21.011Z</time></trkpt><trkpt lat="42.39266960449686" lon="12.848231599220792"><ele>388.0</ele><time>2026-04-19T15:59:22.011Z</time></trkpt><trkpt lat="42.39256331642682" lon="12.848170961395393"><ele>388.0</ele><time>2026-04-19T15:59:23.011Z</time></trkpt><trkpt lat="42.39245026803935" lon="12.848140040724363"><ele>388.0</ele><time>2026-04-19T15:59:24.011Z</time></trkpt><trkpt lat="42.39233269506351" lon="12.84817013518354"><ele>388.0</ele><time>2026-04-19T15:59:25.011Z</time></trkpt><trkpt lat="42.39222263432145" lon="12.848234647149546"><ele>388.0</ele><time>2026-04-19T15:59:26.011Z</time></trkpt><trkpt lat="42.392125479953016" lon="12.848328302903669"><ele>387.75</ele><time>2026-04-19T15:59:27.011Z</time></trkpt><trkpt lat="42.39204428771463" lon="12.848457807952848"><ele>387.5</ele><time>2026-04-19T15:59:28.011Z</time></trkpt><trkpt lat="42.391969515747014" lon="12.84859912230276"><ele>387.25</ele><time>2026-04-19T15:59:29.011Z</time></trkpt><trkpt lat="42.39188631668482" lon="12.84874810095845"><ele>387.0</ele><time>2026-04-19T15:59:30.011Z</time></trkpt><trkpt lat="42.39180148292263" lon="12.84889592630918"><ele>387.0</ele><time>2026-04-19T15:59:31.011Z</time></trkpt><trkpt lat="42.39171397262715" lon="12.849047182058046"><ele>387.0</ele><time>2026-04-19T15:59:32.011Z</time></trkpt><trkpt lat="42.3916228723159" lon="12.849200547500741"><ele>387.0</ele><time>2026-04-19T15:59:33.011Z</time></trkpt><trkpt lat="42.39153236661865" lon="12.849349813962846"><ele>387.0</ele><time>2026-04-19T15:59:34.011Z</time></trkpt><trkpt lat="42.39143648487081" lon="12.849504155019007"><ele>387.33333333333337</ele><time>2026-04-19T15:59:35.011Z</time></trkpt><trkpt lat="42.39133236236388" lon="12.849653301870418"><ele>387.6666666666667</ele><time>2026-04-19T15:59:36.011Z</time></trkpt><trkpt lat="42.39122357559966" lon="12.849803039396472"><ele>388.0</ele><time>2026-04-19T15:59:37.011Z</time></trkpt><trkpt lat="42.39110450758954" lon="12.849952613497862"><ele>388.0</ele><time>2026-04-19T15:59:38.011Z</time></trkpt><trkpt lat="42.39097885675784" lon="12.850104640612056"><ele>388.0</ele><time>2026-04-19T15:59:39.011Z</time></trkpt><trkpt lat="42.3908334259077" lon="12.850251217418345"><ele>388.0</ele><time>2026-04-19T15:59:40.011Z</time></trkpt><trkpt lat="42.3906861188652" lon="12.850391170643267"><ele>387.6666666666667</ele><time>2026-04-19T15:59:41.011Z</time></trkpt><trkpt lat="42.390537630762985" lon="12.850530996030978"><ele>387.33333333333337</ele><time>2026-04-19T15:59:42.011Z</time></trkpt><trkpt lat="42.390383112762194" lon="12.850676845169724"><ele>387.0</ele><time>2026-04-19T15:59:43.011Z</time></trkpt><trkpt lat="42.39023370201843" lon="12.850819517573488"><ele>390.66666666666663</ele><time>2026-04-19T15:59:44.011Z</time></trkpt><trkpt lat="42.39008968058546" lon="12.850956710028798"><ele>394.3333333333333</ele><time>2026-04-19T15:59:45.011Z</time></trkpt><trkpt lat="42.38994492946501" lon="12.851088589169725"><ele>398.0</ele><time>2026-04-19T15:59:46.011Z</time></trkpt><trkpt lat="42.38979924778819" lon="12.851225744604436"><ele>409.3333333333333</ele><time>2026-04-19T15:59:47.011Z</time></trkpt><trkpt lat="42.389646449912654" lon="12.85136262131982"><ele>420.66666666666663</ele><time>2026-04-19T15:59:48.011Z</time></trkpt><trkpt lat="42.38948890123602" lon="12.851500237722925"><ele>432.0</ele><time>2026-04-19T15:59:49.011Z</time></trkpt><trkpt lat="42.38932574674791" lon="12.851638248808117"><ele>432.0</ele><time>2026-04-19T15:59:50.011Z</time></trkpt><trkpt lat="42.3891546494731" lon="12.851772533884198"><ele>432.0</ele><time>2026-04-19T15:59:51.011Z</time></trkpt><trkpt lat="42.3889767822242" lon="12.851905950874034"><ele>432.0</ele><time>2026-04-19T15:59:52.011Z</time></trkpt><trkpt lat="42.388789372339716" lon="12.85203947429162"><ele>438.0</ele><time>2026-04-19T15:59:53.011Z</time></trkpt><trkpt lat="42.388595554480304" lon="12.852173272164638"><ele>444.0</ele><time>2026-04-19T15:59:54.011Z</time></trkpt><trkpt lat="42.38839262419448" lon="12.852306989772858"><ele>450.0</ele><time>2026-04-19T15:59:55.011Z</time></trkpt><trkpt lat="42.38646921027094" lon="12.853109121386808"><ele>551.0</ele><time>2026-04-19T15:59:59.523Z</time></trkpt><trkpt lat="42.38567955401997" lon="12.853358745165401"><ele>512.0</ele><time>2026-04-19T16:00:00.524Z</time></trkpt><trkpt lat="42.384889646705304" lon="12.853601918107938"><ele>537.0</ele><time>2026-04-19T16:00:01.524Z</time></trkpt><trkpt lat="42.384099948646366" lon="12.853844430425085"><ele>578.0</ele><time>2026-04-19T16:00:02.524Z</time></trkpt><trkpt lat="42.38331008072992" lon="12.854089003644534"><ele>597.0</ele><time>2026-04-19T16:00:03.524Z</time></trkpt><trkpt lat="42.382521377754216" lon="12.854334941961246"><ele>595.0</ele><time>2026-04-19T16:00:04.523Z</time></trkpt><trkpt lat="42.38173123290067" lon="12.854578888249069"><ele>605.0</ele><time>2026-04-19T16:00:05.523Z</time></trkpt><trkpt lat="42.380942128112096" lon="12.85482461488528"><ele>604.0</ele><time>2026-04-19T16:00:06.523Z</time></trkpt><trkpt lat="42.380153269331124" lon="12.855071972407833"><ele>548.0</ele><time>2026-04-19T16:00:07.523Z</time></trkpt><trkpt lat="42.379363778119206" lon="12.85532055753867"><ele>544.0</ele><time>2026-04-19T16:00:08.523Z</time></trkpt><trkpt lat="42.37857449039602" lon="12.855566339177212"><ele>524.0</ele><time>2026-04-19T16:00:09.523Z</time></trkpt><trkpt lat="42.37778368367105" lon="12.855803737803182"><ele>483.0</ele><time>2026-04-19T16:00:10.523Z</time></trkpt><trkpt lat="42.3769888428153" lon="12.856015228347184"><ele>474.0</ele><time>2026-04-19T16:00:11.523Z</time></trkpt><trkpt lat="42.37618751449331" lon="12.856175967105335"><ele>487.0</ele><time>2026-04-19T16:00:12.523Z</time></trkpt><trkpt lat="42.375381038745864" lon="12.856282395620033"><ele>529.0</ele><time>2026-04-19T16:00:13.523Z</time></trkpt><trkpt lat="42.37457285394386" lon="12.856355118766679"><ele>552.0</ele><time>2026-04-19T16:00:14.523Z</time></trkpt><trkpt lat="42.37376209680276" lon="12.856368716182363"><ele>530.0</ele><time>2026-04-19T16:00:15.524Z</time></trkpt><trkpt lat="42.372952855804314" lon="12.856337192222618"><ele>512.0</ele><time>2026-04-19T16:00:16.523Z</time></trkpt><trkpt lat="42.37214433542232" lon="12.85625786311586"><ele>529.0</ele><time>2026-04-19T16:00:17.524Z</time></trkpt><trkpt lat="42.37133681274283" lon="12.856168061422803"><ele>529.0</ele><time>2026-04-19T16:00:18.524Z</time></trkpt><trkpt lat="42.37052922520969" lon="12.856081480362738"><ele>525.0</ele><time>2026-04-19T16:00:19.524Z</time></trkpt><trkpt lat="42.36972210234476" lon="12.855993259262513"><ele>536.0</ele><time>2026-04-19T16:00:20.523Z</time></trkpt><trkpt lat="42.36891511945264" lon="12.85589999180719"><ele>503.0</ele><time>2026-04-19T16:00:21.523Z</time></trkpt><trkpt lat="42.36810792947144" lon="12.855802612721293"><ele>475.0</ele><time>2026-04-19T16:00:22.523Z</time></trkpt><trkpt lat="42.367303374151184" lon="12.855679810728834"><ele>460.0</ele><time>2026-04-19T16:00:23.522Z</time></trkpt><trkpt lat="42.36650099043197" lon="12.85551935369661"><ele>468.0</ele><time>2026-04-19T16:00:24.523Z</time></trkpt><trkpt lat="42.36570445854476" lon="12.85532460035974"><ele>488.0</ele><time>2026-04-19T16:00:25.523Z</time></trkpt><trkpt lat="42.36491133062655" lon="12.855100472687987"><ele>476.0</ele><time>2026-04-19T16:00:26.523Z</time></trkpt><trkpt lat="42.364121993084815" lon="12.854847184846868"><ele>477.0</ele><time>2026-04-19T16:00:27.524Z</time></trkpt><trkpt lat="42.3633409156562" lon="12.854566103569578"><ele>475.0</ele><time>2026-04-19T16:00:28.522Z</time></trkpt><trkpt lat="42.36256342541079" lon="12.854256662284786"><ele>479.0</ele><time>2026-04-19T16:00:29.523Z</time></trkpt><trkpt lat="42.36178578663287" lon="12.85395022153713"><ele>487.0</ele><time>2026-04-19T16:00:30.523Z</time></trkpt><trkpt lat="42.36100803601688" lon="12.853641838867714"><ele>522.0</ele><time>2026-04-19T16:00:31.523Z</time></trkpt><trkpt lat="42.36022691172266" lon="12.853354168121955"><ele>538.0</ele><time>2026-04-19T16:00:32.523Z</time></trkpt><trkpt lat="42.359436684684184" lon="12.853111461624648"><ele>529.0</ele><time>2026-04-19T16:00:33.523Z</time></trkpt><trkpt lat="42.35863928464671" lon="12.852920020188211"><ele>529.0</ele><time>2026-04-19T16:00:34.523Z</time></trkpt><trkpt lat="42.3585439" lon="12.8529"><ele>529.0</ele><time>2026-04-19T16:00:35.523Z</time></trkpt><trkpt lat="42.35774069239593" lon="12.85275782701111"><ele>485.0</ele><time>2026-04-19T16:01:37.522Z</time></trkpt><trkpt lat="42.356932761244025" lon="12.852665851362678"><ele>542.0</ele><time>2026-04-19T16:01:38.523Z</time></trkpt><trkpt lat="42.356123945607834" lon="12.852622311573471"><ele>521.0</ele><time>2026-04-19T16:01:39.522Z</time></trkpt><trkpt lat="42.35531388291014" lon="12.852630214131862"><ele>524.0</ele><time>2026-04-19T16:01:40.522Z</time></trkpt><trkpt lat="42.35450493065373" lon="12.852689933269941"><ele>493.0</ele><time>2026-04-19T16:01:41.522Z</time></trkpt><trkpt lat="42.35369848738626" lon="12.852790997226231"><ele>454.0</ele><time>2026-04-19T16:01:42.521Z</time></trkpt><trkpt lat="42.352896758150145" lon="12.85294960364585"><ele>426.0</ele><time>2026-04-19T16:01:43.522Z</time></trkpt><trkpt lat="42.35209800267292" lon="12.853132986587276"><ele>426.0</ele><time>2026-04-19T16:01:44.522Z</time></trkpt><trkpt lat="42.3514005" lon="12.8532997"><ele>407.0</ele><time>2026-04-19T16:01:45.522Z</time></trkpt><trkpt lat="42.34958743329751" lon="12.853677400725475"><ele>407.0</ele><time>2026-04-19T16:03:12.008Z</time></trkpt><trkpt lat="42.34944322782236" lon="12.853744943462411"><ele>407.0</ele><time>2026-04-19T16:03:13.008Z</time></trkpt><trkpt lat="42.34925225494441" lon="12.853796542362756"><ele>407.0</ele><time>2026-04-19T16:03:14.008Z</time></trkpt><trkpt lat="42.34907111787068" lon="12.853873808234594"><ele>407.0</ele><time>2026-04-19T16:03:15.012Z</time></trkpt><trkpt lat="42.34888354576662" lon="12.853939518973068"><ele>407.0</ele><time>2026-04-19T16:03:16.012Z</time></trkpt><trkpt lat="42.34869994557688" lon="12.854014982669298"><ele>407.0</ele><time>2026-04-19T16:03:17.012Z</time></trkpt><trkpt lat="42.34852346761616" lon="12.854095540678866"><ele>408.0</ele><time>2026-04-19T16:03:18.012Z</time></trkpt><trkpt lat="42.348344445629266" lon="12.854170013085882"><ele>409.0</ele><time>2026-04-19T16:03:19.012Z</time></trkpt><trkpt lat="42.348164794715075" lon="12.854238681068646"><ele>410.0</ele><time>2026-04-19T16:03:20.012Z</time></trkpt><trkpt lat="42.34798774659159" lon="12.85430893342864"><ele>410.0</ele><time>2026-04-19T16:03:21.011Z</time></trkpt><trkpt lat="42.347818560223246" lon="12.854388891142742"><ele>410.0</ele><time>2026-04-19T16:03:22.011Z</time></trkpt><trkpt lat="42.34764722365214" lon="12.854467972415588"><ele>410.0</ele><time>2026-04-19T16:03:23.011Z</time></trkpt><trkpt lat="42.34747400495535" lon="12.8545468137856"><ele>410.0</ele><time>2026-04-19T16:03:24.011Z</time></trkpt><trkpt lat="42.34729913057683" lon="12.854619073639155"><ele>410.0</ele><time>2026-04-19T16:03:25.012Z</time></trkpt><trkpt lat="42.347122803460664" lon="12.85468982103853"><ele>410.0</ele><time>2026-04-19T16:03:26.012Z</time></trkpt><trkpt lat="42.346947374734285" lon="12.854760891743387"><ele>411.0</ele><time>2026-04-19T16:03:27.012Z</time></trkpt><trkpt lat="42.346771645663004" lon="12.854828789363667"><ele>412.0</ele><time>2026-04-19T16:03:28.012Z</time></trkpt><trkpt lat="42.34659604689402" lon="12.854901171944984"><ele>413.0</ele><time>2026-04-19T16:03:29.012Z</time></trkpt><trkpt lat="42.34642168743851" lon="12.854965844302692"><ele>412.66666666666663</ele><time>2026-04-19T16:03:30.012Z</time></trkpt><trkpt lat="42.346249278426434" lon="12.855027875166309"><ele>412.33333333333337</ele><time>2026-04-19T16:03:31.012Z</time></trkpt><trkpt lat="42.34608492055382" lon="12.8550889019995"><ele>412.0</ele><time>2026-04-19T16:03:32.012Z</time></trkpt><trkpt lat="42.34592342259794" lon="12.855150110353321"><ele>412.0</ele><time>2026-04-19T16:03:33.012Z</time></trkpt><trkpt lat="42.345760065654034" lon="12.85520190741229"><ele>412.0</ele><time>2026-04-19T16:03:34.012Z</time></trkpt><trkpt lat="42.345599509805105" lon="12.855247586556123"><ele>412.0</ele><time>2026-04-19T16:03:35.012Z</time></trkpt><trkpt lat="42.34544055773467" lon="12.855285457010318"><ele>412.33333333333337</ele><time>2026-04-19T16:03:36.012Z</time></trkpt><trkpt lat="42.345279262380124" lon="12.855310478902332"><ele>412.66666666666663</ele><time>2026-04-19T16:03:37.012Z</time></trkpt><trkpt lat="42.345124512143215" lon="12.85532841427004"><ele>413.0</ele><time>2026-04-19T16:03:38.012Z</time></trkpt><trkpt lat="42.34498592047893" lon="12.855341971024735"><ele>413.0</ele><time>2026-04-19T16:03:39.012Z</time></trkpt><trkpt lat="42.344857857720775" lon="12.85534755091204"><ele>413.0</ele><time>2026-04-19T16:03:40.012Z</time></trkpt><trkpt lat="42.34474949383269" lon="12.855350383891567"><ele>413.0</ele><time>2026-04-19T16:03:41.012Z</time></trkpt><trkpt lat="42.3446599971754" lon="12.855343684963795"><ele>413.0</ele><time>2026-04-19T16:03:42.012Z</time></trkpt><trkpt lat="42.34459759949355" lon="12.85531536418214"><ele>413.0</ele><time>2026-04-19T16:03:43.012Z</time></trkpt><trkpt lat="42.34453157545839" lon="12.855237112645954"><ele>413.25</ele><time>2026-04-19T16:03:45.012Z</time></trkpt><trkpt lat="42.34448713398108" lon="12.855126302730131"><ele>413.5</ele><time>2026-04-19T16:03:47.012Z</time></trkpt><trkpt lat="42.3444750110782" lon="12.855032291013197"><ele>413.75</ele><time>2026-04-19T16:03:50.012Z</time></trkpt><trkpt lat="42.34434200696708" lon="12.854989627196252"><ele>414.0</ele><time>2026-04-19T16:03:51.012Z</time></trkpt><trkpt lat="42.34439368399461" lon="12.855263394067286"><ele>414.0</ele><time>2026-04-19T16:04:26.011Z</time></trkpt><trkpt lat="42.34443402820774" lon="12.855353807860034"><ele>414.0</ele><time>2026-04-19T16:05:17.01Z</time></trkpt><trkpt lat="42.34445109819693" lon="12.855450505052843"><ele>414.0</ele><time>2026-04-19T16:05:21.012Z</time></trkpt><trkpt lat="42.34430883295335" lon="12.855470697475294"><ele>414.0</ele><time>2026-04-19T16:05:23.012Z</time></trkpt><trkpt lat="42.34422026253263" lon="12.855459579248635"><ele>414.0</ele><time>2026-04-19T16:05:24.012Z</time></trkpt><trkpt lat="42.34411131192097" lon="12.855476368467036"><ele>414.0</ele><time>2026-04-19T16:05:25.012Z</time></trkpt><trkpt lat="42.343993748189845" lon="12.855484199160703"><ele>414.0</ele><time>2026-04-19T16:05:26.012Z</time></trkpt><trkpt lat="42.34387130797438" lon="12.855499739856208"><ele>414.0</ele><time>2026-04-19T16:05:27.012Z</time></trkpt><trkpt lat="42.343743003969784" lon="12.85551853369444"><ele>414.0</ele><time>2026-04-19T16:05:28.012Z</time></trkpt><trkpt lat="42.34360575587471" lon="12.855536197495992"><ele>414.0</ele><time>2026-04-19T16:05:29.012Z</time></trkpt><trkpt lat="42.343466725923534" lon="12.855554556749004"><ele>414.0</ele><time>2026-04-19T16:05:30.012Z</time></trkpt><trkpt lat="42.343317696004355" lon="12.855574983772165"><ele>414.0</ele><time>2026-04-19T16:05:31.012Z</time></trkpt><trkpt lat="42.3431769434731" lon="12.855595449435622"><ele>414.0</ele><time>2026-04-19T16:05:32.012Z</time></trkpt><trkpt lat="42.34303668476774" lon="12.855615560092142"><ele>415.0</ele><time>2026-04-19T16:05:33.012Z</time></trkpt><trkpt lat="42.34290167703056" lon="12.855633049153518"><ele>416.0</ele><time>2026-04-19T16:05:34.012Z</time></trkpt><trkpt lat="42.34276765129644" lon="12.85564979244366"><ele>417.0</ele><time>2026-04-19T16:05:35.012Z</time></trkpt><trkpt lat="42.34264119481983" lon="12.85566219762449"><ele>418.0</ele><time>2026-04-19T16:05:36.012Z</time></trkpt><trkpt lat="42.34251868207953" lon="12.855675954885319"><ele>418.0</ele><time>2026-04-19T16:05:37.012Z</time></trkpt><trkpt lat="42.342389930240316" lon="12.85569456158438"><ele>418.0</ele><time>2026-04-19T16:05:38.012Z</time></trkpt><trkpt lat="42.34226379728941" lon="12.85571061842956"><ele>418.0</ele><time>2026-04-19T16:05:39.012Z</time></trkpt><trkpt lat="42.342136667678545" lon="12.855727253719955"><ele>418.0</ele><time>2026-04-19T16:05:40.012Z</time></trkpt><trkpt lat="42.342012113672816" lon="12.855742646314335"><ele>419.5</ele><time>2026-04-19T16:05:41.012Z</time></trkpt><trkpt lat="42.341880289490526" lon="12.85576054210509"><ele>421.0</ele><time>2026-04-19T16:05:42.012Z</time></trkpt><trkpt lat="42.34174950211073" lon="12.855778429275071"><ele>422.5</ele><time>2026-04-19T16:05:43.012Z</time></trkpt><trkpt lat="42.34161456603012" lon="12.855795931002442"><ele>424.0</ele><time>2026-04-19T16:05:44.012Z</time></trkpt><trkpt lat="42.34147871131685" lon="12.85581196867801"><ele>424.75</ele><time>2026-04-19T16:05:45.012Z</time></trkpt><trkpt lat="42.34133880709129" lon="12.85582954835324"><ele>425.5</ele><time>2026-04-19T16:05:46.012Z</time></trkpt><trkpt lat="42.341192439227065" lon="12.855846339840141"><ele>426.25</ele><time>2026-04-19T16:05:47.012Z</time></trkpt><trkpt lat="42.341043647723815" lon="12.855864159438672"><ele>427.0</ele><time>2026-04-19T16:05:48.012Z</time></trkpt><trkpt lat="42.34089077588992" lon="12.85588310990731"><ele>427.0</ele><time>2026-04-19T16:05:49.012Z</time></trkpt><trkpt lat="42.34073622948632" lon="12.85590307168159"><ele>427.0</ele><time>2026-04-19T16:05:50.012Z</time></trkpt><trkpt lat="42.34058264734681" lon="12.85591937752537"><ele>427.0</ele><time>2026-04-19T16:05:51.012Z</time></trkpt><trkpt lat="42.34043076620666" lon="12.855936541083494"><ele>423.33333333333337</ele><time>2026-04-19T16:05:52.012Z</time></trkpt><trkpt lat="42.34027610962315" lon="12.855952905643955"><ele>419.66666666666663</ele><time>2026-04-19T16:05:53.012Z</time></trkpt><trkpt lat="42.34011649614865" lon="12.855974616549217"><ele>416.0</ele><time>2026-04-19T16:05:54.012Z</time></trkpt><trkpt lat="42.33995417295604" lon="12.855997217202525"><ele>416.0</ele><time>2026-04-19T16:05:55.012Z</time></trkpt><trkpt lat="42.339792320664486" lon="12.85601822606986"><ele>416.0</ele><time>2026-04-19T16:05:56.012Z</time></trkpt><trkpt lat="42.339624715065405" lon="12.856036180300961"><ele>416.0</ele><time>2026-04-19T16:05:57.012Z</time></trkpt><trkpt lat="42.339454731671175" lon="12.856056032084677"><ele>417.66666666666663</ele><time>2026-04-19T16:05:58.012Z</time></trkpt><trkpt lat="42.33927734581543" lon="12.856081498365251"><ele>419.33333333333337</ele><time>2026-04-19T16:05:59.012Z</time></trkpt><trkpt lat="42.33910522268717" lon="12.85610701768366"><ele>421.0</ele><time>2026-04-19T16:06:00.012Z</time></trkpt><trkpt lat="42.33893739569779" lon="12.856127789601816"><ele>421.33333333333337</ele><time>2026-04-19T16:06:01.012Z</time></trkpt><trkpt lat="42.33876844608639" lon="12.856150518750358"><ele>421.66666666666663</ele><time>2026-04-19T16:06:02.012Z</time></trkpt><trkpt lat="42.33860463776144" lon="12.856176151055864"><ele>422.0</ele><time>2026-04-19T16:06:03.012Z</time></trkpt><trkpt lat="42.33844633479098" lon="12.856200289553088"><ele>422.0</ele><time>2026-04-19T16:06:04.012Z</time></trkpt><trkpt lat="42.338294563649875" lon="12.856217331703123"><ele>422.0</ele><time>2026-04-19T16:06:05.012Z</time></trkpt><trkpt lat="42.338147274757205" lon="12.856229257188097"><ele>422.0</ele><time>2026-04-19T16:06:06.012Z</time></trkpt><trkpt lat="42.33800491666341" lon="12.856240371823262"><ele>422.0</ele><time>2026-04-19T16:06:07.012Z</time></trkpt><trkpt lat="42.33787091235502" lon="12.856259474134022"><ele>421.6</ele><time>2026-04-19T16:06:08.012Z</time></trkpt><trkpt lat="42.33774942877748" lon="12.856274736992463"><ele>421.20000000000005</ele><time>2026-04-19T16:06:09.012Z</time></trkpt><trkpt lat="42.33764078350816" lon="12.856284615342824"><ele>420.8</ele><time>2026-04-19T16:06:10.012Z</time></trkpt><trkpt lat="42.337548706143245" lon="12.856297385693606"><ele>420.4</ele><time>2026-04-19T16:06:11.012Z</time></trkpt><trkpt lat="42.33747986412031" lon="12.856315266992056"><ele>420.0</ele><time>2026-04-19T16:06:12.012Z</time></trkpt><trkpt lat="42.33740300826264" lon="12.856318419228293"><ele>420.0</ele><time>2026-04-19T16:06:14.012Z</time></trkpt><trkpt lat="42.33737110373515" lon="12.856405682817273"><ele>420.0</ele><time>2026-04-19T16:08:15.012Z</time></trkpt><trkpt lat="42.33745654678449" lon="12.856431258081749"><ele>420.0</ele><time>2026-04-19T16:08:17.012Z</time></trkpt><trkpt lat="42.33752575854564" lon="12.856418330445125"><ele>420.0</ele><time>2026-04-19T16:08:18.012Z</time></trkpt><trkpt lat="42.33760855686628" lon="12.856399419996997"><ele>420.0</ele><time>2026-04-19T16:08:19.012Z</time></trkpt><trkpt lat="42.33775864321958" lon="12.856370500995894"><ele>420.0</ele><time>2026-04-19T16:08:20.012Z</time></trkpt><trkpt lat="42.33787125685894" lon="12.856355060792476"><ele>420.0</ele><time>2026-04-19T16:08:21.012Z</time></trkpt><trkpt lat="42.3379990433313" lon="12.856336519902435"><ele>420.0</ele><time>2026-04-19T16:08:22.012Z</time></trkpt><trkpt lat="42.338139851422376" lon="12.856319964835475"><ele>420.0</ele><time>2026-04-19T16:08:23.012Z</time></trkpt><trkpt lat="42.338287338792206" lon="12.856305692495594"><ele>420.66666666666663</ele><time>2026-04-19T16:08:24.012Z</time></trkpt><trkpt lat="42.33844756393159" lon="12.856283066307032"><ele>421.3333333333333</ele><time>2026-04-19T16:08:25.012Z</time></trkpt><trkpt lat="42.33861287368553" lon="12.85626166893139"><ele>422.0</ele><time>2026-04-19T16:08:26.012Z</time></trkpt><trkpt lat="42.338778423253665" lon="12.856240452429887"><ele>421.66666666666663</ele><time>2026-04-19T16:08:27.012Z</time></trkpt><trkpt lat="42.3389427832716" lon="12.856221616659457"><ele>421.33333333333337</ele><time>2026-04-19T16:08:28.012Z</time></trkpt><trkpt lat="42.33911430461508" lon="12.85620012532224"><ele>421.0</ele><time>2026-04-19T16:08:29.012Z</time></trkpt><trkpt lat="42.33928945762288" lon="12.856171471916335"><ele>421.0</ele><time>2026-04-19T16:08:30.012Z</time></trkpt><trkpt lat="42.3394678064652" lon="12.85614727164616"><ele>421.0</ele><time>2026-04-19T16:08:31.012Z</time></trkpt><trkpt lat="42.33964902461732" lon="12.856122570391728"><ele>421.0</ele><time>2026-04-19T16:08:32.012Z</time></trkpt><trkpt lat="42.339832607112925" lon="12.856103919762628"><ele>419.33333333333337</ele><time>2026-04-19T16:08:33.012Z</time></trkpt><trkpt lat="42.340022997356634" lon="12.856080016849413"><ele>417.66666666666663</ele><time>2026-04-19T16:08:34.012Z</time></trkpt><trkpt lat="42.34022043203598" lon="12.856055586235462"><ele>416.0</ele><time>2026-04-19T16:08:35.012Z</time></trkpt><trkpt lat="42.34042000428275" lon="12.856029616059429"><ele>416.0</ele><time>2026-04-19T16:08:36.012Z</time></trkpt><trkpt lat="42.34062304683671" lon="12.856001648674635"><ele>416.0</ele><time>2026-04-19T16:08:37.012Z</time></trkpt><trkpt lat="42.34082709923739" lon="12.855975368790567"><ele>416.0</ele><time>2026-04-19T16:08:38.012Z</time></trkpt><trkpt lat="42.341032824628435" lon="12.855951469265735"><ele>418.66666666666663</ele><time>2026-04-19T16:08:39.012Z</time></trkpt><trkpt lat="42.34123952968299" lon="12.855921267977353"><ele>421.33333333333337</ele><time>2026-04-19T16:08:40.012Z</time></trkpt><trkpt lat="42.34144561884099" lon="12.855896707801325"><ele>424.0</ele><time>2026-04-19T16:08:41.012Z</time></trkpt><trkpt lat="42.34163991670114" lon="12.855876193021116"><ele>424.0</ele><time>2026-04-19T16:08:42.012Z</time></trkpt><trkpt lat="42.341836091183914" lon="12.855851127734944"><ele>424.0</ele><time>2026-04-19T16:08:43.012Z</time></trkpt><trkpt lat="42.342032304167525" lon="12.855822750996955"><ele>424.0</ele><time>2026-04-19T16:08:44.012Z</time></trkpt><trkpt lat="42.342227643791205" lon="12.855796919995809"><ele>422.0</ele><time>2026-04-19T16:08:45.012Z</time></trkpt><trkpt lat="42.342425227859145" lon="12.85577001964024"><ele>420.0</ele><time>2026-04-19T16:08:46.012Z</time></trkpt><trkpt lat="42.34262407747652" lon="12.855742831335359"><ele>418.0</ele><time>2026-04-19T16:08:47.012Z</time></trkpt><trkpt lat="42.34282312525717" lon="12.85571775956414"><ele>418.0</ele><time>2026-04-19T16:08:48.012Z</time></trkpt><trkpt lat="42.3430198441074" lon="12.855692143970971"><ele>418.0</ele><time>2026-04-19T16:08:49.012Z</time></trkpt><trkpt lat="42.34321440909885" lon="12.855666264522677"><ele>418.0</ele><time>2026-04-19T16:08:50.012Z</time></trkpt><trkpt lat="42.343408200415695" lon="12.855638302358152"><ele>416.6666666666667</ele><time>2026-04-19T16:08:51.012Z</time></trkpt><trkpt lat="42.343599844160956" lon="12.855614754641374"><ele>415.33333333333337</ele><time>2026-04-19T16:08:52.012Z</time></trkpt><trkpt lat="42.343794684635846" lon="12.855590301389405"><ele>414.0</ele><time>2026-04-19T16:08:53.012Z</time></trkpt><trkpt lat="42.343986735640314" lon="12.855566563267432"><ele>414.0</ele><time>2026-04-19T16:08:54.012Z</time></trkpt><trkpt lat="42.344177439229725" lon="12.855540609447978"><ele>414.0</ele><time>2026-04-19T16:08:55.012Z</time></trkpt><trkpt lat="42.34436899025122" lon="12.855516239969804"><ele>414.0</ele><time>2026-04-19T16:08:56.012Z</time></trkpt><trkpt lat="42.34456124010608" lon="12.855492536521723"><ele>413.66666666666663</ele><time>2026-04-19T16:08:57.011Z</time></trkpt><trkpt lat="42.34475312141942" lon="12.85546713624329"><ele>413.3333333333333</ele><time>2026-04-19T16:08:58.011Z</time></trkpt><trkpt lat="42.34494490030154" lon="12.85544298011481"><ele>413.0</ele><time>2026-04-19T16:08:59.011Z</time></trkpt><trkpt lat="42.34513686794591" lon="12.855418102487738"><ele>413.0</ele><time>2026-04-19T16:09:00.011Z</time></trkpt><trkpt lat="42.34533047014901" lon="12.855388957318484"><ele>413.0</ele><time>2026-04-19T16:09:01.011Z</time></trkpt><trkpt lat="42.34551832460763" lon="12.85535677491099"><ele>413.0</ele><time>2026-04-19T16:09:02.011Z</time></trkpt><trkpt lat="42.345709890449626" lon="12.855317408414633"><ele>412.66666666666663</ele><time>2026-04-19T16:09:03.011Z</time></trkpt><trkpt lat="42.34589633060496" lon="12.855264640249022"><ele>412.33333333333337</ele><time>2026-04-19T16:09:04.011Z</time></trkpt><trkpt lat="42.34607404904853" lon="12.85520779950603"><ele>412.0</ele><time>2026-04-19T16:09:05.011Z</time></trkpt><trkpt lat="42.34624700731325" lon="12.855145808230246"><ele>412.33333333333337</ele><time>2026-04-19T16:09:06.011Z</time></trkpt><trkpt lat="42.34641631917236" lon="12.855075994368157"><ele>412.66666666666663</ele><time>2026-04-19T16:09:07.011Z</time></trkpt><trkpt lat="42.34658180449284" lon="12.855011900743325"><ele>413.0</ele><time>2026-04-19T16:09:08.011Z</time></trkpt><trkpt lat="42.346738120652226" lon="12.854946061220353"><ele>413.0</ele><time>2026-04-19T16:09:09.011Z</time></trkpt><trkpt lat="42.346890980199596" lon="12.854877618890113"><ele>413.0</ele><time>2026-04-19T16:09:10.011Z</time></trkpt><trkpt lat="42.347042662754575" lon="12.854812630102542"><ele>413.0</ele><time>2026-04-19T16:09:11.011Z</time></trkpt><trkpt lat="42.34718962453972" lon="12.854749421851125"><ele>412.25</ele><time>2026-04-19T16:09:12.011Z</time></trkpt><trkpt lat="42.34733186346824" lon="12.85468784239914"><ele>411.5</ele><time>2026-04-19T16:09:13.011Z</time></trkpt><trkpt lat="42.34747045364336" lon="12.854628727370606"><ele>410.75</ele><time>2026-04-19T16:09:14.011Z</time></trkpt><trkpt lat="42.34760344365314" lon="12.854573514035888"><ele>410.0</ele><time>2026-04-19T16:09:15.011Z</time></trkpt><trkpt lat="42.347738553622314" lon="12.85451812027088"><ele>410.0</ele><time>2026-04-19T16:09:16.011Z</time></trkpt><trkpt lat="42.34787179774025" lon="12.8544624561553"><ele>410.0</ele><time>2026-04-19T16:09:17.011Z</time></trkpt><trkpt lat="42.34800581951392" lon="12.854405334420669"><ele>410.0</ele><time>2026-04-19T16:09:18.011Z</time></trkpt><trkpt lat="42.348140032890484" lon="12.854348054343578"><ele>410.0</ele><time>2026-04-19T16:09:19.011Z</time></trkpt><trkpt lat="42.34827633033774" lon="12.854290362074595"><ele>410.75</ele><time>2026-04-19T16:09:20.011Z</time></trkpt><trkpt lat="42.34841293234949" lon="12.854235584596937"><ele>411.5</ele><time>2026-04-19T16:09:21.011Z</time></trkpt><trkpt lat="42.348549280510156" lon="12.854180503942823"><ele>412.25</ele><time>2026-04-19T16:09:22.011Z</time></trkpt><trkpt lat="42.348687987590516" lon="12.854127529377406"><ele>413.0</ele><time>2026-04-19T16:09:23.011Z</time></trkpt><trkpt lat="42.34882566077239" lon="12.854077609851268"><ele>411.5</ele><time>2026-04-19T16:09:24.011Z</time></trkpt><trkpt lat="42.34896562097398" lon="12.8540293001405"><ele>410.0</ele><time>2026-04-19T16:09:25.011Z</time></trkpt><trkpt lat="42.349107876272015" lon="12.853982573473477"><ele>408.5</ele><time>2026-04-19T16:09:26.011Z</time></trkpt><trkpt lat="42.349252604725" lon="12.853940828287431"><ele>407.0</ele><time>2026-04-19T16:09:27.011Z</time></trkpt><trkpt lat="42.34940117527209" lon="12.853904410261398"><ele>407.0</ele><time>2026-04-19T16:09:28.011Z</time></trkpt><trkpt lat="42.349552607282064" lon="12.853871199751165"><ele>407.0</ele><time>2026-04-19T16:09:29.011Z</time></trkpt><trkpt lat="42.34970379977359" lon="12.85384236155716"><ele>407.0</ele><time>2026-04-19T16:09:30.011Z</time></trkpt><trkpt lat="42.349856164278904" lon="12.853816725556017"><ele>406.66666666666663</ele><time>2026-04-19T16:09:31.011Z</time></trkpt><trkpt lat="42.35001021528197" lon="12.853788565511856"><ele>406.33333333333337</ele><time>2026-04-19T16:09:32.011Z</time></trkpt><trkpt lat="42.350164075025084" lon="12.85376333323945"><ele>406.0</ele><time>2026-04-19T16:09:33.014Z</time></trkpt><trkpt lat="42.350318413626944" lon="12.853736064075278"><ele>406.0</ele><time>2026-04-19T16:09:34.013Z</time></trkpt><trkpt lat="42.350469626084795" lon="12.853708708514922"><ele>406.0</ele><time>2026-04-19T16:09:35.013Z</time></trkpt><trkpt lat="42.350626872500946" lon="12.853681897321248"><ele>406.0</ele><time>2026-04-19T16:09:36.013Z</time></trkpt><trkpt lat="42.35078623675342" lon="12.853654576000048"><ele>405.6666666666667</ele><time>2026-04-19T16:09:37.014Z</time></trkpt><trkpt lat="42.35094890986156" lon="12.853621631955663"><ele>405.33333333333337</ele><time>2026-04-19T16:09:38.014Z</time></trkpt><trkpt lat="42.35110838504606" lon="12.853586703073859"><ele>405.0</ele><time>2026-04-19T16:09:39.013Z</time></trkpt><trkpt lat="42.35127253553762" lon="12.853554708664593"><ele>405.33333333333337</ele><time>2026-04-19T16:09:40.014Z</time></trkpt><trkpt lat="42.35143976417478" lon="12.853521828278891"><ele>405.6666666666667</ele><time>2026-04-19T16:09:41.014Z</time></trkpt><trkpt lat="42.35160602815798" lon="12.853489202283578"><ele>406.0</ele><time>2026-04-19T16:09:42.014Z</time></trkpt><trkpt lat="42.351777194688125" lon="12.853455041056346"><ele>412.6666666666667</ele><time>2026-04-19T16:09:43.013Z</time></trkpt><trkpt lat="42.351952322868115" lon="12.853419777406996"><ele>419.33333333333337</ele><time>2026-04-19T16:09:44.013Z</time></trkpt><trkpt lat="42.352128920351646" lon="12.853386754038668"><ele>426.0</ele><time>2026-04-19T16:09:45.014Z</time></trkpt><trkpt lat="42.352302494460524" lon="12.853351794269054"><ele>435.33333333333337</ele><time>2026-04-19T16:09:46.014Z</time></trkpt><trkpt lat="42.352479104973106" lon="12.85331791858514"><ele>444.6666666666667</ele><time>2026-04-19T16:09:47.014Z</time></trkpt><trkpt lat="42.35265603332137" lon="12.853285353350566"><ele>454.0</ele><time>2026-04-19T16:09:48.014Z</time></trkpt><trkpt lat="42.352833463338385" lon="12.853250641034318"><ele>454.0</ele><time>2026-04-19T16:09:49.014Z</time></trkpt><trkpt lat="42.3530355478944" lon="12.853212037415764"><ele>454.0</ele><time>2026-04-19T16:09:50.156Z</time></trkpt><trkpt lat="42.35321589440972" lon="12.853180564727529"><ele>454.0</ele><time>2026-04-19T16:09:51.155Z</time></trkpt><trkpt lat="42.353398667266575" lon="12.853148188668305"><ele>521.0</ele><time>2026-04-19T16:09:52.154Z</time></trkpt><trkpt lat="42.35536004001942" lon="12.852935351853368"><ele>495.0</ele><time>2026-04-19T16:09:56.515Z</time></trkpt><trkpt lat="42.355810085166446" lon="12.852925730221104"><ele>495.0</ele><time>2026-04-19T16:09:57.515Z</time></trkpt><trkpt lat="42.35626008590654" lon="12.852932987029442"><ele>485.0</ele><time>2026-04-19T16:09:58.515Z</time></trkpt><trkpt lat="42.35671033182393" lon="12.85295227884977"><ele>485.0</ele><time>2026-04-19T16:09:59.516Z</time></trkpt><trkpt lat="42.35715916646221" lon="12.852990007135519"><ele>493.0</ele><time>2026-04-19T16:10:00.515Z</time></trkpt><trkpt lat="42.35760760934779" lon="12.853042301010811"><ele>529.0</ele><time>2026-04-19T16:10:01.515Z</time></trkpt><trkpt lat="42.358055233263606" lon="12.853110267925375"><ele>529.0</ele><time>2026-04-19T16:10:02.516Z</time></trkpt><trkpt lat="42.35850131269737" lon="12.853192118076953"><ele>538.0</ele><time>2026-04-19T16:10:03.516Z</time></trkpt><trkpt lat="42.3589456484442" lon="12.85328906585759"><ele>538.0</ele><time>2026-04-19T16:10:04.516Z</time></trkpt><trkpt lat="42.35938710112408" lon="12.85340472406662"><ele>506.0</ele><time>2026-04-19T16:10:05.515Z</time></trkpt><trkpt lat="42.35982710298001" lon="12.853533004786238"><ele>506.0</ele><time>2026-04-19T16:10:06.515Z</time></trkpt><trkpt lat="42.360265834463654" lon="12.853669770898389"><ele>496.5</ele><time>2026-04-19T16:10:07.516Z</time></trkpt><trkpt lat="42.360699885806895" lon="12.853826045621933"><ele>487.0</ele><time>2026-04-19T16:10:08.514Z</time></trkpt><trkpt lat="42.361132238181646" lon="12.853997350693746"><ele>479.0</ele><time>2026-04-19T16:10:09.515Z</time></trkpt><trkpt lat="42.36156361954088" lon="12.854171344002395"><ele>464.0</ele><time>2026-04-19T16:10:10.515Z</time></trkpt><trkpt lat="42.36199528652689" lon="12.854342344256235"><ele>465.0</ele><time>2026-04-19T16:10:11.515Z</time></trkpt><trkpt lat="42.3624276698812" lon="12.854511369815786"><ele>465.0</ele><time>2026-04-19T16:10:12.515Z</time></trkpt><trkpt lat="42.36285990846836" lon="12.854680338783544"><ele>477.0</ele><time>2026-04-19T16:10:13.515Z</time></trkpt><trkpt lat="42.36329241056336" lon="12.854849326357114"><ele>477.0</ele><time>2026-04-19T16:10:14.515Z</time></trkpt><trkpt lat="42.36372507684185" lon="12.855015985969517"><ele>458.0</ele><time>2026-04-19T16:10:15.515Z</time></trkpt><trkpt lat="42.364159491095634" lon="12.855173310569091"><ele>458.0</ele><time>2026-04-19T16:10:16.514Z</time></trkpt><trkpt lat="42.36459707644611" lon="12.855317849560354"><ele>473.0</ele><time>2026-04-19T16:10:17.515Z</time></trkpt><trkpt lat="42.36503638721646" lon="12.85545148202694"><ele>473.0</ele><time>2026-04-19T16:10:18.516Z</time></trkpt><trkpt lat="42.3654767071084" lon="12.85557541658938"><ele>468.0</ele><time>2026-04-19T16:10:19.515Z</time></trkpt><trkpt lat="42.36591828192267" lon="12.855689718659836"><ele>460.0</ele><time>2026-04-19T16:10:20.514Z</time></trkpt><trkpt lat="42.36636206785556" lon="12.855794970992028"><ele>460.0</ele><time>2026-04-19T16:10:21.515Z</time></trkpt><trkpt lat="42.36680694833743" lon="12.855885811563411"><ele>470.0</ele><time>2026-04-19T16:10:22.515Z</time></trkpt><trkpt lat="42.36725306760342" lon="12.855967263479341"><ele>470.0</ele><time>2026-04-19T16:10:23.515Z</time></trkpt><trkpt lat="42.36769996177998" lon="12.856042463893816"><ele>494.0</ele><time>2026-04-19T16:10:24.515Z</time></trkpt><trkpt lat="42.36814761246137" lon="12.856106815249"><ele>494.0</ele><time>2026-04-19T16:10:25.515Z</time></trkpt><trkpt lat="42.36859604972974" lon="12.85615983480834"><ele>510.0</ele><time>2026-04-19T16:10:26.515Z</time></trkpt><trkpt lat="42.369044398010125" lon="12.856209887299839"><ele>510.0</ele><time>2026-04-19T16:10:27.515Z</time></trkpt><trkpt lat="42.36949326694163" lon="12.85625652764896"><ele>525.0</ele><time>2026-04-19T16:10:28.515Z</time></trkpt><trkpt lat="42.36994218434451" lon="12.856303173034565"><ele>525.0</ele><time>2026-04-19T16:10:29.515Z</time></trkpt><trkpt lat="42.37039098406426" lon="12.856351943237565"><ele>529.0</ele><time>2026-04-19T16:10:30.516Z</time></trkpt><trkpt lat="42.37083916928097" lon="12.8564022251464"><ele>529.0</ele><time>2026-04-19T16:10:31.515Z</time></trkpt><trkpt lat="42.37128811121187" lon="12.856452591951017"><ele>512.0</ele><time>2026-04-19T16:10:32.516Z</time></trkpt><trkpt lat="42.37173608072767" lon="12.85650325514676"><ele>512.0</ele><time>2026-04-19T16:10:33.514Z</time></trkpt><trkpt lat="42.372184908939026" lon="12.856553645043084"><ele>530.0</ele><time>2026-04-19T16:10:34.515Z</time></trkpt><trkpt lat="42.3726338183986" lon="12.856597603037345"><ele>552.0</ele><time>2026-04-19T16:10:35.515Z</time></trkpt><trkpt lat="42.37308286096375" lon="12.856636313883456"><ele>552.0</ele><time>2026-04-19T16:10:36.514Z</time></trkpt><trkpt lat="42.373532635959506" lon="12.856659796927065"><ele>529.0</ele><time>2026-04-19T16:10:37.515Z</time></trkpt><trkpt lat="42.3739830378656" lon="12.856665862152695"><ele>529.0</ele><time>2026-04-19T16:10:38.515Z</time></trkpt><trkpt lat="42.3744328071392" lon="12.856659665680352"><ele>487.0</ele><time>2026-04-19T16:10:39.514Z</time></trkpt><trkpt lat="42.37488261649282" lon="12.856634531544522"><ele>487.0</ele><time>2026-04-19T16:10:40.515Z</time></trkpt><trkpt lat="42.375331612075996" lon="12.856593355126645"><ele>474.0</ele><time>2026-04-19T16:10:41.515Z</time></trkpt><trkpt lat="42.37578010249131" lon="12.856541574888094"><ele>474.0</ele><time>2026-04-19T16:10:42.515Z</time></trkpt><trkpt lat="42.376226971565494" lon="12.856470656824936"><ele>483.0</ele><time>2026-04-19T16:10:43.514Z</time></trkpt><trkpt lat="42.3766723407388" lon="12.856386627108536"><ele>483.0</ele><time>2026-04-19T16:10:44.513Z</time></trkpt><trkpt lat="42.377116593099316" lon="12.85628467007556"><ele>480.0</ele><time>2026-04-19T16:10:45.515Z</time></trkpt><trkpt lat="42.37755843102947" lon="12.856169510469375"><ele>480.0</ele><time>2026-04-19T16:10:46.514Z</time></trkpt><trkpt lat="42.377999115964855" lon="12.856043669514868"><ele>544.0</ele><time>2026-04-19T16:10:47.515Z</time></trkpt><trkpt lat="42.37843800057106" lon="12.855910984470208"><ele>548.0</ele><time>2026-04-19T16:10:48.514Z</time></trkpt><trkpt lat="42.37887648504051" lon="12.85577392720903"><ele>548.0</ele><time>2026-04-19T16:10:49.514Z</time></trkpt><trkpt lat="42.37931501028322" lon="12.855636857203338"><ele>554.0</ele><time>2026-04-19T16:10:50.514Z</time></trkpt><trkpt lat="42.37975409874882" lon="12.855501346054725"><ele>554.0</ele><time>2026-04-19T16:10:51.515Z</time></trkpt><trkpt lat="42.38019272246092" lon="12.855366859400435"><ele>567.0</ele><time>2026-04-19T16:10:52.514Z</time></trkpt><trkpt lat="42.3806316466791" lon="12.855231960696038"><ele>605.0</ele><time>2026-04-19T16:10:53.514Z</time></trkpt><trkpt lat="42.38107030577821" lon="12.855096325486082"><ele>595.0</ele><time>2026-04-19T16:10:54.514Z</time></trkpt><trkpt lat="42.381509098718595" lon="12.854960648891849"><ele>595.0</ele><time>2026-04-19T16:10:55.514Z</time></trkpt><trkpt lat="42.38194793006442" lon="12.854825414576936"><ele>597.0</ele><time>2026-04-19T16:10:56.514Z</time></trkpt><trkpt lat="42.382386760147526" lon="12.854690707143439"><ele>597.0</ele><time>2026-04-19T16:10:57.514Z</time></trkpt><trkpt lat="42.382825710882834" lon="12.854555962673398"><ele>571.0</ele><time>2026-04-19T16:10:58.514Z</time></trkpt><trkpt lat="42.38326425337297" lon="12.854419741851563"><ele>578.0</ele><time>2026-04-19T16:10:59.514Z</time></trkpt><trkpt lat="42.3837031640102" lon="12.854284488550881"><ele>537.0</ele><time>2026-04-19T16:11:00.514Z</time></trkpt><trkpt lat="42.38414195934322" lon="12.854149743998844"><ele>537.0</ele><time>2026-04-19T16:11:01.514Z</time></trkpt><trkpt lat="42.384581057034346" lon="12.854014906599176"><ele>512.0</ele><time>2026-04-19T16:11:02.515Z</time></trkpt><trkpt lat="42.385019518649784" lon="12.853878260686677"><ele>512.0</ele><time>2026-04-19T16:11:03.514Z</time></trkpt><trkpt lat="42.38545820291734" lon="12.853741771901808"><ele>527.0</ele><time>2026-04-19T16:11:04.515Z</time></trkpt><trkpt lat="42.385896994047854" lon="12.853607361461776"><ele>527.0</ele><time>2026-04-19T16:11:05.514Z</time></trkpt><trkpt lat="42.38633605887472" lon="12.853473394831532"><ele>510.0</ele><time>2026-04-19T16:11:06.514Z</time></trkpt><trkpt lat="42.386774212355" lon="12.853335386593224"><ele>472.0</ele><time>2026-04-19T16:11:07.514Z</time></trkpt><trkpt lat="42.38720897034453" lon="12.853177085445912"><ele>472.0</ele><time>2026-04-19T16:11:08.515Z</time></trkpt><trkpt lat="42.38763738715642" lon="12.852991036073066"><ele>457.0</ele><time>2026-04-19T16:11:09.515Z</time></trkpt><trkpt lat="42.38805881842722" lon="12.852777823210268"><ele>450.0</ele><time>2026-04-19T16:11:10.515Z</time></trkpt><trkpt lat="42.388471885048176" lon="12.852536103561919"><ele>445.5</ele><time>2026-04-19T16:11:11.515Z</time></trkpt><trkpt lat="42.38887456647855" lon="12.85226585648743"><ele>441.0</ele><time>2026-04-19T16:11:12.514Z</time></trkpt><trkpt lat="42.38926799997055" lon="12.851969865209364"><ele>436.5</ele><time>2026-04-19T16:11:13.515Z</time></trkpt><trkpt lat="42.38965125695866" lon="12.851652209941351"><ele>432.0</ele><time>2026-04-19T16:11:14.515Z</time></trkpt><trkpt lat="42.39001876323531" lon="12.85130224840759"><ele>387.0</ele><time>2026-04-19T16:11:15.514Z</time></trkpt><trkpt lat="42.390646690007614" lon="12.850538621177344"><ele>387.0</ele><time>2026-04-19T16:13:00.953Z</time></trkpt><trkpt lat="42.39082202959664" lon="12.850366040272366"><ele>387.0</ele><time>2026-04-19T16:13:01.953Z</time></trkpt><trkpt lat="42.39096369290726" lon="12.850255728758567"><ele>387.0</ele><time>2026-04-19T16:13:02.953Z</time></trkpt><trkpt lat="42.39109675100224" lon="12.850096462652507"><ele>387.0</ele><time>2026-04-19T16:13:03.953Z</time></trkpt><trkpt lat="42.39122865361681" lon="12.849928183680294"><ele>387.0</ele><time>2026-04-19T16:13:04.953Z</time></trkpt><trkpt lat="42.39134973958273" lon="12.849761487188205"><ele>387.0</ele><time>2026-04-19T16:13:05.953Z</time></trkpt><trkpt lat="42.39146570923541" lon="12.84958947726643"><ele>387.0</ele><time>2026-04-19T16:13:06.953Z</time></trkpt><trkpt lat="42.39156693794523" lon="12.849418871356441"><ele>387.0</ele><time>2026-04-19T16:13:07.953Z</time></trkpt><trkpt lat="42.39167270622178" lon="12.849246427577391"><ele>387.0</ele><time>2026-04-19T16:13:08.957Z</time></trkpt><trkpt lat="42.39177550316198" lon="12.849066485054756"><ele>387.0</ele><time>2026-04-19T16:13:09.957Z</time></trkpt><trkpt lat="42.39188081288606" lon="12.848879981237825"><ele>387.0</ele><time>2026-04-19T16:13:10.957Z</time></trkpt><trkpt lat="42.3919828491198" lon="12.848693008888171"><ele>387.0</ele><time>2026-04-19T16:13:11.957Z</time></trkpt><trkpt lat="42.39207730544574" lon="12.848519177742421"><ele>387.0</ele><time>2026-04-19T16:13:12.956Z</time></trkpt><trkpt lat="42.392144250390594" lon="12.84840474243048"><ele>387.0</ele><time>2026-04-19T16:13:13.956Z</time></trkpt><trkpt lat="42.39221129489246" lon="12.848335487736364"><ele>387.0</ele><time>2026-04-19T16:13:14.957Z</time></trkpt><trkpt lat="42.39229882915617" lon="12.84830724675447"><ele>387.0</ele><time>2026-04-19T16:13:15.957Z</time></trkpt><trkpt lat="42.39239629636515" lon="12.848311825062895"><ele>387.0</ele><time>2026-04-19T16:13:16.957Z</time></trkpt><trkpt lat="42.39251003877233" lon="12.84830178742353"><ele>387.0</ele><time>2026-04-19T16:13:17.957Z</time></trkpt><trkpt lat="42.39262205532518" lon="12.84835952584249"><ele>387.0</ele><time>2026-04-19T16:13:18.956Z</time></trkpt><trkpt lat="42.392710733704234" lon="12.848447554923737"><ele>387.0</ele><time>2026-04-19T16:13:19.956Z</time></trkpt><trkpt lat="42.392762445748154" lon="12.848566891314993"><ele>387.0</ele><time>2026-04-19T16:13:20.957Z</time></trkpt><trkpt lat="42.3928116736969" lon="12.848677216330179"><ele>387.0</ele><time>2026-04-19T16:13:21.957Z</time></trkpt><trkpt lat="42.39283825648149" lon="12.848804517323712"><ele>387.0</ele><time>2026-04-19T16:13:22.957Z</time></trkpt><trkpt lat="42.39283248688718" lon="12.848948305928438"><ele>387.0</ele><time>2026-04-19T16:13:23.957Z</time></trkpt><trkpt lat="42.392809367898" lon="12.849089645606574"><ele>387.0</ele><time>2026-04-19T16:13:24.957Z</time></trkpt><trkpt lat="42.3927533308753" lon="12.849206327601337"><ele>387.0</ele><time>2026-04-19T16:13:25.957Z</time></trkpt><trkpt lat="42.39267671676554" lon="12.849300476588816"><ele>387.0</ele><time>2026-04-19T16:13:26.957Z</time></trkpt><trkpt lat="42.392580669193755" lon="12.849355025157239"><ele>387.0</ele><time>2026-04-19T16:13:27.957Z</time></trkpt><trkpt lat="42.392475046655015" lon="12.849370760785327"><ele>387.0</ele><time>2026-04-19T16:13:28.957Z</time></trkpt><trkpt lat="42.392371975517825" lon="12.849356124930825"><ele>387.0</ele><time>2026-04-19T16:13:29.957Z</time></trkpt><trkpt lat="42.39226999214589" lon="12.849309228869467"><ele>387.0</ele><time>2026-04-19T16:13:30.957Z</time></trkpt><trkpt lat="42.39218211599229" lon="12.849225274739464"><ele>387.0</ele><time>2026-04-19T16:13:31.957Z</time></trkpt><trkpt lat="42.39210766202355" lon="12.849111878238"><ele>387.0</ele><time>2026-04-19T16:13:32.957Z</time></trkpt><trkpt lat="42.392045848003434" lon="12.848975422087317"><ele>387.0</ele><time>2026-04-19T16:13:33.957Z</time></trkpt><trkpt lat="42.391980765213894" lon="12.848833160455229"><ele>387.0</ele><time>2026-04-19T16:13:34.957Z</time></trkpt><trkpt lat="42.391903382511885" lon="12.848679232306202"><ele>387.0</ele><time>2026-04-19T16:13:35.957Z</time></trkpt><trkpt lat="42.39182045347819" lon="12.848510466943091"><ele>387.0</ele><time>2026-04-19T16:13:36.957Z</time></trkpt><trkpt lat="42.39172649867227" lon="12.848330261499761"><ele>387.0</ele><time>2026-04-19T16:13:37.957Z</time></trkpt><trkpt lat="42.39162662156254" lon="12.848142023144922"><ele>387.0</ele><time>2026-04-19T16:13:38.957Z</time></trkpt><trkpt lat="42.39152991441901" lon="12.847945944686233"><ele>387.0</ele><time>2026-04-19T16:13:39.956Z</time></trkpt><trkpt lat="42.391432388655126" lon="12.847737729112845"><ele>387.0</ele><time>2026-04-19T16:13:40.956Z</time></trkpt><trkpt lat="42.39133399117699" lon="12.847509471075044"><ele>387.0</ele><time>2026-04-19T16:13:41.956Z</time></trkpt><trkpt lat="42.39124793758462" lon="12.8472697992924"><ele>386.66666666666663</ele><time>2026-04-19T16:13:42.956Z</time></trkpt><trkpt lat="42.391170225245354" lon="12.84703192848261"><ele>386.3333333333333</ele><time>2026-04-19T16:13:43.956Z</time></trkpt><trkpt lat="42.39109678365559" lon="12.846780171840717"><ele>386.0</ele><time>2026-04-19T16:13:44.956Z</time></trkpt><trkpt lat="42.39102677320782" lon="12.846533929555006"><ele>386.0</ele><time>2026-04-19T16:13:45.956Z</time></trkpt><trkpt lat="42.39096350714231" lon="12.84628428017023"><ele>386.0</ele><time>2026-04-19T16:13:46.956Z</time></trkpt><trkpt lat="42.390907244594864" lon="12.846031911128588"><ele>386.0</ele><time>2026-04-19T16:13:47.956Z</time></trkpt><trkpt lat="42.39085506139999" lon="12.845775000081012"><ele>385.66666666666663</ele><time>2026-04-19T16:13:48.956Z</time></trkpt><trkpt lat="42.390805390917855" lon="12.845511725508446"><ele>385.33333333333337</ele><time>2026-04-19T16:13:49.956Z</time></trkpt><trkpt lat="42.39076115562074" lon="12.845241059322332"><ele>385.0</ele><time>2026-04-19T16:13:50.956Z</time></trkpt><trkpt lat="42.39072844416247" lon="12.844973138501603"><ele>385.0</ele><time>2026-04-19T16:13:51.956Z</time></trkpt><trkpt lat="42.390699860888965" lon="12.844702836590267"><ele>385.0</ele><time>2026-04-19T16:13:52.956Z</time></trkpt><trkpt lat="42.39067648521702" lon="12.844430451947678"><ele>385.0</ele><time>2026-04-19T16:13:53.956Z</time></trkpt><trkpt lat="42.39065786386263" lon="12.844155595349338"><ele>385.33333333333337</ele><time>2026-04-19T16:13:54.956Z</time></trkpt><trkpt lat="42.39064745357832" lon="12.843883310246252"><ele>385.66666666666663</ele><time>2026-04-19T16:13:55.956Z</time></trkpt><trkpt lat="42.390638505424896" lon="12.843602151519363"><ele>386.0</ele><time>2026-04-19T16:13:56.956Z</time></trkpt><trkpt lat="42.390626305157724" lon="12.84331972212866"><ele>386.3333333333333</ele><time>2026-04-19T16:13:57.956Z</time></trkpt><trkpt lat="42.39060918088464" lon="12.843039126281026"><ele>386.66666666666663</ele><time>2026-04-19T16:13:58.956Z</time></trkpt><trkpt lat="42.39059135514946" lon="12.84275645350716"><ele>387.0</ele><time>2026-04-19T16:13:59.956Z</time></trkpt><trkpt lat="42.3905748600292" lon="12.842481773137749"><ele>387.0</ele><time>2026-04-19T16:14:00.956Z</time></trkpt><trkpt lat="42.39055973153855" lon="12.842224008193837"><ele>387.0</ele><time>2026-04-19T16:14:01.956Z</time></trkpt><trkpt lat="42.39054607167828" lon="12.841966677563416"><ele>387.0</ele><time>2026-04-19T16:14:02.956Z</time></trkpt><trkpt lat="42.390533555725376" lon="12.841714727384238"><ele>387.0</ele><time>2026-04-19T16:14:03.956Z</time></trkpt><trkpt lat="42.39052459023398" lon="12.841466946338382"><ele>387.0</ele><time>2026-04-19T16:14:04.956Z</time></trkpt><trkpt lat="42.39051948659299" lon="12.841216584842105"><ele>387.0</ele><time>2026-04-19T16:14:05.956Z</time></trkpt><trkpt lat="42.39051846179395" lon="12.840962671896838"><ele>387.0</ele><time>2026-04-19T16:14:06.956Z</time></trkpt><trkpt lat="42.39052516760031" lon="12.84071133561"><ele>387.0</ele><time>2026-04-19T16:14:07.956Z</time></trkpt><trkpt lat="42.390537740033245" lon="12.84046080340867"><ele>387.0</ele><time>2026-04-19T16:14:08.956Z</time></trkpt><trkpt lat="42.39055243007542" lon="12.840214678726136"><ele>386.66666666666663</ele><time>2026-04-19T16:14:09.956Z</time></trkpt><trkpt lat="42.390575504084445" lon="12.839974150106391"><ele>386.3333333333333</ele><time>2026-04-19T16:14:10.956Z</time></trkpt><trkpt lat="42.390608709397256" lon="12.839737423392435"><ele>386.0</ele><time>2026-04-19T16:14:11.956Z</time></trkpt><trkpt lat="42.39064929838039" lon="12.839503322791208"><ele>386.0</ele><time>2026-04-19T16:14:12.955Z</time></trkpt><trkpt lat="42.39069572760827" lon="12.839263049042167"><ele>386.0</ele><time>2026-04-19T16:14:13.955Z</time></trkpt><trkpt lat="42.390748428180615" lon="12.83902840258722"><ele>386.0</ele><time>2026-04-19T16:14:14.955Z</time></trkpt><trkpt lat="42.390811682290995" lon="12.838797032984447"><ele>386.0</ele><time>2026-04-19T16:14:15.955Z</time></trkpt><trkpt lat="42.390883068864234" lon="12.83856122964944"><ele>386.0</ele><time>2026-04-19T16:14:16.955Z</time></trkpt><trkpt lat="42.39095426689593" lon="12.838335249623903"><ele>386.0</ele><time>2026-04-19T16:14:17.955Z</time></trkpt><trkpt lat="42.39103623899861" lon="12.83811975021715"><ele>386.3333333333333</ele><time>2026-04-19T16:14:18.955Z</time></trkpt><trkpt lat="42.391126379450675" lon="12.837913694694235"><ele>386.66666666666663</ele><time>2026-04-19T16:14:19.955Z</time></trkpt><trkpt lat="42.39121544905994" lon="12.837705124556939"><ele>387.0</ele><time>2026-04-19T16:14:20.955Z</time></trkpt><trkpt lat="42.3913067257112" lon="12.837508160911455"><ele>386.66666666666663</ele><time>2026-04-19T16:14:21.955Z</time></trkpt><trkpt lat="42.39139671245681" lon="12.837314267176358"><ele>386.3333333333333</ele><time>2026-04-19T16:14:22.955Z</time></trkpt><trkpt lat="42.39148526367635" lon="12.837115159724501"><ele>386.0</ele><time>2026-04-19T16:14:23.955Z</time></trkpt><trkpt lat="42.39157060047059" lon="12.836910407533058"><ele>386.0</ele><time>2026-04-19T16:14:24.955Z</time></trkpt><trkpt lat="42.39165611939253" lon="12.836697917981915"><ele>386.0</ele><time>2026-04-19T16:14:25.955Z</time></trkpt><trkpt lat="42.39173024272023" lon="12.836477304713387"><ele>386.0</ele><time>2026-04-19T16:14:26.955Z</time></trkpt><trkpt lat="42.391800286769914" lon="12.836254500661045"><ele>386.0</ele><time>2026-04-19T16:14:27.955Z</time></trkpt><trkpt lat="42.39186277227767" lon="12.83602585673739"><ele>386.0</ele><time>2026-04-19T16:14:28.955Z</time></trkpt><trkpt lat="42.39192871074141" lon="12.83579414142377"><ele>386.0</ele><time>2026-04-19T16:14:29.955Z</time></trkpt><trkpt lat="42.391993057840075" lon="12.835561390476508"><ele>386.0</ele><time>2026-04-19T16:14:30.955Z</time></trkpt><trkpt lat="42.392048141014726" lon="12.835324633219754"><ele>386.0</ele><time>2026-04-19T16:14:31.955Z</time></trkpt><trkpt lat="42.39209175415274" lon="12.835080851075736"><ele>386.0</ele><time>2026-04-19T16:14:32.955Z</time></trkpt><trkpt lat="42.39212901714934" lon="12.834837603329204"><ele>385.66666666666663</ele><time>2026-04-19T16:14:33.955Z</time></trkpt><trkpt lat="42.39215973532531" lon="12.83458702879256"><ele>385.33333333333337</ele><time>2026-04-19T16:14:34.955Z</time></trkpt><trkpt lat="42.392180232118776" lon="12.834331646500742"><ele>385.0</ele><time>2026-04-19T16:14:35.955Z</time></trkpt><trkpt lat="42.39219663869446" lon="12.834072459143949"><ele>384.6666666666667</ele><time>2026-04-19T16:14:36.955Z</time></trkpt><trkpt lat="42.39220599896222" lon="12.833810114349378"><ele>384.33333333333337</ele><time>2026-04-19T16:14:37.955Z</time></trkpt><trkpt lat="42.39220583770804" lon="12.833539166768174"><ele>384.0</ele><time>2026-04-19T16:14:38.955Z</time></trkpt><trkpt lat="42.39219372340463" lon="12.833260087331514"><ele>384.0</ele><time>2026-04-19T16:14:39.955Z</time></trkpt><trkpt lat="42.392168645608834" lon="12.832975111847835"><ele>384.0</ele><time>2026-04-19T16:14:40.955Z</time></trkpt><trkpt lat="42.39213443506235" lon="12.832692796103927"><ele>384.0</ele><time>2026-04-19T16:14:41.955Z</time></trkpt><trkpt lat="42.39210092914579" lon="12.832393085835156"><ele>385.0</ele><time>2026-04-19T16:14:42.955Z</time></trkpt><trkpt lat="42.3920683750198" lon="12.83208740641313"><ele>386.0</ele><time>2026-04-19T16:14:43.955Z</time></trkpt><trkpt lat="42.392035987651475" lon="12.831773379302154"><ele>386.0</ele><time>2026-04-19T16:14:44.955Z</time></trkpt><trkpt lat="42.39199532966677" lon="12.83144781958124"><ele>386.0</ele><time>2026-04-19T16:14:45.955Z</time></trkpt><trkpt lat="42.391955217794184" lon="12.831125045525756"><ele>385.5</ele><time>2026-04-19T16:14:46.954Z</time></trkpt><trkpt lat="42.391917842931086" lon="12.830802778715736"><ele>385.0</ele><time>2026-04-19T16:14:47.954Z</time></trkpt><trkpt lat="42.391887444288656" lon="12.83049353933593"><ele>385.0</ele><time>2026-04-19T16:14:48.954Z</time></trkpt><trkpt lat="42.391874382850425" lon="12.830198239080357"><ele>385.0</ele><time>2026-04-19T16:14:49.954Z</time></trkpt><trkpt lat="42.39185548606219" lon="12.829907309303445"><ele>385.0</ele><time>2026-04-19T16:14:50.954Z</time></trkpt><trkpt lat="42.391846313727" lon="12.829619251757364"><ele>384.6666666666667</ele><time>2026-04-19T16:14:51.954Z</time></trkpt><trkpt lat="42.391841306716685" lon="12.829333293227629"><ele>384.33333333333337</ele><time>2026-04-19T16:14:52.954Z</time></trkpt><trkpt lat="42.3918432175886" lon="12.829054129488703"><ele>384.0</ele><time>2026-04-19T16:14:53.954Z</time></trkpt><trkpt lat="42.39184834508792" lon="12.828778653378128"><ele>383.6666666666667</ele><time>2026-04-19T16:14:54.954Z</time></trkpt><trkpt lat="42.391845625009715" lon="12.82850186711829"><ele>383.33333333333337</ele><time>2026-04-19T16:14:55.954Z</time></trkpt><trkpt lat="42.391842715141095" lon="12.828219353652937"><ele>383.0</ele><time>2026-04-19T16:14:56.954Z</time></trkpt><trkpt lat="42.39183652913436" lon="12.8279315813371"><ele>382.6666666666667</ele><time>2026-04-19T16:14:57.954Z</time></trkpt><trkpt lat="42.39183400898667" lon="12.827640912739016"><ele>382.3333333333333</ele><time>2026-04-19T16:14:58.954Z</time></trkpt><trkpt lat="42.391831137146994" lon="12.827345225609907"><ele>382.0</ele><time>2026-04-19T16:14:59.954Z</time></trkpt><trkpt lat="42.391831568571014" lon="12.827047569225453"><ele>382.3333333333333</ele><time>2026-04-19T16:15:00.954Z</time></trkpt><trkpt lat="42.39182899900326" lon="12.826755890209578"><ele>382.6666666666667</ele><time>2026-04-19T16:15:01.954Z</time></trkpt><trkpt lat="42.39182650879517" lon="12.826462189999189"><ele>383.0</ele><time>2026-04-19T16:15:02.954Z</time></trkpt><trkpt lat="42.39182261542102" lon="12.826165600292342"><ele>383.33333333333337</ele><time>2026-04-19T16:15:03.954Z</time></trkpt><trkpt lat="42.39182084246844" lon="12.825869858312117"><ele>383.6666666666667</ele><time>2026-04-19T16:15:04.954Z</time></trkpt><trkpt lat="42.3918186430958" lon="12.82557855124532"><ele>384.0</ele><time>2026-04-19T16:15:05.954Z</time></trkpt><trkpt lat="42.39181587005453" lon="12.825288890024703"><ele>383.6666666666667</ele><time>2026-04-19T16:15:06.954Z</time></trkpt><trkpt lat="42.391818062781155" lon="12.825005554993389"><ele>383.33333333333337</ele><time>2026-04-19T16:15:07.954Z</time></trkpt><trkpt lat="42.391824123437075" lon="12.824725993983202"><ele>383.0</ele><time>2026-04-19T16:15:08.954Z</time></trkpt><trkpt lat="42.39183814520981" lon="12.82445263437076"><ele>382.6666666666667</ele><time>2026-04-19T16:15:09.954Z</time></trkpt><trkpt lat="42.39186503943873" lon="12.824178068301222"><ele>382.3333333333333</ele><time>2026-04-19T16:15:10.954Z</time></trkpt><trkpt lat="42.39189578882712" lon="12.823908059073766"><ele>382.0</ele><time>2026-04-19T16:15:11.954Z</time></trkpt><trkpt lat="42.39188674918191" lon="12.823633858038411"><ele>382.3333333333333</ele><time>2026-04-19T16:15:12.954Z</time></trkpt><trkpt lat="42.39188445314091" lon="12.823350723839653"><ele>382.6666666666667</ele><time>2026-04-19T16:15:13.956Z</time></trkpt><trkpt lat="42.3918821611702" lon="12.823068091562309"><ele>383.0</ele><time>2026-04-19T16:15:14.955Z</time></trkpt><trkpt lat="42.39187997018459" lon="12.822797912026326"><ele>383.0</ele><time>2026-04-19T16:15:15.955Z</time></trkpt><trkpt lat="42.391877812105804" lon="12.822531791236566"><ele>383.0</ele><time>2026-04-19T16:15:16.955Z</time></trkpt><trkpt lat="42.39187553970527" lon="12.822251572570107"><ele>383.0</ele><time>2026-04-19T16:15:17.955Z</time></trkpt><trkpt lat="42.39187322624386" lon="12.821966291686278"><ele>382.6666666666667</ele><time>2026-04-19T16:15:18.955Z</time></trkpt><trkpt lat="42.39187079308348" lon="12.821666248954793"><ele>382.3333333333333</ele><time>2026-04-19T16:15:19.955Z</time></trkpt><trkpt lat="42.39183423871058" lon="12.821373497603336"><ele>382.0</ele><time>2026-04-19T16:15:20.955Z</time></trkpt><trkpt lat="42.391824934786484" lon="12.821101194146932"><ele>382.0</ele><time>2026-04-19T16:15:21.955Z</time></trkpt><trkpt lat="42.39181500560558" lon="12.820827712668256"><ele>382.0</ele><time>2026-04-19T16:15:22.955Z</time></trkpt><trkpt lat="42.39180550044514" lon="12.820558975702276"><ele>382.0</ele><time>2026-04-19T16:15:23.955Z</time></trkpt><trkpt lat="42.391794104515014" lon="12.820285023294005"><ele>382.0</ele><time>2026-04-19T16:15:24.955Z</time></trkpt><trkpt lat="42.39178682101089" lon="12.820014848473331"><ele>382.0</ele><time>2026-04-19T16:15:25.955Z</time></trkpt><trkpt lat="42.39177836757257" lon="12.81974791902463"><ele>382.0</ele><time>2026-04-19T16:15:26.956Z</time></trkpt><trkpt lat="42.39177560050844" lon="12.819479396522803"><ele>382.3333333333333</ele><time>2026-04-19T16:15:27.956Z</time></trkpt><trkpt lat="42.39177280997222" lon="12.819211420023882"><ele>382.6666666666667</ele><time>2026-04-19T16:15:28.956Z</time></trkpt><trkpt lat="42.391771753493096" lon="12.81894553092864"><ele>383.0</ele><time>2026-04-19T16:15:29.956Z</time></trkpt><trkpt lat="42.39176816717483" lon="12.818680633557683"><ele>383.0</ele><time>2026-04-19T16:15:30.956Z</time></trkpt><trkpt lat="42.39176630673434" lon="12.818412637495573"><ele>383.0</ele><time>2026-04-19T16:15:31.955Z</time></trkpt><trkpt lat="42.39175999472411" lon="12.818146672644298"><ele>383.0</ele><time>2026-04-19T16:15:32.955Z</time></trkpt><trkpt lat="42.39175778655509" lon="12.817879595385984"><ele>383.0</ele><time>2026-04-19T16:15:33.955Z</time></trkpt><trkpt lat="42.391756709190226" lon="12.81761069202561"><ele>383.0</ele><time>2026-04-19T16:15:34.955Z</time></trkpt><trkpt lat="42.391756796037015" lon="12.817337617111106"><ele>383.0</ele><time>2026-04-19T16:15:35.955Z</time></trkpt><trkpt lat="42.391757973391506" lon="12.817060280430125"><ele>383.0</ele><time>2026-04-19T16:15:36.955Z</time></trkpt><trkpt lat="42.39175846027055" lon="12.816787312269238"><ele>383.0</ele><time>2026-04-19T16:15:37.955Z</time></trkpt><trkpt lat="42.39176320526234" lon="12.816518129513174"><ele>383.0</ele><time>2026-04-19T16:15:38.955Z</time></trkpt><trkpt lat="42.39177747563525" lon="12.816253325161014"><ele>383.0</ele><time>2026-04-19T16:15:39.955Z</time></trkpt><trkpt lat="42.39179637543907" lon="12.815987679451743"><ele>383.0</ele><time>2026-04-19T16:15:40.955Z</time></trkpt><trkpt lat="42.39181485674993" lon="12.815723175742475"><ele>383.0</ele><time>2026-04-19T16:15:41.955Z</time></trkpt><trkpt lat="42.3918335795382" lon="12.815458842246931"><ele>383.0</ele><time>2026-04-19T16:15:42.955Z</time></trkpt><trkpt lat="42.391857238732314" lon="12.815199829173853"><ele>383.0</ele><time>2026-04-19T16:15:43.955Z</time></trkpt><trkpt lat="42.391885052824854" lon="12.814944347091851"><ele>383.0</ele><time>2026-04-19T16:15:44.955Z</time></trkpt><trkpt lat="42.39191201741257" lon="12.81468650792789"><ele>383.0</ele><time>2026-04-19T16:15:45.955Z</time></trkpt><trkpt lat="42.39194363515449" lon="12.814430268997015"><ele>383.0</ele><time>2026-04-19T16:15:46.955Z</time></trkpt><trkpt lat="42.39197969879783" lon="12.814177689721225"><ele>383.0</ele><time>2026-04-19T16:15:47.955Z</time></trkpt><trkpt lat="42.39201898331321" lon="12.813925662248323"><ele>383.0</ele><time>2026-04-19T16:15:48.955Z</time></trkpt><trkpt lat="42.39206264093767" lon="12.813675171695634"><ele>383.0</ele><time>2026-04-19T16:15:49.955Z</time></trkpt><trkpt lat="42.39210379231223" lon="12.813424519567052"><ele>383.0</ele><time>2026-04-19T16:15:50.955Z</time></trkpt><trkpt lat="42.39214625028044" lon="12.813171416531775"><ele>383.0</ele><time>2026-04-19T16:15:51.955Z</time></trkpt><trkpt lat="42.39218948588987" lon="12.812916715280018"><ele>383.0</ele><time>2026-04-19T16:15:52.955Z</time></trkpt><trkpt lat="42.3922334150921" lon="12.812667334086042"><ele>383.0</ele><time>2026-04-19T16:15:53.955Z</time></trkpt><trkpt lat="42.39228432167018" lon="12.812419463079355"><ele>383.0</ele><time>2026-04-19T16:15:54.955Z</time></trkpt><trkpt lat="42.392342755258284" lon="12.812174587744988"><ele>383.0</ele><time>2026-04-19T16:15:55.955Z</time></trkpt><trkpt lat="42.39240241160807" lon="12.811930709583194"><ele>383.0</ele><time>2026-04-19T16:15:56.955Z</time></trkpt><trkpt lat="42.39246492738905" lon="12.81168721558023"><ele>382.6666666666667</ele><time>2026-04-19T16:15:57.955Z</time></trkpt><trkpt lat="42.392524831880586" lon="12.81144402453791"><ele>382.3333333333333</ele><time>2026-04-19T16:15:58.955Z</time></trkpt><trkpt lat="42.39258423349705" lon="12.811203698609605"><ele>382.0</ele><time>2026-04-19T16:15:59.955Z</time></trkpt><trkpt lat="42.39265213022149" lon="12.810970894199732"><ele>381.3333333333333</ele><time>2026-04-19T16:16:00.955Z</time></trkpt><trkpt lat="42.39272343257062" lon="12.810740168513936"><ele>380.6666666666667</ele><time>2026-04-19T16:16:01.955Z</time></trkpt><trkpt lat="42.39279613995255" lon="12.810506558180002"><ele>380.0</ele><time>2026-04-19T16:16:02.955Z</time></trkpt><trkpt lat="42.39287099574224" lon="12.810272560994846"><ele>380.6666666666667</ele><time>2026-04-19T16:16:03.955Z</time></trkpt><trkpt lat="42.392947681085914" lon="12.81003077312491"><ele>381.3333333333333</ele><time>2026-04-19T16:16:04.955Z</time></trkpt><trkpt lat="42.393031073777834" lon="12.80978659106207"><ele>382.0</ele><time>2026-04-19T16:16:05.954Z</time></trkpt><trkpt lat="42.39311540023207" lon="12.8095323732191"><ele>382.66666666666663</ele><time>2026-04-19T16:16:06.954Z</time></trkpt><trkpt lat="42.393202890446986" lon="12.809271620581221"><ele>383.3333333333333</ele><time>2026-04-19T16:16:07.954Z</time></trkpt><trkpt lat="42.393301853708124" lon="12.809005784855557"><ele>384.0</ele><time>2026-04-19T16:16:08.954Z</time></trkpt><trkpt lat="42.393407340663735" lon="12.808740789650548"><ele>383.0</ele><time>2026-04-19T16:16:09.954Z</time></trkpt><trkpt lat="42.39351605406123" lon="12.808468222257991"><ele>382.0</ele><time>2026-04-19T16:16:10.954Z</time></trkpt><trkpt lat="42.3936346833375" lon="12.80818598183007"><ele>382.0</ele><time>2026-04-19T16:16:11.954Z</time></trkpt><trkpt lat="42.39376169381528" lon="12.807931468524096"><ele>382.0</ele><time>2026-04-19T16:16:12.954Z</time></trkpt><trkpt lat="42.39388135006561" lon="12.807670507779738"><ele>381.5</ele><time>2026-04-19T16:16:13.954Z</time></trkpt><trkpt lat="42.39400433446832" lon="12.807409974174382"><ele>381.0</ele><time>2026-04-19T16:16:14.954Z</time></trkpt><trkpt lat="42.39412803100875" lon="12.807152384503308"><ele>381.0</ele><time>2026-04-19T16:16:15.954Z</time></trkpt><trkpt lat="42.394251604926836" lon="12.806895050252226"><ele>381.0</ele><time>2026-04-19T16:16:16.954Z</time></trkpt><trkpt lat="42.39437473622751" lon="12.806638503153955"><ele>381.0</ele><time>2026-04-19T16:16:17.954Z</time></trkpt><trkpt lat="42.39448464612581" lon="12.806371168695907"><ele>381.0</ele><time>2026-04-19T16:16:18.954Z</time></trkpt><trkpt lat="42.39461009741364" lon="12.806117489044384"><ele>380.6666666666667</ele><time>2026-04-19T16:16:19.954Z</time></trkpt><trkpt lat="42.39473297345887" lon="12.805864736561436"><ele>380.33333333333337</ele><time>2026-04-19T16:16:20.954Z</time></trkpt><trkpt lat="42.39485383523762" lon="12.805612802048019"><ele>380.0</ele><time>2026-04-19T16:16:21.954Z</time></trkpt><trkpt lat="42.3949748525853" lon="12.805362266291747"><ele>380.0</ele><time>2026-04-19T16:16:22.954Z</time></trkpt><trkpt lat="42.395096249220906" lon="12.805111563449417"><ele>380.0</ele><time>2026-04-19T16:16:23.954Z</time></trkpt><trkpt lat="42.39521873584909" lon="12.804864332664705"><ele>380.0</ele><time>2026-04-19T16:16:24.954Z</time></trkpt><trkpt lat="42.39533751807927" lon="12.804619831507887"><ele>380.0</ele><time>2026-04-19T16:16:25.954Z</time></trkpt><trkpt lat="42.39545569146689" lon="12.804374717125407"><ele>380.0</ele><time>2026-04-19T16:16:26.954Z</time></trkpt><trkpt lat="42.39557578377963" lon="12.80412867709688"><ele>380.0</ele><time>2026-04-19T16:16:27.954Z</time></trkpt><trkpt lat="42.395697356673416" lon="12.803891735182862"><ele>380.33333333333337</ele><time>2026-04-19T16:16:28.954Z</time></trkpt><trkpt lat="42.395812118699375" lon="12.803653119525963"><ele>380.6666666666667</ele><time>2026-04-19T16:16:29.954Z</time></trkpt><trkpt lat="42.39592556734386" lon="12.803412059881838"><ele>381.0</ele><time>2026-04-19T16:16:30.954Z</time></trkpt><trkpt lat="42.39603841468587" lon="12.803165710688855"><ele>381.3333333333333</ele><time>2026-04-19T16:16:31.954Z</time></trkpt><trkpt lat="42.396153967413426" lon="12.802925751028011"><ele>381.66666666666663</ele><time>2026-04-19T16:16:32.954Z</time></trkpt><trkpt lat="42.39627151408057" lon="12.802683593781236"><ele>382.0</ele><time>2026-04-19T16:16:33.954Z</time></trkpt><trkpt lat="42.396388318598255" lon="12.802434958780513"><ele>382.0</ele><time>2026-04-19T16:16:34.954Z</time></trkpt><trkpt lat="42.39650686804451" lon="12.802188198501522"><ele>382.0</ele><time>2026-04-19T16:16:35.954Z</time></trkpt><trkpt lat="42.396628433655955" lon="12.801940022197842"><ele>382.0</ele><time>2026-04-19T16:16:36.954Z</time></trkpt><trkpt lat="42.396752046224535" lon="12.801689158824649"><ele>382.0</ele><time>2026-04-19T16:16:37.954Z</time></trkpt><trkpt lat="42.39687445550125" lon="12.801431462501636"><ele>382.0</ele><time>2026-04-19T16:16:38.953Z</time></trkpt><trkpt lat="42.39699576450324" lon="12.801171577806702"><ele>382.0</ele><time>2026-04-19T16:16:39.953Z</time></trkpt><trkpt lat="42.397121365129806" lon="12.800910772869472"><ele>382.0</ele><time>2026-04-19T16:16:40.953Z</time></trkpt><trkpt lat="42.39724720429623" lon="12.800646165688862"><ele>381.5</ele><time>2026-04-19T16:16:41.953Z</time></trkpt><trkpt lat="42.39737061342753" lon="12.800382135716472"><ele>381.0</ele><time>2026-04-19T16:16:42.953Z</time></trkpt><trkpt lat="42.397498089560806" lon="12.800119192589815"><ele>381.0</ele><time>2026-04-19T16:16:43.953Z</time></trkpt><trkpt lat="42.39762554663862" lon="12.799856523339216"><ele>381.0</ele><time>2026-04-19T16:16:44.953Z</time></trkpt><trkpt lat="42.39775223244904" lon="12.799595657768004"><ele>381.0</ele><time>2026-04-19T16:16:45.953Z</time></trkpt><trkpt lat="42.397876072657134" lon="12.799336560033462"><ele>381.0</ele><time>2026-04-19T16:16:46.953Z</time></trkpt><trkpt lat="42.397996635925416" lon="12.799077600931184"><ele>381.0</ele><time>2026-04-19T16:16:47.953Z</time></trkpt><trkpt lat="42.39811950555852" lon="12.798822688691084"><ele>381.0</ele><time>2026-04-19T16:16:48.953Z</time></trkpt><trkpt lat="42.39824109631043" lon="12.798568120156666"><ele>381.0</ele><time>2026-04-19T16:16:49.953Z</time></trkpt><trkpt lat="42.398361287591335" lon="12.798314581541462"><ele>381.0</ele><time>2026-04-19T16:16:50.953Z</time></trkpt><trkpt lat="42.39848077293655" lon="12.798065475728762"><ele>381.0</ele><time>2026-04-19T16:16:51.953Z</time></trkpt><trkpt lat="42.3986019181317" lon="12.797818574702456"><ele>381.0</ele><time>2026-04-19T16:16:52.953Z</time></trkpt><trkpt lat="42.398720463429996" lon="12.797570380391527"><ele>381.3333333333333</ele><time>2026-04-19T16:16:53.953Z</time></trkpt><trkpt lat="42.39884117043321" lon="12.797328153199743"><ele>381.66666666666663</ele><time>2026-04-19T16:16:54.953Z</time></trkpt><trkpt lat="42.39896751004059" lon="12.797081646672268"><ele>382.0</ele><time>2026-04-19T16:16:55.953Z</time></trkpt><trkpt lat="42.3990946187867" lon="12.79683457282015"><ele>382.3333333333333</ele><time>2026-04-19T16:16:56.953Z</time></trkpt><trkpt lat="42.39921275140115" lon="12.796579852233029"><ele>382.6666666666667</ele><time>2026-04-19T16:16:57.953Z</time></trkpt><trkpt lat="42.3993286052258" lon="12.796329359572598"><ele>383.0</ele><time>2026-04-19T16:16:58.953Z</time></trkpt><trkpt lat="42.39944465449446" lon="12.79607860529523"><ele>383.0</ele><time>2026-04-19T16:16:59.953Z</time></trkpt><trkpt lat="42.39956092905864" lon="12.795829499968484"><ele>383.0</ele><time>2026-04-19T16:17:00.953Z</time></trkpt><trkpt lat="42.3996770358543" lon="12.795584976034952"><ele>383.0</ele><time>2026-04-19T16:17:01.953Z</time></trkpt><trkpt lat="42.3997930871816" lon="12.795339021968747"><ele>383.0</ele><time>2026-04-19T16:17:02.953Z</time></trkpt><trkpt lat="42.39991531811873" lon="12.79510282841293"><ele>383.0</ele><time>2026-04-19T16:17:03.953Z</time></trkpt><trkpt lat="42.40003478246836" lon="12.794861100405777"><ele>383.0</ele><time>2026-04-19T16:17:04.953Z</time></trkpt><trkpt lat="42.40015156953275" lon="12.794617794029392"><ele>383.0</ele><time>2026-04-19T16:17:05.953Z</time></trkpt><trkpt lat="42.40027340333453" lon="12.79437460744046"><ele>383.0</ele><time>2026-04-19T16:17:06.953Z</time></trkpt><trkpt lat="42.40039931899461" lon="12.79413513964001"><ele>383.0</ele><time>2026-04-19T16:17:07.953Z</time></trkpt><trkpt lat="42.400529339842315" lon="12.793896239333993"><ele>383.33333333333337</ele><time>2026-04-19T16:17:08.953Z</time></trkpt><trkpt lat="42.400659776453615" lon="12.793658575368195"><ele>383.6666666666667</ele><time>2026-04-19T16:17:09.953Z</time></trkpt><trkpt lat="42.40079436500688" lon="12.79342551097282"><ele>384.0</ele><time>2026-04-19T16:17:10.953Z</time></trkpt><trkpt lat="42.40093195718929" lon="12.793202403026413"><ele>385.0</ele><time>2026-04-19T16:17:11.952Z</time></trkpt><trkpt lat="42.40107029935859" lon="12.792974985520113"><ele>386.0</ele><time>2026-04-19T16:17:12.952Z</time></trkpt><trkpt lat="42.40121191770332" lon="12.79275321015873"><ele>387.0</ele><time>2026-04-19T16:17:13.952Z</time></trkpt><trkpt lat="42.40135619442928" lon="12.792530474182929"><ele>387.0</ele><time>2026-04-19T16:17:14.952Z</time></trkpt><trkpt lat="42.40150146135039" lon="12.792310163208564"><ele>387.0</ele><time>2026-04-19T16:17:15.952Z</time></trkpt><trkpt lat="42.40164957854427" lon="12.792091663052716"><ele>387.0</ele><time>2026-04-19T16:17:16.952Z</time></trkpt><trkpt lat="42.40179703127726" lon="12.79187179363782"><ele>387.0</ele><time>2026-04-19T16:17:17.952Z</time></trkpt><trkpt lat="42.40195077509783" lon="12.791653639530566"><ele>387.0</ele><time>2026-04-19T16:17:18.952Z</time></trkpt><trkpt lat="42.402108233600465" lon="12.79143567272969"><ele>387.0</ele><time>2026-04-19T16:17:19.954Z</time></trkpt><trkpt lat="42.40226862601939" lon="12.791221848421584"><ele>387.0</ele><time>2026-04-19T16:17:20.954Z</time></trkpt><trkpt lat="42.40243521255067" lon="12.791008227162534"><ele>387.0</ele><time>2026-04-19T16:17:21.954Z</time></trkpt><trkpt lat="42.4026022321575" lon="12.790795483366349"><ele>387.0</ele><time>2026-04-19T16:17:22.954Z</time></trkpt><trkpt lat="42.402774391799944" lon="12.790583727056443"><ele>387.0</ele><time>2026-04-19T16:17:23.953Z</time></trkpt><trkpt lat="42.402951585664" lon="12.790375243593177"><ele>386.5</ele><time>2026-04-19T16:17:24.953Z</time></trkpt><trkpt lat="42.40313226943758" lon="12.790172246577427"><ele>386.0</ele><time>2026-04-19T16:17:25.953Z</time></trkpt><trkpt lat="42.403319751266096" lon="12.78997445445309"><ele>386.0</ele><time>2026-04-19T16:17:26.954Z</time></trkpt><trkpt lat="42.40350725398289" lon="12.789779736857911"><ele>386.0</ele><time>2026-04-19T16:17:27.954Z</time></trkpt><trkpt lat="42.40369879362334" lon="12.78958223002121"><ele>385.5</ele><time>2026-04-19T16:17:28.953Z</time></trkpt><trkpt lat="42.40389250644547" lon="12.789387247203189"><ele>385.0</ele><time>2026-04-19T16:17:29.954Z</time></trkpt><trkpt lat="42.40408737811557" lon="12.789195245031024"><ele>386.0</ele><time>2026-04-19T16:17:30.954Z</time></trkpt><trkpt lat="42.40428163638478" lon="12.789004782352425"><ele>387.0</ele><time>2026-04-19T16:17:31.954Z</time></trkpt><trkpt lat="42.40448138325851" lon="12.788820957030783"><ele>386.0</ele><time>2026-04-19T16:17:32.954Z</time></trkpt><trkpt lat="42.4046829159423" lon="12.78864240746812"><ele>385.0</ele><time>2026-04-19T16:17:33.954Z</time></trkpt><trkpt lat="42.40488836505078" lon="12.788470871627238"><ele>385.0</ele><time>2026-04-19T16:17:34.954Z</time></trkpt><trkpt lat="42.40509657639728" lon="12.788303029819556"><ele>385.0</ele><time>2026-04-19T16:17:35.953Z</time></trkpt><trkpt lat="42.405308828683495" lon="12.788134623918701"><ele>384.5</ele><time>2026-04-19T16:17:36.953Z</time></trkpt><trkpt lat="42.40551964329498" lon="12.787964278004042"><ele>384.0</ele><time>2026-04-19T16:17:37.953Z</time></trkpt><trkpt lat="42.405735596804064" lon="12.787798098200124"><ele>385.0</ele><time>2026-04-19T16:17:38.953Z</time></trkpt><trkpt lat="42.40595553423985" lon="12.787640075882537"><ele>386.0</ele><time>2026-04-19T16:17:39.953Z</time></trkpt><trkpt lat="42.40617363095755" lon="12.787483973513114"><ele>385.0</ele><time>2026-04-19T16:17:40.953Z</time></trkpt><trkpt lat="42.40639610418995" lon="12.78734518794383"><ele>384.0</ele><time>2026-04-19T16:17:41.953Z</time></trkpt><trkpt lat="42.40662069928277" lon="12.787205865394938"><ele>384.0</ele><time>2026-04-19T16:17:42.953Z</time></trkpt><trkpt lat="42.4068482846498" lon="12.787064665491888"><ele>384.0</ele><time>2026-04-19T16:17:43.953Z</time></trkpt><trkpt lat="42.40708134307381" lon="12.786935832050311"><ele>383.5</ele><time>2026-04-19T16:17:44.953Z</time></trkpt><trkpt lat="42.407315384075346" lon="12.786806919719645"><ele>383.0</ele><time>2026-04-19T16:17:45.953Z</time></trkpt><trkpt lat="42.40755340128583" lon="12.786679471966377"><ele>383.0</ele><time>2026-04-19T16:17:46.953Z</time></trkpt><trkpt lat="42.40779075058992" lon="12.786557461419184"><ele>383.0</ele><time>2026-04-19T16:17:47.953Z</time></trkpt><trkpt lat="42.4080285856882" lon="12.786435638153694"><ele>383.5</ele><time>2026-04-19T16:17:48.953Z</time></trkpt><trkpt lat="42.408267273422084" lon="12.786322176276501"><ele>384.0</ele><time>2026-04-19T16:17:49.953Z</time></trkpt><trkpt lat="42.40850947129233" lon="12.786210281059791"><ele>384.0</ele><time>2026-04-19T16:17:50.953Z</time></trkpt><trkpt lat="42.40875008913543" lon="12.786103238884627"><ele>384.0</ele><time>2026-04-19T16:17:51.953Z</time></trkpt><trkpt lat="42.408989170738586" lon="12.786004950357631"><ele>383.5</ele><time>2026-04-19T16:17:52.953Z</time></trkpt><trkpt lat="42.409228950158536" lon="12.78591533863383"><ele>383.0</ele><time>2026-04-19T16:17:53.953Z</time></trkpt><trkpt lat="42.4094670876595" lon="12.785830575877437"><ele>383.0</ele><time>2026-04-19T16:17:54.953Z</time></trkpt><trkpt lat="42.40969861587644" lon="12.785754662395275"><ele>383.0</ele><time>2026-04-19T16:17:55.953Z</time></trkpt><trkpt lat="42.409917306270586" lon="12.785677437510744"><ele>383.0</ele><time>2026-04-19T16:17:56.953Z</time></trkpt><trkpt lat="42.41013411283457" lon="12.785601791859122"><ele>383.0</ele><time>2026-04-19T16:17:57.953Z</time></trkpt><trkpt lat="42.410353112853855" lon="12.785525537901739"><ele>382.5</ele><time>2026-04-19T16:17:58.953Z</time></trkpt><trkpt lat="42.41058040975504" lon="12.785444175837506"><ele>382.0</ele><time>2026-04-19T16:17:59.953Z</time></trkpt><trkpt lat="42.410809179518935" lon="12.785360275045957"><ele>382.0</ele><time>2026-04-19T16:18:00.953Z</time></trkpt><trkpt lat="42.41104144243824" lon="12.785276224740159"><ele>382.0</ele><time>2026-04-19T16:18:01.953Z</time></trkpt><trkpt lat="42.411274819478066" lon="12.785194513731529"><ele>382.5</ele><time>2026-04-19T16:18:02.953Z</time></trkpt><trkpt lat="42.4115093692572" lon="12.78511053082373"><ele>383.0</ele><time>2026-04-19T16:18:03.953Z</time></trkpt><trkpt lat="42.41174883219153" lon="12.78502785197156"><ele>383.0</ele><time>2026-04-19T16:18:04.953Z</time></trkpt><trkpt lat="42.41198703978619" lon="12.784943542333096"><ele>383.0</ele><time>2026-04-19T16:18:05.953Z</time></trkpt><trkpt lat="42.412229988459096" lon="12.784857575716378"><ele>382.5</ele><time>2026-04-19T16:18:06.953Z</time></trkpt><trkpt lat="42.412476436922134" lon="12.784772595190876"><ele>382.0</ele><time>2026-04-19T16:18:07.953Z</time></trkpt><trkpt lat="42.41272464790166" lon="12.784683805490738"><ele>382.0</ele><time>2026-04-19T16:18:08.953Z</time></trkpt><trkpt lat="42.4129770108361" lon="12.78459189947491"><ele>382.0</ele><time>2026-04-19T16:18:09.952Z</time></trkpt><trkpt lat="42.41322839861835" lon="12.784506147755328"><ele>382.5</ele><time>2026-04-19T16:18:10.952Z</time></trkpt><trkpt lat="42.413475863574355" lon="12.784415767105456"><ele>383.0</ele><time>2026-04-19T16:18:11.952Z</time></trkpt><trkpt lat="42.41372405720451" lon="12.784328082416577"><ele>382.0</ele><time>2026-04-19T16:18:12.952Z</time></trkpt><trkpt lat="42.41397184180689" lon="12.784238964428065"><ele>381.0</ele><time>2026-04-19T16:18:13.952Z</time></trkpt><trkpt lat="42.41421938889631" lon="12.78415184341288"><ele>381.0</ele><time>2026-04-19T16:18:14.952Z</time></trkpt><trkpt lat="42.414464834824656" lon="12.78406734951748"><ele>381.0</ele><time>2026-04-19T16:18:15.952Z</time></trkpt><trkpt lat="42.41471252019499" lon="12.783985301364428"><ele>381.0</ele><time>2026-04-19T16:18:16.952Z</time></trkpt><trkpt lat="42.41496016717621" lon="12.78390402837599"><ele>381.0</ele><time>2026-04-19T16:18:17.952Z</time></trkpt><trkpt lat="42.41520345409172" lon="12.78381750845323"><ele>381.0</ele><time>2026-04-19T16:18:18.952Z</time></trkpt><trkpt lat="42.41544815068999" lon="12.783729866435298"><ele>381.0</ele><time>2026-04-19T16:18:19.952Z</time></trkpt><trkpt lat="42.41569212205692" lon="12.783644277599988"><ele>381.0</ele><time>2026-04-19T16:18:20.952Z</time></trkpt><trkpt lat="42.41593370347193" lon="12.783555624811344"><ele>381.0</ele><time>2026-04-19T16:18:21.952Z</time></trkpt><trkpt lat="42.41617778239992" lon="12.783470286315831"><ele>382.0</ele><time>2026-04-19T16:18:22.952Z</time></trkpt><trkpt lat="42.41642168148494" lon="12.783383778319164"><ele>383.0</ele><time>2026-04-19T16:18:23.952Z</time></trkpt><trkpt lat="42.416664639228955" lon="12.783300360998183"><ele>383.0</ele><time>2026-04-19T16:18:24.952Z</time></trkpt><trkpt lat="42.41690592714659" lon="12.783216648437453"><ele>383.0</ele><time>2026-04-19T16:18:25.952Z</time></trkpt><trkpt lat="42.41714776966287" lon="12.783131727566408"><ele>383.0</ele><time>2026-04-19T16:18:26.952Z</time></trkpt><trkpt lat="42.41738922156309" lon="12.783047250808302"><ele>383.0</ele><time>2026-04-19T16:18:27.952Z</time></trkpt><trkpt lat="42.41762997897583" lon="12.78296405684067"><ele>383.0</ele><time>2026-04-19T16:18:28.952Z</time></trkpt><trkpt lat="42.41787098607564" lon="12.782877148868206"><ele>383.0</ele><time>2026-04-19T16:18:29.952Z</time></trkpt><trkpt lat="42.41811412047013" lon="12.782788996269403"><ele>383.0</ele><time>2026-04-19T16:18:30.952Z</time></trkpt><trkpt lat="42.418357566805554" lon="12.782703362943753"><ele>383.0</ele><time>2026-04-19T16:18:31.952Z</time></trkpt><trkpt lat="42.41859911062541" lon="12.782620458131365"><ele>383.0</ele><time>2026-04-19T16:18:32.952Z</time></trkpt><trkpt lat="42.41883762808957" lon="12.782536625202086"><ele>383.0</ele><time>2026-04-19T16:18:33.952Z</time></trkpt><trkpt lat="42.419079398591926" lon="12.782447841947734"><ele>383.0</ele><time>2026-04-19T16:18:34.952Z</time></trkpt><trkpt lat="42.41932252355383" lon="12.782362018995277"><ele>383.0</ele><time>2026-04-19T16:18:35.952Z</time></trkpt><trkpt lat="42.41956720463215" lon="12.78227618030049"><ele>382.0</ele><time>2026-04-19T16:18:36.952Z</time></trkpt><trkpt lat="42.419807267682366" lon="12.78218936683883"><ele>381.0</ele><time>2026-04-19T16:18:37.952Z</time></trkpt><trkpt lat="42.42004546899937" lon="12.782099682213271"><ele>381.0</ele><time>2026-04-19T16:18:38.952Z</time></trkpt><trkpt lat="42.42028709385638" lon="12.782012347101313"><ele>381.0</ele><time>2026-04-19T16:18:39.952Z</time></trkpt><trkpt lat="42.420530165215766" lon="12.781927784667444"><ele>381.5</ele><time>2026-04-19T16:18:40.952Z</time></trkpt><trkpt lat="42.42077279149232" lon="12.781838903086403"><ele>382.0</ele><time>2026-04-19T16:18:41.952Z</time></trkpt><trkpt lat="42.42101376125131" lon="12.781754099693336"><ele>382.0</ele><time>2026-04-19T16:18:42.951Z</time></trkpt><trkpt lat="42.42125555333755" lon="12.781672648864088"><ele>382.0</ele><time>2026-04-19T16:18:43.951Z</time></trkpt><trkpt lat="42.421496604541474" lon="12.781593442891653"><ele>380.5</ele><time>2026-04-19T16:18:44.951Z</time></trkpt><trkpt lat="42.42173868928652" lon="12.781510818462813"><ele>379.0</ele><time>2026-04-19T16:18:45.951Z</time></trkpt><trkpt lat="42.42198002804108" lon="12.781428774592635"><ele>378.5</ele><time>2026-04-19T16:18:46.951Z</time></trkpt><trkpt lat="42.42221994834664" lon="12.78135118506898"><ele>378.0</ele><time>2026-04-19T16:18:47.951Z</time></trkpt><trkpt lat="42.422462139463214" lon="12.781283113380775"><ele>378.0</ele><time>2026-04-19T16:18:48.951Z</time></trkpt><trkpt lat="42.42271138218987" lon="12.781235065167055"><ele>378.0</ele><time>2026-04-19T16:18:49.951Z</time></trkpt><trkpt lat="42.4229591613952" lon="12.78120007528182"><ele>378.0</ele><time>2026-04-19T16:18:50.951Z</time></trkpt><trkpt lat="42.423210927672756" lon="12.781181889036858"><ele>378.0</ele><time>2026-04-19T16:18:51.951Z</time></trkpt><trkpt lat="42.4234647690525" lon="12.781179069299439"><ele>378.0</ele><time>2026-04-19T16:18:52.951Z</time></trkpt><trkpt lat="42.42371542105381" lon="12.781188865080331"><ele>378.0</ele><time>2026-04-19T16:18:53.951Z</time></trkpt><trkpt lat="42.4239650742917" lon="12.781222457664569"><ele>377.5</ele><time>2026-04-19T16:18:54.951Z</time></trkpt><trkpt lat="42.42421172487472" lon="12.781266992591464"><ele>377.0</ele><time>2026-04-19T16:18:55.951Z</time></trkpt><trkpt lat="42.424456383048835" lon="12.781327870258416"><ele>377.5</ele><time>2026-04-19T16:18:56.951Z</time></trkpt><trkpt lat="42.424699934582094" lon="12.781406150509463"><ele>378.0</ele><time>2026-04-19T16:18:57.951Z</time></trkpt><trkpt lat="42.42493829612176" lon="12.781496136044897"><ele>378.0</ele><time>2026-04-19T16:18:58.951Z</time></trkpt><trkpt lat="42.42517409921343" lon="12.78160300976739"><ele>378.0</ele><time>2026-04-19T16:18:59.951Z</time></trkpt><trkpt lat="42.425408009615595" lon="12.78172077566865"><ele>377.0</ele><time>2026-04-19T16:19:00.951Z</time></trkpt><trkpt lat="42.42563707290972" lon="12.781848902547077"><ele>376.0</ele><time>2026-04-19T16:19:01.951Z</time></trkpt><trkpt lat="42.42585876162525" lon="12.7819944148279"><ele>376.0</ele><time>2026-04-19T16:19:02.951Z</time></trkpt><trkpt lat="42.42607869330247" lon="12.782158138044089"><ele>376.0</ele><time>2026-04-19T16:19:03.951Z</time></trkpt><trkpt lat="42.42629465344581" lon="12.782332777872282"><ele>377.5</ele><time>2026-04-19T16:19:04.951Z</time></trkpt><trkpt lat="42.42650162824622" lon="12.782524375248103"><ele>379.0</ele><time>2026-04-19T16:19:05.951Z</time></trkpt><trkpt lat="42.42669813284066" lon="12.782727884004053"><ele>379.0</ele><time>2026-04-19T16:19:06.951Z</time></trkpt><trkpt lat="42.426893655444985" lon="12.782937024634352"><ele>379.0</ele><time>2026-04-19T16:19:07.951Z</time></trkpt><trkpt lat="42.42708287244491" lon="12.783159845823533"><ele>379.0</ele><time>2026-04-19T16:19:08.951Z</time></trkpt><trkpt lat="42.42726287292613" lon="12.783393799284823"><ele>379.0</ele><time>2026-04-19T16:19:09.951Z</time></trkpt><trkpt lat="42.42743232242183" lon="12.783636656876155"><ele>379.5</ele><time>2026-04-19T16:19:10.951Z</time></trkpt><trkpt lat="42.427597522025756" lon="12.78388809626642"><ele>380.0</ele><time>2026-04-19T16:19:11.951Z</time></trkpt><trkpt lat="42.427761871332464" lon="12.784141306805465"><ele>378.5</ele><time>2026-04-19T16:19:12.951Z</time></trkpt><trkpt lat="42.42793065966512" lon="12.784395785550114"><ele>377.0</ele><time>2026-04-19T16:19:13.951Z</time></trkpt><trkpt lat="42.4280948105912" lon="12.784644325904821"><ele>377.0</ele><time>2026-04-19T16:19:14.951Z</time></trkpt><trkpt lat="42.42827118048831" lon="12.784884979733889"><ele>377.0</ele><time>2026-04-19T16:19:15.951Z</time></trkpt><trkpt lat="42.4284614556138" lon="12.785110753542366"><ele>376.5</ele><time>2026-04-19T16:19:16.95Z</time></trkpt><trkpt lat="42.428659795025055" lon="12.785312993902433"><ele>376.0</ele><time>2026-04-19T16:19:17.95Z</time></trkpt><trkpt lat="42.428870243038475" lon="12.785503770768326"><ele>377.5</ele><time>2026-04-19T16:19:18.95Z</time></trkpt><trkpt lat="42.42908172800142" lon="12.785667367682562"><ele>379.0</ele><time>2026-04-19T16:19:19.95Z</time></trkpt><trkpt lat="42.42930421911038" lon="12.785805367746137"><ele>379.0</ele><time>2026-04-19T16:19:20.95Z</time></trkpt><trkpt lat="42.42953785216531" lon="12.785925087907195"><ele>379.0</ele><time>2026-04-19T16:19:21.95Z</time></trkpt><trkpt lat="42.429777527127186" lon="12.786017968190947"><ele>378.0</ele><time>2026-04-19T16:19:22.95Z</time></trkpt><trkpt lat="42.430020141511974" lon="12.786097336074397"><ele>377.0</ele><time>2026-04-19T16:19:23.95Z</time></trkpt><trkpt lat="42.430263614048236" lon="12.786155661114355"><ele>377.5</ele><time>2026-04-19T16:19:24.95Z</time></trkpt><trkpt lat="42.4305086249131" lon="12.786190380179432"><ele>378.0</ele><time>2026-04-19T16:19:25.952Z</time></trkpt><trkpt lat="42.430758668283104" lon="12.786198766367974"><ele>378.0</ele><time>2026-04-19T16:19:26.953Z</time></trkpt><trkpt lat="42.43101041882762" lon="12.786188443748173"><ele>378.0</ele><time>2026-04-19T16:19:27.953Z</time></trkpt><trkpt lat="42.43125986963433" lon="12.78615319413807"><ele>378.5</ele><time>2026-04-19T16:19:28.952Z</time></trkpt><trkpt lat="42.43150415219452" lon="12.786101198175842"><ele>379.0</ele><time>2026-04-19T16:19:29.952Z</time></trkpt><trkpt lat="42.43174898150064" lon="12.786024351945334"><ele>379.0</ele><time>2026-04-19T16:19:30.952Z</time></trkpt><trkpt lat="42.4319912711296" lon="12.785940235892859"><ele>379.0</ele><time>2026-04-19T16:19:31.952Z</time></trkpt><trkpt lat="42.43223436432423" lon="12.785850917438369"><ele>379.0</ele><time>2026-04-19T16:19:32.952Z</time></trkpt><trkpt lat="42.43247476403091" lon="12.785756259494752"><ele>379.0</ele><time>2026-04-19T16:19:33.952Z</time></trkpt><trkpt lat="42.432715790203424" lon="12.78566391201851"><ele>379.0</ele><time>2026-04-19T16:19:34.952Z</time></trkpt><trkpt lat="42.43294659324919" lon="12.7855844574366"><ele>379.0</ele><time>2026-04-19T16:19:35.952Z</time></trkpt><trkpt lat="42.43316824093348" lon="12.785509567756415"><ele>380.0</ele><time>2026-04-19T16:19:36.952Z</time></trkpt><trkpt lat="42.43338300040465" lon="12.785437830039907"><ele>381.0</ele><time>2026-04-19T16:19:37.952Z</time></trkpt><trkpt lat="42.43358743989935" lon="12.78536155542361"><ele>382.0</ele><time>2026-04-19T16:19:38.952Z</time></trkpt><trkpt lat="42.43377894426761" lon="12.785282848693214"><ele>382.3333333333333</ele><time>2026-04-19T16:19:39.952Z</time></trkpt><trkpt lat="42.4339644381553" lon="12.785202548876283"><ele>382.6666666666667</ele><time>2026-04-19T16:19:40.952Z</time></trkpt><trkpt lat="42.434148602053156" lon="12.785144591952104"><ele>383.0</ele><time>2026-04-19T16:19:41.952Z</time></trkpt><trkpt lat="42.434325698292945" lon="12.785083273479119"><ele>383.0</ele><time>2026-04-19T16:19:42.952Z</time></trkpt><trkpt lat="42.434499471814625" lon="12.78502670149949"><ele>383.0</ele><time>2026-04-19T16:19:43.952Z</time></trkpt><trkpt lat="42.43466712520292" lon="12.78498237788256"><ele>383.0</ele><time>2026-04-19T16:19:44.952Z</time></trkpt><trkpt lat="42.43483188311898" lon="12.784942587266103"><ele>377.0</ele><time>2026-04-19T16:19:45.952Z</time></trkpt><trkpt lat="42.43635848594423" lon="12.784911247458458"><ele>377.0</ele><time>2026-04-19T16:19:52.952Z</time></trkpt><trkpt lat="42.43654515454437" lon="12.784936632814343"><ele>377.0</ele><time>2026-04-19T16:19:53.952Z</time></trkpt><trkpt lat="42.43674152802375" lon="12.7849453966401"><ele>377.0</ele><time>2026-04-19T16:19:54.952Z</time></trkpt><trkpt lat="42.436916913408986" lon="12.784987384739347"><ele>377.0</ele><time>2026-04-19T16:19:55.952Z</time></trkpt><trkpt lat="42.43710169253123" lon="12.785003879980488"><ele>377.0</ele><time>2026-04-19T16:19:56.952Z</time></trkpt><trkpt lat="42.43729088871094" lon="12.78505549583511"><ele>377.0</ele><time>2026-04-19T16:19:57.952Z</time></trkpt><trkpt lat="42.43753510083415" lon="12.785129686755361"><ele>377.0</ele><time>2026-04-19T16:19:58.952Z</time></trkpt><trkpt lat="42.43776199944683" lon="12.785219617228273"><ele>377.0</ele><time>2026-04-19T16:19:59.952Z</time></trkpt><trkpt lat="42.438000146873186" lon="12.785329717880991"><ele>377.0</ele><time>2026-04-19T16:20:00.952Z</time></trkpt><trkpt lat="42.43824118687036" lon="12.785454983355631"><ele>377.0</ele><time>2026-04-19T16:20:01.951Z</time></trkpt><trkpt lat="42.4384871375354" lon="12.78559617366523"><ele>377.0</ele><time>2026-04-19T16:20:02.951Z</time></trkpt><trkpt lat="42.43873961268016" lon="12.785763580853992"><ele>377.0</ele><time>2026-04-19T16:20:03.951Z</time></trkpt><trkpt lat="42.438997023408554" lon="12.785948775380838"><ele>377.5</ele><time>2026-04-19T16:20:04.951Z</time></trkpt><trkpt lat="42.43923399944523" lon="12.786128210356344"><ele>378.0</ele><time>2026-04-19T16:20:05.951Z</time></trkpt><trkpt lat="42.4394635949169" lon="12.786297226690603"><ele>378.0</ele><time>2026-04-19T16:20:06.951Z</time></trkpt><trkpt lat="42.43972259325027" lon="12.786484555601247"><ele>378.0</ele><time>2026-04-19T16:20:07.951Z</time></trkpt><trkpt lat="42.43999684442706" lon="12.786704119597738"><ele>378.0</ele><time>2026-04-19T16:20:08.951Z</time></trkpt><trkpt lat="42.440271956926004" lon="12.786892690665285"><ele>378.0</ele><time>2026-04-19T16:20:09.951Z</time></trkpt><trkpt lat="42.44053332116597" lon="12.787098479112675"><ele>378.0</ele><time>2026-04-19T16:20:10.951Z</time></trkpt><trkpt lat="42.44078664325216" lon="12.787294358084523"><ele>378.0</ele><time>2026-04-19T16:20:11.951Z</time></trkpt><trkpt lat="42.441030337261616" lon="12.787478480777718"><ele>378.0</ele><time>2026-04-19T16:20:12.951Z</time></trkpt><trkpt lat="42.44126617654263" lon="12.78764385386075"><ele>378.0</ele><time>2026-04-19T16:20:13.951Z</time></trkpt><trkpt lat="42.44150860285211" lon="12.787799754024352"><ele>377.5</ele><time>2026-04-19T16:20:14.951Z</time></trkpt><trkpt lat="42.441761352112835" lon="12.787951853667876"><ele>377.0</ele><time>2026-04-19T16:20:15.951Z</time></trkpt><trkpt lat="42.442030077282645" lon="12.78812725347231"><ele>377.0</ele><time>2026-04-19T16:20:16.951Z</time></trkpt><trkpt lat="42.44232622746201" lon="12.788252877722519"><ele>377.0</ele><time>2026-04-19T16:20:17.951Z</time></trkpt><trkpt lat="42.44261407448661" lon="12.788401068539448"><ele>377.0</ele><time>2026-04-19T16:20:18.951Z</time></trkpt><trkpt lat="42.44290226756119" lon="12.788526578289304"><ele>377.0</ele><time>2026-04-19T16:20:19.951Z</time></trkpt><trkpt lat="42.44319072187689" lon="12.788630630302718"><ele>377.0</ele><time>2026-04-19T16:20:20.951Z</time></trkpt><trkpt lat="42.44348182919352" lon="12.788719087911888"><ele>377.0</ele><time>2026-04-19T16:20:21.951Z</time></trkpt><trkpt lat="42.4437707177295" lon="12.788790260899361"><ele>377.0</ele><time>2026-04-19T16:20:22.951Z</time></trkpt><trkpt lat="42.44406752656025" lon="12.788841829424994"><ele>377.0</ele><time>2026-04-19T16:20:23.951Z</time></trkpt><trkpt lat="42.444369170188686" lon="12.788877171460026"><ele>377.0</ele><time>2026-04-19T16:20:24.951Z</time></trkpt><trkpt lat="42.444682239924305" lon="12.788901730061475"><ele>377.0</ele><time>2026-04-19T16:20:25.951Z</time></trkpt><trkpt lat="42.44499796380217" lon="12.788907085374978"><ele>377.0</ele><time>2026-04-19T16:20:26.951Z</time></trkpt><trkpt lat="42.44531127011099" lon="12.788897908108446"><ele>377.0</ele><time>2026-04-19T16:20:27.951Z</time></trkpt><trkpt lat="42.4455874078036" lon="12.78888180636468"><ele>376.0</ele><time>2026-04-19T16:20:28.951Z</time></trkpt><trkpt lat="42.44584118211928" lon="12.788857977572313"><ele>375.0</ele><time>2026-04-19T16:20:29.951Z</time></trkpt><trkpt lat="42.44608333889621" lon="12.788822031078029"><ele>374.5</ele><time>2026-04-19T16:20:30.951Z</time></trkpt><trkpt lat="42.44634520129036" lon="12.788768689572096"><ele>374.0</ele><time>2026-04-19T16:20:31.951Z</time></trkpt><trkpt lat="42.44662993839295" lon="12.7886967642718"><ele>374.0</ele><time>2026-04-19T16:20:32.951Z</time></trkpt><trkpt lat="42.44693261905277" lon="12.788627892888591"><ele>374.0</ele><time>2026-04-19T16:20:33.951Z</time></trkpt><trkpt lat="42.44725932232938" lon="12.788560259474092"><ele>375.5</ele><time>2026-04-19T16:20:34.951Z</time></trkpt><trkpt lat="42.44758223242214" lon="12.788472832222741"><ele>377.0</ele><time>2026-04-19T16:20:35.95Z</time></trkpt><trkpt lat="42.44789212186833" lon="12.788382699655942"><ele>377.0</ele><time>2026-04-19T16:20:36.95Z</time></trkpt><trkpt lat="42.448209165028004" lon="12.788299267630906"><ele>377.0</ele><time>2026-04-19T16:20:37.95Z</time></trkpt><trkpt lat="42.44853413809065" lon="12.788216165361215"><ele>377.0</ele><time>2026-04-19T16:20:38.95Z</time></trkpt><trkpt lat="42.448855070829644" lon="12.788130266340747"><ele>377.0</ele><time>2026-04-19T16:20:39.95Z</time></trkpt><trkpt lat="42.44917832269105" lon="12.788037716262249"><ele>377.0</ele><time>2026-04-19T16:20:40.95Z</time></trkpt><trkpt lat="42.449496714826644" lon="12.787950773297798"><ele>377.0</ele><time>2026-04-19T16:20:41.95Z</time></trkpt><trkpt lat="42.44981173986378" lon="12.78786837935805"><ele>376.5</ele><time>2026-04-19T16:20:42.95Z</time></trkpt><trkpt lat="42.45011286408537" lon="12.787790994619781"><ele>376.0</ele><time>2026-04-19T16:20:43.95Z</time></trkpt><trkpt lat="42.45041411400107" lon="12.787712730646936"><ele>376.0</ele><time>2026-04-19T16:20:44.95Z</time></trkpt><trkpt lat="42.45072985133676" lon="12.787627092214256"><ele>376.0</ele><time>2026-04-19T16:20:45.95Z</time></trkpt><trkpt lat="42.45105823956982" lon="12.787531436069155"><ele>375.5</ele><time>2026-04-19T16:20:46.95Z</time></trkpt><trkpt lat="42.45139223667354" lon="12.787432635829793"><ele>375.0</ele><time>2026-04-19T16:20:47.95Z</time></trkpt><trkpt lat="42.45172714266223" lon="12.787332292989303"><ele>375.0</ele><time>2026-04-19T16:20:48.95Z</time></trkpt><trkpt lat="42.452068255338354" lon="12.787234766704499"><ele>375.0</ele><time>2026-04-19T16:20:49.95Z</time></trkpt><trkpt lat="42.452412114570926" lon="12.787144057133975"><ele>375.5</ele><time>2026-04-19T16:20:50.95Z</time></trkpt><trkpt lat="42.45275374070551" lon="12.78704385369876"><ele>376.0</ele><time>2026-04-19T16:20:51.95Z</time></trkpt><trkpt lat="42.453087790843654" lon="12.786930823474119"><ele>376.5</ele><time>2026-04-19T16:20:52.95Z</time></trkpt><trkpt lat="42.453417964835914" lon="12.786812736383114"><ele>377.0</ele><time>2026-04-19T16:20:53.95Z</time></trkpt><trkpt lat="42.45373895256092" lon="12.78670235730753"><ele>377.0</ele><time>2026-04-19T16:20:54.95Z</time></trkpt><trkpt lat="42.45405250517593" lon="12.786591390825683"><ele>377.0</ele><time>2026-04-19T16:20:55.95Z</time></trkpt><trkpt lat="42.45436372738216" lon="12.786482260729496"><ele>376.0</ele><time>2026-04-19T16:20:56.95Z</time></trkpt><trkpt lat="42.45467248119768" lon="12.786363783940322"><ele>375.0</ele><time>2026-04-19T16:20:57.95Z</time></trkpt><trkpt lat="42.45498302346261" lon="12.786243287435314"><ele>375.0</ele><time>2026-04-19T16:20:58.95Z</time></trkpt><trkpt lat="42.45529618364609" lon="12.786119960904788"><ele>375.0</ele><time>2026-04-19T16:20:59.95Z</time></trkpt><trkpt lat="42.455610165921456" lon="12.78599400141758"><ele>376.0</ele><time>2026-04-19T16:21:00.95Z</time></trkpt><trkpt lat="42.45592481893687" lon="12.785865522831283"><ele>377.0</ele><time>2026-04-19T16:21:01.95Z</time></trkpt><trkpt lat="42.45624086683832" lon="12.785727343544723"><ele>376.5</ele><time>2026-04-19T16:21:02.95Z</time></trkpt><trkpt lat="42.456553990106315" lon="12.785583517549199"><ele>376.0</ele><time>2026-04-19T16:21:03.95Z</time></trkpt><trkpt lat="42.45687390695281" lon="12.78543624591278"><ele>376.0</ele><time>2026-04-19T16:21:04.95Z</time></trkpt><trkpt lat="42.45719145565848" lon="12.785294530594468"><ele>376.0</ele><time>2026-04-19T16:21:05.95Z</time></trkpt><trkpt lat="42.45750820986096" lon="12.785143067478987"><ele>376.0</ele><time>2026-04-19T16:21:06.95Z</time></trkpt><trkpt lat="42.45782183077728" lon="12.784983805724613"><ele>376.0</ele><time>2026-04-19T16:21:07.95Z</time></trkpt><trkpt lat="42.45813038124663" lon="12.784832101484582"><ele>375.5</ele><time>2026-04-19T16:21:08.949Z</time></trkpt><trkpt lat="42.45843005538707" lon="12.784685624505084"><ele>375.0</ele><time>2026-04-19T16:21:09.949Z</time></trkpt><trkpt lat="42.45873058120266" lon="12.784533690752225"><ele>374.5</ele><time>2026-04-19T16:21:10.949Z</time></trkpt><trkpt lat="42.459033188039" lon="12.784370427147827"><ele>374.0</ele><time>2026-04-19T16:21:11.949Z</time></trkpt><trkpt lat="42.45933633767242" lon="12.78420000192564"><ele>375.0</ele><time>2026-04-19T16:21:12.949Z</time></trkpt><trkpt lat="42.45964160149458" lon="12.784029156389174"><ele>376.0</ele><time>2026-04-19T16:21:13.949Z</time></trkpt><trkpt lat="42.45993980520991" lon="12.78386002605663"><ele>376.0</ele><time>2026-04-19T16:21:14.949Z</time></trkpt><trkpt lat="42.46023346555853" lon="12.783691596335672"><ele>376.0</ele><time>2026-04-19T16:21:15.949Z</time></trkpt><trkpt lat="42.460524073669674" lon="12.783518236090307"><ele>375.0</ele><time>2026-04-19T16:21:16.949Z</time></trkpt><trkpt lat="42.460820018295585" lon="12.783338027742824"><ele>374.0</ele><time>2026-04-19T16:21:17.949Z</time></trkpt><trkpt lat="42.461120128799486" lon="12.783154920174406"><ele>375.0</ele><time>2026-04-19T16:21:18.949Z</time></trkpt><trkpt lat="42.461424698153714" lon="12.782964191752953"><ele>376.0</ele><time>2026-04-19T16:21:19.949Z</time></trkpt><trkpt lat="42.46172722630947" lon="12.782769342828006"><ele>375.5</ele><time>2026-04-19T16:21:20.949Z</time></trkpt><trkpt lat="42.46203272356522" lon="12.782572063529074"><ele>375.0</ele><time>2026-04-19T16:21:21.949Z</time></trkpt><trkpt lat="42.46233643516947" lon="12.782377302584218"><ele>375.0</ele><time>2026-04-19T16:21:22.949Z</time></trkpt><trkpt lat="42.46264021328983" lon="12.782181987383415"><ele>375.0</ele><time>2026-04-19T16:21:23.949Z</time></trkpt><trkpt lat="42.462942701093155" lon="12.781990044441551"><ele>374.0</ele><time>2026-04-19T16:21:24.949Z</time></trkpt><trkpt lat="42.46324866192108" lon="12.781797024757054"><ele>373.0</ele><time>2026-04-19T16:21:25.949Z</time></trkpt><trkpt lat="42.46355438789714" lon="12.78160289051893"><ele>374.0</ele><time>2026-04-19T16:21:26.949Z</time></trkpt><trkpt lat="42.4638565029978" lon="12.781406846726066"><ele>375.0</ele><time>2026-04-19T16:21:27.949Z</time></trkpt><trkpt lat="42.464162116353116" lon="12.781212570039875"><ele>375.5</ele><time>2026-04-19T16:21:28.949Z</time></trkpt><trkpt lat="42.46446783073504" lon="12.781014352970757"><ele>376.0</ele><time>2026-04-19T16:21:29.949Z</time></trkpt><trkpt lat="42.46478009643537" lon="12.780822219868034"><ele>376.5</ele><time>2026-04-19T16:21:30.949Z</time></trkpt><trkpt lat="42.465084952044755" lon="12.780630550606814"><ele>377.0</ele><time>2026-04-19T16:21:31.951Z</time></trkpt><trkpt lat="42.4653915671574" lon="12.780436028029067"><ele>377.0</ele><time>2026-04-19T16:21:32.95Z</time></trkpt><trkpt lat="42.46570260180348" lon="12.780235269060759"><ele>377.0</ele><time>2026-04-19T16:21:33.95Z</time></trkpt><trkpt lat="42.466004305370085" lon="12.780039711382145"><ele>377.0</ele><time>2026-04-19T16:21:34.951Z</time></trkpt><trkpt lat="42.4662986839398" lon="12.77985347831327"><ele>377.0</ele><time>2026-04-19T16:21:35.95Z</time></trkpt><trkpt lat="42.46659532773968" lon="12.779655328299292"><ele>377.0</ele><time>2026-04-19T16:21:36.95Z</time></trkpt><trkpt lat="42.46689922228847" lon="12.779456476560618"><ele>377.0</ele><time>2026-04-19T16:21:37.95Z</time></trkpt><trkpt lat="42.46720322293448" lon="12.77926371063409"><ele>376.5</ele><time>2026-04-19T16:21:38.95Z</time></trkpt><trkpt lat="42.467507138065734" lon="12.779067200366082"><ele>376.0</ele><time>2026-04-19T16:21:39.95Z</time></trkpt><trkpt lat="42.467812590244996" lon="12.77887258721311"><ele>376.0</ele><time>2026-04-19T16:21:40.951Z</time></trkpt><trkpt lat="42.46812489659555" lon="12.778673822241009"><ele>376.0</ele><time>2026-04-19T16:21:41.951Z</time></trkpt><trkpt lat="42.46843340656306" lon="12.778481520221222"><ele>375.5</ele><time>2026-04-19T16:21:42.951Z</time></trkpt><trkpt lat="42.46873275240432" lon="12.778298061290815"><ele>375.0</ele><time>2026-04-19T16:21:43.951Z</time></trkpt><trkpt lat="42.46902634896001" lon="12.778108664829958"><ele>375.0</ele><time>2026-04-19T16:21:44.95Z</time></trkpt><trkpt lat="42.46929752322831" lon="12.777928987594555"><ele>375.0</ele><time>2026-04-19T16:21:45.95Z</time></trkpt><trkpt lat="42.469572561174125" lon="12.777754622008064"><ele>374.5</ele><time>2026-04-19T16:21:46.95Z</time></trkpt><trkpt lat="42.469836476494294" lon="12.777582840331606"><ele>374.0</ele><time>2026-04-19T16:21:47.95Z</time></trkpt><trkpt lat="42.470101094811255" lon="12.777418074462568"><ele>374.0</ele><time>2026-04-19T16:21:48.95Z</time></trkpt><trkpt lat="42.47035993606899" lon="12.77725784154602"><ele>374.0</ele><time>2026-04-19T16:21:49.95Z</time></trkpt><trkpt lat="42.47061666414962" lon="12.777100317434497"><ele>373.5</ele><time>2026-04-19T16:21:50.95Z</time></trkpt><trkpt lat="42.4708725228602" lon="12.776941238452654"><ele>373.0</ele><time>2026-04-19T16:21:51.95Z</time></trkpt><trkpt lat="42.47112101132353" lon="12.776775384462338"><ele>373.5</ele><time>2026-04-19T16:21:52.95Z</time></trkpt><trkpt lat="42.471359945986876" lon="12.776621123408834"><ele>374.0</ele><time>2026-04-19T16:21:53.95Z</time></trkpt><trkpt lat="42.47159342640466" lon="12.776469970752776"><ele>374.0</ele><time>2026-04-19T16:21:54.95Z</time></trkpt><trkpt lat="42.47183287825244" lon="12.776313488317745"><ele>374.0</ele><time>2026-04-19T16:21:55.95Z</time></trkpt><trkpt lat="42.472071896382396" lon="12.776161080420557"><ele>374.0</ele><time>2026-04-19T16:21:56.95Z</time></trkpt><trkpt lat="42.47230892304431" lon="12.776011432590145"><ele>374.0</ele><time>2026-04-19T16:21:57.95Z</time></trkpt><trkpt lat="42.472544304790034" lon="12.775864122000895"><ele>374.0</ele><time>2026-04-19T16:21:58.95Z</time></trkpt><trkpt lat="42.47277767952698" lon="12.77571819868471"><ele>374.0</ele><time>2026-04-19T16:21:59.95Z</time></trkpt><trkpt lat="42.473008646261114" lon="12.775568779742091"><ele>373.0</ele><time>2026-04-19T16:22:00.95Z</time></trkpt><trkpt lat="42.47324378078085" lon="12.775421076376176"><ele>372.0</ele><time>2026-04-19T16:22:01.95Z</time></trkpt><trkpt lat="42.47347965804714" lon="12.775275690103017"><ele>372.0</ele><time>2026-04-19T16:22:02.95Z</time></trkpt><trkpt lat="42.47371355077439" lon="12.775124135601903"><ele>372.0</ele><time>2026-04-19T16:22:03.95Z</time></trkpt><trkpt lat="42.47394708101094" lon="12.774975310435444"><ele>372.0</ele><time>2026-04-19T16:22:04.95Z</time></trkpt><trkpt lat="42.47417901606111" lon="12.77482413923324"><ele>372.0</ele><time>2026-04-19T16:22:05.95Z</time></trkpt><trkpt lat="42.474409526175926" lon="12.774670363375229"><ele>372.5</ele><time>2026-04-19T16:22:06.95Z</time></trkpt><trkpt lat="42.47463984483149" lon="12.774522076625153"><ele>373.0</ele><time>2026-04-19T16:22:07.95Z</time></trkpt><trkpt lat="42.47486818746007" lon="12.774375027369059"><ele>373.0</ele><time>2026-04-19T16:22:08.95Z</time></trkpt><trkpt lat="42.47509444656243" lon="12.774227897380298"><ele>373.0</ele><time>2026-04-19T16:22:09.95Z</time></trkpt><trkpt lat="42.47532130518488" lon="12.774077399218136"><ele>372.5</ele><time>2026-04-19T16:22:10.95Z</time></trkpt><trkpt lat="42.475548541359224" lon="12.773938609375218"><ele>372.0</ele><time>2026-04-19T16:22:11.949Z</time></trkpt><trkpt lat="42.47577335261805" lon="12.773804186415015"><ele>372.0</ele><time>2026-04-19T16:22:12.949Z</time></trkpt><trkpt lat="42.47599072624478" lon="12.773662717680118"><ele>372.0</ele><time>2026-04-19T16:22:13.949Z</time></trkpt><trkpt lat="42.47620744361655" lon="12.77351928291982"><ele>373.0</ele><time>2026-04-19T16:22:14.949Z</time></trkpt><trkpt lat="42.47642419655129" lon="12.773379055420573"><ele>374.0</ele><time>2026-04-19T16:22:15.949Z</time></trkpt><trkpt lat="42.47664226237857" lon="12.773242791184696"><ele>374.0</ele><time>2026-04-19T16:22:16.949Z</time></trkpt><trkpt lat="42.47685835230479" lon="12.77310163823861"><ele>374.0</ele><time>2026-04-19T16:22:17.949Z</time></trkpt><trkpt lat="42.47707406098807" lon="12.772964463642102"><ele>374.0</ele><time>2026-04-19T16:22:18.949Z</time></trkpt><trkpt lat="42.4772926076711" lon="12.772826493171454"><ele>374.0</ele><time>2026-04-19T16:22:19.949Z</time></trkpt><trkpt lat="42.47750885753775" lon="12.772688957614298"><ele>374.0</ele><time>2026-04-19T16:22:20.949Z</time></trkpt><trkpt lat="42.4777276441979" lon="12.772545786794025"><ele>374.0</ele><time>2026-04-19T16:22:21.949Z</time></trkpt><trkpt lat="42.47794951630211" lon="12.77240521079262"><ele>373.5</ele><time>2026-04-19T16:22:22.949Z</time></trkpt><trkpt lat="42.47817245998478" lon="12.772264485570147"><ele>373.0</ele><time>2026-04-19T16:22:23.949Z</time></trkpt><trkpt lat="42.47839551540237" lon="12.772119635637523"><ele>373.0</ele><time>2026-04-19T16:22:24.949Z</time></trkpt><trkpt lat="42.47862068891363" lon="12.771975186335236"><ele>373.0</ele><time>2026-04-19T16:22:25.949Z</time></trkpt><trkpt lat="42.47884557183141" lon="12.771830612096204"><ele>373.5</ele><time>2026-04-19T16:22:26.949Z</time></trkpt><trkpt lat="42.479069977106164" lon="12.771683975239517"><ele>374.0</ele><time>2026-04-19T16:22:27.949Z</time></trkpt><trkpt lat="42.47929598072876" lon="12.771541702940675"><ele>374.0</ele><time>2026-04-19T16:22:28.949Z</time></trkpt><trkpt lat="42.47952008980705" lon="12.771398998674586"><ele>374.0</ele><time>2026-04-19T16:22:29.949Z</time></trkpt><trkpt lat="42.479747007438306" lon="12.771256854807438"><ele>373.5</ele><time>2026-04-19T16:22:30.949Z</time></trkpt><trkpt lat="42.47997150580536" lon="12.771114453070215"><ele>373.0</ele><time>2026-04-19T16:22:31.949Z</time></trkpt><trkpt lat="42.48019734352613" lon="12.77096680172386"><ele>372.5</ele><time>2026-04-19T16:22:32.949Z</time></trkpt><trkpt lat="42.48042322220791" lon="12.770822776025529"><ele>372.0</ele><time>2026-04-19T16:22:33.949Z</time></trkpt><trkpt lat="42.48063468944331" lon="12.770690028113355"><ele>372.0</ele><time>2026-04-19T16:22:34.949Z</time></trkpt><trkpt lat="42.48084215926578" lon="12.770560370586704"><ele>372.0</ele><time>2026-04-19T16:22:35.949Z</time></trkpt><trkpt lat="42.48104800317036" lon="12.770424759770663"><ele>372.0</ele><time>2026-04-19T16:22:36.949Z</time></trkpt><trkpt lat="42.481249981619875" lon="12.770292073429696"><ele>372.0</ele><time>2026-04-19T16:22:37.949Z</time></trkpt><trkpt lat="42.481444905265" lon="12.770163439993645"><ele>372.0</ele><time>2026-04-19T16:22:38.949Z</time></trkpt><trkpt lat="42.4816474635141" lon="12.770032635901881"><ele>372.5</ele><time>2026-04-19T16:22:39.949Z</time></trkpt><trkpt lat="42.48185539477153" lon="12.769905813989016"><ele>373.0</ele><time>2026-04-19T16:22:40.949Z</time></trkpt><trkpt lat="42.48206477731834" lon="12.769776612851414"><ele>373.0</ele><time>2026-04-19T16:22:41.949Z</time></trkpt><trkpt lat="42.48227701660097" lon="12.769642860378294"><ele>373.0</ele><time>2026-04-19T16:22:42.949Z</time></trkpt><trkpt lat="42.482485771576094" lon="12.769502829035451"><ele>373.0</ele><time>2026-04-19T16:22:43.949Z</time></trkpt><trkpt lat="42.48269451782901" lon="12.769365266961854"><ele>373.0</ele><time>2026-04-19T16:22:44.948Z</time></trkpt><trkpt lat="42.48290649643832" lon="12.769226074156846"><ele>372.0</ele><time>2026-04-19T16:22:45.948Z</time></trkpt><trkpt lat="42.48312166974865" lon="12.769092208898172"><ele>371.0</ele><time>2026-04-19T16:22:46.948Z</time></trkpt><trkpt lat="42.48333550251224" lon="12.768952617924773"><ele>371.0</ele><time>2026-04-19T16:22:47.948Z</time></trkpt><trkpt lat="42.48354995651076" lon="12.768816327982663"><ele>371.0</ele><time>2026-04-19T16:22:48.948Z</time></trkpt><trkpt lat="42.483772321475826" lon="12.768691363628022"><ele>371.0</ele><time>2026-04-19T16:22:49.948Z</time></trkpt><trkpt lat="42.48398852560762" lon="12.76855935444891"><ele>371.0</ele><time>2026-04-19T16:22:50.948Z</time></trkpt><trkpt lat="42.484212095935234" lon="12.768420281235779"><ele>372.0</ele><time>2026-04-19T16:22:51.948Z</time></trkpt><trkpt lat="42.48442765124624" lon="12.768275933978725"><ele>373.0</ele><time>2026-04-19T16:22:52.948Z</time></trkpt><trkpt lat="42.48463871950838" lon="12.768135537053313"><ele>373.5</ele><time>2026-04-19T16:22:53.948Z</time></trkpt><trkpt lat="42.48485037810996" lon="12.767999476612765"><ele>374.0</ele><time>2026-04-19T16:22:54.948Z</time></trkpt><trkpt lat="42.485067187529765" lon="12.76786028651811"><ele>374.0</ele><time>2026-04-19T16:22:55.948Z</time></trkpt><trkpt lat="42.48528352552735" lon="12.767722878855215"><ele>374.0</ele><time>2026-04-19T16:22:56.948Z</time></trkpt><trkpt lat="42.48549884776675" lon="12.767586749137434"><ele>374.0</ele><time>2026-04-19T16:22:57.948Z</time></trkpt><trkpt lat="42.485714690924" lon="12.767448789733175"><ele>374.0</ele><time>2026-04-19T16:22:58.948Z</time></trkpt><trkpt lat="42.485927383652644" lon="12.76730355398771"><ele>374.0</ele><time>2026-04-19T16:22:59.948Z</time></trkpt><trkpt lat="42.48613891855338" lon="12.767161690143029"><ele>374.0</ele><time>2026-04-19T16:23:00.948Z</time></trkpt><trkpt lat="42.48635556939025" lon="12.767026141616128"><ele>373.5</ele><time>2026-04-19T16:23:01.948Z</time></trkpt><trkpt lat="42.486571833973024" lon="12.766885823752443"><ele>373.0</ele><time>2026-04-19T16:23:02.948Z</time></trkpt><trkpt lat="42.486786435562195" lon="12.766743071527266"><ele>373.0</ele><time>2026-04-19T16:23:03.948Z</time></trkpt><trkpt lat="42.486998096825104" lon="12.766604115095134"><ele>373.0</ele><time>2026-04-19T16:23:04.948Z</time></trkpt><trkpt lat="42.48721133777655" lon="12.766463537742602"><ele>372.5</ele><time>2026-04-19T16:23:05.948Z</time></trkpt><trkpt lat="42.48743001079259" lon="12.766326496607306"><ele>372.0</ele><time>2026-04-19T16:23:06.948Z</time></trkpt><trkpt lat="42.487651772078586" lon="12.766196132010908"><ele>372.0</ele><time>2026-04-19T16:23:07.948Z</time></trkpt><trkpt lat="42.487871338511695" lon="12.766062569720454"><ele>372.0</ele><time>2026-04-19T16:23:08.948Z</time></trkpt><trkpt lat="42.48808513416396" lon="12.765925462013652"><ele>372.5</ele><time>2026-04-19T16:23:09.948Z</time></trkpt><trkpt lat="42.48829907978561" lon="12.765787282543078"><ele>373.0</ele><time>2026-04-19T16:23:10.948Z</time></trkpt><trkpt lat="42.4885162670635" lon="12.76564593583346"><ele>373.0</ele><time>2026-04-19T16:23:11.948Z</time></trkpt><trkpt lat="42.4887343168361" lon="12.765509398418489"><ele>373.0</ele><time>2026-04-19T16:23:12.948Z</time></trkpt><trkpt lat="42.48895103035278" lon="12.765370403837307"><ele>373.5</ele><time>2026-04-19T16:23:13.948Z</time></trkpt><trkpt lat="42.489165725256015" lon="12.765233770590502"><ele>374.0</ele><time>2026-04-19T16:23:14.948Z</time></trkpt><trkpt lat="42.489374483125104" lon="12.765097919580912"><ele>374.0</ele><time>2026-04-19T16:23:15.948Z</time></trkpt><trkpt lat="42.48958137111387" lon="12.764963922001193"><ele>374.0</ele><time>2026-04-19T16:23:16.948Z</time></trkpt><trkpt lat="42.489785314615965" lon="12.764828331144798"><ele>376.6666666666667</ele><time>2026-04-19T16:23:17.948Z</time></trkpt><trkpt lat="42.48998594750378" lon="12.764693697247385"><ele>379.3333333333333</ele><time>2026-04-19T16:23:18.947Z</time></trkpt><trkpt lat="42.49018668061602" lon="12.764566427607255"><ele>382.0</ele><time>2026-04-19T16:23:19.947Z</time></trkpt><trkpt lat="42.49038773370159" lon="12.76443208626542"><ele>392.66666666666663</ele><time>2026-04-19T16:23:20.947Z</time></trkpt><trkpt lat="42.49058899105632" lon="12.764301677278183"><ele>403.3333333333333</ele><time>2026-04-19T16:23:21.947Z</time></trkpt><trkpt lat="42.49079218722339" lon="12.764172358767274"><ele>414.0</ele><time>2026-04-19T16:23:22.947Z</time></trkpt><trkpt lat="42.49099476158626" lon="12.764047887637076"><ele>414.0</ele><time>2026-04-19T16:23:23.947Z</time></trkpt><trkpt lat="42.491195238353356" lon="12.763925590527203"><ele>414.0</ele><time>2026-04-19T16:23:24.947Z</time></trkpt><trkpt lat="42.49139182842424" lon="12.763802723856442"><ele>414.0</ele><time>2026-04-19T16:23:25.947Z</time></trkpt><trkpt lat="42.49158683069044" lon="12.763679771948022"><ele>430.0</ele><time>2026-04-19T16:23:26.947Z</time></trkpt><trkpt lat="42.49180738757126" lon="12.763539872492643"><ele>446.0</ele><time>2026-04-19T16:23:28.092Z</time></trkpt><trkpt lat="42.49199856907664" lon="12.763418481944226"><ele>372.0</ele><time>2026-04-19T16:23:29.092Z</time></trkpt><trkpt lat="42.50400136250911" lon="12.746748243427694"><ele>372.0</ele><time>2026-04-19T16:24:44.945Z</time></trkpt><trkpt lat="42.50419818610749" lon="12.74669078273593"><ele>372.0</ele><time>2026-04-19T16:24:45.945Z</time></trkpt><trkpt lat="42.50441674019332" lon="12.746667747131818"><ele>372.0</ele><time>2026-04-19T16:24:46.945Z</time></trkpt><trkpt lat="42.504638199138064" lon="12.74662605697429"><ele>374.0</ele><time>2026-04-19T16:24:47.945Z</time></trkpt><trkpt lat="42.50485499863457" lon="12.746600118027937"><ele>376.0</ele><time>2026-04-19T16:24:48.945Z</time></trkpt><trkpt lat="42.50507417040527" lon="12.746587032987359"><ele>378.0</ele><time>2026-04-19T16:24:49.945Z</time></trkpt><trkpt lat="42.505289981779775" lon="12.746577645591092"><ele>379.3333333333333</ele><time>2026-04-19T16:24:50.948Z</time></trkpt><trkpt lat="42.5055049667415" lon="12.746586770513051"><ele>380.66666666666663</ele><time>2026-04-19T16:24:51.949Z</time></trkpt><trkpt lat="42.50570369741476" lon="12.74663575066711"><ele>382.0</ele><time>2026-04-19T16:24:52.949Z</time></trkpt><trkpt lat="42.505872682318056" lon="12.746658298579566"><ele>382.0</ele><time>2026-04-19T16:24:53.948Z</time></trkpt><trkpt lat="42.50605986527928" lon="12.746690926282279"><ele>382.0</ele><time>2026-04-19T16:24:54.948Z</time></trkpt><trkpt lat="42.506248836642534" lon="12.746725090794643"><ele>382.0</ele><time>2026-04-19T16:24:55.948Z</time></trkpt><trkpt lat="42.50650438013081" lon="12.746770768389563"><ele>378.5</ele><time>2026-04-19T16:24:56.948Z</time></trkpt><trkpt lat="42.50679278706364" lon="12.746829295576866"><ele>375.0</ele><time>2026-04-19T16:24:57.948Z</time></trkpt><trkpt lat="42.50706020382187" lon="12.746884667585908"><ele>373.0</ele><time>2026-04-19T16:24:58.948Z</time></trkpt><trkpt lat="42.50730785762787" lon="12.746934348344233"><ele>371.0</ele><time>2026-04-19T16:24:59.948Z</time></trkpt><trkpt lat="42.50754967578579" lon="12.746973148624493"><ele>371.0</ele><time>2026-04-19T16:25:00.948Z</time></trkpt><trkpt lat="42.50778166983784" lon="12.747005022995397"><ele>371.0</ele><time>2026-04-19T16:25:01.948Z</time></trkpt><trkpt lat="42.50801489470148" lon="12.747034106887954"><ele>371.0</ele><time>2026-04-19T16:25:02.948Z</time></trkpt><trkpt lat="42.508249530150366" lon="12.74704348243852"><ele>371.0</ele><time>2026-04-19T16:25:03.948Z</time></trkpt><trkpt lat="42.50848513612403" lon="12.747031292589858"><ele>371.0</ele><time>2026-04-19T16:25:04.948Z</time></trkpt><trkpt lat="42.508721477483064" lon="12.747030520125456"><ele>371.0</ele><time>2026-04-19T16:25:05.948Z</time></trkpt><trkpt lat="42.50896048042931" lon="12.74702096507021"><ele>370.5</ele><time>2026-04-19T16:25:06.948Z</time></trkpt><trkpt lat="42.50921183329838" lon="12.74701210911791"><ele>370.0</ele><time>2026-04-19T16:25:07.948Z</time></trkpt><trkpt lat="42.50946070581484" lon="12.746985705523675"><ele>372.0</ele><time>2026-04-19T16:25:08.948Z</time></trkpt><trkpt lat="42.50970921881827" lon="12.746912592930094"><ele>374.0</ele><time>2026-04-19T16:25:09.948Z</time></trkpt><trkpt lat="42.5099638542324" lon="12.746858761582969"><ele>374.0</ele><time>2026-04-19T16:25:10.947Z</time></trkpt><trkpt lat="42.51021407549563" lon="12.746801516178103"><ele>374.0</ele><time>2026-04-19T16:25:11.947Z</time></trkpt><trkpt lat="42.510464467830445" lon="12.746732815035088"><ele>377.0</ele><time>2026-04-19T16:25:12.947Z</time></trkpt><trkpt lat="42.510707683382286" lon="12.746646730196323"><ele>380.0</ele><time>2026-04-19T16:25:13.947Z</time></trkpt><trkpt lat="42.510957868359746" lon="12.746570878865652"><ele>380.0</ele><time>2026-04-19T16:25:14.947Z</time></trkpt><trkpt lat="42.51120388352875" lon="12.746447937910006"><ele>380.0</ele><time>2026-04-19T16:25:15.947Z</time></trkpt><trkpt lat="42.51144802911343" lon="12.746333168602026"><ele>383.5</ele><time>2026-04-19T16:25:16.947Z</time></trkpt><trkpt lat="42.511687573879925" lon="12.746199028186524"><ele>387.0</ele><time>2026-04-19T16:25:17.947Z</time></trkpt><trkpt lat="42.51192416953228" lon="12.746067839528678"><ele>382.5</ele><time>2026-04-19T16:25:18.947Z</time></trkpt><trkpt lat="42.512165466749906" lon="12.745943555458055"><ele>378.0</ele><time>2026-04-19T16:25:19.947Z</time></trkpt><trkpt lat="42.51239668746206" lon="12.74581114367379"><ele>378.0</ele><time>2026-04-19T16:25:20.947Z</time></trkpt><trkpt lat="42.51263657117272" lon="12.745671252640893"><ele>378.0</ele><time>2026-04-19T16:25:21.947Z</time></trkpt><trkpt lat="42.512874979960884" lon="12.745532846394376"><ele>384.5</ele><time>2026-04-19T16:25:22.947Z</time></trkpt><trkpt lat="42.5131014300283" lon="12.745401382710186"><ele>391.0</ele><time>2026-04-19T16:25:23.947Z</time></trkpt><trkpt lat="42.51333282680456" lon="12.745268745246713"><ele>383.0</ele><time>2026-04-19T16:25:24.947Z</time></trkpt><trkpt lat="42.51356797508971" lon="12.745136195616176"><ele>375.0</ele><time>2026-04-19T16:25:25.947Z</time></trkpt><trkpt lat="42.51380241783482" lon="12.74500404544896"><ele>375.0</ele><time>2026-04-19T16:25:26.947Z</time></trkpt><trkpt lat="42.51403734638462" lon="12.744871619373162"><ele>375.0</ele><time>2026-04-19T16:25:27.947Z</time></trkpt><trkpt lat="42.514253762100154" lon="12.744746458185915"><ele>375.0</ele><time>2026-04-19T16:25:28.947Z</time></trkpt><trkpt lat="42.514477126030656" lon="12.744616872355326"><ele>375.0</ele><time>2026-04-19T16:25:29.947Z</time></trkpt><trkpt lat="42.51470176630813" lon="12.744487117374161"><ele>373.5</ele><time>2026-04-19T16:25:30.947Z</time></trkpt><trkpt lat="42.51492542671701" lon="12.744357928287936"><ele>372.0</ele><time>2026-04-19T16:25:31.947Z</time></trkpt><trkpt lat="42.51517112627593" lon="12.744216009412366"><ele>376.5</ele><time>2026-04-19T16:25:32.947Z</time></trkpt><trkpt lat="42.51541888482077" lon="12.74407102348298"><ele>381.0</ele><time>2026-04-19T16:25:33.947Z</time></trkpt><trkpt lat="42.515684553704595" lon="12.74390289168449"><ele>381.0</ele><time>2026-04-19T16:25:34.947Z</time></trkpt><trkpt lat="42.515952094670695" lon="12.74370970601736"><ele>381.0</ele><time>2026-04-19T16:25:35.947Z</time></trkpt><trkpt lat="42.51621606804958" lon="12.743520823386705"><ele>376.5</ele><time>2026-04-19T16:25:36.947Z</time></trkpt><trkpt lat="42.516472828774084" lon="12.743322740517955"><ele>372.0</ele><time>2026-04-19T16:25:37.947Z</time></trkpt><trkpt lat="42.51672197005258" lon="12.743103054372744"><ele>372.0</ele><time>2026-04-19T16:25:38.947Z</time></trkpt><trkpt lat="42.51696336293495" lon="12.74287121544916"><ele>372.0</ele><time>2026-04-19T16:25:39.947Z</time></trkpt><trkpt lat="42.51719133312308" lon="12.742626333833083"><ele>376.5</ele><time>2026-04-19T16:25:40.947Z</time></trkpt><trkpt lat="42.517411946052654" lon="12.742374697373677"><ele>381.0</ele><time>2026-04-19T16:25:41.947Z</time></trkpt><trkpt lat="42.517617785746516" lon="12.74211199530192"><ele>383.5</ele><time>2026-04-19T16:25:42.947Z</time></trkpt><trkpt lat="42.517815599752275" lon="12.741848738617092"><ele>386.0</ele><time>2026-04-19T16:25:43.946Z</time></trkpt><trkpt lat="42.51800591755777" lon="12.74159339198367"><ele>386.0</ele><time>2026-04-19T16:25:44.946Z</time></trkpt><trkpt lat="42.518195085201725" lon="12.741354143347696"><ele>386.0</ele><time>2026-04-19T16:25:45.946Z</time></trkpt><trkpt lat="42.518393844432566" lon="12.74111183581463"><ele>383.0</ele><time>2026-04-19T16:25:46.946Z</time></trkpt><trkpt lat="42.51859109475482" lon="12.740873643523111"><ele>380.0</ele><time>2026-04-19T16:25:47.946Z</time></trkpt><trkpt lat="42.51879543621212" lon="12.740651845045226"><ele>380.0</ele><time>2026-04-19T16:25:48.946Z</time></trkpt><trkpt lat="42.51900375624793" lon="12.740442467028691"><ele>380.0</ele><time>2026-04-19T16:25:49.946Z</time></trkpt><trkpt lat="42.51922294469265" lon="12.74023917415362"><ele>382.0</ele><time>2026-04-19T16:25:50.946Z</time></trkpt><trkpt lat="42.51945472098551" lon="12.740057708854716"><ele>384.0</ele><time>2026-04-19T16:25:51.946Z</time></trkpt><trkpt lat="42.51968506449761" lon="12.739871779493757"><ele>384.0</ele><time>2026-04-19T16:25:52.946Z</time></trkpt><trkpt lat="42.51991271543607" lon="12.739702155484832"><ele>384.0</ele><time>2026-04-19T16:25:53.946Z</time></trkpt><trkpt lat="42.52014016358619" lon="12.739558233874734"><ele>384.0</ele><time>2026-04-19T16:25:54.946Z</time></trkpt><trkpt lat="42.52036474244428" lon="12.739421305822418"><ele>384.0</ele><time>2026-04-19T16:25:55.946Z</time></trkpt><trkpt lat="42.52057768320467" lon="12.739266181249247"><ele>378.5</ele><time>2026-04-19T16:25:56.946Z</time></trkpt><trkpt lat="42.5208052180526" lon="12.739156007858293"><ele>373.0</ele><time>2026-04-19T16:25:57.946Z</time></trkpt><trkpt lat="42.52102848139605" lon="12.739032998513855"><ele>372.5</ele><time>2026-04-19T16:25:58.946Z</time></trkpt><trkpt lat="42.52124931366355" lon="12.738905276963843"><ele>372.0</ele><time>2026-04-19T16:25:59.946Z</time></trkpt><trkpt lat="42.521468363036476" lon="12.73876597097559"><ele>372.0</ele><time>2026-04-19T16:26:00.946Z</time></trkpt><trkpt lat="42.52168857866528" lon="12.738614849014441"><ele>372.0</ele><time>2026-04-19T16:26:01.946Z</time></trkpt><trkpt lat="42.5219014860565" lon="12.73844684366414"><ele>371.5</ele><time>2026-04-19T16:26:02.946Z</time></trkpt><trkpt lat="42.52212050051367" lon="12.738272525152556"><ele>371.0</ele><time>2026-04-19T16:26:03.946Z</time></trkpt><trkpt lat="42.5223326535025" lon="12.738087365051296"><ele>371.0</ele><time>2026-04-19T16:26:04.946Z</time></trkpt><trkpt lat="42.522541720011496" lon="12.737885620013861"><ele>371.0</ele><time>2026-04-19T16:26:05.946Z</time></trkpt><trkpt lat="42.5227441272307" lon="12.737675724228074"><ele>370.0</ele><time>2026-04-19T16:26:06.946Z</time></trkpt><trkpt lat="42.52294420773711" lon="12.737445139101505"><ele>369.0</ele><time>2026-04-19T16:26:07.946Z</time></trkpt><trkpt lat="42.523140610340484" lon="12.737215077530688"><ele>369.0</ele><time>2026-04-19T16:26:08.946Z</time></trkpt><trkpt lat="42.52332524498583" lon="12.736960310533934"><ele>369.0</ele><time>2026-04-19T16:26:09.946Z</time></trkpt><trkpt lat="42.52350269385107" lon="12.736693771888621"><ele>369.0</ele><time>2026-04-19T16:26:10.946Z</time></trkpt><trkpt lat="42.52367400039144" lon="12.736411762554328"><ele>369.0</ele><time>2026-04-19T16:26:11.946Z</time></trkpt><trkpt lat="42.52383748449171" lon="12.73612974386245"><ele>369.5</ele><time>2026-04-19T16:26:12.946Z</time></trkpt><trkpt lat="42.52399437967329" lon="12.735838975002293"><ele>370.0</ele><time>2026-04-19T16:26:13.946Z</time></trkpt><trkpt lat="42.524141729279044" lon="12.73555210826959"><ele>370.0</ele><time>2026-04-19T16:26:14.946Z</time></trkpt><trkpt lat="42.52428871510213" lon="12.735266057539661"><ele>370.0</ele><time>2026-04-19T16:26:15.946Z</time></trkpt><trkpt lat="42.52443253329369" lon="12.734988403835407"><ele>371.0</ele><time>2026-04-19T16:26:16.946Z</time></trkpt><trkpt lat="42.52457376356991" lon="12.734717063488683"><ele>372.0</ele><time>2026-04-19T16:26:17.945Z</time></trkpt><trkpt lat="42.524720632351716" lon="12.734435220531674"><ele>373.5</ele><time>2026-04-19T16:26:18.945Z</time></trkpt><trkpt lat="42.524868734228704" lon="12.734155759636765"><ele>375.0</ele><time>2026-04-19T16:26:19.945Z</time></trkpt><trkpt lat="42.52502106459767" lon="12.73387194401808"><ele>375.0</ele><time>2026-04-19T16:26:20.945Z</time></trkpt><trkpt lat="42.52517415900542" lon="12.733588421521613"><ele>375.0</ele><time>2026-04-19T16:26:21.945Z</time></trkpt><trkpt lat="42.52533398280414" lon="12.733310193039843"><ele>375.5</ele><time>2026-04-19T16:26:22.945Z</time></trkpt><trkpt lat="42.525494838647866" lon="12.73304043161739"><ele>376.0</ele><time>2026-04-19T16:26:23.945Z</time></trkpt><trkpt lat="42.52565656597837" lon="12.732779237666385"><ele>383.0</ele><time>2026-04-19T16:26:24.942Z</time></trkpt><trkpt lat="42.52582096133938" lon="12.732526387193476"><ele>390.0</ele><time>2026-04-19T16:26:25.939Z</time></trkpt><trkpt lat="42.52597706902178" lon="12.732293080904034"><ele>390.0</ele><time>2026-04-19T16:26:26.937Z</time></trkpt><trkpt lat="42.52613841785686" lon="12.732069107755908"><ele>390.0</ele><time>2026-04-19T16:26:27.934Z</time></trkpt><trkpt lat="42.52629904703939" lon="12.731858367901125"><ele>386.6666666666667</ele><time>2026-04-19T16:26:28.932Z</time></trkpt><trkpt lat="42.526462407192675" lon="12.731663430753125"><ele>383.33333333333337</ele><time>2026-04-19T16:26:29.93Z</time></trkpt><trkpt lat="42.52662479362636" lon="12.731479554557522"><ele>380.0</ele><time>2026-04-19T16:26:30.928Z</time></trkpt><trkpt lat="42.526792840257606" lon="12.731309926112983"><ele>380.0</ele><time>2026-04-19T16:26:31.926Z</time></trkpt><trkpt lat="42.52696592862331" lon="12.731145087598815"><ele>380.0</ele><time>2026-04-19T16:26:32.924Z</time></trkpt><trkpt lat="42.527143603057446" lon="12.730998954809683"><ele>380.0</ele><time>2026-04-19T16:26:33.922Z</time></trkpt><trkpt lat="42.52731749059843" lon="12.730854915931495"><ele>378.6666666666667</ele><time>2026-04-19T16:26:34.921Z</time></trkpt><trkpt lat="42.52749992700696" lon="12.730712841749227"><ele>377.3333333333333</ele><time>2026-04-19T16:26:35.919Z</time></trkpt><trkpt lat="42.527684171363376" lon="12.730574707135023"><ele>376.0</ele><time>2026-04-19T16:26:36.918Z</time></trkpt><trkpt lat="42.5278786936367" lon="12.730452632265637"><ele>373.5</ele><time>2026-04-19T16:26:37.917Z</time></trkpt><trkpt lat="42.52809576636927" lon="12.730332754393205"><ele>371.0</ele><time>2026-04-19T16:26:38.915Z</time></trkpt><trkpt lat="42.528305109257666" lon="12.730212181008673"><ele>374.33333333333337</ele><time>2026-04-19T16:26:39.914Z</time></trkpt><trkpt lat="42.52851034859092" lon="12.73009094972245"><ele>377.6666666666667</ele><time>2026-04-19T16:26:40.913Z</time></trkpt><trkpt lat="42.52871702696797" lon="12.729972158397603"><ele>381.0</ele><time>2026-04-19T16:26:41.912Z</time></trkpt><trkpt lat="42.52892333046795" lon="12.72985958085038"><ele>383.0</ele><time>2026-04-19T16:26:42.911Z</time></trkpt><trkpt lat="42.529132176096184" lon="12.729740060117887"><ele>385.0</ele><time>2026-04-19T16:26:43.91Z</time></trkpt><trkpt lat="42.52935729331592" lon="12.729607808531439"><ele>189.0</ele><time>2026-04-19T16:26:44.909Z</time></trkpt><trkpt lat="42.553433361106855" lon="12.700119108952014"><ele>189.0</ele><time>2026-04-19T16:29:06.891Z</time></trkpt><trkpt lat="42.55361638645544" lon="12.699817342518399"><ele>189.0</ele><time>2026-04-19T16:29:07.891Z</time></trkpt><trkpt lat="42.55378042320396" lon="12.699515536343393"><ele>213.5</ele><time>2026-04-19T16:29:08.891Z</time></trkpt><trkpt lat="42.5539632618918" lon="12.69920582816709"><ele>238.0</ele><time>2026-04-19T16:29:09.891Z</time></trkpt><trkpt lat="42.554140063333634" lon="12.698895900050145"><ele>238.0</ele><time>2026-04-19T16:29:10.896Z</time></trkpt><trkpt lat="42.55431774186316" lon="12.698596949184923"><ele>238.0</ele><time>2026-04-19T16:29:11.896Z</time></trkpt><trkpt lat="42.554501473206024" lon="12.69830153887806"><ele>243.5</ele><time>2026-04-19T16:29:12.896Z</time></trkpt><trkpt lat="42.554674802607956" lon="12.698002689254801"><ele>249.0</ele><time>2026-04-19T16:29:13.896Z</time></trkpt><trkpt lat="42.554846605909574" lon="12.697711142929355"><ele>249.0</ele><time>2026-04-19T16:29:14.896Z</time></trkpt><trkpt lat="42.555012284436856" lon="12.69741920449058"><ele>249.0</ele><time>2026-04-19T16:29:15.896Z</time></trkpt><trkpt lat="42.55517259016979" lon="12.697124224554871"><ele>252.0</ele><time>2026-04-19T16:29:16.896Z</time></trkpt><trkpt lat="42.55529957513061" lon="12.696793094429683"><ele>255.0</ele><time>2026-04-19T16:29:17.895Z</time></trkpt><trkpt lat="42.555414206319234" lon="12.696433311610104"><ele>255.0</ele><time>2026-04-19T16:29:18.895Z</time></trkpt><trkpt lat="42.55552750734622" lon="12.696094333472493"><ele>255.0</ele><time>2026-04-19T16:29:19.896Z</time></trkpt><trkpt lat="42.555637070188176" lon="12.695758461267518"><ele>249.0</ele><time>2026-04-19T16:29:20.896Z</time></trkpt><trkpt lat="42.555738310159335" lon="12.695424076216014"><ele>243.0</ele><time>2026-04-19T16:29:21.896Z</time></trkpt><trkpt lat="42.555833724446536" lon="12.695082281492242"><ele>239.5</ele><time>2026-04-19T16:29:22.896Z</time></trkpt><trkpt lat="42.5559267800793" lon="12.694737763643392"><ele>236.0</ele><time>2026-04-19T16:29:23.895Z</time></trkpt><trkpt lat="42.55601587048566" lon="12.694397659326706"><ele>234.5</ele><time>2026-04-19T16:29:24.895Z</time></trkpt><trkpt lat="42.556113092355965" lon="12.694059969732107"><ele>233.0</ele><time>2026-04-19T16:29:25.895Z</time></trkpt><trkpt lat="42.55621413331084" lon="12.693732972456969"><ele>236.5</ele><time>2026-04-19T16:29:26.895Z</time></trkpt><trkpt lat="42.55632244583306" lon="12.693412458415759"><ele>240.0</ele><time>2026-04-19T16:29:27.895Z</time></trkpt><trkpt lat="42.55644734617252" lon="12.693091266954198"><ele>240.0</ele><time>2026-04-19T16:29:28.895Z</time></trkpt><trkpt lat="42.556583126493514" lon="12.69277698256287"><ele>240.0</ele><time>2026-04-19T16:29:29.895Z</time></trkpt><trkpt lat="42.55672861884385" lon="12.692470815088763"><ele>235.5</ele><time>2026-04-19T16:29:30.895Z</time></trkpt><trkpt lat="42.55688445059626" lon="12.692176896035413"><ele>231.0</ele><time>2026-04-19T16:29:31.895Z</time></trkpt><trkpt lat="42.55705084490625" lon="12.691904538213118"><ele>230.0</ele><time>2026-04-19T16:29:32.895Z</time></trkpt><trkpt lat="42.55722389204226" lon="12.69166012453791"><ele>229.0</ele><time>2026-04-19T16:29:33.895Z</time></trkpt><trkpt lat="42.55740086921646" lon="12.691429554355985"><ele>229.0</ele><time>2026-04-19T16:29:34.895Z</time></trkpt><trkpt lat="42.557579043577896" lon="12.691219926612273"><ele>229.0</ele><time>2026-04-19T16:29:35.895Z</time></trkpt><trkpt lat="42.5577659311149" lon="12.691024859173837"><ele>227.0</ele><time>2026-04-19T16:29:36.895Z</time></trkpt><trkpt lat="42.55795629496853" lon="12.690838398392362"><ele>225.0</ele><time>2026-04-19T16:29:37.895Z</time></trkpt><trkpt lat="42.55815000538927" lon="12.690663081054517"><ele>225.0</ele><time>2026-04-19T16:29:38.895Z</time></trkpt><trkpt lat="42.55834326396358" lon="12.690497252805134"><ele>225.0</ele><time>2026-04-19T16:29:39.895Z</time></trkpt><trkpt lat="42.55854015419837" lon="12.690371065558908"><ele>225.0</ele><time>2026-04-19T16:29:40.895Z</time></trkpt><trkpt lat="42.55871889500717" lon="12.690217907479934"><ele>224.0</ele><time>2026-04-19T16:29:41.895Z</time></trkpt><trkpt lat="42.55890652105605" lon="12.690097265170161"><ele>223.0</ele><time>2026-04-19T16:29:42.895Z</time></trkpt><trkpt lat="42.55909209275394" lon="12.689983277471242"><ele>222.0</ele><time>2026-04-19T16:29:43.895Z</time></trkpt><trkpt lat="42.559274917410775" lon="12.689872895867472"><ele>222.0</ele><time>2026-04-19T16:29:44.895Z</time></trkpt><trkpt lat="42.55945658804444" lon="12.68976587286768"><ele>222.0</ele><time>2026-04-19T16:29:45.895Z</time></trkpt><trkpt lat="42.559645386519186" lon="12.689664097256351"><ele>222.0</ele><time>2026-04-19T16:29:46.894Z</time></trkpt><trkpt lat="42.5598357826766" lon="12.689566192825822"><ele>222.0</ele><time>2026-04-19T16:29:47.894Z</time></trkpt><trkpt lat="42.56002702137265" lon="12.689475497129877"><ele>222.0</ele><time>2026-04-19T16:29:48.894Z</time></trkpt><trkpt lat="42.56022540270084" lon="12.689387707010992"><ele>222.0</ele><time>2026-04-19T16:29:49.894Z</time></trkpt><trkpt lat="42.56042515448944" lon="12.689305978699378"><ele>221.0</ele><time>2026-04-19T16:29:50.894Z</time></trkpt><trkpt lat="42.56062122691442" lon="12.689217968693677"><ele>220.0</ele><time>2026-04-19T16:29:51.894Z</time></trkpt><trkpt lat="42.560813773258594" lon="12.689135371598422"><ele>219.0</ele><time>2026-04-19T16:29:52.894Z</time></trkpt><trkpt lat="42.561002450404125" lon="12.6890537451435"><ele>219.0</ele><time>2026-04-19T16:29:53.894Z</time></trkpt><trkpt lat="42.561189050186016" lon="12.688983010937546"><ele>219.0</ele><time>2026-04-19T16:29:54.894Z</time></trkpt><trkpt lat="42.56137956947447" lon="12.688924713357578"><ele>219.0</ele><time>2026-04-19T16:29:55.894Z</time></trkpt><trkpt lat="42.56157672851812" lon="12.68887228388824"><ele>219.0</ele><time>2026-04-19T16:29:56.894Z</time></trkpt><trkpt lat="42.561780046961566" lon="12.688821575285871"><ele>219.0</ele><time>2026-04-19T16:29:57.894Z</time></trkpt><trkpt lat="42.56198850648824" lon="12.688775492924576"><ele>219.0</ele><time>2026-04-19T16:29:58.894Z</time></trkpt><trkpt lat="42.562201494630344" lon="12.688731300745443"><ele>219.0</ele><time>2026-04-19T16:29:59.894Z</time></trkpt><trkpt lat="42.5624181977866" lon="12.6886864065626"><ele>219.0</ele><time>2026-04-19T16:30:00.894Z</time></trkpt><trkpt lat="42.562638452479916" lon="12.688644542357107"><ele>219.0</ele><time>2026-04-19T16:30:01.894Z</time></trkpt><trkpt lat="42.565469446769555" lon="12.688752766964523"><ele>277.0</ele><time>2026-04-19T16:30:06.374Z</time></trkpt><trkpt lat="42.56627134108298" lon="12.68891059772048"><ele>278.0</ele><time>2026-04-19T16:30:07.374Z</time></trkpt><trkpt lat="42.56707744014011" lon="12.689024817014198"><ele>275.0</ele><time>2026-04-19T16:30:08.375Z</time></trkpt><trkpt lat="42.56788648842428" lon="12.68904196079883"><ele>293.0</ele><time>2026-04-19T16:30:09.374Z</time></trkpt><trkpt lat="42.56869434959974" lon="12.6889626521611"><ele>293.0</ele><time>2026-04-19T16:30:10.374Z</time></trkpt><trkpt lat="42.5692644" lon="12.6888509"><ele>170.0</ele><time>2026-04-19T16:30:11.374Z</time></trkpt><trkpt lat="42.57451254993174" lon="12.684667564526208"><ele>168.33333333333331</ele><time>2026-04-19T16:30:58.891Z</time></trkpt><trkpt lat="42.57465767987471" lon="12.684553064514914"><ele>166.66666666666666</ele><time>2026-04-19T16:30:59.891Z</time></trkpt><trkpt lat="42.57478472461106" lon="12.684353184326138"><ele>165.0</ele><time>2026-04-19T16:31:00.891Z</time></trkpt><trkpt lat="42.574915579757246" lon="12.684149413398691"><ele>165.0</ele><time>2026-04-19T16:31:01.891Z</time></trkpt><trkpt lat="42.57504167070648" lon="12.683953071620891"><ele>165.0</ele><time>2026-04-19T16:31:02.891Z</time></trkpt><trkpt lat="42.575172385927054" lon="12.683769338230585"><ele>165.0</ele><time>2026-04-19T16:31:03.891Z</time></trkpt><trkpt lat="42.57530123391136" lon="12.68358972026467"><ele>164.33333333333334</ele><time>2026-04-19T16:31:04.891Z</time></trkpt><trkpt lat="42.57542961489883" lon="12.683399808958729"><ele>163.66666666666669</ele><time>2026-04-19T16:31:05.891Z</time></trkpt><trkpt lat="42.57555440825391" lon="12.683206379573743"><ele>163.0</ele><time>2026-04-19T16:31:06.891Z</time></trkpt><trkpt lat="42.575683080761046" lon="12.683019334568916"><ele>163.0</ele><time>2026-04-19T16:31:07.891Z</time></trkpt><trkpt lat="42.57580843218337" lon="12.682836641628858"><ele>163.0</ele><time>2026-04-19T16:31:08.891Z</time></trkpt><trkpt lat="42.57593232441241" lon="12.682654449978802"><ele>163.0</ele><time>2026-04-19T16:31:09.891Z</time></trkpt><trkpt lat="42.57605036925908" lon="12.682472634312616"><ele>162.66666666666669</ele><time>2026-04-19T16:31:10.891Z</time></trkpt><trkpt lat="42.57617119813276" lon="12.682302346873486"><ele>162.33333333333334</ele><time>2026-04-19T16:31:11.891Z</time></trkpt><trkpt lat="42.57629316680555" lon="12.68213681550506"><ele>162.0</ele><time>2026-04-19T16:31:12.891Z</time></trkpt><trkpt lat="42.57641186524056" lon="12.681963021536522"><ele>162.33333333333334</ele><time>2026-04-19T16:31:13.891Z</time></trkpt><trkpt lat="42.57653540689579" lon="12.681795650608459"><ele>162.66666666666669</ele><time>2026-04-19T16:31:14.891Z</time></trkpt><trkpt lat="42.57666211611578" lon="12.681641492945849"><ele>163.0</ele><time>2026-04-19T16:31:15.891Z</time></trkpt><trkpt lat="42.57680050269965" lon="12.681496430421243"><ele>163.0</ele><time>2026-04-19T16:31:16.893Z</time></trkpt><trkpt lat="42.576945611380665" lon="12.681368896043104"><ele>163.0</ele><time>2026-04-19T16:31:17.893Z</time></trkpt><trkpt lat="42.57709728514555" lon="12.681240138245636"><ele>163.0</ele><time>2026-04-19T16:31:18.893Z</time></trkpt><trkpt lat="42.5772588507679" lon="12.681126896635643"><ele>163.0</ele><time>2026-04-19T16:31:19.893Z</time></trkpt><trkpt lat="42.57742924096593" lon="12.681022619425054"><ele>163.0</ele><time>2026-04-19T16:31:20.893Z</time></trkpt><trkpt lat="42.57761232506188" lon="12.68092759961704"><ele>163.0</ele><time>2026-04-19T16:31:21.893Z</time></trkpt><trkpt lat="42.57780290993807" lon="12.680850586547201"><ele>163.33333333333334</ele><time>2026-04-19T16:31:22.893Z</time></trkpt><trkpt lat="42.57799979873328" lon="12.680784519045327"><ele>163.66666666666666</ele><time>2026-04-19T16:31:23.892Z</time></trkpt><trkpt lat="42.578201432215316" lon="12.680735667931055"><ele>164.0</ele><time>2026-04-19T16:31:24.892Z</time></trkpt><trkpt lat="42.578408526823004" lon="12.68070269135051"><ele>164.0</ele><time>2026-04-19T16:31:25.893Z</time></trkpt><trkpt lat="42.57860514876872" lon="12.680686740800999"><ele>164.0</ele><time>2026-04-19T16:31:26.893Z</time></trkpt><trkpt lat="42.57880442793666" lon="12.68068834716929"><ele>164.0</ele><time>2026-04-19T16:31:27.893Z</time></trkpt><trkpt lat="42.57900525683157" lon="12.680707518694756"><ele>164.66666666666666</ele><time>2026-04-19T16:31:28.892Z</time></trkpt><trkpt lat="42.57919355135645" lon="12.680745587618839"><ele>165.33333333333334</ele><time>2026-04-19T16:31:29.893Z</time></trkpt><trkpt lat="42.579379853952" lon="12.680800275867345"><ele>166.0</ele><time>2026-04-19T16:31:30.893Z</time></trkpt><trkpt lat="42.57956325338526" lon="12.680863755667549"><ele>167.0</ele><time>2026-04-19T16:31:31.893Z</time></trkpt><trkpt lat="42.579747372766015" lon="12.68094033942829"><ele>168.0</ele><time>2026-04-19T16:31:32.892Z</time></trkpt><trkpt lat="42.579928983666974" lon="12.681033357576098"><ele>169.0</ele><time>2026-04-19T16:31:33.892Z</time></trkpt><trkpt lat="42.580112891390364" lon="12.681147621492766"><ele>169.33333333333334</ele><time>2026-04-19T16:31:34.892Z</time></trkpt><trkpt lat="42.58029927956522" lon="12.68127828542675"><ele>169.66666666666666</ele><time>2026-04-19T16:31:35.892Z</time></trkpt><trkpt lat="42.580484385694504" lon="12.681431933689733"><ele>170.0</ele><time>2026-04-19T16:31:36.892Z</time></trkpt><trkpt lat="42.5806695879107" lon="12.681604503895388"><ele>172.5</ele><time>2026-04-19T16:31:37.892Z</time></trkpt><trkpt lat="42.580857436819464" lon="12.681779099073278"><ele>175.0</ele><time>2026-04-19T16:31:38.892Z</time></trkpt><trkpt lat="42.5810484177284" lon="12.68194614692463"><ele>178.33333333333334</ele><time>2026-04-19T16:31:39.892Z</time></trkpt><trkpt lat="42.58122446620122" lon="12.68210098080821"><ele>181.66666666666666</ele><time>2026-04-19T16:31:40.892Z</time></trkpt><trkpt lat="42.58138896738008" lon="12.682232188827642"><ele>185.0</ele><time>2026-04-19T16:31:41.892Z</time></trkpt><trkpt lat="42.58155398820739" lon="12.682347483572851"><ele>185.0</ele><time>2026-04-19T16:31:42.892Z</time></trkpt><trkpt lat="42.58169832276079" lon="12.682465255682727"><ele>185.0</ele><time>2026-04-19T16:31:43.892Z</time></trkpt><trkpt lat="42.581791931782924" lon="12.682619196649975"><ele>185.0</ele><time>2026-04-19T16:31:44.892Z</time></trkpt><trkpt lat="42.58184973769598" lon="12.68279516401523"><ele>185.75</ele><time>2026-04-19T16:31:45.892Z</time></trkpt><trkpt lat="42.581879340189325" lon="12.682977913510012"><ele>186.5</ele><time>2026-04-19T16:31:46.892Z</time></trkpt><trkpt lat="42.58188105093782" lon="12.683148532054322"><ele>187.25</ele><time>2026-04-19T16:31:47.892Z</time></trkpt><trkpt lat="42.58183002818369" lon="12.683305999041178"><ele>188.0</ele><time>2026-04-19T16:31:48.892Z</time></trkpt><trkpt lat="42.58176772251378" lon="12.683427593511828"><ele>188.0</ele><time>2026-04-19T16:31:49.892Z</time></trkpt><trkpt lat="42.58168897529828" lon="12.68353168019266"><ele>188.0</ele><time>2026-04-19T16:31:50.892Z</time></trkpt><trkpt lat="42.5816029453793" lon="12.683599679134355"><ele>188.0</ele><time>2026-04-19T16:31:51.892Z</time></trkpt><trkpt lat="42.58151995108115" lon="12.683639517688729"><ele>188.0</ele><time>2026-04-19T16:31:52.892Z</time></trkpt><trkpt lat="42.581426721257756" lon="12.683668152910002"><ele>188.0</ele><time>2026-04-19T16:31:53.892Z</time></trkpt><trkpt lat="42.58132988079618" lon="12.683660065149763"><ele>186.8</ele><time>2026-04-19T16:31:54.892Z</time></trkpt><trkpt lat="42.581233728616375" lon="12.68360646222613"><ele>185.60000000000002</ele><time>2026-04-19T16:31:55.892Z</time></trkpt><trkpt lat="42.581147271044934" lon="12.683531349744994"><ele>184.39999999999998</ele><time>2026-04-19T16:31:56.891Z</time></trkpt><trkpt lat="42.58108052151696" lon="12.683420427605238"><ele>183.2</ele><time>2026-04-19T16:31:57.891Z</time></trkpt><trkpt lat="42.58102895627779" lon="12.683291085748879"><ele>182.0</ele><time>2026-04-19T16:31:58.891Z</time></trkpt><trkpt lat="42.58100583116025" lon="12.683143098182489"><ele>182.0</ele><time>2026-04-19T16:31:59.891Z</time></trkpt><trkpt lat="42.5810078588431" lon="12.682985975202664"><ele>182.0</ele><time>2026-04-19T16:32:00.891Z</time></trkpt><trkpt lat="42.581038527922324" lon="12.682831589823408"><ele>182.0</ele><time>2026-04-19T16:32:01.891Z</time></trkpt><trkpt lat="42.581089259155206" lon="12.682680815218202"><ele>182.0</ele><time>2026-04-19T16:32:02.891Z</time></trkpt><trkpt lat="42.58115548655748" lon="12.68254055811374"><ele>181.5</ele><time>2026-04-19T16:32:03.891Z</time></trkpt><trkpt lat="42.581230209001575" lon="12.68240501879818"><ele>181.0</ele><time>2026-04-19T16:32:04.891Z</time></trkpt><trkpt lat="42.58130538252571" lon="12.682258468826891"><ele>180.5</ele><time>2026-04-19T16:32:05.891Z</time></trkpt><trkpt lat="42.58139479463954" lon="12.682101667165064"><ele>180.0</ele><time>2026-04-19T16:32:06.891Z</time></trkpt><trkpt lat="42.58148074481802" lon="12.681930803298325"><ele>180.0</ele><time>2026-04-19T16:32:07.891Z</time></trkpt><trkpt lat="42.58156568245762" lon="12.681745185755775"><ele>180.0</ele><time>2026-04-19T16:32:08.891Z</time></trkpt><trkpt lat="42.58165506734758" lon="12.681550041243247"><ele>180.0</ele><time>2026-04-19T16:32:09.891Z</time></trkpt><trkpt lat="42.58176120636749" lon="12.681332994806299"><ele>180.0</ele><time>2026-04-19T16:32:10.891Z</time></trkpt><trkpt lat="42.58187711664805" lon="12.681120266330622"><ele>180.0</ele><time>2026-04-19T16:32:11.891Z</time></trkpt><trkpt lat="42.58199595824183" lon="12.680908572912227"><ele>180.0</ele><time>2026-04-19T16:32:12.891Z</time></trkpt><trkpt lat="42.58210705605582" lon="12.68069280285304"><ele>180.0</ele><time>2026-04-19T16:32:13.891Z</time></trkpt><trkpt lat="42.58221983462146" lon="12.680480902425964"><ele>180.0</ele><time>2026-04-19T16:32:14.891Z</time></trkpt><trkpt lat="42.582332517674686" lon="12.680265220576977"><ele>180.0</ele><time>2026-04-19T16:32:15.891Z</time></trkpt><trkpt lat="42.58244523531166" lon="12.680051228123109"><ele>179.66666666666666</ele><time>2026-04-19T16:32:16.891Z</time></trkpt><trkpt lat="42.58255307578111" lon="12.67982722062516"><ele>179.33333333333331</ele><time>2026-04-19T16:32:17.891Z</time></trkpt><trkpt lat="42.582652476485116" lon="12.679601523423951"><ele>179.0</ele><time>2026-04-19T16:32:18.891Z</time></trkpt><trkpt lat="42.58273717500729" lon="12.67937479948604"><ele>178.33333333333331</ele><time>2026-04-19T16:32:19.891Z</time></trkpt><trkpt lat="42.58280908210071" lon="12.679160847493913"><ele>177.66666666666666</ele><time>2026-04-19T16:32:20.89Z</time></trkpt><trkpt lat="42.58288383007003" lon="12.678941698713283"><ele>177.0</ele><time>2026-04-19T16:32:21.89Z</time></trkpt><trkpt lat="42.582958484385465" lon="12.678711415193499"><ele>175.33333333333334</ele><time>2026-04-19T16:32:22.89Z</time></trkpt><trkpt lat="42.583024751726896" lon="12.678470606185654"><ele>173.66666666666669</ele><time>2026-04-19T16:32:23.89Z</time></trkpt><trkpt lat="42.5830915838168" lon="12.678227833746044"><ele>172.0</ele><time>2026-04-19T16:32:24.89Z</time></trkpt><trkpt lat="42.58315100035097" lon="12.677998243079314"><ele>172.0</ele><time>2026-04-19T16:32:25.89Z</time></trkpt><trkpt lat="42.58321043711713" lon="12.677772694512697"><ele>172.0</ele><time>2026-04-19T16:32:26.89Z</time></trkpt><trkpt lat="42.58326845175798" lon="12.677548572711984"><ele>172.0</ele><time>2026-04-19T16:32:27.89Z</time></trkpt><trkpt lat="42.5833223785761" lon="12.677320258985725"><ele>170.66666666666669</ele><time>2026-04-19T16:32:28.89Z</time></trkpt><trkpt lat="42.5833801250597" lon="12.677090679777468"><ele>169.33333333333334</ele><time>2026-04-19T16:32:29.89Z</time></trkpt><trkpt lat="42.58344052798481" lon="12.676856784642068"><ele>168.0</ele><time>2026-04-19T16:32:30.89Z</time></trkpt><trkpt lat="42.58350036552026" lon="12.676621404512597"><ele>167.0</ele><time>2026-04-19T16:32:31.89Z</time></trkpt><trkpt lat="42.583562161708436" lon="12.676390785540994"><ele>166.0</ele><time>2026-04-19T16:32:32.89Z</time></trkpt><trkpt lat="42.58362379290696" lon="12.676151224235046"><ele>165.0</ele><time>2026-04-19T16:32:33.89Z</time></trkpt><trkpt lat="42.583684383900824" lon="12.6759031075622"><ele>164.66666666666666</ele><time>2026-04-19T16:32:34.89Z</time></trkpt><trkpt lat="42.58374674592051" lon="12.675657141833296"><ele>164.33333333333331</ele><time>2026-04-19T16:32:35.89Z</time></trkpt><trkpt lat="42.583807641610484" lon="12.675410568312305"><ele>164.0</ele><time>2026-04-19T16:32:36.89Z</time></trkpt><trkpt lat="42.583868870940194" lon="12.675164805095767"><ele>166.0</ele><time>2026-04-19T16:32:37.89Z</time></trkpt><trkpt lat="42.58392855191785" lon="12.674922366108266"><ele>168.0</ele><time>2026-04-19T16:32:38.89Z</time></trkpt><trkpt lat="42.58399255057813" lon="12.674687568852876"><ele>170.0</ele><time>2026-04-19T16:32:39.89Z</time></trkpt><trkpt lat="42.58405637325202" lon="12.674455959553276"><ele>174.66666666666666</ele><time>2026-04-19T16:32:40.89Z</time></trkpt><trkpt lat="42.584118783286094" lon="12.674222586905803"><ele>179.33333333333334</ele><time>2026-04-19T16:32:41.89Z</time></trkpt><trkpt lat="42.5841800166869" lon="12.673989414243337"><ele>184.0</ele><time>2026-04-19T16:32:42.89Z</time></trkpt><trkpt lat="42.58424182384746" lon="12.67375008467446"><ele>188.33333333333334</ele><time>2026-04-19T16:32:43.89Z</time></trkpt><trkpt lat="42.58430586167254" lon="12.6735079628068"><ele>192.66666666666669</ele><time>2026-04-19T16:32:44.889Z</time></trkpt><trkpt lat="42.58437072017126" lon="12.673263328122857"><ele>197.0</ele><time>2026-04-19T16:32:45.889Z</time></trkpt><trkpt lat="42.58443753738531" lon="12.673013304477417"><ele>196.66666666666669</ele><time>2026-04-19T16:32:46.889Z</time></trkpt><trkpt lat="42.58450060041008" lon="12.672757853914348"><ele>196.33333333333331</ele><time>2026-04-19T16:32:47.889Z</time></trkpt><trkpt lat="42.58456457070747" lon="12.67250499841021"><ele>196.0</ele><time>2026-04-19T16:32:48.889Z</time></trkpt><trkpt lat="42.58462883555237" lon="12.672249736931642"><ele>196.0</ele><time>2026-04-19T16:32:49.889Z</time></trkpt><trkpt lat="42.584705500896185" lon="12.671979332336845"><ele>196.0</ele><time>2026-04-19T16:32:50.889Z</time></trkpt><trkpt lat="42.58478665134639" lon="12.67169169818147"><ele>196.0</ele><time>2026-04-19T16:32:51.889Z</time></trkpt><trkpt lat="42.584867061471584" lon="12.671390822921548"><ele>204.0</ele><time>2026-04-19T16:32:52.889Z</time></trkpt><trkpt lat="42.58495048315012" lon="12.671089559675014"><ele>212.0</ele><time>2026-04-19T16:32:53.889Z</time></trkpt><trkpt lat="42.585039336114214" lon="12.670777545720332"><ele>212.0</ele><time>2026-04-19T16:32:54.889Z</time></trkpt><trkpt lat="42.585131732812485" lon="12.670460973723326"><ele>212.0</ele><time>2026-04-19T16:32:55.889Z</time></trkpt><trkpt lat="42.5852222277716" lon="12.67014429833232"><ele>212.5</ele><time>2026-04-19T16:32:56.889Z</time></trkpt><trkpt lat="42.585309865508854" lon="12.669818312426623"><ele>213.0</ele><time>2026-04-19T16:32:57.889Z</time></trkpt><trkpt lat="42.585394298882626" lon="12.669486474645442"><ele>219.0</ele><time>2026-04-19T16:32:58.889Z</time></trkpt><trkpt lat="42.58547412072129" lon="12.669146770182266"><ele>225.0</ele><time>2026-04-19T16:32:59.889Z</time></trkpt><trkpt lat="42.58557439985665" lon="12.668803251812681"><ele>226.5</ele><time>2026-04-19T16:33:00.889Z</time></trkpt><trkpt lat="42.585635656682776" lon="12.668438734611648"><ele>228.0</ele><time>2026-04-19T16:33:01.889Z</time></trkpt><trkpt lat="42.585690192783616" lon="12.668081148703623"><ele>228.0</ele><time>2026-04-19T16:33:02.889Z</time></trkpt><trkpt lat="42.58573711237959" lon="12.667723762921979"><ele>228.0</ele><time>2026-04-19T16:33:03.889Z</time></trkpt><trkpt lat="42.585781669378605" lon="12.667363627076174"><ele>228.0</ele><time>2026-04-19T16:33:04.889Z</time></trkpt><trkpt lat="42.58582048510541" lon="12.666999362178462"><ele>228.0</ele><time>2026-04-19T16:33:05.889Z</time></trkpt><trkpt lat="42.58585019623727" lon="12.666628144519064"><ele>227.5</ele><time>2026-04-19T16:33:06.889Z</time></trkpt><trkpt lat="42.58587571630765" lon="12.666253466370183"><ele>227.0</ele><time>2026-04-19T16:33:07.889Z</time></trkpt><trkpt lat="42.58589015331799" lon="12.665884959788741"><ele>228.0</ele><time>2026-04-19T16:33:08.888Z</time></trkpt><trkpt lat="42.58590329083353" lon="12.665514692691742"><ele>229.0</ele><time>2026-04-19T16:33:09.888Z</time></trkpt><trkpt lat="42.58590360741337" lon="12.665145519221408"><ele>229.5</ele><time>2026-04-19T16:33:10.888Z</time></trkpt><trkpt lat="42.58589949234622" lon="12.664774107866409"><ele>230.0</ele><time>2026-04-19T16:33:11.888Z</time></trkpt><trkpt lat="42.585891225245014" lon="12.664402606310441"><ele>233.0</ele><time>2026-04-19T16:33:12.888Z</time></trkpt><trkpt lat="42.585872506327675" lon="12.664032347170153"><ele>236.0</ele><time>2026-04-19T16:33:13.888Z</time></trkpt><trkpt lat="42.58584269338718" lon="12.663666478987476"><ele>239.0</ele><time>2026-04-19T16:33:14.888Z</time></trkpt><trkpt lat="42.58580760256573" lon="12.663302311488895"><ele>242.0</ele><time>2026-04-19T16:33:15.888Z</time></trkpt><trkpt lat="42.58576911300887" lon="12.662932578385275"><ele>246.0</ele><time>2026-04-19T16:33:16.888Z</time></trkpt><trkpt lat="42.58572548215625" lon="12.662562991200298"><ele>250.0</ele><time>2026-04-19T16:33:17.888Z</time></trkpt><trkpt lat="42.58567328333203" lon="12.66220294996529"><ele>252.5</ele><time>2026-04-19T16:33:18.888Z</time></trkpt><trkpt lat="42.58561840386074" lon="12.661834752887716"><ele>255.0</ele><time>2026-04-19T16:33:19.888Z</time></trkpt><trkpt lat="42.585560330858875" lon="12.661468967865272"><ele>255.5</ele><time>2026-04-19T16:33:20.888Z</time></trkpt><trkpt lat="42.58550417343451" lon="12.661097660548533"><ele>256.0</ele><time>2026-04-19T16:33:21.888Z</time></trkpt><trkpt lat="42.58544633821777" lon="12.66074298171992"><ele>256.0</ele><time>2026-04-19T16:33:22.89Z</time></trkpt><trkpt lat="42.58538752671667" lon="12.660399758643553"><ele>256.0</ele><time>2026-04-19T16:33:23.89Z</time></trkpt><trkpt lat="42.58534604056462" lon="12.660050712802196"><ele>253.5</ele><time>2026-04-19T16:33:24.89Z</time></trkpt><trkpt lat="42.58529659891093" lon="12.659704822984466"><ele>251.0</ele><time>2026-04-19T16:33:25.89Z</time></trkpt><trkpt lat="42.58523920635674" lon="12.659378267647012"><ele>250.0</ele><time>2026-04-19T16:33:26.889Z</time></trkpt><trkpt lat="42.585187069086324" lon="12.659047327634593"><ele>249.0</ele><time>2026-04-19T16:33:27.889Z</time></trkpt><trkpt lat="42.5851406882796" lon="12.658695500170236"><ele>249.0</ele><time>2026-04-19T16:33:28.89Z</time></trkpt><trkpt lat="42.58510983703024" lon="12.658343753659494"><ele>249.0</ele><time>2026-04-19T16:33:29.89Z</time></trkpt><trkpt lat="42.58509698469301" lon="12.6579779474682"><ele>247.5</ele><time>2026-04-19T16:33:30.89Z</time></trkpt><trkpt lat="42.58503495999277" lon="12.65763368380164"><ele>246.0</ele><time>2026-04-19T16:33:31.89Z</time></trkpt><trkpt lat="42.5849911288544" lon="12.657246199904334"><ele>245.0</ele><time>2026-04-19T16:33:32.889Z</time></trkpt><trkpt lat="42.58495366150392" lon="12.656858673939816"><ele>244.0</ele><time>2026-04-19T16:33:33.889Z</time></trkpt><trkpt lat="42.584922395805165" lon="12.656470960910841"><ele>242.5</ele><time>2026-04-19T16:33:34.889Z</time></trkpt><trkpt lat="42.58489094511204" lon="12.65602491593596"><ele>241.0</ele><time>2026-04-19T16:33:35.889Z</time></trkpt><trkpt lat="42.58487251043512" lon="12.655575852917416"><ele>240.0</ele><time>2026-04-19T16:33:36.889Z</time></trkpt><trkpt lat="42.58483480098198" lon="12.655136876152888"><ele>239.0</ele><time>2026-04-19T16:33:37.889Z</time></trkpt><trkpt lat="42.58480482513346" lon="12.654735452191904"><ele>238.5</ele><time>2026-04-19T16:33:38.889Z</time></trkpt><trkpt lat="42.58478708733081" lon="12.654340427052546"><ele>238.0</ele><time>2026-04-19T16:33:39.889Z</time></trkpt><trkpt lat="42.58476544386904" lon="12.65395608331495"><ele>237.5</ele><time>2026-04-19T16:33:40.889Z</time></trkpt><trkpt lat="42.5847461430844" lon="12.653577238541724"><ele>237.0</ele><time>2026-04-19T16:33:41.889Z</time></trkpt><trkpt lat="42.58472681460245" lon="12.653199663416453"><ele>237.0</ele><time>2026-04-19T16:33:42.889Z</time></trkpt><trkpt lat="42.58470750077476" lon="12.65282577977564"><ele>237.0</ele><time>2026-04-19T16:33:43.889Z</time></trkpt><trkpt lat="42.584690717949044" lon="12.65245767490553"><ele>237.0</ele><time>2026-04-19T16:33:44.889Z</time></trkpt><trkpt lat="42.58467080860902" lon="12.652091861648863"><ele>237.0</ele><time>2026-04-19T16:33:45.889Z</time></trkpt><trkpt lat="42.58465529756351" lon="12.651727937542946"><ele>237.5</ele><time>2026-04-19T16:33:46.889Z</time></trkpt><trkpt lat="42.58463557013853" lon="12.65136158552205"><ele>238.0</ele><time>2026-04-19T16:33:47.889Z</time></trkpt><trkpt lat="42.58461317416526" lon="12.650996353230221"><ele>236.5</ele><time>2026-04-19T16:33:48.889Z</time></trkpt><trkpt lat="42.58458992899439" lon="12.650622108655497"><ele>235.0</ele><time>2026-04-19T16:33:49.889Z</time></trkpt><trkpt lat="42.58456460037787" lon="12.650248810133947"><ele>233.5</ele><time>2026-04-19T16:33:50.889Z</time></trkpt><trkpt lat="42.58454879715647" lon="12.649886566090014"><ele>232.0</ele><time>2026-04-19T16:33:51.889Z</time></trkpt><trkpt lat="42.58453455902455" lon="12.649522542339575"><ele>231.0</ele><time>2026-04-19T16:33:52.889Z</time></trkpt><trkpt lat="42.584521469310474" lon="12.649160322056003"><ele>230.0</ele><time>2026-04-19T16:33:53.888Z</time></trkpt><trkpt lat="42.58450150742873" lon="12.648795453924924"><ele>227.0</ele><time>2026-04-19T16:33:54.888Z</time></trkpt><trkpt lat="42.58448171869109" lon="12.64842243191698"><ele>224.0</ele><time>2026-04-19T16:33:55.888Z</time></trkpt><trkpt lat="42.58445124826689" lon="12.648039184506795"><ele>222.5</ele><time>2026-04-19T16:33:56.888Z</time></trkpt><trkpt lat="42.584403845976745" lon="12.647646748190066"><ele>221.0</ele><time>2026-04-19T16:33:57.888Z</time></trkpt><trkpt lat="42.58434043234217" lon="12.647239541093061"><ele>220.5</ele><time>2026-04-19T16:33:58.888Z</time></trkpt><trkpt lat="42.58426086296632" lon="12.646820923511124"><ele>220.0</ele><time>2026-04-19T16:33:59.888Z</time></trkpt><trkpt lat="42.58415871309523" lon="12.646391999905113"><ele>219.0</ele><time>2026-04-19T16:34:00.888Z</time></trkpt><trkpt lat="42.584041326273045" lon="12.645957537930217"><ele>218.0</ele><time>2026-04-19T16:34:01.888Z</time></trkpt><trkpt lat="42.583917937884394" lon="12.645522540781544"><ele>218.0</ele><time>2026-04-19T16:34:02.888Z</time></trkpt><trkpt lat="42.584073844367296" lon="12.645400824401904"><ele>218.0</ele><time>2026-04-19T16:34:03.888Z</time></trkpt><trkpt lat="42.58398583941841" lon="12.645020717416386"><ele>216.5</ele><time>2026-04-19T16:34:04.888Z</time></trkpt><trkpt lat="42.58389831048267" lon="12.644637573060962"><ele>215.0</ele><time>2026-04-19T16:34:05.888Z</time></trkpt><trkpt lat="42.58379922230243" lon="12.644256374352592"><ele>214.0</ele><time>2026-04-19T16:34:06.888Z</time></trkpt><trkpt lat="42.58369875234429" lon="12.643880325476259"><ele>213.0</ele><time>2026-04-19T16:34:07.888Z</time></trkpt><trkpt lat="42.58358891404244" lon="12.643512144211092"><ele>212.0</ele><time>2026-04-19T16:34:08.888Z</time></trkpt><trkpt lat="42.58347474442255" lon="12.643150881682427"><ele>211.0</ele><time>2026-04-19T16:34:09.888Z</time></trkpt><trkpt lat="42.58335354681269" lon="12.642796648931142"><ele>209.0</ele><time>2026-04-19T16:34:10.888Z</time></trkpt><trkpt lat="42.58322845496291" lon="12.642447655225729"><ele>207.0</ele><time>2026-04-19T16:34:11.888Z</time></trkpt><trkpt lat="42.58309706984182" lon="12.642104215648397"><ele>208.0</ele><time>2026-04-19T16:34:12.888Z</time></trkpt><trkpt lat="42.58296161978371" lon="12.641768384838688"><ele>209.0</ele><time>2026-04-19T16:34:13.888Z</time></trkpt><trkpt lat="42.58283073706129" lon="12.641439567477354"><ele>206.5</ele><time>2026-04-19T16:34:14.888Z</time></trkpt><trkpt lat="42.58269299834774" lon="12.64112583286578"><ele>204.0</ele><time>2026-04-19T16:34:15.888Z</time></trkpt><trkpt lat="42.58255422907475" lon="12.640816073450516"><ele>204.0</ele><time>2026-04-19T16:34:16.888Z</time></trkpt><trkpt lat="42.5824128961001" lon="12.640508679117655"><ele>204.0</ele><time>2026-04-19T16:34:17.887Z</time></trkpt><trkpt lat="42.582260174958826" lon="12.640212589038876"><ele>203.0</ele><time>2026-04-19T16:34:18.887Z</time></trkpt><trkpt lat="42.582102474018114" lon="12.639921752489256"><ele>202.0</ele><time>2026-04-19T16:34:19.887Z</time></trkpt><trkpt lat="42.58194045834995" lon="12.639632645150728"><ele>199.0</ele><time>2026-04-19T16:34:20.887Z</time></trkpt><trkpt lat="42.581775179893874" lon="12.639347028134274"><ele>196.0</ele><time>2026-04-19T16:34:21.887Z</time></trkpt><trkpt lat="42.58160029962927" lon="12.63907169262152"><ele>196.0</ele><time>2026-04-19T16:34:22.887Z</time></trkpt><trkpt lat="42.581419151897805" lon="12.638785875756904"><ele>196.0</ele><time>2026-04-19T16:34:23.887Z</time></trkpt><trkpt lat="42.581228319822095" lon="12.638500246751164"><ele>194.0</ele><time>2026-04-19T16:34:24.887Z</time></trkpt><trkpt lat="42.58103765697831" lon="12.638214698310227"><ele>192.0</ele><time>2026-04-19T16:34:25.887Z</time></trkpt><trkpt lat="42.58084489468529" lon="12.63793637740335"><ele>188.5</ele><time>2026-04-19T16:34:26.887Z</time></trkpt><trkpt lat="42.58062159639543" lon="12.637653120669173"><ele>185.0</ele><time>2026-04-19T16:34:27.887Z</time></trkpt><trkpt lat="42.580427814386084" lon="12.637389999863196"><ele>184.5</ele><time>2026-04-19T16:34:28.887Z</time></trkpt><trkpt lat="42.58023357127493" lon="12.637111746881349"><ele>184.0</ele><time>2026-04-19T16:34:29.887Z</time></trkpt><trkpt lat="42.58004130296003" lon="12.636829398070548"><ele>181.5</ele><time>2026-04-19T16:34:30.887Z</time></trkpt><trkpt lat="42.57984544736159" lon="12.636554726603226"><ele>179.0</ele><time>2026-04-19T16:34:31.887Z</time></trkpt><trkpt lat="42.57964710392341" lon="12.636273525196698"><ele>176.5</ele><time>2026-04-19T16:34:32.887Z</time></trkpt><trkpt lat="42.579448771088444" lon="12.635998209045033"><ele>174.0</ele><time>2026-04-19T16:34:33.887Z</time></trkpt><trkpt lat="42.579251368778586" lon="12.635722152835182"><ele>174.0</ele><time>2026-04-19T16:34:34.887Z</time></trkpt><trkpt lat="42.579052494408955" lon="12.635439593268687"><ele>174.0</ele><time>2026-04-19T16:34:35.887Z</time></trkpt><trkpt lat="42.57885557300106" lon="12.635152302001108"><ele>170.0</ele><time>2026-04-19T16:34:36.887Z</time></trkpt><trkpt lat="42.57866228505836" lon="12.63486633320976"><ele>166.0</ele><time>2026-04-19T16:34:37.887Z</time></trkpt><trkpt lat="42.57846789957646" lon="12.634591457069698"><ele>167.0</ele><time>2026-04-19T16:34:38.887Z</time></trkpt><trkpt lat="42.578277336860985" lon="12.63432499308462"><ele>168.0</ele><time>2026-04-19T16:34:39.887Z</time></trkpt><trkpt lat="42.57808448851384" lon="12.634058554305117"><ele>168.0</ele><time>2026-04-19T16:34:40.887Z</time></trkpt><trkpt lat="42.57788451614458" lon="12.633777586639926"><ele>168.0</ele><time>2026-04-19T16:34:41.886Z</time></trkpt><trkpt lat="42.57769531343969" lon="12.633502806656157"><ele>164.0</ele><time>2026-04-19T16:34:42.886Z</time></trkpt><trkpt lat="42.57750700445549" lon="12.633228668980545"><ele>160.0</ele><time>2026-04-19T16:34:43.886Z</time></trkpt><trkpt lat="42.57731131750179" lon="12.632951444037483"><ele>158.5</ele><time>2026-04-19T16:34:44.886Z</time></trkpt><trkpt lat="42.57711979048973" lon="12.632678497611613"><ele>157.0</ele><time>2026-04-19T16:34:45.886Z</time></trkpt><trkpt lat="42.576921257484436" lon="12.632392808160475"><ele>155.5</ele><time>2026-04-19T16:34:46.886Z</time></trkpt><trkpt lat="42.57672325402189" lon="12.632109420677423"><ele>154.0</ele><time>2026-04-19T16:34:47.886Z</time></trkpt><trkpt lat="42.576523672196686" lon="12.63182489402872"><ele>153.5</ele><time>2026-04-19T16:34:48.886Z</time></trkpt><trkpt lat="42.576333394985056" lon="12.631544918182524"><ele>153.0</ele><time>2026-04-19T16:34:49.886Z</time></trkpt><trkpt lat="42.576133168809534" lon="12.631260116171928"><ele>152.0</ele><time>2026-04-19T16:34:50.886Z</time></trkpt><trkpt lat="42.57593436334613" lon="12.630981077357475"><ele>151.0</ele><time>2026-04-19T16:34:51.886Z</time></trkpt><trkpt lat="42.57573853639385" lon="12.630699396980173"><ele>151.0</ele><time>2026-04-19T16:34:52.886Z</time></trkpt><trkpt lat="42.575545272814864" lon="12.630414664444807"><ele>151.0</ele><time>2026-04-19T16:34:53.886Z</time></trkpt><trkpt lat="42.57535284510485" lon="12.630130680265832"><ele>149.5</ele><time>2026-04-19T16:34:54.886Z</time></trkpt><trkpt lat="42.575158548452364" lon="12.629848128665513"><ele>148.0</ele><time>2026-04-19T16:34:55.886Z</time></trkpt><trkpt lat="42.57495928923413" lon="12.629556576766525"><ele>147.0</ele><time>2026-04-19T16:34:56.886Z</time></trkpt><trkpt lat="42.57475515816474" lon="12.62927319515211"><ele>146.0</ele><time>2026-04-19T16:34:57.886Z</time></trkpt><trkpt lat="42.57454987721057" lon="12.628995598849416"><ele>146.0</ele><time>2026-04-19T16:34:58.886Z</time></trkpt><trkpt lat="42.57434714571194" lon="12.628717577030676"><ele>146.0</ele><time>2026-04-19T16:34:59.886Z</time></trkpt><trkpt lat="42.57415338371063" lon="12.628437003908672"><ele>146.0</ele><time>2026-04-19T16:35:00.886Z</time></trkpt><trkpt lat="42.573961807361535" lon="12.628152564016586"><ele>146.0</ele><time>2026-04-19T16:35:01.886Z</time></trkpt><trkpt lat="42.573768433977754" lon="12.627874924706134"><ele>143.0</ele><time>2026-04-19T16:35:02.886Z</time></trkpt><trkpt lat="42.573573738024045" lon="12.6276042656548"><ele>140.0</ele><time>2026-04-19T16:35:03.886Z</time></trkpt><trkpt lat="42.573385943085256" lon="12.62731609515252"><ele>140.0</ele><time>2026-04-19T16:35:04.886Z</time></trkpt><trkpt lat="42.573202741895415" lon="12.627018374687387"><ele>140.0</ele><time>2026-04-19T16:35:05.885Z</time></trkpt><trkpt lat="42.57302410774837" lon="12.62671691263108"><ele>140.0</ele><time>2026-04-19T16:35:06.885Z</time></trkpt><trkpt lat="42.57284885511753" lon="12.626407946521741"><ele>140.0</ele><time>2026-04-19T16:35:07.885Z</time></trkpt><trkpt lat="42.57268506960251" lon="12.626090413097932"><ele>140.0</ele><time>2026-04-19T16:35:08.885Z</time></trkpt><trkpt lat="42.57252593859021" lon="12.625766909470677"><ele>140.0</ele><time>2026-04-19T16:35:09.885Z</time></trkpt><trkpt lat="42.57237307744487" lon="12.62544038184054"><ele>140.5</ele><time>2026-04-19T16:35:10.885Z</time></trkpt><trkpt lat="42.572232294609805" lon="12.625103416029646"><ele>141.0</ele><time>2026-04-19T16:35:11.885Z</time></trkpt><trkpt lat="42.57209910764542" lon="12.624765620217437"><ele>137.5</ele><time>2026-04-19T16:35:12.885Z</time></trkpt><trkpt lat="42.571950739998734" lon="12.624429304092308"><ele>134.0</ele><time>2026-04-19T16:35:13.885Z</time></trkpt><trkpt lat="42.571803460120705" lon="12.624099362763653"><ele>134.0</ele><time>2026-04-19T16:35:14.885Z</time></trkpt><trkpt lat="42.57166817964288" lon="12.6237579287429"><ele>134.0</ele><time>2026-04-19T16:35:15.885Z</time></trkpt><trkpt lat="42.5715456406464" lon="12.62340806537056"><ele>133.5</ele><time>2026-04-19T16:35:16.885Z</time></trkpt><trkpt lat="42.57143202545497" lon="12.62305499848181"><ele>133.0</ele><time>2026-04-19T16:35:17.885Z</time></trkpt><trkpt lat="42.571328269360635" lon="12.622710136414282"><ele>131.5</ele><time>2026-04-19T16:35:18.885Z</time></trkpt><trkpt lat="42.57122836516982" lon="12.622348376311503"><ele>130.0</ele><time>2026-04-19T16:35:19.885Z</time></trkpt><trkpt lat="42.57113020876795" lon="12.62197978668154"><ele>127.0</ele><time>2026-04-19T16:35:20.885Z</time></trkpt><trkpt lat="42.57103706991789" lon="12.621605700741432"><ele>124.0</ele><time>2026-04-19T16:35:21.885Z</time></trkpt><trkpt lat="42.570946101133096" lon="12.621236702763019"><ele>122.5</ele><time>2026-04-19T16:35:22.885Z</time></trkpt><trkpt lat="42.57086664827769" lon="12.620852594251216"><ele>121.0</ele><time>2026-04-19T16:35:23.885Z</time></trkpt><trkpt lat="42.570794621471" lon="12.62046824863916"><ele>121.0</ele><time>2026-04-19T16:35:24.885Z</time></trkpt><trkpt lat="42.570722726804526" lon="12.620087577124286"><ele>121.0</ele><time>2026-04-19T16:35:25.885Z</time></trkpt><trkpt lat="42.57066350605396" lon="12.619706609676031"><ele>120.0</ele><time>2026-04-19T16:35:26.885Z</time></trkpt><trkpt lat="42.57062086941028" lon="12.619329613006919"><ele>119.0</ele><time>2026-04-19T16:35:27.885Z</time></trkpt><trkpt lat="42.57058471533543" lon="12.618951566427045"><ele>118.5</ele><time>2026-04-19T16:35:28.887Z</time></trkpt><trkpt lat="42.57054889480426" lon="12.618602847136723"><ele>118.0</ele><time>2026-04-19T16:35:29.887Z</time></trkpt><trkpt lat="42.57052004421959" lon="12.618259850748947"><ele>118.0</ele><time>2026-04-19T16:35:30.887Z</time></trkpt><trkpt lat="42.57049137449679" lon="12.617920651320977"><ele>118.0</ele><time>2026-04-19T16:35:31.887Z</time></trkpt><trkpt lat="42.57046693791743" lon="12.6175829640593"><ele>117.5</ele><time>2026-04-19T16:35:32.887Z</time></trkpt><trkpt lat="42.57044932885917" lon="12.617254545795715"><ele>117.0</ele><time>2026-04-19T16:35:33.887Z</time></trkpt><trkpt lat="42.57043450648124" lon="12.616932486235646"><ele>118.0</ele><time>2026-04-19T16:35:34.886Z</time></trkpt><trkpt lat="42.57042576057032" lon="12.616616528816168"><ele>119.0</ele><time>2026-04-19T16:35:35.887Z</time></trkpt><trkpt lat="42.570405587726015" lon="12.61632021757214"><ele>118.5</ele><time>2026-04-19T16:35:36.887Z</time></trkpt><trkpt lat="42.57037658034784" lon="12.616014210867315"><ele>118.0</ele><time>2026-04-19T16:35:37.886Z</time></trkpt><trkpt lat="42.570361599429525" lon="12.615683348299104"><ele>116.5</ele><time>2026-04-19T16:35:38.887Z</time></trkpt><trkpt lat="42.570346913681966" lon="12.61536154149319"><ele>115.0</ele><time>2026-04-19T16:35:39.887Z</time></trkpt><trkpt lat="42.5703377402007" lon="12.615059538518933"><ele>115.0</ele><time>2026-04-19T16:35:40.886Z</time></trkpt><trkpt lat="42.57033269032958" lon="12.614761727560532"><ele>115.0</ele><time>2026-04-19T16:35:41.886Z</time></trkpt><trkpt lat="42.57032054030917" lon="12.614458177854862"><ele>115.0</ele><time>2026-04-19T16:35:42.886Z</time></trkpt><trkpt lat="42.57030925709788" lon="12.614136149408244"><ele>114.0</ele><time>2026-04-19T16:35:43.886Z</time></trkpt><trkpt lat="42.5702937942838" lon="12.613803257503188"><ele>113.0</ele><time>2026-04-19T16:35:44.886Z</time></trkpt><trkpt lat="42.57028067711303" lon="12.613465997836176"><ele>112.5</ele><time>2026-04-19T16:35:45.886Z</time></trkpt><trkpt lat="42.57026994362961" lon="12.613131066577363"><ele>112.0</ele><time>2026-04-19T16:35:46.886Z</time></trkpt><trkpt lat="42.57025913492166" lon="12.612800803358287"><ele>112.0</ele><time>2026-04-19T16:35:47.886Z</time></trkpt><trkpt lat="42.57024663378599" lon="12.612474770040622"><ele>112.0</ele><time>2026-04-19T16:35:48.886Z</time></trkpt><trkpt lat="42.570232913070996" lon="12.612135239791353"><ele>112.0</ele><time>2026-04-19T16:35:49.886Z</time></trkpt><trkpt lat="42.57022642313826" lon="12.611793798956315"><ele>112.0</ele><time>2026-04-19T16:35:50.886Z</time></trkpt><trkpt lat="42.57022350758472" lon="12.611444641188347"><ele>112.0</ele><time>2026-04-19T16:35:51.886Z</time></trkpt><trkpt lat="42.570218241380694" lon="12.611093976494143"><ele>112.0</ele><time>2026-04-19T16:35:52.886Z</time></trkpt><trkpt lat="42.570205143222" lon="12.61074501399504"><ele>112.0</ele><time>2026-04-19T16:35:53.886Z</time></trkpt><trkpt lat="42.57018636025354" lon="12.610394484672598"><ele>112.0</ele><time>2026-04-19T16:35:54.886Z</time></trkpt><trkpt lat="42.57016819054996" lon="12.610028919135978"><ele>112.5</ele><time>2026-04-19T16:35:55.886Z</time></trkpt><trkpt lat="42.57015432613088" lon="12.609651627383414"><ele>113.0</ele><time>2026-04-19T16:35:56.886Z</time></trkpt><trkpt lat="42.570141156560304" lon="12.609271867573813"><ele>113.0</ele><time>2026-04-19T16:35:57.886Z</time></trkpt><trkpt lat="42.57012329409683" lon="12.60888900140734"><ele>113.0</ele><time>2026-04-19T16:35:58.886Z</time></trkpt><trkpt lat="42.57010048808449" lon="12.608505991362994"><ele>111.5</ele><time>2026-04-19T16:35:59.886Z</time></trkpt><trkpt lat="42.57008352329804" lon="12.60811389512268"><ele>110.0</ele><time>2026-04-19T16:36:00.886Z</time></trkpt><trkpt lat="42.570063385568645" lon="12.607716935867284"><ele>110.0</ele><time>2026-04-19T16:36:01.886Z</time></trkpt><trkpt lat="42.57005003657141" lon="12.607326562026115"><ele>110.0</ele><time>2026-04-19T16:36:02.885Z</time></trkpt><trkpt lat="42.57003338045527" lon="12.606941658696535"><ele>110.0</ele><time>2026-04-19T16:36:03.885Z</time></trkpt><trkpt lat="42.57001617861912" lon="12.606558963530626"><ele>110.0</ele><time>2026-04-19T16:36:04.885Z</time></trkpt><trkpt lat="42.570000561271016" lon="12.60617665704137"><ele>109.5</ele><time>2026-04-19T16:36:05.885Z</time></trkpt><trkpt lat="42.569984188644284" lon="12.605795178611402"><ele>109.0</ele><time>2026-04-19T16:36:06.885Z</time></trkpt><trkpt lat="42.569968435664634" lon="12.605417466571284"><ele>108.5</ele><time>2026-04-19T16:36:07.885Z</time></trkpt><trkpt lat="42.56995780623111" lon="12.605056547522896"><ele>108.0</ele><time>2026-04-19T16:36:08.885Z</time></trkpt><trkpt lat="42.569940175849965" lon="12.604714089868835"><ele>108.0</ele><time>2026-04-19T16:36:09.885Z</time></trkpt><trkpt lat="42.56993363339904" lon="12.604383764180861"><ele>108.0</ele><time>2026-04-19T16:36:10.885Z</time></trkpt><trkpt lat="42.56992436414462" lon="12.60405452955029"><ele>108.0</ele><time>2026-04-19T16:36:11.885Z</time></trkpt><trkpt lat="42.56990975370405" lon="12.603726970394522"><ele>108.0</ele><time>2026-04-19T16:36:12.885Z</time></trkpt><trkpt lat="42.56990632312714" lon="12.60340440704048"><ele>108.0</ele><time>2026-04-19T16:36:13.885Z</time></trkpt><trkpt lat="42.56989912043785" lon="12.60307926462879"><ele>108.0</ele><time>2026-04-19T16:36:14.885Z</time></trkpt><trkpt lat="42.56989343711975" lon="12.602748866318953"><ele>107.0</ele><time>2026-04-19T16:36:15.885Z</time></trkpt><trkpt lat="42.56989065196998" lon="12.602407423293855"><ele>106.0</ele><time>2026-04-19T16:36:16.885Z</time></trkpt><trkpt lat="42.56988140204616" lon="12.602056331284912"><ele>106.0</ele><time>2026-04-19T16:36:17.885Z</time></trkpt><trkpt lat="42.56987100278987" lon="12.601698729082015"><ele>106.0</ele><time>2026-04-19T16:36:18.885Z</time></trkpt><trkpt lat="42.56986485994657" lon="12.601333502502875"><ele>106.0</ele><time>2026-04-19T16:36:19.885Z</time></trkpt><trkpt lat="42.56985801365492" lon="12.600976210577445"><ele>106.0</ele><time>2026-04-19T16:36:20.885Z</time></trkpt><trkpt lat="42.56985912787805" lon="12.600614641704343"><ele>106.0</ele><time>2026-04-19T16:36:21.885Z</time></trkpt><trkpt lat="42.56985029986587" lon="12.600260526849494"><ele>106.0</ele><time>2026-04-19T16:36:22.885Z</time></trkpt><trkpt lat="42.56984239170588" lon="12.59990598637505"><ele>106.0</ele><time>2026-04-19T16:36:23.885Z</time></trkpt><trkpt lat="42.56983531481464" lon="12.599556762075515"><ele>106.0</ele><time>2026-04-19T16:36:24.885Z</time></trkpt><trkpt lat="42.5698285706081" lon="12.599207808553837"><ele>106.0</ele><time>2026-04-19T16:36:25.885Z</time></trkpt><trkpt lat="42.56982264862836" lon="12.598856329443308"><ele>106.0</ele><time>2026-04-19T16:36:26.884Z</time></trkpt><trkpt lat="42.569820270763564" lon="12.598506450951502"><ele>107.5</ele><time>2026-04-19T16:36:27.884Z</time></trkpt><trkpt lat="42.569811345122076" lon="12.598152976903691"><ele>109.0</ele><time>2026-04-19T16:36:28.884Z</time></trkpt><trkpt lat="42.56980144570059" lon="12.597794990352794"><ele>110.5</ele><time>2026-04-19T16:36:29.884Z</time></trkpt><trkpt lat="42.569790618472155" lon="12.597442311956444"><ele>112.0</ele><time>2026-04-19T16:36:30.884Z</time></trkpt><trkpt lat="42.5697744812397" lon="12.597074812540873"><ele>110.5</ele><time>2026-04-19T16:36:31.884Z</time></trkpt><trkpt lat="42.56976449609509" lon="12.596709583483303"><ele>109.0</ele><time>2026-04-19T16:36:32.884Z</time></trkpt><trkpt lat="42.5697626112998" lon="12.596343118271541"><ele>109.0</ele><time>2026-04-19T16:36:33.884Z</time></trkpt><trkpt lat="42.5697530839199" lon="12.595966591182368"><ele>109.0</ele><time>2026-04-19T16:36:34.884Z</time></trkpt><trkpt lat="42.569747151921646" lon="12.59559281984954"><ele>108.5</ele><time>2026-04-19T16:36:35.884Z</time></trkpt><trkpt lat="42.56974477509063" lon="12.595219572594251"><ele>108.0</ele><time>2026-04-19T16:36:36.884Z</time></trkpt><trkpt lat="42.56973295994356" lon="12.594844181819868"><ele>109.0</ele><time>2026-04-19T16:36:37.884Z</time></trkpt><trkpt lat="42.56971972143972" lon="12.594463568358135"><ele>110.0</ele><time>2026-04-19T16:36:38.884Z</time></trkpt><trkpt lat="42.5697071072579" lon="12.594075443831615"><ele>110.0</ele><time>2026-04-19T16:36:39.884Z</time></trkpt><trkpt lat="42.56969005823457" lon="12.59367367189606"><ele>110.0</ele><time>2026-04-19T16:36:40.884Z</time></trkpt><trkpt lat="42.56967095653465" lon="12.593256693304054"><ele>109.5</ele><time>2026-04-19T16:36:41.884Z</time></trkpt><trkpt lat="42.56965336964508" lon="12.592838445751314"><ele>109.0</ele><time>2026-04-19T16:36:42.884Z</time></trkpt><trkpt lat="42.56963629845025" lon="12.592421627137076"><ele>109.0</ele><time>2026-04-19T16:36:43.884Z</time></trkpt><trkpt lat="42.569622188685535" lon="12.59200762479169"><ele>109.0</ele><time>2026-04-19T16:36:44.884Z</time></trkpt><trkpt lat="42.56960533297277" lon="12.591584459247866"><ele>108.0</ele><time>2026-04-19T16:36:45.884Z</time></trkpt><trkpt lat="42.56959093583034" lon="12.591160429367315"><ele>107.0</ele><time>2026-04-19T16:36:46.884Z</time></trkpt><trkpt lat="42.569577056093365" lon="12.590735062516693"><ele>106.5</ele><time>2026-04-19T16:36:47.884Z</time></trkpt><trkpt lat="42.56955926506267" lon="12.590308885512732"><ele>106.0</ele><time>2026-04-19T16:36:48.884Z</time></trkpt><trkpt lat="42.5695424995834" lon="12.589885391318852"><ele>106.0</ele><time>2026-04-19T16:36:49.884Z</time></trkpt><trkpt lat="42.56952561920107" lon="12.58946235887752"><ele>106.0</ele><time>2026-04-19T16:36:50.883Z</time></trkpt><trkpt lat="42.56950881601536" lon="12.589042459233774"><ele>105.0</ele><time>2026-04-19T16:36:51.883Z</time></trkpt><trkpt lat="42.5694899394324" lon="12.588621282463038"><ele>104.0</ele><time>2026-04-19T16:36:52.883Z</time></trkpt><trkpt lat="42.56947319471662" lon="12.58820659487829"><ele>105.0</ele><time>2026-04-19T16:36:53.883Z</time></trkpt><trkpt lat="42.56945515523665" lon="12.587802799232122"><ele>106.0</ele><time>2026-04-19T16:36:54.883Z</time></trkpt><trkpt lat="42.56943997528073" lon="12.587403584415245"><ele>106.0</ele><time>2026-04-19T16:36:55.883Z</time></trkpt><trkpt lat="42.56942537605909" lon="12.587012829146651"><ele>106.0</ele><time>2026-04-19T16:36:56.883Z</time></trkpt><trkpt lat="42.5694080114103" lon="12.586629018598805"><ele>106.0</ele><time>2026-04-19T16:36:57.883Z</time></trkpt><trkpt lat="42.56939254775556" lon="12.586252643367166"><ele>106.0</ele><time>2026-04-19T16:36:58.883Z</time></trkpt><trkpt lat="42.56937532349638" lon="12.5858874248989"><ele>106.0</ele><time>2026-04-19T16:36:59.883Z</time></trkpt><trkpt lat="42.56936278666866" lon="12.585526033639585"><ele>106.0</ele><time>2026-04-19T16:37:00.883Z</time></trkpt><trkpt lat="42.56934914828201" lon="12.585172339142314"><ele>106.0</ele><time>2026-04-19T16:37:01.883Z</time></trkpt><trkpt lat="42.56933491368874" lon="12.584826352047989"><ele>106.0</ele><time>2026-04-19T16:37:02.883Z</time></trkpt><trkpt lat="42.56931791384475" lon="12.58448508036884"><ele>105.5</ele><time>2026-04-19T16:37:03.883Z</time></trkpt><trkpt lat="42.56930584259457" lon="12.584146656358246"><ele>105.0</ele><time>2026-04-19T16:37:04.883Z</time></trkpt><trkpt lat="42.56929689062774" lon="12.583831328278219"><ele>106.5</ele><time>2026-04-19T16:37:05.883Z</time></trkpt><trkpt lat="42.56928436836635" lon="12.583517131127584"><ele>108.0</ele><time>2026-04-19T16:37:06.883Z</time></trkpt><trkpt lat="42.569270178835495" lon="12.583200822279297"><ele>108.0</ele><time>2026-04-19T16:37:07.883Z</time></trkpt><trkpt lat="42.56925999550115" lon="12.582890365340647"><ele>108.0</ele><time>2026-04-19T16:37:08.883Z</time></trkpt><trkpt lat="42.56924621720484" lon="12.582575056477909"><ele>108.5</ele><time>2026-04-19T16:37:09.883Z</time></trkpt><trkpt lat="42.5692335976904" lon="12.582260758821946"><ele>109.0</ele><time>2026-04-19T16:37:10.883Z</time></trkpt><trkpt lat="42.56922065308262" lon="12.581948070132114"><ele>109.5</ele><time>2026-04-19T16:37:11.883Z</time></trkpt><trkpt lat="42.56920894797318" lon="12.581638152513829"><ele>110.0</ele><time>2026-04-19T16:37:12.883Z</time></trkpt><trkpt lat="42.569197842110974" lon="12.581324873490992"><ele>110.0</ele><time>2026-04-19T16:37:13.883Z</time></trkpt><trkpt lat="42.56918910836702" lon="12.581013057678627"><ele>110.0</ele><time>2026-04-19T16:37:14.882Z</time></trkpt><trkpt lat="42.569177377458985" lon="12.580705308260821"><ele>110.0</ele><time>2026-04-19T16:37:15.882Z</time></trkpt><trkpt lat="42.56916678641184" lon="12.580392696958029"><ele>110.0</ele><time>2026-04-19T16:37:16.882Z</time></trkpt><trkpt lat="42.56915218588927" lon="12.580076126709402"><ele>111.0</ele><time>2026-04-19T16:37:17.882Z</time></trkpt><trkpt lat="42.569139795811864" lon="12.579757980064263"><ele>112.0</ele><time>2026-04-19T16:37:18.882Z</time></trkpt><trkpt lat="42.569129713688476" lon="12.579441833942521"><ele>112.0</ele><time>2026-04-19T16:37:19.882Z</time></trkpt><trkpt lat="42.569120565327445" lon="12.579126847104826"><ele>112.0</ele><time>2026-04-19T16:37:20.882Z</time></trkpt><trkpt lat="42.5691103897564" lon="12.578812541284217"><ele>112.0</ele><time>2026-04-19T16:37:21.882Z</time></trkpt><trkpt lat="42.56910061959487" lon="12.578501981809874"><ele>112.0</ele><time>2026-04-19T16:37:22.882Z</time></trkpt><trkpt lat="42.56908985368693" lon="12.57819157455562"><ele>112.0</ele><time>2026-04-19T16:37:23.882Z</time></trkpt><trkpt lat="42.56908057154173" lon="12.577891004769155"><ele>112.0</ele><time>2026-04-19T16:37:24.882Z</time></trkpt><trkpt lat="42.56907054742749" lon="12.577587741861262"><ele>112.0</ele><time>2026-04-19T16:37:25.882Z</time></trkpt><trkpt lat="42.56906208702472" lon="12.577304563860237"><ele>112.33333333333334</ele><time>2026-04-19T16:37:26.882Z</time></trkpt><trkpt lat="42.56905011867743" lon="12.577031944563016"><ele>112.66666666666666</ele><time>2026-04-19T16:37:27.882Z</time></trkpt><trkpt lat="42.569045758363" lon="12.576753702133848"><ele>113.0</ele><time>2026-04-19T16:37:28.882Z</time></trkpt><trkpt lat="42.569039799309444" lon="12.576492367323633"><ele>112.66666666666666</ele><time>2026-04-19T16:37:29.882Z</time></trkpt><trkpt lat="42.56902376437453" lon="12.576252243789549"><ele>112.33333333333334</ele><time>2026-04-19T16:37:30.882Z</time></trkpt><trkpt lat="42.56901668177256" lon="12.575987550500102"><ele>112.0</ele><time>2026-04-19T16:37:31.882Z</time></trkpt><trkpt lat="42.56901834229903" lon="12.575723072699446"><ele>112.0</ele><time>2026-04-19T16:37:32.882Z</time></trkpt><trkpt lat="42.56900828758356" lon="12.575467615359472"><ele>112.0</ele><time>2026-04-19T16:37:33.882Z</time></trkpt><trkpt lat="42.568982514826175" lon="12.57523587279778"><ele>112.0</ele><time>2026-04-19T16:37:34.883Z</time></trkpt><trkpt lat="42.56898061188163" lon="12.575023809767275"><ele>111.33333333333334</ele><time>2026-04-19T16:37:35.884Z</time></trkpt><trkpt lat="42.56896348559905" lon="12.574789304641135"><ele>110.66666666666666</ele><time>2026-04-19T16:37:36.884Z</time></trkpt><trkpt lat="42.56894642728987" lon="12.574562264783818"><ele>110.0</ele><time>2026-04-19T16:37:37.883Z</time></trkpt><trkpt lat="42.56892984561949" lon="12.574331664180116"><ele>110.0</ele><time>2026-04-19T16:37:38.884Z</time></trkpt><trkpt lat="42.56891368565269" lon="12.574096612160478"><ele>110.0</ele><time>2026-04-19T16:37:39.884Z</time></trkpt><trkpt lat="42.568901812280046" lon="12.573860513222295"><ele>110.0</ele><time>2026-04-19T16:37:40.883Z</time></trkpt><trkpt lat="42.56889532708615" lon="12.573631450587252"><ele>110.25</ele><time>2026-04-19T16:37:41.884Z</time></trkpt><trkpt lat="42.56889197661822" lon="12.57342462731847"><ele>110.5</ele><time>2026-04-19T16:37:42.884Z</time></trkpt><trkpt lat="42.56888291603746" lon="12.573227022423003"><ele>110.75</ele><time>2026-04-19T16:37:43.883Z</time></trkpt><trkpt lat="42.568871778299346" lon="12.573038527938714"><ele>111.0</ele><time>2026-04-19T16:37:44.883Z</time></trkpt><trkpt lat="42.56885888517208" lon="12.57284975813351"><ele>110.25</ele><time>2026-04-19T16:37:45.883Z</time></trkpt><trkpt lat="42.56884780279822" lon="12.572663161658758"><ele>109.5</ele><time>2026-04-19T16:37:46.883Z</time></trkpt><trkpt lat="42.56884419360338" lon="12.57249480394859"><ele>108.75</ele><time>2026-04-19T16:37:47.883Z</time></trkpt><trkpt lat="42.568837417543016" lon="12.572341947519742"><ele>108.0</ele><time>2026-04-19T16:37:48.883Z</time></trkpt><trkpt lat="42.5688281474123" lon="12.57219895151694"><ele>108.0</ele><time>2026-04-19T16:37:49.883Z</time></trkpt><trkpt lat="42.568819962162976" lon="12.572068169685796"><ele>108.0</ele><time>2026-04-19T16:37:50.883Z</time></trkpt><trkpt lat="42.56881371402482" lon="12.571959392349246"><ele>108.0</ele><time>2026-04-19T16:37:51.883Z</time></trkpt><trkpt lat="42.56880769967162" lon="12.571862710533141"><ele>108.0</ele><time>2026-04-19T16:37:52.883Z</time></trkpt><trkpt lat="42.568808701704654" lon="12.571768035418415"><ele>108.0</ele><time>2026-04-19T16:37:53.883Z</time></trkpt><trkpt lat="42.56880715241377" lon="12.571666803439197"><ele>108.0</ele><time>2026-04-19T16:37:54.883Z</time></trkpt><trkpt lat="42.56880875909012" lon="12.571565856918152"><ele>108.0</ele><time>2026-04-19T16:37:55.883Z</time></trkpt><trkpt lat="42.56880619390408" lon="12.571459496507897"><ele>108.0</ele><time>2026-04-19T16:37:56.883Z</time></trkpt><trkpt lat="42.56880109868672" lon="12.57137410986744"><ele>108.0</ele><time>2026-04-19T16:37:57.883Z</time></trkpt><trkpt lat="42.56878825628248" lon="12.571215728182057"><ele>108.0</ele><time>2026-04-19T16:37:59.882Z</time></trkpt><trkpt lat="42.568779296162695" lon="12.571124816567224"><ele>108.0</ele><time>2026-04-19T16:38:00.882Z</time></trkpt><trkpt lat="42.568770151439516" lon="12.571020978916977"><ele>108.0</ele><time>2026-04-19T16:38:01.882Z</time></trkpt><trkpt lat="42.56876167954333" lon="12.570901749218677"><ele>108.4</ele><time>2026-04-19T16:38:02.882Z</time></trkpt><trkpt lat="42.5687520428063" lon="12.570773531592803"><ele>108.80000000000001</ele><time>2026-04-19T16:38:03.882Z</time></trkpt><trkpt lat="42.568742989692" lon="12.570641759924003"><ele>109.2</ele><time>2026-04-19T16:38:04.882Z</time></trkpt><trkpt lat="42.568733553063225" lon="12.57051459733032"><ele>109.6</ele><time>2026-04-19T16:38:05.882Z</time></trkpt><trkpt lat="42.56872467390363" lon="12.570389992375159"><ele>110.0</ele><time>2026-04-19T16:38:06.882Z</time></trkpt><trkpt lat="42.568716280948635" lon="12.570260849097307"><ele>110.2</ele><time>2026-04-19T16:38:07.882Z</time></trkpt><trkpt lat="42.5687095591818" lon="12.570132047115155"><ele>110.4</ele><time>2026-04-19T16:38:08.882Z</time></trkpt><trkpt lat="42.56870309671113" lon="12.570006768905586"><ele>110.6</ele><time>2026-04-19T16:38:09.882Z</time></trkpt><trkpt lat="42.56869567785563" lon="12.569885095805999"><ele>110.8</ele><time>2026-04-19T16:38:10.882Z</time></trkpt><trkpt lat="42.568684938662365" lon="12.569757216748183"><ele>111.0</ele><time>2026-04-19T16:38:11.882Z</time></trkpt><trkpt lat="42.56866831158436" lon="12.569619469259129"><ele>110.8</ele><time>2026-04-19T16:38:12.882Z</time></trkpt><trkpt lat="42.56865264290947" lon="12.569478288578939"><ele>110.6</ele><time>2026-04-19T16:38:13.882Z</time></trkpt><trkpt lat="42.568636173160556" lon="12.569334456681627"><ele>110.4</ele><time>2026-04-19T16:38:14.882Z</time></trkpt><trkpt lat="42.56862455276401" lon="12.569197781610248"><ele>110.2</ele><time>2026-04-19T16:38:15.882Z</time></trkpt><trkpt lat="42.568613433738946" lon="12.56905422402372"><ele>110.0</ele><time>2026-04-19T16:38:16.882Z</time></trkpt><trkpt lat="42.56860200073158" lon="12.568913363019378"><ele>110.0</ele><time>2026-04-19T16:38:17.882Z</time></trkpt><trkpt lat="42.568585235281205" lon="12.5687749223611"><ele>110.0</ele><time>2026-04-19T16:38:18.882Z</time></trkpt><trkpt lat="42.568570045062266" lon="12.568629993129337"><ele>110.0</ele><time>2026-04-19T16:38:19.882Z</time></trkpt><trkpt lat="42.56854875927621" lon="12.568479109487324"><ele>110.0</ele><time>2026-04-19T16:38:20.882Z</time></trkpt><trkpt lat="42.568533318652015" lon="12.56832655434124"><ele>110.0</ele><time>2026-04-19T16:38:21.882Z</time></trkpt><trkpt lat="42.56851673084182" lon="12.568173470306087"><ele>109.75</ele><time>2026-04-19T16:38:22.881Z</time></trkpt><trkpt lat="42.568494675831865" lon="12.568009856080081"><ele>109.5</ele><time>2026-04-19T16:38:23.881Z</time></trkpt><trkpt lat="42.568472235485565" lon="12.567834297594747"><ele>109.25</ele><time>2026-04-19T16:38:24.881Z</time></trkpt><trkpt lat="42.568447865697976" lon="12.567647049512802"><ele>109.0</ele><time>2026-04-19T16:38:25.881Z</time></trkpt><trkpt lat="42.5684216173138" lon="12.567444378113615"><ele>109.0</ele><time>2026-04-19T16:38:26.881Z</time></trkpt><trkpt lat="42.568395151443745" lon="12.567233777791648"><ele>109.0</ele><time>2026-04-19T16:38:27.881Z</time></trkpt><trkpt lat="42.568367587401994" lon="12.567020575082152"><ele>109.0</ele><time>2026-04-19T16:38:28.881Z</time></trkpt><trkpt lat="42.568337519140876" lon="12.566809884190981"><ele>109.0</ele><time>2026-04-19T16:38:29.881Z</time></trkpt><trkpt lat="42.56830453863875" lon="12.566594306021937"><ele>109.0</ele><time>2026-04-19T16:38:30.881Z</time></trkpt><trkpt lat="42.568268561995446" lon="12.566373785547079"><ele>109.0</ele><time>2026-04-19T16:38:31.881Z</time></trkpt><trkpt lat="42.568229258497766" lon="12.566137515078672"><ele>109.0</ele><time>2026-04-19T16:38:32.881Z</time></trkpt><trkpt lat="42.56818839474945" lon="12.565896826995647"><ele>109.0</ele><time>2026-04-19T16:38:33.881Z</time></trkpt><trkpt lat="42.5681441289725" lon="12.565642730473305"><ele>109.0</ele><time>2026-04-19T16:38:34.881Z</time></trkpt><trkpt lat="42.568096190993806" lon="12.565377226883989"><ele>109.0</ele><time>2026-04-19T16:38:35.881Z</time></trkpt><trkpt lat="42.5680447715447" lon="12.565102772907343"><ele>109.0</ele><time>2026-04-19T16:38:36.881Z</time></trkpt><trkpt lat="42.56799115724564" lon="12.564817474525524"><ele>109.0</ele><time>2026-04-19T16:38:37.881Z</time></trkpt><trkpt lat="42.567936276951194" lon="12.564521383604387"><ele>110.0</ele><time>2026-04-19T16:38:38.881Z</time></trkpt><trkpt lat="42.56788040709807" lon="12.564223505838257"><ele>111.0</ele><time>2026-04-19T16:38:39.881Z</time></trkpt><trkpt lat="42.56782267420723" lon="12.563921327304033"><ele>110.5</ele><time>2026-04-19T16:38:40.881Z</time></trkpt><trkpt lat="42.5677571842925" lon="12.563615680978007"><ele>110.0</ele><time>2026-04-19T16:38:41.881Z</time></trkpt><trkpt lat="42.567685559266835" lon="12.56330622015488"><ele>110.0</ele><time>2026-04-19T16:38:42.881Z</time></trkpt><trkpt lat="42.56761472672359" lon="12.562994292034189"><ele>110.0</ele><time>2026-04-19T16:38:43.881Z</time></trkpt><trkpt lat="42.56753783797417" lon="12.56267154745909"><ele>111.0</ele><time>2026-04-19T16:38:44.881Z</time></trkpt><trkpt lat="42.56745735736622" lon="12.56234777771403"><ele>112.0</ele><time>2026-04-19T16:38:45.881Z</time></trkpt><trkpt lat="42.567375503938" lon="12.56202641568888"><ele>114.0</ele><time>2026-04-19T16:38:46.88Z</time></trkpt><trkpt lat="42.56729020367381" lon="12.561709666936604"><ele>116.0</ele><time>2026-04-19T16:38:47.88Z</time></trkpt><trkpt lat="42.56720307512419" lon="12.561393927260543"><ele>117.5</ele><time>2026-04-19T16:38:48.88Z</time></trkpt><trkpt lat="42.56711327863602" lon="12.56108280226653"><ele>119.0</ele><time>2026-04-19T16:38:49.88Z</time></trkpt><trkpt lat="42.567023720888955" lon="12.56077388631951"><ele>116.0</ele><time>2026-04-19T16:38:50.88Z</time></trkpt><trkpt lat="42.56692935815096" lon="12.560466389126963"><ele>113.0</ele><time>2026-04-19T16:38:51.88Z</time></trkpt><trkpt lat="42.56683285204905" lon="12.560152626874892"><ele>113.0</ele><time>2026-04-19T16:38:52.88Z</time></trkpt><trkpt lat="42.566729729064704" lon="12.559831109183966"><ele>113.0</ele><time>2026-04-19T16:38:53.88Z</time></trkpt><trkpt lat="42.566630207598664" lon="12.559515118185157"><ele>114.0</ele><time>2026-04-19T16:38:54.88Z</time></trkpt><trkpt lat="42.56652288335869" lon="12.559198140893589"><ele>115.0</ele><time>2026-04-19T16:38:55.88Z</time></trkpt><trkpt lat="42.56641434774922" lon="12.55888608201533"><ele>114.0</ele><time>2026-04-19T16:38:56.88Z</time></trkpt><trkpt lat="42.566302412602326" lon="12.558575993012237"><ele>113.0</ele><time>2026-04-19T16:38:57.88Z</time></trkpt><trkpt lat="42.56619249787409" lon="12.558274756196507"><ele>113.0</ele><time>2026-04-19T16:38:58.88Z</time></trkpt><trkpt lat="42.56607751268072" lon="12.557970018282848"><ele>113.0</ele><time>2026-04-19T16:38:59.88Z</time></trkpt><trkpt lat="42.56596633759798" lon="12.55767022970017"><ele>115.0</ele><time>2026-04-19T16:39:00.88Z</time></trkpt><trkpt lat="42.56585720809312" lon="12.557369592995403"><ele>117.0</ele><time>2026-04-19T16:39:01.88Z</time></trkpt><trkpt lat="42.5657458389669" lon="12.557065946181378"><ele>117.5</ele><time>2026-04-19T16:39:02.88Z</time></trkpt><trkpt lat="42.565633485772416" lon="12.556760660826777"><ele>118.0</ele><time>2026-04-19T16:39:03.88Z</time></trkpt><trkpt lat="42.56551892356603" lon="12.556451769786962"><ele>117.5</ele><time>2026-04-19T16:39:04.88Z</time></trkpt><trkpt lat="42.56540143108569" lon="12.556137242658986"><ele>117.0</ele><time>2026-04-19T16:39:05.88Z</time></trkpt><trkpt lat="42.56528356074715" lon="12.555819707973733"><ele>117.0</ele><time>2026-04-19T16:39:06.88Z</time></trkpt><trkpt lat="42.56516268503442" lon="12.555502457863556"><ele>117.0</ele><time>2026-04-19T16:39:07.88Z</time></trkpt><trkpt lat="42.56504432214227" lon="12.55518555237704"><ele>119.0</ele><time>2026-04-19T16:39:08.88Z</time></trkpt><trkpt lat="42.56492407486575" lon="12.554869622831436"><ele>121.0</ele><time>2026-04-19T16:39:09.88Z</time></trkpt><trkpt lat="42.56480514289689" lon="12.554548404030438"><ele>122.5</ele><time>2026-04-19T16:39:10.879Z</time></trkpt><trkpt lat="42.56468673283499" lon="12.554226415599715"><ele>124.0</ele><time>2026-04-19T16:39:11.879Z</time></trkpt><trkpt lat="42.56456725928001" lon="12.553904153106439"><ele>120.0</ele><time>2026-04-19T16:39:12.879Z</time></trkpt><trkpt lat="42.564445260414104" lon="12.553581399675728"><ele>116.0</ele><time>2026-04-19T16:39:13.879Z</time></trkpt><trkpt lat="42.564321124064016" lon="12.553250152109278"><ele>116.0</ele><time>2026-04-19T16:39:14.879Z</time></trkpt><trkpt lat="42.56419638648873" lon="12.552913697264128"><ele>116.0</ele><time>2026-04-19T16:39:15.879Z</time></trkpt><trkpt lat="42.564069581977726" lon="12.552574033051847"><ele>117.0</ele><time>2026-04-19T16:39:16.879Z</time></trkpt><trkpt lat="42.563942878768856" lon="12.552231374589681"><ele>118.0</ele><time>2026-04-19T16:39:17.879Z</time></trkpt><trkpt lat="42.56381761220218" lon="12.551879053324058"><ele>117.5</ele><time>2026-04-19T16:39:18.879Z</time></trkpt><trkpt lat="42.56368887844129" lon="12.55152120961141"><ele>117.0</ele><time>2026-04-19T16:39:19.879Z</time></trkpt><trkpt lat="42.56355489166874" lon="12.551163494785012"><ele>117.0</ele><time>2026-04-19T16:39:20.879Z</time></trkpt><trkpt lat="42.563417794704634" lon="12.550800115811173"><ele>117.0</ele><time>2026-04-19T16:39:21.879Z</time></trkpt><trkpt lat="42.56328337600388" lon="12.550435124177993"><ele>118.0</ele><time>2026-04-19T16:39:22.879Z</time></trkpt><trkpt lat="42.56314852086233" lon="12.550069469668701"><ele>119.0</ele><time>2026-04-19T16:39:23.879Z</time></trkpt><trkpt lat="42.563009131940404" lon="12.549703831995133"><ele>120.5</ele><time>2026-04-19T16:39:24.879Z</time></trkpt><trkpt lat="42.562873032091126" lon="12.54933840335703"><ele>122.0</ele><time>2026-04-19T16:39:25.879Z</time></trkpt><trkpt lat="42.56273869917737" lon="12.54897563861303"><ele>121.0</ele><time>2026-04-19T16:39:26.879Z</time></trkpt><trkpt lat="42.56260398997388" lon="12.548611216110292"><ele>120.0</ele><time>2026-04-19T16:39:27.879Z</time></trkpt><trkpt lat="42.56246707037197" lon="12.548248806911246"><ele>120.0</ele><time>2026-04-19T16:39:28.879Z</time></trkpt><trkpt lat="42.56232701870782" lon="12.547882054390485"><ele>120.0</ele><time>2026-04-19T16:39:29.879Z</time></trkpt><trkpt lat="42.562186645104866" lon="12.547504202867316"><ele>121.0</ele><time>2026-04-19T16:39:30.879Z</time></trkpt><trkpt lat="42.56204854400447" lon="12.547120719468507"><ele>122.0</ele><time>2026-04-19T16:39:31.879Z</time></trkpt><trkpt lat="42.56191499305643" lon="12.546743665683397"><ele>122.0</ele><time>2026-04-19T16:39:32.879Z</time></trkpt><trkpt lat="42.56178303401284" lon="12.546381167521071"><ele>122.0</ele><time>2026-04-19T16:39:33.879Z</time></trkpt><trkpt lat="42.56164983552617" lon="12.546014643626505"><ele>123.5</ele><time>2026-04-19T16:39:34.878Z</time></trkpt><trkpt lat="42.5615161300041" lon="12.54565487655429"><ele>125.0</ele><time>2026-04-19T16:39:35.878Z</time></trkpt><trkpt lat="42.56138616660683" lon="12.545305088596368"><ele>126.0</ele><time>2026-04-19T16:39:36.878Z</time></trkpt><trkpt lat="42.56125842211167" lon="12.54495314598499"><ele>127.0</ele><time>2026-04-19T16:39:37.878Z</time></trkpt><trkpt lat="42.561131388606505" lon="12.544602320921264"><ele>122.0</ele><time>2026-04-19T16:39:38.878Z</time></trkpt><trkpt lat="42.561003228135945" lon="12.54425446636125"><ele>117.0</ele><time>2026-04-19T16:39:39.878Z</time></trkpt><trkpt lat="42.560878872377714" lon="12.543906869780377"><ele>116.5</ele><time>2026-04-19T16:39:40.88Z</time></trkpt><trkpt lat="42.5607519206085" lon="12.543562815648006"><ele>116.0</ele><time>2026-04-19T16:39:41.88Z</time></trkpt><trkpt lat="42.560623063696646" lon="12.543213092179066"><ele>114.0</ele><time>2026-04-19T16:39:42.88Z</time></trkpt><trkpt lat="42.56049558744354" lon="12.542864634363728"><ele>112.0</ele><time>2026-04-19T16:39:43.88Z</time></trkpt><trkpt lat="42.560371730471005" lon="12.542510681656434"><ele>110.0</ele><time>2026-04-19T16:39:44.881Z</time></trkpt><trkpt lat="42.560247302410346" lon="12.542153570633817"><ele>108.0</ele><time>2026-04-19T16:39:45.881Z</time></trkpt><trkpt lat="42.560121746367166" lon="12.541805398926062"><ele>108.0</ele><time>2026-04-19T16:39:46.88Z</time></trkpt><trkpt lat="42.55999213778166" lon="12.541453655971871"><ele>108.0</ele><time>2026-04-19T16:39:47.88Z</time></trkpt><trkpt lat="42.559862397425384" lon="12.541115276574347"><ele>110.5</ele><time>2026-04-19T16:39:48.88Z</time></trkpt><trkpt lat="42.55973621391557" lon="12.54077357865373"><ele>113.0</ele><time>2026-04-19T16:39:49.88Z</time></trkpt><trkpt lat="42.55960809344167" lon="12.54043000474453"><ele>115.0</ele><time>2026-04-19T16:39:50.88Z</time></trkpt><trkpt lat="42.55947592479989" lon="12.540076866983279"><ele>117.0</ele><time>2026-04-19T16:39:51.88Z</time></trkpt><trkpt lat="42.55934942804641" lon="12.539732529505484"><ele>116.5</ele><time>2026-04-19T16:39:52.88Z</time></trkpt><trkpt lat="42.55922018461374" lon="12.539380409222888"><ele>116.0</ele><time>2026-04-19T16:39:53.88Z</time></trkpt><trkpt lat="42.55908238054244" lon="12.53903632045423"><ele>115.0</ele><time>2026-04-19T16:39:54.88Z</time></trkpt><trkpt lat="42.55894085874036" lon="12.538705011991695"><ele>114.0</ele><time>2026-04-19T16:39:55.88Z</time></trkpt><trkpt lat="42.55877329629443" lon="12.538395166854219"><ele>114.0</ele><time>2026-04-19T16:39:56.88Z</time></trkpt><trkpt lat="42.55860637189429" lon="12.538109951748352"><ele>114.0</ele><time>2026-04-19T16:39:57.88Z</time></trkpt><trkpt lat="42.55842489481321" lon="12.537817120802897"><ele>115.0</ele><time>2026-04-19T16:39:58.88Z</time></trkpt><trkpt lat="42.5582215644495" lon="12.537534685220164"><ele>116.0</ele><time>2026-04-19T16:39:59.88Z</time></trkpt><trkpt lat="42.55799627969455" lon="12.537258520642704"><ele>115.0</ele><time>2026-04-19T16:40:00.88Z</time></trkpt><trkpt lat="42.55775163953425" lon="12.536996424262686"><ele>114.0</ele><time>2026-04-19T16:40:01.88Z</time></trkpt><trkpt lat="42.557503935558174" lon="12.536731040641905"><ele>114.0</ele><time>2026-04-19T16:40:02.88Z</time></trkpt><trkpt lat="42.557247559367596" lon="12.536485642635489"><ele>114.0</ele><time>2026-04-19T16:40:03.88Z</time></trkpt><trkpt lat="42.557022409350886" lon="12.536268047014964"><ele>115.0</ele><time>2026-04-19T16:40:04.88Z</time></trkpt><trkpt lat="42.556810092734814" lon="12.536065446811959"><ele>116.0</ele><time>2026-04-19T16:40:05.88Z</time></trkpt><trkpt lat="42.55654609122963" lon="12.535805184752533"><ele>116.0</ele><time>2026-04-19T16:40:06.879Z</time></trkpt><trkpt lat="42.55647606500544" lon="12.535705802192258"><ele>116.0</ele><time>2026-04-19T16:40:07.879Z</time></trkpt><trkpt lat="42.556253554251825" lon="12.535517479892775"><ele>116.0</ele><time>2026-04-19T16:40:08.879Z</time></trkpt><trkpt lat="42.55602918301599" lon="12.535317834828179"><ele>114.5</ele><time>2026-04-19T16:40:09.879Z</time></trkpt><trkpt lat="42.55580913421759" lon="12.535120815374597"><ele>113.0</ele><time>2026-04-19T16:40:10.879Z</time></trkpt><trkpt lat="42.55558919367136" lon="12.534926805188368"><ele>113.0</ele><time>2026-04-19T16:40:11.879Z</time></trkpt><trkpt lat="42.55536897225074" lon="12.534731991267595"><ele>113.0</ele><time>2026-04-19T16:40:12.879Z</time></trkpt><trkpt lat="42.555151096707014" lon="12.534536934465836"><ele>112.5</ele><time>2026-04-19T16:40:13.879Z</time></trkpt><trkpt lat="42.55492674062388" lon="12.53434667955282"><ele>112.0</ele><time>2026-04-19T16:40:14.879Z</time></trkpt><trkpt lat="42.554709169781724" lon="12.534151943142332"><ele>111.5</ele><time>2026-04-19T16:40:15.879Z</time></trkpt><trkpt lat="42.55449264435036" lon="12.533960232312527"><ele>111.0</ele><time>2026-04-19T16:40:16.879Z</time></trkpt><trkpt lat="42.55427940257479" lon="12.533767868185116"><ele>110.5</ele><time>2026-04-19T16:40:17.879Z</time></trkpt><trkpt lat="42.55406344058026" lon="12.533574254593994"><ele>110.0</ele><time>2026-04-19T16:40:18.879Z</time></trkpt><trkpt lat="42.55384873129274" lon="12.53337605671084"><ele>110.5</ele><time>2026-04-19T16:40:19.879Z</time></trkpt><trkpt lat="42.55363754429693" lon="12.533184642498018"><ele>111.0</ele><time>2026-04-19T16:40:20.879Z</time></trkpt><trkpt lat="42.55342784939274" lon="12.532982534169182"><ele>111.0</ele><time>2026-04-19T16:40:21.879Z</time></trkpt><trkpt lat="42.55322788455189" lon="12.532763882512137"><ele>111.0</ele><time>2026-04-19T16:40:22.879Z</time></trkpt><trkpt lat="42.553035399253176" lon="12.532534708843615"><ele>110.5</ele><time>2026-04-19T16:40:23.879Z</time></trkpt><trkpt lat="42.55285225808792" lon="12.532289258659178"><ele>110.0</ele><time>2026-04-19T16:40:24.879Z</time></trkpt><trkpt lat="42.5526728718522" lon="12.532029110070376"><ele>110.0</ele><time>2026-04-19T16:40:25.879Z</time></trkpt><trkpt lat="42.552498488999845" lon="12.531753409787378"><ele>110.0</ele><time>2026-04-19T16:40:26.879Z</time></trkpt><trkpt lat="42.5523391705649" lon="12.531458589048171"><ele>110.5</ele><time>2026-04-19T16:40:27.879Z</time></trkpt><trkpt lat="42.55218831285099" lon="12.531151813371894"><ele>111.0</ele><time>2026-04-19T16:40:28.879Z</time></trkpt><trkpt lat="42.55206995409856" lon="12.53081838274981"><ele>110.0</ele><time>2026-04-19T16:40:29.879Z</time></trkpt><trkpt lat="42.5519386399187" lon="12.530504151753664"><ele>109.0</ele><time>2026-04-19T16:40:30.878Z</time></trkpt><trkpt lat="42.551811838627486" lon="12.530192129415164"><ele>109.0</ele><time>2026-04-19T16:40:31.878Z</time></trkpt><trkpt lat="42.55167927141946" lon="12.529879260632123"><ele>109.0</ele><time>2026-04-19T16:40:32.878Z</time></trkpt><trkpt lat="42.55154392848259" lon="12.529559790286282"><ele>109.0</ele><time>2026-04-19T16:40:33.878Z</time></trkpt><trkpt lat="42.551398668783975" lon="12.529232456285344"><ele>109.0</ele><time>2026-04-19T16:40:34.878Z</time></trkpt><trkpt lat="42.551249914789054" lon="12.528891804841583"><ele>108.0</ele><time>2026-04-19T16:40:35.878Z</time></trkpt><trkpt lat="42.551104747362935" lon="12.528550300703682"><ele>107.0</ele><time>2026-04-19T16:40:36.878Z</time></trkpt><trkpt lat="42.55096412393918" lon="12.52820529376675"><ele>108.5</ele><time>2026-04-19T16:40:37.878Z</time></trkpt><trkpt lat="42.55081885468648" lon="12.527847736850887"><ele>110.0</ele><time>2026-04-19T16:40:38.878Z</time></trkpt><trkpt lat="42.5506740767021" lon="12.527492004483939"><ele>110.0</ele><time>2026-04-19T16:40:39.878Z</time></trkpt><trkpt lat="42.55053223293359" lon="12.527147880899035"><ele>110.0</ele><time>2026-04-19T16:40:40.878Z</time></trkpt><trkpt lat="42.550394154128746" lon="12.52681324366236"><ele>107.0</ele><time>2026-04-19T16:40:41.878Z</time></trkpt><trkpt lat="42.55025318616366" lon="12.526474202210364"><ele>104.0</ele><time>2026-04-19T16:40:42.878Z</time></trkpt><trkpt lat="42.5501135310999" lon="12.526140807322722"><ele>104.0</ele><time>2026-04-19T16:40:43.878Z</time></trkpt><trkpt lat="42.54997736482205" lon="12.525803697271531"><ele>104.0</ele><time>2026-04-19T16:40:44.878Z</time></trkpt><trkpt lat="42.5498325644441" lon="12.525465611234985"><ele>105.0</ele><time>2026-04-19T16:40:45.878Z</time></trkpt><trkpt lat="42.54968650288547" lon="12.525133042272738"><ele>106.0</ele><time>2026-04-19T16:40:46.878Z</time></trkpt><trkpt lat="42.54953957112322" lon="12.524817962301757"><ele>106.5</ele><time>2026-04-19T16:40:47.878Z</time></trkpt><trkpt lat="42.54939185339636" lon="12.524527912350086"><ele>107.0</ele><time>2026-04-19T16:40:48.878Z</time></trkpt><trkpt lat="42.549246054693135" lon="12.52426443166858"><ele>107.0</ele><time>2026-04-19T16:40:49.878Z</time></trkpt><trkpt lat="42.54909585863946" lon="12.524005488914822"><ele>107.0</ele><time>2026-04-19T16:40:50.878Z</time></trkpt><trkpt lat="42.54893417751401" lon="12.523749541828062"><ele>107.5</ele><time>2026-04-19T16:40:51.878Z</time></trkpt><trkpt lat="42.54876371036042" lon="12.523490384354337"><ele>108.0</ele><time>2026-04-19T16:40:52.878Z</time></trkpt><trkpt lat="42.54858519052561" lon="12.52323057506427"><ele>110.0</ele><time>2026-04-19T16:40:53.878Z</time></trkpt><trkpt lat="42.548401227533155" lon="12.522976357540296"><ele>112.0</ele><time>2026-04-19T16:40:54.877Z</time></trkpt><trkpt lat="42.548213038141554" lon="12.52272747703079"><ele>112.0</ele><time>2026-04-19T16:40:55.877Z</time></trkpt><trkpt lat="42.548016030721655" lon="12.522490988356806"><ele>112.0</ele><time>2026-04-19T16:40:56.877Z</time></trkpt><trkpt lat="42.54781253331823" lon="12.522258233898292"><ele>115.0</ele><time>2026-04-19T16:40:57.877Z</time></trkpt><trkpt lat="42.54759384562121" lon="12.522032628883355"><ele>118.0</ele><time>2026-04-19T16:40:58.877Z</time></trkpt><trkpt lat="42.54736926943907" lon="12.521805014046837"><ele>118.0</ele><time>2026-04-19T16:40:59.877Z</time></trkpt><trkpt lat="42.54714238476513" lon="12.521577725752291"><ele>118.0</ele><time>2026-04-19T16:41:00.877Z</time></trkpt><trkpt lat="42.54690737947369" lon="12.521362262106749"><ele>121.5</ele><time>2026-04-19T16:41:01.877Z</time></trkpt><trkpt lat="42.54667021201345" lon="12.521160730352877"><ele>125.0</ele><time>2026-04-19T16:41:02.877Z</time></trkpt><trkpt lat="42.54643791194058" lon="12.52096778429301"><ele>122.5</ele><time>2026-04-19T16:41:03.877Z</time></trkpt><trkpt lat="42.546208282636414" lon="12.520774753328082"><ele>120.0</ele><time>2026-04-19T16:41:04.877Z</time></trkpt><trkpt lat="42.545979919104056" lon="12.520587244122309"><ele>120.0</ele><time>2026-04-19T16:41:05.877Z</time></trkpt><trkpt lat="42.545771335087615" lon="12.520410237667583"><ele>120.0</ele><time>2026-04-19T16:41:06.877Z</time></trkpt><trkpt lat="42.54558379618255" lon="12.520248118868647"><ele>123.33333333333334</ele><time>2026-04-19T16:41:07.877Z</time></trkpt><trkpt lat="42.54541211303921" lon="12.52010000564892"><ele>126.66666666666667</ele><time>2026-04-19T16:41:08.877Z</time></trkpt><trkpt lat="42.54525717511792" lon="12.51997119365754"><ele>130.0</ele><time>2026-04-19T16:41:09.877Z</time></trkpt><trkpt lat="42.545119015058155" lon="12.519855505708923"><ele>130.0</ele><time>2026-04-19T16:41:10.877Z</time></trkpt><trkpt lat="42.54499379395473" lon="12.519752268651082"><ele>130.0</ele><time>2026-04-19T16:41:11.877Z</time></trkpt><trkpt lat="42.54487856935242" lon="12.51965503930397"><ele>130.0</ele><time>2026-04-19T16:41:12.877Z</time></trkpt><trkpt lat="42.544777103057704" lon="12.51956258685317"><ele>130.0</ele><time>2026-04-19T16:41:13.877Z</time></trkpt><trkpt lat="42.54468919234173" lon="12.519489086167546"><ele>131.0</ele><time>2026-04-19T16:41:14.877Z</time></trkpt><trkpt lat="42.544606858340984" lon="12.519422285039804"><ele>132.0</ele><time>2026-04-19T16:41:15.877Z</time></trkpt><trkpt lat="42.544529344030686" lon="12.519362394559929"><ele>133.0</ele><time>2026-04-19T16:41:16.877Z</time></trkpt><trkpt lat="42.544448801573395" lon="12.519294771581148"><ele>134.0</ele><time>2026-04-19T16:41:17.877Z</time></trkpt><trkpt lat="42.544368747201965" lon="12.51922344491541"><ele>135.0</ele><time>2026-04-19T16:41:18.876Z</time></trkpt><trkpt lat="42.5442843854375" lon="12.519150070162969"><ele>135.0</ele><time>2026-04-19T16:41:19.876Z</time></trkpt><trkpt lat="42.544198367992095" lon="12.519072042032613"><ele>135.0</ele><time>2026-04-19T16:41:20.876Z</time></trkpt><trkpt lat="42.54410807839431" lon="12.51899711451864"><ele>135.0</ele><time>2026-04-19T16:41:21.876Z</time></trkpt><trkpt lat="42.544022444127236" lon="12.518925764729836"><ele>135.0</ele><time>2026-04-19T16:41:22.876Z</time></trkpt><trkpt lat="42.543934748055385" lon="12.51885729379099"><ele>135.0</ele><time>2026-04-19T16:41:23.876Z</time></trkpt><trkpt lat="42.54385016031395" lon="12.518787977011904"><ele>135.5</ele><time>2026-04-19T16:41:24.876Z</time></trkpt><trkpt lat="42.543774100111555" lon="12.518726623467698"><ele>136.0</ele><time>2026-04-19T16:41:25.876Z</time></trkpt><trkpt lat="42.54369437913791" lon="12.518661891843015"><ele>136.5</ele><time>2026-04-19T16:41:26.876Z</time></trkpt><trkpt lat="42.54361889240003" lon="12.518600559122936"><ele>137.0</ele><time>2026-04-19T16:41:27.876Z</time></trkpt><trkpt lat="42.543549287987595" lon="12.518549520360635"><ele>137.5</ele><time>2026-04-19T16:41:28.876Z</time></trkpt><trkpt lat="42.54347915643356" lon="12.518486127044746"><ele>138.0</ele><time>2026-04-19T16:41:29.876Z</time></trkpt><trkpt lat="42.543411893169456" lon="12.518417368546688"><ele>138.0</ele><time>2026-04-19T16:41:30.876Z</time></trkpt><trkpt lat="42.54334216159083" lon="12.518356791954233"><ele>138.0</ele><time>2026-04-19T16:41:31.876Z</time></trkpt><trkpt lat="42.54326612116164" lon="12.51829711415533"><ele>138.0</ele><time>2026-04-19T16:41:32.876Z</time></trkpt><trkpt lat="42.54320077394397" lon="12.518241036832126"><ele>138.0</ele><time>2026-04-19T16:41:33.875Z</time></trkpt><trkpt lat="42.543139487090166" lon="12.518187916077457"><ele>138.0</ele><time>2026-04-19T16:41:34.874Z</time></trkpt><trkpt lat="42.54308155679778" lon="12.518135717634248"><ele>138.0</ele><time>2026-04-19T16:41:35.872Z</time></trkpt><trkpt lat="42.5430162292457" lon="12.518082397414009"><ele>138.0</ele><time>2026-04-19T16:41:36.871Z</time></trkpt><trkpt lat="42.54295348410364" lon="12.518030080669218"><ele>138.0</ele><time>2026-04-19T16:41:37.87Z</time></trkpt><trkpt lat="42.542898358749" lon="12.517984758137612"><ele>138.0</ele><time>2026-04-19T16:41:38.868Z</time></trkpt><trkpt lat="42.54282354211584" lon="12.517914712107123"><ele>138.0</ele><time>2026-04-19T16:41:40.866Z</time></trkpt><trkpt lat="42.542766278058366" lon="12.51786826379129"><ele>138.0</ele><time>2026-04-19T16:41:42.864Z</time></trkpt><trkpt lat="42.54268459370769" lon="12.517798841528482"><ele>138.0</ele><time>2026-04-19T16:41:45.862Z</time></trkpt><trkpt lat="42.54262552071059" lon="12.517741248383011"><ele>139.16666666666666</ele><time>2026-04-19T16:41:47.862Z</time></trkpt><trkpt lat="42.54256325596159" lon="12.517678687303544"><ele>140.33333333333334</ele><time>2026-04-19T16:41:49.861Z</time></trkpt><trkpt lat="42.54249157877487" lon="12.51762501477073"><ele>141.5</ele><time>2026-04-19T16:41:51.859Z</time></trkpt><trkpt lat="42.54241663989152" lon="12.517558664070542"><ele>142.66666666666669</ele><time>2026-04-19T16:41:53.859Z</time></trkpt><trkpt lat="42.54234038031836" lon="12.517476262147811"><ele>143.83333333333334</ele><time>2026-04-19T16:41:55.858Z</time></trkpt><trkpt lat="42.54225963271132" lon="12.517397847418312"><ele>145.0</ele><time>2026-04-19T16:41:57.857Z</time></trkpt><trkpt lat="42.54220605838966" lon="12.51733792325803"><ele>145.0</ele><time>2026-04-19T16:41:59.856Z</time></trkpt><trkpt lat="42.54215816325446" lon="12.517279297296346"><ele>145.0</ele><time>2026-04-19T16:42:01.856Z</time></trkpt><trkpt lat="42.54209981398292" lon="12.517180977738338"><ele>145.0</ele><time>2026-04-19T16:42:03.855Z</time></trkpt><trkpt lat="42.54202685140142" lon="12.517091989254823"><ele>145.0</ele><time>2026-04-19T16:42:05.855Z</time></trkpt><trkpt lat="42.54195588572627" lon="12.517041203170544"><ele>145.0</ele><time>2026-04-19T16:42:07.854Z</time></trkpt><trkpt lat="42.54190231462079" lon="12.516989238215283"><ele>145.0</ele><time>2026-04-19T16:42:08.854Z</time></trkpt><trkpt lat="42.54184700526676" lon="12.516927443848838"><ele>146.0</ele><time>2026-04-19T16:42:09.854Z</time></trkpt><trkpt lat="42.541788304698166" lon="12.516842980385372"><ele>147.0</ele><time>2026-04-19T16:42:10.853Z</time></trkpt><trkpt lat="42.54174378625459" lon="12.516771675473377"><ele>148.0</ele><time>2026-04-19T16:42:11.853Z</time></trkpt><trkpt lat="42.541690061209685" lon="12.516685748862717"><ele>149.0</ele><time>2026-04-19T16:42:13.853Z</time></trkpt><trkpt lat="42.54162134402581" lon="12.516592270575186"><ele>150.0</ele><time>2026-04-19T16:42:15.853Z</time></trkpt><trkpt lat="42.54155940475288" lon="12.516505034923128"><ele>151.0</ele><time>2026-04-19T16:42:17.852Z</time></trkpt><trkpt lat="42.541493268185036" lon="12.516400532597734"><ele>151.0</ele><time>2026-04-19T16:42:19.852Z</time></trkpt><trkpt lat="42.54143483850986" lon="12.516304278512989"><ele>151.0</ele><time>2026-04-19T16:42:21.852Z</time></trkpt><trkpt lat="42.54138380608585" lon="12.516218895107786"><ele>151.0</ele><time>2026-04-19T16:42:23.852Z</time></trkpt><trkpt lat="42.5413183409888" lon="12.516084336348845"><ele>151.0</ele><time>2026-04-19T16:42:25.851Z</time></trkpt><trkpt lat="42.54128418036537" lon="12.516011346112187"><ele>151.0</ele><time>2026-04-19T16:42:26.851Z</time></trkpt><trkpt lat="42.541225055426295" lon="12.51587563699083"><ele>152.0</ele><time>2026-04-19T16:42:28.851Z</time></trkpt><trkpt lat="42.54117912032998" lon="12.515786165487569"><ele>153.0</ele><time>2026-04-19T16:42:30.851Z</time></trkpt><trkpt lat="42.54115124561781" lon="12.515705628593288"><ele>154.0</ele><time>2026-04-19T16:42:32.851Z</time></trkpt><trkpt lat="42.541105559536106" lon="12.515614988068801"><ele>155.0</ele><time>2026-04-19T16:42:34.851Z</time></trkpt><trkpt lat="42.541045996493665" lon="12.515531026488153"><ele>156.0</ele><time>2026-04-19T16:42:36.85Z</time></trkpt><trkpt lat="42.540982364448666" lon="12.515366220764289"><ele>157.0</ele><time>2026-04-19T16:42:38.85Z</time></trkpt><trkpt lat="42.54094611875831" lon="12.515249241556615"><ele>158.0</ele><time>2026-04-19T16:42:39.85Z</time></trkpt><trkpt lat="42.54091630133702" lon="12.51515139470445"><ele>159.0</ele><time>2026-04-19T16:42:40.85Z</time></trkpt><trkpt lat="42.54086672240854" lon="12.515003434138508"><ele>160.0</ele><time>2026-04-19T16:42:42.85Z</time></trkpt><trkpt lat="42.54083897958945" lon="12.514923830249534"><ele>161.0</ele><time>2026-04-19T16:42:43.85Z</time></trkpt><trkpt lat="42.5408105751872" lon="12.51483976911793"><ele>162.0</ele><time>2026-04-19T16:42:44.85Z</time></trkpt><trkpt lat="42.54078561993686" lon="12.51474411822971"><ele>162.0</ele><time>2026-04-19T16:42:45.85Z</time></trkpt><trkpt lat="42.5407606354621" lon="12.514630010119577"><ele>162.0</ele><time>2026-04-19T16:42:46.85Z</time></trkpt><trkpt lat="42.54074264279228" lon="12.514545824874315"><ele>162.0</ele><time>2026-04-19T16:42:47.85Z</time></trkpt><trkpt lat="42.540724230658014" lon="12.514398880646052"><ele>162.0</ele><time>2026-04-19T16:42:49.85Z</time></trkpt><trkpt lat="42.54070536836853" lon="12.51428022688759"><ele>162.0</ele><time>2026-04-19T16:42:51.849Z</time></trkpt><trkpt lat="42.5406784549359" lon="12.514199491118426"><ele>162.0</ele><time>2026-04-19T16:42:52.849Z</time></trkpt><trkpt lat="42.540656402095536" lon="12.514052768029725"><ele>162.2</ele><time>2026-04-19T16:42:54.849Z</time></trkpt><trkpt lat="42.54064735583997" lon="12.513910000230595"><ele>162.39999999999998</ele><time>2026-04-19T16:42:56.849Z</time></trkpt><trkpt lat="42.540618520870346" lon="12.513740719182934"><ele>162.60000000000002</ele><time>2026-04-19T16:42:58.849Z</time></trkpt><trkpt lat="42.54060993555115" lon="12.51363159095496"><ele>162.8</ele><time>2026-04-19T16:42:59.849Z</time></trkpt><trkpt lat="42.54060272889958" lon="12.513520797525711"><ele>163.0</ele><time>2026-04-19T16:43:00.849Z</time></trkpt><trkpt lat="42.540595582288795" lon="12.513432319084485"><ele>163.0</ele><time>2026-04-19T16:43:01.849Z</time></trkpt><trkpt lat="42.54058448844133" lon="12.513315235990424"><ele>163.0</ele><time>2026-04-19T16:43:03.849Z</time></trkpt><trkpt lat="42.54055667312512" lon="12.513186649072319"><ele>163.0</ele><time>2026-04-19T16:43:05.849Z</time></trkpt><trkpt lat="42.5405427946158" lon="12.513065071832516"><ele>163.0</ele><time>2026-04-19T16:43:07.849Z</time></trkpt><trkpt lat="42.54053400002255" lon="12.512972946579207"><ele>163.0</ele><time>2026-04-19T16:43:09.849Z</time></trkpt><trkpt lat="42.54052624797582" lon="12.512868343386137"><ele>163.0</ele><time>2026-04-19T16:43:12.848Z</time></trkpt><trkpt lat="42.540509402433834" lon="12.512725888027784"><ele>161.83333333333334</ele><time>2026-04-19T16:43:14.848Z</time></trkpt><trkpt lat="42.54049711713245" lon="12.512609551225083"><ele>160.66666666666669</ele><time>2026-04-19T16:43:16.848Z</time></trkpt><trkpt lat="42.5404831498112" lon="12.512502175475621"><ele>159.5</ele><time>2026-04-19T16:43:18.848Z</time></trkpt><trkpt lat="42.54046832323246" lon="12.512399040584018"><ele>158.33333333333334</ele><time>2026-04-19T16:43:20.848Z</time></trkpt><trkpt lat="42.54045721765803" lon="12.512279307013689"><ele>157.16666666666666</ele><time>2026-04-19T16:43:22.848Z</time></trkpt><trkpt lat="42.54044668471547" lon="12.512153963184813"><ele>156.0</ele><time>2026-04-19T16:43:24.848Z</time></trkpt><trkpt lat="42.54043977395816" lon="12.512035451309243"><ele>153.66666666666666</ele><time>2026-04-19T16:43:26.848Z</time></trkpt><trkpt lat="42.5404303925529" lon="12.511888710277546"><ele>151.33333333333334</ele><time>2026-04-19T16:43:28.848Z</time></trkpt><trkpt lat="42.54041979399582" lon="12.511753259830765"><ele>149.0</ele><time>2026-04-19T16:43:30.847Z</time></trkpt><trkpt lat="42.540408224405695" lon="12.511628839517336"><ele>146.66666666666669</ele><time>2026-04-19T16:43:32.847Z</time></trkpt><trkpt lat="42.54039614448374" lon="12.511544722334154"><ele>144.33333333333334</ele><time>2026-04-19T16:43:34.847Z</time></trkpt><trkpt lat="42.54038187032984" lon="12.511450408036207"><ele>142.0</ele><time>2026-04-19T16:43:37.847Z</time></trkpt><trkpt lat="42.54038540399202" lon="12.51136391708367"><ele>141.83333333333334</ele><time>2026-04-19T16:43:41.847Z</time></trkpt><trkpt lat="42.54036916635865" lon="12.511257183438735"><ele>141.66666666666669</ele><time>2026-04-19T16:43:45.847Z</time></trkpt><trkpt lat="42.540353735754444" lon="12.51116036957606"><ele>141.5</ele><time>2026-04-19T16:43:48.847Z</time></trkpt><trkpt lat="42.54033584123765" lon="12.511048305576804"><ele>141.33333333333334</ele><time>2026-04-19T16:43:51.846Z</time></trkpt><trkpt lat="42.54030995164251" lon="12.51090532663574"><ele>141.16666666666666</ele><time>2026-04-19T16:43:54.848Z</time></trkpt><trkpt lat="42.54029864136698" lon="12.510794712069048"><ele>141.0</ele><time>2026-04-19T16:43:55.848Z</time></trkpt><trkpt lat="42.54028314249747" lon="12.510675936806368"><ele>139.0</ele><time>2026-04-19T16:43:56.849Z</time></trkpt><trkpt lat="42.54027351172297" lon="12.510552963973936"><ele>137.0</ele><time>2026-04-19T16:43:57.849Z</time></trkpt><trkpt lat="42.54026502456638" lon="12.510432916613015"><ele>135.0</ele><time>2026-04-19T16:43:58.848Z</time></trkpt><trkpt lat="42.54025970124946" lon="12.510326173963985"><ele>133.0</ele><time>2026-04-19T16:43:59.848Z</time></trkpt><trkpt lat="42.54025108444281" lon="12.510225014938937"><ele>131.0</ele><time>2026-04-19T16:44:00.848Z</time></trkpt><trkpt lat="42.54024171103521" lon="12.51008775495506"><ele>129.0</ele><time>2026-04-19T16:44:02.848Z</time></trkpt><trkpt lat="42.54023875018005" lon="12.50995424164971"><ele>129.0</ele><time>2026-04-19T16:44:05.848Z</time></trkpt><trkpt lat="42.54024222079495" lon="12.509776642820167"><ele>129.0</ele><time>2026-04-19T16:44:07.848Z</time></trkpt><trkpt lat="42.54021906737324" lon="12.509663774061332"><ele>129.0</ele><time>2026-04-19T16:44:08.848Z</time></trkpt><trkpt lat="42.54019724678068" lon="12.50954677638582"><ele>129.0</ele><time>2026-04-19T16:44:09.848Z</time></trkpt><trkpt lat="42.54019234020788" lon="12.50944498866229"><ele>129.0</ele><time>2026-04-19T16:44:10.848Z</time></trkpt><trkpt lat="42.54018600215905" lon="12.509346341863676"><ele>130.33333333333334</ele><time>2026-04-19T16:44:11.848Z</time></trkpt><trkpt lat="42.54017694642729" lon="12.509244719269034"><ele>131.66666666666666</ele><time>2026-04-19T16:44:12.848Z</time></trkpt><trkpt lat="42.54016931360554" lon="12.509146411811969"><ele>133.0</ele><time>2026-04-19T16:44:13.848Z</time></trkpt><trkpt lat="42.54016270568658" lon="12.509050763428688"><ele>134.33333333333331</ele><time>2026-04-19T16:44:14.848Z</time></trkpt><trkpt lat="42.5401546513486" lon="12.508964174223026"><ele>135.66666666666666</ele><time>2026-04-19T16:44:15.848Z</time></trkpt><trkpt lat="42.540145217877225" lon="12.508815899962933"><ele>137.0</ele><time>2026-04-19T16:44:17.847Z</time></trkpt><trkpt lat="42.540129455779976" lon="12.508642809215335"><ele>138.5</ele><time>2026-04-19T16:44:19.847Z</time></trkpt><trkpt lat="42.54012326090375" lon="12.508555143331689"><ele>140.0</ele><time>2026-04-19T16:44:20.847Z</time></trkpt><trkpt lat="42.540114500972685" lon="12.508467621608247"><ele>141.5</ele><time>2026-04-19T16:44:21.847Z</time></trkpt><trkpt lat="42.54009892378294" lon="12.508297906534171"><ele>143.0</ele><time>2026-04-19T16:44:23.847Z</time></trkpt><trkpt lat="42.540089988306015" lon="12.508207634102185"><ele>144.5</ele><time>2026-04-19T16:44:24.847Z</time></trkpt><trkpt lat="42.540077161312844" lon="12.50805328102112"><ele>146.0</ele><time>2026-04-19T16:44:26.847Z</time></trkpt><trkpt lat="42.54006586792799" lon="12.5079339917323"><ele>149.0</ele><time>2026-04-19T16:44:28.847Z</time></trkpt><trkpt lat="42.5400566375569" lon="12.507836258463303"><ele>152.0</ele><time>2026-04-19T16:44:30.847Z</time></trkpt><trkpt lat="42.54004572457074" lon="12.507733684798232"><ele>155.0</ele><time>2026-04-19T16:44:32.847Z</time></trkpt><trkpt lat="42.54002905754632" lon="12.50762765761321"><ele>158.0</ele><time>2026-04-19T16:44:34.847Z</time></trkpt><trkpt lat="42.54001666222021" lon="12.507491975660244"><ele>161.0</ele><time>2026-04-19T16:44:36.847Z</time></trkpt><trkpt lat="42.5400019140974" lon="12.507323738765812"><ele>161.0</ele><time>2026-04-19T16:44:38.847Z</time></trkpt><trkpt lat="42.539986393906275" lon="12.507185499748442"><ele>161.0</ele><time>2026-04-19T16:44:40.846Z</time></trkpt><trkpt lat="42.539975481346005" lon="12.507063688154176"><ele>161.0</ele><time>2026-04-19T16:44:42.846Z</time></trkpt><trkpt lat="42.53996699382337" lon="12.506956957143073"><ele>161.0</ele><time>2026-04-19T16:44:44.846Z</time></trkpt><trkpt lat="42.5399568629508" lon="12.506855783428353"><ele>161.0</ele><time>2026-04-19T16:44:46.846Z</time></trkpt><trkpt lat="42.539946481001245" lon="12.506724731995764"><ele>161.0</ele><time>2026-04-19T16:44:48.846Z</time></trkpt><trkpt lat="42.53994213309503" lon="12.50663630176147"><ele>163.33333333333331</ele><time>2026-04-19T16:44:49.846Z</time></trkpt><trkpt lat="42.53993799705102" lon="12.506533034389136"><ele>165.66666666666666</ele><time>2026-04-19T16:44:50.846Z</time></trkpt><trkpt lat="42.53992887419398" lon="12.506429397814852"><ele>168.0</ele><time>2026-04-19T16:44:51.846Z</time></trkpt><trkpt lat="42.53991939071635" lon="12.506320763049285"><ele>170.33333333333334</ele><time>2026-04-19T16:44:52.846Z</time></trkpt><trkpt lat="42.539905342479535" lon="12.506209275041474"><ele>172.66666666666669</ele><time>2026-04-19T16:44:53.846Z</time></trkpt><trkpt lat="42.53988844206572" lon="12.506108141006436"><ele>175.0</ele><time>2026-04-19T16:44:54.846Z</time></trkpt><trkpt lat="42.539875420348736" lon="12.50600280506628"><ele>176.8</ele><time>2026-04-19T16:44:55.846Z</time></trkpt><trkpt lat="42.539864219835984" lon="12.505888483845922"><ele>178.6</ele><time>2026-04-19T16:44:56.846Z</time></trkpt><trkpt lat="42.53984916801028" lon="12.505764747941125"><ele>180.39999999999998</ele><time>2026-04-19T16:44:57.846Z</time></trkpt><trkpt lat="42.53983786032495" lon="12.505626968674203"><ele>182.2</ele><time>2026-04-19T16:44:58.846Z</time></trkpt><trkpt lat="42.53982719649671" lon="12.505489085678256"><ele>184.0</ele><time>2026-04-19T16:44:59.846Z</time></trkpt><trkpt lat="42.539812992023236" lon="12.505337107554782"><ele>185.0</ele><time>2026-04-19T16:45:00.845Z</time></trkpt><trkpt lat="42.539800857369386" lon="12.505177999451051"><ele>186.0</ele><time>2026-04-19T16:45:01.845Z</time></trkpt><trkpt lat="42.53978802028632" lon="12.505015725714758"><ele>187.0</ele><time>2026-04-19T16:45:02.845Z</time></trkpt><trkpt lat="42.53977926207512" lon="12.504859985740836"><ele>188.0</ele><time>2026-04-19T16:45:03.845Z</time></trkpt><trkpt lat="42.53976699812531" lon="12.504699921617258"><ele>188.75</ele><time>2026-04-19T16:45:04.845Z</time></trkpt><trkpt lat="42.539751783426624" lon="12.504531300481549"><ele>189.5</ele><time>2026-04-19T16:45:05.845Z</time></trkpt><trkpt lat="42.53973630502541" lon="12.504334733251119"><ele>190.25</ele><time>2026-04-19T16:45:06.845Z</time></trkpt><trkpt lat="42.53972676004695" lon="12.504125053750666"><ele>191.0</ele><time>2026-04-19T16:45:07.845Z</time></trkpt><trkpt lat="42.53972206492073" lon="12.50391070026233"><ele>192.33333333333331</ele><time>2026-04-19T16:45:08.845Z</time></trkpt><trkpt lat="42.53972793461735" lon="12.503696780745724"><ele>193.66666666666666</ele><time>2026-04-19T16:45:09.845Z</time></trkpt><trkpt lat="42.53974294579365" lon="12.503484502185136"><ele>195.0</ele><time>2026-04-19T16:45:10.845Z</time></trkpt><trkpt lat="42.539761248309844" lon="12.503279242838467"><ele>195.0</ele><time>2026-04-19T16:45:11.845Z</time></trkpt><trkpt lat="42.53978388453031" lon="12.503087054054202"><ele>195.0</ele><time>2026-04-19T16:45:12.845Z</time></trkpt><trkpt lat="42.53980578333239" lon="12.502917407584423"><ele>195.0</ele><time>2026-04-19T16:45:13.845Z</time></trkpt><trkpt lat="42.53983326199557" lon="12.502757497125398"><ele>195.0</ele><time>2026-04-19T16:45:14.845Z</time></trkpt><trkpt lat="42.539861282764804" lon="12.502615100077572"><ele>196.0</ele><time>2026-04-19T16:45:15.845Z</time></trkpt><trkpt lat="42.53989091545173" lon="12.50248389781023"><ele>197.0</ele><time>2026-04-19T16:45:16.845Z</time></trkpt><trkpt lat="42.5399204817757" lon="12.502364491311669"><ele>198.0</ele><time>2026-04-19T16:45:17.845Z</time></trkpt><trkpt lat="42.539952993714394" lon="12.502244284787228"><ele>199.0</ele><time>2026-04-19T16:45:18.845Z</time></trkpt><trkpt lat="42.539987091928865" lon="12.502129226154969"><ele>200.0</ele><time>2026-04-19T16:45:19.845Z</time></trkpt><trkpt lat="42.54002449746377" lon="12.502017458030965"><ele>202.0</ele><time>2026-04-19T16:45:20.845Z</time></trkpt><trkpt lat="42.5400583921658" lon="12.501897082247536"><ele>204.0</ele><time>2026-04-19T16:45:21.844Z</time></trkpt><trkpt lat="42.54009835616393" lon="12.501789049263675"><ele>206.0</ele><time>2026-04-19T16:45:22.844Z</time></trkpt><trkpt lat="42.540142981385166" lon="12.50168160378045"><ele>208.0</ele><time>2026-04-19T16:45:23.844Z</time></trkpt><trkpt lat="42.540188320796794" lon="12.501574552541669"><ele>210.0</ele><time>2026-04-19T16:45:24.844Z</time></trkpt><trkpt lat="42.54023578532158" lon="12.501471508243378"><ele>210.0</ele><time>2026-04-19T16:45:25.844Z</time></trkpt><trkpt lat="42.54028679375379" lon="12.501366392382714"><ele>210.0</ele><time>2026-04-19T16:45:26.844Z</time></trkpt><trkpt lat="42.54033890656072" lon="12.501261615153517"><ele>210.0</ele><time>2026-04-19T16:45:27.844Z</time></trkpt><trkpt lat="42.540395429219735" lon="12.501159484153304"><ele>210.0</ele><time>2026-04-19T16:45:28.844Z</time></trkpt><trkpt lat="42.540452034931306" lon="12.501061067825875"><ele>210.0</ele><time>2026-04-19T16:45:29.844Z</time></trkpt><trkpt lat="42.540510560146" lon="12.500960367396733"><ele>210.6</ele><time>2026-04-19T16:45:30.844Z</time></trkpt><trkpt lat="42.54057117188711" lon="12.500861983662222"><ele>211.2</ele><time>2026-04-19T16:45:31.844Z</time></trkpt><trkpt lat="42.54062707867488" lon="12.500768137472756"><ele>211.8</ele><time>2026-04-19T16:45:32.844Z</time></trkpt><trkpt lat="42.54068748524965" lon="12.50068075600744"><ele>212.4</ele><time>2026-04-19T16:45:33.844Z</time></trkpt><trkpt lat="42.540749184638344" lon="12.50058912459453"><ele>213.0</ele><time>2026-04-19T16:45:34.844Z</time></trkpt><trkpt lat="42.54081992240865" lon="12.500489938490471"><ele>215.4</ele><time>2026-04-19T16:45:35.844Z</time></trkpt><trkpt lat="42.54089044421773" lon="12.50038740118569"><ele>217.8</ele><time>2026-04-19T16:45:36.844Z</time></trkpt><trkpt lat="42.540962957460565" lon="12.50028554431229"><ele>220.2</ele><time>2026-04-19T16:45:37.844Z</time></trkpt><trkpt lat="42.54103512003418" lon="12.500190634415894"><ele>222.6</ele><time>2026-04-19T16:45:38.844Z</time></trkpt><trkpt lat="42.541107928149096" lon="12.500097496234192"><ele>225.0</ele><time>2026-04-19T16:45:39.844Z</time></trkpt><trkpt lat="42.54117543047606" lon="12.499998231699092"><ele>225.2</ele><time>2026-04-19T16:45:40.844Z</time></trkpt><trkpt lat="42.54124810227015" lon="12.499901535005483"><ele>225.4</ele><time>2026-04-19T16:45:41.844Z</time></trkpt><trkpt lat="42.54131662635172" lon="12.499799804633302"><ele>225.60000000000002</ele><time>2026-04-19T16:45:42.843Z</time></trkpt><trkpt lat="42.541380950618596" lon="12.49970175057356"><ele>225.8</ele><time>2026-04-19T16:45:43.843Z</time></trkpt><trkpt lat="42.54142859985623" lon="12.499612628377733"><ele>226.0</ele><time>2026-04-19T16:45:44.843Z</time></trkpt><trkpt lat="42.541474073809596" lon="12.49952435447687"><ele>225.99999999999997</ele><time>2026-04-19T16:45:45.843Z</time></trkpt><trkpt lat="42.541520956659255" lon="12.499444928501642"><ele>226.0</ele><time>2026-04-19T16:45:46.843Z</time></trkpt><trkpt lat="42.541561846774115" lon="12.499357917774041"><ele>226.0</ele><time>2026-04-19T16:45:47.843Z</time></trkpt><trkpt lat="42.54159845426246" lon="12.499277440650086"><ele>226.0</ele><time>2026-04-19T16:45:48.843Z</time></trkpt><trkpt lat="42.54163173497438" lon="12.499202449271065"><ele>225.99999999999997</ele><time>2026-04-19T16:45:49.843Z</time></trkpt><trkpt lat="42.541697929925995" lon="12.49905887961178"><ele>226.0</ele><time>2026-04-19T16:45:51.843Z</time></trkpt><trkpt lat="42.54173525031344" lon="12.498980159542695"><ele>226.0</ele><time>2026-04-19T16:45:52.843Z</time></trkpt><trkpt lat="42.541783271553776" lon="12.498869101529587"><ele>226.00000000000003</ele><time>2026-04-19T16:45:53.843Z</time></trkpt><trkpt lat="42.541828539114356" lon="12.498730459842204"><ele>226.00000000000003</ele><time>2026-04-19T16:45:54.843Z</time></trkpt><trkpt lat="42.541858429823" lon="12.498605094838657"><ele>226.0</ele><time>2026-04-19T16:45:55.843Z</time></trkpt><trkpt lat="42.54188322316313" lon="12.498503335673291"><ele>226.0</ele><time>2026-04-19T16:45:56.843Z</time></trkpt><trkpt lat="42.54192041002823" lon="12.498346106362078"><ele>223.66666666666666</ele><time>2026-04-19T16:45:58.845Z</time></trkpt><trkpt lat="42.541957360928734" lon="12.498197411950287"><ele>221.33333333333331</ele><time>2026-04-19T16:46:00.844Z</time></trkpt><trkpt lat="42.54197670772958" lon="12.49808872169183"><ele>219.0</ele><time>2026-04-19T16:46:01.844Z</time></trkpt><trkpt lat="42.54200235774027" lon="12.497977749287902"><ele>216.66666666666669</ele><time>2026-04-19T16:46:02.845Z</time></trkpt><trkpt lat="42.54201944627522" lon="12.497872348702755"><ele>214.33333333333334</ele><time>2026-04-19T16:46:03.845Z</time></trkpt><trkpt lat="42.542029217370256" lon="12.497780214770453"><ele>212.0</ele><time>2026-04-19T16:46:04.845Z</time></trkpt><trkpt lat="42.54205880418126" lon="12.497623228267843"><ele>212.00000000000003</ele><time>2026-04-19T16:46:06.845Z</time></trkpt><trkpt lat="42.54208111311131" lon="12.497456859189976"><ele>212.0</ele><time>2026-04-19T16:46:08.844Z</time></trkpt><trkpt lat="42.54209186574784" lon="12.497372339853001"><ele>212.0</ele><time>2026-04-19T16:46:09.844Z</time></trkpt><trkpt lat="42.542110900694055" lon="12.497202273646336"><ele>212.0</ele><time>2026-04-19T16:46:11.845Z</time></trkpt><trkpt lat="42.54211697819828" lon="12.497115926214057"><ele>212.00000000000003</ele><time>2026-04-19T16:46:12.845Z</time></trkpt><trkpt lat="42.54212543168445" lon="12.497027542136758"><ele>212.0</ele><time>2026-04-19T16:46:13.845Z</time></trkpt><trkpt lat="42.54213387266665" lon="12.496934279960987"><ele>212.83333333333334</ele><time>2026-04-19T16:46:14.845Z</time></trkpt><trkpt lat="42.54214289853773" lon="12.49683942184048"><ele>213.66666666666669</ele><time>2026-04-19T16:46:15.844Z</time></trkpt><trkpt lat="42.54215119277429" lon="12.496741524900548"><ele>214.5</ele><time>2026-04-19T16:46:16.844Z</time></trkpt><trkpt lat="42.542158954982355" lon="12.49663401353372"><ele>215.33333333333331</ele><time>2026-04-19T16:46:17.844Z</time></trkpt><trkpt lat="42.54216678621485" lon="12.496519271778583"><ele>216.16666666666666</ele><time>2026-04-19T16:46:18.844Z</time></trkpt><trkpt lat="42.542179336931206" lon="12.496406727357137"><ele>217.0</ele><time>2026-04-19T16:46:19.844Z</time></trkpt><trkpt lat="42.54218790572711" lon="12.496293173031013"><ele>218.16666666666666</ele><time>2026-04-19T16:46:20.844Z</time></trkpt><trkpt lat="42.54219901020889" lon="12.496176550267586"><ele>219.33333333333331</ele><time>2026-04-19T16:46:21.844Z</time></trkpt><trkpt lat="42.54220515724135" lon="12.496058304539215"><ele>220.5</ele><time>2026-04-19T16:46:22.844Z</time></trkpt><trkpt lat="42.54221357257652" lon="12.4959425313618"><ele>221.66666666666669</ele><time>2026-04-19T16:46:23.844Z</time></trkpt><trkpt lat="42.54222444275833" lon="12.495819782541446"><ele>222.83333333333334</ele><time>2026-04-19T16:46:24.844Z</time></trkpt><trkpt lat="42.542234193246244" lon="12.495690586856732"><ele>224.0</ele><time>2026-04-19T16:46:25.844Z</time></trkpt><trkpt lat="42.542242188963606" lon="12.495560893705845"><ele>224.0</ele><time>2026-04-19T16:46:26.844Z</time></trkpt><trkpt lat="42.54225152833547" lon="12.495433958192404"><ele>223.99999999999997</ele><time>2026-04-19T16:46:27.844Z</time></trkpt><trkpt lat="42.54225929152874" lon="12.495310122472329"><ele>223.99999999999997</ele><time>2026-04-19T16:46:28.844Z</time></trkpt><trkpt lat="42.54227024476143" lon="12.495185361926652"><ele>224.0</ele><time>2026-04-19T16:46:29.844Z</time></trkpt><trkpt lat="42.542277497104834" lon="12.495054229169032"><ele>224.0</ele><time>2026-04-19T16:46:30.844Z</time></trkpt><trkpt lat="42.54228391215813" lon="12.494927072889919"><ele>225.0</ele><time>2026-04-19T16:46:31.844Z</time></trkpt><trkpt lat="42.542293762208274" lon="12.494799575273086"><ele>225.99999999999997</ele><time>2026-04-19T16:46:32.844Z</time></trkpt><trkpt lat="42.54230362861236" lon="12.49466798591606"><ele>226.99999999999997</ele><time>2026-04-19T16:46:33.844Z</time></trkpt><trkpt lat="42.542311554706586" lon="12.494538226433756"><ele>228.0</ele><time>2026-04-19T16:46:34.844Z</time></trkpt><trkpt lat="42.542321341376365" lon="12.494412803067242"><ele>229.0</ele><time>2026-04-19T16:46:35.844Z</time></trkpt><trkpt lat="42.54233040845523" lon="12.494284992635901"><ele>230.79999999999998</ele><time>2026-04-19T16:46:36.844Z</time></trkpt><trkpt lat="42.542339786057745" lon="12.494156998700733"><ele>232.59999999999997</ele><time>2026-04-19T16:46:37.843Z</time></trkpt><trkpt lat="42.54234688991885" lon="12.494024292599027"><ele>234.4</ele><time>2026-04-19T16:46:38.843Z</time></trkpt><trkpt lat="42.542357301352084" lon="12.49389285882818"><ele>236.2</ele><time>2026-04-19T16:46:39.843Z</time></trkpt><trkpt lat="42.542368119362784" lon="12.493762990917412"><ele>238.0</ele><time>2026-04-19T16:46:40.843Z</time></trkpt><trkpt lat="42.54238056855048" lon="12.49363158070666"><ele>239.8</ele><time>2026-04-19T16:46:41.843Z</time></trkpt><trkpt lat="42.54239381404489" lon="12.493493704036712"><ele>241.60000000000002</ele><time>2026-04-19T16:46:42.843Z</time></trkpt><trkpt lat="42.54240891851906" lon="12.493351690707602"><ele>243.39999999999998</ele><time>2026-04-19T16:46:43.843Z</time></trkpt><trkpt lat="42.5424208197976" lon="12.493201390463987"><ele>245.2</ele><time>2026-04-19T16:46:44.843Z</time></trkpt><trkpt lat="42.54243175587299" lon="12.493043473673358"><ele>247.0</ele><time>2026-04-19T16:46:45.843Z</time></trkpt><trkpt lat="42.54244435488032" lon="12.49287877621717"><ele>248.5</ele><time>2026-04-19T16:46:46.843Z</time></trkpt><trkpt lat="42.54245615279482" lon="12.492699256067347"><ele>250.0</ele><time>2026-04-19T16:46:47.843Z</time></trkpt><trkpt lat="42.54246598637516" lon="12.492514870907035"><ele>251.5</ele><time>2026-04-19T16:46:48.843Z</time></trkpt><trkpt lat="42.54247600665123" lon="12.492327701492943"><ele>253.0</ele><time>2026-04-19T16:46:49.843Z</time></trkpt><trkpt lat="42.54248209322896" lon="12.492140230596858"><ele>255.25</ele><time>2026-04-19T16:46:50.843Z</time></trkpt><trkpt lat="42.54248569335987" lon="12.491954426218605"><ele>257.5</ele><time>2026-04-19T16:46:51.843Z</time></trkpt><trkpt lat="42.542484657604206" lon="12.491767295435809"><ele>259.75</ele><time>2026-04-19T16:46:52.843Z</time></trkpt><trkpt lat="42.542482190587926" lon="12.491586822754668"><ele>262.0</ele><time>2026-04-19T16:46:53.843Z</time></trkpt><trkpt lat="42.54247490749628" lon="12.491402559727295"><ele>265.0</ele><time>2026-04-19T16:46:54.843Z</time></trkpt><trkpt lat="42.54246156105179" lon="12.491217977707272"><ele>268.0</ele><time>2026-04-19T16:46:55.843Z</time></trkpt><trkpt lat="42.5424389281852" lon="12.491041769692464"><ele>271.0</ele><time>2026-04-19T16:46:56.843Z</time></trkpt><trkpt lat="42.54240722900169" lon="12.490856330149658"><ele>274.0</ele><time>2026-04-19T16:46:57.843Z</time></trkpt><trkpt lat="42.54236991112546" lon="12.490670764532188"><ele>274.0</ele><time>2026-04-19T16:46:58.842Z</time></trkpt><trkpt lat="42.54232334209362" lon="12.490482697316851"><ele>274.0</ele><time>2026-04-19T16:46:59.842Z</time></trkpt><trkpt lat="42.54226962141863" lon="12.490296191738874"><ele>274.0</ele><time>2026-04-19T16:47:00.842Z</time></trkpt><trkpt lat="42.54221110545178" lon="12.490114838962821"><ele>274.0</ele><time>2026-04-19T16:47:01.842Z</time></trkpt><trkpt lat="42.54214561441232" lon="12.489938007801412"><ele>278.5</ele><time>2026-04-19T16:47:02.842Z</time></trkpt><trkpt lat="42.54210315853816" lon="12.489771321433938"><ele>283.0</ele><time>2026-04-19T16:47:03.842Z</time></trkpt><trkpt lat="42.54204922117744" lon="12.489612152478253"><ele>287.5</ele><time>2026-04-19T16:47:04.842Z</time></trkpt><trkpt lat="42.54199364229978" lon="12.489458737654308"><ele>292.0</ele><time>2026-04-19T16:47:05.842Z</time></trkpt><trkpt lat="42.540784511855236" lon="12.485990653149576"><ele>349.0</ele><time>2026-04-19T16:47:10.304Z</time></trkpt><trkpt lat="42.540421790765144" lon="12.485009311121319"><ele>355.0</ele><time>2026-04-19T16:47:11.305Z</time></trkpt><trkpt lat="42.54005222185196" lon="12.48403405828315"><ele>367.0</ele><time>2026-04-19T16:47:12.306Z</time></trkpt><trkpt lat="42.53959578336356" lon="12.483129133092365"><ele>353.0</ele><time>2026-04-19T16:47:13.307Z</time></trkpt><trkpt lat="42.53902716185401" lon="12.482353427116111"><ele>331.0</ele><time>2026-04-19T16:47:14.305Z</time></trkpt><trkpt lat="42.538366350836014" lon="12.481717736798071"><ele>307.0</ele><time>2026-04-19T16:47:15.307Z</time></trkpt><trkpt lat="42.537637842401644" lon="12.481246718969752"><ele>293.0</ele><time>2026-04-19T16:47:16.305Z</time></trkpt><trkpt lat="42.53688707615381" lon="12.480834798032278"><ele>293.0</ele><time>2026-04-19T16:47:17.305Z</time></trkpt><trkpt lat="42.536704187499765" lon="12.4806713703904"><ele>293.0</ele><time>2026-04-19T16:48:28.838Z</time></trkpt><trkpt lat="42.53641449007525" lon="12.480398094896554"><ele>293.0</ele><time>2026-04-19T16:48:29.838Z</time></trkpt><trkpt lat="42.53622193658847" lon="12.480436191131373"><ele>293.0</ele><time>2026-04-19T16:48:30.838Z</time></trkpt><trkpt lat="42.536063438481804" lon="12.48035741552681"><ele>293.0</ele><time>2026-04-19T16:48:31.838Z</time></trkpt><trkpt lat="42.535913110811165" lon="12.48027963588455"><ele>293.6666666666667</ele><time>2026-04-19T16:48:32.838Z</time></trkpt><trkpt lat="42.53575808486477" lon="12.480196786154066"><ele>294.3333333333333</ele><time>2026-04-19T16:48:33.838Z</time></trkpt><trkpt lat="42.53561078928063" lon="12.480118194434557"><ele>295.0</ele><time>2026-04-19T16:48:34.84Z</time></trkpt><trkpt lat="42.535457815328115" lon="12.480025082260152"><ele>295.66666666666663</ele><time>2026-04-19T16:48:35.84Z</time></trkpt><trkpt lat="42.53530094048737" lon="12.479936148826877"><ele>296.3333333333333</ele><time>2026-04-19T16:48:36.84Z</time></trkpt><trkpt lat="42.53513468592869" lon="12.479844840350808"><ele>297.0</ele><time>2026-04-19T16:48:37.84Z</time></trkpt><trkpt lat="42.53496822772016" lon="12.47975587168063"><ele>297.0</ele><time>2026-04-19T16:48:38.84Z</time></trkpt><trkpt lat="42.53479739725448" lon="12.479648893796387"><ele>297.0</ele><time>2026-04-19T16:48:39.84Z</time></trkpt><trkpt lat="42.53462231772392" lon="12.479539930736003"><ele>297.0</ele><time>2026-04-19T16:48:40.84Z</time></trkpt><trkpt lat="42.53445030372958" lon="12.479427650275731"><ele>298.0</ele><time>2026-04-19T16:48:41.84Z</time></trkpt><trkpt lat="42.53426726685188" lon="12.479300945739798"><ele>299.0</ele><time>2026-04-19T16:48:42.84Z</time></trkpt><trkpt lat="42.53407757756042" lon="12.47915171307912"><ele>300.0</ele><time>2026-04-19T16:48:43.84Z</time></trkpt><trkpt lat="42.53387663909719" lon="12.47898418955189"><ele>296.5</ele><time>2026-04-19T16:48:44.84Z</time></trkpt><trkpt lat="42.53368469744244" lon="12.478791669448476"><ele>293.0</ele><time>2026-04-19T16:48:45.84Z</time></trkpt><trkpt lat="42.53347653267187" lon="12.478581320629727"><ele>290.5</ele><time>2026-04-19T16:48:46.84Z</time></trkpt><trkpt lat="42.53326025104289" lon="12.478344275673255"><ele>288.0</ele><time>2026-04-19T16:48:47.839Z</time></trkpt><trkpt lat="42.533035177966056" lon="12.478079520163622"><ele>286.5</ele><time>2026-04-19T16:48:48.839Z</time></trkpt><trkpt lat="42.53281100827508" lon="12.477803875990078"><ele>285.0</ele><time>2026-04-19T16:48:49.839Z</time></trkpt><trkpt lat="42.532588821632864" lon="12.477522871658733"><ele>285.0</ele><time>2026-04-19T16:48:50.839Z</time></trkpt><trkpt lat="42.53237845345801" lon="12.477225505949198"><ele>285.0</ele><time>2026-04-19T16:48:51.839Z</time></trkpt><trkpt lat="42.532186137636536" lon="12.476899100339859"><ele>284.0</ele><time>2026-04-19T16:48:52.839Z</time></trkpt><trkpt lat="42.53199104116688" lon="12.476567682367518"><ele>283.0</ele><time>2026-04-19T16:48:53.839Z</time></trkpt><trkpt lat="42.53180577673993" lon="12.476223568579261"><ele>278.5</ele><time>2026-04-19T16:48:54.839Z</time></trkpt><trkpt lat="42.53162905962981" lon="12.475869410285872"><ele>274.0</ele><time>2026-04-19T16:48:55.839Z</time></trkpt><trkpt lat="42.531458900662486" lon="12.475516690113881"><ele>271.5</ele><time>2026-04-19T16:48:56.839Z</time></trkpt><trkpt lat="42.53128659737451" lon="12.47517282346256"><ele>269.0</ele><time>2026-04-19T16:48:57.839Z</time></trkpt><trkpt lat="42.531104583118506" lon="12.474829547574092"><ele>266.0</ele><time>2026-04-19T16:48:58.839Z</time></trkpt><trkpt lat="42.53090999154577" lon="12.474491964520684"><ele>263.0</ele><time>2026-04-19T16:48:59.839Z</time></trkpt><trkpt lat="42.53069569898652" lon="12.474162122678049"><ele>263.0</ele><time>2026-04-19T16:49:00.839Z</time></trkpt><trkpt lat="42.53046453495389" lon="12.473837535109757"><ele>263.0</ele><time>2026-04-19T16:49:01.839Z</time></trkpt><trkpt lat="42.53023035336787" lon="12.47353193457171"><ele>260.0</ele><time>2026-04-19T16:49:02.839Z</time></trkpt><trkpt lat="42.529987973458034" lon="12.473234984492768"><ele>257.0</ele><time>2026-04-19T16:49:03.839Z</time></trkpt><trkpt lat="42.529742604951046" lon="12.47295097430571"><ele>258.0</ele><time>2026-04-19T16:49:04.839Z</time></trkpt><trkpt lat="42.529489435073735" lon="12.472681384637447"><ele>259.0</ele><time>2026-04-19T16:49:05.839Z</time></trkpt><trkpt lat="42.52923950935951" lon="12.472422762949085"><ele>259.0</ele><time>2026-04-19T16:49:06.839Z</time></trkpt><trkpt lat="42.528995491946894" lon="12.472169678289365"><ele>259.0</ele><time>2026-04-19T16:49:07.839Z</time></trkpt><trkpt lat="42.52876538729277" lon="12.47192774280472"><ele>255.0</ele><time>2026-04-19T16:49:08.838Z</time></trkpt><trkpt lat="42.52854310717802" lon="12.471683903337269"><ele>251.0</ele><time>2026-04-19T16:49:09.838Z</time></trkpt><trkpt lat="42.52832648492132" lon="12.471451886191199"><ele>244.5</ele><time>2026-04-19T16:49:10.838Z</time></trkpt><trkpt lat="42.52810688481566" lon="12.47121233907025"><ele>238.0</ele><time>2026-04-19T16:49:11.838Z</time></trkpt><trkpt lat="42.527890520252456" lon="12.470984472175376"><ele>238.0</ele><time>2026-04-19T16:49:12.838Z</time></trkpt><trkpt lat="42.52767602433093" lon="12.470766121481434"><ele>238.0</ele><time>2026-04-19T16:49:13.838Z</time></trkpt><trkpt lat="42.52746961361883" lon="12.470566457436917"><ele>232.0</ele><time>2026-04-19T16:49:14.838Z</time></trkpt><trkpt lat="42.527263724947815" lon="12.470379494211327"><ele>226.0</ele><time>2026-04-19T16:49:15.838Z</time></trkpt><trkpt lat="42.5270498569644" lon="12.470223776252238"><ele>226.0</ele><time>2026-04-19T16:49:16.838Z</time></trkpt><trkpt lat="42.52683684554906" lon="12.470094589884184"><ele>226.0</ele><time>2026-04-19T16:49:17.838Z</time></trkpt><trkpt lat="42.526614577912106" lon="12.469982481684829"><ele>226.0</ele><time>2026-04-19T16:49:18.838Z</time></trkpt><trkpt lat="42.52638683811235" lon="12.469884198670902"><ele>226.0</ele><time>2026-04-19T16:49:19.838Z</time></trkpt><trkpt lat="42.52615005247684" lon="12.46980387405767"><ele>229.5</ele><time>2026-04-19T16:49:20.838Z</time></trkpt><trkpt lat="42.52590858306844" lon="12.469741294758796"><ele>233.0</ele><time>2026-04-19T16:49:21.838Z</time></trkpt><trkpt lat="42.52566308438481" lon="12.469701404347116"><ele>233.0</ele><time>2026-04-19T16:49:22.838Z</time></trkpt><trkpt lat="42.52541272899045" lon="12.46968947340368"><ele>233.0</ele><time>2026-04-19T16:49:23.838Z</time></trkpt><trkpt lat="42.52515958431163" lon="12.469692377548522"><ele>236.5</ele><time>2026-04-19T16:49:24.838Z</time></trkpt><trkpt lat="42.52490560040716" lon="12.469698896429266"><ele>240.0</ele><time>2026-04-19T16:49:25.838Z</time></trkpt><trkpt lat="42.52465564963913" lon="12.469701419856642"><ele>234.0</ele><time>2026-04-19T16:49:26.838Z</time></trkpt><trkpt lat="42.52439995283141" lon="12.469707610005365"><ele>228.0</ele><time>2026-04-19T16:49:27.838Z</time></trkpt><trkpt lat="42.524147050691035" lon="12.469722659474234"><ele>228.0</ele><time>2026-04-19T16:49:28.838Z</time></trkpt><trkpt lat="42.523892817828006" lon="12.469740214969379"><ele>228.0</ele><time>2026-04-19T16:49:29.837Z</time></trkpt><trkpt lat="42.52363725140366" lon="12.469746030684437"><ele>222.5</ele><time>2026-04-19T16:49:30.837Z</time></trkpt><trkpt lat="42.52338208936505" lon="12.469747072983614"><ele>217.0</ele><time>2026-04-19T16:49:31.837Z</time></trkpt><trkpt lat="42.52312877184729" lon="12.469749533611614"><ele>217.0</ele><time>2026-04-19T16:49:32.837Z</time></trkpt><trkpt lat="42.522876313260525" lon="12.46976007884337"><ele>217.0</ele><time>2026-04-19T16:49:33.837Z</time></trkpt><trkpt lat="42.522628719623796" lon="12.469756631329458"><ele>217.0</ele><time>2026-04-19T16:49:34.837Z</time></trkpt><trkpt lat="42.52238183441015" lon="12.46973252010728"><ele>217.0</ele><time>2026-04-19T16:49:35.837Z</time></trkpt><trkpt lat="42.52213784560519" lon="12.469681821276607"><ele>218.5</ele><time>2026-04-19T16:49:36.837Z</time></trkpt><trkpt lat="42.5218982459925" lon="12.469614465725078"><ele>220.0</ele><time>2026-04-19T16:49:37.837Z</time></trkpt><trkpt lat="42.52166719639108" lon="12.469525560845366"><ele>216.5</ele><time>2026-04-19T16:49:38.837Z</time></trkpt><trkpt lat="42.521444641597654" lon="12.469409996685135"><ele>213.0</ele><time>2026-04-19T16:49:39.837Z</time></trkpt><trkpt lat="42.521225092233585" lon="12.469278209741988"><ele>213.0</ele><time>2026-04-19T16:49:40.837Z</time></trkpt><trkpt lat="42.52101172451602" lon="12.46912114140427"><ele>213.0</ele><time>2026-04-19T16:49:41.837Z</time></trkpt><trkpt lat="42.52079538156531" lon="12.468948051566006"><ele>214.0</ele><time>2026-04-19T16:49:42.837Z</time></trkpt><trkpt lat="42.52057275216269" lon="12.468756891192644"><ele>215.0</ele><time>2026-04-19T16:49:43.837Z</time></trkpt><trkpt lat="42.52033897116842" lon="12.468567483788839"><ele>215.0</ele><time>2026-04-19T16:49:44.837Z</time></trkpt><trkpt lat="42.52010509064538" lon="12.468376411550162"><ele>215.0</ele><time>2026-04-19T16:49:45.837Z</time></trkpt><trkpt lat="42.519871880149466" lon="12.468172507116396"><ele>215.0</ele><time>2026-04-19T16:49:46.837Z</time></trkpt><trkpt lat="42.519637441259164" lon="12.467965906969255"><ele>215.0</ele><time>2026-04-19T16:49:47.837Z</time></trkpt><trkpt lat="42.51940508813762" lon="12.467759899791101"><ele>214.0</ele><time>2026-04-19T16:49:48.837Z</time></trkpt><trkpt lat="42.519174390774964" lon="12.467551019556375"><ele>213.0</ele><time>2026-04-19T16:49:49.837Z</time></trkpt><trkpt lat="42.5189452105104" lon="12.467335841112469"><ele>214.0</ele><time>2026-04-19T16:49:50.836Z</time></trkpt><trkpt lat="42.51871413311732" lon="12.467129000090493"><ele>215.0</ele><time>2026-04-19T16:49:51.836Z</time></trkpt><trkpt lat="42.5184862834082" lon="12.466929354364453"><ele>209.0</ele><time>2026-04-19T16:49:52.836Z</time></trkpt><trkpt lat="42.518252937720504" lon="12.46673634046463"><ele>203.0</ele><time>2026-04-19T16:49:53.836Z</time></trkpt><trkpt lat="42.51801889693026" lon="12.466547181362973"><ele>201.5</ele><time>2026-04-19T16:49:54.836Z</time></trkpt><trkpt lat="42.517786995404876" lon="12.46635976972538"><ele>200.0</ele><time>2026-04-19T16:49:55.836Z</time></trkpt><trkpt lat="42.517560420925264" lon="12.466172148285457"><ele>200.0</ele><time>2026-04-19T16:49:56.836Z</time></trkpt><trkpt lat="42.51733834694246" lon="12.465988157611145"><ele>200.0</ele><time>2026-04-19T16:49:57.836Z</time></trkpt><trkpt lat="42.51712656248378" lon="12.46581008768142"><ele>204.5</ele><time>2026-04-19T16:49:58.836Z</time></trkpt><trkpt lat="42.516921072533634" lon="12.465655219696494"><ele>209.0</ele><time>2026-04-19T16:49:59.836Z</time></trkpt><trkpt lat="42.51671586311561" lon="12.465516279420942"><ele>203.5</ele><time>2026-04-19T16:50:00.836Z</time></trkpt><trkpt lat="42.51650848346784" lon="12.465390903096809"><ele>198.0</ele><time>2026-04-19T16:50:01.836Z</time></trkpt><trkpt lat="42.51629596289687" lon="12.465282262389929"><ele>201.5</ele><time>2026-04-19T16:50:02.836Z</time></trkpt><trkpt lat="42.51607615815906" lon="12.465191268663649"><ele>205.0</ele><time>2026-04-19T16:50:03.836Z</time></trkpt><trkpt lat="42.51585490393395" lon="12.465111340554945"><ele>205.0</ele><time>2026-04-19T16:50:04.836Z</time></trkpt><trkpt lat="42.51562982201232" lon="12.465049237734313"><ele>205.0</ele><time>2026-04-19T16:50:05.836Z</time></trkpt><trkpt lat="42.51540523922074" lon="12.465016101473452"><ele>207.0</ele><time>2026-04-19T16:50:06.836Z</time></trkpt><trkpt lat="42.515178577027534" lon="12.46500149744825"><ele>209.0</ele><time>2026-04-19T16:50:07.836Z</time></trkpt><trkpt lat="42.514942636705776" lon="12.4650048695765"><ele>209.0</ele><time>2026-04-19T16:50:08.836Z</time></trkpt><trkpt lat="42.514708281536294" lon="12.465033390806333"><ele>209.0</ele><time>2026-04-19T16:50:09.836Z</time></trkpt><trkpt lat="42.514476623820435" lon="12.465084645751318"><ele>209.0</ele><time>2026-04-19T16:50:10.836Z</time></trkpt><trkpt lat="42.514246398629965" lon="12.465152548409623"><ele>209.0</ele><time>2026-04-19T16:50:11.835Z</time></trkpt><trkpt lat="42.51401567765146" lon="12.46524899856646"><ele>209.0</ele><time>2026-04-19T16:50:12.835Z</time></trkpt><trkpt lat="42.513796109660795" lon="12.465353744753422"><ele>209.0</ele><time>2026-04-19T16:50:13.835Z</time></trkpt><trkpt lat="42.51358673723483" lon="12.465480406786204"><ele>214.0</ele><time>2026-04-19T16:50:14.835Z</time></trkpt><trkpt lat="42.5133877257087" lon="12.46562480985956"><ele>219.0</ele><time>2026-04-19T16:50:15.835Z</time></trkpt><trkpt lat="42.51319587213079" lon="12.46578398493947"><ele>219.0</ele><time>2026-04-19T16:50:16.835Z</time></trkpt><trkpt lat="42.51301180934413" lon="12.465960841033162"><ele>219.0</ele><time>2026-04-19T16:50:17.835Z</time></trkpt><trkpt lat="42.51283647910899" lon="12.466154440268168"><ele>218.0</ele><time>2026-04-19T16:50:18.835Z</time></trkpt><trkpt lat="42.51236082728678" lon="12.465865864425217"><ele>218.0</ele><time>2026-04-19T16:50:19.835Z</time></trkpt><trkpt lat="42.51209503390915" lon="12.465970916635518"><ele>218.0</ele><time>2026-04-19T16:50:20.978Z</time></trkpt><trkpt lat="42.51143571382471" lon="12.467876475682992"><ele>204.0</ele><time>2026-04-19T16:50:26.835Z</time></trkpt><trkpt lat="42.511190429752524" lon="12.468063372018628"><ele>190.0</ele><time>2026-04-19T16:50:27.835Z</time></trkpt><trkpt lat="42.51095251312896" lon="12.468237021096476"><ele>190.0</ele><time>2026-04-19T16:50:28.835Z</time></trkpt><trkpt lat="42.510714383981515" lon="12.468374547178293"><ele>190.0</ele><time>2026-04-19T16:50:29.835Z</time></trkpt><trkpt lat="42.51045738004754" lon="12.468532838407356"><ele>189.0</ele><time>2026-04-19T16:50:30.835Z</time></trkpt><trkpt lat="42.510196609141275" lon="12.468655615726693"><ele>188.0</ele><time>2026-04-19T16:50:31.835Z</time></trkpt><trkpt lat="42.509937721590155" lon="12.468742739622797"><ele>181.0</ele><time>2026-04-19T16:50:32.834Z</time></trkpt><trkpt lat="42.5096766625502" lon="12.468806639407"><ele>174.0</ele><time>2026-04-19T16:50:33.834Z</time></trkpt><trkpt lat="42.50942109460251" lon="12.468847162437129"><ele>168.5</ele><time>2026-04-19T16:50:34.834Z</time></trkpt><trkpt lat="42.509173630974935" lon="12.468868733668804"><ele>163.0</ele><time>2026-04-19T16:50:35.834Z</time></trkpt><trkpt lat="42.508926480957165" lon="12.468867683690279"><ele>161.5</ele><time>2026-04-19T16:50:36.834Z</time></trkpt><trkpt lat="42.50868400273884" lon="12.468837782530658"><ele>160.0</ele><time>2026-04-19T16:50:37.834Z</time></trkpt><trkpt lat="42.50844776722921" lon="12.468787190243109"><ele>171.5</ele><time>2026-04-19T16:50:38.834Z</time></trkpt><trkpt lat="42.508213354934185" lon="12.46871175787727"><ele>183.0</ele><time>2026-04-19T16:50:39.834Z</time></trkpt><trkpt lat="42.5079851687746" lon="12.468623731924536"><ele>184.33333333333334</ele><time>2026-04-19T16:50:40.837Z</time></trkpt><trkpt lat="42.50777077414255" lon="12.468532045387708"><ele>185.66666666666669</ele><time>2026-04-19T16:50:41.836Z</time></trkpt><trkpt lat="42.50756816166003" lon="12.468441968115576"><ele>187.0</ele><time>2026-04-19T16:50:42.836Z</time></trkpt><trkpt lat="42.50737043961276" lon="12.468355621586936"><ele>187.0</ele><time>2026-04-19T16:50:43.836Z</time></trkpt><trkpt lat="42.50717992322624" lon="12.468258441801652"><ele>187.0</ele><time>2026-04-19T16:50:44.836Z</time></trkpt><trkpt lat="42.506990199058265" lon="12.468141590208127"><ele>187.0</ele><time>2026-04-19T16:50:45.836Z</time></trkpt><trkpt lat="42.50680777804892" lon="12.468003076780315"><ele>188.66666666666669</ele><time>2026-04-19T16:50:46.836Z</time></trkpt><trkpt lat="42.50662900332602" lon="12.467850808095575"><ele>190.33333333333334</ele><time>2026-04-19T16:50:47.836Z</time></trkpt><trkpt lat="42.50645652841135" lon="12.467675345906033"><ele>192.0</ele><time>2026-04-19T16:50:48.836Z</time></trkpt><trkpt lat="42.50628175976035" lon="12.467486601985039"><ele>185.0</ele><time>2026-04-19T16:50:49.836Z</time></trkpt><trkpt lat="42.5060585342307" lon="12.467304984878622"><ele>178.0</ele><time>2026-04-19T16:50:50.978Z</time></trkpt><trkpt lat="42.50567112757773" lon="12.466940302797132"><ele>164.5</ele><time>2026-04-19T16:50:52.836Z</time></trkpt><trkpt lat="42.505340698300614" lon="12.466602675132489"><ele>151.0</ele><time>2026-04-19T16:50:53.836Z</time></trkpt><trkpt lat="42.5050693127259" lon="12.466330155743888"><ele>150.5</ele><time>2026-04-19T16:50:54.836Z</time></trkpt><trkpt lat="42.5048255388336" lon="12.46611048753404"><ele>150.0</ele><time>2026-04-19T16:50:55.836Z</time></trkpt><trkpt lat="42.50460380600149" lon="12.4658812370677"><ele>139.0</ele><time>2026-04-19T16:50:56.836Z</time></trkpt><trkpt lat="42.504372801223276" lon="12.465666909257388"><ele>128.0</ele><time>2026-04-19T16:50:57.836Z</time></trkpt><trkpt lat="42.5041386163315" lon="12.465468829303003"><ele>129.5</ele><time>2026-04-19T16:50:58.836Z</time></trkpt><trkpt lat="42.50389737550563" lon="12.465288606461538"><ele>131.0</ele><time>2026-04-19T16:50:59.836Z</time></trkpt><trkpt lat="42.50364750135142" lon="12.465128003881654"><ele>135.0</ele><time>2026-04-19T16:51:00.836Z</time></trkpt><trkpt lat="42.50339271006916" lon="12.464990230529892"><ele>139.0</ele><time>2026-04-19T16:51:01.836Z</time></trkpt><trkpt lat="42.50312179583748" lon="12.464871393778603"><ele>141.5</ele><time>2026-04-19T16:51:02.836Z</time></trkpt><trkpt lat="42.50284330327015" lon="12.464775239960563"><ele>144.0</ele><time>2026-04-19T16:51:03.835Z</time></trkpt><trkpt lat="42.502560153581264" lon="12.464702133920715"><ele>144.0</ele><time>2026-04-19T16:51:04.835Z</time></trkpt><trkpt lat="42.502271101175666" lon="12.464652836647158"><ele>144.0</ele><time>2026-04-19T16:51:05.835Z</time></trkpt><trkpt lat="42.50197962356525" lon="12.464626122380142"><ele>141.0</ele><time>2026-04-19T16:51:06.835Z</time></trkpt><trkpt lat="42.501689315747846" lon="12.464618820890232"><ele>138.0</ele><time>2026-04-19T16:51:07.835Z</time></trkpt><trkpt lat="42.50140514694395" lon="12.464620205135553"><ele>133.0</ele><time>2026-04-19T16:51:08.835Z</time></trkpt><trkpt lat="42.501115898623205" lon="12.464627320317971"><ele>128.0</ele><time>2026-04-19T16:51:09.835Z</time></trkpt><trkpt lat="42.500828249731526" lon="12.464632854304845"><ele>128.0</ele><time>2026-04-19T16:51:10.835Z</time></trkpt><trkpt lat="42.5005440846665" lon="12.464635375390767"><ele>128.0</ele><time>2026-04-19T16:51:11.835Z</time></trkpt><trkpt lat="42.50025492920074" lon="12.464639906886884"><ele>123.5</ele><time>2026-04-19T16:51:12.835Z</time></trkpt><trkpt lat="42.49997980686893" lon="12.464642645413305"><ele>119.0</ele><time>2026-04-19T16:51:13.835Z</time></trkpt><trkpt lat="42.49970353613722" lon="12.464645592445551"><ele>116.5</ele><time>2026-04-19T16:51:14.835Z</time></trkpt><trkpt lat="42.49941893739205" lon="12.464649856715372"><ele>114.0</ele><time>2026-04-19T16:51:15.835Z</time></trkpt><trkpt lat="42.499141812946334" lon="12.464656592619816"><ele>114.0</ele><time>2026-04-19T16:51:16.835Z</time></trkpt><trkpt lat="42.49886788018154" lon="12.464665253438273"><ele>114.0</ele><time>2026-04-19T16:51:17.835Z</time></trkpt><trkpt lat="42.498598258791944" lon="12.464669411962857"><ele>113.5</ele><time>2026-04-19T16:51:18.835Z</time></trkpt><trkpt lat="42.49832964002459" lon="12.464669584375972"><ele>113.0</ele><time>2026-04-19T16:51:19.835Z</time></trkpt><trkpt lat="42.49805436109777" lon="12.464674694818868"><ele>113.5</ele><time>2026-04-19T16:51:20.835Z</time></trkpt><trkpt lat="42.497773662121915" lon="12.464682675546893"><ele>114.0</ele><time>2026-04-19T16:51:21.835Z</time></trkpt><trkpt lat="42.497494246494675" lon="12.464682062116273"><ele>114.0</ele><time>2026-04-19T16:51:22.835Z</time></trkpt><trkpt lat="42.49721934363026" lon="12.464690845491042"><ele>114.0</ele><time>2026-04-19T16:51:23.835Z</time></trkpt><trkpt lat="42.49696162647614" lon="12.464698341332216"><ele>109.5</ele><time>2026-04-19T16:51:24.834Z</time></trkpt><trkpt lat="42.496726319072835" lon="12.464700938918467"><ele>105.0</ele><time>2026-04-19T16:51:25.834Z</time></trkpt><trkpt lat="42.49649772824625" lon="12.464705376512986"><ele>98.5</ele><time>2026-04-19T16:51:26.834Z</time></trkpt><trkpt lat="42.49624990381278" lon="12.464749218232203"><ele>92.0</ele><time>2026-04-19T16:51:27.834Z</time></trkpt><trkpt lat="42.4960073225534" lon="12.464783380450703"><ele>92.0</ele><time>2026-04-19T16:51:28.834Z</time></trkpt><trkpt lat="42.49574377166617" lon="12.464802158101483"><ele>92.0</ele><time>2026-04-19T16:51:29.834Z</time></trkpt><trkpt lat="42.49548072446386" lon="12.464824614154503"><ele>90.5</ele><time>2026-04-19T16:51:30.834Z</time></trkpt><trkpt lat="42.49524779744579" lon="12.464866188698428"><ele>89.0</ele><time>2026-04-19T16:51:31.834Z</time></trkpt><trkpt lat="42.49462311334605" lon="12.464691425103357"><ele>87.5</ele><time>2026-04-19T16:51:32.834Z</time></trkpt><trkpt lat="42.49435625215577" lon="12.464675934750305"><ele>86.0</ele><time>2026-04-19T16:51:33.834Z</time></trkpt><trkpt lat="42.494094401235095" lon="12.464635127446645"><ele>85.5</ele><time>2026-04-19T16:51:34.834Z</time></trkpt><trkpt lat="42.49383710838673" lon="12.464568190971846"><ele>85.0</ele><time>2026-04-19T16:51:35.834Z</time></trkpt><trkpt lat="42.49357986142343" lon="12.464492152613278"><ele>85.0</ele><time>2026-04-19T16:51:36.834Z</time></trkpt><trkpt lat="42.49333743876884" lon="12.464399997167598"><ele>85.0</ele><time>2026-04-19T16:51:37.834Z</time></trkpt><trkpt lat="42.49309479629559" lon="12.464287851824247"><ele>83.5</ele><time>2026-04-19T16:51:38.834Z</time></trkpt><trkpt lat="42.49285542274408" lon="12.464157263760823"><ele>82.0</ele><time>2026-04-19T16:51:39.834Z</time></trkpt><trkpt lat="42.492617284153646" lon="12.46402664594157"><ele>82.0</ele><time>2026-04-19T16:51:40.834Z</time></trkpt><trkpt lat="42.49238162021089" lon="12.46388584635552"><ele>82.0</ele><time>2026-04-19T16:51:41.834Z</time></trkpt><trkpt lat="42.49216459258137" lon="12.463729324766334"><ele>80.5</ele><time>2026-04-19T16:51:42.834Z</time></trkpt><trkpt lat="42.49197015013639" lon="12.463558847029068"><ele>79.0</ele><time>2026-04-19T16:51:43.834Z</time></trkpt><trkpt lat="42.491788063663854" lon="12.463384518429107"><ele>79.0</ele><time>2026-04-19T16:51:44.834Z</time></trkpt><trkpt lat="42.491618454844776" lon="12.463212870080936"><ele>79.0</ele><time>2026-04-19T16:51:45.834Z</time></trkpt><trkpt lat="42.49145658854038" lon="12.463030451729935"><ele>79.0</ele><time>2026-04-19T16:51:46.833Z</time></trkpt><trkpt lat="42.491305708737045" lon="12.462844514565601"><ele>77.66666666666666</ele><time>2026-04-19T16:51:47.833Z</time></trkpt><trkpt lat="42.49116275038718" lon="12.462666550968484"><ele>76.33333333333333</ele><time>2026-04-19T16:51:48.833Z</time></trkpt><trkpt lat="42.49102575657702" lon="12.46247611718318"><ele>75.0</ele><time>2026-04-19T16:51:49.833Z</time></trkpt><trkpt lat="42.49088977223155" lon="12.462271348365732"><ele>75.33333333333333</ele><time>2026-04-19T16:51:50.833Z</time></trkpt><trkpt lat="42.49074557366854" lon="12.462067755691328"><ele>75.66666666666666</ele><time>2026-04-19T16:51:51.833Z</time></trkpt><trkpt lat="42.49058540098332" lon="12.461862014553297"><ele>76.0</ele><time>2026-04-19T16:51:52.833Z</time></trkpt><trkpt lat="42.49040626026615" lon="12.461645617047783"><ele>74.0</ele><time>2026-04-19T16:51:53.833Z</time></trkpt><trkpt lat="42.49022552787295" lon="12.461389914167658"><ele>72.0</ele><time>2026-04-19T16:51:54.833Z</time></trkpt><trkpt lat="42.49003000144057" lon="12.461086553567966"><ele>72.0</ele><time>2026-04-19T16:51:55.833Z</time></trkpt><trkpt lat="42.489837871071806" lon="12.460816932923231"><ele>72.0</ele><time>2026-04-19T16:51:56.833Z</time></trkpt><trkpt lat="42.48965596336324" lon="12.460549935470697"><ele>72.0</ele><time>2026-04-19T16:51:57.833Z</time></trkpt><trkpt lat="42.489478039210496" lon="12.460278415281772"><ele>72.0</ele><time>2026-04-19T16:51:58.833Z</time></trkpt><trkpt lat="42.489309936224736" lon="12.459996228431155"><ele>72.0</ele><time>2026-04-19T16:51:59.833Z</time></trkpt><trkpt lat="42.48913386181718" lon="12.459735962606285"><ele>72.0</ele><time>2026-04-19T16:52:00.833Z</time></trkpt><trkpt lat="42.48895233774187" lon="12.459505292345709"><ele>72.5</ele><time>2026-04-19T16:52:01.833Z</time></trkpt><trkpt lat="42.48876841593299" lon="12.459277293782025"><ele>73.0</ele><time>2026-04-19T16:52:02.833Z</time></trkpt><trkpt lat="42.48859045657565" lon="12.459035144278726"><ele>72.0</ele><time>2026-04-19T16:52:03.833Z</time></trkpt><trkpt lat="42.48841700748979" lon="12.458788292257163"><ele>71.0</ele><time>2026-04-19T16:52:04.833Z</time></trkpt><trkpt lat="42.48824778037007" lon="12.458553670366381"><ele>71.0</ele><time>2026-04-19T16:52:05.833Z</time></trkpt><trkpt lat="42.488072734950364" lon="12.458323223706175"><ele>71.0</ele><time>2026-04-19T16:52:06.833Z</time></trkpt><trkpt lat="42.4878738829715" lon="12.458079874257443"><ele>70.5</ele><time>2026-04-19T16:52:07.832Z</time></trkpt><trkpt lat="42.48766140616982" lon="12.457813678716965"><ele>70.0</ele><time>2026-04-19T16:52:08.832Z</time></trkpt><trkpt lat="42.487438591988564" lon="12.457523352358901"><ele>70.0</ele><time>2026-04-19T16:52:09.832Z</time></trkpt><trkpt lat="42.48721782388556" lon="12.457207448011475"><ele>70.0</ele><time>2026-04-19T16:52:10.832Z</time></trkpt><trkpt lat="42.48699108173553" lon="12.456876796077523"><ele>72.0</ele><time>2026-04-19T16:52:11.832Z</time></trkpt><trkpt lat="42.48676720360209" lon="12.456553142591117"><ele>74.0</ele><time>2026-04-19T16:52:12.832Z</time></trkpt><trkpt lat="42.486540958524415" lon="12.456244856250034"><ele>74.0</ele><time>2026-04-19T16:52:13.832Z</time></trkpt><trkpt lat="42.48632238063193" lon="12.455938259575472"><ele>74.0</ele><time>2026-04-19T16:52:14.832Z</time></trkpt><trkpt lat="42.48612086755589" lon="12.455633699911584"><ele>74.5</ele><time>2026-04-19T16:52:15.832Z</time></trkpt><trkpt lat="42.48593427760908" lon="12.455322793739539"><ele>75.0</ele><time>2026-04-19T16:52:16.832Z</time></trkpt><trkpt lat="42.48575068558581" lon="12.454997059854117"><ele>75.0</ele><time>2026-04-19T16:52:17.832Z</time></trkpt><trkpt lat="42.48558040124115" lon="12.454661868833464"><ele>75.0</ele><time>2026-04-19T16:52:18.832Z</time></trkpt><trkpt lat="42.48542751381021" lon="12.454304864701566"><ele>76.0</ele><time>2026-04-19T16:52:19.832Z</time></trkpt><trkpt lat="42.485281204670976" lon="12.453943672979669"><ele>77.0</ele><time>2026-04-19T16:52:20.832Z</time></trkpt><trkpt lat="42.48514283719093" lon="12.453572529101608"><ele>78.0</ele><time>2026-04-19T16:52:21.832Z</time></trkpt><trkpt lat="42.48500824242589" lon="12.453211095436746"><ele>79.0</ele><time>2026-04-19T16:52:22.832Z</time></trkpt><trkpt lat="42.484871527492245" lon="12.452845020927327"><ele>80.5</ele><time>2026-04-19T16:52:23.832Z</time></trkpt><trkpt lat="42.48473746472993" lon="12.452477136998334"><ele>82.0</ele><time>2026-04-19T16:52:24.832Z</time></trkpt><trkpt lat="42.48459910355204" lon="12.452116506821342"><ele>80.0</ele><time>2026-04-19T16:52:25.832Z</time></trkpt><trkpt lat="42.484462838661614" lon="12.451749637828001"><ele>78.0</ele><time>2026-04-19T16:52:26.832Z</time></trkpt><trkpt lat="42.48432591449173" lon="12.451385385214065"><ele>78.5</ele><time>2026-04-19T16:52:27.832Z</time></trkpt><trkpt lat="42.484185526903694" lon="12.45102094038817"><ele>79.0</ele><time>2026-04-19T16:52:28.831Z</time></trkpt><trkpt lat="42.48403989145367" lon="12.45065097765426"><ele>78.5</ele><time>2026-04-19T16:52:29.831Z</time></trkpt><trkpt lat="42.48390186813858" lon="12.450289753207622"><ele>78.0</ele><time>2026-04-19T16:52:30.831Z</time></trkpt><trkpt lat="42.483771812205376" lon="12.449948097828809"><ele>77.5</ele><time>2026-04-19T16:52:31.831Z</time></trkpt><trkpt lat="42.483654630165134" lon="12.44962412712693"><ele>77.0</ele><time>2026-04-19T16:52:32.831Z</time></trkpt><trkpt lat="42.48354415330455" lon="12.44931602093609"><ele>77.0</ele><time>2026-04-19T16:52:33.831Z</time></trkpt><trkpt lat="42.48343409886787" lon="12.44901632569069"><ele>77.0</ele><time>2026-04-19T16:52:34.831Z</time></trkpt><trkpt lat="42.48333037285824" lon="12.448732448611263"><ele>78.5</ele><time>2026-04-19T16:52:35.831Z</time></trkpt><trkpt lat="42.4832279648752" lon="12.448460593154458"><ele>80.0</ele><time>2026-04-19T16:52:36.831Z</time></trkpt><trkpt lat="42.48312430240783" lon="12.448182942359733"><ele>79.5</ele><time>2026-04-19T16:52:37.831Z</time></trkpt><trkpt lat="42.483014240274464" lon="12.447903515397808"><ele>79.0</ele><time>2026-04-19T16:52:38.831Z</time></trkpt><trkpt lat="42.48290773839748" lon="12.447625525299193"><ele>77.66666666666666</ele><time>2026-04-19T16:52:39.831Z</time></trkpt><trkpt lat="42.48280939920839" lon="12.447351405660465"><ele>76.33333333333333</ele><time>2026-04-19T16:52:40.831Z</time></trkpt><trkpt lat="42.48271382001772" lon="12.447083183898972"><ele>75.0</ele><time>2026-04-19T16:52:41.831Z</time></trkpt><trkpt lat="42.482618416815605" lon="12.446836892005487"><ele>75.0</ele><time>2026-04-19T16:52:42.831Z</time></trkpt><trkpt lat="42.482517039574844" lon="12.446584647500854"><ele>75.0</ele><time>2026-04-19T16:52:43.831Z</time></trkpt><trkpt lat="42.48242066515963" lon="12.446333764221205"><ele>75.0</ele><time>2026-04-19T16:52:44.831Z</time></trkpt><trkpt lat="42.482324990186264" lon="12.446084636210127"><ele>76.0</ele><time>2026-04-19T16:52:45.831Z</time></trkpt><trkpt lat="42.48221892750384" lon="12.445825625230059"><ele>77.0</ele><time>2026-04-19T16:52:46.832Z</time></trkpt><trkpt lat="42.482108603997574" lon="12.44555599564434"><ele>78.0</ele><time>2026-04-19T16:52:47.832Z</time></trkpt><trkpt lat="42.48198563459222" lon="12.445284561798834"><ele>75.0</ele><time>2026-04-19T16:52:48.832Z</time></trkpt><trkpt lat="42.48184616765471" lon="12.44500706717515"><ele>72.0</ele><time>2026-04-19T16:52:49.832Z</time></trkpt><trkpt lat="42.48168826699075" lon="12.444724336915975"><ele>72.5</ele><time>2026-04-19T16:52:50.832Z</time></trkpt><trkpt lat="42.48152131874689" lon="12.444449550800472"><ele>73.0</ele><time>2026-04-19T16:52:51.832Z</time></trkpt><trkpt lat="42.48134570110292" lon="12.44417395235145"><ele>72.5</ele><time>2026-04-19T16:52:52.832Z</time></trkpt><trkpt lat="42.48116080221576" lon="12.443900230753464"><ele>72.0</ele><time>2026-04-19T16:52:53.833Z</time></trkpt><trkpt lat="42.480972378776535" lon="12.443629394330834"><ele>72.0</ele><time>2026-04-19T16:52:54.832Z</time></trkpt><trkpt lat="42.48078319018075" lon="12.443351473809479"><ele>72.0</ele><time>2026-04-19T16:52:55.832Z</time></trkpt><trkpt lat="42.48059174355458" lon="12.443074767625818"><ele>71.5</ele><time>2026-04-19T16:52:56.832Z</time></trkpt><trkpt lat="42.48040423873149" lon="12.442796407202703"><ele>71.0</ele><time>2026-04-19T16:52:57.832Z</time></trkpt><trkpt lat="42.48021157223222" lon="12.442517080741387"><ele>71.0</ele><time>2026-04-19T16:52:58.832Z</time></trkpt><trkpt lat="42.48002191572695" lon="12.442239363757931"><ele>71.0</ele><time>2026-04-19T16:52:59.832Z</time></trkpt><trkpt lat="42.47983034206549" lon="12.441954542113315"><ele>71.0</ele><time>2026-04-19T16:53:00.832Z</time></trkpt><trkpt lat="42.47964646403209" lon="12.441675418352865"><ele>71.0</ele><time>2026-04-19T16:53:01.832Z</time></trkpt><trkpt lat="42.479459151401755" lon="12.4413782465156"><ele>71.0</ele><time>2026-04-19T16:53:02.832Z</time></trkpt><trkpt lat="42.47928038392609" lon="12.441079356003847"><ele>71.0</ele><time>2026-04-19T16:53:03.832Z</time></trkpt><trkpt lat="42.47913302272156" lon="12.440782843716793"><ele>71.0</ele><time>2026-04-19T16:53:04.832Z</time></trkpt><trkpt lat="42.47900625325745" lon="12.440483449227843"><ele>71.0</ele><time>2026-04-19T16:53:05.832Z</time></trkpt><trkpt lat="42.47889734024477" lon="12.440181588021483"><ele>71.0</ele><time>2026-04-19T16:53:06.832Z</time></trkpt><trkpt lat="42.47880603020432" lon="12.43986728266546"><ele>71.0</ele><time>2026-04-19T16:53:07.832Z</time></trkpt><trkpt lat="42.47872335129571" lon="12.439537061540555"><ele>71.0</ele><time>2026-04-19T16:53:08.832Z</time></trkpt><trkpt lat="42.478639052891296" lon="12.439201322937212"><ele>71.0</ele><time>2026-04-19T16:53:09.832Z</time></trkpt><trkpt lat="42.47855539146922" lon="12.438859603284795"><ele>73.0</ele><time>2026-04-19T16:53:10.832Z</time></trkpt><trkpt lat="42.47846868593764" lon="12.438512507773494"><ele>75.0</ele><time>2026-04-19T16:53:11.832Z</time></trkpt><trkpt lat="42.47837947887915" lon="12.438169327897555"><ele>76.5</ele><time>2026-04-19T16:53:12.832Z</time></trkpt><trkpt lat="42.47828433782267" lon="12.43783005537751"><ele>78.0</ele><time>2026-04-19T16:53:13.832Z</time></trkpt><trkpt lat="42.478185198032975" lon="12.437487942152666"><ele>78.0</ele><time>2026-04-19T16:53:14.832Z</time></trkpt><trkpt lat="42.47807831843735" lon="12.437157867156971"><ele>78.0</ele><time>2026-04-19T16:53:15.832Z</time></trkpt><trkpt lat="42.47795519309742" lon="12.43682779943381"><ele>76.5</ele><time>2026-04-19T16:53:16.831Z</time></trkpt><trkpt lat="42.47781029877219" lon="12.43651927389861"><ele>75.0</ele><time>2026-04-19T16:53:17.831Z</time></trkpt><trkpt lat="42.47765417838755" lon="12.436248701644084"><ele>83.5</ele><time>2026-04-19T16:53:18.831Z</time></trkpt><trkpt lat="42.47749295335922" lon="12.435999911378525"><ele>92.0</ele><time>2026-04-19T16:53:19.831Z</time></trkpt><trkpt lat="42.47732567968135" lon="12.435765312970911"><ele>92.0</ele><time>2026-04-19T16:53:20.831Z</time></trkpt><trkpt lat="42.477146877954674" lon="12.43555059584842"><ele>92.0</ele><time>2026-04-19T16:53:21.831Z</time></trkpt><trkpt lat="42.47697145531762" lon="12.435340208714896"><ele>90.0</ele><time>2026-04-19T16:53:22.831Z</time></trkpt><trkpt lat="42.47680235448233" lon="12.435122979067602"><ele>88.0</ele><time>2026-04-19T16:53:23.831Z</time></trkpt><trkpt lat="42.476639008644746" lon="12.434911231629583"><ele>88.0</ele><time>2026-04-19T16:53:24.831Z</time></trkpt><trkpt lat="42.4764683722143" lon="12.434695737799935"><ele>88.0</ele><time>2026-04-19T16:53:25.831Z</time></trkpt><trkpt lat="42.47629886783502" lon="12.434479740186516"><ele>85.5</ele><time>2026-04-19T16:53:26.831Z</time></trkpt><trkpt lat="42.476132793742096" lon="12.43427068583955"><ele>83.0</ele><time>2026-04-19T16:53:27.831Z</time></trkpt><trkpt lat="42.47596700963642" lon="12.434063511621462"><ele>83.0</ele><time>2026-04-19T16:53:28.831Z</time></trkpt><trkpt lat="42.475809828375276" lon="12.433873530328917"><ele>83.0</ele><time>2026-04-19T16:53:29.831Z</time></trkpt><trkpt lat="42.475643417288545" lon="12.433694473538443"><ele>83.0</ele><time>2026-04-19T16:53:30.831Z</time></trkpt><trkpt lat="42.475478146947225" lon="12.433527285351168"><ele>83.33333333333334</ele><time>2026-04-19T16:53:31.831Z</time></trkpt><trkpt lat="42.47530745493749" lon="12.433372283108138"><ele>83.66666666666667</ele><time>2026-04-19T16:53:32.831Z</time></trkpt><trkpt lat="42.47512452470718" lon="12.433223335251148"><ele>84.0</ele><time>2026-04-19T16:53:33.831Z</time></trkpt><trkpt lat="42.4749316719701" lon="12.433072633043007"><ele>84.0</ele><time>2026-04-19T16:53:34.831Z</time></trkpt><trkpt lat="42.47472225753345" lon="12.43294752072411"><ele>84.0</ele><time>2026-04-19T16:53:35.831Z</time></trkpt><trkpt lat="42.47450245959363" lon="12.43283385948929"><ele>84.0</ele><time>2026-04-19T16:53:36.831Z</time></trkpt><trkpt lat="42.474286889216515" lon="12.432727306891634"><ele>84.0</ele><time>2026-04-19T16:53:37.83Z</time></trkpt><trkpt lat="42.47406273044632" lon="12.432616854255892"><ele>84.0</ele><time>2026-04-19T16:53:38.83Z</time></trkpt><trkpt lat="42.47382922567772" lon="12.432492046738943"><ele>84.0</ele><time>2026-04-19T16:53:39.83Z</time></trkpt><trkpt lat="42.473572334743466" lon="12.43235719714959"><ele>85.0</ele><time>2026-04-19T16:53:40.83Z</time></trkpt><trkpt lat="42.473294848560926" lon="12.432222436619572"><ele>86.0</ele><time>2026-04-19T16:53:41.83Z</time></trkpt><trkpt lat="42.47299516204505" lon="12.432073766015607"><ele>84.0</ele><time>2026-04-19T16:53:42.83Z</time></trkpt><trkpt lat="42.47268862040412" lon="12.431916263841545"><ele>82.0</ele><time>2026-04-19T16:53:43.83Z</time></trkpt><trkpt lat="42.4723920199522" lon="12.4317504722003"><ele>77.5</ele><time>2026-04-19T16:53:44.83Z</time></trkpt><trkpt lat="42.47207365240491" lon="12.431603599858436"><ele>73.0</ele><time>2026-04-19T16:53:45.83Z</time></trkpt><trkpt lat="42.47176100394394" lon="12.431436599062765"><ele>72.0</ele><time>2026-04-19T16:53:46.83Z</time></trkpt><trkpt lat="42.47144771964579" lon="12.431264526693385"><ele>71.0</ele><time>2026-04-19T16:53:47.83Z</time></trkpt><trkpt lat="42.47114879364306" lon="12.431098565340063"><ele>71.0</ele><time>2026-04-19T16:53:48.83Z</time></trkpt><trkpt lat="42.470861634936156" lon="12.430925049629204"><ele>71.0</ele><time>2026-04-19T16:53:49.83Z</time></trkpt><trkpt lat="42.470594804125305" lon="12.430717906985562"><ele>68.0</ele><time>2026-04-19T16:53:50.83Z</time></trkpt><trkpt lat="42.470340383885755" lon="12.430479677765986"><ele>65.0</ele><time>2026-04-19T16:53:51.83Z</time></trkpt><trkpt lat="42.470098563888556" lon="12.430219413918632"><ele>65.0</ele><time>2026-04-19T16:53:52.83Z</time></trkpt><trkpt lat="42.46986270011689" lon="12.42994292885621"><ele>65.0</ele><time>2026-04-19T16:53:53.83Z</time></trkpt><trkpt lat="42.46962562137146" lon="12.429650650489435"><ele>62.5</ele><time>2026-04-19T16:53:54.83Z</time></trkpt><trkpt lat="42.46938807160324" lon="12.42936126836886"><ele>60.0</ele><time>2026-04-19T16:53:55.83Z</time></trkpt><trkpt lat="42.469155200487066" lon="12.429080436019738"><ele>60.0</ele><time>2026-04-19T16:53:56.83Z</time></trkpt><trkpt lat="42.468920069329265" lon="12.42881256836865"><ele>60.0</ele><time>2026-04-19T16:53:57.83Z</time></trkpt><trkpt lat="42.46868573173865" lon="12.428543005037165"><ele>58.0</ele><time>2026-04-19T16:53:58.829Z</time></trkpt><trkpt lat="42.46844303028166" lon="12.428278842464342"><ele>56.0</ele><time>2026-04-19T16:53:59.829Z</time></trkpt><trkpt lat="42.468188239529276" lon="12.428029033356081"><ele>57.0</ele><time>2026-04-19T16:54:00.829Z</time></trkpt><trkpt lat="42.46791951883643" lon="12.427801537402443"><ele>58.0</ele><time>2026-04-19T16:54:01.829Z</time></trkpt><trkpt lat="42.46764285117869" lon="12.42759690685606"><ele>58.0</ele><time>2026-04-19T16:54:02.829Z</time></trkpt><trkpt lat="42.467367332299126" lon="12.427408423075113"><ele>58.0</ele><time>2026-04-19T16:54:03.829Z</time></trkpt><trkpt lat="42.46709930241704" lon="12.427245266160725"><ele>59.5</ele><time>2026-04-19T16:54:04.829Z</time></trkpt><trkpt lat="42.46683214665452" lon="12.427104894202367"><ele>61.0</ele><time>2026-04-19T16:54:05.829Z</time></trkpt><trkpt lat="42.46656319188651" lon="12.426956474770295"><ele>61.0</ele><time>2026-04-19T16:54:06.829Z</time></trkpt><trkpt lat="42.466303557670166" lon="12.426806202464878"><ele>61.0</ele><time>2026-04-19T16:54:07.829Z</time></trkpt><trkpt lat="42.466052862647125" lon="12.42665602509996"><ele>57.5</ele><time>2026-04-19T16:54:08.829Z</time></trkpt><trkpt lat="42.465814370487536" lon="12.426511021018795"><ele>54.0</ele><time>2026-04-19T16:54:09.829Z</time></trkpt><trkpt lat="42.465597325616265" lon="12.426368848210153"><ele>54.0</ele><time>2026-04-19T16:54:10.829Z</time></trkpt><trkpt lat="42.465411295192844" lon="12.426243342299555"><ele>54.0</ele><time>2026-04-19T16:54:11.829Z</time></trkpt><trkpt lat="42.465254682029205" lon="12.426123742643997"><ele>54.0</ele><time>2026-04-19T16:54:12.829Z</time></trkpt><trkpt lat="42.46511580270401" lon="12.42599930896686"><ele>54.0</ele><time>2026-04-19T16:54:13.829Z</time></trkpt><trkpt lat="42.46497994585917" lon="12.425861064950437"><ele>54.0</ele><time>2026-04-19T16:54:14.829Z</time></trkpt><trkpt lat="42.4648451873446" lon="12.42571556588925"><ele>54.0</ele><time>2026-04-19T16:54:15.829Z</time></trkpt><trkpt lat="42.46472995985349" lon="12.425570944611703"><ele>54.33333333333333</ele><time>2026-04-19T16:54:16.829Z</time></trkpt><trkpt lat="42.4646078836577" lon="12.425409849449915"><ele>54.666666666666664</ele><time>2026-04-19T16:54:17.829Z</time></trkpt><trkpt lat="42.46446442922171" lon="12.425222368181268"><ele>55.0</ele><time>2026-04-19T16:54:18.829Z</time></trkpt><trkpt lat="42.46431174003243" lon="12.424995168297576"><ele>55.0</ele><time>2026-04-19T16:54:19.828Z</time></trkpt><trkpt lat="42.4641515506539" lon="12.424731270536872"><ele>55.0</ele><time>2026-04-19T16:54:20.828Z</time></trkpt><trkpt lat="42.46399392027629" lon="12.424449610718392"><ele>54.0</ele><time>2026-04-19T16:54:21.828Z</time></trkpt><trkpt lat="42.463829257605575" lon="12.424150434449782"><ele>53.0</ele><time>2026-04-19T16:54:22.828Z</time></trkpt><trkpt lat="42.463663213301665" lon="12.423850321884807"><ele>54.5</ele><time>2026-04-19T16:54:23.828Z</time></trkpt><trkpt lat="42.46350207666786" lon="12.423554535683936"><ele>56.0</ele><time>2026-04-19T16:54:24.828Z</time></trkpt><trkpt lat="42.46333403864771" lon="12.423269170309055"><ele>56.0</ele><time>2026-04-19T16:54:25.828Z</time></trkpt><trkpt lat="42.4631681821737" lon="12.422992477726593"><ele>56.0</ele><time>2026-04-19T16:54:26.828Z</time></trkpt><trkpt lat="42.46300734877072" lon="12.422714009430605"><ele>55.0</ele><time>2026-04-19T16:54:27.828Z</time></trkpt><trkpt lat="42.46286180115151" lon="12.42241716939266"><ele>54.0</ele><time>2026-04-19T16:54:28.828Z</time></trkpt><trkpt lat="42.46272461787339" lon="12.422111159099286"><ele>56.0</ele><time>2026-04-19T16:54:29.828Z</time></trkpt><trkpt lat="42.46260589620845" lon="12.421780454223175"><ele>58.0</ele><time>2026-04-19T16:54:30.828Z</time></trkpt><trkpt lat="42.46250337742909" lon="12.421431525278742"><ele>59.5</ele><time>2026-04-19T16:54:31.828Z</time></trkpt><trkpt lat="42.46242041056007" lon="12.42107178946167"><ele>61.0</ele><time>2026-04-19T16:54:32.828Z</time></trkpt><trkpt lat="42.462357016394115" lon="12.420718823575807"><ele>62.5</ele><time>2026-04-19T16:54:33.828Z</time></trkpt><trkpt lat="42.462305149316435" lon="12.420353996657068"><ele>64.0</ele><time>2026-04-19T16:54:34.828Z</time></trkpt><trkpt lat="42.462267331091326" lon="12.419969024516952"><ele>63.5</ele><time>2026-04-19T16:54:35.828Z</time></trkpt><trkpt lat="42.46226585662204" lon="12.419605065933094"><ele>63.0</ele><time>2026-04-19T16:54:36.828Z</time></trkpt><trkpt lat="42.46228013391514" lon="12.419239940055379"><ele>63.0</ele><time>2026-04-19T16:54:37.828Z</time></trkpt><trkpt lat="42.462310139237914" lon="12.418871886989331"><ele>63.0</ele><time>2026-04-19T16:54:38.828Z</time></trkpt><trkpt lat="42.462336501326945" lon="12.418525926489604"><ele>63.5</ele><time>2026-04-19T16:54:39.828Z</time></trkpt><trkpt lat="42.46239179318251" lon="12.418204131861428"><ele>64.0</ele><time>2026-04-19T16:54:40.828Z</time></trkpt><trkpt lat="42.462134801336276" lon="12.417470500845283"><ele>64.0</ele><time>2026-04-19T16:54:41.827Z</time></trkpt><trkpt lat="42.46211497184301" lon="12.417077342041067"><ele>64.0</ele><time>2026-04-19T16:54:42.827Z</time></trkpt><trkpt lat="42.46208191503326" lon="12.41668122742906"><ele>66.0</ele><time>2026-04-19T16:54:43.827Z</time></trkpt><trkpt lat="42.462031923909294" lon="12.416289276574483"><ele>68.0</ele><time>2026-04-19T16:54:44.827Z</time></trkpt><trkpt lat="42.46196529579441" lon="12.415902787138657"><ele>68.0</ele><time>2026-04-19T16:54:45.827Z</time></trkpt><trkpt lat="42.46188387872504" lon="12.415523271725005"><ele>68.0</ele><time>2026-04-19T16:54:46.827Z</time></trkpt><trkpt lat="42.461791514832115" lon="12.415149986291508"><ele>71.5</ele><time>2026-04-19T16:54:47.827Z</time></trkpt><trkpt lat="42.46167749946949" lon="12.414783866239835"><ele>75.0</ele><time>2026-04-19T16:54:48.827Z</time></trkpt><trkpt lat="42.46155199577565" lon="12.41442548494869"><ele>80.0</ele><time>2026-04-19T16:54:49.827Z</time></trkpt><trkpt lat="42.461411810051445" lon="12.414083210708418"><ele>85.0</ele><time>2026-04-19T16:54:50.827Z</time></trkpt><trkpt lat="42.46125862165007" lon="12.413760900161721"><ele>86.0</ele><time>2026-04-19T16:54:51.828Z</time></trkpt><trkpt lat="42.46110043099718" lon="12.413454401718598"><ele>87.0</ele><time>2026-04-19T16:54:52.828Z</time></trkpt><trkpt lat="42.46093543383227" lon="12.413164933403415"><ele>94.0</ele><time>2026-04-19T16:54:53.828Z</time></trkpt><trkpt lat="42.46076106519199" lon="12.412890511866276"><ele>101.0</ele><time>2026-04-19T16:54:54.828Z</time></trkpt><trkpt lat="42.460559776238554" lon="12.412641915359293"><ele>99.5</ele><time>2026-04-19T16:54:55.828Z</time></trkpt><trkpt lat="42.460370694179915" lon="12.41239348958477"><ele>98.0</ele><time>2026-04-19T16:54:56.828Z</time></trkpt><trkpt lat="42.4601826904065" lon="12.412151962189487"><ele>95.5</ele><time>2026-04-19T16:54:57.829Z</time></trkpt><trkpt lat="42.45998470242671" lon="12.41191149346921"><ele>93.0</ele><time>2026-04-19T16:54:58.828Z</time></trkpt><trkpt lat="42.459757841452046" lon="12.411638997647719"><ele>95.5</ele><time>2026-04-19T16:54:59.828Z</time></trkpt><trkpt lat="42.45951843456816" lon="12.411423858342774"><ele>98.0</ele><time>2026-04-19T16:55:00.828Z</time></trkpt><trkpt lat="42.459292873520134" lon="12.411178300054218"><ele>98.0</ele><time>2026-04-19T16:55:01.828Z</time></trkpt><trkpt lat="42.45907407019642" lon="12.410917316222783"><ele>98.0</ele><time>2026-04-19T16:55:02.828Z</time></trkpt><trkpt lat="42.45886875111632" lon="12.410675455730074"><ele>96.5</ele><time>2026-04-19T16:55:03.829Z</time></trkpt><trkpt lat="42.45866107655458" lon="12.41043564784479"><ele>95.0</ele><time>2026-04-19T16:55:04.828Z</time></trkpt><trkpt lat="42.45846155689809" lon="12.41015470489443"><ele>95.0</ele><time>2026-04-19T16:55:05.828Z</time></trkpt><trkpt lat="42.458265425446896" lon="12.409931762129833"><ele>95.0</ele><time>2026-04-19T16:55:06.828Z</time></trkpt><trkpt lat="42.45806700472964" lon="12.409713182963102"><ele>91.5</ele><time>2026-04-19T16:55:07.828Z</time></trkpt><trkpt lat="42.45786920009611" lon="12.409489520072182"><ele>88.0</ele><time>2026-04-19T16:55:08.827Z</time></trkpt><trkpt lat="42.45768088969277" lon="12.409269542967145"><ele>88.0</ele><time>2026-04-19T16:55:09.827Z</time></trkpt><trkpt lat="42.45750265713433" lon="12.409054070908578"><ele>88.0</ele><time>2026-04-19T16:55:10.827Z</time></trkpt><trkpt lat="42.457319875659316" lon="12.408837488731534"><ele>88.5</ele><time>2026-04-19T16:55:11.827Z</time></trkpt><trkpt lat="42.457137358108845" lon="12.408617015987534"><ele>89.0</ele><time>2026-04-19T16:55:12.827Z</time></trkpt><trkpt lat="42.45694473192512" lon="12.408399336790925"><ele>86.5</ele><time>2026-04-19T16:55:13.827Z</time></trkpt><trkpt lat="42.456759298989525" lon="12.408181523683801"><ele>84.0</ele><time>2026-04-19T16:55:14.827Z</time></trkpt><trkpt lat="42.45657224803509" lon="12.407964069149042"><ele>84.0</ele><time>2026-04-19T16:55:15.827Z</time></trkpt><trkpt lat="42.45638694684653" lon="12.407744866636788"><ele>84.0</ele><time>2026-04-19T16:55:16.827Z</time></trkpt><trkpt lat="42.45618859454674" lon="12.407511871333222"><ele>81.5</ele><time>2026-04-19T16:55:17.827Z</time></trkpt><trkpt lat="42.45598977155709" lon="12.407278207497425"><ele>79.0</ele><time>2026-04-19T16:55:18.827Z</time></trkpt><trkpt lat="42.455799164247985" lon="12.407046524533511"><ele>79.0</ele><time>2026-04-19T16:55:19.827Z</time></trkpt><trkpt lat="42.45560582645343" lon="12.406813385819365"><ele>79.0</ele><time>2026-04-19T16:55:20.827Z</time></trkpt><trkpt lat="42.45541929025568" lon="12.406583402479642"><ele>75.0</ele><time>2026-04-19T16:55:21.827Z</time></trkpt><trkpt lat="42.45523753379854" lon="12.406366306480125"><ele>71.0</ele><time>2026-04-19T16:55:22.827Z</time></trkpt><trkpt lat="42.45505181083262" lon="12.406147544719065"><ele>71.0</ele><time>2026-04-19T16:55:23.827Z</time></trkpt><trkpt lat="42.454864272840574" lon="12.405928559066757"><ele>71.0</ele><time>2026-04-19T16:55:24.827Z</time></trkpt><trkpt lat="42.45468779222439" lon="12.405716073587094"><ele>67.5</ele><time>2026-04-19T16:55:25.827Z</time></trkpt><trkpt lat="42.45452298931642" lon="12.405494118883858"><ele>64.0</ele><time>2026-04-19T16:55:26.827Z</time></trkpt><trkpt lat="42.454374916450135" lon="12.405269580623562"><ele>64.0</ele><time>2026-04-19T16:55:27.827Z</time></trkpt><trkpt lat="42.45423060050558" lon="12.405037074709858"><ele>64.0</ele><time>2026-04-19T16:55:28.827Z</time></trkpt><trkpt lat="42.454089467231626" lon="12.404799692406069"><ele>64.0</ele><time>2026-04-19T16:55:29.827Z</time></trkpt><trkpt lat="42.45395989338465" lon="12.404551198595994"><ele>65.0</ele><time>2026-04-19T16:55:30.826Z</time></trkpt><trkpt lat="42.453832413930485" lon="12.4042955237882"><ele>66.0</ele><time>2026-04-19T16:55:31.826Z</time></trkpt><trkpt lat="42.45370339298376" lon="12.404031988909114"><ele>64.5</ele><time>2026-04-19T16:55:32.826Z</time></trkpt><trkpt lat="42.45357402717079" lon="12.403758277816497"><ele>63.0</ele><time>2026-04-19T16:55:33.826Z</time></trkpt><trkpt lat="42.453451062840614" lon="12.403482826261973"><ele>63.0</ele><time>2026-04-19T16:55:34.826Z</time></trkpt><trkpt lat="42.45334285595076" lon="12.403188055141014"><ele>63.0</ele><time>2026-04-19T16:55:35.826Z</time></trkpt><trkpt lat="42.45323703887459" lon="12.402893482322593"><ele>65.0</ele><time>2026-04-19T16:55:36.826Z</time></trkpt><trkpt lat="42.45314033465564" lon="12.402597173662276"><ele>67.0</ele><time>2026-04-19T16:55:37.826Z</time></trkpt><trkpt lat="42.45304787166191" lon="12.40230796854794"><ele>64.0</ele><time>2026-04-19T16:55:38.826Z</time></trkpt><trkpt lat="42.45295254945546" lon="12.402018190547672"><ele>61.0</ele><time>2026-04-19T16:55:39.826Z</time></trkpt><trkpt lat="42.45286127335486" lon="12.401723770062116"><ele>61.0</ele><time>2026-04-19T16:55:40.826Z</time></trkpt><trkpt lat="42.452797986752685" lon="12.401420786368126"><ele>61.0</ele><time>2026-04-19T16:55:41.826Z</time></trkpt><trkpt lat="42.45273068942699" lon="12.401125022419656"><ele>60.33333333333333</ele><time>2026-04-19T16:55:42.826Z</time></trkpt><trkpt lat="42.45265968079012" lon="12.400836345249457"><ele>59.66666666666667</ele><time>2026-04-19T16:55:43.826Z</time></trkpt><trkpt lat="42.45258988933312" lon="12.400550039825886"><ele>59.0</ele><time>2026-04-19T16:55:44.826Z</time></trkpt><trkpt lat="42.45254290829369" lon="12.400205785363"><ele>58.5</ele><time>2026-04-19T16:55:45.826Z</time></trkpt><trkpt lat="42.45248492827513" lon="12.399878556353611"><ele>58.0</ele><time>2026-04-19T16:55:46.826Z</time></trkpt><trkpt lat="42.45242704106857" lon="12.399571730456506"><ele>58.0</ele><time>2026-04-19T16:55:47.826Z</time></trkpt><trkpt lat="42.45235664594062" lon="12.39928647034298"><ele>58.0</ele><time>2026-04-19T16:55:48.826Z</time></trkpt><trkpt lat="42.45229231940282" lon="12.3990142254917"><ele>58.0</ele><time>2026-04-19T16:55:49.826Z</time></trkpt><trkpt lat="42.45221581119329" lon="12.398742281500416"><ele>57.666666666666664</ele><time>2026-04-19T16:55:50.826Z</time></trkpt><trkpt lat="42.45214000373174" lon="12.398472467199433"><ele>57.33333333333333</ele><time>2026-04-19T16:55:51.825Z</time></trkpt><trkpt lat="42.452052272647315" lon="12.398213815797243"><ele>57.0</ele><time>2026-04-19T16:55:52.825Z</time></trkpt><trkpt lat="42.45197881770992" lon="12.397986686142218"><ele>56.0</ele><time>2026-04-19T16:55:53.825Z</time></trkpt><trkpt lat="42.451921719187595" lon="12.397783188298757"><ele>55.0</ele><time>2026-04-19T16:55:54.825Z</time></trkpt><trkpt lat="42.451874695168804" lon="12.397616089340781"><ele>54.0</ele><time>2026-04-19T16:55:55.825Z</time></trkpt><trkpt lat="42.451829046643" lon="12.397457964159315"><ele>53.0</ele><time>2026-04-19T16:55:56.825Z</time></trkpt><trkpt lat="42.45178499143387" lon="12.397293598099429"><ele>52.5</ele><time>2026-04-19T16:55:57.825Z</time></trkpt><trkpt lat="42.451737735892785" lon="12.397123974614368"><ele>52.0</ele><time>2026-04-19T16:55:58.825Z</time></trkpt><trkpt lat="42.45169317355158" lon="12.396944917144225"><ele>51.5</ele><time>2026-04-19T16:55:59.825Z</time></trkpt><trkpt lat="42.4516510016109" lon="12.396755903957478"><ele>51.0</ele><time>2026-04-19T16:56:00.825Z</time></trkpt><trkpt lat="42.45160558678045" lon="12.39654585393113"><ele>51.66666666666667</ele><time>2026-04-19T16:56:01.825Z</time></trkpt><trkpt lat="42.45155201456893" lon="12.396303538527986"><ele>52.333333333333336</ele><time>2026-04-19T16:56:02.825Z</time></trkpt><trkpt lat="42.4514962611416" lon="12.396037924554808"><ele>53.0</ele><time>2026-04-19T16:56:03.825Z</time></trkpt><trkpt lat="42.45144470580972" lon="12.395744467877872"><ele>53.5</ele><time>2026-04-19T16:56:04.825Z</time></trkpt><trkpt lat="42.45140646471456" lon="12.395444624692864"><ele>54.0</ele><time>2026-04-19T16:56:05.825Z</time></trkpt><trkpt lat="42.45137166436155" lon="12.395129188493687"><ele>54.0</ele><time>2026-04-19T16:56:06.825Z</time></trkpt><trkpt lat="42.45133551248137" lon="12.394804612212853"><ele>54.0</ele><time>2026-04-19T16:56:07.825Z</time></trkpt><trkpt lat="42.4512947255554" lon="12.394476034887447"><ele>52.5</ele><time>2026-04-19T16:56:08.825Z</time></trkpt><trkpt lat="42.45125844932557" lon="12.394140475814797"><ele>51.0</ele><time>2026-04-19T16:56:09.825Z</time></trkpt><trkpt lat="42.451230244877856" lon="12.393808668411202"><ele>49.5</ele><time>2026-04-19T16:56:10.825Z</time></trkpt><trkpt lat="42.4512125765555" lon="12.393473154691048"><ele>48.0</ele><time>2026-04-19T16:56:11.825Z</time></trkpt><trkpt lat="42.451205803801734" lon="12.393143123665313"><ele>48.0</ele><time>2026-04-19T16:56:12.824Z</time></trkpt><trkpt lat="42.45120233793547" lon="12.392811560560538"><ele>48.0</ele><time>2026-04-19T16:56:13.824Z</time></trkpt><trkpt lat="42.451201311818245" lon="12.392488693313393"><ele>51.0</ele><time>2026-04-19T16:56:14.824Z</time></trkpt><trkpt lat="42.45120114845496" lon="12.39216778358675"><ele>54.0</ele><time>2026-04-19T16:56:15.824Z</time></trkpt><trkpt lat="42.4512107326416" lon="12.391847375187071"><ele>54.0</ele><time>2026-04-19T16:56:16.824Z</time></trkpt><trkpt lat="42.45122081597235" lon="12.391534743390851"><ele>54.0</ele><time>2026-04-19T16:56:17.824Z</time></trkpt><trkpt lat="42.451232059393924" lon="12.391217258059818"><ele>55.0</ele><time>2026-04-19T16:56:18.824Z</time></trkpt><trkpt lat="42.451247105922576" lon="12.390891974400489"><ele>56.0</ele><time>2026-04-19T16:56:19.824Z</time></trkpt><trkpt lat="42.45127226330409" lon="12.39055929763055"><ele>54.5</ele><time>2026-04-19T16:56:20.824Z</time></trkpt><trkpt lat="42.45130378197925" lon="12.390217218101554"><ele>53.0</ele><time>2026-04-19T16:56:21.824Z</time></trkpt><trkpt lat="42.45134042045119" lon="12.38987379501001"><ele>54.0</ele><time>2026-04-19T16:56:22.824Z</time></trkpt><trkpt lat="42.451382733422044" lon="12.389537526522664"><ele>55.0</ele><time>2026-04-19T16:56:23.824Z</time></trkpt><trkpt lat="42.4514286627925" lon="12.389214331181195"><ele>55.0</ele><time>2026-04-19T16:56:24.824Z</time></trkpt><trkpt lat="42.451480087230735" lon="12.38889962087541"><ele>55.0</ele><time>2026-04-19T16:56:25.824Z</time></trkpt><trkpt lat="42.45153553073205" lon="12.388591867271192"><ele>55.5</ele><time>2026-04-19T16:56:26.824Z</time></trkpt><trkpt lat="42.45159564946955" lon="12.388279132925591"><ele>56.0</ele><time>2026-04-19T16:56:27.824Z</time></trkpt><trkpt lat="42.45166405583585" lon="12.387967746521053"><ele>59.5</ele><time>2026-04-19T16:56:28.824Z</time></trkpt><trkpt lat="42.451731991106314" lon="12.387658107450088"><ele>63.0</ele><time>2026-04-19T16:56:29.824Z</time></trkpt><trkpt lat="42.45181177656779" lon="12.38734496758783"><ele>69.0</ele><time>2026-04-19T16:56:30.824Z</time></trkpt><trkpt lat="42.45188929306065" lon="12.38704247011844"><ele>75.0</ele><time>2026-04-19T16:56:31.824Z</time></trkpt><trkpt lat="42.45196963096242" lon="12.386743722477254"><ele>75.0</ele><time>2026-04-19T16:56:32.824Z</time></trkpt><trkpt lat="42.452047608691174" lon="12.386452568869293"><ele>75.0</ele><time>2026-04-19T16:56:33.823Z</time></trkpt><trkpt lat="42.452136093281325" lon="12.386165946777627"><ele>80.66666666666667</ele><time>2026-04-19T16:56:34.823Z</time></trkpt><trkpt lat="42.452225605587365" lon="12.385893265967947"><ele>86.33333333333334</ele><time>2026-04-19T16:56:35.823Z</time></trkpt><trkpt lat="42.45231358666218" lon="12.385622521249395"><ele>92.0</ele><time>2026-04-19T16:56:36.823Z</time></trkpt><trkpt lat="42.45239993580185" lon="12.385353651607668"><ele>92.0</ele><time>2026-04-19T16:56:37.823Z</time></trkpt><trkpt lat="42.45248099903239" lon="12.385084939726044"><ele>92.0</ele><time>2026-04-19T16:56:38.823Z</time></trkpt><trkpt lat="42.452558309239684" lon="12.384827064765249"><ele>92.0</ele><time>2026-04-19T16:56:39.823Z</time></trkpt><trkpt lat="42.45263183038819" lon="12.384579706417542"><ele>94.33333333333334</ele><time>2026-04-19T16:56:40.823Z</time></trkpt><trkpt lat="42.452698097095556" lon="12.38434296776787"><ele>96.66666666666667</ele><time>2026-04-19T16:56:41.823Z</time></trkpt><trkpt lat="42.45276379285054" lon="12.384127881968901"><ele>99.0</ele><time>2026-04-19T16:56:42.823Z</time></trkpt><trkpt lat="42.452826106641474" lon="12.383918908029639"><ele>100.66666666666666</ele><time>2026-04-19T16:56:43.823Z</time></trkpt><trkpt lat="42.452887952806854" lon="12.383701752254463"><ele>102.33333333333333</ele><time>2026-04-19T16:56:44.823Z</time></trkpt><trkpt lat="42.452946660038904" lon="12.38348460467587"><ele>104.0</ele><time>2026-04-19T16:56:45.823Z</time></trkpt><trkpt lat="42.45300805491975" lon="12.38327393829219"><ele>104.0</ele><time>2026-04-19T16:56:46.823Z</time></trkpt><trkpt lat="42.453068076821836" lon="12.38306819158279"><ele>104.0</ele><time>2026-04-19T16:56:47.823Z</time></trkpt><trkpt lat="42.4531310439818" lon="12.382864637111393"><ele>104.0</ele><time>2026-04-19T16:56:48.823Z</time></trkpt><trkpt lat="42.453194637138346" lon="12.38266173676301"><ele>104.66666666666666</ele><time>2026-04-19T16:56:49.823Z</time></trkpt><trkpt lat="42.45325614180701" lon="12.382454438467837"><ele>105.33333333333334</ele><time>2026-04-19T16:56:50.823Z</time></trkpt><trkpt lat="42.453315267671314" lon="12.382243682711168"><ele>106.0</ele><time>2026-04-19T16:56:51.821Z</time></trkpt><trkpt lat="42.453377401538155" lon="12.382034090633086"><ele>108.33333333333334</ele><time>2026-04-19T16:56:52.82Z</time></trkpt><trkpt lat="42.453442299425994" lon="12.381827300037212"><ele>110.66666666666666</ele><time>2026-04-19T16:56:53.818Z</time></trkpt><trkpt lat="42.453506869319334" lon="12.381624698056577"><ele>113.0</ele><time>2026-04-19T16:56:54.816Z</time></trkpt><trkpt lat="42.45356427163467" lon="12.381440555645623"><ele>114.60000000000001</ele><time>2026-04-19T16:56:55.815Z</time></trkpt><trkpt lat="42.45361409557578" lon="12.381284088035342"><ele>116.20000000000002</ele><time>2026-04-19T16:56:56.813Z</time></trkpt><trkpt lat="42.453657443311066" lon="12.381163029930669"><ele>117.8</ele><time>2026-04-19T16:56:57.814Z</time></trkpt><trkpt lat="42.453683740109604" lon="12.381068283164504"><ele>119.4</ele><time>2026-04-19T16:56:58.812Z</time></trkpt><trkpt lat="42.453715564266226" lon="12.38097595864232"><ele>121.0</ele><time>2026-04-19T16:56:59.811Z</time></trkpt><trkpt lat="42.45374873756578" lon="12.380878267325402"><ele>121.00000000000001</ele><time>2026-04-19T16:57:00.811Z</time></trkpt><trkpt lat="42.45377834050621" lon="12.380778364915605"><ele>121.0</ele><time>2026-04-19T16:57:01.809Z</time></trkpt><trkpt lat="42.453802790531746" lon="12.380690102066776"><ele>121.0</ele><time>2026-04-19T16:57:02.808Z</time></trkpt><trkpt lat="42.453828897035116" lon="12.38059815239768"><ele>121.0</ele><time>2026-04-19T16:57:03.808Z</time></trkpt><trkpt lat="42.453851280223155" lon="12.380493262121123"><ele>121.00000000000001</ele><time>2026-04-19T16:57:04.807Z</time></trkpt><trkpt lat="42.45386710905933" lon="12.380374439586125"><ele>121.0</ele><time>2026-04-19T16:57:05.806Z</time></trkpt><trkpt lat="42.4538795416686" lon="12.380253783609637"><ele>123.19999999999999</ele><time>2026-04-19T16:57:06.805Z</time></trkpt><trkpt lat="42.45390477548272" lon="12.380123318832611"><ele>125.39999999999999</ele><time>2026-04-19T16:57:07.804Z</time></trkpt><trkpt lat="42.45394135491049" lon="12.379991102828129"><ele>127.6</ele><time>2026-04-19T16:57:08.803Z</time></trkpt><trkpt lat="42.45397862294167" lon="12.379861511930141"><ele>129.79999999999998</ele><time>2026-04-19T16:57:09.803Z</time></trkpt><trkpt lat="42.454017245762856" lon="12.379732272758687"><ele>132.0</ele><time>2026-04-19T16:57:10.802Z</time></trkpt><trkpt lat="42.45405633281119" lon="12.379586211296234"><ele>133.0</ele><time>2026-04-19T16:57:11.801Z</time></trkpt><trkpt lat="42.45408554834765" lon="12.37945296573892"><ele>134.0</ele><time>2026-04-19T16:57:12.801Z</time></trkpt><trkpt lat="42.45411413057006" lon="12.379317669915304"><ele>135.0</ele><time>2026-04-19T16:57:13.8Z</time></trkpt><trkpt lat="42.454144597452924" lon="12.379178067134438"><ele>136.0</ele><time>2026-04-19T16:57:14.8Z</time></trkpt><trkpt lat="42.45418013314148" lon="12.379039070471517"><ele>137.0</ele><time>2026-04-19T16:57:15.799Z</time></trkpt><trkpt lat="42.45421565685908" lon="12.378888664051557"><ele>137.75</ele><time>2026-04-19T16:57:16.799Z</time></trkpt><trkpt lat="42.45425371045928" lon="12.378734083360689"><ele>138.5</ele><time>2026-04-19T16:57:17.798Z</time></trkpt><trkpt lat="42.45428517043194" lon="12.378575703536368"><ele>139.25</ele><time>2026-04-19T16:57:18.798Z</time></trkpt><trkpt lat="42.45431866592447" lon="12.378417000199802"><ele>140.0</ele><time>2026-04-19T16:57:19.798Z</time></trkpt><trkpt lat="42.45434493059671" lon="12.378257248649053"><ele>140.0</ele><time>2026-04-19T16:57:20.797Z</time></trkpt><trkpt lat="42.45438209450893" lon="12.378097264713459"><ele>140.0</ele><time>2026-04-19T16:57:21.797Z</time></trkpt><trkpt lat="42.45441616837707" lon="12.377934708710653"><ele>140.0</ele><time>2026-04-19T16:57:22.797Z</time></trkpt><trkpt lat="42.45445122712395" lon="12.37776838922507"><ele>140.0</ele><time>2026-04-19T16:57:23.796Z</time></trkpt><trkpt lat="42.45448836280812" lon="12.377607683028845"><ele>141.0</ele><time>2026-04-19T16:57:24.796Z</time></trkpt><trkpt lat="42.45451730125927" lon="12.377446035217863"><ele>142.0</ele><time>2026-04-19T16:57:25.796Z</time></trkpt><trkpt lat="42.45454286123211" lon="12.377286664334918"><ele>143.0</ele><time>2026-04-19T16:57:26.796Z</time></trkpt><trkpt lat="42.45456580930251" lon="12.377124425497254"><ele>144.0</ele><time>2026-04-19T16:57:27.795Z</time></trkpt><trkpt lat="42.45459064885985" lon="12.376967569609223"><ele>146.0</ele><time>2026-04-19T16:57:28.795Z</time></trkpt><trkpt lat="42.454611211314095" lon="12.37680150594531"><ele>148.0</ele><time>2026-04-19T16:57:29.795Z</time></trkpt><trkpt lat="42.454633271774625" lon="12.376634356388436"><ele>150.0</ele><time>2026-04-19T16:57:30.795Z</time></trkpt><trkpt lat="42.454649139882555" lon="12.376457432505239"><ele>152.0</ele><time>2026-04-19T16:57:31.795Z</time></trkpt><trkpt lat="42.45465781731656" lon="12.376282065650122"><ele>154.0</ele><time>2026-04-19T16:57:32.794Z</time></trkpt><trkpt lat="42.45467339824746" lon="12.376095620712697"><ele>156.0</ele><time>2026-04-19T16:57:33.794Z</time></trkpt><trkpt lat="42.45468954031051" lon="12.37591011493282"><ele>158.0</ele><time>2026-04-19T16:57:34.794Z</time></trkpt><trkpt lat="42.45470797262411" lon="12.375716486865155"><ele>160.0</ele><time>2026-04-19T16:57:35.794Z</time></trkpt><trkpt lat="42.454725512801375" lon="12.375524103323862"><ele>157.75</ele><time>2026-04-19T16:57:36.794Z</time></trkpt><trkpt lat="42.454741285170904" lon="12.375331466450074"><ele>155.5</ele><time>2026-04-19T16:57:37.794Z</time></trkpt><trkpt lat="42.45476083670786" lon="12.375134128359289"><ele>153.25</ele><time>2026-04-19T16:57:38.793Z</time></trkpt><trkpt lat="42.45477475104695" lon="12.374931298407938"><ele>151.0</ele><time>2026-04-19T16:57:39.793Z</time></trkpt><trkpt lat="42.454785509545765" lon="12.374726647553826"><ele>147.5</ele><time>2026-04-19T16:57:40.793Z</time></trkpt><trkpt lat="42.45479664613305" lon="12.374523093687374"><ele>144.0</ele><time>2026-04-19T16:57:41.793Z</time></trkpt><trkpt lat="42.45480601610146" lon="12.374321041519122"><ele>140.5</ele><time>2026-04-19T16:57:42.793Z</time></trkpt><trkpt lat="42.4548138730912" lon="12.374121443298877"><ele>137.0</ele><time>2026-04-19T16:57:43.793Z</time></trkpt><trkpt lat="42.45482150416112" lon="12.373924337231486"><ele>137.25</ele><time>2026-04-19T16:57:44.793Z</time></trkpt><trkpt lat="42.45482399166123" lon="12.373728767522229"><ele>137.5</ele><time>2026-04-19T16:57:45.792Z</time></trkpt><trkpt lat="42.454828353560465" lon="12.373533029297409"><ele>137.75</ele><time>2026-04-19T16:57:46.792Z</time></trkpt><trkpt lat="42.45483180220592" lon="12.373340389122188"><ele>138.0</ele><time>2026-04-19T16:57:47.792Z</time></trkpt><trkpt lat="42.45483499989399" lon="12.373149627106516"><ele>139.75</ele><time>2026-04-19T16:57:48.792Z</time></trkpt><trkpt lat="42.45483706508237" lon="12.372958148823963"><ele>141.5</ele><time>2026-04-19T16:57:49.792Z</time></trkpt><trkpt lat="42.454837038674206" lon="12.37276398550011"><ele>143.25</ele><time>2026-04-19T16:57:50.792Z</time></trkpt><trkpt lat="42.454839473159495" lon="12.372569287805193"><ele>145.0</ele><time>2026-04-19T16:57:51.792Z</time></trkpt><trkpt lat="42.4548439102598" lon="12.37237707410575"><ele>148.0</ele><time>2026-04-19T16:57:52.792Z</time></trkpt><trkpt lat="42.45484780124272" lon="12.372184848151981"><ele>151.0</ele><time>2026-04-19T16:57:53.792Z</time></trkpt><trkpt lat="42.45484639536638" lon="12.37198398322545"><ele>154.0</ele><time>2026-04-19T16:57:54.792Z</time></trkpt><trkpt lat="42.45485836048557" lon="12.371772662072146"><ele>157.0</ele><time>2026-04-19T16:57:55.792Z</time></trkpt><trkpt lat="42.45484077005574" lon="12.371557365683307"><ele>157.0</ele><time>2026-04-19T16:57:56.791Z</time></trkpt><trkpt lat="42.454842252588776" lon="12.371360520455038"><ele>157.0</ele><time>2026-04-19T16:57:57.791Z</time></trkpt><trkpt lat="42.45484172474362" lon="12.371183805461548"><ele>157.0</ele><time>2026-04-19T16:57:58.791Z</time></trkpt><trkpt lat="42.454838677426764" lon="12.371025751706103"><ele>157.0</ele><time>2026-04-19T16:57:59.791Z</time></trkpt><trkpt lat="42.45483002889882" lon="12.370893713665776"><ele>158.83333333333334</ele><time>2026-04-19T16:58:00.791Z</time></trkpt><trkpt lat="42.454821442141125" lon="12.370770059627638"><ele>160.66666666666669</ele><time>2026-04-19T16:58:01.791Z</time></trkpt><trkpt lat="42.45481594158356" lon="12.370661567414269"><ele>162.5</ele><time>2026-04-19T16:58:02.791Z</time></trkpt><trkpt lat="42.454808058995596" lon="12.370555506500235"><ele>164.33333333333334</ele><time>2026-04-19T16:58:03.791Z</time></trkpt><trkpt lat="42.45479758491765" lon="12.37044507498225"><ele>166.16666666666666</ele><time>2026-04-19T16:58:04.791Z</time></trkpt><trkpt lat="42.45478621049911" lon="12.370338312845373"><ele>168.0</ele><time>2026-04-19T16:58:05.791Z</time></trkpt><trkpt lat="42.45477324220741" lon="12.370231927401893"><ele>169.8</ele><time>2026-04-19T16:58:06.791Z</time></trkpt><trkpt lat="42.454767966421265" lon="12.370141397413287"><ele>171.60000000000002</ele><time>2026-04-19T16:58:07.791Z</time></trkpt><trkpt lat="42.45475911975244" lon="12.369967372970534"><ele>173.39999999999998</ele><time>2026-04-19T16:58:09.791Z</time></trkpt><trkpt lat="42.45479782064299" lon="12.369796469187712"><ele>175.2</ele><time>2026-04-19T16:58:11.79Z</time></trkpt><trkpt lat="42.45480501232703" lon="12.369710356294997"><ele>177.0</ele><time>2026-04-19T16:58:12.79Z</time></trkpt><trkpt lat="42.45480610610126" lon="12.369603737805832"><ele>177.66666666666666</ele><time>2026-04-19T16:58:13.79Z</time></trkpt><trkpt lat="42.454795087263484" lon="12.369484356873372"><ele>178.33333333333334</ele><time>2026-04-19T16:58:14.79Z</time></trkpt><trkpt lat="42.4547758882574" lon="12.369370016739483"><ele>179.0</ele><time>2026-04-19T16:58:15.79Z</time></trkpt><trkpt lat="42.454759218848594" lon="12.36926201874172"><ele>179.66666666666669</ele><time>2026-04-19T16:58:16.79Z</time></trkpt><trkpt lat="42.454747541441265" lon="12.369162204783908"><ele>180.33333333333334</ele><time>2026-04-19T16:58:17.79Z</time></trkpt><trkpt lat="42.45473902693747" lon="12.369073837144581"><ele>181.0</ele><time>2026-04-19T16:58:18.79Z</time></trkpt><trkpt lat="42.45472112156254" lon="12.36897413315824"><ele>181.0</ele><time>2026-04-19T16:58:19.79Z</time></trkpt><trkpt lat="42.454694951711936" lon="12.368862068493298"><ele>181.0</ele><time>2026-04-19T16:58:20.79Z</time></trkpt><trkpt lat="42.45467210009471" lon="12.368751095576142"><ele>181.0</ele><time>2026-04-19T16:58:21.79Z</time></trkpt><trkpt lat="42.45465454445085" lon="12.368635138957005"><ele>181.0</ele><time>2026-04-19T16:58:22.79Z</time></trkpt><trkpt lat="42.454633427930254" lon="12.36851672722186"><ele>181.0</ele><time>2026-04-19T16:58:23.79Z</time></trkpt><trkpt lat="42.45461294578243" lon="12.368393667195045"><ele>181.0</ele><time>2026-04-19T16:58:24.79Z</time></trkpt><trkpt lat="42.45458988952393" lon="12.368271316289249"><ele>181.0</ele><time>2026-04-19T16:58:25.79Z</time></trkpt><trkpt lat="42.45456232997011" lon="12.368147986936561"><ele>181.0</ele><time>2026-04-19T16:58:26.789Z</time></trkpt><trkpt lat="42.454533677495405" lon="12.368017403116092"><ele>181.0</ele><time>2026-04-19T16:58:27.789Z</time></trkpt><trkpt lat="42.45450491948911" lon="12.367892033395101"><ele>181.0</ele><time>2026-04-19T16:58:28.789Z</time></trkpt><trkpt lat="42.454472621220056" lon="12.367769677449015"><ele>181.0</ele><time>2026-04-19T16:58:29.789Z</time></trkpt><trkpt lat="42.454435576871184" lon="12.367628806789794"><ele>180.5</ele><time>2026-04-19T16:58:30.789Z</time></trkpt><trkpt lat="42.4543901160951" lon="12.367473147546182"><ele>180.0</ele><time>2026-04-19T16:58:31.789Z</time></trkpt><trkpt lat="42.454339252310604" lon="12.367282835136532"><ele>179.5</ele><time>2026-04-19T16:58:32.789Z</time></trkpt><trkpt lat="42.45428725808908" lon="12.36707400139195"><ele>179.0</ele><time>2026-04-19T16:58:33.789Z</time></trkpt><trkpt lat="42.45423050775409" lon="12.366850510356592"><ele>178.33333333333331</ele><time>2026-04-19T16:58:34.789Z</time></trkpt><trkpt lat="42.45416631627187" lon="12.366615223775383"><ele>177.66666666666666</ele><time>2026-04-19T16:58:35.789Z</time></trkpt><trkpt lat="42.45409677906669" lon="12.366375241288386"><ele>177.0</ele><time>2026-04-19T16:58:36.789Z</time></trkpt><trkpt lat="42.454027636698335" lon="12.36612574766447"><ele>175.33333333333334</ele><time>2026-04-19T16:58:37.789Z</time></trkpt><trkpt lat="42.45395934179874" lon="12.36586191565237"><ele>173.66666666666669</ele><time>2026-04-19T16:58:38.789Z</time></trkpt><trkpt lat="42.45388873678465" lon="12.365606779107692"><ele>172.0</ele><time>2026-04-19T16:58:39.789Z</time></trkpt><trkpt lat="42.453819507982814" lon="12.365344635869658"><ele>169.33333333333334</ele><time>2026-04-19T16:58:40.789Z</time></trkpt><trkpt lat="42.45374988491164" lon="12.36509088830302"><ele>166.66666666666666</ele><time>2026-04-19T16:58:41.789Z</time></trkpt><trkpt lat="42.45368452119747" lon="12.364830864593534"><ele>164.0</ele><time>2026-04-19T16:58:42.789Z</time></trkpt><trkpt lat="42.45360962174281" lon="12.364563470336547"><ele>164.0</ele><time>2026-04-19T16:58:43.789Z</time></trkpt><trkpt lat="42.45353688377474" lon="12.364296263130193"><ele>164.0</ele><time>2026-04-19T16:58:44.788Z</time></trkpt><trkpt lat="42.45346326757998" lon="12.364026371852905"><ele>164.0</ele><time>2026-04-19T16:58:45.788Z</time></trkpt><trkpt lat="42.453387191085525" lon="12.363752416911563"><ele>166.33333333333331</ele><time>2026-04-19T16:58:46.788Z</time></trkpt><trkpt lat="42.453306470911045" lon="12.363477514980918"><ele>168.66666666666666</ele><time>2026-04-19T16:58:47.788Z</time></trkpt><trkpt lat="42.453234283774236" lon="12.363206714584052"><ele>171.0</ele><time>2026-04-19T16:58:48.788Z</time></trkpt><trkpt lat="42.45316542871089" lon="12.362926801234746"><ele>173.33333333333334</ele><time>2026-04-19T16:58:49.788Z</time></trkpt><trkpt lat="42.45309491319454" lon="12.362650032178909"><ele>175.66666666666669</ele><time>2026-04-19T16:58:50.788Z</time></trkpt><trkpt lat="42.453025108991696" lon="12.362377372231785"><ele>178.0</ele><time>2026-04-19T16:58:51.788Z</time></trkpt><trkpt lat="42.45295626587304" lon="12.362108210871469"><ele>176.33333333333334</ele><time>2026-04-19T16:58:52.788Z</time></trkpt><trkpt lat="42.45288771682245" lon="12.361839096819649"><ele>174.66666666666666</ele><time>2026-04-19T16:58:53.788Z</time></trkpt><trkpt lat="42.45282002518614" lon="12.361567252132652"><ele>173.0</ele><time>2026-04-19T16:58:54.788Z</time></trkpt><trkpt lat="42.452748833567554" lon="12.36129811941212"><ele>176.33333333333331</ele><time>2026-04-19T16:58:55.788Z</time></trkpt><trkpt lat="42.452676567674956" lon="12.361031920168353"><ele>179.66666666666666</ele><time>2026-04-19T16:58:56.788Z</time></trkpt><trkpt lat="42.45260765785349" lon="12.3607553545881"><ele>183.0</ele><time>2026-04-19T16:58:57.788Z</time></trkpt><trkpt lat="42.45253778477144" lon="12.360455897139785"><ele>188.0</ele><time>2026-04-19T16:58:58.788Z</time></trkpt><trkpt lat="42.452463325624066" lon="12.360132098555999"><ele>193.0</ele><time>2026-04-19T16:58:59.788Z</time></trkpt><trkpt lat="42.45237542458229" lon="12.359793514199342"><ele>196.5</ele><time>2026-04-19T16:59:00.788Z</time></trkpt><trkpt lat="42.45227899640507" lon="12.359445522992825"><ele>200.0</ele><time>2026-04-19T16:59:01.788Z</time></trkpt><trkpt lat="42.4521807919403" lon="12.359096871338213"><ele>193.5</ele><time>2026-04-19T16:59:02.79Z</time></trkpt><trkpt lat="42.452085652952746" lon="12.358718060910489"><ele>187.0</ele><time>2026-04-19T16:59:03.79Z</time></trkpt><trkpt lat="42.45200249070598" lon="12.358377815762141"><ele>187.0</ele><time>2026-04-19T16:59:04.79Z</time></trkpt><trkpt lat="42.45191284402627" lon="12.358048711907221"><ele>187.0</ele><time>2026-04-19T16:59:05.79Z</time></trkpt><trkpt lat="42.451815373991494" lon="12.357720932944149"><ele>192.0</ele><time>2026-04-19T16:59:06.79Z</time></trkpt><trkpt lat="42.45172541003077" lon="12.357398626924976"><ele>197.0</ele><time>2026-04-19T16:59:07.79Z</time></trkpt><trkpt lat="42.451643495529424" lon="12.35707968115965"><ele>203.0</ele><time>2026-04-19T16:59:08.79Z</time></trkpt><trkpt lat="42.45156299842217" lon="12.356768178274487"><ele>209.0</ele><time>2026-04-19T16:59:09.79Z</time></trkpt><trkpt lat="42.45148150482963" lon="12.356466873672126"><ele>212.0</ele><time>2026-04-19T16:59:10.79Z</time></trkpt><trkpt lat="42.45140062633254" lon="12.356166403053734"><ele>215.0</ele><time>2026-04-19T16:59:11.79Z</time></trkpt><trkpt lat="42.45132032381205" lon="12.355869662977401"><ele>210.5</ele><time>2026-04-19T16:59:12.79Z</time></trkpt><trkpt lat="42.45124254120885" lon="12.355565934883273"><ele>206.0</ele><time>2026-04-19T16:59:13.79Z</time></trkpt><trkpt lat="42.45116809669202" lon="12.355244342577008"><ele>206.0</ele><time>2026-04-19T16:59:14.789Z</time></trkpt><trkpt lat="42.45109079029169" lon="12.354926154225272"><ele>206.0</ele><time>2026-04-19T16:59:15.789Z</time></trkpt><trkpt lat="42.45100883958499" lon="12.354611198412758"><ele>209.0</ele><time>2026-04-19T16:59:16.789Z</time></trkpt><trkpt lat="42.45092190521449" lon="12.354299917527106"><ele>212.0</ele><time>2026-04-19T16:59:17.789Z</time></trkpt><trkpt lat="42.45083258315021" lon="12.354003281083978"><ele>214.5</ele><time>2026-04-19T16:59:18.789Z</time></trkpt><trkpt lat="42.4507460297689" lon="12.353709002730303"><ele>217.0</ele><time>2026-04-19T16:59:19.789Z</time></trkpt><trkpt lat="42.45065988595001" lon="12.353402558874183"><ele>217.0</ele><time>2026-04-19T16:59:20.789Z</time></trkpt><trkpt lat="42.45057526878378" lon="12.353085543440093"><ele>217.0</ele><time>2026-04-19T16:59:21.789Z</time></trkpt><trkpt lat="42.45049130384582" lon="12.352759549916286"><ele>215.5</ele><time>2026-04-19T16:59:22.789Z</time></trkpt><trkpt lat="42.45040602355425" lon="12.35242778145681"><ele>214.0</ele><time>2026-04-19T16:59:23.789Z</time></trkpt><trkpt lat="42.4503174601555" lon="12.352105440219631"><ele>217.5</ele><time>2026-04-19T16:59:24.789Z</time></trkpt><trkpt lat="42.450228242904075" lon="12.351779807678742"><ele>221.0</ele><time>2026-04-19T16:59:25.788Z</time></trkpt><trkpt lat="42.45013580842767" lon="12.351453511738459"><ele>222.0</ele><time>2026-04-19T16:59:26.788Z</time></trkpt><trkpt lat="42.45005090604825" lon="12.351125409313113"><ele>223.0</ele><time>2026-04-19T16:59:27.788Z</time></trkpt><trkpt lat="42.449967377932836" lon="12.350806180441548"><ele>224.0</ele><time>2026-04-19T16:59:28.788Z</time></trkpt><trkpt lat="42.44988353082905" lon="12.350499375020267"><ele>225.0</ele><time>2026-04-19T16:59:29.788Z</time></trkpt><trkpt lat="42.44979754927929" lon="12.350196117600051"><ele>225.0</ele><time>2026-04-19T16:59:30.788Z</time></trkpt><trkpt lat="42.449714429936186" lon="12.34989794549604"><ele>225.0</ele><time>2026-04-19T16:59:31.788Z</time></trkpt><trkpt lat="42.449636387132145" lon="12.34959930720629"><ele>225.0</ele><time>2026-04-19T16:59:32.788Z</time></trkpt><trkpt lat="42.44955856388819" lon="12.349297485044492"><ele>225.0</ele><time>2026-04-19T16:59:33.788Z</time></trkpt><trkpt lat="42.4494811477097" lon="12.348994151819777"><ele>228.0</ele><time>2026-04-19T16:59:34.788Z</time></trkpt><trkpt lat="42.449411153090004" lon="12.348694173181524"><ele>231.0</ele><time>2026-04-19T16:59:35.788Z</time></trkpt><trkpt lat="42.44933647969847" lon="12.348409464211967"><ele>231.0</ele><time>2026-04-19T16:59:36.788Z</time></trkpt><trkpt lat="42.44925906937491" lon="12.348130697334998"><ele>231.0</ele><time>2026-04-19T16:59:37.788Z</time></trkpt><trkpt lat="42.449180457351716" lon="12.347852169058765"><ele>231.0</ele><time>2026-04-19T16:59:38.788Z</time></trkpt><trkpt lat="42.44910134453875" lon="12.347569623104771"><ele>233.66666666666669</ele><time>2026-04-19T16:59:39.788Z</time></trkpt><trkpt lat="42.44902510740655" lon="12.347292651517126"><ele>236.33333333333334</ele><time>2026-04-19T16:59:40.788Z</time></trkpt><trkpt lat="42.44894751482772" lon="12.347012070099337"><ele>239.0</ele><time>2026-04-19T16:59:41.788Z</time></trkpt><trkpt lat="42.44887047410527" lon="12.346725299149435"><ele>241.0</ele><time>2026-04-19T16:59:42.788Z</time></trkpt><trkpt lat="42.448803054657176" lon="12.346434669666616"><ele>243.0</ele><time>2026-04-19T16:59:43.788Z</time></trkpt><trkpt lat="42.44873134728975" lon="12.34614552099979"><ele>243.0</ele><time>2026-04-19T16:59:44.787Z</time></trkpt><trkpt lat="42.448657333713015" lon="12.345845424467608"><ele>243.0</ele><time>2026-04-19T16:59:45.787Z</time></trkpt><trkpt lat="42.44858149580862" lon="12.345540027999277"><ele>242.0</ele><time>2026-04-19T16:59:46.787Z</time></trkpt><trkpt lat="42.448506409267345" lon="12.345230941971563"><ele>241.0</ele><time>2026-04-19T16:59:47.787Z</time></trkpt><trkpt lat="42.448426774679305" lon="12.344921868500332"><ele>242.0</ele><time>2026-04-19T16:59:48.787Z</time></trkpt><trkpt lat="42.44835173795848" lon="12.344611892924211"><ele>243.0</ele><time>2026-04-19T16:59:49.787Z</time></trkpt><trkpt lat="42.44827358376791" lon="12.344298374201736"><ele>243.0</ele><time>2026-04-19T16:59:50.787Z</time></trkpt><trkpt lat="42.448197485262426" lon="12.343985383079572"><ele>243.0</ele><time>2026-04-19T16:59:51.787Z</time></trkpt><trkpt lat="42.44812023263781" lon="12.343670668493646"><ele>245.5</ele><time>2026-04-19T16:59:52.787Z</time></trkpt><trkpt lat="42.448039909359714" lon="12.343358688323965"><ele>248.0</ele><time>2026-04-19T16:59:53.787Z</time></trkpt><trkpt lat="42.447962359313124" lon="12.343045773699215"><ele>256.0</ele><time>2026-04-19T16:59:54.787Z</time></trkpt><trkpt lat="42.44788527392709" lon="12.342729769842101"><ele>264.0</ele><time>2026-04-19T16:59:55.787Z</time></trkpt><trkpt lat="42.4478102268208" lon="12.342414729108492"><ele>266.0</ele><time>2026-04-19T16:59:56.787Z</time></trkpt><trkpt lat="42.44773988171132" lon="12.342096557842455"><ele>268.0</ele><time>2026-04-19T16:59:57.787Z</time></trkpt><trkpt lat="42.44767906337042" lon="12.341773441479052"><ele>268.0</ele><time>2026-04-19T16:59:58.787Z</time></trkpt><trkpt lat="42.44762464096115" lon="12.341446731915875"><ele>268.0</ele><time>2026-04-19T16:59:59.787Z</time></trkpt><trkpt lat="42.44758361803648" lon="12.34111564288232"><ele>268.5</ele><time>2026-04-19T17:00:00.787Z</time></trkpt><trkpt lat="42.44753835706091" lon="12.340773630991666"><ele>269.0</ele><time>2026-04-19T17:00:01.787Z</time></trkpt><trkpt lat="42.44750579431397" lon="12.340437988256273"><ele>269.0</ele><time>2026-04-19T17:00:02.787Z</time></trkpt><trkpt lat="42.44748529941772" lon="12.34009670199351"><ele>269.0</ele><time>2026-04-19T17:00:03.786Z</time></trkpt><trkpt lat="42.44748065891795" lon="12.339751788812233"><ele>270.5</ele><time>2026-04-19T17:00:04.786Z</time></trkpt><trkpt lat="42.44748984423129" lon="12.339407826161413"><ele>272.0</ele><time>2026-04-19T17:00:05.786Z</time></trkpt><trkpt lat="42.447522174113104" lon="12.339062191542764"><ele>277.0</ele><time>2026-04-19T17:00:06.786Z</time></trkpt><trkpt lat="42.447582975593505" lon="12.338720618258545"><ele>282.0</ele><time>2026-04-19T17:00:07.786Z</time></trkpt><trkpt lat="42.44765826205971" lon="12.338384229551043"><ele>286.0</ele><time>2026-04-19T17:00:08.786Z</time></trkpt><trkpt lat="42.44775022263037" lon="12.338041456951068"><ele>290.0</ele><time>2026-04-19T17:00:09.786Z</time></trkpt><trkpt lat="42.447845707844714" lon="12.337702055863138"><ele>290.0</ele><time>2026-04-19T17:00:10.786Z</time></trkpt><trkpt lat="42.44793338755774" lon="12.337361100140134"><ele>290.0</ele><time>2026-04-19T17:00:11.786Z</time></trkpt><trkpt lat="42.44802300863365" lon="12.337018665524509"><ele>287.5</ele><time>2026-04-19T17:00:12.786Z</time></trkpt><trkpt lat="42.448111225398065" lon="12.336672715816706"><ele>285.0</ele><time>2026-04-19T17:00:13.786Z</time></trkpt><trkpt lat="42.448196161758986" lon="12.336321122685517"><ele>282.5</ele><time>2026-04-19T17:00:14.786Z</time></trkpt><trkpt lat="42.44828208564579" lon="12.335977341000333"><ele>280.0</ele><time>2026-04-19T17:00:15.786Z</time></trkpt><trkpt lat="42.44836798552446" lon="12.335639945612627"><ele>278.5</ele><time>2026-04-19T17:00:16.786Z</time></trkpt><trkpt lat="42.44845029299822" lon="12.335298836353932"><ele>277.0</ele><time>2026-04-19T17:00:17.786Z</time></trkpt><trkpt lat="42.4485292202514" lon="12.334962565509699"><ele>275.0</ele><time>2026-04-19T17:00:18.786Z</time></trkpt><trkpt lat="42.448594306227825" lon="12.334621313102136"><ele>273.0</ele><time>2026-04-19T17:00:19.786Z</time></trkpt><trkpt lat="42.44865464056225" lon="12.33427942690096"><ele>273.0</ele><time>2026-04-19T17:00:20.786Z</time></trkpt><trkpt lat="42.44870652149596" lon="12.333930729857443"><ele>273.0</ele><time>2026-04-19T17:00:21.785Z</time></trkpt><trkpt lat="42.448757044315066" lon="12.33357781121625"><ele>271.5</ele><time>2026-04-19T17:00:22.785Z</time></trkpt><trkpt lat="42.44880513487908" lon="12.333214784849844"><ele>270.0</ele><time>2026-04-19T17:00:23.785Z</time></trkpt><trkpt lat="42.448863333784196" lon="12.332846614310409"><ele>270.0</ele><time>2026-04-19T17:00:24.785Z</time></trkpt><trkpt lat="42.44891247551237" lon="12.332471426564824"><ele>270.0</ele><time>2026-04-19T17:00:25.785Z</time></trkpt><trkpt lat="42.44895202774103" lon="12.332087625808327"><ele>272.5</ele><time>2026-04-19T17:00:26.785Z</time></trkpt><trkpt lat="42.44898178024261" lon="12.331707384351077"><ele>275.0</ele><time>2026-04-19T17:00:27.785Z</time></trkpt><trkpt lat="42.44900695618897" lon="12.331330041730649"><ele>278.5</ele><time>2026-04-19T17:00:28.785Z</time></trkpt><trkpt lat="42.44902576717086" lon="12.330961808002176"><ele>282.0</ele><time>2026-04-19T17:00:29.785Z</time></trkpt><trkpt lat="42.449037585541376" lon="12.330589291082298"><ele>283.5</ele><time>2026-04-19T17:00:30.785Z</time></trkpt><trkpt lat="42.449045160556246" lon="12.330223529213999"><ele>285.0</ele><time>2026-04-19T17:00:31.785Z</time></trkpt><trkpt lat="42.449055784947205" lon="12.329874464895745"><ele>285.5</ele><time>2026-04-19T17:00:32.785Z</time></trkpt><trkpt lat="42.44905986741772" lon="12.329525661364409"><ele>286.0</ele><time>2026-04-19T17:00:33.785Z</time></trkpt><trkpt lat="42.44906960462359" lon="12.32918117483815"><ele>285.5</ele><time>2026-04-19T17:00:34.785Z</time></trkpt><trkpt lat="42.44907134456257" lon="12.32883386188178"><ele>285.0</ele><time>2026-04-19T17:00:35.785Z</time></trkpt><trkpt lat="42.44907058550818" lon="12.328479864451488"><ele>285.0</ele><time>2026-04-19T17:00:36.785Z</time></trkpt><trkpt lat="42.44906853678929" lon="12.328125621642492"><ele>285.0</ele><time>2026-04-19T17:00:37.785Z</time></trkpt><trkpt lat="42.44907003780959" lon="12.327769575362808"><ele>284.5</ele><time>2026-04-19T17:00:38.785Z</time></trkpt><trkpt lat="42.44906963389885" lon="12.327419601399185"><ele>284.0</ele><time>2026-04-19T17:00:39.785Z</time></trkpt><trkpt lat="42.449070012514575" lon="12.327052196195456"><ele>282.5</ele><time>2026-04-19T17:00:40.784Z</time></trkpt><trkpt lat="42.44906983917635" lon="12.326674845579415"><ele>281.0</ele><time>2026-04-19T17:00:41.784Z</time></trkpt><trkpt lat="42.44907387315487" lon="12.326306372259268"><ele>278.5</ele><time>2026-04-19T17:00:42.784Z</time></trkpt><trkpt lat="42.449082768008125" lon="12.325927805877992"><ele>276.0</ele><time>2026-04-19T17:00:43.784Z</time></trkpt><trkpt lat="42.449090273883556" lon="12.325555430181343"><ele>273.5</ele><time>2026-04-19T17:00:44.784Z</time></trkpt><trkpt lat="42.44909652818614" lon="12.325175386771097"><ele>271.0</ele><time>2026-04-19T17:00:45.784Z</time></trkpt><trkpt lat="42.449103262616276" lon="12.3248195668576"><ele>271.0</ele><time>2026-04-19T17:00:46.784Z</time></trkpt><trkpt lat="42.44911648261193" lon="12.324456095674938"><ele>271.0</ele><time>2026-04-19T17:00:47.784Z</time></trkpt><trkpt lat="42.44913165544979" lon="12.324102465174416"><ele>274.5</ele><time>2026-04-19T17:00:48.784Z</time></trkpt><trkpt lat="42.44914249169174" lon="12.323747176342042"><ele>278.0</ele><time>2026-04-19T17:00:49.784Z</time></trkpt><trkpt lat="42.449149566611844" lon="12.32338979762746"><ele>279.5</ele><time>2026-04-19T17:00:50.784Z</time></trkpt><trkpt lat="42.44919528740943" lon="12.32278867490527"><ele>281.0</ele><time>2026-04-19T17:00:51.784Z</time></trkpt><trkpt lat="42.449216159334775" lon="12.322394785751294"><ele>281.0</ele><time>2026-04-19T17:00:52.784Z</time></trkpt><trkpt lat="42.449241034574" lon="12.322006081290928"><ele>281.0</ele><time>2026-04-19T17:00:53.784Z</time></trkpt><trkpt lat="42.44927483863384" lon="12.321617609315297"><ele>281.0</ele><time>2026-04-19T17:00:54.784Z</time></trkpt><trkpt lat="42.44930547799678" lon="12.321232002099213"><ele>281.0</ele><time>2026-04-19T17:00:55.784Z</time></trkpt><trkpt lat="42.4493397262288" lon="12.320842509395323"><ele>280.0</ele><time>2026-04-19T17:00:56.784Z</time></trkpt><trkpt lat="42.449376879087225" lon="12.320446774986392"><ele>279.0</ele><time>2026-04-19T17:00:57.784Z</time></trkpt><trkpt lat="42.4494172260566" lon="12.320056266543414"><ele>279.0</ele><time>2026-04-19T17:00:58.784Z</time></trkpt><trkpt lat="42.44946572895762" lon="12.319663904993375"><ele>279.0</ele><time>2026-04-19T17:00:59.783Z</time></trkpt><trkpt lat="42.44950967175387" lon="12.319272418131387"><ele>281.0</ele><time>2026-04-19T17:01:00.783Z</time></trkpt><trkpt lat="42.44955891078857" lon="12.318878417854615"><ele>283.0</ele><time>2026-04-19T17:01:01.783Z</time></trkpt><trkpt lat="42.44960897646971" lon="12.318489615316768"><ele>286.5</ele><time>2026-04-19T17:01:02.783Z</time></trkpt><trkpt lat="42.449660866738576" lon="12.318099272944098"><ele>290.0</ele><time>2026-04-19T17:01:03.783Z</time></trkpt><trkpt lat="42.449713752949904" lon="12.317708495789377"><ele>293.5</ele><time>2026-04-19T17:01:04.783Z</time></trkpt><trkpt lat="42.44976122142791" lon="12.317313704362125"><ele>297.0</ele><time>2026-04-19T17:01:05.783Z</time></trkpt><trkpt lat="42.44980808602593" lon="12.316920614512586"><ele>298.0</ele><time>2026-04-19T17:01:06.783Z</time></trkpt><trkpt lat="42.4498595153264" lon="12.31652440455476"><ele>299.0</ele><time>2026-04-19T17:01:07.783Z</time></trkpt><trkpt lat="42.44990275798798" lon="12.316128205429218"><ele>300.0</ele><time>2026-04-19T17:01:08.785Z</time></trkpt><trkpt lat="42.44995619004281" lon="12.315739259161514"><ele>301.0</ele><time>2026-04-19T17:01:09.785Z</time></trkpt><trkpt lat="42.450007212240656" lon="12.31535646572641"><ele>301.5</ele><time>2026-04-19T17:01:10.785Z</time></trkpt><trkpt lat="42.45005526206285" lon="12.314963692757049"><ele>302.0</ele><time>2026-04-19T17:01:11.785Z</time></trkpt><trkpt lat="42.45010260857643" lon="12.314571354338414"><ele>302.5</ele><time>2026-04-19T17:01:12.785Z</time></trkpt><trkpt lat="42.45015071019623" lon="12.314189300885841"><ele>303.0</ele><time>2026-04-19T17:01:13.784Z</time></trkpt><trkpt lat="42.45019457749575" lon="12.313810819262512"><ele>304.5</ele><time>2026-04-19T17:01:14.785Z</time></trkpt><trkpt lat="42.45024699631446" lon="12.313430092004127"><ele>306.0</ele><time>2026-04-19T17:01:15.785Z</time></trkpt><trkpt lat="42.450292494191885" lon="12.313056024164013"><ele>307.5</ele><time>2026-04-19T17:01:16.785Z</time></trkpt><trkpt lat="42.45033726887581" lon="12.31268810309316"><ele>309.0</ele><time>2026-04-19T17:01:17.785Z</time></trkpt><trkpt lat="42.450384662093384" lon="12.31232435641997"><ele>308.0</ele><time>2026-04-19T17:01:18.785Z</time></trkpt><trkpt lat="42.45043951413331" lon="12.3119559486515"><ele>307.0</ele><time>2026-04-19T17:01:19.785Z</time></trkpt><trkpt lat="42.45049745643928" lon="12.311576553396252"><ele>306.0</ele><time>2026-04-19T17:01:20.784Z</time></trkpt><trkpt lat="42.450551517015136" lon="12.311177985707133"><ele>305.0</ele><time>2026-04-19T17:01:21.785Z</time></trkpt><trkpt lat="42.45060725883237" lon="12.31078123497403"><ele>303.5</ele><time>2026-04-19T17:01:22.785Z</time></trkpt><trkpt lat="42.45066940527056" lon="12.310390203382534"><ele>302.0</ele><time>2026-04-19T17:01:23.785Z</time></trkpt><trkpt lat="42.45074973670539" lon="12.309997260851224"><ele>301.0</ele><time>2026-04-19T17:01:24.785Z</time></trkpt><trkpt lat="42.4508279883568" lon="12.309602245248263"><ele>300.0</ele><time>2026-04-19T17:01:25.784Z</time></trkpt><trkpt lat="42.450895613642444" lon="12.309210805406671"><ele>299.0</ele><time>2026-04-19T17:01:26.784Z</time></trkpt><trkpt lat="42.450966451343405" lon="12.308825511859036"><ele>298.0</ele><time>2026-04-19T17:01:27.784Z</time></trkpt><trkpt lat="42.45104783668337" lon="12.308430489957125"><ele>297.5</ele><time>2026-04-19T17:01:28.784Z</time></trkpt><trkpt lat="42.45114396194633" lon="12.308039784867995"><ele>297.0</ele><time>2026-04-19T17:01:29.784Z</time></trkpt><trkpt lat="42.451241022401504" lon="12.307654772635765"><ele>298.0</ele><time>2026-04-19T17:01:30.784Z</time></trkpt><trkpt lat="42.45133904435446" lon="12.307271806999225"><ele>299.0</ele><time>2026-04-19T17:01:31.784Z</time></trkpt><trkpt lat="42.451437359677776" lon="12.306901827441036"><ele>299.0</ele><time>2026-04-19T17:01:32.784Z</time></trkpt><trkpt lat="42.451538839738674" lon="12.306531041972645"><ele>299.0</ele><time>2026-04-19T17:01:33.784Z</time></trkpt><trkpt lat="42.45163279839651" lon="12.306167115114116"><ele>299.0</ele><time>2026-04-19T17:01:34.784Z</time></trkpt><trkpt lat="42.45173383005359" lon="12.305814769406592"><ele>299.0</ele><time>2026-04-19T17:01:35.784Z</time></trkpt><trkpt lat="42.45183507192998" lon="12.305462432970327"><ele>299.0</ele><time>2026-04-19T17:01:36.784Z</time></trkpt><trkpt lat="42.45193152881151" lon="12.305134621739741"><ele>299.0</ele><time>2026-04-19T17:01:37.784Z</time></trkpt><trkpt lat="42.45202705726621" lon="12.30483116945661"><ele>299.0</ele><time>2026-04-19T17:01:38.784Z</time></trkpt><trkpt lat="42.452120211167404" lon="12.30454258961954"><ele>299.0</ele><time>2026-04-19T17:01:39.784Z</time></trkpt><trkpt lat="42.452207763167614" lon="12.304250975921548"><ele>299.0</ele><time>2026-04-19T17:01:40.784Z</time></trkpt><trkpt lat="42.452292019361565" lon="12.30396156664439"><ele>299.0</ele><time>2026-04-19T17:01:41.784Z</time></trkpt><trkpt lat="42.45237150319343" lon="12.303681621225136"><ele>298.6666666666667</ele><time>2026-04-19T17:01:42.784Z</time></trkpt><trkpt lat="42.452456110020705" lon="12.303407853658832"><ele>298.3333333333333</ele><time>2026-04-19T17:01:43.783Z</time></trkpt><trkpt lat="42.45254068227696" lon="12.303130614552984"><ele>298.0</ele><time>2026-04-19T17:01:44.783Z</time></trkpt><trkpt lat="42.45262270713112" lon="12.302849332882277"><ele>297.66666666666663</ele><time>2026-04-19T17:01:45.783Z</time></trkpt><trkpt lat="42.45270564645573" lon="12.302571392801962"><ele>297.3333333333333</ele><time>2026-04-19T17:01:46.783Z</time></trkpt><trkpt lat="42.452794524953575" lon="12.302293120671836"><ele>297.0</ele><time>2026-04-19T17:01:47.783Z</time></trkpt><trkpt lat="42.45288627123602" lon="12.302014860166498"><ele>297.5</ele><time>2026-04-19T17:01:48.783Z</time></trkpt><trkpt lat="42.45297570885366" lon="12.30172930158416"><ele>298.0</ele><time>2026-04-19T17:01:49.783Z</time></trkpt><trkpt lat="42.453065273032166" lon="12.301438709707009"><ele>299.0</ele><time>2026-04-19T17:01:50.783Z</time></trkpt><trkpt lat="42.45315772778" lon="12.301143927042313"><ele>300.0</ele><time>2026-04-19T17:01:51.783Z</time></trkpt><trkpt lat="42.45324582662325" lon="12.300829827644282"><ele>300.5</ele><time>2026-04-19T17:01:52.783Z</time></trkpt><trkpt lat="42.4533396944758" lon="12.30051908745918"><ele>301.0</ele><time>2026-04-19T17:01:53.783Z</time></trkpt><trkpt lat="42.453440710890916" lon="12.300204033335351"><ele>301.0</ele><time>2026-04-19T17:01:54.783Z</time></trkpt><trkpt lat="42.453531535119204" lon="12.29989096375271"><ele>301.0</ele><time>2026-04-19T17:01:55.783Z</time></trkpt><trkpt lat="42.45362002661649" lon="12.29957847220543"><ele>301.0</ele><time>2026-04-19T17:01:56.783Z</time></trkpt><trkpt lat="42.453712126452686" lon="12.299264244142826"><ele>301.0</ele><time>2026-04-19T17:01:57.783Z</time></trkpt><trkpt lat="42.45380962397334" lon="12.298944054422366"><ele>300.0</ele><time>2026-04-19T17:01:58.783Z</time></trkpt><trkpt lat="42.453904480736185" lon="12.298610418996164"><ele>299.0</ele><time>2026-04-19T17:01:59.783Z</time></trkpt><trkpt lat="42.454006258668265" lon="12.29828154208119"><ele>297.5</ele><time>2026-04-19T17:02:00.783Z</time></trkpt><trkpt lat="42.45410550130127" lon="12.297955468956605"><ele>296.0</ele><time>2026-04-19T17:02:01.783Z</time></trkpt><trkpt lat="42.45419834636074" lon="12.297631586088128"><ele>296.0</ele><time>2026-04-19T17:02:02.782Z</time></trkpt><trkpt lat="42.454290485980465" lon="12.297318617910223"><ele>296.0</ele><time>2026-04-19T17:02:03.782Z</time></trkpt><trkpt lat="42.45438609314505" lon="12.296999834556777"><ele>296.0</ele><time>2026-04-19T17:02:04.782Z</time></trkpt><trkpt lat="42.45447988311301" lon="12.296692736508112"><ele>296.0</ele><time>2026-04-19T17:02:05.782Z</time></trkpt><trkpt lat="42.45457778861944" lon="12.296381581420453"><ele>299.0</ele><time>2026-04-19T17:02:06.782Z</time></trkpt><trkpt lat="42.454674093779886" lon="12.296071265278087"><ele>302.0</ele><time>2026-04-19T17:02:07.782Z</time></trkpt><trkpt lat="42.454767716789966" lon="12.295748890618222"><ele>300.0</ele><time>2026-04-19T17:02:08.782Z</time></trkpt><trkpt lat="42.4548618703637" lon="12.295430890358139"><ele>298.0</ele><time>2026-04-19T17:02:09.782Z</time></trkpt><trkpt lat="42.45496031311029" lon="12.29511735301458"><ele>298.0</ele><time>2026-04-19T17:02:10.782Z</time></trkpt><trkpt lat="42.45505516266621" lon="12.294794908866345"><ele>298.0</ele><time>2026-04-19T17:02:11.782Z</time></trkpt><trkpt lat="42.45515298417369" lon="12.294481933641082"><ele>296.5</ele><time>2026-04-19T17:02:12.782Z</time></trkpt><trkpt lat="42.45524779276914" lon="12.294166733030021"><ele>295.0</ele><time>2026-04-19T17:02:13.782Z</time></trkpt><trkpt lat="42.455342407215994" lon="12.293847418350673"><ele>295.0</ele><time>2026-04-19T17:02:14.782Z</time></trkpt><trkpt lat="42.4554349266849" lon="12.29353004368433"><ele>295.0</ele><time>2026-04-19T17:02:15.782Z</time></trkpt><trkpt lat="42.455527696640885" lon="12.29321844687362"><ele>295.5</ele><time>2026-04-19T17:02:16.782Z</time></trkpt><trkpt lat="42.45561822506607" lon="12.292905317466309"><ele>296.0</ele><time>2026-04-19T17:02:17.782Z</time></trkpt><trkpt lat="42.45572310378794" lon="12.292593448882176"><ele>296.0</ele><time>2026-04-19T17:02:18.782Z</time></trkpt><trkpt lat="42.45582411535157" lon="12.292272577903415"><ele>296.0</ele><time>2026-04-19T17:02:19.782Z</time></trkpt><trkpt lat="42.45591893449978" lon="12.291940271056149"><ele>297.5</ele><time>2026-04-19T17:02:20.782Z</time></trkpt><trkpt lat="42.456016993648845" lon="12.291603961810184"><ele>299.0</ele><time>2026-04-19T17:02:21.781Z</time></trkpt><trkpt lat="42.45611823304389" lon="12.291262956031103"><ele>299.0</ele><time>2026-04-19T17:02:22.781Z</time></trkpt><trkpt lat="42.45621473283809" lon="12.29091551022848"><ele>299.0</ele><time>2026-04-19T17:02:23.781Z</time></trkpt><trkpt lat="42.45631868128145" lon="12.29057532700723"><ele>298.0</ele><time>2026-04-19T17:02:24.781Z</time></trkpt><trkpt lat="42.45642578549795" lon="12.290217440969366"><ele>297.0</ele><time>2026-04-19T17:02:25.781Z</time></trkpt><trkpt lat="42.45653777826807" lon="12.28985678708799"><ele>296.5</ele><time>2026-04-19T17:02:26.781Z</time></trkpt><trkpt lat="42.45665044827846" lon="12.289498006752153"><ele>296.0</ele><time>2026-04-19T17:02:27.781Z</time></trkpt><trkpt lat="42.456751466564356" lon="12.28913507161607"><ele>294.0</ele><time>2026-04-19T17:02:28.781Z</time></trkpt><trkpt lat="42.45685806069813" lon="12.288773169895489"><ele>292.0</ele><time>2026-04-19T17:02:29.781Z</time></trkpt><trkpt lat="42.4569706293654" lon="12.28840645250625"><ele>291.0</ele><time>2026-04-19T17:02:30.781Z</time></trkpt><trkpt lat="42.4570862460078" lon="12.288039192785293"><ele>290.0</ele><time>2026-04-19T17:02:31.781Z</time></trkpt><trkpt lat="42.45719488123542" lon="12.287684649193109"><ele>291.5</ele><time>2026-04-19T17:02:32.781Z</time></trkpt><trkpt lat="42.457298627165564" lon="12.287332084821722"><ele>293.0</ele><time>2026-04-19T17:02:33.781Z</time></trkpt><trkpt lat="42.45740187192356" lon="12.286970545531004"><ele>293.0</ele><time>2026-04-19T17:02:34.781Z</time></trkpt><trkpt lat="42.45751524762417" lon="12.286604759950354"><ele>293.0</ele><time>2026-04-19T17:02:35.781Z</time></trkpt><trkpt lat="42.457621267571454" lon="12.286231869731399"><ele>293.0</ele><time>2026-04-19T17:02:36.781Z</time></trkpt><trkpt lat="42.457728453865535" lon="12.285858853652861"><ele>293.0</ele><time>2026-04-19T17:02:37.781Z</time></trkpt><trkpt lat="42.45784629344662" lon="12.285478921487487"><ele>293.5</ele><time>2026-04-19T17:02:38.781Z</time></trkpt><trkpt lat="42.45795918467564" lon="12.285097842884609"><ele>294.0</ele><time>2026-04-19T17:02:39.781Z</time></trkpt><trkpt lat="42.45807136385457" lon="12.284716439673353"><ele>292.0</ele><time>2026-04-19T17:02:40.78Z</time></trkpt><trkpt lat="42.45818345219953" lon="12.284335850156136"><ele>290.0</ele><time>2026-04-19T17:02:41.78Z</time></trkpt><trkpt lat="42.45828678991182" lon="12.283953188483101"><ele>289.0</ele><time>2026-04-19T17:02:42.78Z</time></trkpt><trkpt lat="42.45838964270344" lon="12.283576762053576"><ele>288.0</ele><time>2026-04-19T17:02:43.78Z</time></trkpt><trkpt lat="42.45850143205771" lon="12.28322439853364"><ele>287.5</ele><time>2026-04-19T17:02:44.78Z</time></trkpt><trkpt lat="42.45860677850367" lon="12.282873096730738"><ele>287.0</ele><time>2026-04-19T17:02:45.78Z</time></trkpt><trkpt lat="42.458710789257196" lon="12.282526560050927"><ele>290.0</ele><time>2026-04-19T17:02:46.78Z</time></trkpt><trkpt lat="42.458818887828194" lon="12.282164050051552"><ele>293.0</ele><time>2026-04-19T17:02:47.78Z</time></trkpt><trkpt lat="42.45892766413135" lon="12.281796287434977"><ele>293.0</ele><time>2026-04-19T17:02:48.78Z</time></trkpt><trkpt lat="42.459036679339846" lon="12.281437622631781"><ele>293.0</ele><time>2026-04-19T17:02:49.78Z</time></trkpt><trkpt lat="42.459140389756605" lon="12.28107760674941"><ele>292.5</ele><time>2026-04-19T17:02:50.78Z</time></trkpt><trkpt lat="42.459245440837854" lon="12.280719833131954"><ele>292.0</ele><time>2026-04-19T17:02:51.78Z</time></trkpt><trkpt lat="42.45935173812442" lon="12.28035519040458"><ele>292.0</ele><time>2026-04-19T17:02:52.78Z</time></trkpt><trkpt lat="42.45946006987363" lon="12.279990357151206"><ele>292.0</ele><time>2026-04-19T17:02:53.78Z</time></trkpt><trkpt lat="42.45957739102273" lon="12.279629471216865"><ele>292.5</ele><time>2026-04-19T17:02:54.78Z</time></trkpt><trkpt lat="42.459682099569605" lon="12.27925846010501"><ele>293.0</ele><time>2026-04-19T17:02:55.78Z</time></trkpt><trkpt lat="42.45978796495342" lon="12.278891891156494"><ele>292.0</ele><time>2026-04-19T17:02:56.78Z</time></trkpt><trkpt lat="42.45989947493862" lon="12.278525464369224"><ele>291.0</ele><time>2026-04-19T17:02:57.78Z</time></trkpt><trkpt lat="42.4600112347077" lon="12.278168397108475"><ele>290.0</ele><time>2026-04-19T17:02:58.779Z</time></trkpt><trkpt lat="42.46012304737498" lon="12.277814618063678"><ele>289.0</ele><time>2026-04-19T17:02:59.779Z</time></trkpt><trkpt lat="42.460227081066954" lon="12.277463075068882"><ele>289.0</ele><time>2026-04-19T17:03:00.779Z</time></trkpt><trkpt lat="42.46031957436426" lon="12.277115416952556"><ele>289.0</ele><time>2026-04-19T17:03:01.779Z</time></trkpt><trkpt lat="42.46040087941701" lon="12.27676509843979"><ele>290.5</ele><time>2026-04-19T17:03:02.779Z</time></trkpt><trkpt lat="42.4604737105334" lon="12.276419522432992"><ele>292.0</ele><time>2026-04-19T17:03:03.779Z</time></trkpt><trkpt lat="42.460542989672916" lon="12.276077242955747"><ele>292.0</ele><time>2026-04-19T17:03:04.779Z</time></trkpt><trkpt lat="42.46061066601795" lon="12.275729727327398"><ele>292.0</ele><time>2026-04-19T17:03:05.779Z</time></trkpt><trkpt lat="42.46067657378656" lon="12.275379707132025"><ele>292.0</ele><time>2026-04-19T17:03:06.779Z</time></trkpt><trkpt lat="42.460739680417554" lon="12.27503069656143"><ele>292.0</ele><time>2026-04-19T17:03:07.779Z</time></trkpt><trkpt lat="42.460805424091184" lon="12.27468320185393"><ele>291.0</ele><time>2026-04-19T17:03:08.779Z</time></trkpt><trkpt lat="42.46086950944341" lon="12.274338480015249"><ele>290.0</ele><time>2026-04-19T17:03:09.779Z</time></trkpt><trkpt lat="42.460929656072935" lon="12.273995395661704"><ele>290.5</ele><time>2026-04-19T17:03:10.779Z</time></trkpt><trkpt lat="42.460996124680804" lon="12.273652377250151"><ele>291.0</ele><time>2026-04-19T17:03:11.779Z</time></trkpt><trkpt lat="42.461062421749865" lon="12.273301624291962"><ele>290.0</ele><time>2026-04-19T17:03:12.779Z</time></trkpt><trkpt lat="42.461129947846196" lon="12.272942961680611"><ele>289.0</ele><time>2026-04-19T17:03:13.779Z</time></trkpt><trkpt lat="42.46119667693141" lon="12.272578476674886"><ele>288.0</ele><time>2026-04-19T17:03:14.78Z</time></trkpt><trkpt lat="42.461269436125335" lon="12.272214935266033"><ele>287.0</ele><time>2026-04-19T17:03:15.781Z</time></trkpt><trkpt lat="42.461338576246604" lon="12.271845281666902"><ele>287.0</ele><time>2026-04-19T17:03:16.781Z</time></trkpt><trkpt lat="42.46141886687269" lon="12.271478643683253"><ele>287.0</ele><time>2026-04-19T17:03:17.781Z</time></trkpt><trkpt lat="42.46149066877758" lon="12.271104844237401"><ele>287.0</ele><time>2026-04-19T17:03:18.78Z</time></trkpt><trkpt lat="42.46155870516755" lon="12.270724459329324"><ele>287.0</ele><time>2026-04-19T17:03:19.78Z</time></trkpt><trkpt lat="42.46162837432786" lon="12.270342844249189"><ele>285.5</ele><time>2026-04-19T17:03:20.78Z</time></trkpt><trkpt lat="42.461698897351226" lon="12.269969664700216"><ele>284.0</ele><time>2026-04-19T17:03:21.78Z</time></trkpt><trkpt lat="42.46176887056553" lon="12.269596270917662"><ele>283.0</ele><time>2026-04-19T17:03:22.78Z</time></trkpt><trkpt lat="42.461839722767564" lon="12.26922184580593"><ele>282.0</ele><time>2026-04-19T17:03:23.78Z</time></trkpt><trkpt lat="42.461908080576" lon="12.268852203342604"><ele>281.5</ele><time>2026-04-19T17:03:24.78Z</time></trkpt><trkpt lat="42.46198142849994" lon="12.26847659528793"><ele>281.0</ele><time>2026-04-19T17:03:25.78Z</time></trkpt><trkpt lat="42.4620540087726" lon="12.268102550948068"><ele>279.5</ele><time>2026-04-19T17:03:26.781Z</time></trkpt><trkpt lat="42.462125866377036" lon="12.267731778263803"><ele>278.0</ele><time>2026-04-19T17:03:27.781Z</time></trkpt><trkpt lat="42.462197317340966" lon="12.267354701668985"><ele>277.5</ele><time>2026-04-19T17:03:28.781Z</time></trkpt><trkpt lat="42.46226207385692" lon="12.266993560113562"><ele>277.0</ele><time>2026-04-19T17:03:29.78Z</time></trkpt><trkpt lat="42.46232622422937" lon="12.266652674518022"><ele>276.0</ele><time>2026-04-19T17:03:30.78Z</time></trkpt><trkpt lat="42.462392852016336" lon="12.266323325404507"><ele>275.0</ele><time>2026-04-19T17:03:31.78Z</time></trkpt><trkpt lat="42.4624585250774" lon="12.266013489420455"><ele>275.0</ele><time>2026-04-19T17:03:32.78Z</time></trkpt><trkpt lat="42.46250606368821" lon="12.265707244439648"><ele>275.0</ele><time>2026-04-19T17:03:33.78Z</time></trkpt><trkpt lat="42.46255910630264" lon="12.265411835055287"><ele>274.0</ele><time>2026-04-19T17:03:34.78Z</time></trkpt><trkpt lat="42.46261779841549" lon="12.26511929279041"><ele>273.0</ele><time>2026-04-19T17:03:35.78Z</time></trkpt><trkpt lat="42.46267047221042" lon="12.264825037892578"><ele>272.0</ele><time>2026-04-19T17:03:36.78Z</time></trkpt><trkpt lat="42.46272257153525" lon="12.264527683409563"><ele>270.33333333333337</ele><time>2026-04-19T17:03:37.78Z</time></trkpt><trkpt lat="42.462778089279084" lon="12.26423487503553"><ele>268.6666666666667</ele><time>2026-04-19T17:03:38.78Z</time></trkpt><trkpt lat="42.462823530803696" lon="12.263941095737623"><ele>267.0</ele><time>2026-04-19T17:03:39.78Z</time></trkpt><trkpt lat="42.46285667648535" lon="12.263634985487807"><ele>265.5</ele><time>2026-04-19T17:03:40.78Z</time></trkpt><trkpt lat="42.4628862105393" lon="12.26333008463566"><ele>264.0</ele><time>2026-04-19T17:03:41.78Z</time></trkpt><trkpt lat="42.462906552529354" lon="12.263019290050067"><ele>262.0</ele><time>2026-04-19T17:03:42.78Z</time></trkpt><trkpt lat="42.46291871261328" lon="12.262708120636962"><ele>260.0</ele><time>2026-04-19T17:03:43.78Z</time></trkpt><trkpt lat="42.462919098026845" lon="12.262397013426074"><ele>258.5</ele><time>2026-04-19T17:03:44.78Z</time></trkpt><trkpt lat="42.462908489708575" lon="12.262082868748271"><ele>257.0</ele><time>2026-04-19T17:03:45.78Z</time></trkpt><trkpt lat="42.46289201105803" lon="12.261769560859136"><ele>257.0</ele><time>2026-04-19T17:03:46.78Z</time></trkpt><trkpt lat="42.46287349255966" lon="12.26144906779668"><ele>257.0</ele><time>2026-04-19T17:03:47.78Z</time></trkpt><trkpt lat="42.462854071787575" lon="12.26113134060863"><ele>256.0</ele><time>2026-04-19T17:03:48.779Z</time></trkpt><trkpt lat="42.46284187996476" lon="12.260811687670707"><ele>255.0</ele><time>2026-04-19T17:03:49.779Z</time></trkpt><trkpt lat="42.46282952408828" lon="12.260487007927338"><ele>257.5</ele><time>2026-04-19T17:03:50.779Z</time></trkpt><trkpt lat="42.46281240086882" lon="12.260158148264708"><ele>260.0</ele><time>2026-04-19T17:03:51.779Z</time></trkpt><trkpt lat="42.46280106113347" lon="12.259821469998647"><ele>259.5</ele><time>2026-04-19T17:03:52.779Z</time></trkpt><trkpt lat="42.46280050742099" lon="12.259484967231248"><ele>259.0</ele><time>2026-04-19T17:03:53.779Z</time></trkpt><trkpt lat="42.46280253984085" lon="12.25914708780628"><ele>258.5</ele><time>2026-04-19T17:03:54.779Z</time></trkpt><trkpt lat="42.46281743653512" lon="12.258804085512752"><ele>258.0</ele><time>2026-04-19T17:03:55.779Z</time></trkpt><trkpt lat="42.462835395812036" lon="12.258456689996578"><ele>258.0</ele><time>2026-04-19T17:03:56.779Z</time></trkpt><trkpt lat="42.46286026492386" lon="12.258109701816661"><ele>258.0</ele><time>2026-04-19T17:03:57.779Z</time></trkpt><trkpt lat="42.46290094734811" lon="12.257753671214369"><ele>258.0</ele><time>2026-04-19T17:03:58.779Z</time></trkpt><trkpt lat="42.46294638222744" lon="12.257394291462818"><ele>258.0</ele><time>2026-04-19T17:03:59.779Z</time></trkpt><trkpt lat="42.46299060834836" lon="12.257026661796292"><ele>260.0</ele><time>2026-04-19T17:04:00.779Z</time></trkpt><trkpt lat="42.463032629805454" lon="12.256659777258916"><ele>262.0</ele><time>2026-04-19T17:04:01.779Z</time></trkpt><trkpt lat="42.463075911118715" lon="12.256285984648276"><ele>263.0</ele><time>2026-04-19T17:04:02.779Z</time></trkpt><trkpt lat="42.46312049890833" lon="12.255935026986595"><ele>264.0</ele><time>2026-04-19T17:04:03.779Z</time></trkpt><trkpt lat="42.46316515187888" lon="12.255586705367424"><ele>266.0</ele><time>2026-04-19T17:04:04.779Z</time></trkpt><trkpt lat="42.463204717788756" lon="12.255272836974173"><ele>268.0</ele><time>2026-04-19T17:04:05.779Z</time></trkpt><trkpt lat="42.46324270596132" lon="12.254969100936707"><ele>270.3333333333333</ele><time>2026-04-19T17:04:06.779Z</time></trkpt><trkpt lat="42.46328496295471" lon="12.25468577148135"><ele>272.6666666666667</ele><time>2026-04-19T17:04:07.778Z</time></trkpt><trkpt lat="42.463316977668576" lon="12.25439715056532"><ele>275.0</ele><time>2026-04-19T17:04:08.778Z</time></trkpt><trkpt lat="42.46334258221678" lon="12.254100947017037"><ele>276.6666666666667</ele><time>2026-04-19T17:04:09.778Z</time></trkpt><trkpt lat="42.46335565971362" lon="12.253815360462317"><ele>278.3333333333333</ele><time>2026-04-19T17:04:10.778Z</time></trkpt><trkpt lat="42.46337720822213" lon="12.253540797892153"><ele>280.0</ele><time>2026-04-19T17:04:11.778Z</time></trkpt><trkpt lat="42.46340603810963" lon="12.25326514755128"><ele>280.5</ele><time>2026-04-19T17:04:12.778Z</time></trkpt><trkpt lat="42.46343463653459" lon="12.252985173054904"><ele>281.0</ele><time>2026-04-19T17:04:13.778Z</time></trkpt><trkpt lat="42.46361860952924" lon="12.252033918545786"><ele>281.0</ele><time>2026-04-19T17:04:14.778Z</time></trkpt><trkpt lat="42.46366024112042" lon="12.25169344835446"><ele>281.0</ele><time>2026-04-19T17:04:15.778Z</time></trkpt><trkpt lat="42.46370000306466" lon="12.251351229322893"><ele>280.5</ele><time>2026-04-19T17:04:16.778Z</time></trkpt><trkpt lat="42.463738506314094" lon="12.251010636378343"><ele>280.0</ele><time>2026-04-19T17:04:17.778Z</time></trkpt><trkpt lat="42.4637788281923" lon="12.250676044521027"><ele>276.5</ele><time>2026-04-19T17:04:18.778Z</time></trkpt><trkpt lat="42.46382402798772" lon="12.25034495322922"><ele>273.0</ele><time>2026-04-19T17:04:19.778Z</time></trkpt><trkpt lat="42.46385693498464" lon="12.250017777057261"><ele>274.5</ele><time>2026-04-19T17:04:20.778Z</time></trkpt><trkpt lat="42.46388891316537" lon="12.249686360868653"><ele>276.0</ele><time>2026-04-19T17:04:21.778Z</time></trkpt><trkpt lat="42.46390859740919" lon="12.249363045837999"><ele>276.0</ele><time>2026-04-19T17:04:22.778Z</time></trkpt><trkpt lat="42.463927806049476" lon="12.249036230807302"><ele>276.0</ele><time>2026-04-19T17:04:23.778Z</time></trkpt><trkpt lat="42.46393824307527" lon="12.248711450395312"><ele>276.5</ele><time>2026-04-19T17:04:24.778Z</time></trkpt><trkpt lat="42.463947093252195" lon="12.248388877317176"><ele>277.0</ele><time>2026-04-19T17:04:25.777Z</time></trkpt><trkpt lat="42.46395540553328" lon="12.248069365352313"><ele>277.0</ele><time>2026-04-19T17:04:26.777Z</time></trkpt><trkpt lat="42.46396406726842" lon="12.24774434904064"><ele>277.0</ele><time>2026-04-19T17:04:27.777Z</time></trkpt><trkpt lat="42.463972706631495" lon="12.247426097577799"><ele>277.5</ele><time>2026-04-19T17:04:28.777Z</time></trkpt><trkpt lat="42.46397621328957" lon="12.247097386591559"><ele>278.0</ele><time>2026-04-19T17:04:29.777Z</time></trkpt><trkpt lat="42.463974390822855" lon="12.246774060952442"><ele>279.0</ele><time>2026-04-19T17:04:30.777Z</time></trkpt><trkpt lat="42.46397036419138" lon="12.246446678375536"><ele>280.0</ele><time>2026-04-19T17:04:31.777Z</time></trkpt><trkpt lat="42.46395479617537" lon="12.246116727695844"><ele>280.0</ele><time>2026-04-19T17:04:32.777Z</time></trkpt><trkpt lat="42.46393963737762" lon="12.245783260046885"><ele>280.0</ele><time>2026-04-19T17:04:33.777Z</time></trkpt><trkpt lat="42.46392196801015" lon="12.245443719177691"><ele>281.5</ele><time>2026-04-19T17:04:34.777Z</time></trkpt><trkpt lat="42.46390395122243" lon="12.24510994175625"><ele>283.0</ele><time>2026-04-19T17:04:35.777Z</time></trkpt><trkpt lat="42.46388503657421" lon="12.244765545403341"><ele>285.5</ele><time>2026-04-19T17:04:36.777Z</time></trkpt><trkpt lat="42.463862539431815" lon="12.24441805949935"><ele>288.0</ele><time>2026-04-19T17:04:37.777Z</time></trkpt><trkpt lat="42.463828867070276" lon="12.244071841505416"><ele>288.0</ele><time>2026-04-19T17:04:38.777Z</time></trkpt><trkpt lat="42.46378213828284" lon="12.243722108309157"><ele>288.0</ele><time>2026-04-19T17:04:39.777Z</time></trkpt><trkpt lat="42.46374285016405" lon="12.243375911633114"><ele>288.0</ele><time>2026-04-19T17:04:40.777Z</time></trkpt><trkpt lat="42.46369583605137" lon="12.243027783971437"><ele>288.0</ele><time>2026-04-19T17:04:41.777Z</time></trkpt><trkpt lat="42.46365559544336" lon="12.24268606509517"><ele>288.0</ele><time>2026-04-19T17:04:42.777Z</time></trkpt><trkpt lat="42.46361252872733" lon="12.242328505367649"><ele>288.0</ele><time>2026-04-19T17:04:43.777Z</time></trkpt><trkpt lat="42.46357433935935" lon="12.241992563612909"><ele>288.0</ele><time>2026-04-19T17:04:44.776Z</time></trkpt><trkpt lat="42.46353231540437" lon="12.241648400515032"><ele>288.0</ele><time>2026-04-19T17:04:45.776Z</time></trkpt><trkpt lat="42.46350282076686" lon="12.241300183250004"><ele>289.0</ele><time>2026-04-19T17:04:46.776Z</time></trkpt><trkpt lat="42.46346729941174" lon="12.240949081235758"><ele>290.0</ele><time>2026-04-19T17:04:47.776Z</time></trkpt><trkpt lat="42.46341521876886" lon="12.240602848786244"><ele>291.0</ele><time>2026-04-19T17:04:48.776Z</time></trkpt><trkpt lat="42.463360913966376" lon="12.240254577492932"><ele>292.0</ele><time>2026-04-19T17:04:49.776Z</time></trkpt><trkpt lat="42.463311661116634" lon="12.239907594105095"><ele>293.0</ele><time>2026-04-19T17:04:50.776Z</time></trkpt><trkpt lat="42.46327224129306" lon="12.239557477051397"><ele>294.0</ele><time>2026-04-19T17:04:51.776Z</time></trkpt><trkpt lat="42.463239851289536" lon="12.239202599527026"><ele>295.0</ele><time>2026-04-19T17:04:52.776Z</time></trkpt><trkpt lat="42.46321701809868" lon="12.238847649748559"><ele>296.0</ele><time>2026-04-19T17:04:53.776Z</time></trkpt><trkpt lat="42.463164925517695" lon="12.238502310716068"><ele>296.0</ele><time>2026-04-19T17:04:54.776Z</time></trkpt><trkpt lat="42.46309895728862" lon="12.238149897157689"><ele>296.0</ele><time>2026-04-19T17:04:55.776Z</time></trkpt><trkpt lat="42.46303907388014" lon="12.237790719497625"><ele>296.5</ele><time>2026-04-19T17:04:56.776Z</time></trkpt><trkpt lat="42.462979185828466" lon="12.237433386465352"><ele>297.0</ele><time>2026-04-19T17:04:57.776Z</time></trkpt><trkpt lat="42.462918891033524" lon="12.237071004129934"><ele>297.0</ele><time>2026-04-19T17:04:58.776Z</time></trkpt><trkpt lat="42.4628481078192" lon="12.236709687382163"><ele>297.0</ele><time>2026-04-19T17:04:59.776Z</time></trkpt><trkpt lat="42.46278216562426" lon="12.23635772227195"><ele>297.5</ele><time>2026-04-19T17:05:00.776Z</time></trkpt><trkpt lat="42.462711940490834" lon="12.236003353102362"><ele>298.0</ele><time>2026-04-19T17:05:01.776Z</time></trkpt><trkpt lat="42.46263854641122" lon="12.235650043521039"><ele>299.0</ele><time>2026-04-19T17:05:02.776Z</time></trkpt><trkpt lat="42.46256207080021" lon="12.235298179060322"><ele>300.0</ele><time>2026-04-19T17:05:03.775Z</time></trkpt><trkpt lat="42.46248536061331" lon="12.234960943634782"><ele>300.5</ele><time>2026-04-19T17:05:04.775Z</time></trkpt><trkpt lat="42.462407353713196" lon="12.234627374053794"><ele>301.0</ele><time>2026-04-19T17:05:05.775Z</time></trkpt><trkpt lat="42.462326411805215" lon="12.234288541633505"><ele>301.0</ele><time>2026-04-19T17:05:06.775Z</time></trkpt><trkpt lat="42.462238891837096" lon="12.233947611352905"><ele>301.0</ele><time>2026-04-19T17:05:07.775Z</time></trkpt><trkpt lat="42.462149122820975" lon="12.233606568698432"><ele>301.0</ele><time>2026-04-19T17:05:08.775Z</time></trkpt><trkpt lat="42.46205341112448" lon="12.233263435253159"><ele>301.0</ele><time>2026-04-19T17:05:09.775Z</time></trkpt><trkpt lat="42.461957378252094" lon="12.232916102209362"><ele>302.0</ele><time>2026-04-19T17:05:10.775Z</time></trkpt><trkpt lat="42.46186169599196" lon="12.232570696029534"><ele>303.0</ele><time>2026-04-19T17:05:11.775Z</time></trkpt><trkpt lat="42.46176311256037" lon="12.23221819930837"><ele>303.0</ele><time>2026-04-19T17:05:12.775Z</time></trkpt><trkpt lat="42.46165854501341" lon="12.231873167779279"><ele>303.0</ele><time>2026-04-19T17:05:13.775Z</time></trkpt><trkpt lat="42.46156123098167" lon="12.231538242028751"><ele>304.0</ele><time>2026-04-19T17:05:14.775Z</time></trkpt><trkpt lat="42.46146639706998" lon="12.231227501062289"><ele>305.0</ele><time>2026-04-19T17:05:15.775Z</time></trkpt><trkpt lat="42.46138310726" lon="12.230930018040612"><ele>303.5</ele><time>2026-04-19T17:05:16.775Z</time></trkpt><trkpt lat="42.46130151246948" lon="12.230637553667451"><ele>302.0</ele><time>2026-04-19T17:05:17.775Z</time></trkpt><trkpt lat="42.46121740568039" lon="12.230345302794394"><ele>302.0</ele><time>2026-04-19T17:05:18.775Z</time></trkpt><trkpt lat="42.46112808460704" lon="12.230054993928556"><ele>302.0</ele><time>2026-04-19T17:05:19.775Z</time></trkpt><trkpt lat="42.461042679180906" lon="12.229757663567227"><ele>300.5</ele><time>2026-04-19T17:05:20.777Z</time></trkpt><trkpt lat="42.460953729266855" lon="12.229444502471447"><ele>299.0</ele><time>2026-04-19T17:05:21.776Z</time></trkpt><trkpt lat="42.46085790376018" lon="12.229116166293796"><ele>297.5</ele><time>2026-04-19T17:05:22.776Z</time></trkpt><trkpt lat="42.460766114132106" lon="12.228778358881344"><ele>296.0</ele><time>2026-04-19T17:05:23.776Z</time></trkpt><trkpt lat="42.4606724262647" lon="12.228431128518306"><ele>295.0</ele><time>2026-04-19T17:05:24.776Z</time></trkpt><trkpt lat="42.46057110274007" lon="12.228083878368079"><ele>294.0</ele><time>2026-04-19T17:05:25.776Z</time></trkpt><trkpt lat="42.4604616655397" lon="12.227726460180333"><ele>294.0</ele><time>2026-04-19T17:05:26.776Z</time></trkpt><trkpt lat="42.460352394001475" lon="12.227361125313267"><ele>294.0</ele><time>2026-04-19T17:05:27.776Z</time></trkpt><trkpt lat="42.460246681556164" lon="12.226997020418338"><ele>294.0</ele><time>2026-04-19T17:05:28.776Z</time></trkpt><trkpt lat="42.460144453611036" lon="12.226631929269"><ele>294.0</ele><time>2026-04-19T17:05:29.776Z</time></trkpt><trkpt lat="42.46004109812105" lon="12.226267652495224"><ele>293.0</ele><time>2026-04-19T17:05:30.776Z</time></trkpt><trkpt lat="42.45993423315561" lon="12.22590496845933"><ele>292.0</ele><time>2026-04-19T17:05:31.775Z</time></trkpt><trkpt lat="42.45982362061877" lon="12.22554076894119"><ele>292.0</ele><time>2026-04-19T17:05:32.776Z</time></trkpt><trkpt lat="42.45971427841291" lon="12.225169140117071"><ele>292.0</ele><time>2026-04-19T17:05:33.776Z</time></trkpt><trkpt lat="42.459607508517024" lon="12.224796565231209"><ele>292.0</ele><time>2026-04-19T17:05:34.776Z</time></trkpt><trkpt lat="42.45950179741887" lon="12.224425636251446"><ele>292.0</ele><time>2026-04-19T17:05:35.776Z</time></trkpt><trkpt lat="42.45939596655661" lon="12.224057317429319"><ele>292.5</ele><time>2026-04-19T17:05:36.776Z</time></trkpt><trkpt lat="42.45929145079785" lon="12.223688924081063"><ele>293.0</ele><time>2026-04-19T17:05:37.775Z</time></trkpt><trkpt lat="42.45919315745685" lon="12.22331931748779"><ele>294.0</ele><time>2026-04-19T17:05:38.775Z</time></trkpt><trkpt lat="42.459100803934284" lon="12.222948248414873"><ele>295.0</ele><time>2026-04-19T17:05:39.775Z</time></trkpt><trkpt lat="42.459009675996946" lon="12.222575254427586"><ele>295.5</ele><time>2026-04-19T17:05:40.775Z</time></trkpt><trkpt lat="42.458920407998264" lon="12.222202437527498"><ele>296.0</ele><time>2026-04-19T17:05:41.775Z</time></trkpt><trkpt lat="42.458834656415895" lon="12.221834232454125"><ele>297.0</ele><time>2026-04-19T17:05:42.775Z</time></trkpt><trkpt lat="42.458751720523686" lon="12.221468816046494"><ele>298.0</ele><time>2026-04-19T17:05:43.775Z</time></trkpt><trkpt lat="42.45867296818237" lon="12.221100121099502"><ele>298.0</ele><time>2026-04-19T17:05:44.775Z</time></trkpt><trkpt lat="42.45860245869634" lon="12.220728151531167"><ele>298.0</ele><time>2026-04-19T17:05:45.775Z</time></trkpt><trkpt lat="42.45853742450583" lon="12.220365715008343"><ele>301.0</ele><time>2026-04-19T17:05:46.775Z</time></trkpt><trkpt lat="42.45846672395263" lon="12.220008602432229"><ele>304.0</ele><time>2026-04-19T17:05:47.775Z</time></trkpt><trkpt lat="42.45839760947113" lon="12.219646162100009"><ele>305.0</ele><time>2026-04-19T17:05:48.775Z</time></trkpt><trkpt lat="42.45832941944004" lon="12.219281204544194"><ele>306.0</ele><time>2026-04-19T17:05:49.775Z</time></trkpt><trkpt lat="42.45826971551805" lon="12.218913920359608"><ele>306.0</ele><time>2026-04-19T17:05:50.775Z</time></trkpt><trkpt lat="42.45820580824673" lon="12.218545284829746"><ele>306.0</ele><time>2026-04-19T17:05:51.775Z</time></trkpt><trkpt lat="42.45815515653534" lon="12.218171425021794"><ele>306.5</ele><time>2026-04-19T17:05:52.775Z</time></trkpt><trkpt lat="42.458108253196365" lon="12.217801578631251"><ele>307.0</ele><time>2026-04-19T17:05:53.775Z</time></trkpt><trkpt lat="42.45806140249795" lon="12.217428241807793"><ele>307.5</ele><time>2026-04-19T17:05:54.775Z</time></trkpt><trkpt lat="42.458010865844045" lon="12.217041136557658"><ele>308.0</ele><time>2026-04-19T17:05:55.775Z</time></trkpt><trkpt lat="42.45796674605219" lon="12.216652411873222"><ele>311.0</ele><time>2026-04-19T17:05:56.774Z</time></trkpt><trkpt lat="42.457921030378245" lon="12.216259885273693"><ele>314.0</ele><time>2026-04-19T17:05:57.774Z</time></trkpt><trkpt lat="42.45787514998245" lon="12.215872908657188"><ele>315.0</ele><time>2026-04-19T17:05:58.774Z</time></trkpt><trkpt lat="42.45783217506421" lon="12.215489971671664"><ele>316.0</ele><time>2026-04-19T17:05:59.774Z</time></trkpt><trkpt lat="42.457787550170025" lon="12.21511279326421"><ele>315.5</ele><time>2026-04-19T17:06:00.774Z</time></trkpt><trkpt lat="42.45773968260397" lon="12.21473282579173"><ele>315.0</ele><time>2026-04-19T17:06:01.774Z</time></trkpt><trkpt lat="42.45769000761983" lon="12.21434925029691"><ele>317.5</ele><time>2026-04-19T17:06:02.774Z</time></trkpt><trkpt lat="42.45764447035835" lon="12.213963401599308"><ele>320.0</ele><time>2026-04-19T17:06:03.774Z</time></trkpt><trkpt lat="42.45760146479845" lon="12.213577429598834"><ele>320.0</ele><time>2026-04-19T17:06:04.774Z</time></trkpt><trkpt lat="42.457557323591246" lon="12.213193605078237"><ele>320.0</ele><time>2026-04-19T17:06:05.774Z</time></trkpt><trkpt lat="42.457504565599756" lon="12.212805086757058"><ele>321.0</ele><time>2026-04-19T17:06:06.774Z</time></trkpt><trkpt lat="42.45745811787206" lon="12.212417388057258"><ele>322.0</ele><time>2026-04-19T17:06:07.774Z</time></trkpt><trkpt lat="42.45741592014018" lon="12.21201731633367"><ele>319.5</ele><time>2026-04-19T17:06:08.774Z</time></trkpt><trkpt lat="42.45736889662216" lon="12.211625475940142"><ele>317.0</ele><time>2026-04-19T17:06:09.774Z</time></trkpt><trkpt lat="42.45732066690037" lon="12.211232830642118"><ele>314.5</ele><time>2026-04-19T17:06:10.774Z</time></trkpt><trkpt lat="42.45727148430575" lon="12.210837727082417"><ele>312.0</ele><time>2026-04-19T17:06:11.774Z</time></trkpt><trkpt lat="42.45722374451557" lon="12.210448240325132"><ele>310.0</ele><time>2026-04-19T17:06:12.774Z</time></trkpt><trkpt lat="42.457179460802635" lon="12.210061381143557"><ele>308.0</ele><time>2026-04-19T17:06:13.774Z</time></trkpt><trkpt lat="42.4571347261521" lon="12.209672223807317"><ele>306.0</ele><time>2026-04-19T17:06:14.774Z</time></trkpt><trkpt lat="42.45708717923241" lon="12.209285057487334"><ele>304.0</ele><time>2026-04-19T17:06:15.773Z</time></trkpt><trkpt lat="42.45704085606467" lon="12.208885011450482"><ele>302.0</ele><time>2026-04-19T17:06:16.773Z</time></trkpt><trkpt lat="42.456987419062095" lon="12.208489008234883"><ele>300.0</ele><time>2026-04-19T17:06:17.773Z</time></trkpt><trkpt lat="42.456929161214056" lon="12.20808670348519"><ele>299.5</ele><time>2026-04-19T17:06:18.773Z</time></trkpt><trkpt lat="42.45686691173626" lon="12.207682399417108"><ele>299.0</ele><time>2026-04-19T17:06:19.773Z</time></trkpt><trkpt lat="42.456793590289706" lon="12.20728672234458"><ele>298.0</ele><time>2026-04-19T17:06:20.773Z</time></trkpt><trkpt lat="42.456717797219234" lon="12.206894797151438"><ele>297.0</ele><time>2026-04-19T17:06:21.773Z</time></trkpt><trkpt lat="42.456639680833206" lon="12.206497946164298"><ele>295.0</ele><time>2026-04-19T17:06:22.773Z</time></trkpt><trkpt lat="42.45656502061299" lon="12.206090463367815"><ele>293.0</ele><time>2026-04-19T17:06:23.773Z</time></trkpt><trkpt lat="42.456486904565445" lon="12.205694128896006"><ele>294.5</ele><time>2026-04-19T17:06:24.773Z</time></trkpt><trkpt lat="42.45640606364678" lon="12.205291142516897"><ele>296.0</ele><time>2026-04-19T17:06:25.773Z</time></trkpt><trkpt lat="42.45632106883967" lon="12.204896628834666"><ele>298.5</ele><time>2026-04-19T17:06:26.773Z</time></trkpt><trkpt lat="42.45623834594521" lon="12.204498360899093"><ele>301.0</ele><time>2026-04-19T17:06:27.773Z</time></trkpt><trkpt lat="42.45614867758984" lon="12.204089112293996"><ele>301.0</ele><time>2026-04-19T17:06:28.773Z</time></trkpt><trkpt lat="42.45607058984887" lon="12.203689456227481"><ele>301.0</ele><time>2026-04-19T17:06:29.773Z</time></trkpt><trkpt lat="42.45599008922092" lon="12.20328055271832"><ele>299.5</ele><time>2026-04-19T17:06:30.773Z</time></trkpt><trkpt lat="42.455908212987254" lon="12.202859106476621"><ele>298.0</ele><time>2026-04-19T17:06:31.773Z</time></trkpt><trkpt lat="42.45582704674623" lon="12.202448893423236"><ele>297.5</ele><time>2026-04-19T17:06:32.773Z</time></trkpt><trkpt lat="42.45574622816545" lon="12.202053436260913"><ele>297.0</ele><time>2026-04-19T17:06:33.772Z</time></trkpt><trkpt lat="42.45566671318129" lon="12.201662240991066"><ele>296.5</ele><time>2026-04-19T17:06:34.772Z</time></trkpt><trkpt lat="42.455592785847934" lon="12.201279285423581"><ele>296.0</ele><time>2026-04-19T17:06:35.772Z</time></trkpt><trkpt lat="42.4555298775308" lon="12.20089100471732"><ele>296.5</ele><time>2026-04-19T17:06:36.772Z</time></trkpt><trkpt lat="42.455466859008084" lon="12.20049713589906"><ele>297.0</ele><time>2026-04-19T17:06:37.772Z</time></trkpt><trkpt lat="42.45540299282281" lon="12.20009596285644"><ele>301.0</ele><time>2026-04-19T17:06:38.772Z</time></trkpt><trkpt lat="42.45534382486114" lon="12.199689234844023"><ele>305.0</ele><time>2026-04-19T17:06:39.772Z</time></trkpt><trkpt lat="42.45528687620484" lon="12.199287380935955"><ele>308.5</ele><time>2026-04-19T17:06:40.772Z</time></trkpt><trkpt lat="42.455235482985735" lon="12.198890245858102"><ele>312.0</ele><time>2026-04-19T17:06:41.772Z</time></trkpt><trkpt lat="42.45518551129777" lon="12.198494179134189"><ele>314.0</ele><time>2026-04-19T17:06:42.772Z</time></trkpt><trkpt lat="42.45513811898177" lon="12.198088306787179"><ele>316.0</ele><time>2026-04-19T17:06:43.772Z</time></trkpt><trkpt lat="42.45508852826632" lon="12.197683566614696"><ele>317.0</ele><time>2026-04-19T17:06:44.772Z</time></trkpt><trkpt lat="42.455045832841705" lon="12.197277857376625"><ele>318.0</ele><time>2026-04-19T17:06:45.772Z</time></trkpt><trkpt lat="42.45500259258783" lon="12.196870655752493"><ele>317.5</ele><time>2026-04-19T17:06:46.772Z</time></trkpt><trkpt lat="42.45495883439544" lon="12.19645406462642"><ele>317.0</ele><time>2026-04-19T17:06:47.772Z</time></trkpt><trkpt lat="42.45493402167876" lon="12.1960509369832"><ele>318.0</ele><time>2026-04-19T17:06:48.772Z</time></trkpt><trkpt lat="42.454913666365194" lon="12.195631538562491"><ele>319.0</ele><time>2026-04-19T17:06:49.772Z</time></trkpt><trkpt lat="42.45489260929849" lon="12.195204191783755"><ele>318.0</ele><time>2026-04-19T17:06:50.772Z</time></trkpt><trkpt lat="42.45487070695152" lon="12.19477864696099"><ele>317.0</ele><time>2026-04-19T17:06:51.772Z</time></trkpt><trkpt lat="42.45485447819816" lon="12.19434913127851"><ele>316.5</ele><time>2026-04-19T17:06:52.771Z</time></trkpt><trkpt lat="42.454836870799355" lon="12.193916620528695"><ele>316.0</ele><time>2026-04-19T17:06:53.771Z</time></trkpt><trkpt lat="42.454828973304465" lon="12.193485198580957"><ele>317.0</ele><time>2026-04-19T17:06:54.771Z</time></trkpt><trkpt lat="42.454829613647476" lon="12.193052664472434"><ele>318.0</ele><time>2026-04-19T17:06:55.771Z</time></trkpt><trkpt lat="42.45483355671172" lon="12.192615004511525"><ele>318.0</ele><time>2026-04-19T17:06:56.771Z</time></trkpt><trkpt lat="42.45483762296879" lon="12.19219066748781"><ele>318.0</ele><time>2026-04-19T17:06:57.771Z</time></trkpt><trkpt lat="42.45484529779802" lon="12.191768181900128"><ele>316.0</ele><time>2026-04-19T17:06:58.771Z</time></trkpt><trkpt lat="42.45485567041109" lon="12.191346424944648"><ele>314.0</ele><time>2026-04-19T17:06:59.771Z</time></trkpt><trkpt lat="42.454873479392624" lon="12.19092909740442"><ele>315.0</ele><time>2026-04-19T17:07:00.771Z</time></trkpt><trkpt lat="42.45489321213746" lon="12.190519954089279"><ele>316.0</ele><time>2026-04-19T17:07:01.771Z</time></trkpt><trkpt lat="42.45490299471771" lon="12.190112236348872"><ele>318.5</ele><time>2026-04-19T17:07:02.771Z</time></trkpt><trkpt lat="42.45490985317697" lon="12.1897028353177"><ele>321.0</ele><time>2026-04-19T17:07:03.771Z</time></trkpt><trkpt lat="42.454917493657256" lon="12.189296969474624"><ele>323.0</ele><time>2026-04-19T17:07:04.771Z</time></trkpt><trkpt lat="42.45492410856577" lon="12.18889379283316"><ele>325.0</ele><time>2026-04-19T17:07:05.771Z</time></trkpt><trkpt lat="42.454930472179086" lon="12.188491205978506"><ele>326.5</ele><time>2026-04-19T17:07:06.771Z</time></trkpt><trkpt lat="42.45493954182117" lon="12.188094277866693"><ele>328.0</ele><time>2026-04-19T17:07:07.771Z</time></trkpt><trkpt lat="42.45494649566492" lon="12.187708304836642"><ele>327.5</ele><time>2026-04-19T17:07:08.771Z</time></trkpt><trkpt lat="42.454952941292724" lon="12.187330426054936"><ele>327.0</ele><time>2026-04-19T17:07:09.771Z</time></trkpt><trkpt lat="42.45495943826457" lon="12.186959222261395"><ele>327.0</ele><time>2026-04-19T17:07:10.771Z</time></trkpt><trkpt lat="42.45496665761606" lon="12.186582746369387"><ele>327.0</ele><time>2026-04-19T17:07:11.77Z</time></trkpt><trkpt lat="42.45497169074873" lon="12.186191336230616"><ele>329.0</ele><time>2026-04-19T17:07:12.77Z</time></trkpt><trkpt lat="42.45497849503222" lon="12.185796758486727"><ele>331.0</ele><time>2026-04-19T17:07:13.77Z</time></trkpt><trkpt lat="42.4549851585547" lon="12.185394238832913"><ele>333.5</ele><time>2026-04-19T17:07:14.77Z</time></trkpt><trkpt lat="42.454993917069096" lon="12.185024378043824"><ele>336.0</ele><time>2026-04-19T17:07:15.77Z</time></trkpt><trkpt lat="42.45499952671957" lon="12.18457198358325"><ele>338.0</ele><time>2026-04-19T17:07:16.77Z</time></trkpt><trkpt lat="42.45501050399642" lon="12.184172582025992"><ele>340.0</ele><time>2026-04-19T17:07:17.77Z</time></trkpt><trkpt lat="42.45502664776684" lon="12.18377012389175"><ele>341.0</ele><time>2026-04-19T17:07:18.77Z</time></trkpt><trkpt lat="42.45504639208648" lon="12.183367217363845"><ele>342.0</ele><time>2026-04-19T17:07:19.77Z</time></trkpt><trkpt lat="42.45507665800697" lon="12.182961149723754"><ele>342.0</ele><time>2026-04-19T17:07:20.77Z</time></trkpt><trkpt lat="42.45511435975334" lon="12.18255787223241"><ele>342.0</ele><time>2026-04-19T17:07:21.77Z</time></trkpt><trkpt lat="42.45516257380128" lon="12.182157034271427"><ele>342.0</ele><time>2026-04-19T17:07:22.77Z</time></trkpt><trkpt lat="42.455218280764825" lon="12.18176122166026"><ele>342.0</ele><time>2026-04-19T17:07:23.77Z</time></trkpt><trkpt lat="42.45528028555336" lon="12.181365037093915"><ele>342.0</ele><time>2026-04-19T17:07:24.77Z</time></trkpt><trkpt lat="42.4553513670923" lon="12.180961110700569"><ele>342.0</ele><time>2026-04-19T17:07:25.77Z</time></trkpt><trkpt lat="42.45542421881631" lon="12.180562386661958"><ele>341.5</ele><time>2026-04-19T17:07:26.772Z</time></trkpt><trkpt lat="42.455504452811866" lon="12.180161693589902"><ele>341.0</ele><time>2026-04-19T17:07:27.771Z</time></trkpt><trkpt lat="42.45558476736472" lon="12.179765413840117"><ele>341.0</ele><time>2026-04-19T17:07:28.771Z</time></trkpt><trkpt lat="42.455664013890164" lon="12.179371323690804"><ele>341.0</ele><time>2026-04-19T17:07:29.771Z</time></trkpt><trkpt lat="42.45573685163594" lon="12.17897935868785"><ele>342.0</ele><time>2026-04-19T17:07:30.772Z</time></trkpt><trkpt lat="42.45581048282626" lon="12.178593488936496"><ele>343.0</ele><time>2026-04-19T17:07:31.772Z</time></trkpt><trkpt lat="42.45588587678434" lon="12.178201344276607"><ele>343.0</ele><time>2026-04-19T17:07:32.771Z</time></trkpt><trkpt lat="42.45596742703042" lon="12.177801958329612"><ele>343.0</ele><time>2026-04-19T17:07:33.771Z</time></trkpt><trkpt lat="42.45604712764938" lon="12.177404126927705"><ele>343.5</ele><time>2026-04-19T17:07:34.771Z</time></trkpt><trkpt lat="42.456126570825646" lon="12.177009432904875"><ele>344.0</ele><time>2026-04-19T17:07:35.771Z</time></trkpt><trkpt lat="42.456204165521434" lon="12.176607985418876"><ele>344.5</ele><time>2026-04-19T17:07:36.772Z</time></trkpt><trkpt lat="42.45628140888333" lon="12.176205814213462"><ele>345.0</ele><time>2026-04-19T17:07:37.772Z</time></trkpt><trkpt lat="42.456356327049164" lon="12.175806954871014"><ele>342.5</ele><time>2026-04-19T17:07:38.771Z</time></trkpt><trkpt lat="42.45642432972909" lon="12.175404275410257"><ele>340.0</ele><time>2026-04-19T17:07:39.771Z</time></trkpt><trkpt lat="42.456486332330286" lon="12.175007820266734"><ele>341.5</ele><time>2026-04-19T17:07:40.771Z</time></trkpt><trkpt lat="42.4565360174791" lon="12.174613347557314"><ele>343.0</ele><time>2026-04-19T17:07:41.771Z</time></trkpt><trkpt lat="42.45657786393327" lon="12.174217086338817"><ele>343.0</ele><time>2026-04-19T17:07:42.771Z</time></trkpt><trkpt lat="42.456619354351496" lon="12.17381890688877"><ele>343.0</ele><time>2026-04-19T17:07:43.771Z</time></trkpt><trkpt lat="42.45665534880512" lon="12.173429405142377"><ele>343.0</ele><time>2026-04-19T17:07:44.771Z</time></trkpt><trkpt lat="42.45668096577444" lon="12.173048762608575"><ele>343.0</ele><time>2026-04-19T17:07:45.771Z</time></trkpt><trkpt lat="42.4567015402262" lon="12.172679271055127"><ele>344.5</ele><time>2026-04-19T17:07:46.771Z</time></trkpt><trkpt lat="42.456713138955955" lon="12.172308837870442"><ele>346.0</ele><time>2026-04-19T17:07:47.771Z</time></trkpt><trkpt lat="42.45671316797726" lon="12.171954651162263"><ele>346.0</ele><time>2026-04-19T17:07:48.771Z</time></trkpt><trkpt lat="42.456708124699716" lon="12.17161100708441"><ele>346.0</ele><time>2026-04-19T17:07:49.771Z</time></trkpt><trkpt lat="42.45670282815247" lon="12.171283066228069"><ele>346.0</ele><time>2026-04-19T17:07:50.771Z</time></trkpt><trkpt lat="42.45669339707631" lon="12.170965570214172"><ele>346.0</ele><time>2026-04-19T17:07:51.771Z</time></trkpt><trkpt lat="42.45668908413651" lon="12.170640296073262"><ele>346.0</ele><time>2026-04-19T17:07:52.771Z</time></trkpt><trkpt lat="42.45668211189117" lon="12.170323207710037"><ele>346.0</ele><time>2026-04-19T17:07:53.771Z</time></trkpt><trkpt lat="42.456677862311714" lon="12.169995815501846"><ele>344.0</ele><time>2026-04-19T17:07:54.771Z</time></trkpt><trkpt lat="42.456677416399984" lon="12.169656237274683"><ele>342.0</ele><time>2026-04-19T17:07:55.771Z</time></trkpt><trkpt lat="42.456673938049164" lon="12.169316489306595"><ele>338.0</ele><time>2026-04-19T17:07:56.771Z</time></trkpt><trkpt lat="42.45667582247923" lon="12.168979384095467"><ele>334.0</ele><time>2026-04-19T17:07:57.771Z</time></trkpt><trkpt lat="42.45667626081563" lon="12.16864844084419"><ele>334.0</ele><time>2026-04-19T17:07:58.77Z</time></trkpt><trkpt lat="42.45667654569475" lon="12.16831308822208"><ele>334.0</ele><time>2026-04-19T17:07:59.77Z</time></trkpt><trkpt lat="42.45667297811486" lon="12.167971058139567"><ele>332.5</ele><time>2026-04-19T17:08:00.77Z</time></trkpt><trkpt lat="42.4566696867794" lon="12.16763261409308"><ele>331.0</ele><time>2026-04-19T17:08:01.77Z</time></trkpt><trkpt lat="42.456668849770146" lon="12.167300880453979"><ele>331.0</ele><time>2026-04-19T17:08:02.77Z</time></trkpt><trkpt lat="42.456670848178554" lon="12.166969185640133"><ele>331.0</ele><time>2026-04-19T17:08:03.77Z</time></trkpt><trkpt lat="42.45667120831072" lon="12.166632901853282"><ele>338.0</ele><time>2026-04-19T17:08:04.77Z</time></trkpt><trkpt lat="42.45666714404535" lon="12.166291545680753"><ele>345.0</ele><time>2026-04-19T17:08:05.77Z</time></trkpt><trkpt lat="42.45666059742533" lon="12.165945652106426"><ele>347.5</ele><time>2026-04-19T17:08:06.77Z</time></trkpt><trkpt lat="42.456658705683836" lon="12.165589684030307"><ele>350.0</ele><time>2026-04-19T17:08:07.77Z</time></trkpt><trkpt lat="42.45665846730303" lon="12.165232979591659"><ele>350.0</ele><time>2026-04-19T17:08:08.77Z</time></trkpt><trkpt lat="42.456656863310556" lon="12.164875366873991"><ele>350.0</ele><time>2026-04-19T17:08:09.77Z</time></trkpt><trkpt lat="42.45665444709698" lon="12.164523861349195"><ele>352.5</ele><time>2026-04-19T17:08:10.77Z</time></trkpt><trkpt lat="42.45664980833391" lon="12.164179327172826"><ele>355.0</ele><time>2026-04-19T17:08:11.77Z</time></trkpt><trkpt lat="42.456643698652975" lon="12.163841767712935"><ele>357.0</ele><time>2026-04-19T17:08:12.77Z</time></trkpt><trkpt lat="42.45663644975412" lon="12.163506079849057"><ele>359.0</ele><time>2026-04-19T17:08:13.77Z</time></trkpt><trkpt lat="42.456624159604566" lon="12.163175029639575"><ele>360.0</ele><time>2026-04-19T17:08:14.77Z</time></trkpt><trkpt lat="42.45660638661598" lon="12.162845954224785"><ele>361.0</ele><time>2026-04-19T17:08:15.77Z</time></trkpt><trkpt lat="42.456579747758646" lon="12.16250924965612"><ele>361.5</ele><time>2026-04-19T17:08:16.769Z</time></trkpt><trkpt lat="42.456542580840406" lon="12.16217540081405"><ele>362.0</ele><time>2026-04-19T17:08:17.769Z</time></trkpt><trkpt lat="42.45651219841815" lon="12.161826959041456"><ele>366.0</ele><time>2026-04-19T17:08:18.769Z</time></trkpt><trkpt lat="42.4564787244963" lon="12.161472688796229"><ele>370.0</ele><time>2026-04-19T17:08:19.769Z</time></trkpt><trkpt lat="42.45643210361321" lon="12.161097928208596"><ele>370.0</ele><time>2026-04-19T17:08:20.769Z</time></trkpt><trkpt lat="42.45638661934909" lon="12.16072236979191"><ele>370.0</ele><time>2026-04-19T17:08:21.769Z</time></trkpt><trkpt lat="42.45631878181107" lon="12.160334472939835"><ele>371.5</ele><time>2026-04-19T17:08:22.769Z</time></trkpt><trkpt lat="42.456258554820714" lon="12.159956235530897"><ele>373.0</ele><time>2026-04-19T17:08:23.769Z</time></trkpt><trkpt lat="42.456199554015846" lon="12.159584519849806"><ele>370.0</ele><time>2026-04-19T17:08:24.769Z</time></trkpt><trkpt lat="42.45613170929519" lon="12.159189471666085"><ele>367.0</ele><time>2026-04-19T17:08:25.769Z</time></trkpt><trkpt lat="42.455996491752956" lon="12.158720620775004"><ele>364.0</ele><time>2026-04-19T17:08:26.769Z</time></trkpt><trkpt lat="42.45589238681312" lon="12.158308382370645"><ele>361.0</ele><time>2026-04-19T17:08:27.769Z</time></trkpt><trkpt lat="42.45581979362528" lon="12.157905891551193"><ele>361.0</ele><time>2026-04-19T17:08:28.769Z</time></trkpt><trkpt lat="42.45573450469978" lon="12.157508986668297"><ele>361.0</ele><time>2026-04-19T17:08:29.769Z</time></trkpt><trkpt lat="42.455653593078516" lon="12.15710930330353"><ele>362.5</ele><time>2026-04-19T17:08:30.769Z</time></trkpt><trkpt lat="42.45557418786162" lon="12.156729255615298"><ele>364.0</ele><time>2026-04-19T17:08:31.769Z</time></trkpt><trkpt lat="42.455485506907074" lon="12.156347574395918"><ele>367.5</ele><time>2026-04-19T17:08:32.769Z</time></trkpt><trkpt lat="42.455397823070086" lon="12.155958524308044"><ele>371.0</ele><time>2026-04-19T17:08:33.769Z</time></trkpt><trkpt lat="42.45530536530828" lon="12.155576118328021"><ele>371.0</ele><time>2026-04-19T17:08:34.769Z</time></trkpt><trkpt lat="42.45521942820749" lon="12.155180348247152"><ele>371.0</ele><time>2026-04-19T17:08:35.768Z</time></trkpt><trkpt lat="42.45513138907086" lon="12.154779955855515"><ele>371.0</ele><time>2026-04-19T17:08:36.768Z</time></trkpt><trkpt lat="42.45503964842371" lon="12.154378522004842"><ele>371.0</ele><time>2026-04-19T17:08:37.768Z</time></trkpt><trkpt lat="42.45494617576152" lon="12.153988224237203"><ele>371.0</ele><time>2026-04-19T17:08:38.768Z</time></trkpt><trkpt lat="42.45484962232259" lon="12.153596977983907"><ele>371.0</ele><time>2026-04-19T17:08:39.768Z</time></trkpt><trkpt lat="42.45475882388114" lon="12.153210810575716"><ele>370.0</ele><time>2026-04-19T17:08:40.768Z</time></trkpt><trkpt lat="42.454665493390664" lon="12.152822631887075"><ele>369.0</ele><time>2026-04-19T17:08:41.768Z</time></trkpt><trkpt lat="42.45458140285472" lon="12.152441765124612"><ele>368.5</ele><time>2026-04-19T17:08:42.768Z</time></trkpt><trkpt lat="42.454502688346786" lon="12.152067047009105"><ele>368.0</ele><time>2026-04-19T17:08:43.768Z</time></trkpt><trkpt lat="42.45443399457302" lon="12.15169892450686"><ele>369.0</ele><time>2026-04-19T17:08:44.768Z</time></trkpt><trkpt lat="42.45436112023778" lon="12.15133188421551"><ele>370.0</ele><time>2026-04-19T17:08:45.768Z</time></trkpt><trkpt lat="42.454280696355454" lon="12.150957340204478"><ele>370.5</ele><time>2026-04-19T17:08:46.768Z</time></trkpt><trkpt lat="42.45419555318328" lon="12.150583570896314"><ele>371.0</ele><time>2026-04-19T17:08:47.768Z</time></trkpt><trkpt lat="42.454112437619486" lon="12.150214467048029"><ele>372.5</ele><time>2026-04-19T17:08:48.768Z</time></trkpt><trkpt lat="42.45402511048198" lon="12.14984794164074"><ele>374.0</ele><time>2026-04-19T17:08:49.768Z</time></trkpt><trkpt lat="42.45393914317644" lon="12.149478270454036"><ele>374.0</ele><time>2026-04-19T17:08:50.768Z</time></trkpt><trkpt lat="42.45385532997563" lon="12.149103548194391"><ele>374.0</ele><time>2026-04-19T17:08:51.768Z</time></trkpt><trkpt lat="42.453770069961955" lon="12.148726722163204"><ele>373.5</ele><time>2026-04-19T17:08:52.768Z</time></trkpt><trkpt lat="42.453688016290215" lon="12.14834610974024"><ele>373.0</ele><time>2026-04-19T17:08:53.768Z</time></trkpt><trkpt lat="42.45361041710138" lon="12.14797002321622"><ele>370.5</ele><time>2026-04-19T17:08:54.767Z</time></trkpt><trkpt lat="42.453525770969605" lon="12.147595718465322"><ele>368.0</ele><time>2026-04-19T17:08:55.767Z</time></trkpt><trkpt lat="42.45344133582791" lon="12.147224232714688"><ele>367.5</ele><time>2026-04-19T17:08:56.767Z</time></trkpt><trkpt lat="42.45335469679233" lon="12.146863427873019"><ele>367.0</ele><time>2026-04-19T17:08:57.767Z</time></trkpt><trkpt lat="42.45326147808257" lon="12.146505587995339"><ele>368.5</ele><time>2026-04-19T17:08:58.767Z</time></trkpt><trkpt lat="42.453165302399135" lon="12.14614674131834"><ele>370.0</ele><time>2026-04-19T17:08:59.767Z</time></trkpt><trkpt lat="42.45306359289553" lon="12.145799937998081"><ele>369.5</ele><time>2026-04-19T17:09:00.767Z</time></trkpt><trkpt lat="42.45295670139183" lon="12.145457565246558"><ele>369.0</ele><time>2026-04-19T17:09:01.767Z</time></trkpt><trkpt lat="42.45284702429429" lon="12.145112040418566"><ele>368.5</ele><time>2026-04-19T17:09:02.767Z</time></trkpt><trkpt lat="42.452732870378966" lon="12.144784035407923"><ele>368.0</ele><time>2026-04-19T17:09:03.767Z</time></trkpt><trkpt lat="42.452612079029635" lon="12.14445706712959"><ele>368.0</ele><time>2026-04-19T17:09:04.767Z</time></trkpt><trkpt lat="42.45248474737127" lon="12.144134666903684"><ele>368.0</ele><time>2026-04-19T17:09:05.767Z</time></trkpt><trkpt lat="42.45235550686483" lon="12.143814958920018"><ele>368.5</ele><time>2026-04-19T17:09:06.767Z</time></trkpt><trkpt lat="42.452224017240546" lon="12.143500565563286"><ele>369.0</ele><time>2026-04-19T17:09:07.767Z</time></trkpt><trkpt lat="42.45208374582165" lon="12.1431948888543"><ele>369.0</ele><time>2026-04-19T17:09:08.767Z</time></trkpt><trkpt lat="42.451944000397205" lon="12.142883043629046"><ele>369.0</ele><time>2026-04-19T17:09:09.767Z</time></trkpt><trkpt lat="42.45179995059275" lon="12.142576154174463"><ele>369.0</ele><time>2026-04-19T17:09:10.767Z</time></trkpt><trkpt lat="42.45165810462291" lon="12.142268324689889"><ele>369.0</ele><time>2026-04-19T17:09:11.767Z</time></trkpt><trkpt lat="42.45151525566667" lon="12.141960930442686"><ele>369.0</ele><time>2026-04-19T17:09:12.767Z</time></trkpt><trkpt lat="42.45137112831641" lon="12.141654196299665"><ele>369.0</ele><time>2026-04-19T17:09:13.766Z</time></trkpt><trkpt lat="42.45121915226687" lon="12.141357201192413"><ele>362.0</ele><time>2026-04-19T17:09:14.766Z</time></trkpt><trkpt lat="42.451074557036456" lon="12.14104618079739"><ele>355.0</ele><time>2026-04-19T17:09:15.766Z</time></trkpt><trkpt lat="42.45093424050998" lon="12.140738961413602"><ele>348.0</ele><time>2026-04-19T17:09:16.766Z</time></trkpt><trkpt lat="42.450793002688314" lon="12.140435021574053"><ele>341.0</ele><time>2026-04-19T17:09:17.766Z</time></trkpt><trkpt lat="42.4506518958055" lon="12.140130996356145"><ele>342.0</ele><time>2026-04-19T17:09:18.766Z</time></trkpt><trkpt lat="42.45051207525371" lon="12.139829642247294"><ele>343.0</ele><time>2026-04-19T17:09:19.766Z</time></trkpt><trkpt lat="42.45037611927195" lon="12.139539124349186"><ele>345.5</ele><time>2026-04-19T17:09:20.766Z</time></trkpt><trkpt lat="42.450243485357255" lon="12.139253116252057"><ele>348.0</ele><time>2026-04-19T17:09:21.766Z</time></trkpt><trkpt lat="42.45011307353149" lon="12.138976322871374"><ele>352.0</ele><time>2026-04-19T17:09:22.766Z</time></trkpt><trkpt lat="42.44998716600587" lon="12.138709750485354"><ele>356.0</ele><time>2026-04-19T17:09:23.766Z</time></trkpt><trkpt lat="42.4498642579121" lon="12.13845325599109"><ele>357.33333333333337</ele><time>2026-04-19T17:09:24.766Z</time></trkpt><trkpt lat="42.44974737559339" lon="12.138200064510619"><ele>358.6666666666667</ele><time>2026-04-19T17:09:25.766Z</time></trkpt><trkpt lat="42.449639682336944" lon="12.137942487653577"><ele>360.0</ele><time>2026-04-19T17:09:26.766Z</time></trkpt><trkpt lat="42.449530290354765" lon="12.13767986480649"><ele>361.0</ele><time>2026-04-19T17:09:27.766Z</time></trkpt><trkpt lat="42.449415216394755" lon="12.137429243603528"><ele>362.0</ele><time>2026-04-19T17:09:28.766Z</time></trkpt><trkpt lat="42.449311398391785" lon="12.137190143243439"><ele>363.0</ele><time>2026-04-19T17:09:29.766Z</time></trkpt><trkpt lat="42.44921318071715" lon="12.136957014450072"><ele>364.3333333333333</ele><time>2026-04-19T17:09:30.766Z</time></trkpt><trkpt lat="42.44911961447373" lon="12.13673233087127"><ele>365.66666666666663</ele><time>2026-04-19T17:09:31.765Z</time></trkpt><trkpt lat="42.44903746382759" lon="12.136513372756598"><ele>367.0</ele><time>2026-04-19T17:09:32.767Z</time></trkpt><trkpt lat="42.448964941354106" lon="12.13630522198392"><ele>366.75</ele><time>2026-04-19T17:09:33.767Z</time></trkpt><trkpt lat="42.44890097878881" lon="12.136110847401715"><ele>366.5</ele><time>2026-04-19T17:09:34.767Z</time></trkpt><trkpt lat="42.44886310040768" lon="12.13594827485208"><ele>366.25</ele><time>2026-04-19T17:09:35.767Z</time></trkpt><trkpt lat="42.44888923769392" lon="12.135764645129813"><ele>366.0</ele><time>2026-04-19T17:09:36.767Z</time></trkpt><trkpt lat="42.44890279552968" lon="12.13560296281759"><ele>366.0</ele><time>2026-04-19T17:09:37.767Z</time></trkpt><trkpt lat="42.44890839136614" lon="12.135463201374762"><ele>366.0</ele><time>2026-04-19T17:09:38.767Z</time></trkpt><trkpt lat="42.44906242170099" lon="12.135380853808902"><ele>366.0</ele><time>2026-04-19T17:09:39.767Z</time></trkpt><trkpt lat="42.44914081180619" lon="12.135321654277599"><ele>366.0</ele><time>2026-04-19T17:09:40.767Z</time></trkpt><trkpt lat="42.449226206769254" lon="12.135290101317143"><ele>366.0</ele><time>2026-04-19T17:09:41.767Z</time></trkpt><trkpt lat="42.44931594507986" lon="12.13526047905647"><ele>366.0</ele><time>2026-04-19T17:09:42.767Z</time></trkpt><trkpt lat="42.44941669673101" lon="12.135294975724225"><ele>366.0</ele><time>2026-04-19T17:09:43.767Z</time></trkpt><trkpt lat="42.44951504415326" lon="12.135364987068888"><ele>366.0</ele><time>2026-04-19T17:09:44.767Z</time></trkpt><trkpt lat="42.449587312194836" lon="12.135459678340808"><ele>366.0</ele><time>2026-04-19T17:09:45.767Z</time></trkpt><trkpt lat="42.44963099860515" lon="12.135567792927082"><ele>366.0</ele><time>2026-04-19T17:09:46.766Z</time></trkpt><trkpt lat="42.449671172759984" lon="12.135653269816217"><ele>366.4</ele><time>2026-04-19T17:09:47.766Z</time></trkpt><trkpt lat="42.44969490350504" lon="12.135778482776422"><ele>366.8</ele><time>2026-04-19T17:09:49.766Z</time></trkpt><trkpt lat="42.44969717664611" lon="12.135870418038328"><ele>367.2</ele><time>2026-04-19T17:09:52.766Z</time></trkpt><trkpt lat="42.44981258753585" lon="12.135902066587914"><ele>367.59999999999997</ele><time>2026-04-19T17:09:54.766Z</time></trkpt><trkpt lat="42.44990600668734" lon="12.13587457219616"><ele>368.0</ele><time>2026-04-19T17:09:55.766Z</time></trkpt><trkpt lat="42.45003453586272" lon="12.135823396406158"><ele>368.0</ele><time>2026-04-19T17:09:56.766Z</time></trkpt><trkpt lat="42.450184936752976" lon="12.135735713808073"><ele>368.0</ele><time>2026-04-19T17:09:57.766Z</time></trkpt><trkpt lat="42.45037120869567" lon="12.135666855375895"><ele>368.0</ele><time>2026-04-19T17:09:58.766Z</time></trkpt><trkpt lat="42.45055494923705" lon="12.135569819595075"><ele>368.0</ele><time>2026-04-19T17:09:59.766Z</time></trkpt><trkpt lat="42.450736003494356" lon="12.135471235665868"><ele>368.0</ele><time>2026-04-19T17:10:00.766Z</time></trkpt><trkpt lat="42.45091468070627" lon="12.135351496208049"><ele>368.0</ele><time>2026-04-19T17:10:01.766Z</time></trkpt><trkpt lat="42.45110540551184" lon="12.135247520475295"><ele>367.33333333333337</ele><time>2026-04-19T17:10:02.766Z</time></trkpt><trkpt lat="42.45129954347035" lon="12.1351372788389"><ele>366.6666666666667</ele><time>2026-04-19T17:10:03.766Z</time></trkpt><trkpt lat="42.451497198693744" lon="12.135022177171285"><ele>366.0</ele><time>2026-04-19T17:10:04.765Z</time></trkpt><trkpt lat="42.451703329407685" lon="12.134913426181337"><ele>366.0</ele><time>2026-04-19T17:10:05.765Z</time></trkpt><trkpt lat="42.451909301215295" lon="12.134803530460339"><ele>366.0</ele><time>2026-04-19T17:10:06.765Z</time></trkpt><trkpt lat="42.45211055571679" lon="12.13468729846173"><ele>366.0</ele><time>2026-04-19T17:10:07.765Z</time></trkpt><trkpt lat="42.452312803391024" lon="12.134561598384337"><ele>365.3333333333333</ele><time>2026-04-19T17:10:08.765Z</time></trkpt><trkpt lat="42.452502367666376" lon="12.134403862043666"><ele>364.66666666666663</ele><time>2026-04-19T17:10:09.765Z</time></trkpt><trkpt lat="42.45267625635948" lon="12.134232485376499"><ele>364.0</ele><time>2026-04-19T17:10:10.765Z</time></trkpt><trkpt lat="42.45282636062767" lon="12.134038127223304"><ele>363.3333333333333</ele><time>2026-04-19T17:10:11.765Z</time></trkpt><trkpt lat="42.45296992537073" lon="12.133821093027242"><ele>362.6666666666667</ele><time>2026-04-19T17:10:12.765Z</time></trkpt><trkpt lat="42.453110163898536" lon="12.133604491195326"><ele>362.0</ele><time>2026-04-19T17:10:13.765Z</time></trkpt><trkpt lat="42.45325017131032" lon="12.133411739559715"><ele>360.6666666666667</ele><time>2026-04-19T17:10:14.765Z</time></trkpt><trkpt lat="42.453386183477676" lon="12.133216922249565"><ele>359.3333333333333</ele><time>2026-04-19T17:10:15.765Z</time></trkpt><trkpt lat="42.4535161459049" lon="12.13302622207815"><ele>358.0</ele><time>2026-04-19T17:10:16.765Z</time></trkpt><trkpt lat="42.45364677977194" lon="12.132822317134897"><ele>358.0</ele><time>2026-04-19T17:10:17.765Z</time></trkpt><trkpt lat="42.45377390260353" lon="12.132605641289937"><ele>358.0</ele><time>2026-04-19T17:10:18.765Z</time></trkpt><trkpt lat="42.45390976448106" lon="12.132392245416511"><ele>358.0</ele><time>2026-04-19T17:10:19.765Z</time></trkpt><trkpt lat="42.45405683920284" lon="12.132169671350184"><ele>356.5</ele><time>2026-04-19T17:10:20.765Z</time></trkpt><trkpt lat="42.45420869656471" lon="12.131941848152378"><ele>355.0</ele><time>2026-04-19T17:10:21.765Z</time></trkpt><trkpt lat="42.45437211858014" lon="12.131723680092378"><ele>355.5</ele><time>2026-04-19T17:10:22.765Z</time></trkpt><trkpt lat="42.454552556465636" lon="12.131528534817761"><ele>356.0</ele><time>2026-04-19T17:10:23.764Z</time></trkpt><trkpt lat="42.45472754903326" lon="12.131324358571158"><ele>354.5</ele><time>2026-04-19T17:10:24.764Z</time></trkpt><trkpt lat="42.454904699647265" lon="12.13111847929344"><ele>353.0</ele><time>2026-04-19T17:10:25.764Z</time></trkpt><trkpt lat="42.45507139501797" lon="12.130902719632124"><ele>353.6666666666667</ele><time>2026-04-19T17:10:26.764Z</time></trkpt><trkpt lat="42.45524285328195" lon="12.130705188324573"><ele>354.3333333333333</ele><time>2026-04-19T17:10:27.764Z</time></trkpt><trkpt lat="42.45541399048939" lon="12.130532853834461"><ele>355.0</ele><time>2026-04-19T17:10:28.764Z</time></trkpt><trkpt lat="42.45557038355847" lon="12.130365777174367"><ele>353.3333333333333</ele><time>2026-04-19T17:10:29.764Z</time></trkpt><trkpt lat="42.45572645713648" lon="12.130202056847997"><ele>351.6666666666667</ele><time>2026-04-19T17:10:30.764Z</time></trkpt><trkpt lat="42.45590407457372" lon="12.130071681267445"><ele>350.0</ele><time>2026-04-19T17:10:31.764Z</time></trkpt><trkpt lat="42.45609527210564" lon="12.129966334378587"><ele>349.6666666666667</ele><time>2026-04-19T17:10:32.764Z</time></trkpt><trkpt lat="42.456283383351355" lon="12.129874136967157"><ele>349.3333333333333</ele><time>2026-04-19T17:10:33.764Z</time></trkpt><trkpt lat="42.456461248004885" lon="12.129781421866548"><ele>349.0</ele><time>2026-04-19T17:10:34.764Z</time></trkpt><trkpt lat="42.45662926071403" lon="12.129678345840876"><ele>348.0</ele><time>2026-04-19T17:10:35.764Z</time></trkpt><trkpt lat="42.4567906821218" lon="12.129561053832001"><ele>347.0</ele><time>2026-04-19T17:10:36.764Z</time></trkpt><trkpt lat="42.45693657161467" lon="12.1294121278739"><ele>346.0</ele><time>2026-04-19T17:10:37.764Z</time></trkpt><trkpt lat="42.45707148355897" lon="12.129227233988248"><ele>345.3333333333333</ele><time>2026-04-19T17:10:38.764Z</time></trkpt><trkpt lat="42.4571986092801" lon="12.129029222837264"><ele>344.6666666666667</ele><time>2026-04-19T17:10:39.764Z</time></trkpt><trkpt lat="42.457327625493754" lon="12.128811652596882"><ele>344.0</ele><time>2026-04-19T17:10:40.764Z</time></trkpt><trkpt lat="42.45745620454637" lon="12.12858707667838"><ele>344.0</ele><time>2026-04-19T17:10:41.764Z</time></trkpt><trkpt lat="42.45758719412386" lon="12.12836120730151"><ele>344.0</ele><time>2026-04-19T17:10:42.763Z</time></trkpt><trkpt lat="42.45771248230819" lon="12.128145285298444"><ele>344.0</ele><time>2026-04-19T17:10:43.763Z</time></trkpt><trkpt lat="42.457837329848644" lon="12.127931964183205"><ele>344.33333333333337</ele><time>2026-04-19T17:10:44.763Z</time></trkpt><trkpt lat="42.45796665468236" lon="12.127724957415559"><ele>344.6666666666667</ele><time>2026-04-19T17:10:45.763Z</time></trkpt><trkpt lat="42.45810113445368" lon="12.127539494828914"><ele>345.0</ele><time>2026-04-19T17:10:46.763Z</time></trkpt><trkpt lat="42.458249179155004" lon="12.127372674856026"><ele>343.6666666666667</ele><time>2026-04-19T17:10:47.763Z</time></trkpt><trkpt lat="42.45840926898109" lon="12.127221691646925"><ele>342.33333333333337</ele><time>2026-04-19T17:10:48.763Z</time></trkpt><trkpt lat="42.45857467907424" lon="12.12707273789903"><ele>341.0</ele><time>2026-04-19T17:10:49.763Z</time></trkpt><trkpt lat="42.45875193087026" lon="12.126939412163486"><ele>341.6666666666667</ele><time>2026-04-19T17:10:50.763Z</time></trkpt><trkpt lat="42.4589247839132" lon="12.126810720347331"><ele>342.3333333333333</ele><time>2026-04-19T17:10:51.763Z</time></trkpt><trkpt lat="42.45909849265716" lon="12.126683581499199"><ele>343.0</ele><time>2026-04-19T17:10:52.763Z</time></trkpt><trkpt lat="42.45927416577901" lon="12.126552994774784"><ele>343.0</ele><time>2026-04-19T17:10:53.763Z</time></trkpt><trkpt lat="42.45945826167752" lon="12.126441739428937"><ele>343.0</ele><time>2026-04-19T17:10:54.763Z</time></trkpt><trkpt lat="42.45963601102932" lon="12.126311738405828"><ele>343.0</ele><time>2026-04-19T17:10:55.763Z</time></trkpt><trkpt lat="42.45981635780414" lon="12.126184693697708"><ele>343.3333333333333</ele><time>2026-04-19T17:10:56.763Z</time></trkpt><trkpt lat="42.459995791758836" lon="12.126054141234118"><ele>343.6666666666667</ele><time>2026-04-19T17:10:57.763Z</time></trkpt><trkpt lat="42.460178137012115" lon="12.125920425405411"><ele>344.0</ele><time>2026-04-19T17:10:58.763Z</time></trkpt><trkpt lat="42.46035937937761" lon="12.12576979763562"><ele>344.0</ele><time>2026-04-19T17:10:59.763Z</time></trkpt><trkpt lat="42.46054839591953" lon="12.12564457723781"><ele>344.0</ele><time>2026-04-19T17:11:00.763Z</time></trkpt><trkpt lat="42.46073944381492" lon="12.125515783756066"><ele>344.0</ele><time>2026-04-19T17:11:01.762Z</time></trkpt><trkpt lat="42.46093000025399" lon="12.125379666881425"><ele>344.0</ele><time>2026-04-19T17:11:02.762Z</time></trkpt><trkpt lat="42.46111543042791" lon="12.125248920354217"><ele>344.0</ele><time>2026-04-19T17:11:03.762Z</time></trkpt><trkpt lat="42.46129816947903" lon="12.125097825767735"><ele>344.0</ele><time>2026-04-19T17:11:04.762Z</time></trkpt><trkpt lat="42.461483286293245" lon="12.124930976039014"><ele>343.33333333333337</ele><time>2026-04-19T17:11:05.762Z</time></trkpt><trkpt lat="42.46166703615878" lon="12.124771380700007"><ele>342.6666666666667</ele><time>2026-04-19T17:11:06.762Z</time></trkpt><trkpt lat="42.46185024634286" lon="12.124616351256357"><ele>342.0</ele><time>2026-04-19T17:11:07.762Z</time></trkpt><trkpt lat="42.46203162882308" lon="12.124463226652798"><ele>341.6666666666667</ele><time>2026-04-19T17:11:08.762Z</time></trkpt><trkpt lat="42.462215655241046" lon="12.124310180325583"><ele>341.33333333333337</ele><time>2026-04-19T17:11:09.762Z</time></trkpt><trkpt lat="42.462394412076776" lon="12.124153804263123"><ele>341.0</ele><time>2026-04-19T17:11:10.762Z</time></trkpt><trkpt lat="42.462571183323725" lon="12.124026194578429"><ele>341.0</ele><time>2026-04-19T17:11:11.762Z</time></trkpt><trkpt lat="42.46275186570949" lon="12.123931599206788"><ele>341.0</ele><time>2026-04-19T17:11:12.762Z</time></trkpt><trkpt lat="42.4629373636962" lon="12.12386511712232"><ele>341.0</ele><time>2026-04-19T17:11:13.762Z</time></trkpt><trkpt lat="42.463129810480176" lon="12.12382957135285"><ele>340.0</ele><time>2026-04-19T17:11:14.762Z</time></trkpt><trkpt lat="42.46332666468454" lon="12.123807987056543"><ele>339.0</ele><time>2026-04-19T17:11:15.762Z</time></trkpt><trkpt lat="42.463528887427415" lon="12.123784110905106"><ele>338.0</ele><time>2026-04-19T17:11:16.762Z</time></trkpt><trkpt lat="42.46373119408466" lon="12.123758068486351"><ele>337.6666666666667</ele><time>2026-04-19T17:11:17.762Z</time></trkpt><trkpt lat="42.46393802280661" lon="12.123727531536689"><ele>337.3333333333333</ele><time>2026-04-19T17:11:18.762Z</time></trkpt><trkpt lat="42.464149782091894" lon="12.123690954288616"><ele>337.0</ele><time>2026-04-19T17:11:19.761Z</time></trkpt><trkpt lat="42.46436245732681" lon="12.123661998510643"><ele>337.0</ele><time>2026-04-19T17:11:20.761Z</time></trkpt><trkpt lat="42.46456958256857" lon="12.12365774976097"><ele>337.0</ele><time>2026-04-19T17:11:21.761Z</time></trkpt><trkpt lat="42.46477038537414" lon="12.12363031846848"><ele>337.0</ele><time>2026-04-19T17:11:22.761Z</time></trkpt><trkpt lat="42.46496864891049" lon="12.123583473567587"><ele>335.66666666666663</ele><time>2026-04-19T17:11:23.761Z</time></trkpt><trkpt lat="42.465172472778356" lon="12.12355627176035"><ele>334.3333333333333</ele><time>2026-04-19T17:11:24.761Z</time></trkpt><trkpt lat="42.46537229749771" lon="12.123548852693252"><ele>333.0</ele><time>2026-04-19T17:11:25.761Z</time></trkpt><trkpt lat="42.46557498063537" lon="12.123522406072489"><ele>332.0</ele><time>2026-04-19T17:11:26.761Z</time></trkpt><trkpt lat="42.46578289988425" lon="12.12349982993065"><ele>331.0</ele><time>2026-04-19T17:11:27.761Z</time></trkpt><trkpt lat="42.46600030412515" lon="12.123489971733528"><ele>330.0</ele><time>2026-04-19T17:11:28.761Z</time></trkpt><trkpt lat="42.46622140837777" lon="12.123491138248392"><ele>329.5</ele><time>2026-04-19T17:11:29.761Z</time></trkpt><trkpt lat="42.466446633092" lon="12.12350566250356"><ele>329.0</ele><time>2026-04-19T17:11:30.761Z</time></trkpt><trkpt lat="42.46667897097358" lon="12.123523349642731"><ele>329.0</ele><time>2026-04-19T17:11:31.761Z</time></trkpt><trkpt lat="42.4669146934756" lon="12.123533920211697"><ele>329.0</ele><time>2026-04-19T17:11:32.761Z</time></trkpt><trkpt lat="42.46715445649914" lon="12.123538697695878"><ele>327.5</ele><time>2026-04-19T17:11:33.761Z</time></trkpt><trkpt lat="42.46738793508633" lon="12.123543349924757"><ele>326.0</ele><time>2026-04-19T17:11:34.761Z</time></trkpt><trkpt lat="42.46762157523282" lon="12.123544928150281"><ele>326.0</ele><time>2026-04-19T17:11:35.761Z</time></trkpt><trkpt lat="42.46786240092233" lon="12.123469342375355"><ele>326.0</ele><time>2026-04-19T17:11:36.761Z</time></trkpt><trkpt lat="42.46809287537538" lon="12.123458320191308"><ele>324.5</ele><time>2026-04-19T17:11:37.761Z</time></trkpt><trkpt lat="42.46832694810654" lon="12.123443359916067"><ele>323.0</ele><time>2026-04-19T17:11:38.763Z</time></trkpt><trkpt lat="42.46855368438942" lon="12.123427840942625"><ele>323.33333333333337</ele><time>2026-04-19T17:11:39.763Z</time></trkpt><trkpt lat="42.46877804673481" lon="12.123413264452818"><ele>323.6666666666667</ele><time>2026-04-19T17:11:40.763Z</time></trkpt><trkpt lat="42.46898555093782" lon="12.12340389682092"><ele>324.0</ele><time>2026-04-19T17:11:41.762Z</time></trkpt><trkpt lat="42.469195360542216" lon="12.12339096970345"><ele>324.0</ele><time>2026-04-19T17:11:42.762Z</time></trkpt><trkpt lat="42.46941026436902" lon="12.123371572107763"><ele>324.0</ele><time>2026-04-19T17:11:43.762Z</time></trkpt><trkpt lat="42.46962966164894" lon="12.123358764482202"><ele>324.0</ele><time>2026-04-19T17:11:44.762Z</time></trkpt><trkpt lat="42.46985076863182" lon="12.12336179755438"><ele>323.0</ele><time>2026-04-19T17:11:45.763Z</time></trkpt><trkpt lat="42.470073223466656" lon="12.123370226142272"><ele>322.0</ele><time>2026-04-19T17:11:46.763Z</time></trkpt><trkpt lat="42.47029301586768" lon="12.123379101238045"><ele>321.0</ele><time>2026-04-19T17:11:47.763Z</time></trkpt><trkpt lat="42.4705177589601" lon="12.123400312428291"><ele>321.0</ele><time>2026-04-19T17:11:48.763Z</time></trkpt><trkpt lat="42.470742525338586" lon="12.123419072202818"><ele>321.0</ele><time>2026-04-19T17:11:49.763Z</time></trkpt><trkpt lat="42.47096654937858" lon="12.1234447756231"><ele>321.0</ele><time>2026-04-19T17:11:50.763Z</time></trkpt><trkpt lat="42.471186735814186" lon="12.123474536413738"><ele>321.0</ele><time>2026-04-19T17:11:51.762Z</time></trkpt><trkpt lat="42.471404903587725" lon="12.123507997406017"><ele>321.0</ele><time>2026-04-19T17:11:52.762Z</time></trkpt><trkpt lat="42.471616512649156" lon="12.123537313690546"><ele>320.6666666666667</ele><time>2026-04-19T17:11:53.762Z</time></trkpt><trkpt lat="42.471826155835366" lon="12.123557746088188"><ele>320.33333333333337</ele><time>2026-04-19T17:11:54.762Z</time></trkpt><trkpt lat="42.47202927046752" lon="12.12356771190164"><ele>320.0</ele><time>2026-04-19T17:11:55.762Z</time></trkpt><trkpt lat="42.47223178207911" lon="12.123564302800766"><ele>318.6666666666667</ele><time>2026-04-19T17:11:56.762Z</time></trkpt><trkpt lat="42.472427192836506" lon="12.123529233619518"><ele>317.3333333333333</ele><time>2026-04-19T17:11:57.762Z</time></trkpt><trkpt lat="42.472616962438934" lon="12.123453235236466"><ele>316.0</ele><time>2026-04-19T17:11:58.762Z</time></trkpt><trkpt lat="42.47279834027385" lon="12.123352411672998"><ele>314.3333333333333</ele><time>2026-04-19T17:11:59.762Z</time></trkpt><trkpt lat="42.47297906291337" lon="12.12324806452195"><ele>312.6666666666667</ele><time>2026-04-19T17:12:00.762Z</time></trkpt><trkpt lat="42.47315623714509" lon="12.123149355455018"><ele>311.0</ele><time>2026-04-19T17:12:01.762Z</time></trkpt><trkpt lat="42.47333672945783" lon="12.12303619964679"><ele>311.0</ele><time>2026-04-19T17:12:02.809Z</time></trkpt><trkpt lat="42.47351178381538" lon="12.122929141894337"><ele>311.0</ele><time>2026-04-19T17:12:03.809Z</time></trkpt><trkpt lat="42.47368583363236" lon="12.122841724359539"><ele>311.0</ele><time>2026-04-19T17:12:04.809Z</time></trkpt><trkpt lat="42.47385652834663" lon="12.122757235687127"><ele>310.33333333333337</ele><time>2026-04-19T17:12:05.809Z</time></trkpt><trkpt lat="42.47402568319749" lon="12.122676080756653"><ele>309.6666666666667</ele><time>2026-04-19T17:12:06.81Z</time></trkpt><trkpt lat="42.474194600769145" lon="12.122583784178913"><ele>309.0</ele><time>2026-04-19T17:12:07.81Z</time></trkpt><trkpt lat="42.4743629110857" lon="12.122485718977263"><ele>308.6666666666667</ele><time>2026-04-19T17:12:08.81Z</time></trkpt><trkpt lat="42.474528745470714" lon="12.122384550649661"><ele>308.33333333333337</ele><time>2026-04-19T17:12:09.81Z</time></trkpt><trkpt lat="42.4746944508829" lon="12.122294069731497"><ele>308.0</ele><time>2026-04-19T17:12:10.81Z</time></trkpt><trkpt lat="42.47486127840465" lon="12.122217766421752"><ele>306.33333333333337</ele><time>2026-04-19T17:12:11.81Z</time></trkpt><trkpt lat="42.475020456108666" lon="12.122138374806692"><ele>304.6666666666667</ele><time>2026-04-19T17:12:12.81Z</time></trkpt><trkpt lat="42.47518373001834" lon="12.12206121011134"><ele>303.0</ele><time>2026-04-19T17:12:13.81Z</time></trkpt><trkpt lat="42.47533780666319" lon="12.121964392513668"><ele>301.6666666666667</ele><time>2026-04-19T17:12:14.81Z</time></trkpt><trkpt lat="42.475486775792014" lon="12.121852521015773"><ele>300.33333333333337</ele><time>2026-04-19T17:12:15.81Z</time></trkpt><trkpt lat="42.475639565391724" lon="12.121734960099634"><ele>299.0</ele><time>2026-04-19T17:12:16.81Z</time></trkpt><trkpt lat="42.475794338456936" lon="12.121609189980742"><ele>297.33333333333337</ele><time>2026-04-19T17:12:17.81Z</time></trkpt><trkpt lat="42.47596661611253" lon="12.1215038735151"><ele>295.6666666666667</ele><time>2026-04-19T17:12:18.81Z</time></trkpt><trkpt lat="42.47613307043218" lon="12.121419437640437"><ele>294.0</ele><time>2026-04-19T17:12:19.81Z</time></trkpt><trkpt lat="42.47628038215435" lon="12.121334989720788"><ele>290.6666666666667</ele><time>2026-04-19T17:12:20.81Z</time></trkpt><trkpt lat="42.476434230365804" lon="12.121286660119496"><ele>287.33333333333337</ele><time>2026-04-19T17:12:21.81Z</time></trkpt><trkpt lat="42.4765826732466" lon="12.121261994677013"><ele>284.0</ele><time>2026-04-19T17:12:22.81Z</time></trkpt><trkpt lat="42.47673543079722" lon="12.121218945654482"><ele>284.0</ele><time>2026-04-19T17:12:23.81Z</time></trkpt><trkpt lat="42.476894037743214" lon="12.121149901948453"><ele>284.0</ele><time>2026-04-19T17:12:24.81Z</time></trkpt><trkpt lat="42.477034068655925" lon="12.121053403901481"><ele>284.0</ele><time>2026-04-19T17:12:25.81Z</time></trkpt><trkpt lat="42.4771583262159" lon="12.120942707654795"><ele>283.5</ele><time>2026-04-19T17:12:26.81Z</time></trkpt><trkpt lat="42.477290696932315" lon="12.120860358980313"><ele>283.0</ele><time>2026-04-19T17:12:27.81Z</time></trkpt><trkpt lat="42.477432732644886" lon="12.120793887425313"><ele>282.5</ele><time>2026-04-19T17:12:28.81Z</time></trkpt><trkpt lat="42.477571241866066" lon="12.120731560181644"><ele>282.0</ele><time>2026-04-19T17:12:29.81Z</time></trkpt><trkpt lat="42.477705140846645" lon="12.120679927042668"><ele>276.75</ele><time>2026-04-19T17:12:30.81Z</time></trkpt><trkpt lat="42.47784111522895" lon="12.12061065692545"><ele>271.5</ele><time>2026-04-19T17:12:31.81Z</time></trkpt><trkpt lat="42.47796334901841" lon="12.120532648920024"><ele>266.25</ele><time>2026-04-19T17:12:32.81Z</time></trkpt><trkpt lat="42.47808372200253" lon="12.120504103712728"><ele>261.0</ele><time>2026-04-19T17:12:33.81Z</time></trkpt><trkpt lat="42.47819188703644" lon="12.120497909176986"><ele>261.0</ele><time>2026-04-19T17:12:34.81Z</time></trkpt><trkpt lat="42.478283673233264" lon="12.120528552368457"><ele>261.0</ele><time>2026-04-19T17:12:35.81Z</time></trkpt><trkpt lat="42.478362971231164" lon="12.120600567317286"><ele>261.0</ele><time>2026-04-19T17:12:36.81Z</time></trkpt><trkpt lat="42.47843554685911" lon="12.120696959238392"><ele>261.0</ele><time>2026-04-19T17:12:37.81Z</time></trkpt><trkpt lat="42.4785151203565" lon="12.120808356143323"><ele>261.0</ele><time>2026-04-19T17:12:38.81Z</time></trkpt><trkpt lat="42.47860827178788" lon="12.12089949572692"><ele>262.0</ele><time>2026-04-19T17:12:39.81Z</time></trkpt><trkpt lat="42.47870305900705" lon="12.12099941303606"><ele>263.0</ele><time>2026-04-19T17:12:40.81Z</time></trkpt><trkpt lat="42.478798806096464" lon="12.121075639532846"><ele>264.0</ele><time>2026-04-19T17:12:41.81Z</time></trkpt><trkpt lat="42.47891086816528" lon="12.121149574863935"><ele>265.0</ele><time>2026-04-19T17:12:42.81Z</time></trkpt><trkpt lat="42.479027043745155" lon="12.121189716415222"><ele>265.0</ele><time>2026-04-19T17:12:43.81Z</time></trkpt><trkpt lat="42.479154072250054" lon="12.121206481946734"><ele>265.0</ele><time>2026-04-19T17:12:44.81Z</time></trkpt><trkpt lat="42.4792859562553" lon="12.12116637174214"><ele>265.0</ele><time>2026-04-19T17:12:45.81Z</time></trkpt><trkpt lat="42.479397263460044" lon="12.121065868966747"><ele>265.0</ele><time>2026-04-19T17:12:46.81Z</time></trkpt><trkpt lat="42.479487202162424" lon="12.120946984781371"><ele>265.0</ele><time>2026-04-19T17:12:47.81Z</time></trkpt><trkpt lat="42.47957643809377" lon="12.120851694998938"><ele>265.0</ele><time>2026-04-19T17:12:48.81Z</time></trkpt><trkpt lat="42.47966122162139" lon="12.120743983368872"><ele>265.0</ele><time>2026-04-19T17:12:49.81Z</time></trkpt><trkpt lat="42.479724163837886" lon="12.120621231442847"><ele>265.0</ele><time>2026-04-19T17:12:50.81Z</time></trkpt><trkpt lat="42.47975697114557" lon="12.120488675281802"><ele>265.0</ele><time>2026-04-19T17:12:51.809Z</time></trkpt><trkpt lat="42.47974518938067" lon="12.12035016360989"><ele>265.0</ele><time>2026-04-19T17:12:52.809Z</time></trkpt><trkpt lat="42.47969674503394" lon="12.120220626148669"><ele>265.0</ele><time>2026-04-19T17:12:53.809Z</time></trkpt><trkpt lat="42.47963465036642" lon="12.120089084488436"><ele>265.0</ele><time>2026-04-19T17:12:54.809Z</time></trkpt><trkpt lat="42.47957335787421" lon="12.119953842713397"><ele>265.0</ele><time>2026-04-19T17:12:55.809Z</time></trkpt><trkpt lat="42.47950793087028" lon="12.119810195409114"><ele>265.0</ele><time>2026-04-19T17:12:56.809Z</time></trkpt><trkpt lat="42.479439314335444" lon="12.119667037800856"><ele>265.0</ele><time>2026-04-19T17:12:57.809Z</time></trkpt><trkpt lat="42.47937095832951" lon="12.119522471208201"><ele>265.0</ele><time>2026-04-19T17:12:58.809Z</time></trkpt><trkpt lat="42.479299819818316" lon="12.119372983517735"><ele>265.0</ele><time>2026-04-19T17:12:59.809Z</time></trkpt><trkpt lat="42.47922472705783" lon="12.119219988695411"><ele>268.0</ele><time>2026-04-19T17:13:00.809Z</time></trkpt><trkpt lat="42.47914270542144" lon="12.119063127738464"><ele>271.0</ele><time>2026-04-19T17:13:01.809Z</time></trkpt><trkpt lat="42.479058026704124" lon="12.118906355557954"><ele>274.0</ele><time>2026-04-19T17:13:02.809Z</time></trkpt><trkpt lat="42.478975443737546" lon="12.118754220791535"><ele>277.0</ele><time>2026-04-19T17:13:03.809Z</time></trkpt><trkpt lat="42.47888868257078" lon="12.118612283978571"><ele>277.0</ele><time>2026-04-19T17:13:04.809Z</time></trkpt><trkpt lat="42.47877750177669" lon="12.118495661453483"><ele>277.0</ele><time>2026-04-19T17:13:05.809Z</time></trkpt><trkpt lat="42.47865036566667" lon="12.118398987081827"><ele>277.0</ele><time>2026-04-19T17:13:06.809Z</time></trkpt><trkpt lat="42.478515208605494" lon="12.11831465069255"><ele>277.0</ele><time>2026-04-19T17:13:07.809Z</time></trkpt><trkpt lat="42.47837392230812" lon="12.118246315233305"><ele>277.0</ele><time>2026-04-19T17:13:08.809Z</time></trkpt><trkpt lat="42.47823007991066" lon="12.118176577310665"><ele>277.0</ele><time>2026-04-19T17:13:09.809Z</time></trkpt><trkpt lat="42.47810071655607" lon="12.118083121785718"><ele>277.0</ele><time>2026-04-19T17:13:10.809Z</time></trkpt><trkpt lat="42.47799116366892" lon="12.117955697963774"><ele>277.0</ele><time>2026-04-19T17:13:11.809Z</time></trkpt><trkpt lat="42.47790953012196" lon="12.11779488857627"><ele>273.66666666666663</ele><time>2026-04-19T17:13:12.809Z</time></trkpt><trkpt lat="42.47784604737187" lon="12.117616821189065"><ele>270.3333333333333</ele><time>2026-04-19T17:13:13.809Z</time></trkpt><trkpt lat="42.47779620046538" lon="12.117425832417533"><ele>267.0</ele><time>2026-04-19T17:13:14.809Z</time></trkpt><trkpt lat="42.477748140805645" lon="12.117223539975445"><ele>267.0</ele><time>2026-04-19T17:13:15.809Z</time></trkpt><trkpt lat="42.477704483553694" lon="12.117006292363985"><ele>267.0</ele><time>2026-04-19T17:13:16.808Z</time></trkpt><trkpt lat="42.477659888501286" lon="12.116791539791365"><ele>267.0</ele><time>2026-04-19T17:13:17.808Z</time></trkpt><trkpt lat="42.47761717947673" lon="12.116601618233418"><ele>268.4</ele><time>2026-04-19T17:13:18.808Z</time></trkpt><trkpt lat="42.47757755306285" lon="12.116416868077813"><ele>269.79999999999995</ele><time>2026-04-19T17:13:19.808Z</time></trkpt><trkpt lat="42.477534172562656" lon="12.116251678411437"><ele>271.2</ele><time>2026-04-19T17:13:20.808Z</time></trkpt><trkpt lat="42.47750109231964" lon="12.116118770842002"><ele>272.59999999999997</ele><time>2026-04-19T17:13:21.808Z</time></trkpt><trkpt lat="42.4774864173833" lon="12.116025804169436"><ele>274.0</ele><time>2026-04-19T17:13:22.808Z</time></trkpt><trkpt lat="42.47752004811314" lon="12.115944462299973"><ele>274.0</ele><time>2026-04-19T17:13:27.808Z</time></trkpt><trkpt lat="42.477642263173486" lon="12.115901007185203"><ele>274.0</ele><time>2026-04-19T17:13:30.808Z</time></trkpt><trkpt lat="42.47771043452225" lon="12.115930304866893"><ele>274.0</ele><time>2026-04-19T17:13:31.808Z</time></trkpt><trkpt lat="42.47779675604107" lon="12.115946604650821"><ele>274.0</ele><time>2026-04-19T17:13:32.808Z</time></trkpt><trkpt lat="42.47789860646745" lon="12.115963657150518"><ele>274.0</ele><time>2026-04-19T17:13:33.808Z</time></trkpt><trkpt lat="42.47801383391219" lon="12.11598788122503"><ele>275.5</ele><time>2026-04-19T17:13:34.808Z</time></trkpt><trkpt lat="42.47814894869576" lon="12.116016627087959"><ele>277.0</ele><time>2026-04-19T17:13:35.808Z</time></trkpt><trkpt lat="42.47828723698966" lon="12.11604559658223"><ele>278.5</ele><time>2026-04-19T17:13:36.808Z</time></trkpt><trkpt lat="42.47842907083655" lon="12.11608314035934"><ele>280.0</ele><time>2026-04-19T17:13:37.808Z</time></trkpt><trkpt lat="42.47858012197992" lon="12.116119033226354"><ele>280.0</ele><time>2026-04-19T17:13:38.808Z</time></trkpt><trkpt lat="42.47874248993761" lon="12.116148161556396"><ele>280.0</ele><time>2026-04-19T17:13:39.808Z</time></trkpt><trkpt lat="42.478916862186786" lon="12.11617675540882"><ele>280.0</ele><time>2026-04-19T17:13:40.807Z</time></trkpt><trkpt lat="42.47909300753884" lon="12.116204731498327"><ele>282.66666666666663</ele><time>2026-04-19T17:13:41.807Z</time></trkpt><trkpt lat="42.47927791554912" lon="12.11623410557287"><ele>285.3333333333333</ele><time>2026-04-19T17:13:42.807Z</time></trkpt><trkpt lat="42.479466735229856" lon="12.116266335099294"><ele>288.0</ele><time>2026-04-19T17:13:43.807Z</time></trkpt><trkpt lat="42.47965839605398" lon="12.116307754045193"><ele>290.0</ele><time>2026-04-19T17:13:44.809Z</time></trkpt><trkpt lat="42.47985557215225" lon="12.116351274045583"><ele>292.0</ele><time>2026-04-19T17:13:45.81Z</time></trkpt><trkpt lat="42.480061332260156" lon="12.116386847071357"><ele>294.0</ele><time>2026-04-19T17:13:46.81Z</time></trkpt><trkpt lat="42.480279954913925" lon="12.116426860541727"><ele>293.6666666666667</ele><time>2026-04-19T17:13:47.809Z</time></trkpt><trkpt lat="42.48049788280502" lon="12.116468771376818"><ele>293.33333333333337</ele><time>2026-04-19T17:13:48.809Z</time></trkpt><trkpt lat="42.48071925773681" lon="12.11651336430235"><ele>293.0</ele><time>2026-04-19T17:13:49.809Z</time></trkpt><trkpt lat="42.480946055718135" lon="12.116556717566887"><ele>293.0</ele><time>2026-04-19T17:13:50.809Z</time></trkpt><trkpt lat="42.481178143638" lon="12.116599856216029"><ele>293.0</ele><time>2026-04-19T17:13:51.809Z</time></trkpt><trkpt lat="42.48141133862642" lon="12.116645470047084"><ele>293.0</ele><time>2026-04-19T17:13:52.809Z</time></trkpt><trkpt lat="42.48165551463829" lon="12.116687463082188"><ele>293.0</ele><time>2026-04-19T17:13:53.81Z</time></trkpt><trkpt lat="42.481893951100226" lon="12.116731453296033"><ele>295.0</ele><time>2026-04-19T17:13:54.809Z</time></trkpt><trkpt lat="42.48213580717618" lon="12.116777762913589"><ele>297.0</ele><time>2026-04-19T17:13:55.809Z</time></trkpt><trkpt lat="42.48237974228399" lon="12.116825194819501"><ele>297.0</ele><time>2026-04-19T17:13:56.809Z</time></trkpt><trkpt lat="42.482630444260856" lon="12.116871341474363"><ele>297.0</ele><time>2026-04-19T17:13:57.81Z</time></trkpt><trkpt lat="42.48287448068463" lon="12.116917449548653"><ele>295.5</ele><time>2026-04-19T17:13:58.81Z</time></trkpt><trkpt lat="42.48311464602401" lon="12.116965641807521"><ele>294.0</ele><time>2026-04-19T17:13:59.81Z</time></trkpt><trkpt lat="42.483346954988214" lon="12.117003946057375"><ele>294.0</ele><time>2026-04-19T17:14:00.81Z</time></trkpt><trkpt lat="42.48357819244203" lon="12.117018775034655"><ele>294.0</ele><time>2026-04-19T17:14:01.81Z</time></trkpt><trkpt lat="42.48380747716753" lon="12.117018302258247"><ele>291.5</ele><time>2026-04-19T17:14:02.809Z</time></trkpt><trkpt lat="42.48403700781081" lon="12.116989058628986"><ele>289.0</ele><time>2026-04-19T17:14:03.809Z</time></trkpt><trkpt lat="42.484273053902655" lon="12.116932727367033"><ele>289.0</ele><time>2026-04-19T17:14:04.809Z</time></trkpt><trkpt lat="42.484511556957344" lon="12.116858033222414"><ele>289.0</ele><time>2026-04-19T17:14:05.809Z</time></trkpt><trkpt lat="42.48475661303848" lon="12.116770145371532"><ele>288.0</ele><time>2026-04-19T17:14:06.809Z</time></trkpt><trkpt lat="42.48500196099922" lon="12.116674017510862"><ele>287.0</ele><time>2026-04-19T17:14:07.809Z</time></trkpt><trkpt lat="42.48525454061672" lon="12.11658498141798"><ele>285.5</ele><time>2026-04-19T17:14:08.809Z</time></trkpt><trkpt lat="42.48550564204697" lon="12.116500166543798"><ele>284.0</ele><time>2026-04-19T17:14:09.809Z</time></trkpt><trkpt lat="42.485752160693366" lon="12.116418369710807"><ele>284.0</ele><time>2026-04-19T17:14:10.809Z</time></trkpt><trkpt lat="42.485993724460684" lon="12.116326425666351"><ele>284.0</ele><time>2026-04-19T17:14:11.809Z</time></trkpt><trkpt lat="42.48623208817593" lon="12.116252817912475"><ele>283.0</ele><time>2026-04-19T17:14:12.809Z</time></trkpt><trkpt lat="42.486468537227644" lon="12.116183834564747"><ele>282.0</ele><time>2026-04-19T17:14:13.809Z</time></trkpt><trkpt lat="42.48669561338773" lon="12.11614875958013"><ele>282.0</ele><time>2026-04-19T17:14:14.809Z</time></trkpt><trkpt lat="42.4869130809373" lon="12.116134876079625"><ele>282.0</ele><time>2026-04-19T17:14:15.809Z</time></trkpt><trkpt lat="42.48711349540666" lon="12.116143270548799"><ele>282.0</ele><time>2026-04-19T17:14:16.809Z</time></trkpt><trkpt lat="42.487288876529355" lon="12.116171765483802"><ele>282.2</ele><time>2026-04-19T17:14:17.809Z</time></trkpt><trkpt lat="42.48743802445628" lon="12.116201836138112"><ele>282.4</ele><time>2026-04-19T17:14:18.809Z</time></trkpt><trkpt lat="42.487561546226665" lon="12.116228281094495"><ele>282.6</ele><time>2026-04-19T17:14:19.809Z</time></trkpt><trkpt lat="42.487646541264674" lon="12.116231142249587"><ele>282.8</ele><time>2026-04-19T17:14:20.809Z</time></trkpt><trkpt lat="42.487728744487555" lon="12.116250468113524"><ele>283.0</ele><time>2026-04-19T17:14:22.809Z</time></trkpt><trkpt lat="42.487757301926536" lon="12.116053422838762"><ele>283.0</ele><time>2026-04-19T17:14:23.809Z</time></trkpt><trkpt lat="42.487782166950794" lon="12.115917521044116"><ele>283.0</ele><time>2026-04-19T17:14:24.809Z</time></trkpt><trkpt lat="42.48782284374388" lon="12.115773630097218"><ele>283.0</ele><time>2026-04-19T17:14:25.808Z</time></trkpt><trkpt lat="42.487888756537" lon="12.115605209222412"><ele>283.0</ele><time>2026-04-19T17:14:26.808Z</time></trkpt><trkpt lat="42.48796195107075" lon="12.115421727363344"><ele>283.66666666666663</ele><time>2026-04-19T17:14:27.808Z</time></trkpt><trkpt lat="42.48802758357392" lon="12.115231576397958"><ele>284.3333333333333</ele><time>2026-04-19T17:14:28.808Z</time></trkpt><trkpt lat="42.48809596302277" lon="12.115039376407308"><ele>285.0</ele><time>2026-04-19T17:14:29.808Z</time></trkpt><trkpt lat="42.48816594841987" lon="12.114840562549617"><ele>285.0</ele><time>2026-04-19T17:14:30.808Z</time></trkpt><trkpt lat="42.4882364265866" lon="12.114632481829943"><ele>285.0</ele><time>2026-04-19T17:14:31.808Z</time></trkpt><trkpt lat="42.48830977119038" lon="12.11441449611696"><ele>285.0</ele><time>2026-04-19T17:14:32.808Z</time></trkpt><trkpt lat="42.48838765461481" lon="12.114189248765545"><ele>284.3333333333333</ele><time>2026-04-19T17:14:33.808Z</time></trkpt><trkpt lat="42.48846945903229" lon="12.113962836026085"><ele>283.66666666666663</ele><time>2026-04-19T17:14:34.808Z</time></trkpt><trkpt lat="42.488554050178124" lon="12.113722606945666"><ele>283.0</ele><time>2026-04-19T17:14:35.808Z</time></trkpt><trkpt lat="42.48864474593577" lon="12.113475858641479"><ele>282.66666666666663</ele><time>2026-04-19T17:14:36.808Z</time></trkpt><trkpt lat="42.48873943358496" lon="12.113220007652519"><ele>282.3333333333333</ele><time>2026-04-19T17:14:37.808Z</time></trkpt><trkpt lat="42.4888337731152" lon="12.11294876140282"><ele>282.0</ele><time>2026-04-19T17:14:38.808Z</time></trkpt><trkpt lat="42.488932087970525" lon="12.112672946290186"><ele>284.0</ele><time>2026-04-19T17:14:39.808Z</time></trkpt><trkpt lat="42.48903129286061" lon="12.112397823411786"><ele>286.0</ele><time>2026-04-19T17:14:40.808Z</time></trkpt><trkpt lat="42.48912876896801" lon="12.112121137759901"><ele>286.0</ele><time>2026-04-19T17:14:41.808Z</time></trkpt><trkpt lat="42.48923028578396" lon="12.111844078998312"><ele>286.0</ele><time>2026-04-19T17:14:42.808Z</time></trkpt><trkpt lat="42.489333534654264" lon="12.111561268891268"><ele>285.5</ele><time>2026-04-19T17:14:43.808Z</time></trkpt><trkpt lat="42.489437397638255" lon="12.11127874810975"><ele>285.0</ele><time>2026-04-19T17:14:44.808Z</time></trkpt><trkpt lat="42.489542972278855" lon="12.110987394598407"><ele>287.0</ele><time>2026-04-19T17:14:45.808Z</time></trkpt><trkpt lat="42.48965128913161" lon="12.11069092444039"><ele>289.0</ele><time>2026-04-19T17:14:46.808Z</time></trkpt><trkpt lat="42.48976060508566" lon="12.11038448007465"><ele>289.0</ele><time>2026-04-19T17:14:47.808Z</time></trkpt><trkpt lat="42.489872441985575" lon="12.110077964694028"><ele>289.0</ele><time>2026-04-19T17:14:48.807Z</time></trkpt><trkpt lat="42.4899810781933" lon="12.109770081725204"><ele>289.0</ele><time>2026-04-19T17:14:49.807Z</time></trkpt><trkpt lat="42.49009414943488" lon="12.109462518719777"><ele>289.0</ele><time>2026-04-19T17:14:50.807Z</time></trkpt><trkpt lat="42.49020796169691" lon="12.109147155837563"><ele>289.0</ele><time>2026-04-19T17:14:51.807Z</time></trkpt><trkpt lat="42.490325027772755" lon="12.10882856487352"><ele>289.0</ele><time>2026-04-19T17:14:52.807Z</time></trkpt><trkpt lat="42.490438712635886" lon="12.10851220759109"><ele>288.5</ele><time>2026-04-19T17:14:53.807Z</time></trkpt><trkpt lat="42.490552618737986" lon="12.108195093192164"><ele>288.0</ele><time>2026-04-19T17:14:54.807Z</time></trkpt><trkpt lat="42.49066422236392" lon="12.10788549619974"><ele>288.0</ele><time>2026-04-19T17:14:55.807Z</time></trkpt><trkpt lat="42.49077558505142" lon="12.10757687780448"><ele>288.0</ele><time>2026-04-19T17:14:56.807Z</time></trkpt><trkpt lat="42.49088727544676" lon="12.107266926116935"><ele>288.0</ele><time>2026-04-19T17:14:57.807Z</time></trkpt><trkpt lat="42.4909938017058" lon="12.10695369881839"><ele>288.0</ele><time>2026-04-19T17:14:58.807Z</time></trkpt><trkpt lat="42.49110817836531" lon="12.106649528618922"><ele>288.0</ele><time>2026-04-19T17:14:59.807Z</time></trkpt><trkpt lat="42.49122138304491" lon="12.106343279847511"><ele>288.0</ele><time>2026-04-19T17:15:00.807Z</time></trkpt><trkpt lat="42.49133764753914" lon="12.106027296357277"><ele>288.5</ele><time>2026-04-19T17:15:01.807Z</time></trkpt><trkpt lat="42.49145111232484" lon="12.105708868645472"><ele>289.0</ele><time>2026-04-19T17:15:02.807Z</time></trkpt><trkpt lat="42.49156536737539" lon="12.105392751216801"><ele>289.0</ele><time>2026-04-19T17:15:03.807Z</time></trkpt><trkpt lat="42.491678228156864" lon="12.105075026921543"><ele>289.0</ele><time>2026-04-19T17:15:04.807Z</time></trkpt><trkpt lat="42.491793826622654" lon="12.104757756151734"><ele>289.5</ele><time>2026-04-19T17:15:05.807Z</time></trkpt><trkpt lat="42.491908940444084" lon="12.104437702464097"><ele>290.0</ele><time>2026-04-19T17:15:06.807Z</time></trkpt><trkpt lat="42.492024914543435" lon="12.104121669819127"><ele>292.0</ele><time>2026-04-19T17:15:07.807Z</time></trkpt><trkpt lat="42.49213821662594" lon="12.103807211755715"><ele>294.0</ele><time>2026-04-19T17:15:08.807Z</time></trkpt><trkpt lat="42.49224995921012" lon="12.103499946306917"><ele>296.0</ele><time>2026-04-19T17:15:09.807Z</time></trkpt><trkpt lat="42.492358188007785" lon="12.10319233010557"><ele>298.0</ele><time>2026-04-19T17:15:10.807Z</time></trkpt><trkpt lat="42.49246628971067" lon="12.102890192259279"><ele>298.0</ele><time>2026-04-19T17:15:11.806Z</time></trkpt><trkpt lat="42.49257478476299" lon="12.102591789632354"><ele>298.0</ele><time>2026-04-19T17:15:12.806Z</time></trkpt><trkpt lat="42.49268077202696" lon="12.102298911147582"><ele>297.0</ele><time>2026-04-19T17:15:13.806Z</time></trkpt><trkpt lat="42.49278673155425" lon="12.102006525185223"><ele>296.0</ele><time>2026-04-19T17:15:14.806Z</time></trkpt><trkpt lat="42.492895085931124" lon="12.101717047794942"><ele>297.0</ele><time>2026-04-19T17:15:15.806Z</time></trkpt><trkpt lat="42.492999776664064" lon="12.101431148723082"><ele>298.0</ele><time>2026-04-19T17:15:16.806Z</time></trkpt><trkpt lat="42.49310141069535" lon="12.101148644373271"><ele>298.0</ele><time>2026-04-19T17:15:17.806Z</time></trkpt><trkpt lat="42.493201576733185" lon="12.100862930644805"><ele>298.0</ele><time>2026-04-19T17:15:18.806Z</time></trkpt><trkpt lat="42.49330353589153" lon="12.100580524302966"><ele>298.5</ele><time>2026-04-19T17:15:19.806Z</time></trkpt><trkpt lat="42.493407030023604" lon="12.100297037374746"><ele>299.0</ele><time>2026-04-19T17:15:20.806Z</time></trkpt><trkpt lat="42.49350806342537" lon="12.100009873456028"><ele>299.5</ele><time>2026-04-19T17:15:21.806Z</time></trkpt><trkpt lat="42.493610293342904" lon="12.099721116272015"><ele>300.0</ele><time>2026-04-19T17:15:22.806Z</time></trkpt><trkpt lat="42.49371372468222" lon="12.099432449814588"><ele>300.5</ele><time>2026-04-19T17:15:23.806Z</time></trkpt><trkpt lat="42.49381949469758" lon="12.09914428422391"><ele>301.0</ele><time>2026-04-19T17:15:24.806Z</time></trkpt><trkpt lat="42.49392202848002" lon="12.098851936917335"><ele>301.0</ele><time>2026-04-19T17:15:25.806Z</time></trkpt><trkpt lat="42.49402685029061" lon="12.09855747315379"><ele>301.0</ele><time>2026-04-19T17:15:26.806Z</time></trkpt><trkpt lat="42.49413471401274" lon="12.098265373389252"><ele>301.5</ele><time>2026-04-19T17:15:27.806Z</time></trkpt><trkpt lat="42.49424215639003" lon="12.097966175230129"><ele>302.0</ele><time>2026-04-19T17:15:28.806Z</time></trkpt><trkpt lat="42.49434858679279" lon="12.097668677024826"><ele>303.0</ele><time>2026-04-19T17:15:29.806Z</time></trkpt><trkpt lat="42.49445724280114" lon="12.097371769575497"><ele>304.0</ele><time>2026-04-19T17:15:30.806Z</time></trkpt><trkpt lat="42.49456228069855" lon="12.097075768910738"><ele>305.0</ele><time>2026-04-19T17:15:31.806Z</time></trkpt><trkpt lat="42.49466682121622" lon="12.09677780175382"><ele>306.0</ele><time>2026-04-19T17:15:32.806Z</time></trkpt><trkpt lat="42.494772372538606" lon="12.096483646376598"><ele>306.0</ele><time>2026-04-19T17:15:33.806Z</time></trkpt><trkpt lat="42.494881786996004" lon="12.096180835214202"><ele>306.0</ele><time>2026-04-19T17:15:34.805Z</time></trkpt><trkpt lat="42.49499156174471" lon="12.095879235657376"><ele>306.0</ele><time>2026-04-19T17:15:35.805Z</time></trkpt><trkpt lat="42.49510263290869" lon="12.095576954921656"><ele>306.0</ele><time>2026-04-19T17:15:36.805Z</time></trkpt><trkpt lat="42.49521557343229" lon="12.095278766091344"><ele>306.0</ele><time>2026-04-19T17:15:37.805Z</time></trkpt><trkpt lat="42.495326642754094" lon="12.094978015220654"><ele>306.0</ele><time>2026-04-19T17:15:38.805Z</time></trkpt><trkpt lat="42.49542785423654" lon="12.094665987035453"><ele>308.5</ele><time>2026-04-19T17:15:39.805Z</time></trkpt><trkpt lat="42.49553788222706" lon="12.094358910419777"><ele>311.0</ele><time>2026-04-19T17:15:40.805Z</time></trkpt><trkpt lat="42.49565021988467" lon="12.094055874651103"><ele>311.0</ele><time>2026-04-19T17:15:41.805Z</time></trkpt><trkpt lat="42.49576069923149" lon="12.093751953157991"><ele>311.0</ele><time>2026-04-19T17:15:42.805Z</time></trkpt><trkpt lat="42.495869791261974" lon="12.093447453236553"><ele>311.0</ele><time>2026-04-19T17:15:43.805Z</time></trkpt><trkpt lat="42.495977960037806" lon="12.093143908244992"><ele>311.0</ele><time>2026-04-19T17:15:44.805Z</time></trkpt><trkpt lat="42.496085097316694" lon="12.092845185530852"><ele>311.0</ele><time>2026-04-19T17:15:45.805Z</time></trkpt><trkpt lat="42.49619148206548" lon="12.092545323903892"><ele>311.0</ele><time>2026-04-19T17:15:46.805Z</time></trkpt><trkpt lat="42.49629745269607" lon="12.092238801641189"><ele>312.5</ele><time>2026-04-19T17:15:47.805Z</time></trkpt><trkpt lat="42.496410972066705" lon="12.091930672521311"><ele>314.0</ele><time>2026-04-19T17:15:48.805Z</time></trkpt><trkpt lat="42.49652647462501" lon="12.09162189060409"><ele>314.0</ele><time>2026-04-19T17:15:49.805Z</time></trkpt><trkpt lat="42.49663691896091" lon="12.091306911682558"><ele>314.0</ele><time>2026-04-19T17:15:50.806Z</time></trkpt><trkpt lat="42.496747205137424" lon="12.090998048919255"><ele>314.0</ele><time>2026-04-19T17:15:51.807Z</time></trkpt><trkpt lat="42.496860929591925" lon="12.090689421081393"><ele>314.0</ele><time>2026-04-19T17:15:52.807Z</time></trkpt><trkpt lat="42.49697066096237" lon="12.090385192703192"><ele>314.0</ele><time>2026-04-19T17:15:53.807Z</time></trkpt><trkpt lat="42.49707560616382" lon="12.090087653643666"><ele>314.0</ele><time>2026-04-19T17:15:54.807Z</time></trkpt><trkpt lat="42.49718069013725" lon="12.089802452964165"><ele>315.6666666666667</ele><time>2026-04-19T17:15:55.807Z</time></trkpt><trkpt lat="42.497297903568075" lon="12.089548419621579"><ele>317.3333333333333</ele><time>2026-04-19T17:15:56.807Z</time></trkpt><trkpt lat="42.49743882454764" lon="12.089329604144384"><ele>319.0</ele><time>2026-04-19T17:15:57.807Z</time></trkpt><trkpt lat="42.49759876018532" lon="12.089119729553657"><ele>320.0</ele><time>2026-04-19T17:15:58.807Z</time></trkpt><trkpt lat="42.49775983734143" lon="12.088907654980515"><ele>321.0</ele><time>2026-04-19T17:15:59.806Z</time></trkpt><trkpt lat="42.497917081579466" lon="12.088697050475545"><ele>322.0</ele><time>2026-04-19T17:16:00.806Z</time></trkpt><trkpt lat="42.498070666737306" lon="12.088491059614666"><ele>322.0</ele><time>2026-04-19T17:16:01.806Z</time></trkpt><trkpt lat="42.49821824850092" lon="12.08829593949694"><ele>322.0</ele><time>2026-04-19T17:16:02.806Z</time></trkpt><trkpt lat="42.498365312448094" lon="12.088092633734998"><ele>322.0</ele><time>2026-04-19T17:16:03.807Z</time></trkpt><trkpt lat="42.498508319420814" lon="12.087894628047287"><ele>321.66666666666663</ele><time>2026-04-19T17:16:04.807Z</time></trkpt><trkpt lat="42.498650334556665" lon="12.0876976126729"><ele>321.3333333333333</ele><time>2026-04-19T17:16:05.807Z</time></trkpt><trkpt lat="42.49878728328882" lon="12.087507746714842"><ele>321.0</ele><time>2026-04-19T17:16:06.806Z</time></trkpt><trkpt lat="42.49891590979887" lon="12.087332423103009"><ele>321.6666666666667</ele><time>2026-04-19T17:16:07.806Z</time></trkpt><trkpt lat="42.49904349924141" lon="12.087159040827508"><ele>322.33333333333337</ele><time>2026-04-19T17:16:08.806Z</time></trkpt><trkpt lat="42.4991689450053" lon="12.086985268175658"><ele>323.0</ele><time>2026-04-19T17:16:09.806Z</time></trkpt><trkpt lat="42.49929445823732" lon="12.086814871088855"><ele>323.0</ele><time>2026-04-19T17:16:10.806Z</time></trkpt><trkpt lat="42.49941997677338" lon="12.086645814484333"><ele>323.0</ele><time>2026-04-19T17:16:11.806Z</time></trkpt><trkpt lat="42.49954981569074" lon="12.086477339084988"><ele>323.0</ele><time>2026-04-19T17:16:12.806Z</time></trkpt><trkpt lat="42.49967895821435" lon="12.086302827639015"><ele>323.0</ele><time>2026-04-19T17:16:13.806Z</time></trkpt><trkpt lat="42.499808977153364" lon="12.08612447007477"><ele>323.0</ele><time>2026-04-19T17:16:14.806Z</time></trkpt><trkpt lat="42.4999400015301" lon="12.085943803900385"><ele>323.0</ele><time>2026-04-19T17:16:15.806Z</time></trkpt><trkpt lat="42.50007462947514" lon="12.085761845731856"><ele>323.33333333333337</ele><time>2026-04-19T17:16:16.806Z</time></trkpt><trkpt lat="42.500212949691765" lon="12.085575037875323"><ele>323.6666666666667</ele><time>2026-04-19T17:16:17.806Z</time></trkpt><trkpt lat="42.50035673660964" lon="12.085385322152266"><ele>324.0</ele><time>2026-04-19T17:16:18.806Z</time></trkpt><trkpt lat="42.500500210279526" lon="12.085191631170106"><ele>323.6666666666667</ele><time>2026-04-19T17:16:19.806Z</time></trkpt><trkpt lat="42.500647288264396" lon="12.084996490924782"><ele>323.33333333333337</ele><time>2026-04-19T17:16:20.806Z</time></trkpt><trkpt lat="42.500795239152644" lon="12.08479777551946"><ele>323.0</ele><time>2026-04-19T17:16:21.806Z</time></trkpt><trkpt lat="42.50094457279248" lon="12.084596679521777"><ele>323.0</ele><time>2026-04-19T17:16:22.806Z</time></trkpt><trkpt lat="42.50109329558494" lon="12.084394159803308"><ele>323.0</ele><time>2026-04-19T17:16:23.806Z</time></trkpt><trkpt lat="42.50124335661188" lon="12.084191958763103"><ele>323.0</ele><time>2026-04-19T17:16:24.806Z</time></trkpt><trkpt lat="42.50139948502227" lon="12.083979897952567"><ele>323.5</ele><time>2026-04-19T17:16:25.806Z</time></trkpt><trkpt lat="42.5015570123745" lon="12.08376159148753"><ele>324.0</ele><time>2026-04-19T17:16:26.806Z</time></trkpt><trkpt lat="42.50171909627606" lon="12.083545420648909"><ele>324.0</ele><time>2026-04-19T17:16:27.806Z</time></trkpt><trkpt lat="42.50188254658939" lon="12.083324550984436"><ele>324.0</ele><time>2026-04-19T17:16:28.806Z</time></trkpt><trkpt lat="42.50204624364598" lon="12.083102202694402"><ele>322.5</ele><time>2026-04-19T17:16:29.805Z</time></trkpt><trkpt lat="42.50221327985416" lon="12.082877444335127"><ele>321.0</ele><time>2026-04-19T17:16:30.805Z</time></trkpt><trkpt lat="42.50238100483506" lon="12.082648733488718"><ele>318.0</ele><time>2026-04-19T17:16:31.805Z</time></trkpt><trkpt lat="42.50255178478024" lon="12.082413636689138"><ele>315.0</ele><time>2026-04-19T17:16:32.805Z</time></trkpt><trkpt lat="42.50272356481253" lon="12.082168802020378"><ele>315.0</ele><time>2026-04-19T17:16:33.805Z</time></trkpt><trkpt lat="42.502899505697755" lon="12.081926475902716"><ele>315.0</ele><time>2026-04-19T17:16:34.805Z</time></trkpt><trkpt lat="42.50308094879648" lon="12.081681549032034"><ele>317.5</ele><time>2026-04-19T17:16:35.805Z</time></trkpt><trkpt lat="42.503260484287445" lon="12.081443830820284"><ele>320.0</ele><time>2026-04-19T17:16:36.805Z</time></trkpt><trkpt lat="42.50343772022269" lon="12.081208998519362"><ele>320.0</ele><time>2026-04-19T17:16:37.805Z</time></trkpt><trkpt lat="42.50360855978137" lon="12.080973797965306"><ele>320.0</ele><time>2026-04-19T17:16:38.805Z</time></trkpt><trkpt lat="42.50377938616985" lon="12.080739458084585"><ele>322.5</ele><time>2026-04-19T17:16:39.805Z</time></trkpt><trkpt lat="42.50394583282531" lon="12.08050929133235"><ele>325.0</ele><time>2026-04-19T17:16:40.805Z</time></trkpt><trkpt lat="42.5041080424174" lon="12.080287835977622"><ele>325.0</ele><time>2026-04-19T17:16:41.805Z</time></trkpt><trkpt lat="42.50426825147234" lon="12.080066355407535"><ele>325.0</ele><time>2026-04-19T17:16:42.805Z</time></trkpt><trkpt lat="42.50442316931731" lon="12.07984833057182"><ele>326.5</ele><time>2026-04-19T17:16:43.805Z</time></trkpt><trkpt lat="42.50458171511752" lon="12.079620379656946"><ele>328.0</ele><time>2026-04-19T17:16:44.805Z</time></trkpt><trkpt lat="42.504750154994035" lon="12.07938838550062"><ele>328.0</ele><time>2026-04-19T17:16:45.805Z</time></trkpt><trkpt lat="42.50492963522876" lon="12.079138266314406"><ele>328.0</ele><time>2026-04-19T17:16:46.805Z</time></trkpt><trkpt lat="42.50512118331316" lon="12.078882810301181"><ele>329.5</ele><time>2026-04-19T17:16:47.805Z</time></trkpt><trkpt lat="42.50531680882011" lon="12.078644155601289"><ele>331.0</ele><time>2026-04-19T17:16:48.805Z</time></trkpt><trkpt lat="42.50550315266953" lon="12.078383362518807"><ele>332.5</ele><time>2026-04-19T17:16:49.805Z</time></trkpt><trkpt lat="42.505689290959694" lon="12.078109734850239"><ele>334.0</ele><time>2026-04-19T17:16:50.805Z</time></trkpt><trkpt lat="42.505880810992444" lon="12.077843406723625"><ele>334.0</ele><time>2026-04-19T17:16:51.805Z</time></trkpt><trkpt lat="42.50608951856268" lon="12.077573736677975"><ele>334.0</ele><time>2026-04-19T17:16:52.804Z</time></trkpt><trkpt lat="42.50630451719178" lon="12.077296757380864"><ele>334.5</ele><time>2026-04-19T17:16:53.804Z</time></trkpt><trkpt lat="42.50651116633371" lon="12.077022781010813"><ele>335.0</ele><time>2026-04-19T17:16:54.804Z</time></trkpt><trkpt lat="42.50669967218977" lon="12.076756440193462"><ele>335.5</ele><time>2026-04-19T17:16:55.804Z</time></trkpt><trkpt lat="42.506888664159675" lon="12.07649861316951"><ele>336.0</ele><time>2026-04-19T17:16:56.804Z</time></trkpt><trkpt lat="42.5070661917671" lon="12.076250874570908"><ele>335.5</ele><time>2026-04-19T17:16:57.804Z</time></trkpt><trkpt lat="42.50724314189922" lon="12.076013639310446"><ele>335.0</ele><time>2026-04-19T17:16:58.804Z</time></trkpt><trkpt lat="42.507410389879155" lon="12.075777662508727"><ele>336.5</ele><time>2026-04-19T17:16:59.804Z</time></trkpt><trkpt lat="42.507570655498476" lon="12.07555075552355"><ele>338.0</ele><time>2026-04-19T17:17:00.804Z</time></trkpt><trkpt lat="42.50774013122184" lon="12.075323723831465"><ele>338.0</ele><time>2026-04-19T17:17:01.804Z</time></trkpt><trkpt lat="42.50791888391727" lon="12.07509238150116"><ele>338.0</ele><time>2026-04-19T17:17:02.804Z</time></trkpt><trkpt lat="42.50809668017945" lon="12.074864030653975"><ele>339.5</ele><time>2026-04-19T17:17:03.804Z</time></trkpt><trkpt lat="42.508273886036875" lon="12.07462886286101"><ele>341.0</ele><time>2026-04-19T17:17:04.804Z</time></trkpt><trkpt lat="42.508446299488355" lon="12.074387192093742"><ele>341.0</ele><time>2026-04-19T17:17:05.804Z</time></trkpt><trkpt lat="42.50862565338829" lon="12.074145243461682"><ele>341.0</ele><time>2026-04-19T17:17:06.804Z</time></trkpt><trkpt lat="42.508810290071374" lon="12.073902549516173"><ele>342.0</ele><time>2026-04-19T17:17:07.804Z</time></trkpt><trkpt lat="42.50898456558862" lon="12.073663596382088"><ele>343.0</ele><time>2026-04-19T17:17:08.804Z</time></trkpt><trkpt lat="42.50916052524965" lon="12.073428124355623"><ele>342.5</ele><time>2026-04-19T17:17:09.804Z</time></trkpt><trkpt lat="42.50933827485655" lon="12.07318833438868"><ele>342.0</ele><time>2026-04-19T17:17:10.804Z</time></trkpt><trkpt lat="42.50951633171386" lon="12.072948504289824"><ele>342.5</ele><time>2026-04-19T17:17:11.804Z</time></trkpt><trkpt lat="42.50969465070278" lon="12.072706078550816"><ele>343.0</ele><time>2026-04-19T17:17:12.804Z</time></trkpt><trkpt lat="42.5098742542549" lon="12.072469490878012"><ele>344.0</ele><time>2026-04-19T17:17:13.804Z</time></trkpt><trkpt lat="42.51005218777792" lon="12.072231812497598"><ele>345.0</ele><time>2026-04-19T17:17:14.804Z</time></trkpt><trkpt lat="42.51022761204635" lon="12.071995784246127"><ele>345.0</ele><time>2026-04-19T17:17:15.803Z</time></trkpt><trkpt lat="42.510402935314055" lon="12.071755415968878"><ele>345.0</ele><time>2026-04-19T17:17:16.803Z</time></trkpt><trkpt lat="42.510578748427584" lon="12.071513854242868"><ele>346.0</ele><time>2026-04-19T17:17:17.803Z</time></trkpt><trkpt lat="42.51075452730309" lon="12.071276711292716"><ele>347.0</ele><time>2026-04-19T17:17:18.803Z</time></trkpt><trkpt lat="42.51093165250811" lon="12.071040055685327"><ele>347.0</ele><time>2026-04-19T17:17:19.803Z</time></trkpt><trkpt lat="42.51111100379975" lon="12.070807335400062"><ele>347.0</ele><time>2026-04-19T17:17:20.803Z</time></trkpt><trkpt lat="42.51128734275622" lon="12.070570960716468"><ele>347.5</ele><time>2026-04-19T17:17:21.803Z</time></trkpt><trkpt lat="42.51146229837372" lon="12.070334972898506"><ele>348.0</ele><time>2026-04-19T17:17:22.803Z</time></trkpt><trkpt lat="42.51163684925644" lon="12.070095816625358"><ele>347.5</ele><time>2026-04-19T17:17:23.803Z</time></trkpt><trkpt lat="42.51181187686881" lon="12.069853679174484"><ele>347.0</ele><time>2026-04-19T17:17:24.803Z</time></trkpt><trkpt lat="42.51198843897091" lon="12.0696144270373"><ele>348.0</ele><time>2026-04-19T17:17:25.803Z</time></trkpt><trkpt lat="42.51216385261782" lon="12.069372332314757"><ele>349.0</ele><time>2026-04-19T17:17:26.803Z</time></trkpt><trkpt lat="42.5123402341966" lon="12.069135242825228"><ele>350.5</ele><time>2026-04-19T17:17:27.803Z</time></trkpt><trkpt lat="42.512518334099404" lon="12.068894140057239"><ele>352.0</ele><time>2026-04-19T17:17:28.803Z</time></trkpt><trkpt lat="42.51269563185307" lon="12.06865426561428"><ele>352.0</ele><time>2026-04-19T17:17:29.803Z</time></trkpt><trkpt lat="42.51287283194692" lon="12.068416070489338"><ele>352.0</ele><time>2026-04-19T17:17:30.803Z</time></trkpt><trkpt lat="42.51304863647041" lon="12.068176271932826"><ele>352.5</ele><time>2026-04-19T17:17:31.803Z</time></trkpt><trkpt lat="42.513223488557124" lon="12.067937026442364"><ele>353.0</ele><time>2026-04-19T17:17:32.803Z</time></trkpt><trkpt lat="42.51339849130908" lon="12.067696904139229"><ele>353.0</ele><time>2026-04-19T17:17:33.803Z</time></trkpt><trkpt lat="42.51357291083113" lon="12.067457343975041"><ele>353.0</ele><time>2026-04-19T17:17:34.803Z</time></trkpt><trkpt lat="42.5137463481191" lon="12.067218962268177"><ele>353.5</ele><time>2026-04-19T17:17:35.803Z</time></trkpt><trkpt lat="42.51391828604557" lon="12.066978815553023"><ele>354.0</ele><time>2026-04-19T17:17:36.803Z</time></trkpt><trkpt lat="42.51409010596546" lon="12.066738953044052"><ele>354.5</ele><time>2026-04-19T17:17:37.803Z</time></trkpt><trkpt lat="42.514266230644374" lon="12.066501510360043"><ele>355.0</ele><time>2026-04-19T17:17:38.802Z</time></trkpt><trkpt lat="42.51444370269832" lon="12.06626449950865"><ele>356.5</ele><time>2026-04-19T17:17:39.802Z</time></trkpt><trkpt lat="42.51461958323946" lon="12.066025318794326"><ele>358.0</ele><time>2026-04-19T17:17:40.802Z</time></trkpt><trkpt lat="42.5147968984031" lon="12.06578860278347"><ele>359.5</ele><time>2026-04-19T17:17:41.802Z</time></trkpt><trkpt lat="42.514974832094566" lon="12.065549985649756"><ele>361.0</ele><time>2026-04-19T17:17:42.802Z</time></trkpt><trkpt lat="42.51515015866367" lon="12.065313660117415"><ele>361.0</ele><time>2026-04-19T17:17:43.802Z</time></trkpt><trkpt lat="42.51532613428843" lon="12.065076282612484"><ele>361.0</ele><time>2026-04-19T17:17:44.802Z</time></trkpt><trkpt lat="42.515502575602326" lon="12.064840923072985"><ele>362.5</ele><time>2026-04-19T17:17:45.802Z</time></trkpt><trkpt lat="42.51567787146276" lon="12.064598741347943"><ele>364.0</ele><time>2026-04-19T17:17:46.802Z</time></trkpt><trkpt lat="42.51585397932816" lon="12.064361147263194"><ele>364.0</ele><time>2026-04-19T17:17:47.802Z</time></trkpt><trkpt lat="42.516029432284775" lon="12.064124241754987"><ele>364.0</ele><time>2026-04-19T17:17:48.802Z</time></trkpt><trkpt lat="42.516203696221076" lon="12.063886707019796"><ele>367.0</ele><time>2026-04-19T17:17:49.802Z</time></trkpt><trkpt lat="42.516375701472185" lon="12.063650263196207"><ele>370.0</ele><time>2026-04-19T17:17:50.802Z</time></trkpt><trkpt lat="42.51655031581435" lon="12.063411525113402"><ele>370.5</ele><time>2026-04-19T17:17:51.802Z</time></trkpt><trkpt lat="42.516721744123515" lon="12.063170988513287"><ele>371.0</ele><time>2026-04-19T17:17:52.802Z</time></trkpt><trkpt lat="42.51689229193928" lon="12.06292822611323"><ele>371.0</ele><time>2026-04-19T17:17:53.802Z</time></trkpt><trkpt lat="42.51705618385263" lon="12.062679565942075"><ele>371.0</ele><time>2026-04-19T17:17:54.802Z</time></trkpt><trkpt lat="42.5172141447312" lon="12.062421461938538"><ele>374.0</ele><time>2026-04-19T17:17:55.802Z</time></trkpt><trkpt lat="42.51736400612788" lon="12.062158412908541"><ele>377.0</ele><time>2026-04-19T17:17:56.803Z</time></trkpt><trkpt lat="42.51750639524022" lon="12.061881282915875"><ele>379.0</ele><time>2026-04-19T17:17:57.804Z</time></trkpt><trkpt lat="42.51763995624399" lon="12.06159666120492"><ele>381.0</ele><time>2026-04-19T17:17:58.804Z</time></trkpt><trkpt lat="42.51776397568043" lon="12.061302572083358"><ele>381.0</ele><time>2026-04-19T17:17:59.803Z</time></trkpt><trkpt lat="42.51788141668831" lon="12.061004091406836"><ele>381.0</ele><time>2026-04-19T17:18:00.803Z</time></trkpt><trkpt lat="42.51799658567886" lon="12.060702643295715"><ele>382.5</ele><time>2026-04-19T17:18:01.803Z</time></trkpt><trkpt lat="42.51810832332742" lon="12.060405180307754"><ele>384.0</ele><time>2026-04-19T17:18:02.804Z</time></trkpt><trkpt lat="42.518220155903315" lon="12.060106966715248"><ele>384.0</ele><time>2026-04-19T17:18:03.804Z</time></trkpt><trkpt lat="42.51833023100152" lon="12.059804445537395"><ele>384.0</ele><time>2026-04-19T17:18:04.804Z</time></trkpt><trkpt lat="42.51844209934118" lon="12.059502933250677"><ele>384.0</ele><time>2026-04-19T17:18:05.804Z</time></trkpt><trkpt lat="42.5185538931848" lon="12.059198874918916"><ele>384.0</ele><time>2026-04-19T17:18:06.803Z</time></trkpt><trkpt lat="42.51866344948069" lon="12.058898215436095"><ele>387.0</ele><time>2026-04-19T17:18:07.803Z</time></trkpt><trkpt lat="42.518774270426" lon="12.05859491319135"><ele>390.0</ele><time>2026-04-19T17:18:08.804Z</time></trkpt><trkpt lat="42.51888697204747" lon="12.058291457763989"><ele>389.5</ele><time>2026-04-19T17:18:09.804Z</time></trkpt><trkpt lat="42.51900053858321" lon="12.057988082953798"><ele>389.0</ele><time>2026-04-19T17:18:10.804Z</time></trkpt><trkpt lat="42.519112174126185" lon="12.057683478440296"><ele>387.0</ele><time>2026-04-19T17:18:11.804Z</time></trkpt><trkpt lat="42.519221603385226" lon="12.057378935859651"><ele>385.0</ele><time>2026-04-19T17:18:12.804Z</time></trkpt><trkpt lat="42.519334994826686" lon="12.057073197008084"><ele>385.0</ele><time>2026-04-19T17:18:13.804Z</time></trkpt><trkpt lat="42.51944914481764" lon="12.05676856078712"><ele>385.0</ele><time>2026-04-19T17:18:14.804Z</time></trkpt><trkpt lat="42.51956167169459" lon="12.056466196942326"><ele>386.5</ele><time>2026-04-19T17:18:15.804Z</time></trkpt><trkpt lat="42.51966620695769" lon="12.05615869343989"><ele>388.0</ele><time>2026-04-19T17:18:16.803Z</time></trkpt><trkpt lat="42.51974291049453" lon="12.055840404636337"><ele>390.0</ele><time>2026-04-19T17:18:17.803Z</time></trkpt><trkpt lat="42.519793222990394" lon="12.055518490867629"><ele>392.0</ele><time>2026-04-19T17:18:18.803Z</time></trkpt><trkpt lat="42.51982372528007" lon="12.055184405627166"><ele>393.0</ele><time>2026-04-19T17:18:19.803Z</time></trkpt><trkpt lat="42.51983492455907" lon="12.054841036372961"><ele>394.0</ele><time>2026-04-19T17:18:20.803Z</time></trkpt><trkpt lat="42.51982433729875" lon="12.054515724140712"><ele>394.0</ele><time>2026-04-19T17:18:21.803Z</time></trkpt><trkpt lat="42.519816322509875" lon="12.054182464357588"><ele>394.0</ele><time>2026-04-19T17:18:22.803Z</time></trkpt><trkpt lat="42.51980922702865" lon="12.053858398409067"><ele>395.5</ele><time>2026-04-19T17:18:23.803Z</time></trkpt><trkpt lat="42.519804564425584" lon="12.053528322007635"><ele>397.0</ele><time>2026-04-19T17:18:24.803Z</time></trkpt><trkpt lat="42.51979456027861" lon="12.05319838443068"><ele>399.0</ele><time>2026-04-19T17:18:25.803Z</time></trkpt><trkpt lat="42.51978789845726" lon="12.052859703720722"><ele>401.0</ele><time>2026-04-19T17:18:26.803Z</time></trkpt><trkpt lat="42.51978061498992" lon="12.052522134270465"><ele>402.5</ele><time>2026-04-19T17:18:27.803Z</time></trkpt><trkpt lat="42.519776041146045" lon="12.05218031907933"><ele>404.0</ele><time>2026-04-19T17:18:28.803Z</time></trkpt><trkpt lat="42.519771563556326" lon="12.051841435251086"><ele>403.5</ele><time>2026-04-19T17:18:29.803Z</time></trkpt><trkpt lat="42.51976709943308" lon="12.051502308582426"><ele>403.0</ele><time>2026-04-19T17:18:30.803Z</time></trkpt><trkpt lat="42.51975961934295" lon="12.051162232440644"><ele>403.0</ele><time>2026-04-19T17:18:31.803Z</time></trkpt><trkpt lat="42.51975467905263" lon="12.050835208766287"><ele>403.0</ele><time>2026-04-19T17:18:32.803Z</time></trkpt><trkpt lat="42.51975150696131" lon="12.050526749606394"><ele>403.0</ele><time>2026-04-19T17:18:33.803Z</time></trkpt><trkpt lat="42.51974362675341" lon="12.050243622441512"><ele>403.0</ele><time>2026-04-19T17:18:34.803Z</time></trkpt><trkpt lat="42.51974808895547" lon="12.049971657296908"><ele>403.0</ele><time>2026-04-19T17:18:35.803Z</time></trkpt><trkpt lat="42.519746614870336" lon="12.04971542472515"><ele>403.25</ele><time>2026-04-19T17:18:36.803Z</time></trkpt><trkpt lat="42.51974016093778" lon="12.049487284011963"><ele>403.5</ele><time>2026-04-19T17:18:37.803Z</time></trkpt><trkpt lat="42.51972297669776" lon="12.049289608860576"><ele>403.75</ele><time>2026-04-19T17:18:38.803Z</time></trkpt><trkpt lat="42.51969285620285" lon="12.049123575394296"><ele>404.0</ele><time>2026-04-19T17:18:39.802Z</time></trkpt><trkpt lat="42.519640994403844" lon="12.049015712840479"><ele>404.3333333333333</ele><time>2026-04-19T17:18:40.802Z</time></trkpt><trkpt lat="42.51958984959163" lon="12.04894017196749"><ele>404.66666666666663</ele><time>2026-04-19T17:18:41.802Z</time></trkpt><trkpt lat="42.51952604553213" lon="12.048876187088899"><ele>405.0</ele><time>2026-04-19T17:18:43.802Z</time></trkpt><trkpt lat="42.519420784986956" lon="12.048879445967057"><ele>405.33333333333337</ele><time>2026-04-19T17:19:56.799Z</time></trkpt><trkpt lat="42.519360055482714" lon="12.048902030189721"><ele>405.6666666666667</ele><time>2026-04-19T17:19:57.799Z</time></trkpt><trkpt lat="42.519279731948195" lon="12.048917425332366"><ele>406.0</ele><time>2026-04-19T17:19:58.799Z</time></trkpt><trkpt lat="42.519181936724095" lon="12.04893574818149"><ele>407.20000000000005</ele><time>2026-04-19T17:19:59.799Z</time></trkpt><trkpt lat="42.51906949465923" lon="12.048965064166145"><ele>408.40000000000003</ele><time>2026-04-19T17:20:00.799Z</time></trkpt><trkpt lat="42.518961780942625" lon="12.048995516503945"><ele>409.6</ele><time>2026-04-19T17:20:01.799Z</time></trkpt><trkpt lat="42.518863791975996" lon="12.04901423638589"><ele>410.8</ele><time>2026-04-19T17:20:02.801Z</time></trkpt><trkpt lat="42.518765861582615" lon="12.048962106990098"><ele>412.0</ele><time>2026-04-19T17:20:04.801Z</time></trkpt><trkpt lat="42.51875781095398" lon="12.048804945844827"><ele>412.0</ele><time>2026-04-19T17:20:06.8Z</time></trkpt><trkpt lat="42.51877255566799" lon="12.048695681669969"><ele>412.0</ele><time>2026-04-19T17:20:08.801Z</time></trkpt><trkpt lat="42.51885668844614" lon="12.048633299747152"><ele>412.0</ele><time>2026-04-19T17:20:09.801Z</time></trkpt><trkpt lat="42.51895362946487" lon="12.048563441773338"><ele>412.0</ele><time>2026-04-19T17:20:10.801Z</time></trkpt><trkpt lat="42.51906297999888" lon="12.048474233836545"><ele>412.0</ele><time>2026-04-19T17:20:11.8Z</time></trkpt><trkpt lat="42.51919317000077" lon="12.048378802409726"><ele>412.6666666666667</ele><time>2026-04-19T17:20:12.801Z</time></trkpt><trkpt lat="42.51934503614935" lon="12.048285630186161"><ele>413.33333333333337</ele><time>2026-04-19T17:20:13.801Z</time></trkpt><trkpt lat="42.51950504983866" lon="12.048210556104529"><ele>414.0</ele><time>2026-04-19T17:20:14.8Z</time></trkpt><trkpt lat="42.519668049036575" lon="12.048149562518766"><ele>411.66666666666663</ele><time>2026-04-19T17:20:15.8Z</time></trkpt><trkpt lat="42.51983283691734" lon="12.048091200135325"><ele>409.3333333333333</ele><time>2026-04-19T17:20:16.8Z</time></trkpt><trkpt lat="42.52000330043267" lon="12.048059452236135"><ele>407.0</ele><time>2026-04-19T17:20:17.8Z</time></trkpt><trkpt lat="42.52017318178145" lon="12.048033979942733"><ele>407.0</ele><time>2026-04-19T17:20:18.8Z</time></trkpt><trkpt lat="42.52034784573682" lon="12.048012479850467"><ele>407.0</ele><time>2026-04-19T17:20:19.8Z</time></trkpt><trkpt lat="42.52052693748717" lon="12.048015452905975"><ele>407.0</ele><time>2026-04-19T17:20:20.8Z</time></trkpt><trkpt lat="42.520712928406745" lon="12.04802824670629"><ele>406.66666666666663</ele><time>2026-04-19T17:20:21.8Z</time></trkpt><trkpt lat="42.5208962210596" lon="12.048060948615761"><ele>406.33333333333337</ele><time>2026-04-19T17:20:22.8Z</time></trkpt><trkpt lat="42.521070738350424" lon="12.048108714933795"><ele>406.0</ele><time>2026-04-19T17:20:23.8Z</time></trkpt><trkpt lat="42.521239877235864" lon="12.048168847002723"><ele>406.0</ele><time>2026-04-19T17:20:24.8Z</time></trkpt><trkpt lat="42.521400853140186" lon="12.048243664822197"><ele>406.0</ele><time>2026-04-19T17:20:25.8Z</time></trkpt><trkpt lat="42.521557699649655" lon="12.048332455072174"><ele>406.0</ele><time>2026-04-19T17:20:26.8Z</time></trkpt><trkpt lat="42.52171138503233" lon="12.048428965469261"><ele>407.0</ele><time>2026-04-19T17:20:27.8Z</time></trkpt><trkpt lat="42.521856651925155" lon="12.048533430760639"><ele>408.0</ele><time>2026-04-19T17:20:28.8Z</time></trkpt><trkpt lat="42.521998196801974" lon="12.048647680644109"><ele>409.0</ele><time>2026-04-19T17:20:29.8Z</time></trkpt><trkpt lat="42.52212483540588" lon="12.048774637758564"><ele>410.0</ele><time>2026-04-19T17:20:30.8Z</time></trkpt><trkpt lat="42.52224748529428" lon="12.04891240621794"><ele>411.0</ele><time>2026-04-19T17:20:31.8Z</time></trkpt><trkpt lat="42.52236633398106" lon="12.04905320377786"><ele>412.0</ele><time>2026-04-19T17:20:32.8Z</time></trkpt><trkpt lat="42.52247751870357" lon="12.049200575826482"><ele>413.75</ele><time>2026-04-19T17:20:33.8Z</time></trkpt><trkpt lat="42.522580037312956" lon="12.04934443027502"><ele>415.5</ele><time>2026-04-19T17:20:34.8Z</time></trkpt><trkpt lat="42.52266942984883" lon="12.04947511663059"><ele>417.25</ele><time>2026-04-19T17:20:35.799Z</time></trkpt><trkpt lat="42.522743836901654" lon="12.049592788335945"><ele>419.0</ele><time>2026-04-19T17:20:36.799Z</time></trkpt><trkpt lat="42.522813645229085" lon="12.049708089770311"><ele>419.0</ele><time>2026-04-19T17:20:37.799Z</time></trkpt><trkpt lat="42.522866993213306" lon="12.04984085908459"><ele>419.0</ele><time>2026-04-19T17:20:38.799Z</time></trkpt><trkpt lat="42.52294008772012" lon="12.049937105025274"><ele>419.0</ele><time>2026-04-19T17:20:39.799Z</time></trkpt><trkpt lat="42.52299322867435" lon="12.050039044487843"><ele>419.0</ele><time>2026-04-19T17:20:40.799Z</time></trkpt><trkpt lat="42.523045139060045" lon="12.050136881986369"><ele>419.0</ele><time>2026-04-19T17:20:41.799Z</time></trkpt><trkpt lat="42.52310419038107" lon="12.050234049883024"><ele>419.8333333333333</ele><time>2026-04-19T17:20:42.799Z</time></trkpt><trkpt lat="42.52314468879118" lon="12.050344512879402"><ele>420.66666666666663</ele><time>2026-04-19T17:20:43.799Z</time></trkpt><trkpt lat="42.523205324234965" lon="12.050417832484554"><ele>421.5</ele><time>2026-04-19T17:20:44.799Z</time></trkpt><trkpt lat="42.52323841244967" lon="12.050491857257656"><ele>422.33333333333337</ele><time>2026-04-19T17:20:45.799Z</time></trkpt><trkpt lat="42.52328287621258" lon="12.050579812042907"><ele>423.1666666666667</ele><time>2026-04-19T17:20:47.799Z</time></trkpt><trkpt lat="42.52332983337211" lon="12.050662096457014"><ele>424.0</ele><time>2026-04-19T17:20:49.799Z</time></trkpt><trkpt lat="42.5233652150971" lon="12.050743722546445"><ele>425.0</ele><time>2026-04-19T17:20:50.799Z</time></trkpt><trkpt lat="42.52340794319053" lon="12.050825042824442"><ele>426.0</ele><time>2026-04-19T17:20:51.799Z</time></trkpt><trkpt lat="42.52349681528217" lon="12.050964098874903"><ele>427.0</ele><time>2026-04-19T17:20:53.799Z</time></trkpt><trkpt lat="42.52355399121087" lon="12.051074076705362"><ele>428.0</ele><time>2026-04-19T17:20:54.799Z</time></trkpt><trkpt lat="42.52362547056094" lon="12.051200310254753"><ele>429.0</ele><time>2026-04-19T17:20:55.799Z</time></trkpt><trkpt lat="42.523701260879406" lon="12.051353803249706"><ele>428.66666666666663</ele><time>2026-04-19T17:20:56.799Z</time></trkpt><trkpt lat="42.52378633081833" lon="12.05152547469805"><ele>428.3333333333333</ele><time>2026-04-19T17:20:57.799Z</time></trkpt><trkpt lat="42.523881585473966" lon="12.051702166489292"><ele>428.0</ele><time>2026-04-19T17:20:58.798Z</time></trkpt><trkpt lat="42.523982580370856" lon="12.051880135351777"><ele>430.0</ele><time>2026-04-19T17:20:59.798Z</time></trkpt><trkpt lat="42.52408647010253" lon="12.052071009476636"><ele>432.0</ele><time>2026-04-19T17:21:00.798Z</time></trkpt><trkpt lat="42.52419745412419" lon="12.052270493156785"><ele>434.0</ele><time>2026-04-19T17:21:01.798Z</time></trkpt><trkpt lat="42.52430646879815" lon="12.052465582106988"><ele>434.66666666666663</ele><time>2026-04-19T17:21:02.798Z</time></trkpt><trkpt lat="42.524410790280136" lon="12.052653928970763"><ele>435.33333333333337</ele><time>2026-04-19T17:21:03.798Z</time></trkpt><trkpt lat="42.52451619092951" lon="12.052832984757647"><ele>436.0</ele><time>2026-04-19T17:21:04.798Z</time></trkpt><trkpt lat="42.524624735691916" lon="12.053008559029928"><ele>437.33333333333337</ele><time>2026-04-19T17:21:05.798Z</time></trkpt><trkpt lat="42.52475686087695" lon="12.05314776851442"><ele>438.66666666666663</ele><time>2026-04-19T17:21:06.798Z</time></trkpt><trkpt lat="42.524905630593416" lon="12.053260386406185"><ele>440.0</ele><time>2026-04-19T17:21:07.798Z</time></trkpt><trkpt lat="42.52506529086314" lon="12.05334336811126"><ele>440.0</ele><time>2026-04-19T17:21:08.798Z</time></trkpt><trkpt lat="42.5252415331874" lon="12.053407110794895"><ele>440.0</ele><time>2026-04-19T17:21:09.798Z</time></trkpt><trkpt lat="42.52542259241915" lon="12.053451715583158"><ele>440.0</ele><time>2026-04-19T17:21:10.798Z</time></trkpt><trkpt lat="42.52561322144989" lon="12.053482173823564"><ele>441.66666666666663</ele><time>2026-04-19T17:21:11.798Z</time></trkpt><trkpt lat="42.52581241683833" lon="12.053505698863951"><ele>443.33333333333337</ele><time>2026-04-19T17:21:12.798Z</time></trkpt><trkpt lat="42.52601690768651" lon="12.053517487201429"><ele>445.0</ele><time>2026-04-19T17:21:13.798Z</time></trkpt><trkpt lat="42.5262217890708" lon="12.05350652615735"><ele>446.0</ele><time>2026-04-19T17:21:14.798Z</time></trkpt><trkpt lat="42.52641835285301" lon="12.053493567145779"><ele>447.0</ele><time>2026-04-19T17:21:15.798Z</time></trkpt><trkpt lat="42.52659505886652" lon="12.05352000685424"><ele>448.0</ele><time>2026-04-19T17:21:16.798Z</time></trkpt><trkpt lat="42.52676792219207" lon="12.05352624375458"><ele>448.0</ele><time>2026-04-19T17:21:17.798Z</time></trkpt><trkpt lat="42.526923386900485" lon="12.053518403199373"><ele>448.0</ele><time>2026-04-19T17:21:18.798Z</time></trkpt><trkpt lat="42.527084408314124" lon="12.053543632655307"><ele>448.0</ele><time>2026-04-19T17:21:19.798Z</time></trkpt><trkpt lat="42.52721274278735" lon="12.053548540961879"><ele>448.0</ele><time>2026-04-19T17:21:20.798Z</time></trkpt><trkpt lat="42.52734121745011" lon="12.053580409338139"><ele>449.25</ele><time>2026-04-19T17:21:21.797Z</time></trkpt><trkpt lat="42.52746482000431" lon="12.053596881288765"><ele>450.5</ele><time>2026-04-19T17:21:22.797Z</time></trkpt><trkpt lat="42.52758555387078" lon="12.05361824976384"><ele>451.75</ele><time>2026-04-19T17:21:23.797Z</time></trkpt><trkpt lat="42.5276976552656" lon="12.053654213057538"><ele>453.0</ele><time>2026-04-19T17:21:24.797Z</time></trkpt><trkpt lat="42.52781230964298" lon="12.05369894726326"><ele>453.75</ele><time>2026-04-19T17:21:25.797Z</time></trkpt><trkpt lat="42.52792792465633" lon="12.053739918815305"><ele>454.5</ele><time>2026-04-19T17:21:26.797Z</time></trkpt><trkpt lat="42.528046643218765" lon="12.053775021814296"><ele>455.25</ele><time>2026-04-19T17:21:27.797Z</time></trkpt><trkpt lat="42.52816218212533" lon="12.053817570016097"><ele>456.0</ele><time>2026-04-19T17:21:28.797Z</time></trkpt><trkpt lat="42.52827802885118" lon="12.053861529335682"><ele>456.0</ele><time>2026-04-19T17:21:29.797Z</time></trkpt><trkpt lat="42.52839970229056" lon="12.053882597724755"><ele>456.0</ele><time>2026-04-19T17:21:30.797Z</time></trkpt><trkpt lat="42.528530463761754" lon="12.053895306769416"><ele>456.0</ele><time>2026-04-19T17:21:31.797Z</time></trkpt><trkpt lat="42.528670298487434" lon="12.0538831942485"><ele>456.0</ele><time>2026-04-19T17:21:32.797Z</time></trkpt><trkpt lat="42.52881262712233" lon="12.053857248503915"><ele>458.0</ele><time>2026-04-19T17:21:33.797Z</time></trkpt><trkpt lat="42.52896038236282" lon="12.053820822520077"><ele>460.0</ele><time>2026-04-19T17:21:34.797Z</time></trkpt><trkpt lat="42.52910830182107" lon="12.053768767610613"><ele>462.0</ele><time>2026-04-19T17:21:35.797Z</time></trkpt><trkpt lat="42.52927680505534" lon="12.053743253962075"><ele>462.0</ele><time>2026-04-19T17:21:36.797Z</time></trkpt><trkpt lat="42.5294654572955" lon="12.053697025067628"><ele>462.0</ele><time>2026-04-19T17:21:37.797Z</time></trkpt><trkpt lat="42.529674013513464" lon="12.053645918779457"><ele>462.0</ele><time>2026-04-19T17:21:38.797Z</time></trkpt><trkpt lat="42.52985972546567" lon="12.053600410451867"><ele>463.33333333333337</ele><time>2026-04-19T17:21:39.797Z</time></trkpt><trkpt lat="42.530033336172046" lon="12.053540472445702"><ele>464.6666666666667</ele><time>2026-04-19T17:21:40.797Z</time></trkpt><trkpt lat="42.53018073681554" lon="12.05350570331438"><ele>466.0</ele><time>2026-04-19T17:21:41.797Z</time></trkpt><trkpt lat="42.530310433257846" lon="12.053495667553944"><ele>466.8</ele><time>2026-04-19T17:21:42.797Z</time></trkpt><trkpt lat="42.53043080439331" lon="12.053475608546695"><ele>467.6</ele><time>2026-04-19T17:21:43.797Z</time></trkpt><trkpt lat="42.5305310298398" lon="12.053423085927552"><ele>468.4</ele><time>2026-04-19T17:21:44.796Z</time></trkpt><trkpt lat="42.53061812919171" lon="12.053349168723827"><ele>469.2</ele><time>2026-04-19T17:21:45.796Z</time></trkpt><trkpt lat="42.53069450141255" lon="12.053250088075163"><ele>470.0</ele><time>2026-04-19T17:21:46.796Z</time></trkpt><trkpt lat="42.530751497348014" lon="12.053135851799547"><ele>470.0</ele><time>2026-04-19T17:21:47.796Z</time></trkpt><trkpt lat="42.53079107429223" lon="12.052993686321052"><ele>470.0</ele><time>2026-04-19T17:21:48.796Z</time></trkpt><trkpt lat="42.530841487040554" lon="12.052822399108535"><ele>470.0</ele><time>2026-04-19T17:21:49.796Z</time></trkpt><trkpt lat="42.530883896667575" lon="12.052605158835936"><ele>470.0</ele><time>2026-04-19T17:21:50.796Z</time></trkpt><trkpt lat="42.530927514724276" lon="12.052370499288969"><ele>470.66666666666663</ele><time>2026-04-19T17:21:51.796Z</time></trkpt><trkpt lat="42.53097499968073" lon="12.052118251969002"><ele>471.33333333333337</ele><time>2026-04-19T17:21:52.796Z</time></trkpt><trkpt lat="42.53102859482365" lon="12.051831407073374"><ele>472.0</ele><time>2026-04-19T17:21:53.796Z</time></trkpt><trkpt lat="42.53108511224523" lon="12.05153691560356"><ele>474.0</ele><time>2026-04-19T17:21:54.796Z</time></trkpt><trkpt lat="42.53111608172633" lon="12.051277626615176"><ele>476.0</ele><time>2026-04-19T17:21:55.796Z</time></trkpt><trkpt lat="42.53116677029732" lon="12.051042853489342"><ele>478.0</ele><time>2026-04-19T17:21:56.796Z</time></trkpt><trkpt lat="42.53120786027492" lon="12.050819305991785"><ele>478.33333333333337</ele><time>2026-04-19T17:21:57.796Z</time></trkpt><trkpt lat="42.53126151072875" lon="12.050600728549924"><ele>478.66666666666663</ele><time>2026-04-19T17:21:58.796Z</time></trkpt><trkpt lat="42.53130983445944" lon="12.050359259121917"><ele>479.0</ele><time>2026-04-19T17:21:59.796Z</time></trkpt><trkpt lat="42.53134579988472" lon="12.05010482295007"><ele>480.66666666666663</ele><time>2026-04-19T17:22:00.796Z</time></trkpt><trkpt lat="42.53140134087637" lon="12.049863812538101"><ele>482.33333333333337</ele><time>2026-04-19T17:22:01.796Z</time></trkpt><trkpt lat="42.531451651162506" lon="12.04964821527597"><ele>484.0</ele><time>2026-04-19T17:22:02.796Z</time></trkpt><trkpt lat="42.53149376980128" lon="12.049455447199831"><ele>484.0</ele><time>2026-04-19T17:22:03.796Z</time></trkpt><trkpt lat="42.53152493957468" lon="12.049276473625136"><ele>484.0</ele><time>2026-04-19T17:22:04.796Z</time></trkpt><trkpt lat="42.53156120334253" lon="12.04910896252456"><ele>484.0</ele><time>2026-04-19T17:22:05.796Z</time></trkpt><trkpt lat="42.531597022277936" lon="12.048945248512418"><ele>484.0</ele><time>2026-04-19T17:22:06.796Z</time></trkpt><trkpt lat="42.53162673933295" lon="12.048776982321463"><ele>485.0</ele><time>2026-04-19T17:22:07.795Z</time></trkpt><trkpt lat="42.53166130877079" lon="12.048601514047476"><ele>486.0</ele><time>2026-04-19T17:22:08.798Z</time></trkpt><trkpt lat="42.53170014484973" lon="12.048386212279924"><ele>487.0</ele><time>2026-04-19T17:22:09.798Z</time></trkpt><trkpt lat="42.53175724842391" lon="12.04815055732108"><ele>487.0</ele><time>2026-04-19T17:22:10.798Z</time></trkpt><trkpt lat="42.53182759433746" lon="12.047894626178527"><ele>487.0</ele><time>2026-04-19T17:22:11.798Z</time></trkpt><trkpt lat="42.53191649175928" lon="12.047635956087877"><ele>487.0</ele><time>2026-04-19T17:22:12.797Z</time></trkpt><trkpt lat="42.53200409260032" lon="12.047384239941623"><ele>488.6666666666667</ele><time>2026-04-19T17:22:13.797Z</time></trkpt><trkpt lat="42.53208837553256" lon="12.047130608979097"><ele>490.33333333333337</ele><time>2026-04-19T17:22:14.798Z</time></trkpt><trkpt lat="42.532159759100296" lon="12.046860029289714"><ele>492.0</ele><time>2026-04-19T17:22:15.798Z</time></trkpt><trkpt lat="42.532212480093975" lon="12.046584884460186"><ele>493.66666666666663</ele><time>2026-04-19T17:22:16.798Z</time></trkpt><trkpt lat="42.53226843704753" lon="12.046294485620612"><ele>495.3333333333333</ele><time>2026-04-19T17:22:17.798Z</time></trkpt><trkpt lat="42.53232289170176" lon="12.04600476354707"><ele>497.0</ele><time>2026-04-19T17:22:18.798Z</time></trkpt><trkpt lat="42.53238007068853" lon="12.045708591956432"><ele>498.3333333333333</ele><time>2026-04-19T17:22:19.798Z</time></trkpt><trkpt lat="42.532433853420336" lon="12.04541335864793"><ele>499.66666666666663</ele><time>2026-04-19T17:22:20.797Z</time></trkpt><trkpt lat="42.532492781125924" lon="12.04513145187025"><ele>501.0</ele><time>2026-04-19T17:22:21.798Z</time></trkpt><trkpt lat="42.53256266341095" lon="12.044860939544074"><ele>501.33333333333337</ele><time>2026-04-19T17:22:22.798Z</time></trkpt><trkpt lat="42.53263920043019" lon="12.044593337708612"><ele>501.6666666666667</ele><time>2026-04-19T17:22:23.798Z</time></trkpt><trkpt lat="42.53274140310809" lon="12.044352674704577"><ele>502.0</ele><time>2026-04-19T17:22:24.798Z</time></trkpt><trkpt lat="42.532866453002335" lon="12.044130755656266"><ele>505.0</ele><time>2026-04-19T17:22:25.798Z</time></trkpt><trkpt lat="42.53300516990472" lon="12.043916746848112"><ele>508.0</ele><time>2026-04-19T17:22:26.797Z</time></trkpt><trkpt lat="42.5331460475794" lon="12.043702769476171"><ele>511.0</ele><time>2026-04-19T17:22:27.797Z</time></trkpt><trkpt lat="42.53328278011988" lon="12.043465673499862"><ele>510.33333333333337</ele><time>2026-04-19T17:22:28.797Z</time></trkpt><trkpt lat="42.533421538194396" lon="12.04322254753678"><ele>509.66666666666663</ele><time>2026-04-19T17:22:29.797Z</time></trkpt><trkpt lat="42.53355756022685" lon="12.042991443276525"><ele>509.0</ele><time>2026-04-19T17:22:30.797Z</time></trkpt><trkpt lat="42.53369163444199" lon="12.042751476364064"><ele>511.3333333333333</ele><time>2026-04-19T17:22:31.797Z</time></trkpt><trkpt lat="42.53381359051253" lon="12.042521565172674"><ele>513.6666666666666</ele><time>2026-04-19T17:22:32.797Z</time></trkpt><trkpt lat="42.53393971020702" lon="12.042307573043722"><ele>516.0</ele><time>2026-04-19T17:22:33.797Z</time></trkpt><trkpt lat="42.53406070247151" lon="12.042073373348089"><ele>517.0</ele><time>2026-04-19T17:22:34.797Z</time></trkpt><trkpt lat="42.534175028461824" lon="12.041840826881863"><ele>518.0</ele><time>2026-04-19T17:22:35.797Z</time></trkpt><trkpt lat="42.53428998439672" lon="12.041604956735092"><ele>519.0</ele><time>2026-04-19T17:22:36.797Z</time></trkpt><trkpt lat="42.53441168172914" lon="12.041375301716592"><ele>520.3333333333334</ele><time>2026-04-19T17:22:37.797Z</time></trkpt><trkpt lat="42.534528678679315" lon="12.041145714052934"><ele>521.6666666666667</ele><time>2026-04-19T17:22:38.797Z</time></trkpt><trkpt lat="42.5346532578305" lon="12.040923251569895"><ele>523.0</ele><time>2026-04-19T17:22:39.797Z</time></trkpt><trkpt lat="42.53478408136461" lon="12.040703375621439"><ele>525.3333333333334</ele><time>2026-04-19T17:22:40.797Z</time></trkpt><trkpt lat="42.53492004252545" lon="12.040496812370748"><ele>527.6666666666666</ele><time>2026-04-19T17:22:41.797Z</time></trkpt><trkpt lat="42.53506129632479" lon="12.040290948928455"><ele>530.0</ele><time>2026-04-19T17:22:42.797Z</time></trkpt><trkpt lat="42.535213568776186" lon="12.040085818748006"><ele>532.0</ele><time>2026-04-19T17:22:43.797Z</time></trkpt><trkpt lat="42.53537044481904" lon="12.039872754083676"><ele>534.0</ele><time>2026-04-19T17:22:44.797Z</time></trkpt><trkpt lat="42.53553486523525" lon="12.039670558296208"><ele>536.0</ele><time>2026-04-19T17:22:45.797Z</time></trkpt><trkpt lat="42.53570409633179" lon="12.039465899983917"><ele>536.0</ele><time>2026-04-19T17:22:46.797Z</time></trkpt><trkpt lat="42.53586912117501" lon="12.039263729886484"><ele>536.0</ele><time>2026-04-19T17:22:47.797Z</time></trkpt><trkpt lat="42.536022888025656" lon="12.039069272392336"><ele>536.0</ele><time>2026-04-19T17:22:48.797Z</time></trkpt><trkpt lat="42.536173698813286" lon="12.03888095653479"><ele>537.3333333333333</ele><time>2026-04-19T17:22:49.796Z</time></trkpt><trkpt lat="42.536322336395315" lon="12.03869766941124"><ele>538.6666666666666</ele><time>2026-04-19T17:22:50.796Z</time></trkpt><trkpt lat="42.536474363621586" lon="12.03851517460579"><ele>540.0</ele><time>2026-04-19T17:22:51.796Z</time></trkpt><trkpt lat="42.536629299144295" lon="12.038330434725989"><ele>539.6666666666666</ele><time>2026-04-19T17:22:52.796Z</time></trkpt><trkpt lat="42.53676377967629" lon="12.038145104642219"><ele>539.3333333333333</ele><time>2026-04-19T17:22:53.796Z</time></trkpt><trkpt lat="42.5368883959567" lon="12.037964064772515"><ele>539.0</ele><time>2026-04-19T17:22:54.796Z</time></trkpt><trkpt lat="42.53700191899119" lon="12.037780885146718"><ele>540.0</ele><time>2026-04-19T17:22:55.796Z</time></trkpt><trkpt lat="42.53711362608386" lon="12.03761322665144"><ele>541.0</ele><time>2026-04-19T17:22:56.796Z</time></trkpt><trkpt lat="42.53722876385182" lon="12.03747340088011"><ele>542.0</ele><time>2026-04-19T17:22:57.796Z</time></trkpt><trkpt lat="42.53732126662823" lon="12.037347882348705"><ele>542.3333333333333</ele><time>2026-04-19T17:22:58.796Z</time></trkpt><trkpt lat="42.53739779058679" lon="12.037244049629171"><ele>542.6666666666666</ele><time>2026-04-19T17:22:59.796Z</time></trkpt><trkpt lat="42.53746761885506" lon="12.037149267773625"><ele>543.0</ele><time>2026-04-19T17:23:00.796Z</time></trkpt><trkpt lat="42.53751971774154" lon="12.037077565654613"><ele>543.3333333333334</ele><time>2026-04-19T17:23:01.796Z</time></trkpt><trkpt lat="42.53757617611969" lon="12.03700006970869"><ele>543.6666666666667</ele><time>2026-04-19T17:23:02.796Z</time></trkpt><trkpt lat="42.5376366655696" lon="12.036917515156253"><ele>544.0</ele><time>2026-04-19T17:23:03.796Z</time></trkpt><trkpt lat="42.53768924316495" lon="12.036845412146443"><ele>544.0</ele><time>2026-04-19T17:23:04.796Z</time></trkpt><trkpt lat="42.537749124744415" lon="12.036762268310184"><ele>544.0</ele><time>2026-04-19T17:23:06.796Z</time></trkpt><trkpt lat="42.53781593953647" lon="12.036734368950576"><ele>544.0</ele><time>2026-04-19T17:23:25.795Z</time></trkpt><trkpt lat="42.537902514406404" lon="12.036636918703065"><ele>544.0</ele><time>2026-04-19T17:23:27.795Z</time></trkpt><trkpt lat="42.53798218557883" lon="12.036517733283498"><ele>544.0</ele><time>2026-04-19T17:23:29.795Z</time></trkpt><trkpt lat="42.53804816629261" lon="12.036415343448223"><ele>544.5</ele><time>2026-04-19T17:23:31.795Z</time></trkpt><trkpt lat="42.53810741251665" lon="12.036341290348561"><ele>545.0</ele><time>2026-04-19T17:23:33.795Z</time></trkpt><trkpt lat="42.53815804305462" lon="12.036273754955365"><ele>545.5</ele><time>2026-04-19T17:23:35.794Z</time></trkpt><trkpt lat="42.53819716227116" lon="12.036202943296738"><ele>546.0</ele><time>2026-04-19T17:23:39.794Z</time></trkpt><trkpt lat="42.5382315332318" lon="12.0361187492974"><ele>546.5</ele><time>2026-04-19T17:23:58.793Z</time></trkpt><trkpt lat="42.53830604284349" lon="12.03600545549882"><ele>547.0</ele><time>2026-04-19T17:24:00.793Z</time></trkpt><trkpt lat="42.538370105040244" lon="12.035915256716612"><ele>547.0</ele><time>2026-04-19T17:24:01.793Z</time></trkpt><trkpt lat="42.53844168378136" lon="12.035813725750408"><ele>547.0</ele><time>2026-04-19T17:24:02.793Z</time></trkpt><trkpt lat="42.538527656114475" lon="12.035686596712914"><ele>547.0</ele><time>2026-04-19T17:24:03.793Z</time></trkpt><trkpt lat="42.53861815463308" lon="12.035564740137021"><ele>547.0</ele><time>2026-04-19T17:24:04.793Z</time></trkpt><trkpt lat="42.538709496556194" lon="12.035470903578565"><ele>549.2</ele><time>2026-04-19T17:24:05.793Z</time></trkpt><trkpt lat="42.53879525285161" lon="12.035409114711644"><ele>551.4000000000001</ele><time>2026-04-19T17:24:06.793Z</time></trkpt><trkpt lat="42.53890024093988" lon="12.035404849768856"><ele>553.5999999999999</ele><time>2026-04-19T17:24:07.793Z</time></trkpt><trkpt lat="42.538999614479515" lon="12.035468897769938"><ele>555.8</ele><time>2026-04-19T17:24:08.793Z</time></trkpt><trkpt lat="42.5391231382965" lon="12.035515785553601"><ele>558.0</ele><time>2026-04-19T17:24:09.793Z</time></trkpt><trkpt lat="42.53925987660926" lon="12.035551671033444"><ele>558.0</ele><time>2026-04-19T17:24:10.793Z</time></trkpt><trkpt lat="42.53938323250019" lon="12.035605240111853"><ele>558.0</ele><time>2026-04-19T17:24:11.793Z</time></trkpt><trkpt lat="42.53950384410614" lon="12.035647758610544"><ele>558.0</ele><time>2026-04-19T17:24:12.793Z</time></trkpt><trkpt lat="42.539612480083065" lon="12.035684784027257"><ele>558.0</ele><time>2026-04-19T17:24:13.793Z</time></trkpt><trkpt lat="42.5397205957516" lon="12.03571303621712"><ele>558.75</ele><time>2026-04-19T17:24:14.795Z</time></trkpt><trkpt lat="42.53983242446718" lon="12.035742486821714"><ele>559.5</ele><time>2026-04-19T17:24:15.796Z</time></trkpt><trkpt lat="42.539951884632245" lon="12.035783084830172"><ele>560.25</ele><time>2026-04-19T17:24:16.796Z</time></trkpt><trkpt lat="42.54008051796932" lon="12.03581442330953"><ele>561.0</ele><time>2026-04-19T17:24:17.795Z</time></trkpt><trkpt lat="42.54020949316966" lon="12.035837126973078"><ele>559.5</ele><time>2026-04-19T17:24:18.795Z</time></trkpt><trkpt lat="42.54033975085384" lon="12.035861439056907"><ele>558.0</ele><time>2026-04-19T17:24:19.795Z</time></trkpt><trkpt lat="42.54046253655969" lon="12.03587778303025"><ele>556.5</ele><time>2026-04-19T17:24:20.795Z</time></trkpt><trkpt lat="42.540591367853246" lon="12.035901238745605"><ele>555.0</ele><time>2026-04-19T17:24:21.795Z</time></trkpt><trkpt lat="42.540717927679374" lon="12.035908605330565"><ele>554.75</ele><time>2026-04-19T17:24:22.795Z</time></trkpt><trkpt lat="42.54083566971601" lon="12.035920454421868"><ele>554.5</ele><time>2026-04-19T17:24:23.795Z</time></trkpt><trkpt lat="42.5409560108759" lon="12.035940997487048"><ele>554.25</ele><time>2026-04-19T17:24:24.795Z</time></trkpt><trkpt lat="42.5410738406549" lon="12.03594770592398"><ele>554.0</ele><time>2026-04-19T17:24:25.795Z</time></trkpt><trkpt lat="42.541193510549924" lon="12.035965002130165"><ele>551.6</ele><time>2026-04-19T17:24:26.795Z</time></trkpt><trkpt lat="42.541304730805116" lon="12.035988926381535"><ele>549.2</ele><time>2026-04-19T17:24:27.795Z</time></trkpt><trkpt lat="42.54141269457281" lon="12.036031039895555"><ele>546.8000000000001</ele><time>2026-04-19T17:24:28.795Z</time></trkpt><trkpt lat="42.54151440593584" lon="12.036071865926509"><ele>544.4</ele><time>2026-04-19T17:24:29.795Z</time></trkpt><trkpt lat="42.5416045277588" lon="12.036111226916471"><ele>542.0</ele><time>2026-04-19T17:24:30.795Z</time></trkpt><trkpt lat="42.54168972861533" lon="12.036144223727812"><ele>542.0</ele><time>2026-04-19T17:24:31.795Z</time></trkpt><trkpt lat="42.541767281710996" lon="12.036178340019807"><ele>542.0</ele><time>2026-04-19T17:24:32.795Z</time></trkpt><trkpt lat="42.54184515718682" lon="12.036206648515689"><ele>542.0</ele><time>2026-04-19T17:24:33.795Z</time></trkpt><trkpt lat="42.541932998713165" lon="12.036251446347611"><ele>542.0</ele><time>2026-04-19T17:24:35.794Z</time></trkpt><trkpt lat="42.542040238095964" lon="12.03609545444363"><ele>542.0</ele><time>2026-04-19T17:24:37.794Z</time></trkpt><trkpt lat="42.54210596380827" lon="12.036000094146681"><ele>542.0</ele><time>2026-04-19T17:24:39.794Z</time></trkpt><trkpt lat="42.5421514640738" lon="12.03589780882562"><ele>542.0</ele><time>2026-04-19T17:24:44.794Z</time></trkpt><trkpt lat="42.54220346738587" lon="12.035808498720652"><ele>542.0</ele><time>2026-04-19T17:24:51.794Z</time></trkpt><trkpt lat="42.541757818309236" lon="12.036013440919572"><ele>548.0</ele><time>2026-04-19T17:24:52.794Z</time></trkpt><trkpt lat="42.5418841942075" lon="12.035354716987442"><ele>548.0</ele><time>2026-04-19T17:24:53.794Z</time></trkpt><trkpt lat="42.54183915023153" lon="12.035233723366703"><ele>548.0</ele><time>2026-04-19T17:24:54.794Z</time></trkpt><trkpt lat="42.54179229798561" lon="12.035141471355834"><ele>548.0</ele><time>2026-04-19T17:24:55.794Z</time></trkpt><trkpt lat="42.54174866555731" lon="12.03501505416823"><ele>548.0</ele><time>2026-04-19T17:24:57.794Z</time></trkpt><trkpt lat="42.541670989496474" lon="12.035070694992518"><ele>548.0</ele><time>2026-04-19T17:30:51.789Z</time></trkpt></trkseg></trk></gpx>